<?xml version="1.0" encoding="UTF-8"?>
<gpx version="1.1" creator="https://www.youtrack.es" xsi:schemaLocation="http://www.topografix.com/GPX/1/1 http://www.topografix.com/GPX/1/1/gpx.xsd http://www.garmin.com/xmlschemas/GpxExtensions/v3 http://www.garmin.com/xmlschemas/GpxExtensionsv3.xsd http://www.garmin.com/xmlschemas/TrackPointExtension/v1 http://www.garmin.com/xmlschemas/TrackPointExtensionv1.xsd" xmlns:gpxtpx="http://www.garmin.com/xmlschemas/TrackPointExtension/v1" xmlns:gpxx="http://www.garmin.com/xmlschemas/GpxExtensions/v3" xmlns:xsi="http://www.w3.org/2001/XMLSchema-instance">
  <metadata>
    <link href="https://www.youtrack.es">
      <text>YouTrack.es</text>
    </link>
    <time>2026-05-09T06:21:48Z</time>
  </metadata>
  <trk>
    <src>https://www.youtrack.es</src>
    <link href="https://www.youtrack.es/ruta/21909-clezeriplover">
      <text>YouTrack.es</text>
    </link>
    <trkseg>
      <trkpt lat="43.347192" lon="-6.854337">
        <ele>442.9</ele>
        <time>2021-04-23T08:51:54.000Z</time>
      </trkpt>
      <trkpt lat="43.347097" lon="-6.854352">
        <ele>443.5</ele>
        <time>2021-04-23T08:51:55.000Z</time>
      </trkpt>
      <trkpt lat="43.347005" lon="-6.854365">
        <ele>443.9</ele>
        <time>2021-04-23T08:51:56.000Z</time>
      </trkpt>
      <trkpt lat="43.346898" lon="-6.854387">
        <ele>443.9</ele>
        <time>2021-04-23T08:51:57.000Z</time>
      </trkpt>
      <trkpt lat="43.346715" lon="-6.854445">
        <ele>444.5</ele>
        <time>2021-04-23T08:51:59.000Z</time>
      </trkpt>
      <trkpt lat="43.346615" lon="-6.854495">
        <ele>445.4</ele>
        <time>2021-04-23T08:52:00.000Z</time>
      </trkpt>
      <trkpt lat="43.346512" lon="-6.854542">
        <ele>446.7</ele>
        <time>2021-04-23T08:52:01.000Z</time>
      </trkpt>
      <trkpt lat="43.346408" lon="-6.854593">
        <ele>448.2</ele>
        <time>2021-04-23T08:52:02.000Z</time>
      </trkpt>
      <trkpt lat="43.346315" lon="-6.85466">
        <ele>448.5</ele>
        <time>2021-04-23T08:52:03.000Z</time>
      </trkpt>
      <trkpt lat="43.346222" lon="-6.85472">
        <ele>449.3</ele>
        <time>2021-04-23T08:52:04.000Z</time>
      </trkpt>
      <trkpt lat="43.346132" lon="-6.854787">
        <ele>449.7</ele>
        <time>2021-04-23T08:52:05.000Z</time>
      </trkpt>
      <trkpt lat="43.346043" lon="-6.854857">
        <ele>449</ele>
        <time>2021-04-23T08:52:06.000Z</time>
      </trkpt>
      <trkpt lat="43.345955" lon="-6.854932">
        <ele>449.6</ele>
        <time>2021-04-23T08:52:07.000Z</time>
      </trkpt>
      <trkpt lat="43.345865" lon="-6.855005">
        <ele>450</ele>
        <time>2021-04-23T08:52:08.000Z</time>
      </trkpt>
      <trkpt lat="43.345777" lon="-6.855073">
        <ele>450.3</ele>
        <time>2021-04-23T08:52:09.000Z</time>
      </trkpt>
      <trkpt lat="43.345692" lon="-6.855135">
        <ele>450.3</ele>
        <time>2021-04-23T08:52:10.000Z</time>
      </trkpt>
      <trkpt lat="43.345558" lon="-6.855217">
        <ele>450.6</ele>
        <time>2021-04-23T08:52:12.000Z</time>
      </trkpt>
      <trkpt lat="43.345442" lon="-6.855223">
        <ele>450.7</ele>
        <time>2021-04-23T08:52:14.000Z</time>
      </trkpt>
      <trkpt lat="43.345293" lon="-6.855183">
        <ele>452.8</ele>
        <time>2021-04-23T08:52:16.000Z</time>
      </trkpt>
      <trkpt lat="43.345117" lon="-6.855152">
        <ele>455.2</ele>
        <time>2021-04-23T08:52:18.000Z</time>
      </trkpt>
      <trkpt lat="43.344965" lon="-6.855122">
        <ele>456.3</ele>
        <time>2021-04-23T08:52:20.000Z</time>
      </trkpt>
      <trkpt lat="43.34486" lon="-6.855067">
        <ele>457.3</ele>
        <time>2021-04-23T08:52:21.000Z</time>
      </trkpt>
      <trkpt lat="43.34476" lon="-6.855025">
        <ele>457.8</ele>
        <time>2021-04-23T08:52:22.000Z</time>
      </trkpt>
      <trkpt lat="43.344668" lon="-6.85499">
        <ele>458.1</ele>
        <time>2021-04-23T08:52:23.000Z</time>
      </trkpt>
      <trkpt lat="43.344563" lon="-6.854945">
        <ele>458.4</ele>
        <time>2021-04-23T08:52:24.000Z</time>
      </trkpt>
      <trkpt lat="43.344433" lon="-6.854892">
        <ele>458.7</ele>
        <time>2021-04-23T08:52:25.000Z</time>
      </trkpt>
      <trkpt lat="43.34431" lon="-6.854842">
        <ele>459.1</ele>
        <time>2021-04-23T08:52:26.000Z</time>
      </trkpt>
      <trkpt lat="43.344195" lon="-6.854785">
        <ele>459.4</ele>
        <time>2021-04-23T08:52:27.000Z</time>
      </trkpt>
      <trkpt lat="43.344067" lon="-6.854735">
        <ele>459.7</ele>
        <time>2021-04-23T08:52:28.000Z</time>
      </trkpt>
      <trkpt lat="43.343935" lon="-6.854647">
        <ele>460.2</ele>
        <time>2021-04-23T08:52:29.000Z</time>
      </trkpt>
      <trkpt lat="43.343817" lon="-6.854553">
        <ele>460.8</ele>
        <time>2021-04-23T08:52:30.000Z</time>
      </trkpt>
      <trkpt lat="43.343695" lon="-6.85445">
        <ele>463.6</ele>
        <time>2021-04-23T08:52:31.000Z</time>
      </trkpt>
      <trkpt lat="43.3436" lon="-6.854347">
        <ele>464.7</ele>
        <time>2021-04-23T08:52:32.000Z</time>
      </trkpt>
      <trkpt lat="43.343513" lon="-6.854258">
        <ele>464.8</ele>
        <time>2021-04-23T08:52:33.000Z</time>
      </trkpt>
      <trkpt lat="43.343432" lon="-6.854197">
        <ele>466.3</ele>
        <time>2021-04-23T08:52:34.000Z</time>
      </trkpt>
      <trkpt lat="43.34334" lon="-6.854173">
        <ele>467.4</ele>
        <time>2021-04-23T08:52:35.000Z</time>
      </trkpt>
      <trkpt lat="43.34317" lon="-6.854205">
        <ele>469.9</ele>
        <time>2021-04-23T08:52:37.000Z</time>
      </trkpt>
      <trkpt lat="43.343002" lon="-6.854257">
        <ele>470.8</ele>
        <time>2021-04-23T08:52:39.000Z</time>
      </trkpt>
      <trkpt lat="43.34284" lon="-6.854297">
        <ele>471.4</ele>
        <time>2021-04-23T08:52:41.000Z</time>
      </trkpt>
      <trkpt lat="43.342705" lon="-6.854295">
        <ele>471</ele>
        <time>2021-04-23T08:52:43.000Z</time>
      </trkpt>
      <trkpt lat="43.342605" lon="-6.854243">
        <ele>470.7</ele>
        <time>2021-04-23T08:52:45.000Z</time>
      </trkpt>
      <trkpt lat="43.34248" lon="-6.854245">
        <ele>470.4</ele>
        <time>2021-04-23T08:52:48.000Z</time>
      </trkpt>
      <trkpt lat="43.342377" lon="-6.854378">
        <ele>470.8</ele>
        <time>2021-04-23T08:52:51.000Z</time>
      </trkpt>
      <trkpt lat="43.342287" lon="-6.854455">
        <ele>470.6</ele>
        <time>2021-04-23T08:52:53.000Z</time>
      </trkpt>
      <trkpt lat="43.342177" lon="-6.854445">
        <ele>471.3</ele>
        <time>2021-04-23T08:52:55.000Z</time>
      </trkpt>
      <trkpt lat="43.342073" lon="-6.854393">
        <ele>472.2</ele>
        <time>2021-04-23T08:52:57.000Z</time>
      </trkpt>
      <trkpt lat="43.341978" lon="-6.854307">
        <ele>473.1</ele>
        <time>2021-04-23T08:52:59.000Z</time>
      </trkpt>
      <trkpt lat="43.341895" lon="-6.854223">
        <ele>473.7</ele>
        <time>2021-04-23T08:53:01.000Z</time>
      </trkpt>
      <trkpt lat="43.34183" lon="-6.85402">
        <ele>470.5</ele>
        <time>2021-04-23T08:53:18.000Z</time>
      </trkpt>
      <trkpt lat="43.34183" lon="-6.853872">
        <ele>471.7</ele>
        <time>2021-04-23T08:53:21.000Z</time>
      </trkpt>
      <trkpt lat="43.341863" lon="-6.8537">
        <ele>471.2</ele>
        <time>2021-04-23T08:53:24.000Z</time>
      </trkpt>
      <trkpt lat="43.341885" lon="-6.853573">
        <ele>470.1</ele>
        <time>2021-04-23T08:53:26.000Z</time>
      </trkpt>
      <trkpt lat="43.341898" lon="-6.853433">
        <ele>470.2</ele>
        <time>2021-04-23T08:53:28.000Z</time>
      </trkpt>
      <trkpt lat="43.341908" lon="-6.853307">
        <ele>471</ele>
        <time>2021-04-23T08:53:30.000Z</time>
      </trkpt>
      <trkpt lat="43.34194" lon="-6.853127">
        <ele>470</ele>
        <time>2021-04-23T08:53:33.000Z</time>
      </trkpt>
      <trkpt lat="43.342002" lon="-6.852965">
        <ele>471.1</ele>
        <time>2021-04-23T08:53:36.000Z</time>
      </trkpt>
      <trkpt lat="43.342062" lon="-6.852855">
        <ele>473.4</ele>
        <time>2021-04-23T08:53:38.000Z</time>
      </trkpt>
      <trkpt lat="43.34216" lon="-6.85274">
        <ele>474.9</ele>
        <time>2021-04-23T08:53:41.000Z</time>
      </trkpt>
      <trkpt lat="43.342262" lon="-6.85265">
        <ele>475.5</ele>
        <time>2021-04-23T08:53:44.000Z</time>
      </trkpt>
      <trkpt lat="43.342363" lon="-6.852558">
        <ele>474.9</ele>
        <time>2021-04-23T08:53:47.000Z</time>
      </trkpt>
      <trkpt lat="43.342473" lon="-6.852443">
        <ele>476.3</ele>
        <time>2021-04-23T08:53:50.000Z</time>
      </trkpt>
      <trkpt lat="43.342553" lon="-6.852358">
        <ele>477.8</ele>
        <time>2021-04-23T08:53:52.000Z</time>
      </trkpt>
      <trkpt lat="43.342638" lon="-6.852263">
        <ele>478.8</ele>
        <time>2021-04-23T08:53:54.000Z</time>
      </trkpt>
      <trkpt lat="43.342722" lon="-6.852173">
        <ele>478.8</ele>
        <time>2021-04-23T08:53:56.000Z</time>
      </trkpt>
      <trkpt lat="43.342798" lon="-6.85208">
        <ele>478.3</ele>
        <time>2021-04-23T08:53:58.000Z</time>
      </trkpt>
      <trkpt lat="43.342917" lon="-6.852013">
        <ele>478.6</ele>
        <time>2021-04-23T08:54:37.000Z</time>
      </trkpt>
      <trkpt lat="43.343005" lon="-6.851973">
        <ele>481.6</ele>
        <time>2021-04-23T08:54:42.000Z</time>
      </trkpt>
      <trkpt lat="43.343082" lon="-6.851892">
        <ele>480.8</ele>
        <time>2021-04-23T08:54:48.000Z</time>
      </trkpt>
      <trkpt lat="43.343097" lon="-6.851762">
        <ele>480.5</ele>
        <time>2021-04-23T08:54:53.000Z</time>
      </trkpt>
      <trkpt lat="43.34306" lon="-6.851632">
        <ele>479.4</ele>
        <time>2021-04-23T08:54:56.000Z</time>
      </trkpt>
      <trkpt lat="43.343007" lon="-6.851475">
        <ele>477.5</ele>
        <time>2021-04-23T08:54:59.000Z</time>
      </trkpt>
      <trkpt lat="43.342958" lon="-6.85132">
        <ele>475.7</ele>
        <time>2021-04-23T08:55:02.000Z</time>
      </trkpt>
      <trkpt lat="43.342918" lon="-6.851147">
        <ele>473.1</ele>
        <time>2021-04-23T08:55:05.000Z</time>
      </trkpt>
      <trkpt lat="43.342897" lon="-6.850967">
        <ele>472.4</ele>
        <time>2021-04-23T08:55:08.000Z</time>
      </trkpt>
      <trkpt lat="43.342882" lon="-6.850788">
        <ele>471.6</ele>
        <time>2021-04-23T08:55:11.000Z</time>
      </trkpt>
      <trkpt lat="43.342862" lon="-6.850612">
        <ele>467.8</ele>
        <time>2021-04-23T08:55:14.000Z</time>
      </trkpt>
      <trkpt lat="43.342797" lon="-6.850462">
        <ele>465.1</ele>
        <time>2021-04-23T08:55:17.000Z</time>
      </trkpt>
      <trkpt lat="43.342723" lon="-6.850327">
        <ele>462.7</ele>
        <time>2021-04-23T08:55:20.000Z</time>
      </trkpt>
      <trkpt lat="43.34265" lon="-6.850197">
        <ele>462.2</ele>
        <time>2021-04-23T08:55:23.000Z</time>
      </trkpt>
      <trkpt lat="43.342577" lon="-6.850103">
        <ele>466</ele>
        <time>2021-04-23T08:55:25.000Z</time>
      </trkpt>
      <trkpt lat="43.342493" lon="-6.850005">
        <ele>468.5</ele>
        <time>2021-04-23T08:55:27.000Z</time>
      </trkpt>
      <trkpt lat="43.342427" lon="-6.849908">
        <ele>467.8</ele>
        <time>2021-04-23T08:55:29.000Z</time>
      </trkpt>
      <trkpt lat="43.342365" lon="-6.84981">
        <ele>466.7</ele>
        <time>2021-04-23T08:55:31.000Z</time>
      </trkpt>
      <trkpt lat="43.342308" lon="-6.849708">
        <ele>464.7</ele>
        <time>2021-04-23T08:55:34.000Z</time>
      </trkpt>
      <trkpt lat="43.342252" lon="-6.849578">
        <ele>461</ele>
        <time>2021-04-23T08:55:41.000Z</time>
      </trkpt>
      <trkpt lat="43.342183" lon="-6.849442">
        <ele>458.7</ele>
        <time>2021-04-23T08:55:45.000Z</time>
      </trkpt>
      <trkpt lat="43.342132" lon="-6.84931">
        <ele>454.8</ele>
        <time>2021-04-23T08:55:48.000Z</time>
      </trkpt>
      <trkpt lat="43.342078" lon="-6.849192">
        <ele>453.1</ele>
        <time>2021-04-23T08:55:51.000Z</time>
      </trkpt>
      <trkpt lat="43.34202" lon="-6.849092">
        <ele>451.9</ele>
        <time>2021-04-23T08:56:07.000Z</time>
      </trkpt>
      <trkpt lat="43.341948" lon="-6.848953">
        <ele>452.2</ele>
        <time>2021-04-23T08:56:11.000Z</time>
      </trkpt>
      <trkpt lat="43.341885" lon="-6.8488">
        <ele>450.9</ele>
        <time>2021-04-23T08:56:14.000Z</time>
      </trkpt>
      <trkpt lat="43.34183" lon="-6.848627">
        <ele>447.4</ele>
        <time>2021-04-23T08:56:17.000Z</time>
      </trkpt>
      <trkpt lat="43.34181" lon="-6.848503">
        <ele>444</ele>
        <time>2021-04-23T08:56:19.000Z</time>
      </trkpt>
      <trkpt lat="43.341785" lon="-6.848375">
        <ele>441.8</ele>
        <time>2021-04-23T08:56:21.000Z</time>
      </trkpt>
      <trkpt lat="43.341763" lon="-6.848243">
        <ele>439.3</ele>
        <time>2021-04-23T08:56:23.000Z</time>
      </trkpt>
      <trkpt lat="43.341747" lon="-6.848112">
        <ele>438.9</ele>
        <time>2021-04-23T08:56:25.000Z</time>
      </trkpt>
      <trkpt lat="43.341762" lon="-6.847983">
        <ele>437.1</ele>
        <time>2021-04-23T08:56:27.000Z</time>
      </trkpt>
      <trkpt lat="43.341773" lon="-6.847845">
        <ele>434.3</ele>
        <time>2021-04-23T08:56:30.000Z</time>
      </trkpt>
      <trkpt lat="43.34175" lon="-6.847723">
        <ele>432</ele>
        <time>2021-04-23T08:56:34.000Z</time>
      </trkpt>
      <trkpt lat="43.341737" lon="-6.847597">
        <ele>429.8</ele>
        <time>2021-04-23T08:56:38.000Z</time>
      </trkpt>
      <trkpt lat="43.341738" lon="-6.847462">
        <ele>425.9</ele>
        <time>2021-04-23T08:56:45.000Z</time>
      </trkpt>
      <trkpt lat="43.341718" lon="-6.84731">
        <ele>430.2</ele>
        <time>2021-04-23T08:56:49.000Z</time>
      </trkpt>
      <trkpt lat="43.341703" lon="-6.847163">
        <ele>433</ele>
        <time>2021-04-23T08:56:52.000Z</time>
      </trkpt>
      <trkpt lat="43.341698" lon="-6.84702">
        <ele>433.6</ele>
        <time>2021-04-23T08:56:56.000Z</time>
      </trkpt>
      <trkpt lat="43.341728" lon="-6.846897">
        <ele>432.3</ele>
        <time>2021-04-23T08:57:02.000Z</time>
      </trkpt>
      <trkpt lat="43.3417" lon="-6.84671">
        <ele>437.9</ele>
        <time>2021-04-23T08:57:53.000Z</time>
      </trkpt>
      <trkpt lat="43.341623" lon="-6.84659">
        <ele>438</ele>
        <time>2021-04-23T09:03:21.000Z</time>
      </trkpt>
      <trkpt lat="43.341545" lon="-6.846453">
        <ele>435.8</ele>
        <time>2021-04-23T09:03:24.000Z</time>
      </trkpt>
      <trkpt lat="43.341458" lon="-6.846312">
        <ele>433.4</ele>
        <time>2021-04-23T09:03:27.000Z</time>
      </trkpt>
      <trkpt lat="43.341397" lon="-6.846192">
        <ele>428.2</ele>
        <time>2021-04-23T09:03:30.000Z</time>
      </trkpt>
      <trkpt lat="43.341355" lon="-6.84607">
        <ele>422.6</ele>
        <time>2021-04-23T09:03:34.000Z</time>
      </trkpt>
      <trkpt lat="43.341267" lon="-6.845982">
        <ele>420.7</ele>
        <time>2021-04-23T09:03:40.000Z</time>
      </trkpt>
      <trkpt lat="43.341165" lon="-6.845907">
        <ele>419.4</ele>
        <time>2021-04-23T09:03:44.000Z</time>
      </trkpt>
      <trkpt lat="43.34107" lon="-6.845838">
        <ele>416.7</ele>
        <time>2021-04-23T09:03:48.000Z</time>
      </trkpt>
      <trkpt lat="43.340985" lon="-6.845775">
        <ele>412.3</ele>
        <time>2021-04-23T09:03:52.000Z</time>
      </trkpt>
      <trkpt lat="43.340878" lon="-6.845723">
        <ele>410.3</ele>
        <time>2021-04-23T09:03:56.000Z</time>
      </trkpt>
      <trkpt lat="43.340788" lon="-6.84568">
        <ele>404.8</ele>
        <time>2021-04-23T09:04:00.000Z</time>
      </trkpt>
      <trkpt lat="43.340687" lon="-6.845647">
        <ele>404.2</ele>
        <time>2021-04-23T09:04:04.000Z</time>
      </trkpt>
      <trkpt lat="43.340575" lon="-6.845623">
        <ele>403</ele>
        <time>2021-04-23T09:04:08.000Z</time>
      </trkpt>
      <trkpt lat="43.340472" lon="-6.845647">
        <ele>403</ele>
        <time>2021-04-23T09:04:12.000Z</time>
      </trkpt>
      <trkpt lat="43.340405" lon="-6.845755">
        <ele>405.1</ele>
        <time>2021-04-23T09:04:16.000Z</time>
      </trkpt>
      <trkpt lat="43.34039" lon="-6.84588">
        <ele>406.2</ele>
        <time>2021-04-23T09:04:20.000Z</time>
      </trkpt>
      <trkpt lat="43.340395" lon="-6.846018">
        <ele>403.6</ele>
        <time>2021-04-23T09:04:25.000Z</time>
      </trkpt>
      <trkpt lat="43.340415" lon="-6.846157">
        <ele>400.5</ele>
        <time>2021-04-23T09:04:29.000Z</time>
      </trkpt>
      <trkpt lat="43.340425" lon="-6.846298">
        <ele>398.3</ele>
        <time>2021-04-23T09:04:33.000Z</time>
      </trkpt>
      <trkpt lat="43.34043" lon="-6.846443">
        <ele>393.9</ele>
        <time>2021-04-23T09:04:37.000Z</time>
      </trkpt>
      <trkpt lat="43.340453" lon="-6.846582">
        <ele>390.9</ele>
        <time>2021-04-23T09:04:41.000Z</time>
      </trkpt>
      <trkpt lat="43.340477" lon="-6.846707">
        <ele>389.9</ele>
        <time>2021-04-23T09:04:46.000Z</time>
      </trkpt>
      <trkpt lat="43.340517" lon="-6.846847">
        <ele>387</ele>
        <time>2021-04-23T09:04:51.000Z</time>
      </trkpt>
      <trkpt lat="43.340542" lon="-6.846985">
        <ele>382.3</ele>
        <time>2021-04-23T09:04:55.000Z</time>
      </trkpt>
      <trkpt lat="43.340565" lon="-6.84711">
        <ele>376.9</ele>
        <time>2021-04-23T09:04:59.000Z</time>
      </trkpt>
      <trkpt lat="43.340565" lon="-6.84725">
        <ele>376.5</ele>
        <time>2021-04-23T09:05:03.000Z</time>
      </trkpt>
      <trkpt lat="43.34054" lon="-6.847408">
        <ele>374.5</ele>
        <time>2021-04-23T09:05:07.000Z</time>
      </trkpt>
      <trkpt lat="43.340512" lon="-6.847562">
        <ele>375.2</ele>
        <time>2021-04-23T09:05:11.000Z</time>
      </trkpt>
      <trkpt lat="43.340488" lon="-6.847712">
        <ele>375.9</ele>
        <time>2021-04-23T09:05:15.000Z</time>
      </trkpt>
      <trkpt lat="43.34046" lon="-6.847855">
        <ele>373.5</ele>
        <time>2021-04-23T09:05:19.000Z</time>
      </trkpt>
      <trkpt lat="43.340422" lon="-6.848">
        <ele>371.9</ele>
        <time>2021-04-23T09:05:23.000Z</time>
      </trkpt>
      <trkpt lat="43.340378" lon="-6.848113">
        <ele>370.2</ele>
        <time>2021-04-23T09:05:26.000Z</time>
      </trkpt>
      <trkpt lat="43.34035" lon="-6.848232">
        <ele>367.3</ele>
        <time>2021-04-23T09:05:29.000Z</time>
      </trkpt>
      <trkpt lat="43.340302" lon="-6.848368">
        <ele>364.7</ele>
        <time>2021-04-23T09:05:33.000Z</time>
      </trkpt>
      <trkpt lat="43.340245" lon="-6.848512">
        <ele>365</ele>
        <time>2021-04-23T09:05:37.000Z</time>
      </trkpt>
      <trkpt lat="43.340212" lon="-6.848652">
        <ele>363.6</ele>
        <time>2021-04-23T09:05:41.000Z</time>
      </trkpt>
      <trkpt lat="43.340232" lon="-6.848787">
        <ele>354.8</ele>
        <time>2021-04-23T09:05:48.000Z</time>
      </trkpt>
      <trkpt lat="43.340187" lon="-6.84891">
        <ele>353.3</ele>
        <time>2021-04-23T09:05:52.000Z</time>
      </trkpt>
      <trkpt lat="43.340147" lon="-6.849033">
        <ele>353</ele>
        <time>2021-04-23T09:05:56.000Z</time>
      </trkpt>
      <trkpt lat="43.340115" lon="-6.849172">
        <ele>352.5</ele>
        <time>2021-04-23T09:06:00.000Z</time>
      </trkpt>
      <trkpt lat="43.340077" lon="-6.849288">
        <ele>352.2</ele>
        <time>2021-04-23T09:06:04.000Z</time>
      </trkpt>
      <trkpt lat="43.340017" lon="-6.849392">
        <ele>358.8</ele>
        <time>2021-04-23T09:06:07.000Z</time>
      </trkpt>
      <trkpt lat="43.339992" lon="-6.849512">
        <ele>359.9</ele>
        <time>2021-04-23T09:06:10.000Z</time>
      </trkpt>
      <trkpt lat="43.340002" lon="-6.849655">
        <ele>353.6</ele>
        <time>2021-04-23T09:06:14.000Z</time>
      </trkpt>
      <trkpt lat="43.340012" lon="-6.849793">
        <ele>348.9</ele>
        <time>2021-04-23T09:06:18.000Z</time>
      </trkpt>
      <trkpt lat="43.34005" lon="-6.849933">
        <ele>346.2</ele>
        <time>2021-04-23T09:06:22.000Z</time>
      </trkpt>
      <trkpt lat="43.340085" lon="-6.85007">
        <ele>341.1</ele>
        <time>2021-04-23T09:06:26.000Z</time>
      </trkpt>
      <trkpt lat="43.34013" lon="-6.850217">
        <ele>337</ele>
        <time>2021-04-23T09:06:30.000Z</time>
      </trkpt>
      <trkpt lat="43.340172" lon="-6.850353">
        <ele>334.3</ele>
        <time>2021-04-23T09:06:34.000Z</time>
      </trkpt>
      <trkpt lat="43.340142" lon="-6.850493">
        <ele>327.3</ele>
        <time>2021-04-23T09:06:38.000Z</time>
      </trkpt>
      <trkpt lat="43.340068" lon="-6.850593">
        <ele>323.1</ele>
        <time>2021-04-23T09:06:42.000Z</time>
      </trkpt>
      <trkpt lat="43.339977" lon="-6.850648">
        <ele>325.2</ele>
        <time>2021-04-23T09:06:45.000Z</time>
      </trkpt>
      <trkpt lat="43.339885" lon="-6.850688">
        <ele>328.5</ele>
        <time>2021-04-23T09:06:48.000Z</time>
      </trkpt>
      <trkpt lat="43.339787" lon="-6.850733">
        <ele>331.7</ele>
        <time>2021-04-23T09:06:51.000Z</time>
      </trkpt>
      <trkpt lat="43.339692" lon="-6.850777">
        <ele>334.6</ele>
        <time>2021-04-23T09:06:54.000Z</time>
      </trkpt>
      <trkpt lat="43.339598" lon="-6.850812">
        <ele>335.4</ele>
        <time>2021-04-23T09:06:57.000Z</time>
      </trkpt>
      <trkpt lat="43.339495" lon="-6.850857">
        <ele>335.5</ele>
        <time>2021-04-23T09:07:01.000Z</time>
      </trkpt>
      <trkpt lat="43.3394" lon="-6.850902">
        <ele>332.3</ele>
        <time>2021-04-23T09:07:05.000Z</time>
      </trkpt>
      <trkpt lat="43.33931" lon="-6.850932">
        <ele>328</ele>
        <time>2021-04-23T09:07:09.000Z</time>
      </trkpt>
      <trkpt lat="43.339218" lon="-6.850952">
        <ele>323.9</ele>
        <time>2021-04-23T09:07:13.000Z</time>
      </trkpt>
      <trkpt lat="43.339127" lon="-6.851">
        <ele>321.9</ele>
        <time>2021-04-23T09:07:17.000Z</time>
      </trkpt>
      <trkpt lat="43.339028" lon="-6.851055">
        <ele>314.8</ele>
        <time>2021-04-23T09:07:22.000Z</time>
      </trkpt>
      <trkpt lat="43.338917" lon="-6.851052">
        <ele>316.7</ele>
        <time>2021-04-23T09:07:26.000Z</time>
      </trkpt>
      <trkpt lat="43.338813" lon="-6.851063">
        <ele>314.6</ele>
        <time>2021-04-23T09:07:30.000Z</time>
      </trkpt>
      <trkpt lat="43.3387" lon="-6.851075">
        <ele>312.6</ele>
        <time>2021-04-23T09:07:34.000Z</time>
      </trkpt>
      <trkpt lat="43.338612" lon="-6.851113">
        <ele>308.1</ele>
        <time>2021-04-23T09:07:38.000Z</time>
      </trkpt>
      <trkpt lat="43.338528" lon="-6.851168">
        <ele>301.3</ele>
        <time>2021-04-23T09:07:42.000Z</time>
      </trkpt>
      <trkpt lat="43.33844" lon="-6.851222">
        <ele>295.2</ele>
        <time>2021-04-23T09:07:46.000Z</time>
      </trkpt>
      <trkpt lat="43.338355" lon="-6.851312">
        <ele>290.4</ele>
        <time>2021-04-23T09:07:50.000Z</time>
      </trkpt>
      <trkpt lat="43.338275" lon="-6.851398">
        <ele>284.9</ele>
        <time>2021-04-23T09:07:54.000Z</time>
      </trkpt>
      <trkpt lat="43.33818" lon="-6.851428">
        <ele>286.4</ele>
        <time>2021-04-23T09:07:57.000Z</time>
      </trkpt>
      <trkpt lat="43.338072" lon="-6.851452">
        <ele>292.2</ele>
        <time>2021-04-23T09:08:00.000Z</time>
      </trkpt>
      <trkpt lat="43.33798" lon="-6.851498">
        <ele>295.8</ele>
        <time>2021-04-23T09:08:03.000Z</time>
      </trkpt>
      <trkpt lat="43.337877" lon="-6.851557">
        <ele>296.3</ele>
        <time>2021-04-23T09:08:07.000Z</time>
      </trkpt>
      <trkpt lat="43.337793" lon="-6.851628">
        <ele>293.9</ele>
        <time>2021-04-23T09:08:11.000Z</time>
      </trkpt>
      <trkpt lat="43.337693" lon="-6.851698">
        <ele>291.8</ele>
        <time>2021-04-23T09:08:15.000Z</time>
      </trkpt>
      <trkpt lat="43.337605" lon="-6.85174">
        <ele>292.6</ele>
        <time>2021-04-23T09:08:18.000Z</time>
      </trkpt>
      <trkpt lat="43.337507" lon="-6.851812">
        <ele>291.9</ele>
        <time>2021-04-23T09:08:22.000Z</time>
      </trkpt>
      <trkpt lat="43.33743" lon="-6.851888">
        <ele>288.8</ele>
        <time>2021-04-23T09:08:26.000Z</time>
      </trkpt>
      <trkpt lat="43.337343" lon="-6.851988">
        <ele>282.6</ele>
        <time>2021-04-23T09:08:31.000Z</time>
      </trkpt>
      <trkpt lat="43.337263" lon="-6.852077">
        <ele>280.1</ele>
        <time>2021-04-23T09:08:35.000Z</time>
      </trkpt>
      <trkpt lat="43.337193" lon="-6.852163">
        <ele>274.3</ele>
        <time>2021-04-23T09:08:39.000Z</time>
      </trkpt>
      <trkpt lat="43.337108" lon="-6.852257">
        <ele>272.8</ele>
        <time>2021-04-23T09:08:43.000Z</time>
      </trkpt>
      <trkpt lat="43.337042" lon="-6.852353">
        <ele>268.9</ele>
        <time>2021-04-23T09:08:47.000Z</time>
      </trkpt>
      <trkpt lat="43.336948" lon="-6.852442">
        <ele>268.3</ele>
        <time>2021-04-23T09:08:51.000Z</time>
      </trkpt>
      <trkpt lat="43.336877" lon="-6.852528">
        <ele>265.7</ele>
        <time>2021-04-23T09:08:55.000Z</time>
      </trkpt>
      <trkpt lat="43.336808" lon="-6.852652">
        <ele>257.8</ele>
        <time>2021-04-23T09:09:00.000Z</time>
      </trkpt>
      <trkpt lat="43.33674" lon="-6.852775">
        <ele>254.5</ele>
        <time>2021-04-23T09:09:04.000Z</time>
      </trkpt>
      <trkpt lat="43.336678" lon="-6.852865">
        <ele>253.6</ele>
        <time>2021-04-23T09:09:07.000Z</time>
      </trkpt>
      <trkpt lat="43.336617" lon="-6.852985">
        <ele>253.5</ele>
        <time>2021-04-23T09:09:11.000Z</time>
      </trkpt>
      <trkpt lat="43.336583" lon="-6.853117">
        <ele>255.8</ele>
        <time>2021-04-23T09:09:15.000Z</time>
      </trkpt>
      <trkpt lat="43.336575" lon="-6.853247">
        <ele>257.7</ele>
        <time>2021-04-23T09:09:19.000Z</time>
      </trkpt>
      <trkpt lat="43.336552" lon="-6.853367">
        <ele>260.3</ele>
        <time>2021-04-23T09:09:23.000Z</time>
      </trkpt>
      <trkpt lat="43.336553" lon="-6.853497">
        <ele>257</ele>
        <time>2021-04-23T09:09:27.000Z</time>
      </trkpt>
      <trkpt lat="43.336545" lon="-6.853635">
        <ele>255</ele>
        <time>2021-04-23T09:09:32.000Z</time>
      </trkpt>
      <trkpt lat="43.33653" lon="-6.853783">
        <ele>253.8</ele>
        <time>2021-04-23T09:09:37.000Z</time>
      </trkpt>
      <trkpt lat="43.336518" lon="-6.853918">
        <ele>254.7</ele>
        <time>2021-04-23T09:09:41.000Z</time>
      </trkpt>
      <trkpt lat="43.336525" lon="-6.854057">
        <ele>254.6</ele>
        <time>2021-04-23T09:09:45.000Z</time>
      </trkpt>
      <trkpt lat="43.33658" lon="-6.854185">
        <ele>250.2</ele>
        <time>2021-04-23T09:09:50.000Z</time>
      </trkpt>
      <trkpt lat="43.336585" lon="-6.854338">
        <ele>246.2</ele>
        <time>2021-04-23T09:09:56.000Z</time>
      </trkpt>
      <trkpt lat="43.336562" lon="-6.854485">
        <ele>245.5</ele>
        <time>2021-04-23T09:10:01.000Z</time>
      </trkpt>
      <trkpt lat="43.336472" lon="-6.854573">
        <ele>247.3</ele>
        <time>2021-04-23T09:10:07.000Z</time>
      </trkpt>
      <trkpt lat="43.33637" lon="-6.854648">
        <ele>246.5</ele>
        <time>2021-04-23T09:10:11.000Z</time>
      </trkpt>
      <trkpt lat="43.336315" lon="-6.854747">
        <ele>240.3</ele>
        <time>2021-04-23T09:10:15.000Z</time>
      </trkpt>
      <trkpt lat="43.336223" lon="-6.854763">
        <ele>238.7</ele>
        <time>2021-04-23T09:10:20.000Z</time>
      </trkpt>
      <trkpt lat="43.336107" lon="-6.854765">
        <ele>241.4</ele>
        <time>2021-04-23T09:10:24.000Z</time>
      </trkpt>
      <trkpt lat="43.335978" lon="-6.85474">
        <ele>245.7</ele>
        <time>2021-04-23T09:10:27.000Z</time>
      </trkpt>
      <trkpt lat="43.335873" lon="-6.854717">
        <ele>248.3</ele>
        <time>2021-04-23T09:10:30.000Z</time>
      </trkpt>
      <trkpt lat="43.33577" lon="-6.854702">
        <ele>247.9</ele>
        <time>2021-04-23T09:10:34.000Z</time>
      </trkpt>
      <trkpt lat="43.33568" lon="-6.854682">
        <ele>248.1</ele>
        <time>2021-04-23T09:10:37.000Z</time>
      </trkpt>
      <trkpt lat="43.335572" lon="-6.85466">
        <ele>246.2</ele>
        <time>2021-04-23T09:10:41.000Z</time>
      </trkpt>
      <trkpt lat="43.335475" lon="-6.854633">
        <ele>243.6</ele>
        <time>2021-04-23T09:10:44.000Z</time>
      </trkpt>
      <trkpt lat="43.335363" lon="-6.854613">
        <ele>242.7</ele>
        <time>2021-04-23T09:10:48.000Z</time>
      </trkpt>
      <trkpt lat="43.335253" lon="-6.854595">
        <ele>237.3</ele>
        <time>2021-04-23T09:10:52.000Z</time>
      </trkpt>
      <trkpt lat="43.335148" lon="-6.85457">
        <ele>232.2</ele>
        <time>2021-04-23T09:10:56.000Z</time>
      </trkpt>
      <trkpt lat="43.335052" lon="-6.854535">
        <ele>230.1</ele>
        <time>2021-04-23T09:11:00.000Z</time>
      </trkpt>
      <trkpt lat="43.334962" lon="-6.854503">
        <ele>227.7</ele>
        <time>2021-04-23T09:11:04.000Z</time>
      </trkpt>
      <trkpt lat="43.334852" lon="-6.854487">
        <ele>227.1</ele>
        <time>2021-04-23T09:11:08.000Z</time>
      </trkpt>
      <trkpt lat="43.334728" lon="-6.854462">
        <ele>226.7</ele>
        <time>2021-04-23T09:11:12.000Z</time>
      </trkpt>
      <trkpt lat="43.334632" lon="-6.854418">
        <ele>222.1</ele>
        <time>2021-04-23T09:11:16.000Z</time>
      </trkpt>
      <trkpt lat="43.334523" lon="-6.854385">
        <ele>213.3</ele>
        <time>2021-04-23T09:11:22.000Z</time>
      </trkpt>
      <trkpt lat="43.334427" lon="-6.854345">
        <ele>209.6</ele>
        <time>2021-04-23T09:11:26.000Z</time>
      </trkpt>
      <trkpt lat="43.33432" lon="-6.854288">
        <ele>206.6</ele>
        <time>2021-04-23T09:11:30.000Z</time>
      </trkpt>
      <trkpt lat="43.334237" lon="-6.854235">
        <ele>205.8</ele>
        <time>2021-04-23T09:11:33.000Z</time>
      </trkpt>
      <trkpt lat="43.334152" lon="-6.854192">
        <ele>206.6</ele>
        <time>2021-04-23T09:11:36.000Z</time>
      </trkpt>
      <trkpt lat="43.334042" lon="-6.854148">
        <ele>206.6</ele>
        <time>2021-04-23T09:11:40.000Z</time>
      </trkpt>
      <trkpt lat="43.333942" lon="-6.854107">
        <ele>208.3</ele>
        <time>2021-04-23T09:11:43.000Z</time>
      </trkpt>
      <trkpt lat="43.333833" lon="-6.854093">
        <ele>209.5</ele>
        <time>2021-04-23T09:11:47.000Z</time>
      </trkpt>
      <trkpt lat="43.333773" lon="-6.854203">
        <ele>213.6</ele>
        <time>2021-04-23T09:12:50.000Z</time>
      </trkpt>
      <trkpt lat="43.333798" lon="-6.854078">
        <ele>217.5</ele>
        <time>2021-04-23T09:13:07.000Z</time>
      </trkpt>
      <trkpt lat="43.333737" lon="-6.854207">
        <ele>218.8</ele>
        <time>2021-04-23T09:14:08.000Z</time>
      </trkpt>
      <trkpt lat="43.333737" lon="-6.854402">
        <ele>228.6</ele>
        <time>2021-04-23T09:15:15.000Z</time>
      </trkpt>
      <trkpt lat="43.333663" lon="-6.854515">
        <ele>228.8</ele>
        <time>2021-04-23T09:15:29.000Z</time>
      </trkpt>
      <trkpt lat="43.33359" lon="-6.854647">
        <ele>229.2</ele>
        <time>2021-04-23T09:15:42.000Z</time>
      </trkpt>
      <trkpt lat="43.333497" lon="-6.854718">
        <ele>228.4</ele>
        <time>2021-04-23T09:16:00.000Z</time>
      </trkpt>
      <trkpt lat="43.333398" lon="-6.854647">
        <ele>227.3</ele>
        <time>2021-04-23T09:16:17.000Z</time>
      </trkpt>
      <trkpt lat="43.333347" lon="-6.854508">
        <ele>225.3</ele>
        <time>2021-04-23T09:16:35.000Z</time>
      </trkpt>
      <trkpt lat="43.333275" lon="-6.8544">
        <ele>224</ele>
        <time>2021-04-23T09:16:55.000Z</time>
      </trkpt>
      <trkpt lat="43.333235" lon="-6.85426">
        <ele>222.9</ele>
        <time>2021-04-23T09:17:14.000Z</time>
      </trkpt>
      <trkpt lat="43.333235" lon="-6.854107">
        <ele>219.4</ele>
        <time>2021-04-23T09:17:40.000Z</time>
      </trkpt>
      <trkpt lat="43.333208" lon="-6.853963">
        <ele>215.7</ele>
        <time>2021-04-23T09:18:01.000Z</time>
      </trkpt>
      <trkpt lat="43.333197" lon="-6.853813">
        <ele>215</ele>
        <time>2021-04-23T09:18:18.000Z</time>
      </trkpt>
      <trkpt lat="43.333268" lon="-6.853665">
        <ele>198.4</ele>
        <time>2021-04-23T09:18:28.000Z</time>
      </trkpt>
      <trkpt lat="43.333273" lon="-6.853502">
        <ele>195.1</ele>
        <time>2021-04-23T09:19:11.000Z</time>
      </trkpt>
      <trkpt lat="43.333265" lon="-6.853357">
        <ele>193.6</ele>
        <time>2021-04-23T09:19:39.000Z</time>
      </trkpt>
      <trkpt lat="43.333313" lon="-6.853213">
        <ele>193.3</ele>
        <time>2021-04-23T09:19:58.000Z</time>
      </trkpt>
      <trkpt lat="43.333378" lon="-6.853093">
        <ele>193.8</ele>
        <time>2021-04-23T09:20:13.000Z</time>
      </trkpt>
      <trkpt lat="43.333468" lon="-6.853007">
        <ele>193.8</ele>
        <time>2021-04-23T09:20:29.000Z</time>
      </trkpt>
      <trkpt lat="43.33358" lon="-6.852942">
        <ele>194.4</ele>
        <time>2021-04-23T09:20:49.000Z</time>
      </trkpt>
      <trkpt lat="43.333538" lon="-6.85283">
        <ele>193.3</ele>
        <time>2021-04-23T09:21:35.000Z</time>
      </trkpt>
      <trkpt lat="43.333432" lon="-6.852798">
        <ele>192.6</ele>
        <time>2021-04-23T09:21:52.000Z</time>
      </trkpt>
      <trkpt lat="43.333325" lon="-6.852772">
        <ele>190.9</ele>
        <time>2021-04-23T09:22:16.000Z</time>
      </trkpt>
      <trkpt lat="43.333225" lon="-6.852772">
        <ele>190.1</ele>
        <time>2021-04-23T09:22:37.000Z</time>
      </trkpt>
      <trkpt lat="43.333113" lon="-6.852788">
        <ele>189.4</ele>
        <time>2021-04-23T09:22:52.000Z</time>
      </trkpt>
      <trkpt lat="43.333007" lon="-6.852838">
        <ele>187</ele>
        <time>2021-04-23T09:23:10.000Z</time>
      </trkpt>
      <trkpt lat="43.33292" lon="-6.852945">
        <ele>186</ele>
        <time>2021-04-23T09:23:32.000Z</time>
      </trkpt>
      <trkpt lat="43.33285" lon="-6.85306">
        <ele>184.6</ele>
        <time>2021-04-23T09:24:23.000Z</time>
      </trkpt>
      <trkpt lat="43.332765" lon="-6.853177">
        <ele>177.7</ele>
        <time>2021-04-23T09:24:31.000Z</time>
      </trkpt>
      <trkpt lat="43.332643" lon="-6.853163">
        <ele>173.1</ele>
        <time>2021-04-23T09:24:52.000Z</time>
      </trkpt>
      <trkpt lat="43.332568" lon="-6.853092">
        <ele>172.5</ele>
        <time>2021-04-23T09:25:17.000Z</time>
      </trkpt>
      <trkpt lat="43.332507" lon="-6.852972">
        <ele>172</ele>
        <time>2021-04-23T09:25:34.000Z</time>
      </trkpt>
      <trkpt lat="43.332445" lon="-6.852855">
        <ele>172.3</ele>
        <time>2021-04-23T09:25:51.000Z</time>
      </trkpt>
      <trkpt lat="43.33241" lon="-6.8527">
        <ele>172.4</ele>
        <time>2021-04-23T09:26:07.000Z</time>
      </trkpt>
      <trkpt lat="43.332365" lon="-6.852813">
        <ele>156.7</ele>
        <time>2021-04-23T09:27:05.000Z</time>
      </trkpt>
      <trkpt lat="43.332328" lon="-6.852933">
        <ele>156.8</ele>
        <time>2021-04-23T09:27:23.000Z</time>
      </trkpt>
      <trkpt lat="43.332253" lon="-6.853043">
        <ele>155.9</ele>
        <time>2021-04-23T09:27:38.000Z</time>
      </trkpt>
      <trkpt lat="43.33215" lon="-6.853067">
        <ele>155.2</ele>
        <time>2021-04-23T09:28:12.000Z</time>
      </trkpt>
      <trkpt lat="43.33212" lon="-6.852908">
        <ele>151.1</ele>
        <time>2021-04-23T09:29:30.000Z</time>
      </trkpt>
      <trkpt lat="43.332065" lon="-6.852773">
        <ele>145.8</ele>
        <time>2021-04-23T09:29:58.000Z</time>
      </trkpt>
      <trkpt lat="43.331995" lon="-6.852665">
        <ele>146.1</ele>
        <time>2021-04-23T09:30:36.000Z</time>
      </trkpt>
      <trkpt lat="43.33193" lon="-6.852562">
        <ele>147</ele>
        <time>2021-04-23T09:30:56.000Z</time>
      </trkpt>
      <trkpt lat="43.331812" lon="-6.852492">
        <ele>143.4</ele>
        <time>2021-04-23T09:31:12.000Z</time>
      </trkpt>
      <trkpt lat="43.331707" lon="-6.852403">
        <ele>142.3</ele>
        <time>2021-04-23T09:31:25.000Z</time>
      </trkpt>
      <trkpt lat="43.331603" lon="-6.852308">
        <ele>140.6</ele>
        <time>2021-04-23T09:31:38.000Z</time>
      </trkpt>
      <trkpt lat="43.331513" lon="-6.8522">
        <ele>133.4</ele>
        <time>2021-04-23T09:32:07.000Z</time>
      </trkpt>
      <trkpt lat="43.331362" lon="-6.852095">
        <ele>119.2</ele>
        <time>2021-04-23T09:34:26.000Z</time>
      </trkpt>
      <trkpt lat="43.33145" lon="-6.852137">
        <ele>110.7</ele>
        <time>2021-04-23T09:36:12.000Z</time>
      </trkpt>
      <trkpt lat="43.331415" lon="-6.851968">
        <ele>110.5</ele>
        <time>2021-04-23T09:36:29.000Z</time>
      </trkpt>
      <trkpt lat="43.33148" lon="-6.852138">
        <ele>113.2</ele>
        <time>2021-04-23T09:36:51.000Z</time>
      </trkpt>
      <trkpt lat="43.331585" lon="-6.85213">
        <ele>116.2</ele>
        <time>2021-04-23T09:37:08.000Z</time>
      </trkpt>
      <trkpt lat="43.33164" lon="-6.852237">
        <ele>118.7</ele>
        <time>2021-04-23T09:37:40.000Z</time>
      </trkpt>
      <trkpt lat="43.331727" lon="-6.852317">
        <ele>118.2</ele>
        <time>2021-04-23T09:38:06.000Z</time>
      </trkpt>
      <trkpt lat="43.331795" lon="-6.85245">
        <ele>117.8</ele>
        <time>2021-04-23T09:38:22.000Z</time>
      </trkpt>
      <trkpt lat="43.331913" lon="-6.852403">
        <ele>118.9</ele>
        <time>2021-04-23T09:38:32.000Z</time>
      </trkpt>
      <trkpt lat="43.331967" lon="-6.852507">
        <ele>123.8</ele>
        <time>2021-04-23T09:40:08.000Z</time>
      </trkpt>
      <trkpt lat="43.332042" lon="-6.852618">
        <ele>124.4</ele>
        <time>2021-04-23T09:40:25.000Z</time>
      </trkpt>
      <trkpt lat="43.332108" lon="-6.85271">
        <ele>124.9</ele>
        <time>2021-04-23T09:40:49.000Z</time>
      </trkpt>
      <trkpt lat="43.332143" lon="-6.852838">
        <ele>126</ele>
        <time>2021-04-23T09:41:19.000Z</time>
      </trkpt>
      <trkpt lat="43.332215" lon="-6.852948">
        <ele>126.8</ele>
        <time>2021-04-23T09:41:42.000Z</time>
      </trkpt>
      <trkpt lat="43.332178" lon="-6.853103">
        <ele>139.5</ele>
        <time>2021-04-23T09:41:47.000Z</time>
      </trkpt>
      <trkpt lat="43.332238" lon="-6.85301">
        <ele>142</ele>
        <time>2021-04-23T09:42:35.000Z</time>
      </trkpt>
      <trkpt lat="43.332287" lon="-6.852892">
        <ele>142.7</ele>
        <time>2021-04-23T09:42:52.000Z</time>
      </trkpt>
      <trkpt lat="43.332337" lon="-6.852747">
        <ele>143.7</ele>
        <time>2021-04-23T09:43:08.000Z</time>
      </trkpt>
      <trkpt lat="43.332408" lon="-6.852533">
        <ele>144.7</ele>
        <time>2021-04-23T09:43:14.000Z</time>
      </trkpt>
      <trkpt lat="43.332498" lon="-6.852578">
        <ele>147.8</ele>
        <time>2021-04-23T09:43:45.000Z</time>
      </trkpt>
      <trkpt lat="43.332562" lon="-6.852693">
        <ele>149.6</ele>
        <time>2021-04-23T09:44:12.000Z</time>
      </trkpt>
      <trkpt lat="43.33259" lon="-6.852828">
        <ele>151.6</ele>
        <time>2021-04-23T09:44:35.000Z</time>
      </trkpt>
      <trkpt lat="43.332632" lon="-6.852962">
        <ele>153.3</ele>
        <time>2021-04-23T09:44:59.000Z</time>
      </trkpt>
      <trkpt lat="43.33272" lon="-6.852937">
        <ele>156.5</ele>
        <time>2021-04-23T09:45:36.000Z</time>
      </trkpt>
      <trkpt lat="43.332803" lon="-6.852845">
        <ele>157.8</ele>
        <time>2021-04-23T09:46:09.000Z</time>
      </trkpt>
      <trkpt lat="43.33295" lon="-6.852767">
        <ele>158.4</ele>
        <time>2021-04-23T09:46:44.000Z</time>
      </trkpt>
      <trkpt lat="43.332955" lon="-6.852642">
        <ele>164.6</ele>
        <time>2021-04-23T09:47:23.000Z</time>
      </trkpt>
      <trkpt lat="43.333048" lon="-6.852642">
        <ele>165.8</ele>
        <time>2021-04-23T09:47:43.000Z</time>
      </trkpt>
      <trkpt lat="43.333148" lon="-6.85264">
        <ele>166.4</ele>
        <time>2021-04-23T09:48:08.000Z</time>
      </trkpt>
      <trkpt lat="43.33326" lon="-6.852667">
        <ele>168.4</ele>
        <time>2021-04-23T09:48:35.000Z</time>
      </trkpt>
      <trkpt lat="43.333367" lon="-6.852705">
        <ele>170.3</ele>
        <time>2021-04-23T09:48:49.000Z</time>
      </trkpt>
      <trkpt lat="43.333465" lon="-6.85278">
        <ele>170.3</ele>
        <time>2021-04-23T09:49:02.000Z</time>
      </trkpt>
      <trkpt lat="43.333562" lon="-6.852885">
        <ele>170.5</ele>
        <time>2021-04-23T09:49:20.000Z</time>
      </trkpt>
      <trkpt lat="43.333553" lon="-6.853025">
        <ele>171.7</ele>
        <time>2021-04-23T09:49:37.000Z</time>
      </trkpt>
      <trkpt lat="43.33347" lon="-6.85313">
        <ele>173.2</ele>
        <time>2021-04-23T09:49:53.000Z</time>
      </trkpt>
      <trkpt lat="43.333405" lon="-6.853233">
        <ele>174.7</ele>
        <time>2021-04-23T09:50:18.000Z</time>
      </trkpt>
      <trkpt lat="43.333343" lon="-6.853352">
        <ele>179.9</ele>
        <time>2021-04-23T09:50:39.000Z</time>
      </trkpt>
      <trkpt lat="43.33332" lon="-6.853498">
        <ele>187.3</ele>
        <time>2021-04-23T09:51:02.000Z</time>
      </trkpt>
      <trkpt lat="43.333342" lon="-6.85365">
        <ele>193.1</ele>
        <time>2021-04-23T09:51:19.000Z</time>
      </trkpt>
      <trkpt lat="43.333357" lon="-6.853815">
        <ele>198.7</ele>
        <time>2021-04-23T09:51:34.000Z</time>
      </trkpt>
      <trkpt lat="43.333362" lon="-6.853965">
        <ele>206.3</ele>
        <time>2021-04-23T09:51:49.000Z</time>
      </trkpt>
      <trkpt lat="43.333385" lon="-6.854123">
        <ele>211.5</ele>
        <time>2021-04-23T09:52:04.000Z</time>
      </trkpt>
      <trkpt lat="43.333425" lon="-6.854267">
        <ele>215.6</ele>
        <time>2021-04-23T09:52:18.000Z</time>
      </trkpt>
      <trkpt lat="43.333455" lon="-6.854413">
        <ele>216.7</ele>
        <time>2021-04-23T09:52:40.000Z</time>
      </trkpt>
      <trkpt lat="43.333483" lon="-6.854565">
        <ele>218</ele>
        <time>2021-04-23T09:52:53.000Z</time>
      </trkpt>
      <trkpt lat="43.333425" lon="-6.854683">
        <ele>219.5</ele>
        <time>2021-04-23T09:53:13.000Z</time>
      </trkpt>
      <trkpt lat="43.333427" lon="-6.854542">
        <ele>231.9</ele>
        <time>2021-04-23T09:53:34.000Z</time>
      </trkpt>
      <trkpt lat="43.33349" lon="-6.854432">
        <ele>235.5</ele>
        <time>2021-04-23T09:53:44.000Z</time>
      </trkpt>
      <trkpt lat="43.333587" lon="-6.854317">
        <ele>239.6</ele>
        <time>2021-04-23T09:53:56.000Z</time>
      </trkpt>
      <trkpt lat="43.333668" lon="-6.854208">
        <ele>235</ele>
        <time>2021-04-23T09:54:56.000Z</time>
      </trkpt>
      <trkpt lat="43.333737" lon="-6.854127">
        <ele>234.4</ele>
        <time>2021-04-23T09:56:53.000Z</time>
      </trkpt>
      <trkpt lat="43.333653" lon="-6.854205">
        <ele>230.1</ele>
        <time>2021-04-23T09:57:24.000Z</time>
      </trkpt>
      <trkpt lat="43.333597" lon="-6.854333">
        <ele>221.5</ele>
        <time>2021-04-23T09:57:29.000Z</time>
      </trkpt>
      <trkpt lat="43.333562" lon="-6.854453">
        <ele>214.8</ele>
        <time>2021-04-23T09:57:33.000Z</time>
      </trkpt>
      <trkpt lat="43.333535" lon="-6.854597">
        <ele>205.9</ele>
        <time>2021-04-23T09:57:38.000Z</time>
      </trkpt>
      <trkpt lat="43.333528" lon="-6.854747">
        <ele>202.1</ele>
        <time>2021-04-23T09:57:42.000Z</time>
      </trkpt>
      <trkpt lat="43.333532" lon="-6.85488">
        <ele>199.1</ele>
        <time>2021-04-23T09:57:46.000Z</time>
      </trkpt>
      <trkpt lat="43.333513" lon="-6.855013">
        <ele>197.2</ele>
        <time>2021-04-23T09:57:50.000Z</time>
      </trkpt>
      <trkpt lat="43.333502" lon="-6.855147">
        <ele>193.7</ele>
        <time>2021-04-23T09:57:54.000Z</time>
      </trkpt>
      <trkpt lat="43.333515" lon="-6.855302">
        <ele>190.3</ele>
        <time>2021-04-23T09:57:58.000Z</time>
      </trkpt>
      <trkpt lat="43.333565" lon="-6.855422">
        <ele>190.5</ele>
        <time>2021-04-23T09:58:03.000Z</time>
      </trkpt>
      <trkpt lat="43.333563" lon="-6.85556">
        <ele>188</ele>
        <time>2021-04-23T09:58:07.000Z</time>
      </trkpt>
      <trkpt lat="43.33352" lon="-6.855695">
        <ele>182.3</ele>
        <time>2021-04-23T09:58:13.000Z</time>
      </trkpt>
      <trkpt lat="43.333443" lon="-6.855808">
        <ele>179.8</ele>
        <time>2021-04-23T09:58:17.000Z</time>
      </trkpt>
      <trkpt lat="43.333352" lon="-6.85587">
        <ele>182.7</ele>
        <time>2021-04-23T09:58:21.000Z</time>
      </trkpt>
      <trkpt lat="43.33326" lon="-6.855898">
        <ele>181.7</ele>
        <time>2021-04-23T09:58:24.000Z</time>
      </trkpt>
      <trkpt lat="43.333157" lon="-6.85593">
        <ele>181.3</ele>
        <time>2021-04-23T09:58:27.000Z</time>
      </trkpt>
      <trkpt lat="43.333052" lon="-6.855945">
        <ele>186.1</ele>
        <time>2021-04-23T09:58:30.000Z</time>
      </trkpt>
      <trkpt lat="43.332958" lon="-6.855965">
        <ele>191.1</ele>
        <time>2021-04-23T09:58:33.000Z</time>
      </trkpt>
      <trkpt lat="43.332843" lon="-6.855972">
        <ele>196.8</ele>
        <time>2021-04-23T09:58:36.000Z</time>
      </trkpt>
      <trkpt lat="43.332753" lon="-6.855963">
        <ele>200.1</ele>
        <time>2021-04-23T09:58:38.000Z</time>
      </trkpt>
      <trkpt lat="43.332637" lon="-6.855943">
        <ele>202</ele>
        <time>2021-04-23T09:58:41.000Z</time>
      </trkpt>
      <trkpt lat="43.33253" lon="-6.85591">
        <ele>202.2</ele>
        <time>2021-04-23T09:58:44.000Z</time>
      </trkpt>
      <trkpt lat="43.332423" lon="-6.855887">
        <ele>203.2</ele>
        <time>2021-04-23T09:58:47.000Z</time>
      </trkpt>
      <trkpt lat="43.332327" lon="-6.855832">
        <ele>203.7</ele>
        <time>2021-04-23T09:58:50.000Z</time>
      </trkpt>
      <trkpt lat="43.332225" lon="-6.855752">
        <ele>204.7</ele>
        <time>2021-04-23T09:58:53.000Z</time>
      </trkpt>
      <trkpt lat="43.332148" lon="-6.85568">
        <ele>206</ele>
        <time>2021-04-23T09:58:55.000Z</time>
      </trkpt>
      <trkpt lat="43.332067" lon="-6.855615">
        <ele>205.6</ele>
        <time>2021-04-23T09:58:57.000Z</time>
      </trkpt>
      <trkpt lat="43.331973" lon="-6.855525">
        <ele>206.1</ele>
        <time>2021-04-23T09:58:59.000Z</time>
      </trkpt>
      <trkpt lat="43.331888" lon="-6.855443">
        <ele>206.9</ele>
        <time>2021-04-23T09:59:01.000Z</time>
      </trkpt>
      <trkpt lat="43.331797" lon="-6.855335">
        <ele>206.8</ele>
        <time>2021-04-23T09:59:04.000Z</time>
      </trkpt>
      <trkpt lat="43.331697" lon="-6.855265">
        <ele>206.8</ele>
        <time>2021-04-23T09:59:07.000Z</time>
      </trkpt>
      <trkpt lat="43.331623" lon="-6.855372">
        <ele>205.1</ele>
        <time>2021-04-23T09:59:11.000Z</time>
      </trkpt>
      <trkpt lat="43.331623" lon="-6.855523">
        <ele>205.1</ele>
        <time>2021-04-23T09:59:14.000Z</time>
      </trkpt>
      <trkpt lat="43.331637" lon="-6.855675">
        <ele>204.2</ele>
        <time>2021-04-23T09:59:17.000Z</time>
      </trkpt>
      <trkpt lat="43.331655" lon="-6.85582">
        <ele>200.9</ele>
        <time>2021-04-23T09:59:20.000Z</time>
      </trkpt>
      <trkpt lat="43.331673" lon="-6.855963">
        <ele>198.2</ele>
        <time>2021-04-23T09:59:23.000Z</time>
      </trkpt>
      <trkpt lat="43.331672" lon="-6.856113">
        <ele>195.9</ele>
        <time>2021-04-23T09:59:26.000Z</time>
      </trkpt>
      <trkpt lat="43.331628" lon="-6.85624">
        <ele>191</ele>
        <time>2021-04-23T09:59:33.000Z</time>
      </trkpt>
      <trkpt lat="43.331555" lon="-6.856343">
        <ele>190.4</ele>
        <time>2021-04-23T09:59:37.000Z</time>
      </trkpt>
      <trkpt lat="43.33149" lon="-6.856443">
        <ele>187.5</ele>
        <time>2021-04-23T09:59:41.000Z</time>
      </trkpt>
      <trkpt lat="43.331423" lon="-6.856562">
        <ele>185</ele>
        <time>2021-04-23T09:59:45.000Z</time>
      </trkpt>
      <trkpt lat="43.33136" lon="-6.856653">
        <ele>185.8</ele>
        <time>2021-04-23T09:59:48.000Z</time>
      </trkpt>
      <trkpt lat="43.331323" lon="-6.856773">
        <ele>186.1</ele>
        <time>2021-04-23T09:59:52.000Z</time>
      </trkpt>
      <trkpt lat="43.33128" lon="-6.8569">
        <ele>183.4</ele>
        <time>2021-04-23T09:59:57.000Z</time>
      </trkpt>
      <trkpt lat="43.331187" lon="-6.856892">
        <ele>183.7</ele>
        <time>2021-04-23T10:00:06.000Z</time>
      </trkpt>
      <trkpt lat="43.331123" lon="-6.85679">
        <ele>187.3</ele>
        <time>2021-04-23T10:00:10.000Z</time>
      </trkpt>
      <trkpt lat="43.331083" lon="-6.85665">
        <ele>187.6</ele>
        <time>2021-04-23T10:00:16.000Z</time>
      </trkpt>
      <trkpt lat="43.331038" lon="-6.856528">
        <ele>186.6</ele>
        <time>2021-04-23T10:00:20.000Z</time>
      </trkpt>
      <trkpt lat="43.330977" lon="-6.856422">
        <ele>186.7</ele>
        <time>2021-04-23T10:00:24.000Z</time>
      </trkpt>
      <trkpt lat="43.330878" lon="-6.856363">
        <ele>187.5</ele>
        <time>2021-04-23T10:00:28.000Z</time>
      </trkpt>
      <trkpt lat="43.330777" lon="-6.856357">
        <ele>186.9</ele>
        <time>2021-04-23T10:00:32.000Z</time>
      </trkpt>
      <trkpt lat="43.330683" lon="-6.85634">
        <ele>188.3</ele>
        <time>2021-04-23T10:00:35.000Z</time>
      </trkpt>
      <trkpt lat="43.330577" lon="-6.856323">
        <ele>191.8</ele>
        <time>2021-04-23T10:00:38.000Z</time>
      </trkpt>
      <trkpt lat="43.330473" lon="-6.856317">
        <ele>193.2</ele>
        <time>2021-04-23T10:00:43.000Z</time>
      </trkpt>
      <trkpt lat="43.330383" lon="-6.856308">
        <ele>193.8</ele>
        <time>2021-04-23T10:00:47.000Z</time>
      </trkpt>
      <trkpt lat="43.330268" lon="-6.856278">
        <ele>195.7</ele>
        <time>2021-04-23T10:00:51.000Z</time>
      </trkpt>
      <trkpt lat="43.330177" lon="-6.85626">
        <ele>196.6</ele>
        <time>2021-04-23T10:00:54.000Z</time>
      </trkpt>
      <trkpt lat="43.330067" lon="-6.85627">
        <ele>195.1</ele>
        <time>2021-04-23T10:00:58.000Z</time>
      </trkpt>
      <trkpt lat="43.329972" lon="-6.856293">
        <ele>188.7</ele>
        <time>2021-04-23T10:01:02.000Z</time>
      </trkpt>
      <trkpt lat="43.329863" lon="-6.856283">
        <ele>183</ele>
        <time>2021-04-23T10:01:07.000Z</time>
      </trkpt>
      <trkpt lat="43.32977" lon="-6.856283">
        <ele>179.3</ele>
        <time>2021-04-23T10:01:11.000Z</time>
      </trkpt>
      <trkpt lat="43.329668" lon="-6.85623">
        <ele>171.8</ele>
        <time>2021-04-23T10:01:16.000Z</time>
      </trkpt>
      <trkpt lat="43.329578" lon="-6.856173">
        <ele>168.1</ele>
        <time>2021-04-23T10:01:20.000Z</time>
      </trkpt>
      <trkpt lat="43.32948" lon="-6.856108">
        <ele>162.3</ele>
        <time>2021-04-23T10:01:25.000Z</time>
      </trkpt>
      <trkpt lat="43.329397" lon="-6.856053">
        <ele>158.5</ele>
        <time>2021-04-23T10:01:29.000Z</time>
      </trkpt>
      <trkpt lat="43.329297" lon="-6.856012">
        <ele>156.8</ele>
        <time>2021-04-23T10:01:33.000Z</time>
      </trkpt>
      <trkpt lat="43.329187" lon="-6.856">
        <ele>158.2</ele>
        <time>2021-04-23T10:01:37.000Z</time>
      </trkpt>
      <trkpt lat="43.329073" lon="-6.85602">
        <ele>159.3</ele>
        <time>2021-04-23T10:01:41.000Z</time>
      </trkpt>
      <trkpt lat="43.328968" lon="-6.856065">
        <ele>162.6</ele>
        <time>2021-04-23T10:01:45.000Z</time>
      </trkpt>
      <trkpt lat="43.328882" lon="-6.856133">
        <ele>162.9</ele>
        <time>2021-04-23T10:01:49.000Z</time>
      </trkpt>
      <trkpt lat="43.328802" lon="-6.856233">
        <ele>161.1</ele>
        <time>2021-04-23T10:01:54.000Z</time>
      </trkpt>
      <trkpt lat="43.32875" lon="-6.856338">
        <ele>158.4</ele>
        <time>2021-04-23T10:01:58.000Z</time>
      </trkpt>
      <trkpt lat="43.328687" lon="-6.856468">
        <ele>155.6</ele>
        <time>2021-04-23T10:02:03.000Z</time>
      </trkpt>
      <trkpt lat="43.328648" lon="-6.856595">
        <ele>152.4</ele>
        <time>2021-04-23T10:02:07.000Z</time>
      </trkpt>
      <trkpt lat="43.328617" lon="-6.856738">
        <ele>148.5</ele>
        <time>2021-04-23T10:02:11.000Z</time>
      </trkpt>
      <trkpt lat="43.328607" lon="-6.856882">
        <ele>145.3</ele>
        <time>2021-04-23T10:02:15.000Z</time>
      </trkpt>
      <trkpt lat="43.328622" lon="-6.857037">
        <ele>141.5</ele>
        <time>2021-04-23T10:02:20.000Z</time>
      </trkpt>
      <trkpt lat="43.328642" lon="-6.857187">
        <ele>136.5</ele>
        <time>2021-04-23T10:02:25.000Z</time>
      </trkpt>
      <trkpt lat="43.328642" lon="-6.85732">
        <ele>135</ele>
        <time>2021-04-23T10:02:29.000Z</time>
      </trkpt>
      <trkpt lat="43.328623" lon="-6.85747">
        <ele>139.2</ele>
        <time>2021-04-23T10:02:33.000Z</time>
      </trkpt>
      <trkpt lat="43.328618" lon="-6.857618">
        <ele>142.5</ele>
        <time>2021-04-23T10:02:57.000Z</time>
      </trkpt>
      <trkpt lat="43.328582" lon="-6.857767">
        <ele>142.9</ele>
        <time>2021-04-23T10:03:01.000Z</time>
      </trkpt>
      <trkpt lat="43.328542" lon="-6.857902">
        <ele>144</ele>
        <time>2021-04-23T10:03:05.000Z</time>
      </trkpt>
      <trkpt lat="43.328513" lon="-6.858037">
        <ele>143.8</ele>
        <time>2021-04-23T10:03:09.000Z</time>
      </trkpt>
      <trkpt lat="43.328493" lon="-6.858177">
        <ele>144.4</ele>
        <time>2021-04-23T10:03:13.000Z</time>
      </trkpt>
      <trkpt lat="43.32847" lon="-6.858302">
        <ele>143.7</ele>
        <time>2021-04-23T10:03:17.000Z</time>
      </trkpt>
      <trkpt lat="43.328395" lon="-6.858408">
        <ele>145.9</ele>
        <time>2021-04-23T10:03:21.000Z</time>
      </trkpt>
      <trkpt lat="43.328333" lon="-6.858498">
        <ele>143.8</ele>
        <time>2021-04-23T10:03:24.000Z</time>
      </trkpt>
      <trkpt lat="43.328253" lon="-6.8586">
        <ele>140.7</ele>
        <time>2021-04-23T10:03:28.000Z</time>
      </trkpt>
      <trkpt lat="43.328167" lon="-6.858655">
        <ele>139.7</ele>
        <time>2021-04-23T10:03:32.000Z</time>
      </trkpt>
      <trkpt lat="43.328075" lon="-6.858673">
        <ele>140.3</ele>
        <time>2021-04-23T10:03:35.000Z</time>
      </trkpt>
      <trkpt lat="43.328" lon="-6.858742">
        <ele>138.6</ele>
        <time>2021-04-23T10:03:39.000Z</time>
      </trkpt>
      <trkpt lat="43.327932" lon="-6.858853">
        <ele>137</ele>
        <time>2021-04-23T10:05:34.000Z</time>
      </trkpt>
      <trkpt lat="43.32783" lon="-6.858895">
        <ele>138.2</ele>
        <time>2021-04-23T10:05:47.000Z</time>
      </trkpt>
      <trkpt lat="43.327707" lon="-6.858918">
        <ele>138.6</ele>
        <time>2021-04-23T10:06:00.000Z</time>
      </trkpt>
      <trkpt lat="43.327675" lon="-6.858798">
        <ele>140</ele>
        <time>2021-04-23T10:06:16.000Z</time>
      </trkpt>
      <trkpt lat="43.327648" lon="-6.85867">
        <ele>140.9</ele>
        <time>2021-04-23T10:06:24.000Z</time>
      </trkpt>
      <trkpt lat="43.327602" lon="-6.858542">
        <ele>141.7</ele>
        <time>2021-04-23T10:06:34.000Z</time>
      </trkpt>
      <trkpt lat="43.327683" lon="-6.858378">
        <ele>142</ele>
        <time>2021-04-23T10:07:09.000Z</time>
      </trkpt>
      <trkpt lat="43.327612" lon="-6.858468">
        <ele>141.2</ele>
        <time>2021-04-23T10:07:58.000Z</time>
      </trkpt>
      <trkpt lat="43.327502" lon="-6.858532">
        <ele>143.1</ele>
        <time>2021-04-23T10:14:11.000Z</time>
      </trkpt>
      <trkpt lat="43.327407" lon="-6.858603">
        <ele>144.7</ele>
        <time>2021-04-23T10:14:38.000Z</time>
      </trkpt>
      <trkpt lat="43.3275" lon="-6.858617">
        <ele>141.7</ele>
        <time>2021-04-23T10:15:03.000Z</time>
      </trkpt>
      <trkpt lat="43.327413" lon="-6.858668">
        <ele>143.3</ele>
        <time>2021-04-23T10:15:26.000Z</time>
      </trkpt>
      <trkpt lat="43.327527" lon="-6.858628">
        <ele>142.5</ele>
        <time>2021-04-23T10:15:39.000Z</time>
      </trkpt>
      <trkpt lat="43.327625" lon="-6.858672">
        <ele>143.5</ele>
        <time>2021-04-23T10:19:01.000Z</time>
      </trkpt>
      <trkpt lat="43.32775" lon="-6.858772">
        <ele>145.2</ele>
        <time>2021-04-23T10:19:27.000Z</time>
      </trkpt>
      <trkpt lat="43.327862" lon="-6.858813">
        <ele>147.2</ele>
        <time>2021-04-23T10:20:10.000Z</time>
      </trkpt>
      <trkpt lat="43.32794" lon="-6.858708">
        <ele>146.4</ele>
        <time>2021-04-23T10:20:23.000Z</time>
      </trkpt>
      <trkpt lat="43.327988" lon="-6.858818">
        <ele>154.8</ele>
        <time>2021-04-23T10:21:19.000Z</time>
      </trkpt>
      <trkpt lat="43.328065" lon="-6.858745">
        <ele>150.3</ele>
        <time>2021-04-23T10:21:24.000Z</time>
      </trkpt>
      <trkpt lat="43.328157" lon="-6.858715">
        <ele>148.2</ele>
        <time>2021-04-23T10:21:28.000Z</time>
      </trkpt>
      <trkpt lat="43.328253" lon="-6.858662">
        <ele>148.8</ele>
        <time>2021-04-23T10:21:33.000Z</time>
      </trkpt>
      <trkpt lat="43.328338" lon="-6.858573">
        <ele>151</ele>
        <time>2021-04-23T10:21:37.000Z</time>
      </trkpt>
      <trkpt lat="43.328433" lon="-6.858503">
        <ele>153.3</ele>
        <time>2021-04-23T10:21:41.000Z</time>
      </trkpt>
      <trkpt lat="43.32848" lon="-6.858385">
        <ele>156.2</ele>
        <time>2021-04-23T10:21:45.000Z</time>
      </trkpt>
      <trkpt lat="43.328497" lon="-6.858235">
        <ele>159.2</ele>
        <time>2021-04-23T10:21:49.000Z</time>
      </trkpt>
      <trkpt lat="43.32853" lon="-6.85812">
        <ele>161.7</ele>
        <time>2021-04-23T10:21:52.000Z</time>
      </trkpt>
      <trkpt lat="43.328558" lon="-6.857997">
        <ele>164.7</ele>
        <time>2021-04-23T10:21:55.000Z</time>
      </trkpt>
      <trkpt lat="43.328585" lon="-6.85782">
        <ele>166.6</ele>
        <time>2021-04-23T10:21:59.000Z</time>
      </trkpt>
      <trkpt lat="43.328582" lon="-6.857697">
        <ele>166.6</ele>
        <time>2021-04-23T10:22:01.000Z</time>
      </trkpt>
      <trkpt lat="43.328587" lon="-6.85752">
        <ele>168</ele>
        <time>2021-04-23T10:22:04.000Z</time>
      </trkpt>
      <trkpt lat="43.328585" lon="-6.857362">
        <ele>168.2</ele>
        <time>2021-04-23T10:22:07.000Z</time>
      </trkpt>
      <trkpt lat="43.328593" lon="-6.857217">
        <ele>169.2</ele>
        <time>2021-04-23T10:22:10.000Z</time>
      </trkpt>
      <trkpt lat="43.32857" lon="-6.85707">
        <ele>171.6</ele>
        <time>2021-04-23T10:22:14.000Z</time>
      </trkpt>
      <trkpt lat="43.328563" lon="-6.856928">
        <ele>173</ele>
        <time>2021-04-23T10:22:18.000Z</time>
      </trkpt>
      <trkpt lat="43.328585" lon="-6.856772">
        <ele>173.1</ele>
        <time>2021-04-23T10:22:22.000Z</time>
      </trkpt>
      <trkpt lat="43.328612" lon="-6.856642">
        <ele>173.9</ele>
        <time>2021-04-23T10:22:25.000Z</time>
      </trkpt>
      <trkpt lat="43.328653" lon="-6.856527">
        <ele>174.4</ele>
        <time>2021-04-23T10:22:28.000Z</time>
      </trkpt>
      <trkpt lat="43.3287" lon="-6.856385">
        <ele>176.5</ele>
        <time>2021-04-23T10:22:32.000Z</time>
      </trkpt>
      <trkpt lat="43.328752" lon="-6.85625">
        <ele>178.8</ele>
        <time>2021-04-23T10:22:36.000Z</time>
      </trkpt>
      <trkpt lat="43.3288" lon="-6.856138">
        <ele>179.8</ele>
        <time>2021-04-23T10:22:40.000Z</time>
      </trkpt>
      <trkpt lat="43.328897" lon="-6.856035">
        <ele>179.2</ele>
        <time>2021-04-23T10:22:44.000Z</time>
      </trkpt>
      <trkpt lat="43.32899" lon="-6.855967">
        <ele>179.3</ele>
        <time>2021-04-23T10:22:47.000Z</time>
      </trkpt>
      <trkpt lat="43.32909" lon="-6.855922">
        <ele>179.8</ele>
        <time>2021-04-23T10:22:51.000Z</time>
      </trkpt>
      <trkpt lat="43.329187" lon="-6.855913">
        <ele>182</ele>
        <time>2021-04-23T10:22:56.000Z</time>
      </trkpt>
      <trkpt lat="43.32929" lon="-6.855935">
        <ele>186.3</ele>
        <time>2021-04-23T10:23:00.000Z</time>
      </trkpt>
      <trkpt lat="43.329388" lon="-6.855982">
        <ele>186.8</ele>
        <time>2021-04-23T10:23:04.000Z</time>
      </trkpt>
      <trkpt lat="43.32949" lon="-6.856045">
        <ele>187.1</ele>
        <time>2021-04-23T10:23:08.000Z</time>
      </trkpt>
      <trkpt lat="43.329583" lon="-6.856095">
        <ele>188.9</ele>
        <time>2021-04-23T10:23:12.000Z</time>
      </trkpt>
      <trkpt lat="43.329695" lon="-6.856173">
        <ele>188.5</ele>
        <time>2021-04-23T10:23:16.000Z</time>
      </trkpt>
      <trkpt lat="43.329782" lon="-6.856247">
        <ele>188.3</ele>
        <time>2021-04-23T10:23:19.000Z</time>
      </trkpt>
      <trkpt lat="43.32989" lon="-6.856273">
        <ele>187.9</ele>
        <time>2021-04-23T10:23:22.000Z</time>
      </trkpt>
      <trkpt lat="43.329995" lon="-6.856285">
        <ele>188.4</ele>
        <time>2021-04-23T10:23:25.000Z</time>
      </trkpt>
      <trkpt lat="43.330092" lon="-6.856283">
        <ele>188.5</ele>
        <time>2021-04-23T10:23:28.000Z</time>
      </trkpt>
      <trkpt lat="43.330205" lon="-6.856278">
        <ele>188.3</ele>
        <time>2021-04-23T10:23:32.000Z</time>
      </trkpt>
      <trkpt lat="43.330315" lon="-6.85627">
        <ele>188.9</ele>
        <time>2021-04-23T10:23:36.000Z</time>
      </trkpt>
      <trkpt lat="43.330408" lon="-6.856277">
        <ele>188.4</ele>
        <time>2021-04-23T10:23:39.000Z</time>
      </trkpt>
      <trkpt lat="43.330502" lon="-6.856282">
        <ele>188.6</ele>
        <time>2021-04-23T10:23:42.000Z</time>
      </trkpt>
      <trkpt lat="43.3306" lon="-6.856285">
        <ele>188</ele>
        <time>2021-04-23T10:23:45.000Z</time>
      </trkpt>
      <trkpt lat="43.330708" lon="-6.856282">
        <ele>188.2</ele>
        <time>2021-04-23T10:23:48.000Z</time>
      </trkpt>
      <trkpt lat="43.330798" lon="-6.856297">
        <ele>188.5</ele>
        <time>2021-04-23T10:23:51.000Z</time>
      </trkpt>
      <trkpt lat="43.330887" lon="-6.856403">
        <ele>187.8</ele>
        <time>2021-04-23T10:23:55.000Z</time>
      </trkpt>
      <trkpt lat="43.330908" lon="-6.856557">
        <ele>186.1</ele>
        <time>2021-04-23T10:24:01.000Z</time>
      </trkpt>
      <trkpt lat="43.33096" lon="-6.85667">
        <ele>184.2</ele>
        <time>2021-04-23T10:24:04.000Z</time>
      </trkpt>
      <trkpt lat="43.331025" lon="-6.856778">
        <ele>182.6</ele>
        <time>2021-04-23T10:24:08.000Z</time>
      </trkpt>
      <trkpt lat="43.331062" lon="-6.856908">
        <ele>183.5</ele>
        <time>2021-04-23T10:24:13.000Z</time>
      </trkpt>
      <trkpt lat="43.331127" lon="-6.857003">
        <ele>182.1</ele>
        <time>2021-04-23T10:24:17.000Z</time>
      </trkpt>
      <trkpt lat="43.331222" lon="-6.856957">
        <ele>182.8</ele>
        <time>2021-04-23T10:24:39.000Z</time>
      </trkpt>
      <trkpt lat="43.331272" lon="-6.856822">
        <ele>184.2</ele>
        <time>2021-04-23T10:24:44.000Z</time>
      </trkpt>
      <trkpt lat="43.331353" lon="-6.856747">
        <ele>184.9</ele>
        <time>2021-04-23T10:24:48.000Z</time>
      </trkpt>
      <trkpt lat="43.331437" lon="-6.856682">
        <ele>187.1</ele>
        <time>2021-04-23T10:24:52.000Z</time>
      </trkpt>
      <trkpt lat="43.331523" lon="-6.85657">
        <ele>191.3</ele>
        <time>2021-04-23T10:24:56.000Z</time>
      </trkpt>
      <trkpt lat="43.331583" lon="-6.856463">
        <ele>194.7</ele>
        <time>2021-04-23T10:24:59.000Z</time>
      </trkpt>
      <trkpt lat="43.331613" lon="-6.856333">
        <ele>199.3</ele>
        <time>2021-04-23T10:25:03.000Z</time>
      </trkpt>
      <trkpt lat="43.331628" lon="-6.856203">
        <ele>203.2</ele>
        <time>2021-04-23T10:25:07.000Z</time>
      </trkpt>
      <trkpt lat="43.331633" lon="-6.85607">
        <ele>206.9</ele>
        <time>2021-04-23T10:25:10.000Z</time>
      </trkpt>
      <trkpt lat="43.331627" lon="-6.85591">
        <ele>208.6</ele>
        <time>2021-04-23T10:25:13.000Z</time>
      </trkpt>
      <trkpt lat="43.331622" lon="-6.855765">
        <ele>209.8</ele>
        <time>2021-04-23T10:25:16.000Z</time>
      </trkpt>
      <trkpt lat="43.33161" lon="-6.855615">
        <ele>212.4</ele>
        <time>2021-04-23T10:25:19.000Z</time>
      </trkpt>
      <trkpt lat="43.331602" lon="-6.855488">
        <ele>214.4</ele>
        <time>2021-04-23T10:25:23.000Z</time>
      </trkpt>
      <trkpt lat="43.331598" lon="-6.855362">
        <ele>213.8</ele>
        <time>2021-04-23T10:25:31.000Z</time>
      </trkpt>
      <trkpt lat="43.331642" lon="-6.855253">
        <ele>208.1</ele>
        <time>2021-04-23T10:25:41.000Z</time>
      </trkpt>
      <trkpt lat="43.331635" lon="-6.85513">
        <ele>207.8</ele>
        <time>2021-04-23T10:32:57.000Z</time>
      </trkpt>
      <trkpt lat="43.331743" lon="-6.8552">
        <ele>208.3</ele>
        <time>2021-04-23T10:35:06.000Z</time>
      </trkpt>
      <trkpt lat="43.331848" lon="-6.855298">
        <ele>208</ele>
        <time>2021-04-23T10:35:09.000Z</time>
      </trkpt>
      <trkpt lat="43.331925" lon="-6.855375">
        <ele>207.6</ele>
        <time>2021-04-23T10:35:11.000Z</time>
      </trkpt>
      <trkpt lat="43.332028" lon="-6.855482">
        <ele>207.2</ele>
        <time>2021-04-23T10:35:14.000Z</time>
      </trkpt>
      <trkpt lat="43.332135" lon="-6.855587">
        <ele>205.6</ele>
        <time>2021-04-23T10:35:17.000Z</time>
      </trkpt>
      <trkpt lat="43.33224" lon="-6.85568">
        <ele>204.6</ele>
        <time>2021-04-23T10:35:20.000Z</time>
      </trkpt>
      <trkpt lat="43.33234" lon="-6.855793">
        <ele>202.8</ele>
        <time>2021-04-23T10:35:23.000Z</time>
      </trkpt>
      <trkpt lat="43.332448" lon="-6.855882">
        <ele>201.2</ele>
        <time>2021-04-23T10:35:26.000Z</time>
      </trkpt>
      <trkpt lat="43.33256" lon="-6.855932">
        <ele>201.2</ele>
        <time>2021-04-23T10:35:29.000Z</time>
      </trkpt>
      <trkpt lat="43.332692" lon="-6.85596">
        <ele>202.2</ele>
        <time>2021-04-23T10:35:32.000Z</time>
      </trkpt>
      <trkpt lat="43.332823" lon="-6.855952">
        <ele>202.3</ele>
        <time>2021-04-23T10:35:35.000Z</time>
      </trkpt>
      <trkpt lat="43.332958" lon="-6.855942">
        <ele>202.5</ele>
        <time>2021-04-23T10:35:38.000Z</time>
      </trkpt>
      <trkpt lat="43.333063" lon="-6.855938">
        <ele>202.1</ele>
        <time>2021-04-23T10:35:40.000Z</time>
      </trkpt>
      <trkpt lat="43.333167" lon="-6.855933">
        <ele>201.1</ele>
        <time>2021-04-23T10:35:42.000Z</time>
      </trkpt>
      <trkpt lat="43.333285" lon="-6.855887">
        <ele>199.9</ele>
        <time>2021-04-23T10:35:45.000Z</time>
      </trkpt>
      <trkpt lat="43.333388" lon="-6.855843">
        <ele>200.9</ele>
        <time>2021-04-23T10:35:48.000Z</time>
      </trkpt>
      <trkpt lat="43.333473" lon="-6.85578">
        <ele>202.1</ele>
        <time>2021-04-23T10:35:51.000Z</time>
      </trkpt>
      <trkpt lat="43.333543" lon="-6.85567">
        <ele>206.7</ele>
        <time>2021-04-23T10:35:57.000Z</time>
      </trkpt>
      <trkpt lat="43.333508" lon="-6.855522">
        <ele>209.2</ele>
        <time>2021-04-23T10:36:02.000Z</time>
      </trkpt>
      <trkpt lat="43.333477" lon="-6.85539">
        <ele>211</ele>
        <time>2021-04-23T10:36:05.000Z</time>
      </trkpt>
      <trkpt lat="43.333488" lon="-6.855237">
        <ele>211.8</ele>
        <time>2021-04-23T10:36:08.000Z</time>
      </trkpt>
      <trkpt lat="43.333523" lon="-6.855078">
        <ele>212.5</ele>
        <time>2021-04-23T10:36:11.000Z</time>
      </trkpt>
      <trkpt lat="43.333553" lon="-6.854923">
        <ele>213.2</ele>
        <time>2021-04-23T10:36:14.000Z</time>
      </trkpt>
      <trkpt lat="43.333565" lon="-6.854765">
        <ele>213.6</ele>
        <time>2021-04-23T10:36:17.000Z</time>
      </trkpt>
      <trkpt lat="43.333582" lon="-6.854613">
        <ele>215.2</ele>
        <time>2021-04-23T10:36:20.000Z</time>
      </trkpt>
      <trkpt lat="43.333608" lon="-6.854475">
        <ele>216.3</ele>
        <time>2021-04-23T10:36:23.000Z</time>
      </trkpt>
      <trkpt lat="43.333643" lon="-6.854317">
        <ele>215.2</ele>
        <time>2021-04-23T10:36:26.000Z</time>
      </trkpt>
      <trkpt lat="43.333697" lon="-6.854197">
        <ele>214.5</ele>
        <time>2021-04-23T10:36:29.000Z</time>
      </trkpt>
      <trkpt lat="43.333792" lon="-6.854105">
        <ele>215.4</ele>
        <time>2021-04-23T10:36:33.000Z</time>
      </trkpt>
      <trkpt lat="43.333903" lon="-6.854093">
        <ele>216.8</ele>
        <time>2021-04-23T10:36:37.000Z</time>
      </trkpt>
      <trkpt lat="43.334" lon="-6.854117">
        <ele>218.2</ele>
        <time>2021-04-23T10:36:40.000Z</time>
      </trkpt>
      <trkpt lat="43.334093" lon="-6.854152">
        <ele>220.5</ele>
        <time>2021-04-23T10:36:43.000Z</time>
      </trkpt>
      <trkpt lat="43.334185" lon="-6.854197">
        <ele>222.6</ele>
        <time>2021-04-23T10:36:46.000Z</time>
      </trkpt>
      <trkpt lat="43.334277" lon="-6.854253">
        <ele>225.1</ele>
        <time>2021-04-23T10:36:49.000Z</time>
      </trkpt>
      <trkpt lat="43.33437" lon="-6.854282">
        <ele>228.4</ele>
        <time>2021-04-23T10:36:52.000Z</time>
      </trkpt>
      <trkpt lat="43.334465" lon="-6.854302">
        <ele>231.7</ele>
        <time>2021-04-23T10:36:55.000Z</time>
      </trkpt>
      <trkpt lat="43.334557" lon="-6.854343">
        <ele>233.7</ele>
        <time>2021-04-23T10:36:58.000Z</time>
      </trkpt>
      <trkpt lat="43.33465" lon="-6.854405">
        <ele>234.5</ele>
        <time>2021-04-23T10:37:01.000Z</time>
      </trkpt>
      <trkpt lat="43.33474" lon="-6.854448">
        <ele>237</ele>
        <time>2021-04-23T10:37:04.000Z</time>
      </trkpt>
      <trkpt lat="43.334833" lon="-6.854487">
        <ele>240.5</ele>
        <time>2021-04-23T10:37:07.000Z</time>
      </trkpt>
      <trkpt lat="43.33493" lon="-6.854525">
        <ele>242.8</ele>
        <time>2021-04-23T10:37:10.000Z</time>
      </trkpt>
      <trkpt lat="43.335028" lon="-6.854557">
        <ele>245.4</ele>
        <time>2021-04-23T10:37:14.000Z</time>
      </trkpt>
      <trkpt lat="43.335125" lon="-6.854575">
        <ele>247.3</ele>
        <time>2021-04-23T10:37:18.000Z</time>
      </trkpt>
      <trkpt lat="43.335233" lon="-6.854597">
        <ele>249.6</ele>
        <time>2021-04-23T10:37:22.000Z</time>
      </trkpt>
      <trkpt lat="43.335342" lon="-6.854613">
        <ele>253.3</ele>
        <time>2021-04-23T10:37:26.000Z</time>
      </trkpt>
      <trkpt lat="43.335453" lon="-6.85464">
        <ele>256.8</ele>
        <time>2021-04-23T10:37:30.000Z</time>
      </trkpt>
      <trkpt lat="43.335567" lon="-6.854687">
        <ele>260.1</ele>
        <time>2021-04-23T10:37:34.000Z</time>
      </trkpt>
      <trkpt lat="43.335685" lon="-6.854727">
        <ele>264.4</ele>
        <time>2021-04-23T10:37:38.000Z</time>
      </trkpt>
      <trkpt lat="43.335778" lon="-6.854738">
        <ele>266.8</ele>
        <time>2021-04-23T10:37:41.000Z</time>
      </trkpt>
      <trkpt lat="43.335882" lon="-6.854722">
        <ele>269.4</ele>
        <time>2021-04-23T10:37:45.000Z</time>
      </trkpt>
      <trkpt lat="43.335987" lon="-6.854715">
        <ele>268.2</ele>
        <time>2021-04-23T10:37:51.000Z</time>
      </trkpt>
      <trkpt lat="43.336092" lon="-6.854682">
        <ele>265.9</ele>
        <time>2021-04-23T10:37:56.000Z</time>
      </trkpt>
      <trkpt lat="43.336185" lon="-6.854653">
        <ele>265.2</ele>
        <time>2021-04-23T10:37:59.000Z</time>
      </trkpt>
      <trkpt lat="43.33631" lon="-6.854668">
        <ele>263.3</ele>
        <time>2021-04-23T10:38:02.000Z</time>
      </trkpt>
      <trkpt lat="43.336412" lon="-6.854705">
        <ele>261.9</ele>
        <time>2021-04-23T10:38:05.000Z</time>
      </trkpt>
      <trkpt lat="43.3365" lon="-6.854648">
        <ele>261</ele>
        <time>2021-04-23T10:38:09.000Z</time>
      </trkpt>
      <trkpt lat="43.33654" lon="-6.854535">
        <ele>263.8</ele>
        <time>2021-04-23T10:38:13.000Z</time>
      </trkpt>
      <trkpt lat="43.336552" lon="-6.854408">
        <ele>265.5</ele>
        <time>2021-04-23T10:38:19.000Z</time>
      </trkpt>
      <trkpt lat="43.336542" lon="-6.85425">
        <ele>266.6</ele>
        <time>2021-04-23T10:38:23.000Z</time>
      </trkpt>
      <trkpt lat="43.336533" lon="-6.8541">
        <ele>266.8</ele>
        <time>2021-04-23T10:38:26.000Z</time>
      </trkpt>
      <trkpt lat="43.336525" lon="-6.853963">
        <ele>266.3</ele>
        <time>2021-04-23T10:38:29.000Z</time>
      </trkpt>
      <trkpt lat="43.336528" lon="-6.85383">
        <ele>265.4</ele>
        <time>2021-04-23T10:38:32.000Z</time>
      </trkpt>
      <trkpt lat="43.33654" lon="-6.85369">
        <ele>264.9</ele>
        <time>2021-04-23T10:38:35.000Z</time>
      </trkpt>
      <trkpt lat="43.336552" lon="-6.853538">
        <ele>264.8</ele>
        <time>2021-04-23T10:38:38.000Z</time>
      </trkpt>
      <trkpt lat="43.336567" lon="-6.853372">
        <ele>264.7</ele>
        <time>2021-04-23T10:38:41.000Z</time>
      </trkpt>
      <trkpt lat="43.336572" lon="-6.85322">
        <ele>265.1</ele>
        <time>2021-04-23T10:38:44.000Z</time>
      </trkpt>
      <trkpt lat="43.336597" lon="-6.85309">
        <ele>266.2</ele>
        <time>2021-04-23T10:38:47.000Z</time>
      </trkpt>
      <trkpt lat="43.336623" lon="-6.85297">
        <ele>267.4</ele>
        <time>2021-04-23T10:38:50.000Z</time>
      </trkpt>
      <trkpt lat="43.336653" lon="-6.852837">
        <ele>269.3</ele>
        <time>2021-04-23T10:38:54.000Z</time>
      </trkpt>
      <trkpt lat="43.336707" lon="-6.85272">
        <ele>271.1</ele>
        <time>2021-04-23T10:38:58.000Z</time>
      </trkpt>
      <trkpt lat="43.336768" lon="-6.852613">
        <ele>272.8</ele>
        <time>2021-04-23T10:39:02.000Z</time>
      </trkpt>
      <trkpt lat="43.33684" lon="-6.852533">
        <ele>274.6</ele>
        <time>2021-04-23T10:39:05.000Z</time>
      </trkpt>
      <trkpt lat="43.336908" lon="-6.852452">
        <ele>273.6</ele>
        <time>2021-04-23T10:39:08.000Z</time>
      </trkpt>
      <trkpt lat="43.336992" lon="-6.852352">
        <ele>272</ele>
        <time>2021-04-23T10:39:12.000Z</time>
      </trkpt>
      <trkpt lat="43.337077" lon="-6.852255">
        <ele>272.5</ele>
        <time>2021-04-23T10:39:16.000Z</time>
      </trkpt>
      <trkpt lat="43.337153" lon="-6.852175">
        <ele>274.3</ele>
        <time>2021-04-23T10:39:19.000Z</time>
      </trkpt>
      <trkpt lat="43.337227" lon="-6.852103">
        <ele>276.2</ele>
        <time>2021-04-23T10:39:22.000Z</time>
      </trkpt>
      <trkpt lat="43.337302" lon="-6.852028">
        <ele>278.5</ele>
        <time>2021-04-23T10:39:25.000Z</time>
      </trkpt>
      <trkpt lat="43.337382" lon="-6.851957">
        <ele>281.4</ele>
        <time>2021-04-23T10:39:28.000Z</time>
      </trkpt>
      <trkpt lat="43.337453" lon="-6.851877">
        <ele>284</ele>
        <time>2021-04-23T10:39:31.000Z</time>
      </trkpt>
      <trkpt lat="43.337532" lon="-6.851807">
        <ele>287</ele>
        <time>2021-04-23T10:39:34.000Z</time>
      </trkpt>
      <trkpt lat="43.33762" lon="-6.851752">
        <ele>289.5</ele>
        <time>2021-04-23T10:39:37.000Z</time>
      </trkpt>
      <trkpt lat="43.337723" lon="-6.851682">
        <ele>293.2</ele>
        <time>2021-04-23T10:39:41.000Z</time>
      </trkpt>
      <trkpt lat="43.337803" lon="-6.851602">
        <ele>295.4</ele>
        <time>2021-04-23T10:39:44.000Z</time>
      </trkpt>
      <trkpt lat="43.337895" lon="-6.851527">
        <ele>297</ele>
        <time>2021-04-23T10:39:47.000Z</time>
      </trkpt>
      <trkpt lat="43.33798" lon="-6.851467">
        <ele>300</ele>
        <time>2021-04-23T10:39:50.000Z</time>
      </trkpt>
      <trkpt lat="43.33807" lon="-6.85142">
        <ele>302.1</ele>
        <time>2021-04-23T10:39:53.000Z</time>
      </trkpt>
      <trkpt lat="43.338153" lon="-6.85137">
        <ele>304.4</ele>
        <time>2021-04-23T10:39:56.000Z</time>
      </trkpt>
      <trkpt lat="43.338258" lon="-6.851317">
        <ele>304.7</ele>
        <time>2021-04-23T10:40:00.000Z</time>
      </trkpt>
      <trkpt lat="43.338345" lon="-6.851258">
        <ele>303.8</ele>
        <time>2021-04-23T10:40:04.000Z</time>
      </trkpt>
      <trkpt lat="43.338433" lon="-6.851208">
        <ele>304.8</ele>
        <time>2021-04-23T10:40:08.000Z</time>
      </trkpt>
      <trkpt lat="43.338538" lon="-6.851138">
        <ele>308.2</ele>
        <time>2021-04-23T10:40:12.000Z</time>
      </trkpt>
      <trkpt lat="43.338643" lon="-6.851103">
        <ele>310</ele>
        <time>2021-04-23T10:40:16.000Z</time>
      </trkpt>
      <trkpt lat="43.338735" lon="-6.851053">
        <ele>313.8</ele>
        <time>2021-04-23T10:40:20.000Z</time>
      </trkpt>
      <trkpt lat="43.338833" lon="-6.851018">
        <ele>316.3</ele>
        <time>2021-04-23T10:40:24.000Z</time>
      </trkpt>
      <trkpt lat="43.33894" lon="-6.850977">
        <ele>316.5</ele>
        <time>2021-04-23T10:40:28.000Z</time>
      </trkpt>
      <trkpt lat="43.339038" lon="-6.850942">
        <ele>316.1</ele>
        <time>2021-04-23T10:40:31.000Z</time>
      </trkpt>
      <trkpt lat="43.339142" lon="-6.850938">
        <ele>315.5</ele>
        <time>2021-04-23T10:40:34.000Z</time>
      </trkpt>
      <trkpt lat="43.339248" lon="-6.850922">
        <ele>314</ele>
        <time>2021-04-23T10:40:38.000Z</time>
      </trkpt>
      <trkpt lat="43.339352" lon="-6.850912">
        <ele>313.2</ele>
        <time>2021-04-23T10:40:42.000Z</time>
      </trkpt>
      <trkpt lat="43.339453" lon="-6.850882">
        <ele>313.9</ele>
        <time>2021-04-23T10:40:46.000Z</time>
      </trkpt>
      <trkpt lat="43.339547" lon="-6.850848">
        <ele>314.8</ele>
        <time>2021-04-23T10:40:50.000Z</time>
      </trkpt>
      <trkpt lat="43.339645" lon="-6.850815">
        <ele>315.7</ele>
        <time>2021-04-23T10:40:53.000Z</time>
      </trkpt>
      <trkpt lat="43.339745" lon="-6.850757">
        <ele>317.2</ele>
        <time>2021-04-23T10:40:57.000Z</time>
      </trkpt>
      <trkpt lat="43.339842" lon="-6.850732">
        <ele>317.4</ele>
        <time>2021-04-23T10:41:00.000Z</time>
      </trkpt>
      <trkpt lat="43.339937" lon="-6.85071">
        <ele>318</ele>
        <time>2021-04-23T10:41:03.000Z</time>
      </trkpt>
      <trkpt lat="43.340033" lon="-6.850678">
        <ele>318.9</ele>
        <time>2021-04-23T10:41:06.000Z</time>
      </trkpt>
      <trkpt lat="43.34011" lon="-6.850603">
        <ele>321.1</ele>
        <time>2021-04-23T10:41:09.000Z</time>
      </trkpt>
      <trkpt lat="43.340155" lon="-6.850475">
        <ele>325</ele>
        <time>2021-04-23T10:41:13.000Z</time>
      </trkpt>
      <trkpt lat="43.340122" lon="-6.850345">
        <ele>329.2</ele>
        <time>2021-04-23T10:41:16.000Z</time>
      </trkpt>
      <trkpt lat="43.34008" lon="-6.850213">
        <ele>332.7</ele>
        <time>2021-04-23T10:41:19.000Z</time>
      </trkpt>
      <trkpt lat="43.34005" lon="-6.850092">
        <ele>336</ele>
        <time>2021-04-23T10:41:22.000Z</time>
      </trkpt>
      <trkpt lat="43.340028" lon="-6.849953">
        <ele>340.1</ele>
        <time>2021-04-23T10:41:26.000Z</time>
      </trkpt>
      <trkpt lat="43.340023" lon="-6.84981">
        <ele>344</ele>
        <time>2021-04-23T10:41:30.000Z</time>
      </trkpt>
      <trkpt lat="43.340028" lon="-6.84968">
        <ele>347.3</ele>
        <time>2021-04-23T10:41:34.000Z</time>
      </trkpt>
      <trkpt lat="43.340048" lon="-6.849557">
        <ele>351</ele>
        <time>2021-04-23T10:41:38.000Z</time>
      </trkpt>
      <trkpt lat="43.340082" lon="-6.849433">
        <ele>353.6</ele>
        <time>2021-04-23T10:41:42.000Z</time>
      </trkpt>
      <trkpt lat="43.340118" lon="-6.849295">
        <ele>355.5</ele>
        <time>2021-04-23T10:41:46.000Z</time>
      </trkpt>
      <trkpt lat="43.340163" lon="-6.849167">
        <ele>356.4</ele>
        <time>2021-04-23T10:41:50.000Z</time>
      </trkpt>
      <trkpt lat="43.340202" lon="-6.849025">
        <ele>358.4</ele>
        <time>2021-04-23T10:41:54.000Z</time>
      </trkpt>
      <trkpt lat="43.340243" lon="-6.848913">
        <ele>361</ele>
        <time>2021-04-23T10:41:59.000Z</time>
      </trkpt>
      <trkpt lat="43.340282" lon="-6.848802">
        <ele>363.7</ele>
        <time>2021-04-23T10:42:05.000Z</time>
      </trkpt>
      <trkpt lat="43.340332" lon="-6.848667">
        <ele>366.2</ele>
        <time>2021-04-23T10:42:09.000Z</time>
      </trkpt>
      <trkpt lat="43.340375" lon="-6.848557">
        <ele>367.8</ele>
        <time>2021-04-23T10:42:12.000Z</time>
      </trkpt>
      <trkpt lat="43.340423" lon="-6.848422">
        <ele>369.3</ele>
        <time>2021-04-23T10:42:16.000Z</time>
      </trkpt>
      <trkpt lat="43.340455" lon="-6.848305">
        <ele>369.7</ele>
        <time>2021-04-23T10:42:19.000Z</time>
      </trkpt>
      <trkpt lat="43.340487" lon="-6.848185">
        <ele>370.8</ele>
        <time>2021-04-23T10:42:22.000Z</time>
      </trkpt>
      <trkpt lat="43.340503" lon="-6.848042">
        <ele>373.5</ele>
        <time>2021-04-23T10:42:25.000Z</time>
      </trkpt>
      <trkpt lat="43.340513" lon="-6.847908">
        <ele>376.4</ele>
        <time>2021-04-23T10:42:28.000Z</time>
      </trkpt>
      <trkpt lat="43.34053" lon="-6.847752">
        <ele>380.5</ele>
        <time>2021-04-23T10:42:32.000Z</time>
      </trkpt>
      <trkpt lat="43.340562" lon="-6.847605">
        <ele>383.1</ele>
        <time>2021-04-23T10:42:36.000Z</time>
      </trkpt>
      <trkpt lat="43.340585" lon="-6.84746">
        <ele>387</ele>
        <time>2021-04-23T10:42:40.000Z</time>
      </trkpt>
      <trkpt lat="43.340563" lon="-6.847305">
        <ele>390.4</ele>
        <time>2021-04-23T10:42:44.000Z</time>
      </trkpt>
      <trkpt lat="43.340518" lon="-6.847158">
        <ele>392.3</ele>
        <time>2021-04-23T10:42:47.000Z</time>
      </trkpt>
      <trkpt lat="43.340478" lon="-6.847002">
        <ele>396.5</ele>
        <time>2021-04-23T10:42:50.000Z</time>
      </trkpt>
      <trkpt lat="43.340447" lon="-6.846875">
        <ele>400.7</ele>
        <time>2021-04-23T10:42:53.000Z</time>
      </trkpt>
      <trkpt lat="43.340417" lon="-6.846717">
        <ele>405.3</ele>
        <time>2021-04-23T10:42:57.000Z</time>
      </trkpt>
      <trkpt lat="43.340402" lon="-6.846593">
        <ele>410.5</ele>
        <time>2021-04-23T10:43:00.000Z</time>
      </trkpt>
      <trkpt lat="43.3404" lon="-6.846447">
        <ele>413</ele>
        <time>2021-04-23T10:43:03.000Z</time>
      </trkpt>
      <trkpt lat="43.340403" lon="-6.846312">
        <ele>412</ele>
        <time>2021-04-23T10:43:06.000Z</time>
      </trkpt>
      <trkpt lat="43.3404" lon="-6.846157">
        <ele>408.8</ele>
        <time>2021-04-23T10:43:09.000Z</time>
      </trkpt>
      <trkpt lat="43.340395" lon="-6.846017">
        <ele>408.8</ele>
        <time>2021-04-23T10:43:12.000Z</time>
      </trkpt>
      <trkpt lat="43.340387" lon="-6.845878">
        <ele>407</ele>
        <time>2021-04-23T10:43:15.000Z</time>
      </trkpt>
      <trkpt lat="43.340397" lon="-6.845752">
        <ele>407.4</ele>
        <time>2021-04-23T10:43:18.000Z</time>
      </trkpt>
      <trkpt lat="43.340458" lon="-6.845653">
        <ele>407.2</ele>
        <time>2021-04-23T10:43:21.000Z</time>
      </trkpt>
      <trkpt lat="43.340562" lon="-6.845645">
        <ele>408.4</ele>
        <time>2021-04-23T10:43:24.000Z</time>
      </trkpt>
      <trkpt lat="43.340665" lon="-6.84567">
        <ele>409.8</ele>
        <time>2021-04-23T10:43:27.000Z</time>
      </trkpt>
      <trkpt lat="43.340772" lon="-6.845712">
        <ele>409.9</ele>
        <time>2021-04-23T10:43:30.000Z</time>
      </trkpt>
      <trkpt lat="43.340872" lon="-6.845755">
        <ele>413.2</ele>
        <time>2021-04-23T10:43:33.000Z</time>
      </trkpt>
      <trkpt lat="43.340957" lon="-6.845807">
        <ele>414.4</ele>
        <time>2021-04-23T10:43:36.000Z</time>
      </trkpt>
      <trkpt lat="43.341057" lon="-6.84588">
        <ele>417.3</ele>
        <time>2021-04-23T10:43:39.000Z</time>
      </trkpt>
      <trkpt lat="43.341153" lon="-6.845958">
        <ele>420.2</ele>
        <time>2021-04-23T10:43:42.000Z</time>
      </trkpt>
      <trkpt lat="43.34124" lon="-6.846035">
        <ele>422</ele>
        <time>2021-04-23T10:43:45.000Z</time>
      </trkpt>
      <trkpt lat="43.341322" lon="-6.84613">
        <ele>423.5</ele>
        <time>2021-04-23T10:43:49.000Z</time>
      </trkpt>
      <trkpt lat="43.341407" lon="-6.846248">
        <ele>425</ele>
        <time>2021-04-23T10:43:53.000Z</time>
      </trkpt>
      <trkpt lat="43.34149" lon="-6.846333">
        <ele>427.8</ele>
        <time>2021-04-23T10:43:56.000Z</time>
      </trkpt>
      <trkpt lat="43.341577" lon="-6.846422">
        <ele>432</ele>
        <time>2021-04-23T10:43:59.000Z</time>
      </trkpt>
      <trkpt lat="43.341657" lon="-6.846512">
        <ele>435.5</ele>
        <time>2021-04-23T10:44:02.000Z</time>
      </trkpt>
      <trkpt lat="43.341713" lon="-6.846635">
        <ele>437.8</ele>
        <time>2021-04-23T10:44:05.000Z</time>
      </trkpt>
      <trkpt lat="43.341743" lon="-6.846765">
        <ele>437.8</ele>
        <time>2021-04-23T10:44:08.000Z</time>
      </trkpt>
      <trkpt lat="43.34173" lon="-6.846893">
        <ele>439.6</ele>
        <time>2021-04-23T10:44:11.000Z</time>
      </trkpt>
      <trkpt lat="43.341713" lon="-6.847045">
        <ele>439.3</ele>
        <time>2021-04-23T10:44:22.000Z</time>
      </trkpt>
      <trkpt lat="43.341697" lon="-6.847172">
        <ele>437.9</ele>
        <time>2021-04-23T10:44:26.000Z</time>
      </trkpt>
      <trkpt lat="43.341673" lon="-6.847367">
        <ele>434.9</ele>
        <time>2021-04-23T10:45:04.000Z</time>
      </trkpt>
      <trkpt lat="43.341657" lon="-6.847488">
        <ele>436.4</ele>
        <time>2021-04-23T10:45:14.000Z</time>
      </trkpt>
      <trkpt lat="43.341682" lon="-6.847615">
        <ele>436</ele>
        <time>2021-04-23T10:45:19.000Z</time>
      </trkpt>
      <trkpt lat="43.341705" lon="-6.847755">
        <ele>436.5</ele>
        <time>2021-04-23T10:45:24.000Z</time>
      </trkpt>
      <trkpt lat="43.341703" lon="-6.847887">
        <ele>435.9</ele>
        <time>2021-04-23T10:45:29.000Z</time>
      </trkpt>
      <trkpt lat="43.341692" lon="-6.848043">
        <ele>435.4</ele>
        <time>2021-04-23T10:45:33.000Z</time>
      </trkpt>
      <trkpt lat="43.341705" lon="-6.84818">
        <ele>435.9</ele>
        <time>2021-04-23T10:45:36.000Z</time>
      </trkpt>
      <trkpt lat="43.341737" lon="-6.848313">
        <ele>436</ele>
        <time>2021-04-23T10:45:39.000Z</time>
      </trkpt>
      <trkpt lat="43.34177" lon="-6.84846">
        <ele>436.9</ele>
        <time>2021-04-23T10:45:42.000Z</time>
      </trkpt>
      <trkpt lat="43.341805" lon="-6.848612">
        <ele>438</ele>
        <time>2021-04-23T10:45:45.000Z</time>
      </trkpt>
      <trkpt lat="43.341843" lon="-6.848742">
        <ele>439.4</ele>
        <time>2021-04-23T10:45:48.000Z</time>
      </trkpt>
      <trkpt lat="43.341885" lon="-6.84887">
        <ele>440.2</ele>
        <time>2021-04-23T10:45:51.000Z</time>
      </trkpt>
      <trkpt lat="43.341932" lon="-6.849002">
        <ele>442</ele>
        <time>2021-04-23T10:45:54.000Z</time>
      </trkpt>
      <trkpt lat="43.341978" lon="-6.84914">
        <ele>443.7</ele>
        <time>2021-04-23T10:45:57.000Z</time>
      </trkpt>
      <trkpt lat="43.342037" lon="-6.849275">
        <ele>446.8</ele>
        <time>2021-04-23T10:46:00.000Z</time>
      </trkpt>
      <trkpt lat="43.342097" lon="-6.849402">
        <ele>448.6</ele>
        <time>2021-04-23T10:46:03.000Z</time>
      </trkpt>
      <trkpt lat="43.342162" lon="-6.849515">
        <ele>450.6</ele>
        <time>2021-04-23T10:46:06.000Z</time>
      </trkpt>
      <trkpt lat="43.342233" lon="-6.849605">
        <ele>454.3</ele>
        <time>2021-04-23T10:46:10.000Z</time>
      </trkpt>
      <trkpt lat="43.342312" lon="-6.849702">
        <ele>458.7</ele>
        <time>2021-04-23T10:46:15.000Z</time>
      </trkpt>
      <trkpt lat="43.342387" lon="-6.849798">
        <ele>461.6</ele>
        <time>2021-04-23T10:46:18.000Z</time>
      </trkpt>
      <trkpt lat="43.342462" lon="-6.849883">
        <ele>464.7</ele>
        <time>2021-04-23T10:46:21.000Z</time>
      </trkpt>
      <trkpt lat="43.342533" lon="-6.849962">
        <ele>466.5</ele>
        <time>2021-04-23T10:46:24.000Z</time>
      </trkpt>
      <trkpt lat="43.342597" lon="-6.850052">
        <ele>467.2</ele>
        <time>2021-04-23T10:46:27.000Z</time>
      </trkpt>
      <trkpt lat="43.342667" lon="-6.85015">
        <ele>468.9</ele>
        <time>2021-04-23T10:46:30.000Z</time>
      </trkpt>
      <trkpt lat="43.342732" lon="-6.850257">
        <ele>470</ele>
        <time>2021-04-23T10:46:33.000Z</time>
      </trkpt>
      <trkpt lat="43.342793" lon="-6.850357">
        <ele>470.7</ele>
        <time>2021-04-23T10:46:36.000Z</time>
      </trkpt>
      <trkpt lat="43.342847" lon="-6.850457">
        <ele>468.1</ele>
        <time>2021-04-23T10:46:39.000Z</time>
      </trkpt>
      <trkpt lat="43.342908" lon="-6.850595">
        <ele>465.6</ele>
        <time>2021-04-23T10:46:43.000Z</time>
      </trkpt>
      <trkpt lat="43.342923" lon="-6.850747">
        <ele>464.9</ele>
        <time>2021-04-23T10:46:47.000Z</time>
      </trkpt>
      <trkpt lat="43.342932" lon="-6.850913">
        <ele>465</ele>
        <time>2021-04-23T10:46:51.000Z</time>
      </trkpt>
      <trkpt lat="43.34294" lon="-6.851062">
        <ele>465.2</ele>
        <time>2021-04-23T10:46:54.000Z</time>
      </trkpt>
      <trkpt lat="43.342952" lon="-6.851202">
        <ele>463.4</ele>
        <time>2021-04-23T10:46:57.000Z</time>
      </trkpt>
      <trkpt lat="43.342967" lon="-6.851353">
        <ele>462.9</ele>
        <time>2021-04-23T10:47:00.000Z</time>
      </trkpt>
      <trkpt lat="43.343002" lon="-6.851492">
        <ele>464.2</ele>
        <time>2021-04-23T10:47:03.000Z</time>
      </trkpt>
      <trkpt lat="43.343037" lon="-6.851615">
        <ele>465.8</ele>
        <time>2021-04-23T10:47:06.000Z</time>
      </trkpt>
      <trkpt lat="43.343077" lon="-6.851745">
        <ele>468.9</ele>
        <time>2021-04-23T10:47:09.000Z</time>
      </trkpt>
      <trkpt lat="43.343067" lon="-6.851883">
        <ele>470.8</ele>
        <time>2021-04-23T10:47:13.000Z</time>
      </trkpt>
      <trkpt lat="43.342982" lon="-6.851957">
        <ele>471.2</ele>
        <time>2021-04-23T10:47:25.000Z</time>
      </trkpt>
      <trkpt lat="43.342897" lon="-6.852037">
        <ele>470.8</ele>
        <time>2021-04-23T10:47:28.000Z</time>
      </trkpt>
      <trkpt lat="43.342795" lon="-6.85214">
        <ele>469.8</ele>
        <time>2021-04-23T10:47:31.000Z</time>
      </trkpt>
      <trkpt lat="43.342707" lon="-6.852243">
        <ele>470.2</ele>
        <time>2021-04-23T10:47:34.000Z</time>
      </trkpt>
      <trkpt lat="43.342623" lon="-6.852333">
        <ele>470.9</ele>
        <time>2021-04-23T10:47:37.000Z</time>
      </trkpt>
      <trkpt lat="43.342558" lon="-6.852428">
        <ele>471.2</ele>
        <time>2021-04-23T10:47:40.000Z</time>
      </trkpt>
      <trkpt lat="43.34249" lon="-6.852512">
        <ele>470.6</ele>
        <time>2021-04-23T10:47:43.000Z</time>
      </trkpt>
      <trkpt lat="43.342413" lon="-6.852585">
        <ele>470.1</ele>
        <time>2021-04-23T10:47:46.000Z</time>
      </trkpt>
      <trkpt lat="43.34233" lon="-6.85266">
        <ele>470</ele>
        <time>2021-04-23T10:47:49.000Z</time>
      </trkpt>
      <trkpt lat="43.342247" lon="-6.852745">
        <ele>469.6</ele>
        <time>2021-04-23T10:47:52.000Z</time>
      </trkpt>
      <trkpt lat="43.342177" lon="-6.852852">
        <ele>471.5</ele>
        <time>2021-04-23T10:47:55.000Z</time>
      </trkpt>
      <trkpt lat="43.34211" lon="-6.852967">
        <ele>471.5</ele>
        <time>2021-04-23T10:47:58.000Z</time>
      </trkpt>
      <trkpt lat="43.342038" lon="-6.85308">
        <ele>472.2</ele>
        <time>2021-04-23T10:48:01.000Z</time>
      </trkpt>
      <trkpt lat="43.341982" lon="-6.85321">
        <ele>471.2</ele>
        <time>2021-04-23T10:48:04.000Z</time>
      </trkpt>
      <trkpt lat="43.34192" lon="-6.853362">
        <ele>469.2</ele>
        <time>2021-04-23T10:48:07.000Z</time>
      </trkpt>
      <trkpt lat="43.341863" lon="-6.853505">
        <ele>468.1</ele>
        <time>2021-04-23T10:48:10.000Z</time>
      </trkpt>
      <trkpt lat="43.341835" lon="-6.853642">
        <ele>466.9</ele>
        <time>2021-04-23T10:48:13.000Z</time>
      </trkpt>
      <trkpt lat="43.341828" lon="-6.853783">
        <ele>464.8</ele>
        <time>2021-04-23T10:48:16.000Z</time>
      </trkpt>
      <trkpt lat="43.341833" lon="-6.853927">
        <ele>461.9</ele>
        <time>2021-04-23T10:48:19.000Z</time>
      </trkpt>
      <trkpt lat="43.341862" lon="-6.854073">
        <ele>461.8</ele>
        <time>2021-04-23T10:48:22.000Z</time>
      </trkpt>
      <trkpt lat="43.341903" lon="-6.85421">
        <ele>462.4</ele>
        <time>2021-04-23T10:48:25.000Z</time>
      </trkpt>
      <trkpt lat="43.341972" lon="-6.854332">
        <ele>462.1</ele>
        <time>2021-04-23T10:48:28.000Z</time>
      </trkpt>
      <trkpt lat="43.342055" lon="-6.854393">
        <ele>460.2</ele>
        <time>2021-04-23T10:48:31.000Z</time>
      </trkpt>
      <trkpt lat="43.342157" lon="-6.854387">
        <ele>459.6</ele>
        <time>2021-04-23T10:48:34.000Z</time>
      </trkpt>
      <trkpt lat="43.342257" lon="-6.854348">
        <ele>460.9</ele>
        <time>2021-04-23T10:48:36.000Z</time>
      </trkpt>
      <trkpt lat="43.342348" lon="-6.854302">
        <ele>461.5</ele>
        <time>2021-04-23T10:48:38.000Z</time>
      </trkpt>
      <trkpt lat="43.342443" lon="-6.854252">
        <ele>461.7</ele>
        <time>2021-04-23T10:48:40.000Z</time>
      </trkpt>
      <trkpt lat="43.34254" lon="-6.85422">
        <ele>463.8</ele>
        <time>2021-04-23T10:48:42.000Z</time>
      </trkpt>
      <trkpt lat="43.34264" lon="-6.854237">
        <ele>467.1</ele>
        <time>2021-04-23T10:48:45.000Z</time>
      </trkpt>
      <trkpt lat="43.342715" lon="-6.854377">
        <ele>472.1</ele>
        <time>2021-04-23T10:48:53.000Z</time>
      </trkpt>
      <trkpt lat="43.342803" lon="-6.854433">
        <ele>473.3</ele>
        <time>2021-04-23T10:48:55.000Z</time>
      </trkpt>
      <trkpt lat="43.342905" lon="-6.854483">
        <ele>473.8</ele>
        <time>2021-04-23T10:48:57.000Z</time>
      </trkpt>
      <trkpt lat="43.34301" lon="-6.854545">
        <ele>474.6</ele>
        <time>2021-04-23T10:48:59.000Z</time>
      </trkpt>
      <trkpt lat="43.343105" lon="-6.8546">
        <ele>475.4</ele>
        <time>2021-04-23T10:49:01.000Z</time>
      </trkpt>
      <trkpt lat="43.343193" lon="-6.854652">
        <ele>475.3</ele>
        <time>2021-04-23T10:49:03.000Z</time>
      </trkpt>
      <trkpt lat="43.343283" lon="-6.854732">
        <ele>476.7</ele>
        <time>2021-04-23T10:49:05.000Z</time>
      </trkpt>
      <trkpt lat="43.343385" lon="-6.85482">
        <ele>478.4</ele>
        <time>2021-04-23T10:49:07.000Z</time>
      </trkpt>
      <trkpt lat="43.34347" lon="-6.854915">
        <ele>479.4</ele>
        <time>2021-04-23T10:49:09.000Z</time>
      </trkpt>
      <trkpt lat="43.343538" lon="-6.855022">
        <ele>480</ele>
        <time>2021-04-23T10:49:11.000Z</time>
      </trkpt>
      <trkpt lat="43.34361" lon="-6.85513">
        <ele>480.4</ele>
        <time>2021-04-23T10:49:13.000Z</time>
      </trkpt>
      <trkpt lat="43.343685" lon="-6.85522">
        <ele>481.7</ele>
        <time>2021-04-23T10:49:15.000Z</time>
      </trkpt>
      <trkpt lat="43.343795" lon="-6.855312">
        <ele>483.7</ele>
        <time>2021-04-23T10:49:18.000Z</time>
      </trkpt>
      <trkpt lat="43.343878" lon="-6.855372">
        <ele>484.1</ele>
        <time>2021-04-23T10:49:20.000Z</time>
      </trkpt>
      <trkpt lat="43.343998" lon="-6.855447">
        <ele>485</ele>
        <time>2021-04-23T10:49:23.000Z</time>
      </trkpt>
      <trkpt lat="43.344118" lon="-6.855518">
        <ele>487</ele>
        <time>2021-04-23T10:49:26.000Z</time>
      </trkpt>
      <trkpt lat="43.344237" lon="-6.8556">
        <ele>488.2</ele>
        <time>2021-04-23T10:49:29.000Z</time>
      </trkpt>
      <trkpt lat="43.344327" lon="-6.85565">
        <ele>488.8</ele>
        <time>2021-04-23T10:49:31.000Z</time>
      </trkpt>
      <trkpt lat="43.344423" lon="-6.855723">
        <ele>488.6</ele>
        <time>2021-04-23T10:49:33.000Z</time>
      </trkpt>
      <trkpt lat="43.344508" lon="-6.855792">
        <ele>488.9</ele>
        <time>2021-04-23T10:49:35.000Z</time>
      </trkpt>
      <trkpt lat="43.344605" lon="-6.855858">
        <ele>490.3</ele>
        <time>2021-04-23T10:49:37.000Z</time>
      </trkpt>
      <trkpt lat="43.344702" lon="-6.85593">
        <ele>492.3</ele>
        <time>2021-04-23T10:49:39.000Z</time>
      </trkpt>
      <trkpt lat="43.344797" lon="-6.856003">
        <ele>493.3</ele>
        <time>2021-04-23T10:49:41.000Z</time>
      </trkpt>
      <trkpt lat="43.344887" lon="-6.856077">
        <ele>493.7</ele>
        <time>2021-04-23T10:49:43.000Z</time>
      </trkpt>
      <trkpt lat="43.344983" lon="-6.856137">
        <ele>494.6</ele>
        <time>2021-04-23T10:49:45.000Z</time>
      </trkpt>
      <trkpt lat="43.345078" lon="-6.856187">
        <ele>496</ele>
        <time>2021-04-23T10:49:47.000Z</time>
      </trkpt>
      <trkpt lat="43.345178" lon="-6.856245">
        <ele>496.4</ele>
        <time>2021-04-23T10:49:49.000Z</time>
      </trkpt>
      <trkpt lat="43.345275" lon="-6.856288">
        <ele>498.1</ele>
        <time>2021-04-23T10:49:51.000Z</time>
      </trkpt>
      <trkpt lat="43.345383" lon="-6.856323">
        <ele>501.1</ele>
        <time>2021-04-23T10:49:53.000Z</time>
      </trkpt>
      <trkpt lat="43.345485" lon="-6.856343">
        <ele>504.2</ele>
        <time>2021-04-23T10:49:55.000Z</time>
      </trkpt>
      <trkpt lat="43.345592" lon="-6.856402">
        <ele>508.7</ele>
        <time>2021-04-23T10:49:58.000Z</time>
      </trkpt>
      <trkpt lat="43.345533" lon="-6.856498">
        <ele>511.8</ele>
        <time>2021-04-23T10:50:01.000Z</time>
      </trkpt>
      <trkpt lat="43.345422" lon="-6.856515">
        <ele>512</ele>
        <time>2021-04-23T10:50:03.000Z</time>
      </trkpt>
      <trkpt lat="43.3453" lon="-6.856528">
        <ele>511.5</ele>
        <time>2021-04-23T10:50:05.000Z</time>
      </trkpt>
      <trkpt lat="43.345193" lon="-6.856542">
        <ele>511.1</ele>
        <time>2021-04-23T10:50:07.000Z</time>
      </trkpt>
      <trkpt lat="43.345092" lon="-6.85656">
        <ele>511.7</ele>
        <time>2021-04-23T10:50:09.000Z</time>
      </trkpt>
      <trkpt lat="43.344992" lon="-6.85658">
        <ele>512.2</ele>
        <time>2021-04-23T10:50:11.000Z</time>
      </trkpt>
      <trkpt lat="43.344902" lon="-6.856597">
        <ele>513</ele>
        <time>2021-04-23T10:50:13.000Z</time>
      </trkpt>
      <trkpt lat="43.34481" lon="-6.856605">
        <ele>514.1</ele>
        <time>2021-04-23T10:50:15.000Z</time>
      </trkpt>
      <trkpt lat="43.344712" lon="-6.85662">
        <ele>514</ele>
        <time>2021-04-23T10:50:17.000Z</time>
      </trkpt>
      <trkpt lat="43.344612" lon="-6.856637">
        <ele>513.9</ele>
        <time>2021-04-23T10:50:19.000Z</time>
      </trkpt>
      <trkpt lat="43.34451" lon="-6.85666">
        <ele>513.1</ele>
        <time>2021-04-23T10:50:21.000Z</time>
      </trkpt>
      <trkpt lat="43.344408" lon="-6.856685">
        <ele>512.9</ele>
        <time>2021-04-23T10:50:23.000Z</time>
      </trkpt>
      <trkpt lat="43.344313" lon="-6.856717">
        <ele>512.2</ele>
        <time>2021-04-23T10:50:25.000Z</time>
      </trkpt>
      <trkpt lat="43.344223" lon="-6.856745">
        <ele>511.8</ele>
        <time>2021-04-23T10:50:27.000Z</time>
      </trkpt>
      <trkpt lat="43.344128" lon="-6.8568">
        <ele>512.2</ele>
        <time>2021-04-23T10:50:29.000Z</time>
      </trkpt>
      <trkpt lat="43.344033" lon="-6.85686">
        <ele>513.5</ele>
        <time>2021-04-23T10:50:31.000Z</time>
      </trkpt>
      <trkpt lat="43.343953" lon="-6.856922">
        <ele>515</ele>
        <time>2021-04-23T10:50:33.000Z</time>
      </trkpt>
      <trkpt lat="43.343873" lon="-6.857005">
        <ele>516.7</ele>
        <time>2021-04-23T10:50:35.000Z</time>
      </trkpt>
      <trkpt lat="43.343797" lon="-6.857083">
        <ele>517.7</ele>
        <time>2021-04-23T10:50:37.000Z</time>
      </trkpt>
      <trkpt lat="43.343728" lon="-6.85717">
        <ele>517.3</ele>
        <time>2021-04-23T10:50:39.000Z</time>
      </trkpt>
      <trkpt lat="43.343672" lon="-6.857267">
        <ele>517.3</ele>
        <time>2021-04-23T10:50:41.000Z</time>
      </trkpt>
      <trkpt lat="43.343625" lon="-6.857378">
        <ele>519.1</ele>
        <time>2021-04-23T10:50:43.000Z</time>
      </trkpt>
      <trkpt lat="43.343573" lon="-6.857545">
        <ele>520.1</ele>
        <time>2021-04-23T10:50:46.000Z</time>
      </trkpt>
      <trkpt lat="43.343552" lon="-6.857682">
        <ele>521.9</ele>
        <time>2021-04-23T10:50:48.000Z</time>
      </trkpt>
      <trkpt lat="43.343537" lon="-6.857828">
        <ele>524.5</ele>
        <time>2021-04-23T10:50:50.000Z</time>
      </trkpt>
      <trkpt lat="43.343523" lon="-6.857975">
        <ele>526</ele>
        <time>2021-04-23T10:50:52.000Z</time>
      </trkpt>
      <trkpt lat="43.343518" lon="-6.858133">
        <ele>527.4</ele>
        <time>2021-04-23T10:50:54.000Z</time>
      </trkpt>
      <trkpt lat="43.34352" lon="-6.858278">
        <ele>528.3</ele>
        <time>2021-04-23T10:50:56.000Z</time>
      </trkpt>
      <trkpt lat="43.343533" lon="-6.858418">
        <ele>530.4</ele>
        <time>2021-04-23T10:50:58.000Z</time>
      </trkpt>
      <trkpt lat="43.343558" lon="-6.85854">
        <ele>532.5</ele>
        <time>2021-04-23T10:51:00.000Z</time>
      </trkpt>
      <trkpt lat="43.343587" lon="-6.858672">
        <ele>534.1</ele>
        <time>2021-04-23T10:51:02.000Z</time>
      </trkpt>
      <trkpt lat="43.343608" lon="-6.858798">
        <ele>535.1</ele>
        <time>2021-04-23T10:51:04.000Z</time>
      </trkpt>
      <trkpt lat="43.343622" lon="-6.858942">
        <ele>534.8</ele>
        <time>2021-04-23T10:51:06.000Z</time>
      </trkpt>
      <trkpt lat="43.343632" lon="-6.85909">
        <ele>534.4</ele>
        <time>2021-04-23T10:51:08.000Z</time>
      </trkpt>
      <trkpt lat="43.343642" lon="-6.859238">
        <ele>535.3</ele>
        <time>2021-04-23T10:51:10.000Z</time>
      </trkpt>
      <trkpt lat="43.343655" lon="-6.859385">
        <ele>535.8</ele>
        <time>2021-04-23T10:51:12.000Z</time>
      </trkpt>
      <trkpt lat="43.343667" lon="-6.85953">
        <ele>536.6</ele>
        <time>2021-04-23T10:51:14.000Z</time>
      </trkpt>
      <trkpt lat="43.34368" lon="-6.859667">
        <ele>538.4</ele>
        <time>2021-04-23T10:51:16.000Z</time>
      </trkpt>
      <trkpt lat="43.343693" lon="-6.859808">
        <ele>541</ele>
        <time>2021-04-23T10:51:18.000Z</time>
      </trkpt>
      <trkpt lat="43.343702" lon="-6.859938">
        <ele>544</ele>
        <time>2021-04-23T10:51:20.000Z</time>
      </trkpt>
      <trkpt lat="43.34373" lon="-6.860115">
        <ele>546.6</ele>
        <time>2021-04-23T10:51:23.000Z</time>
      </trkpt>
      <trkpt lat="43.34376" lon="-6.860238">
        <ele>548.3</ele>
        <time>2021-04-23T10:51:25.000Z</time>
      </trkpt>
      <trkpt lat="43.34379" lon="-6.860365">
        <ele>550.9</ele>
        <time>2021-04-23T10:51:27.000Z</time>
      </trkpt>
      <trkpt lat="43.343802" lon="-6.860517">
        <ele>553.1</ele>
        <time>2021-04-23T10:51:30.000Z</time>
      </trkpt>
      <trkpt lat="43.343817" lon="-6.860672">
        <ele>554.9</ele>
        <time>2021-04-23T10:51:33.000Z</time>
      </trkpt>
      <trkpt lat="43.34384" lon="-6.860828">
        <ele>557.4</ele>
        <time>2021-04-23T10:51:36.000Z</time>
      </trkpt>
      <trkpt lat="43.34386" lon="-6.860983">
        <ele>559.6</ele>
        <time>2021-04-23T10:51:39.000Z</time>
      </trkpt>
      <trkpt lat="43.343877" lon="-6.861142">
        <ele>560.9</ele>
        <time>2021-04-23T10:51:42.000Z</time>
      </trkpt>
      <trkpt lat="43.343887" lon="-6.861322">
        <ele>560.9</ele>
        <time>2021-04-23T10:51:45.000Z</time>
      </trkpt>
      <trkpt lat="43.343897" lon="-6.861448">
        <ele>560.5</ele>
        <time>2021-04-23T10:51:47.000Z</time>
      </trkpt>
      <trkpt lat="43.343912" lon="-6.861577">
        <ele>560.8</ele>
        <time>2021-04-23T10:51:49.000Z</time>
      </trkpt>
      <trkpt lat="43.343927" lon="-6.861745">
        <ele>558.9</ele>
        <time>2021-04-23T10:51:52.000Z</time>
      </trkpt>
      <trkpt lat="43.343923" lon="-6.861877">
        <ele>559.4</ele>
        <time>2021-04-23T10:51:55.000Z</time>
      </trkpt>
      <trkpt lat="43.343825" lon="-6.861957">
        <ele>556.1</ele>
        <time>2021-04-23T10:51:58.000Z</time>
      </trkpt>
      <trkpt lat="43.343725" lon="-6.861958">
        <ele>554.8</ele>
        <time>2021-04-23T10:52:00.000Z</time>
      </trkpt>
      <trkpt lat="43.343608" lon="-6.861958">
        <ele>553.3</ele>
        <time>2021-04-23T10:52:02.000Z</time>
      </trkpt>
      <trkpt lat="43.343478" lon="-6.861983">
        <ele>552.8</ele>
        <time>2021-04-23T10:52:04.000Z</time>
      </trkpt>
      <trkpt lat="43.343353" lon="-6.862015">
        <ele>552.7</ele>
        <time>2021-04-23T10:52:06.000Z</time>
      </trkpt>
      <trkpt lat="43.34323" lon="-6.862018">
        <ele>553.3</ele>
        <time>2021-04-23T10:52:08.000Z</time>
      </trkpt>
      <trkpt lat="43.343132" lon="-6.862028">
        <ele>553.9</ele>
        <time>2021-04-23T10:52:10.000Z</time>
      </trkpt>
      <trkpt lat="43.342968" lon="-6.862027">
        <ele>552.2</ele>
        <time>2021-04-23T10:52:14.000Z</time>
      </trkpt>
      <trkpt lat="43.342858" lon="-6.862023">
        <ele>552.4</ele>
        <time>2021-04-23T10:52:17.000Z</time>
      </trkpt>
      <trkpt lat="43.342772" lon="-6.862112">
        <ele>552.9</ele>
        <time>2021-04-23T10:52:20.000Z</time>
      </trkpt>
      <trkpt lat="43.342713" lon="-6.86222">
        <ele>554.3</ele>
        <time>2021-04-23T10:52:22.000Z</time>
      </trkpt>
      <trkpt lat="43.342648" lon="-6.862328">
        <ele>556.1</ele>
        <time>2021-04-23T10:52:24.000Z</time>
      </trkpt>
      <trkpt lat="43.342593" lon="-6.86243">
        <ele>556.7</ele>
        <time>2021-04-23T10:52:26.000Z</time>
      </trkpt>
      <trkpt lat="43.34254" lon="-6.862535">
        <ele>557.5</ele>
        <time>2021-04-23T10:52:28.000Z</time>
      </trkpt>
      <trkpt lat="43.342507" lon="-6.862688">
        <ele>560.2</ele>
        <time>2021-04-23T10:52:31.000Z</time>
      </trkpt>
      <trkpt lat="43.342507" lon="-6.86282">
        <ele>564.1</ele>
        <time>2021-04-23T10:52:34.000Z</time>
      </trkpt>
      <trkpt lat="43.342482" lon="-6.862965">
        <ele>565.9</ele>
        <time>2021-04-23T10:52:38.000Z</time>
      </trkpt>
      <trkpt lat="43.34246" lon="-6.863088">
        <ele>566.6</ele>
        <time>2021-04-23T10:52:41.000Z</time>
      </trkpt>
      <trkpt lat="43.34246" lon="-6.86322">
        <ele>567.3</ele>
        <time>2021-04-23T10:52:44.000Z</time>
      </trkpt>
      <trkpt lat="43.342443" lon="-6.86335">
        <ele>568.4</ele>
        <time>2021-04-23T10:52:47.000Z</time>
      </trkpt>
      <trkpt lat="43.34243" lon="-6.863493">
        <ele>570.3</ele>
        <time>2021-04-23T10:52:50.000Z</time>
      </trkpt>
      <trkpt lat="43.342412" lon="-6.863683">
        <ele>571.9</ele>
        <time>2021-04-23T10:52:54.000Z</time>
      </trkpt>
      <trkpt lat="43.342397" lon="-6.863823">
        <ele>577</ele>
        <time>2021-04-23T10:52:57.000Z</time>
      </trkpt>
      <trkpt lat="43.34238" lon="-6.863962">
        <ele>582.3</ele>
        <time>2021-04-23T10:53:00.000Z</time>
      </trkpt>
      <trkpt lat="43.342353" lon="-6.864115">
        <ele>588.1</ele>
        <time>2021-04-23T10:53:03.000Z</time>
      </trkpt>
      <trkpt lat="43.34229" lon="-6.864317">
        <ele>587.3</ele>
        <time>2021-04-23T10:53:07.000Z</time>
      </trkpt>
      <trkpt lat="43.342247" lon="-6.864428">
        <ele>586.2</ele>
        <time>2021-04-23T10:53:09.000Z</time>
      </trkpt>
      <trkpt lat="43.342175" lon="-6.864578">
        <ele>583.7</ele>
        <time>2021-04-23T10:53:12.000Z</time>
      </trkpt>
      <trkpt lat="43.342085" lon="-6.864702">
        <ele>580.4</ele>
        <time>2021-04-23T10:53:15.000Z</time>
      </trkpt>
      <trkpt lat="43.341998" lon="-6.86482">
        <ele>577.1</ele>
        <time>2021-04-23T10:53:18.000Z</time>
      </trkpt>
      <trkpt lat="43.341907" lon="-6.864918">
        <ele>575.3</ele>
        <time>2021-04-23T10:53:21.000Z</time>
      </trkpt>
      <trkpt lat="43.341812" lon="-6.865005">
        <ele>574.3</ele>
        <time>2021-04-23T10:53:24.000Z</time>
      </trkpt>
      <trkpt lat="43.341718" lon="-6.865095">
        <ele>572.9</ele>
        <time>2021-04-23T10:53:27.000Z</time>
      </trkpt>
      <trkpt lat="43.34163" lon="-6.865192">
        <ele>570.5</ele>
        <time>2021-04-23T10:53:30.000Z</time>
      </trkpt>
      <trkpt lat="43.341565" lon="-6.865283">
        <ele>568.7</ele>
        <time>2021-04-23T10:53:32.000Z</time>
      </trkpt>
      <trkpt lat="43.341507" lon="-6.86538">
        <ele>567.7</ele>
        <time>2021-04-23T10:53:34.000Z</time>
      </trkpt>
      <trkpt lat="43.341422" lon="-6.865525">
        <ele>569.9</ele>
        <time>2021-04-23T10:53:37.000Z</time>
      </trkpt>
      <trkpt lat="43.34134" lon="-6.865655">
        <ele>574.6</ele>
        <time>2021-04-23T10:53:40.000Z</time>
      </trkpt>
      <trkpt lat="43.341263" lon="-6.865777">
        <ele>578.9</ele>
        <time>2021-04-23T10:53:43.000Z</time>
      </trkpt>
      <trkpt lat="43.341192" lon="-6.865887">
        <ele>582</ele>
        <time>2021-04-23T10:53:46.000Z</time>
      </trkpt>
      <trkpt lat="43.341132" lon="-6.866042">
        <ele>585.3</ele>
        <time>2021-04-23T10:53:49.000Z</time>
      </trkpt>
      <trkpt lat="43.341067" lon="-6.866197">
        <ele>588.8</ele>
        <time>2021-04-23T10:53:52.000Z</time>
      </trkpt>
      <trkpt lat="43.340992" lon="-6.866325">
        <ele>591.6</ele>
        <time>2021-04-23T10:53:55.000Z</time>
      </trkpt>
      <trkpt lat="43.340863" lon="-6.866498">
        <ele>599.8</ele>
        <time>2021-04-23T10:53:59.000Z</time>
      </trkpt>
      <trkpt lat="43.34076" lon="-6.866612">
        <ele>602.2</ele>
        <time>2021-04-23T10:54:02.000Z</time>
      </trkpt>
      <trkpt lat="43.340685" lon="-6.866685">
        <ele>603.9</ele>
        <time>2021-04-23T10:54:04.000Z</time>
      </trkpt>
      <trkpt lat="43.340607" lon="-6.866753">
        <ele>605.4</ele>
        <time>2021-04-23T10:54:06.000Z</time>
      </trkpt>
      <trkpt lat="43.340495" lon="-6.86685">
        <ele>607.8</ele>
        <time>2021-04-23T10:54:09.000Z</time>
      </trkpt>
      <trkpt lat="43.340378" lon="-6.866938">
        <ele>609.2</ele>
        <time>2021-04-23T10:54:12.000Z</time>
      </trkpt>
      <trkpt lat="43.340293" lon="-6.866988">
        <ele>609.3</ele>
        <time>2021-04-23T10:54:14.000Z</time>
      </trkpt>
      <trkpt lat="43.340208" lon="-6.867043">
        <ele>610</ele>
        <time>2021-04-23T10:54:16.000Z</time>
      </trkpt>
      <trkpt lat="43.340122" lon="-6.867097">
        <ele>611.3</ele>
        <time>2021-04-23T10:54:18.000Z</time>
      </trkpt>
      <trkpt lat="43.340033" lon="-6.867152">
        <ele>612.6</ele>
        <time>2021-04-23T10:54:20.000Z</time>
      </trkpt>
      <trkpt lat="43.33994" lon="-6.867208">
        <ele>612.4</ele>
        <time>2021-04-23T10:54:22.000Z</time>
      </trkpt>
      <trkpt lat="43.339847" lon="-6.86727">
        <ele>612.8</ele>
        <time>2021-04-23T10:54:24.000Z</time>
      </trkpt>
      <trkpt lat="43.339755" lon="-6.867332">
        <ele>613.5</ele>
        <time>2021-04-23T10:54:26.000Z</time>
      </trkpt>
      <trkpt lat="43.339667" lon="-6.867398">
        <ele>614.1</ele>
        <time>2021-04-23T10:54:28.000Z</time>
      </trkpt>
      <trkpt lat="43.339575" lon="-6.867462">
        <ele>614.8</ele>
        <time>2021-04-23T10:54:30.000Z</time>
      </trkpt>
      <trkpt lat="43.339493" lon="-6.867522">
        <ele>615.7</ele>
        <time>2021-04-23T10:54:32.000Z</time>
      </trkpt>
      <trkpt lat="43.339383" lon="-6.867605">
        <ele>617.3</ele>
        <time>2021-04-23T10:54:35.000Z</time>
      </trkpt>
      <trkpt lat="43.339292" lon="-6.86771">
        <ele>618.8</ele>
        <time>2021-04-23T10:54:38.000Z</time>
      </trkpt>
      <trkpt lat="43.339215" lon="-6.867785">
        <ele>619.5</ele>
        <time>2021-04-23T10:54:40.000Z</time>
      </trkpt>
      <trkpt lat="43.339142" lon="-6.867863">
        <ele>620.6</ele>
        <time>2021-04-23T10:54:42.000Z</time>
      </trkpt>
      <trkpt lat="43.339067" lon="-6.86795">
        <ele>621.8</ele>
        <time>2021-04-23T10:54:44.000Z</time>
      </trkpt>
      <trkpt lat="43.339002" lon="-6.868058">
        <ele>623.1</ele>
        <time>2021-04-23T10:54:46.000Z</time>
      </trkpt>
      <trkpt lat="43.338947" lon="-6.868175">
        <ele>625.6</ele>
        <time>2021-04-23T10:54:48.000Z</time>
      </trkpt>
      <trkpt lat="43.338897" lon="-6.868283">
        <ele>627.3</ele>
        <time>2021-04-23T10:54:50.000Z</time>
      </trkpt>
      <trkpt lat="43.338827" lon="-6.868427">
        <ele>630.6</ele>
        <time>2021-04-23T10:54:53.000Z</time>
      </trkpt>
      <trkpt lat="43.338755" lon="-6.86857">
        <ele>631.8</ele>
        <time>2021-04-23T10:54:56.000Z</time>
      </trkpt>
      <trkpt lat="43.338698" lon="-6.868723">
        <ele>631.9</ele>
        <time>2021-04-23T10:54:59.000Z</time>
      </trkpt>
      <trkpt lat="43.338665" lon="-6.86884">
        <ele>632.9</ele>
        <time>2021-04-23T10:55:01.000Z</time>
      </trkpt>
      <trkpt lat="43.33861" lon="-6.869043">
        <ele>634</ele>
        <time>2021-04-23T10:55:04.000Z</time>
      </trkpt>
      <trkpt lat="43.338578" lon="-6.869173">
        <ele>633.4</ele>
        <time>2021-04-23T10:55:06.000Z</time>
      </trkpt>
      <trkpt lat="43.338553" lon="-6.869295">
        <ele>633</ele>
        <time>2021-04-23T10:55:08.000Z</time>
      </trkpt>
      <trkpt lat="43.338525" lon="-6.869462">
        <ele>632.5</ele>
        <time>2021-04-23T10:55:11.000Z</time>
      </trkpt>
      <trkpt lat="43.338498" lon="-6.869602">
        <ele>633.4</ele>
        <time>2021-04-23T10:55:14.000Z</time>
      </trkpt>
      <trkpt lat="43.33846" lon="-6.869755">
        <ele>636.1</ele>
        <time>2021-04-23T10:55:18.000Z</time>
      </trkpt>
      <trkpt lat="43.338425" lon="-6.869972">
        <ele>638.8</ele>
        <time>2021-04-23T10:55:22.000Z</time>
      </trkpt>
      <trkpt lat="43.33841" lon="-6.870103">
        <ele>639.9</ele>
        <time>2021-04-23T10:55:25.000Z</time>
      </trkpt>
      <trkpt lat="43.338392" lon="-6.870267">
        <ele>646.3</ele>
        <time>2021-04-23T11:01:45.000Z</time>
      </trkpt>
      <trkpt lat="43.338398" lon="-6.870138">
        <ele>637.4</ele>
        <time>2021-04-23T11:01:52.000Z</time>
      </trkpt>
      <trkpt lat="43.33845" lon="-6.87024">
        <ele>635.2</ele>
        <time>2021-04-23T11:03:01.000Z</time>
      </trkpt>
      <trkpt lat="43.338465" lon="-6.870405">
        <ele>636.2</ele>
        <time>2021-04-23T11:03:04.000Z</time>
      </trkpt>
      <trkpt lat="43.338467" lon="-6.870565">
        <ele>636.7</ele>
        <time>2021-04-23T11:03:06.000Z</time>
      </trkpt>
      <trkpt lat="43.338448" lon="-6.870742">
        <ele>637.6</ele>
        <time>2021-04-23T11:03:08.000Z</time>
      </trkpt>
      <trkpt lat="43.338425" lon="-6.870922">
        <ele>638.4</ele>
        <time>2021-04-23T11:03:10.000Z</time>
      </trkpt>
      <trkpt lat="43.3384" lon="-6.871107">
        <ele>639.9</ele>
        <time>2021-04-23T11:03:12.000Z</time>
      </trkpt>
      <trkpt lat="43.338378" lon="-6.871283">
        <ele>641.4</ele>
        <time>2021-04-23T11:03:14.000Z</time>
      </trkpt>
      <trkpt lat="43.338353" lon="-6.871457">
        <ele>642.4</ele>
        <time>2021-04-23T11:03:16.000Z</time>
      </trkpt>
      <trkpt lat="43.338338" lon="-6.871618">
        <ele>643.3</ele>
        <time>2021-04-23T11:03:18.000Z</time>
      </trkpt>
      <trkpt lat="43.338338" lon="-6.871768">
        <ele>644.1</ele>
        <time>2021-04-23T11:03:20.000Z</time>
      </trkpt>
      <trkpt lat="43.338338" lon="-6.87193">
        <ele>645</ele>
        <time>2021-04-23T11:03:22.000Z</time>
      </trkpt>
      <trkpt lat="43.338332" lon="-6.872097">
        <ele>645.7</ele>
        <time>2021-04-23T11:03:24.000Z</time>
      </trkpt>
      <trkpt lat="43.338328" lon="-6.872263">
        <ele>646.6</ele>
        <time>2021-04-23T11:03:26.000Z</time>
      </trkpt>
      <trkpt lat="43.338328" lon="-6.872425">
        <ele>648.1</ele>
        <time>2021-04-23T11:03:28.000Z</time>
      </trkpt>
      <trkpt lat="43.338323" lon="-6.872588">
        <ele>648.8</ele>
        <time>2021-04-23T11:03:30.000Z</time>
      </trkpt>
      <trkpt lat="43.338302" lon="-6.87275">
        <ele>650.2</ele>
        <time>2021-04-23T11:03:32.000Z</time>
      </trkpt>
      <trkpt lat="43.338267" lon="-6.872888">
        <ele>651.8</ele>
        <time>2021-04-23T11:03:34.000Z</time>
      </trkpt>
      <trkpt lat="43.338268" lon="-6.873012">
        <ele>654.8</ele>
        <time>2021-04-23T11:03:37.000Z</time>
      </trkpt>
      <trkpt lat="43.338378" lon="-6.872927">
        <ele>658.7</ele>
        <time>2021-04-23T11:03:41.000Z</time>
      </trkpt>
      <trkpt lat="43.338435" lon="-6.872777">
        <ele>660.3</ele>
        <time>2021-04-23T11:03:43.000Z</time>
      </trkpt>
      <trkpt lat="43.338492" lon="-6.872602">
        <ele>661.4</ele>
        <time>2021-04-23T11:03:45.000Z</time>
      </trkpt>
      <trkpt lat="43.338543" lon="-6.872417">
        <ele>663</ele>
        <time>2021-04-23T11:03:47.000Z</time>
      </trkpt>
      <trkpt lat="43.338593" lon="-6.872232">
        <ele>664.6</ele>
        <time>2021-04-23T11:03:49.000Z</time>
      </trkpt>
      <trkpt lat="43.338643" lon="-6.87206">
        <ele>665.8</ele>
        <time>2021-04-23T11:03:51.000Z</time>
      </trkpt>
      <trkpt lat="43.338698" lon="-6.871895">
        <ele>667.9</ele>
        <time>2021-04-23T11:03:53.000Z</time>
      </trkpt>
      <trkpt lat="43.338768" lon="-6.871732">
        <ele>670.6</ele>
        <time>2021-04-23T11:03:55.000Z</time>
      </trkpt>
      <trkpt lat="43.338852" lon="-6.871568">
        <ele>672</ele>
        <time>2021-04-23T11:03:57.000Z</time>
      </trkpt>
      <trkpt lat="43.338942" lon="-6.871403">
        <ele>673.9</ele>
        <time>2021-04-23T11:03:59.000Z</time>
      </trkpt>
      <trkpt lat="43.339028" lon="-6.871225">
        <ele>676.6</ele>
        <time>2021-04-23T11:04:01.000Z</time>
      </trkpt>
      <trkpt lat="43.339122" lon="-6.871055">
        <ele>678.2</ele>
        <time>2021-04-23T11:04:03.000Z</time>
      </trkpt>
      <trkpt lat="43.339222" lon="-6.870902">
        <ele>680.1</ele>
        <time>2021-04-23T11:04:05.000Z</time>
      </trkpt>
      <trkpt lat="43.339315" lon="-6.870738">
        <ele>682.2</ele>
        <time>2021-04-23T11:04:07.000Z</time>
      </trkpt>
      <trkpt lat="43.339408" lon="-6.870582">
        <ele>684.1</ele>
        <time>2021-04-23T11:04:09.000Z</time>
      </trkpt>
      <trkpt lat="43.339502" lon="-6.870433">
        <ele>685.8</ele>
        <time>2021-04-23T11:04:11.000Z</time>
      </trkpt>
      <trkpt lat="43.339592" lon="-6.870287">
        <ele>686.3</ele>
        <time>2021-04-23T11:04:13.000Z</time>
      </trkpt>
      <trkpt lat="43.33969" lon="-6.870155">
        <ele>686.8</ele>
        <time>2021-04-23T11:04:15.000Z</time>
      </trkpt>
      <trkpt lat="43.339797" lon="-6.870037">
        <ele>687.8</ele>
        <time>2021-04-23T11:04:17.000Z</time>
      </trkpt>
      <trkpt lat="43.339908" lon="-6.869935">
        <ele>688</ele>
        <time>2021-04-23T11:04:19.000Z</time>
      </trkpt>
      <trkpt lat="43.340028" lon="-6.869842">
        <ele>687.9</ele>
        <time>2021-04-23T11:04:21.000Z</time>
      </trkpt>
      <trkpt lat="43.34016" lon="-6.869765">
        <ele>687.9</ele>
        <time>2021-04-23T11:04:23.000Z</time>
      </trkpt>
      <trkpt lat="43.340287" lon="-6.8697">
        <ele>688.4</ele>
        <time>2021-04-23T11:04:25.000Z</time>
      </trkpt>
      <trkpt lat="43.340418" lon="-6.869648">
        <ele>687</ele>
        <time>2021-04-23T11:04:27.000Z</time>
      </trkpt>
      <trkpt lat="43.340567" lon="-6.869598">
        <ele>686.3</ele>
        <time>2021-04-23T11:04:29.000Z</time>
      </trkpt>
      <trkpt lat="43.34072" lon="-6.869548">
        <ele>686.2</ele>
        <time>2021-04-23T11:04:31.000Z</time>
      </trkpt>
      <trkpt lat="43.340865" lon="-6.8695">
        <ele>686.3</ele>
        <time>2021-04-23T11:04:33.000Z</time>
      </trkpt>
      <trkpt lat="43.341008" lon="-6.869447">
        <ele>687.8</ele>
        <time>2021-04-23T11:04:35.000Z</time>
      </trkpt>
      <trkpt lat="43.341152" lon="-6.86941">
        <ele>689.7</ele>
        <time>2021-04-23T11:04:37.000Z</time>
      </trkpt>
      <trkpt lat="43.341292" lon="-6.86938">
        <ele>690.5</ele>
        <time>2021-04-23T11:04:39.000Z</time>
      </trkpt>
      <trkpt lat="43.34144" lon="-6.869367">
        <ele>691.9</ele>
        <time>2021-04-23T11:04:41.000Z</time>
      </trkpt>
      <trkpt lat="43.341593" lon="-6.869368">
        <ele>694.7</ele>
        <time>2021-04-23T11:04:43.000Z</time>
      </trkpt>
      <trkpt lat="43.341735" lon="-6.869375">
        <ele>697.8</ele>
        <time>2021-04-23T11:04:45.000Z</time>
      </trkpt>
      <trkpt lat="43.34188" lon="-6.869403">
        <ele>700.1</ele>
        <time>2021-04-23T11:04:47.000Z</time>
      </trkpt>
      <trkpt lat="43.342023" lon="-6.869453">
        <ele>701.8</ele>
        <time>2021-04-23T11:04:49.000Z</time>
      </trkpt>
      <trkpt lat="43.342153" lon="-6.86953">
        <ele>702.2</ele>
        <time>2021-04-23T11:04:51.000Z</time>
      </trkpt>
      <trkpt lat="43.342297" lon="-6.86958">
        <ele>703.5</ele>
        <time>2021-04-23T11:04:53.000Z</time>
      </trkpt>
      <trkpt lat="43.342442" lon="-6.86956">
        <ele>705.2</ele>
        <time>2021-04-23T11:04:55.000Z</time>
      </trkpt>
      <trkpt lat="43.342588" lon="-6.869433">
        <ele>712.3</ele>
        <time>2021-04-23T11:04:57.000Z</time>
      </trkpt>
      <trkpt lat="43.34272" lon="-6.869308">
        <ele>714.4</ele>
        <time>2021-04-23T11:04:59.000Z</time>
      </trkpt>
      <trkpt lat="43.34285" lon="-6.86918">
        <ele>716.1</ele>
        <time>2021-04-23T11:05:01.000Z</time>
      </trkpt>
      <trkpt lat="43.342978" lon="-6.86905">
        <ele>717.6</ele>
        <time>2021-04-23T11:05:03.000Z</time>
      </trkpt>
      <trkpt lat="43.34311" lon="-6.868925">
        <ele>719.3</ele>
        <time>2021-04-23T11:05:05.000Z</time>
      </trkpt>
      <trkpt lat="43.34324" lon="-6.868803">
        <ele>720.3</ele>
        <time>2021-04-23T11:05:07.000Z</time>
      </trkpt>
      <trkpt lat="43.343373" lon="-6.868687">
        <ele>721.7</ele>
        <time>2021-04-23T11:05:09.000Z</time>
      </trkpt>
      <trkpt lat="43.343505" lon="-6.868582">
        <ele>722.7</ele>
        <time>2021-04-23T11:05:11.000Z</time>
      </trkpt>
      <trkpt lat="43.343638" lon="-6.868487">
        <ele>723.7</ele>
        <time>2021-04-23T11:05:13.000Z</time>
      </trkpt>
      <trkpt lat="43.343777" lon="-6.868407">
        <ele>725.8</ele>
        <time>2021-04-23T11:05:15.000Z</time>
      </trkpt>
      <trkpt lat="43.343915" lon="-6.86836">
        <ele>726.7</ele>
        <time>2021-04-23T11:05:17.000Z</time>
      </trkpt>
      <trkpt lat="43.344055" lon="-6.868358">
        <ele>727.8</ele>
        <time>2021-04-23T11:05:19.000Z</time>
      </trkpt>
      <trkpt lat="43.344142" lon="-6.868473">
        <ele>728.1</ele>
        <time>2021-04-23T11:05:21.000Z</time>
      </trkpt>
      <trkpt lat="43.344142" lon="-6.868642">
        <ele>730.2</ele>
        <time>2021-04-23T11:05:23.000Z</time>
      </trkpt>
      <trkpt lat="43.344045" lon="-6.868818">
        <ele>730.9</ele>
        <time>2021-04-23T11:05:25.000Z</time>
      </trkpt>
      <trkpt lat="43.343932" lon="-6.868993">
        <ele>730.7</ele>
        <time>2021-04-23T11:05:27.000Z</time>
      </trkpt>
      <trkpt lat="43.34383" lon="-6.869165">
        <ele>730.9</ele>
        <time>2021-04-23T11:05:29.000Z</time>
      </trkpt>
      <trkpt lat="43.343733" lon="-6.869363">
        <ele>730.6</ele>
        <time>2021-04-23T11:05:31.000Z</time>
      </trkpt>
      <trkpt lat="43.343667" lon="-6.869592">
        <ele>729</ele>
        <time>2021-04-23T11:05:33.000Z</time>
      </trkpt>
      <trkpt lat="43.343643" lon="-6.869712">
        <ele>728.6</ele>
        <time>2021-04-23T11:05:34.000Z</time>
      </trkpt>
      <trkpt lat="43.34361" lon="-6.869948">
        <ele>726.5</ele>
        <time>2021-04-23T11:05:36.000Z</time>
      </trkpt>
      <trkpt lat="43.343593" lon="-6.87018">
        <ele>724.5</ele>
        <time>2021-04-23T11:05:38.000Z</time>
      </trkpt>
      <trkpt lat="43.343582" lon="-6.870348">
        <ele>723.6</ele>
        <time>2021-04-23T11:05:40.000Z</time>
      </trkpt>
      <trkpt lat="43.343575" lon="-6.870488">
        <ele>718.4</ele>
        <time>2021-04-23T11:05:44.000Z</time>
      </trkpt>
      <trkpt lat="43.343545" lon="-6.87062">
        <ele>712.7</ele>
        <time>2021-04-23T11:05:47.000Z</time>
      </trkpt>
      <trkpt lat="43.343532" lon="-6.870763">
        <ele>709.1</ele>
        <time>2021-04-23T11:05:49.000Z</time>
      </trkpt>
      <trkpt lat="43.343518" lon="-6.870933">
        <ele>706</ele>
        <time>2021-04-23T11:05:51.000Z</time>
      </trkpt>
      <trkpt lat="43.343515" lon="-6.871128">
        <ele>703.9</ele>
        <time>2021-04-23T11:05:53.000Z</time>
      </trkpt>
      <trkpt lat="43.343513" lon="-6.871342">
        <ele>702.8</ele>
        <time>2021-04-23T11:05:55.000Z</time>
      </trkpt>
      <trkpt lat="43.34352" lon="-6.871555">
        <ele>702.1</ele>
        <time>2021-04-23T11:05:57.000Z</time>
      </trkpt>
      <trkpt lat="43.343535" lon="-6.871762">
        <ele>701.5</ele>
        <time>2021-04-23T11:05:59.000Z</time>
      </trkpt>
      <trkpt lat="43.343557" lon="-6.871973">
        <ele>701.1</ele>
        <time>2021-04-23T11:06:01.000Z</time>
      </trkpt>
      <trkpt lat="43.343587" lon="-6.872193">
        <ele>701.1</ele>
        <time>2021-04-23T11:06:03.000Z</time>
      </trkpt>
      <trkpt lat="43.343637" lon="-6.872422">
        <ele>701.5</ele>
        <time>2021-04-23T11:06:05.000Z</time>
      </trkpt>
      <trkpt lat="43.343708" lon="-6.872633">
        <ele>702.9</ele>
        <time>2021-04-23T11:06:07.000Z</time>
      </trkpt>
      <trkpt lat="43.343817" lon="-6.872803">
        <ele>706.6</ele>
        <time>2021-04-23T11:06:09.000Z</time>
      </trkpt>
      <trkpt lat="43.343957" lon="-6.872895">
        <ele>710.3</ele>
        <time>2021-04-23T11:06:11.000Z</time>
      </trkpt>
      <trkpt lat="43.344113" lon="-6.872935">
        <ele>713</ele>
        <time>2021-04-23T11:06:13.000Z</time>
      </trkpt>
      <trkpt lat="43.344288" lon="-6.872957">
        <ele>716.4</ele>
        <time>2021-04-23T11:06:15.000Z</time>
      </trkpt>
      <trkpt lat="43.344382" lon="-6.87296">
        <ele>717.6</ele>
        <time>2021-04-23T11:06:16.000Z</time>
      </trkpt>
      <trkpt lat="43.344553" lon="-6.87298">
        <ele>719.7</ele>
        <time>2021-04-23T11:06:18.000Z</time>
      </trkpt>
      <trkpt lat="43.344707" lon="-6.873008">
        <ele>721.1</ele>
        <time>2021-04-23T11:06:20.000Z</time>
      </trkpt>
      <trkpt lat="43.34484" lon="-6.873065">
        <ele>723.5</ele>
        <time>2021-04-23T11:06:22.000Z</time>
      </trkpt>
      <trkpt lat="43.344975" lon="-6.873183">
        <ele>725.3</ele>
        <time>2021-04-23T11:06:24.000Z</time>
      </trkpt>
      <trkpt lat="43.3451" lon="-6.873313">
        <ele>726.2</ele>
        <time>2021-04-23T11:06:26.000Z</time>
      </trkpt>
      <trkpt lat="43.34522" lon="-6.873442">
        <ele>727.2</ele>
        <time>2021-04-23T11:06:28.000Z</time>
      </trkpt>
      <trkpt lat="43.345347" lon="-6.873578">
        <ele>728.2</ele>
        <time>2021-04-23T11:06:30.000Z</time>
      </trkpt>
      <trkpt lat="43.345487" lon="-6.873727">
        <ele>729.1</ele>
        <time>2021-04-23T11:06:32.000Z</time>
      </trkpt>
      <trkpt lat="43.345618" lon="-6.873873">
        <ele>731.3</ele>
        <time>2021-04-23T11:06:34.000Z</time>
      </trkpt>
      <trkpt lat="43.34575" lon="-6.874028">
        <ele>732.7</ele>
        <time>2021-04-23T11:06:36.000Z</time>
      </trkpt>
      <trkpt lat="43.345875" lon="-6.874177">
        <ele>733.5</ele>
        <time>2021-04-23T11:06:38.000Z</time>
      </trkpt>
      <trkpt lat="43.346003" lon="-6.87432">
        <ele>735</ele>
        <time>2021-04-23T11:06:40.000Z</time>
      </trkpt>
      <trkpt lat="43.346125" lon="-6.874468">
        <ele>736.5</ele>
        <time>2021-04-23T11:06:42.000Z</time>
      </trkpt>
      <trkpt lat="43.346237" lon="-6.874635">
        <ele>737.9</ele>
        <time>2021-04-23T11:06:44.000Z</time>
      </trkpt>
      <trkpt lat="43.346338" lon="-6.87481">
        <ele>738.9</ele>
        <time>2021-04-23T11:06:46.000Z</time>
      </trkpt>
      <trkpt lat="43.346443" lon="-6.874998">
        <ele>739.8</ele>
        <time>2021-04-23T11:06:48.000Z</time>
      </trkpt>
      <trkpt lat="43.34654" lon="-6.875183">
        <ele>740.6</ele>
        <time>2021-04-23T11:06:50.000Z</time>
      </trkpt>
      <trkpt lat="43.346623" lon="-6.875353">
        <ele>741.2</ele>
        <time>2021-04-23T11:06:52.000Z</time>
      </trkpt>
      <trkpt lat="43.346693" lon="-6.875498">
        <ele>742.1</ele>
        <time>2021-04-23T11:06:54.000Z</time>
      </trkpt>
      <trkpt lat="43.346753" lon="-6.87562">
        <ele>742.7</ele>
        <time>2021-04-23T11:06:56.000Z</time>
      </trkpt>
      <trkpt lat="43.346817" lon="-6.875728">
        <ele>743.9</ele>
        <time>2021-04-23T11:06:58.000Z</time>
      </trkpt>
      <trkpt lat="43.346885" lon="-6.875843">
        <ele>744.2</ele>
        <time>2021-04-23T11:07:00.000Z</time>
      </trkpt>
      <trkpt lat="43.346953" lon="-6.875967">
        <ele>744.6</ele>
        <time>2021-04-23T11:07:02.000Z</time>
      </trkpt>
      <trkpt lat="43.347028" lon="-6.876095">
        <ele>745</ele>
        <time>2021-04-23T11:07:04.000Z</time>
      </trkpt>
      <trkpt lat="43.347105" lon="-6.876213">
        <ele>745.6</ele>
        <time>2021-04-23T11:07:06.000Z</time>
      </trkpt>
      <trkpt lat="43.34719" lon="-6.87632">
        <ele>746.7</ele>
        <time>2021-04-23T11:07:08.000Z</time>
      </trkpt>
      <trkpt lat="43.347282" lon="-6.876432">
        <ele>747.1</ele>
        <time>2021-04-23T11:07:10.000Z</time>
      </trkpt>
      <trkpt lat="43.347375" lon="-6.876545">
        <ele>747.2</ele>
        <time>2021-04-23T11:07:12.000Z</time>
      </trkpt>
      <trkpt lat="43.347478" lon="-6.876627">
        <ele>747.1</ele>
        <time>2021-04-23T11:07:14.000Z</time>
      </trkpt>
      <trkpt lat="43.347582" lon="-6.876655">
        <ele>746.2</ele>
        <time>2021-04-23T11:07:16.000Z</time>
      </trkpt>
      <trkpt lat="43.347698" lon="-6.876658">
        <ele>745.4</ele>
        <time>2021-04-23T11:07:18.000Z</time>
      </trkpt>
      <trkpt lat="43.347818" lon="-6.876632">
        <ele>744.7</ele>
        <time>2021-04-23T11:07:20.000Z</time>
      </trkpt>
      <trkpt lat="43.34795" lon="-6.876622">
        <ele>744.5</ele>
        <time>2021-04-23T11:07:22.000Z</time>
      </trkpt>
      <trkpt lat="43.348095" lon="-6.876653">
        <ele>745.4</ele>
        <time>2021-04-23T11:07:24.000Z</time>
      </trkpt>
      <trkpt lat="43.34823" lon="-6.876768">
        <ele>745.8</ele>
        <time>2021-04-23T11:07:26.000Z</time>
      </trkpt>
      <trkpt lat="43.348345" lon="-6.876907">
        <ele>746.7</ele>
        <time>2021-04-23T11:07:28.000Z</time>
      </trkpt>
      <trkpt lat="43.348448" lon="-6.877065">
        <ele>748.3</ele>
        <time>2021-04-23T11:07:30.000Z</time>
      </trkpt>
      <trkpt lat="43.348528" lon="-6.877217">
        <ele>750.5</ele>
        <time>2021-04-23T11:07:32.000Z</time>
      </trkpt>
      <trkpt lat="43.348598" lon="-6.877368">
        <ele>752</ele>
        <time>2021-04-23T11:07:34.000Z</time>
      </trkpt>
      <trkpt lat="43.348665" lon="-6.877515">
        <ele>752.8</ele>
        <time>2021-04-23T11:07:36.000Z</time>
      </trkpt>
      <trkpt lat="43.34876" lon="-6.877645">
        <ele>754.3</ele>
        <time>2021-04-23T11:07:38.000Z</time>
      </trkpt>
      <trkpt lat="43.348885" lon="-6.877725">
        <ele>755.3</ele>
        <time>2021-04-23T11:07:40.000Z</time>
      </trkpt>
      <trkpt lat="43.34903" lon="-6.877752">
        <ele>755.8</ele>
        <time>2021-04-23T11:07:42.000Z</time>
      </trkpt>
      <trkpt lat="43.349173" lon="-6.877778">
        <ele>757.1</ele>
        <time>2021-04-23T11:07:44.000Z</time>
      </trkpt>
      <trkpt lat="43.349318" lon="-6.877832">
        <ele>759.1</ele>
        <time>2021-04-23T11:07:46.000Z</time>
      </trkpt>
      <trkpt lat="43.349463" lon="-6.877915">
        <ele>761</ele>
        <time>2021-04-23T11:07:48.000Z</time>
      </trkpt>
      <trkpt lat="43.349605" lon="-6.878007">
        <ele>762.2</ele>
        <time>2021-04-23T11:07:50.000Z</time>
      </trkpt>
      <trkpt lat="43.349738" lon="-6.8781">
        <ele>763.8</ele>
        <time>2021-04-23T11:07:52.000Z</time>
      </trkpt>
      <trkpt lat="43.349877" lon="-6.878178">
        <ele>765.1</ele>
        <time>2021-04-23T11:07:54.000Z</time>
      </trkpt>
      <trkpt lat="43.350032" lon="-6.878205">
        <ele>765.9</ele>
        <time>2021-04-23T11:07:56.000Z</time>
      </trkpt>
      <trkpt lat="43.35019" lon="-6.878205">
        <ele>766.8</ele>
        <time>2021-04-23T11:07:58.000Z</time>
      </trkpt>
      <trkpt lat="43.350327" lon="-6.878212">
        <ele>767.2</ele>
        <time>2021-04-23T11:08:00.000Z</time>
      </trkpt>
      <trkpt lat="43.350445" lon="-6.878242">
        <ele>767.1</ele>
        <time>2021-04-23T11:08:02.000Z</time>
      </trkpt>
      <trkpt lat="43.350543" lon="-6.878272">
        <ele>767.7</ele>
        <time>2021-04-23T11:08:04.000Z</time>
      </trkpt>
      <trkpt lat="43.350522" lon="-6.878142">
        <ele>771.3</ele>
        <time>2021-04-23T11:08:20.000Z</time>
      </trkpt>
      <trkpt lat="43.350627" lon="-6.87824">
        <ele>772.6</ele>
        <time>2021-04-23T11:42:07.000Z</time>
      </trkpt>
      <trkpt lat="43.350552" lon="-6.878103">
        <ele>770.5</ele>
        <time>2021-04-23T11:44:03.000Z</time>
      </trkpt>
      <trkpt lat="43.350458" lon="-6.878078">
        <ele>775.2</ele>
        <time>2021-04-23T12:04:41.000Z</time>
      </trkpt>
      <trkpt lat="43.35053" lon="-6.87817">
        <ele>769.1</ele>
        <time>2021-04-23T12:09:57.000Z</time>
      </trkpt>
      <trkpt lat="43.350458" lon="-6.878093">
        <ele>769.4</ele>
        <time>2021-04-23T12:13:12.000Z</time>
      </trkpt>
      <trkpt lat="43.350412" lon="-6.877983">
        <ele>769.9</ele>
        <time>2021-04-23T12:18:56.000Z</time>
      </trkpt>
      <trkpt lat="43.350485" lon="-6.878065">
        <ele>769.2</ele>
        <time>2021-04-23T12:21:47.000Z</time>
      </trkpt>
      <trkpt lat="43.35038" lon="-6.878133">
        <ele>768.7</ele>
        <time>2021-04-23T12:53:42.000Z</time>
      </trkpt>
      <trkpt lat="43.350237" lon="-6.878157">
        <ele>769.2</ele>
        <time>2021-04-23T12:53:45.000Z</time>
      </trkpt>
      <trkpt lat="43.350102" lon="-6.878175">
        <ele>768.5</ele>
        <time>2021-04-23T12:53:47.000Z</time>
      </trkpt>
      <trkpt lat="43.349945" lon="-6.878185">
        <ele>768.3</ele>
        <time>2021-04-23T12:53:49.000Z</time>
      </trkpt>
      <trkpt lat="43.349792" lon="-6.87815">
        <ele>767.6</ele>
        <time>2021-04-23T12:53:51.000Z</time>
      </trkpt>
      <trkpt lat="43.349637" lon="-6.878043">
        <ele>766.1</ele>
        <time>2021-04-23T12:53:53.000Z</time>
      </trkpt>
      <trkpt lat="43.34948" lon="-6.87793">
        <ele>764.2</ele>
        <time>2021-04-23T12:53:55.000Z</time>
      </trkpt>
      <trkpt lat="43.349328" lon="-6.877835">
        <ele>762.4</ele>
        <time>2021-04-23T12:53:57.000Z</time>
      </trkpt>
      <trkpt lat="43.34919" lon="-6.877757">
        <ele>760.3</ele>
        <time>2021-04-23T12:53:59.000Z</time>
      </trkpt>
      <trkpt lat="43.349028" lon="-6.87772">
        <ele>757.4</ele>
        <time>2021-04-23T12:54:01.000Z</time>
      </trkpt>
      <trkpt lat="43.348867" lon="-6.877693">
        <ele>754.9</ele>
        <time>2021-04-23T12:54:03.000Z</time>
      </trkpt>
      <trkpt lat="43.348735" lon="-6.877623">
        <ele>752</ele>
        <time>2021-04-23T12:54:05.000Z</time>
      </trkpt>
      <trkpt lat="43.348643" lon="-6.877483">
        <ele>749.6</ele>
        <time>2021-04-23T12:54:07.000Z</time>
      </trkpt>
      <trkpt lat="43.348577" lon="-6.87731">
        <ele>747.4</ele>
        <time>2021-04-23T12:54:09.000Z</time>
      </trkpt>
      <trkpt lat="43.348503" lon="-6.877123">
        <ele>746.4</ele>
        <time>2021-04-23T12:54:11.000Z</time>
      </trkpt>
      <trkpt lat="43.34841" lon="-6.876955">
        <ele>745.9</ele>
        <time>2021-04-23T12:54:13.000Z</time>
      </trkpt>
      <trkpt lat="43.348298" lon="-6.876793">
        <ele>746.5</ele>
        <time>2021-04-23T12:54:15.000Z</time>
      </trkpt>
      <trkpt lat="43.348175" lon="-6.876653">
        <ele>745.3</ele>
        <time>2021-04-23T12:54:17.000Z</time>
      </trkpt>
      <trkpt lat="43.348028" lon="-6.876562">
        <ele>744</ele>
        <time>2021-04-23T12:54:19.000Z</time>
      </trkpt>
      <trkpt lat="43.347867" lon="-6.876527">
        <ele>741.4</ele>
        <time>2021-04-23T12:54:21.000Z</time>
      </trkpt>
      <trkpt lat="43.347697" lon="-6.876538">
        <ele>739.8</ele>
        <time>2021-04-23T12:54:23.000Z</time>
      </trkpt>
      <trkpt lat="43.347525" lon="-6.87654">
        <ele>738</ele>
        <time>2021-04-23T12:54:25.000Z</time>
      </trkpt>
      <trkpt lat="43.34735" lon="-6.87649">
        <ele>736.2</ele>
        <time>2021-04-23T12:54:27.000Z</time>
      </trkpt>
      <trkpt lat="43.347257" lon="-6.876433">
        <ele>735.8</ele>
        <time>2021-04-23T12:54:28.000Z</time>
      </trkpt>
      <trkpt lat="43.34719" lon="-6.876343">
        <ele>735.4</ele>
        <time>2021-04-23T12:54:29.000Z</time>
      </trkpt>
      <trkpt lat="43.347122" lon="-6.876252">
        <ele>734.7</ele>
        <time>2021-04-23T12:54:30.000Z</time>
      </trkpt>
      <trkpt lat="43.347052" lon="-6.876153">
        <ele>734.7</ele>
        <time>2021-04-23T12:54:31.000Z</time>
      </trkpt>
      <trkpt lat="43.346987" lon="-6.876055">
        <ele>734.7</ele>
        <time>2021-04-23T12:54:32.000Z</time>
      </trkpt>
      <trkpt lat="43.346928" lon="-6.875957">
        <ele>734.6</ele>
        <time>2021-04-23T12:54:33.000Z</time>
      </trkpt>
      <trkpt lat="43.346822" lon="-6.875758">
        <ele>734.4</ele>
        <time>2021-04-23T12:54:35.000Z</time>
      </trkpt>
      <trkpt lat="43.346768" lon="-6.875657">
        <ele>734.6</ele>
        <time>2021-04-23T12:54:36.000Z</time>
      </trkpt>
      <trkpt lat="43.346715" lon="-6.875552">
        <ele>734.6</ele>
        <time>2021-04-23T12:54:37.000Z</time>
      </trkpt>
      <trkpt lat="43.346662" lon="-6.875452">
        <ele>734.8</ele>
        <time>2021-04-23T12:54:38.000Z</time>
      </trkpt>
      <trkpt lat="43.34656" lon="-6.875255">
        <ele>734.9</ele>
        <time>2021-04-23T12:54:40.000Z</time>
      </trkpt>
      <trkpt lat="43.346507" lon="-6.875153">
        <ele>734.7</ele>
        <time>2021-04-23T12:54:41.000Z</time>
      </trkpt>
      <trkpt lat="43.346403" lon="-6.874957">
        <ele>734.4</ele>
        <time>2021-04-23T12:54:43.000Z</time>
      </trkpt>
      <trkpt lat="43.346302" lon="-6.874758">
        <ele>734</ele>
        <time>2021-04-23T12:54:45.000Z</time>
      </trkpt>
      <trkpt lat="43.346192" lon="-6.87457">
        <ele>733.9</ele>
        <time>2021-04-23T12:54:47.000Z</time>
      </trkpt>
      <trkpt lat="43.34608" lon="-6.8744">
        <ele>732.5</ele>
        <time>2021-04-23T12:54:49.000Z</time>
      </trkpt>
      <trkpt lat="43.346013" lon="-6.874315">
        <ele>732.3</ele>
        <time>2021-04-23T12:54:50.000Z</time>
      </trkpt>
      <trkpt lat="43.345942" lon="-6.874233">
        <ele>731.9</ele>
        <time>2021-04-23T12:54:51.000Z</time>
      </trkpt>
      <trkpt lat="43.345868" lon="-6.874152">
        <ele>731.6</ele>
        <time>2021-04-23T12:54:52.000Z</time>
      </trkpt>
      <trkpt lat="43.345793" lon="-6.87407">
        <ele>730.9</ele>
        <time>2021-04-23T12:54:53.000Z</time>
      </trkpt>
      <trkpt lat="43.345717" lon="-6.873983">
        <ele>730.6</ele>
        <time>2021-04-23T12:54:54.000Z</time>
      </trkpt>
      <trkpt lat="43.34564" lon="-6.873897">
        <ele>730</ele>
        <time>2021-04-23T12:54:55.000Z</time>
      </trkpt>
      <trkpt lat="43.345562" lon="-6.873807">
        <ele>729.4</ele>
        <time>2021-04-23T12:54:56.000Z</time>
      </trkpt>
      <trkpt lat="43.345482" lon="-6.873715">
        <ele>728.4</ele>
        <time>2021-04-23T12:54:57.000Z</time>
      </trkpt>
      <trkpt lat="43.345407" lon="-6.873635">
        <ele>726.8</ele>
        <time>2021-04-23T12:54:58.000Z</time>
      </trkpt>
      <trkpt lat="43.34533" lon="-6.873557">
        <ele>725.3</ele>
        <time>2021-04-23T12:54:59.000Z</time>
      </trkpt>
      <trkpt lat="43.345252" lon="-6.873483">
        <ele>723.3</ele>
        <time>2021-04-23T12:55:00.000Z</time>
      </trkpt>
      <trkpt lat="43.345172" lon="-6.873403">
        <ele>721.4</ele>
        <time>2021-04-23T12:55:01.000Z</time>
      </trkpt>
      <trkpt lat="43.34509" lon="-6.873327">
        <ele>719.5</ele>
        <time>2021-04-23T12:55:02.000Z</time>
      </trkpt>
      <trkpt lat="43.345012" lon="-6.873252">
        <ele>718.2</ele>
        <time>2021-04-23T12:55:03.000Z</time>
      </trkpt>
      <trkpt lat="43.344873" lon="-6.87311">
        <ele>717.4</ele>
        <time>2021-04-23T12:55:05.000Z</time>
      </trkpt>
      <trkpt lat="43.344752" lon="-6.872998">
        <ele>717</ele>
        <time>2021-04-23T12:55:07.000Z</time>
      </trkpt>
      <trkpt lat="43.344613" lon="-6.87294">
        <ele>717.8</ele>
        <time>2021-04-23T12:55:09.000Z</time>
      </trkpt>
      <trkpt lat="43.344453" lon="-6.872938">
        <ele>717</ele>
        <time>2021-04-23T12:55:11.000Z</time>
      </trkpt>
      <trkpt lat="43.344283" lon="-6.872943">
        <ele>716.8</ele>
        <time>2021-04-23T12:55:13.000Z</time>
      </trkpt>
      <trkpt lat="43.344108" lon="-6.872942">
        <ele>716.8</ele>
        <time>2021-04-23T12:55:15.000Z</time>
      </trkpt>
      <trkpt lat="43.343953" lon="-6.872928">
        <ele>715.5</ele>
        <time>2021-04-23T12:55:17.000Z</time>
      </trkpt>
      <trkpt lat="43.34382" lon="-6.87287">
        <ele>715</ele>
        <time>2021-04-23T12:55:19.000Z</time>
      </trkpt>
      <trkpt lat="43.343707" lon="-6.872758">
        <ele>714.1</ele>
        <time>2021-04-23T12:55:21.000Z</time>
      </trkpt>
      <trkpt lat="43.343612" lon="-6.872592">
        <ele>713.1</ele>
        <time>2021-04-23T12:55:23.000Z</time>
      </trkpt>
      <trkpt lat="43.343552" lon="-6.87239">
        <ele>711.8</ele>
        <time>2021-04-23T12:55:25.000Z</time>
      </trkpt>
      <trkpt lat="43.343512" lon="-6.872168">
        <ele>712.3</ele>
        <time>2021-04-23T12:55:27.000Z</time>
      </trkpt>
      <trkpt lat="43.343495" lon="-6.871953">
        <ele>712</ele>
        <time>2021-04-23T12:55:29.000Z</time>
      </trkpt>
      <trkpt lat="43.343487" lon="-6.871733">
        <ele>712.7</ele>
        <time>2021-04-23T12:55:31.000Z</time>
      </trkpt>
      <trkpt lat="43.343478" lon="-6.871518">
        <ele>714.6</ele>
        <time>2021-04-23T12:55:33.000Z</time>
      </trkpt>
      <trkpt lat="43.34347" lon="-6.871305">
        <ele>716.8</ele>
        <time>2021-04-23T12:55:35.000Z</time>
      </trkpt>
      <trkpt lat="43.343472" lon="-6.871093">
        <ele>717.1</ele>
        <time>2021-04-23T12:55:37.000Z</time>
      </trkpt>
      <trkpt lat="43.343477" lon="-6.870885">
        <ele>717.8</ele>
        <time>2021-04-23T12:55:39.000Z</time>
      </trkpt>
      <trkpt lat="43.343482" lon="-6.870688">
        <ele>718.1</ele>
        <time>2021-04-23T12:55:41.000Z</time>
      </trkpt>
      <trkpt lat="43.343503" lon="-6.870497">
        <ele>718.1</ele>
        <time>2021-04-23T12:55:43.000Z</time>
      </trkpt>
      <trkpt lat="43.343532" lon="-6.870305">
        <ele>718.2</ele>
        <time>2021-04-23T12:55:45.000Z</time>
      </trkpt>
      <trkpt lat="43.34356" lon="-6.870125">
        <ele>718.4</ele>
        <time>2021-04-23T12:55:47.000Z</time>
      </trkpt>
      <trkpt lat="43.343582" lon="-6.869932">
        <ele>719.7</ele>
        <time>2021-04-23T12:55:49.000Z</time>
      </trkpt>
      <trkpt lat="43.343627" lon="-6.869755">
        <ele>720.6</ele>
        <time>2021-04-23T12:55:51.000Z</time>
      </trkpt>
      <trkpt lat="43.343692" lon="-6.86956">
        <ele>721</ele>
        <time>2021-04-23T12:55:53.000Z</time>
      </trkpt>
      <trkpt lat="43.343772" lon="-6.869365">
        <ele>723.4</ele>
        <time>2021-04-23T12:55:55.000Z</time>
      </trkpt>
      <trkpt lat="43.343867" lon="-6.869192">
        <ele>725.7</ele>
        <time>2021-04-23T12:55:57.000Z</time>
      </trkpt>
      <trkpt lat="43.34395" lon="-6.869028">
        <ele>727.8</ele>
        <time>2021-04-23T12:55:59.000Z</time>
      </trkpt>
      <trkpt lat="43.344018" lon="-6.868872">
        <ele>728.4</ele>
        <time>2021-04-23T12:56:01.000Z</time>
      </trkpt>
      <trkpt lat="43.34408" lon="-6.868737">
        <ele>730.2</ele>
        <time>2021-04-23T12:56:03.000Z</time>
      </trkpt>
      <trkpt lat="43.344172" lon="-6.868615">
        <ele>728.9</ele>
        <time>2021-04-23T12:56:06.000Z</time>
      </trkpt>
      <trkpt lat="43.34421" lon="-6.868498">
        <ele>729.2</ele>
        <time>2021-04-23T12:56:09.000Z</time>
      </trkpt>
      <trkpt lat="43.34414" lon="-6.868405">
        <ele>725.9</ele>
        <time>2021-04-23T12:56:13.000Z</time>
      </trkpt>
      <trkpt lat="43.344043" lon="-6.868368">
        <ele>728.1</ele>
        <time>2021-04-23T13:08:25.000Z</time>
      </trkpt>
      <trkpt lat="43.343942" lon="-6.86837">
        <ele>727.9</ele>
        <time>2021-04-23T13:08:27.000Z</time>
      </trkpt>
      <trkpt lat="43.343802" lon="-6.868413">
        <ele>727.5</ele>
        <time>2021-04-23T13:08:29.000Z</time>
      </trkpt>
      <trkpt lat="43.343653" lon="-6.868482">
        <ele>726.6</ele>
        <time>2021-04-23T13:08:31.000Z</time>
      </trkpt>
      <trkpt lat="43.343505" lon="-6.868582">
        <ele>725.2</ele>
        <time>2021-04-23T13:08:33.000Z</time>
      </trkpt>
      <trkpt lat="43.343425" lon="-6.868643">
        <ele>724.3</ele>
        <time>2021-04-23T13:08:34.000Z</time>
      </trkpt>
      <trkpt lat="43.343345" lon="-6.868708">
        <ele>723.5</ele>
        <time>2021-04-23T13:08:35.000Z</time>
      </trkpt>
      <trkpt lat="43.343262" lon="-6.868782">
        <ele>722.6</ele>
        <time>2021-04-23T13:08:36.000Z</time>
      </trkpt>
      <trkpt lat="43.34318" lon="-6.868855">
        <ele>721.5</ele>
        <time>2021-04-23T13:08:37.000Z</time>
      </trkpt>
      <trkpt lat="43.343097" lon="-6.868933">
        <ele>720.7</ele>
        <time>2021-04-23T13:08:38.000Z</time>
      </trkpt>
      <trkpt lat="43.34301" lon="-6.869018">
        <ele>719.8</ele>
        <time>2021-04-23T13:08:39.000Z</time>
      </trkpt>
      <trkpt lat="43.342923" lon="-6.869102">
        <ele>718.8</ele>
        <time>2021-04-23T13:08:40.000Z</time>
      </trkpt>
      <trkpt lat="43.34284" lon="-6.869188">
        <ele>717.9</ele>
        <time>2021-04-23T13:08:41.000Z</time>
      </trkpt>
      <trkpt lat="43.342762" lon="-6.869273">
        <ele>717</ele>
        <time>2021-04-23T13:08:42.000Z</time>
      </trkpt>
      <trkpt lat="43.34269" lon="-6.869348">
        <ele>716.3</ele>
        <time>2021-04-23T13:08:43.000Z</time>
      </trkpt>
      <trkpt lat="43.342562" lon="-6.86948">
        <ele>714.8</ele>
        <time>2021-04-23T13:08:45.000Z</time>
      </trkpt>
      <trkpt lat="43.342432" lon="-6.869585">
        <ele>711.8</ele>
        <time>2021-04-23T13:08:47.000Z</time>
      </trkpt>
      <trkpt lat="43.342297" lon="-6.869643">
        <ele>709.5</ele>
        <time>2021-04-23T13:08:49.000Z</time>
      </trkpt>
      <trkpt lat="43.342167" lon="-6.869607">
        <ele>706.9</ele>
        <time>2021-04-23T13:08:51.000Z</time>
      </trkpt>
      <trkpt lat="43.342025" lon="-6.869537">
        <ele>704.8</ele>
        <time>2021-04-23T13:08:53.000Z</time>
      </trkpt>
      <trkpt lat="43.341865" lon="-6.869467">
        <ele>703.1</ele>
        <time>2021-04-23T13:08:55.000Z</time>
      </trkpt>
      <trkpt lat="43.341702" lon="-6.869428">
        <ele>701.4</ele>
        <time>2021-04-23T13:08:57.000Z</time>
      </trkpt>
      <trkpt lat="43.341545" lon="-6.869415">
        <ele>700.2</ele>
        <time>2021-04-23T13:08:59.000Z</time>
      </trkpt>
      <trkpt lat="43.341385" lon="-6.86942">
        <ele>699.8</ele>
        <time>2021-04-23T13:09:01.000Z</time>
      </trkpt>
      <trkpt lat="43.341227" lon="-6.86944">
        <ele>697.5</ele>
        <time>2021-04-23T13:09:03.000Z</time>
      </trkpt>
      <trkpt lat="43.341098" lon="-6.869462">
        <ele>695.9</ele>
        <time>2021-04-23T13:09:05.000Z</time>
      </trkpt>
      <trkpt lat="43.341007" lon="-6.869507">
        <ele>694.1</ele>
        <time>2021-04-23T13:09:07.000Z</time>
      </trkpt>
      <trkpt lat="43.340928" lon="-6.869582">
        <ele>693.6</ele>
        <time>2021-04-23T13:09:09.000Z</time>
      </trkpt>
      <trkpt lat="43.340857" lon="-6.869662">
        <ele>693.9</ele>
        <time>2021-04-23T13:09:12.000Z</time>
      </trkpt>
      <trkpt lat="43.340777" lon="-6.869748">
        <ele>695.2</ele>
        <time>2021-04-23T13:09:18.000Z</time>
      </trkpt>
      <trkpt lat="43.340705" lon="-6.869853">
        <ele>698.4</ele>
        <time>2021-04-23T13:09:22.000Z</time>
      </trkpt>
      <trkpt lat="43.340637" lon="-6.869938">
        <ele>700.2</ele>
        <time>2021-04-23T13:09:26.000Z</time>
      </trkpt>
      <trkpt lat="43.340583" lon="-6.87004">
        <ele>702.2</ele>
        <time>2021-04-23T13:09:30.000Z</time>
      </trkpt>
      <trkpt lat="43.340538" lon="-6.870158">
        <ele>703.6</ele>
        <time>2021-04-23T13:09:40.000Z</time>
      </trkpt>
      <trkpt lat="43.340485" lon="-6.870297">
        <ele>705.3</ele>
        <time>2021-04-23T13:09:44.000Z</time>
      </trkpt>
      <trkpt lat="43.340443" lon="-6.870438">
        <ele>707.6</ele>
        <time>2021-04-23T13:09:48.000Z</time>
      </trkpt>
      <trkpt lat="43.340412" lon="-6.870557">
        <ele>710</ele>
        <time>2021-04-23T13:09:51.000Z</time>
      </trkpt>
      <trkpt lat="43.340387" lon="-6.870697">
        <ele>712.4</ele>
        <time>2021-04-23T13:09:54.000Z</time>
      </trkpt>
      <trkpt lat="43.340352" lon="-6.870823">
        <ele>713</ele>
        <time>2021-04-23T13:09:57.000Z</time>
      </trkpt>
      <trkpt lat="43.340315" lon="-6.870945">
        <ele>714.5</ele>
        <time>2021-04-23T13:10:01.000Z</time>
      </trkpt>
      <trkpt lat="43.340267" lon="-6.871087">
        <ele>717.1</ele>
        <time>2021-04-23T13:10:06.000Z</time>
      </trkpt>
      <trkpt lat="43.34023" lon="-6.871202">
        <ele>716.5</ele>
        <time>2021-04-23T13:10:09.000Z</time>
      </trkpt>
      <trkpt lat="43.340198" lon="-6.871357">
        <ele>717.7</ele>
        <time>2021-04-23T13:10:13.000Z</time>
      </trkpt>
      <trkpt lat="43.340175" lon="-6.87148">
        <ele>719.5</ele>
        <time>2021-04-23T13:10:16.000Z</time>
      </trkpt>
      <trkpt lat="43.340155" lon="-6.871613">
        <ele>721</ele>
        <time>2021-04-23T13:10:19.000Z</time>
      </trkpt>
      <trkpt lat="43.340138" lon="-6.87176">
        <ele>722</ele>
        <time>2021-04-23T13:10:22.000Z</time>
      </trkpt>
      <trkpt lat="43.340123" lon="-6.871905">
        <ele>722.3</ele>
        <time>2021-04-23T13:10:25.000Z</time>
      </trkpt>
      <trkpt lat="43.340108" lon="-6.872037">
        <ele>722.6</ele>
        <time>2021-04-23T13:10:28.000Z</time>
      </trkpt>
      <trkpt lat="43.340103" lon="-6.872175">
        <ele>722.8</ele>
        <time>2021-04-23T13:10:31.000Z</time>
      </trkpt>
      <trkpt lat="43.340093" lon="-6.872305">
        <ele>722.5</ele>
        <time>2021-04-23T13:10:34.000Z</time>
      </trkpt>
      <trkpt lat="43.340085" lon="-6.872465">
        <ele>723.4</ele>
        <time>2021-04-23T13:10:38.000Z</time>
      </trkpt>
      <trkpt lat="43.340077" lon="-6.872597">
        <ele>725</ele>
        <time>2021-04-23T13:10:41.000Z</time>
      </trkpt>
      <trkpt lat="43.340072" lon="-6.872738">
        <ele>725.2</ele>
        <time>2021-04-23T13:10:44.000Z</time>
      </trkpt>
      <trkpt lat="43.340075" lon="-6.87287">
        <ele>725.3</ele>
        <time>2021-04-23T13:10:47.000Z</time>
      </trkpt>
      <trkpt lat="43.340095" lon="-6.873008">
        <ele>726.9</ele>
        <time>2021-04-23T13:10:50.000Z</time>
      </trkpt>
      <trkpt lat="43.340115" lon="-6.87316">
        <ele>728</ele>
        <time>2021-04-23T13:10:53.000Z</time>
      </trkpt>
      <trkpt lat="43.340155" lon="-6.8733">
        <ele>730.9</ele>
        <time>2021-04-23T13:10:57.000Z</time>
      </trkpt>
      <trkpt lat="43.340215" lon="-6.873435">
        <ele>734.5</ele>
        <time>2021-04-23T13:11:03.000Z</time>
      </trkpt>
      <trkpt lat="43.340268" lon="-6.873538">
        <ele>736.3</ele>
        <time>2021-04-23T13:11:06.000Z</time>
      </trkpt>
      <trkpt lat="43.340343" lon="-6.873642">
        <ele>738.1</ele>
        <time>2021-04-23T13:11:09.000Z</time>
      </trkpt>
      <trkpt lat="43.340438" lon="-6.873738">
        <ele>739.5</ele>
        <time>2021-04-23T13:11:12.000Z</time>
      </trkpt>
      <trkpt lat="43.340537" lon="-6.873813">
        <ele>739.5</ele>
        <time>2021-04-23T13:11:15.000Z</time>
      </trkpt>
      <trkpt lat="43.340642" lon="-6.873892">
        <ele>739.3</ele>
        <time>2021-04-23T13:11:19.000Z</time>
      </trkpt>
      <trkpt lat="43.340737" lon="-6.87396">
        <ele>739</ele>
        <time>2021-04-23T13:11:31.000Z</time>
      </trkpt>
      <trkpt lat="43.340783" lon="-6.874068">
        <ele>739.5</ele>
        <time>2021-04-23T13:11:34.000Z</time>
      </trkpt>
      <trkpt lat="43.340818" lon="-6.87423">
        <ele>740.2</ele>
        <time>2021-04-23T13:11:37.000Z</time>
      </trkpt>
      <trkpt lat="43.340848" lon="-6.874382">
        <ele>741.7</ele>
        <time>2021-04-23T13:11:40.000Z</time>
      </trkpt>
      <trkpt lat="43.340867" lon="-6.874543">
        <ele>743.6</ele>
        <time>2021-04-23T13:11:44.000Z</time>
      </trkpt>
      <trkpt lat="43.340883" lon="-6.874702">
        <ele>743.9</ele>
        <time>2021-04-23T13:11:48.000Z</time>
      </trkpt>
      <trkpt lat="43.340885" lon="-6.87484">
        <ele>743.5</ele>
        <time>2021-04-23T13:11:51.000Z</time>
      </trkpt>
      <trkpt lat="43.340867" lon="-6.874978">
        <ele>743.4</ele>
        <time>2021-04-23T13:11:55.000Z</time>
      </trkpt>
      <trkpt lat="43.340825" lon="-6.875095">
        <ele>742.4</ele>
        <time>2021-04-23T13:12:00.000Z</time>
      </trkpt>
      <trkpt lat="43.340808" lon="-6.875242">
        <ele>741.7</ele>
        <time>2021-04-23T13:12:04.000Z</time>
      </trkpt>
      <trkpt lat="43.340785" lon="-6.875378">
        <ele>743.4</ele>
        <time>2021-04-23T13:12:07.000Z</time>
      </trkpt>
      <trkpt lat="43.340765" lon="-6.875508">
        <ele>743.9</ele>
        <time>2021-04-23T13:12:10.000Z</time>
      </trkpt>
      <trkpt lat="43.340752" lon="-6.875637">
        <ele>744.5</ele>
        <time>2021-04-23T13:12:13.000Z</time>
      </trkpt>
      <trkpt lat="43.34073" lon="-6.87579">
        <ele>744.9</ele>
        <time>2021-04-23T13:12:17.000Z</time>
      </trkpt>
      <trkpt lat="43.340722" lon="-6.875923">
        <ele>745.8</ele>
        <time>2021-04-23T13:12:20.000Z</time>
      </trkpt>
      <trkpt lat="43.340695" lon="-6.876075">
        <ele>746.6</ele>
        <time>2021-04-23T13:12:23.000Z</time>
      </trkpt>
      <trkpt lat="43.340663" lon="-6.876233">
        <ele>747.4</ele>
        <time>2021-04-23T13:12:26.000Z</time>
      </trkpt>
      <trkpt lat="43.34064" lon="-6.87639">
        <ele>749.3</ele>
        <time>2021-04-23T13:12:29.000Z</time>
      </trkpt>
      <trkpt lat="43.340617" lon="-6.876525">
        <ele>749.6</ele>
        <time>2021-04-23T13:12:32.000Z</time>
      </trkpt>
      <trkpt lat="43.340602" lon="-6.876672">
        <ele>750.1</ele>
        <time>2021-04-23T13:12:35.000Z</time>
      </trkpt>
      <trkpt lat="43.340565" lon="-6.876787">
        <ele>749.9</ele>
        <time>2021-04-23T13:12:38.000Z</time>
      </trkpt>
      <trkpt lat="43.340605" lon="-6.876943">
        <ele>749.6</ele>
        <time>2021-04-23T13:12:54.000Z</time>
      </trkpt>
      <trkpt lat="43.340608" lon="-6.877067">
        <ele>748.6</ele>
        <time>2021-04-23T13:12:58.000Z</time>
      </trkpt>
      <trkpt lat="43.3406" lon="-6.877212">
        <ele>748.7</ele>
        <time>2021-04-23T13:13:03.000Z</time>
      </trkpt>
      <trkpt lat="43.340603" lon="-6.87734">
        <ele>749</ele>
        <time>2021-04-23T13:13:09.000Z</time>
      </trkpt>
      <trkpt lat="43.340623" lon="-6.877467">
        <ele>749</ele>
        <time>2021-04-23T13:13:15.000Z</time>
      </trkpt>
      <trkpt lat="43.340665" lon="-6.877588">
        <ele>748.3</ele>
        <time>2021-04-23T13:13:20.000Z</time>
      </trkpt>
      <trkpt lat="43.340628" lon="-6.87778">
        <ele>748.4</ele>
        <time>2021-04-23T13:21:07.000Z</time>
      </trkpt>
      <trkpt lat="43.340697" lon="-6.877692">
        <ele>749.7</ele>
        <time>2021-04-23T13:24:56.000Z</time>
      </trkpt>
      <trkpt lat="43.34076" lon="-6.877595">
        <ele>758.3</ele>
        <time>2021-04-23T13:31:17.000Z</time>
      </trkpt>
      <trkpt lat="43.340875" lon="-6.877553">
        <ele>759.2</ele>
        <time>2021-04-23T13:31:31.000Z</time>
      </trkpt>
      <trkpt lat="43.34098" lon="-6.877468">
        <ele>760.4</ele>
        <time>2021-04-23T13:31:50.000Z</time>
      </trkpt>
      <trkpt lat="43.341092" lon="-6.877482">
        <ele>760.8</ele>
        <time>2021-04-23T13:32:07.000Z</time>
      </trkpt>
      <trkpt lat="43.341207" lon="-6.877465">
        <ele>761</ele>
        <time>2021-04-23T13:32:45.000Z</time>
      </trkpt>
      <trkpt lat="43.341337" lon="-6.877472">
        <ele>758.9</ele>
        <time>2021-04-23T13:32:58.000Z</time>
      </trkpt>
      <trkpt lat="43.341447" lon="-6.877477">
        <ele>754.8</ele>
        <time>2021-04-23T13:33:19.000Z</time>
      </trkpt>
      <trkpt lat="43.341563" lon="-6.87749">
        <ele>750.2</ele>
        <time>2021-04-23T13:33:41.000Z</time>
      </trkpt>
      <trkpt lat="43.34168" lon="-6.877468">
        <ele>750.6</ele>
        <time>2021-04-23T13:34:03.000Z</time>
      </trkpt>
      <trkpt lat="43.341795" lon="-6.87745">
        <ele>751.8</ele>
        <time>2021-04-23T13:34:18.000Z</time>
      </trkpt>
      <trkpt lat="43.341915" lon="-6.877443">
        <ele>753.5</ele>
        <time>2021-04-23T13:34:33.000Z</time>
      </trkpt>
      <trkpt lat="43.342025" lon="-6.877438">
        <ele>755.9</ele>
        <time>2021-04-23T13:34:52.000Z</time>
      </trkpt>
      <trkpt lat="43.342135" lon="-6.87743">
        <ele>757.1</ele>
        <time>2021-04-23T13:35:16.000Z</time>
      </trkpt>
      <trkpt lat="43.34225" lon="-6.877458">
        <ele>757.5</ele>
        <time>2021-04-23T13:35:33.000Z</time>
      </trkpt>
      <trkpt lat="43.342357" lon="-6.877483">
        <ele>757.6</ele>
        <time>2021-04-23T13:35:48.000Z</time>
      </trkpt>
      <trkpt lat="43.342477" lon="-6.877515">
        <ele>758</ele>
        <time>2021-04-23T13:36:04.000Z</time>
      </trkpt>
      <trkpt lat="43.342592" lon="-6.877568">
        <ele>759</ele>
        <time>2021-04-23T13:36:18.000Z</time>
      </trkpt>
      <trkpt lat="43.342707" lon="-6.87761">
        <ele>759.8</ele>
        <time>2021-04-23T13:36:32.000Z</time>
      </trkpt>
      <trkpt lat="43.342818" lon="-6.877595">
        <ele>759.6</ele>
        <time>2021-04-23T13:36:51.000Z</time>
      </trkpt>
      <trkpt lat="43.342937" lon="-6.877577">
        <ele>759.1</ele>
        <time>2021-04-23T13:37:14.000Z</time>
      </trkpt>
      <trkpt lat="43.343033" lon="-6.877592">
        <ele>760.2</ele>
        <time>2021-04-23T13:37:35.000Z</time>
      </trkpt>
      <trkpt lat="43.343143" lon="-6.877593">
        <ele>760.6</ele>
        <time>2021-04-23T13:38:12.000Z</time>
      </trkpt>
      <trkpt lat="43.34326" lon="-6.877652">
        <ele>755.1</ele>
        <time>2021-04-23T13:39:21.000Z</time>
      </trkpt>
      <trkpt lat="43.343353" lon="-6.877628">
        <ele>755.9</ele>
        <time>2021-04-23T13:40:45.000Z</time>
      </trkpt>
      <trkpt lat="43.343453" lon="-6.87761">
        <ele>757.1</ele>
        <time>2021-04-23T13:41:06.000Z</time>
      </trkpt>
      <trkpt lat="43.343547" lon="-6.877657">
        <ele>747.8</ele>
        <time>2021-04-23T13:41:34.000Z</time>
      </trkpt>
      <trkpt lat="43.343647" lon="-6.877705">
        <ele>749.9</ele>
        <time>2021-04-23T13:42:13.000Z</time>
      </trkpt>
      <trkpt lat="43.34375" lon="-6.877668">
        <ele>752.8</ele>
        <time>2021-04-23T13:43:07.000Z</time>
      </trkpt>
      <trkpt lat="43.343838" lon="-6.8777">
        <ele>754.3</ele>
        <time>2021-04-23T13:43:26.000Z</time>
      </trkpt>
      <trkpt lat="43.34391" lon="-6.877803">
        <ele>753.3</ele>
        <time>2021-04-23T13:43:50.000Z</time>
      </trkpt>
      <trkpt lat="43.344013" lon="-6.877867">
        <ele>753.7</ele>
        <time>2021-04-23T13:44:06.000Z</time>
      </trkpt>
      <trkpt lat="43.344113" lon="-6.877912">
        <ele>754.2</ele>
        <time>2021-04-23T13:44:22.000Z</time>
      </trkpt>
      <trkpt lat="43.344232" lon="-6.877967">
        <ele>754.9</ele>
        <time>2021-04-23T13:44:35.000Z</time>
      </trkpt>
      <trkpt lat="43.344262" lon="-6.878112">
        <ele>755.5</ele>
        <time>2021-04-23T13:44:57.000Z</time>
      </trkpt>
      <trkpt lat="43.344268" lon="-6.87825">
        <ele>755.2</ele>
        <time>2021-04-23T13:45:18.000Z</time>
      </trkpt>
      <trkpt lat="43.344293" lon="-6.878395">
        <ele>756.2</ele>
        <time>2021-04-23T13:45:38.000Z</time>
      </trkpt>
      <trkpt lat="43.344388" lon="-6.87849">
        <ele>757.7</ele>
        <time>2021-04-23T13:45:57.000Z</time>
      </trkpt>
      <trkpt lat="43.34449" lon="-6.878542">
        <ele>759.4</ele>
        <time>2021-04-23T13:46:16.000Z</time>
      </trkpt>
      <trkpt lat="43.344597" lon="-6.878557">
        <ele>762</ele>
        <time>2021-04-23T13:47:39.000Z</time>
      </trkpt>
      <trkpt lat="43.344698" lon="-6.878612">
        <ele>763.6</ele>
        <time>2021-04-23T13:47:58.000Z</time>
      </trkpt>
      <trkpt lat="43.344805" lon="-6.878692">
        <ele>763.7</ele>
        <time>2021-04-23T13:48:37.000Z</time>
      </trkpt>
      <trkpt lat="43.344908" lon="-6.8787">
        <ele>765.1</ele>
        <time>2021-04-23T13:48:54.000Z</time>
      </trkpt>
      <trkpt lat="43.344932" lon="-6.878872">
        <ele>762.6</ele>
        <time>2021-04-23T13:49:05.000Z</time>
      </trkpt>
      <trkpt lat="43.345023" lon="-6.87891">
        <ele>761.8</ele>
        <time>2021-04-23T13:49:31.000Z</time>
      </trkpt>
      <trkpt lat="43.345132" lon="-6.878982">
        <ele>759.5</ele>
        <time>2021-04-23T13:49:45.000Z</time>
      </trkpt>
      <trkpt lat="43.345243" lon="-6.878978">
        <ele>759</ele>
        <time>2021-04-23T13:50:20.000Z</time>
      </trkpt>
      <trkpt lat="43.345313" lon="-6.878895">
        <ele>762.2</ele>
        <time>2021-04-23T13:50:39.000Z</time>
      </trkpt>
      <trkpt lat="43.345463" lon="-6.878863">
        <ele>761.4</ele>
        <time>2021-04-23T13:51:04.000Z</time>
      </trkpt>
      <trkpt lat="43.345535" lon="-6.878762">
        <ele>761.7</ele>
        <time>2021-04-23T13:51:55.000Z</time>
      </trkpt>
      <trkpt lat="43.345648" lon="-6.878655">
        <ele>764.1</ele>
        <time>2021-04-23T13:53:05.000Z</time>
      </trkpt>
      <trkpt lat="43.345738" lon="-6.878565">
        <ele>766.2</ele>
        <time>2021-04-23T13:53:21.000Z</time>
      </trkpt>
      <trkpt lat="43.345657" lon="-6.878627">
        <ele>764.2</ele>
        <time>2021-04-23T13:54:21.000Z</time>
      </trkpt>
      <trkpt lat="43.345585" lon="-6.878717">
        <ele>763.9</ele>
        <time>2021-04-23T13:55:05.000Z</time>
      </trkpt>
      <trkpt lat="43.345493" lon="-6.87881">
        <ele>763.7</ele>
        <time>2021-04-23T13:55:52.000Z</time>
      </trkpt>
      <trkpt lat="43.345433" lon="-6.878938">
        <ele>760.6</ele>
        <time>2021-04-23T13:56:11.000Z</time>
      </trkpt>
      <trkpt lat="43.345335" lon="-6.879018">
        <ele>760.3</ele>
        <time>2021-04-23T13:56:36.000Z</time>
      </trkpt>
      <trkpt lat="43.345233" lon="-6.879075">
        <ele>759.2</ele>
        <time>2021-04-23T13:56:55.000Z</time>
      </trkpt>
      <trkpt lat="43.345133" lon="-6.879033">
        <ele>756.3</ele>
        <time>2021-04-23T13:57:20.000Z</time>
      </trkpt>
      <trkpt lat="43.345053" lon="-6.878953">
        <ele>756.8</ele>
        <time>2021-04-23T13:57:40.000Z</time>
      </trkpt>
      <trkpt lat="43.344967" lon="-6.87885">
        <ele>758</ele>
        <time>2021-04-23T13:57:56.000Z</time>
      </trkpt>
      <trkpt lat="43.344862" lon="-6.878778">
        <ele>759.1</ele>
        <time>2021-04-23T13:58:10.000Z</time>
      </trkpt>
      <trkpt lat="43.34476" lon="-6.878715">
        <ele>760.2</ele>
        <time>2021-04-23T13:58:25.000Z</time>
      </trkpt>
      <trkpt lat="43.344658" lon="-6.878642">
        <ele>760.7</ele>
        <time>2021-04-23T13:58:39.000Z</time>
      </trkpt>
      <trkpt lat="43.344545" lon="-6.878575">
        <ele>761.4</ele>
        <time>2021-04-23T13:58:51.000Z</time>
      </trkpt>
      <trkpt lat="43.344435" lon="-6.878518">
        <ele>761.5</ele>
        <time>2021-04-23T13:59:05.000Z</time>
      </trkpt>
      <trkpt lat="43.344333" lon="-6.87846">
        <ele>762.1</ele>
        <time>2021-04-23T13:59:17.000Z</time>
      </trkpt>
      <trkpt lat="43.344257" lon="-6.878335">
        <ele>763.7</ele>
        <time>2021-04-23T13:59:31.000Z</time>
      </trkpt>
      <trkpt lat="43.344223" lon="-6.878167">
        <ele>762.5</ele>
        <time>2021-04-23T13:59:43.000Z</time>
      </trkpt>
      <trkpt lat="43.344175" lon="-6.878022">
        <ele>758.4</ele>
        <time>2021-04-23T14:00:41.000Z</time>
      </trkpt>
      <trkpt lat="43.344073" lon="-6.877948">
        <ele>757.5</ele>
        <time>2021-04-23T14:01:08.000Z</time>
      </trkpt>
      <trkpt lat="43.343973" lon="-6.877892">
        <ele>756.5</ele>
        <time>2021-04-23T14:01:36.000Z</time>
      </trkpt>
      <trkpt lat="43.343882" lon="-6.877825">
        <ele>754.4</ele>
        <time>2021-04-23T14:02:03.000Z</time>
      </trkpt>
      <trkpt lat="43.343777" lon="-6.877785">
        <ele>754</ele>
        <time>2021-04-23T14:02:15.000Z</time>
      </trkpt>
      <trkpt lat="43.343665" lon="-6.877752">
        <ele>754.1</ele>
        <time>2021-04-23T14:02:28.000Z</time>
      </trkpt>
      <trkpt lat="43.343543" lon="-6.877738">
        <ele>753.7</ele>
        <time>2021-04-23T14:02:44.000Z</time>
      </trkpt>
      <trkpt lat="43.343428" lon="-6.877732">
        <ele>754.6</ele>
        <time>2021-04-23T14:03:18.000Z</time>
      </trkpt>
      <trkpt lat="43.343317" lon="-6.877713">
        <ele>754.6</ele>
        <time>2021-04-23T14:03:39.000Z</time>
      </trkpt>
      <trkpt lat="43.343185" lon="-6.877685">
        <ele>754.4</ele>
        <time>2021-04-23T14:03:52.000Z</time>
      </trkpt>
      <trkpt lat="43.343062" lon="-6.877677">
        <ele>754</ele>
        <time>2021-04-23T14:04:00.000Z</time>
      </trkpt>
      <trkpt lat="43.342968" lon="-6.87767">
        <ele>753.5</ele>
        <time>2021-04-23T14:04:06.000Z</time>
      </trkpt>
      <trkpt lat="43.342837" lon="-6.877658">
        <ele>753.5</ele>
        <time>2021-04-23T14:04:23.000Z</time>
      </trkpt>
      <trkpt lat="43.342727" lon="-6.87764">
        <ele>753</ele>
        <time>2021-04-23T14:04:28.000Z</time>
      </trkpt>
      <trkpt lat="43.342632" lon="-6.877607">
        <ele>751.9</ele>
        <time>2021-04-23T14:04:33.000Z</time>
      </trkpt>
      <trkpt lat="43.342532" lon="-6.877592">
        <ele>749.4</ele>
        <time>2021-04-23T14:04:43.000Z</time>
      </trkpt>
      <trkpt lat="43.342412" lon="-6.877557">
        <ele>748</ele>
        <time>2021-04-23T14:05:05.000Z</time>
      </trkpt>
      <trkpt lat="43.342323" lon="-6.877528">
        <ele>747.4</ele>
        <time>2021-04-23T14:05:14.000Z</time>
      </trkpt>
      <trkpt lat="43.34223" lon="-6.877513">
        <ele>747.7</ele>
        <time>2021-04-23T14:05:23.000Z</time>
      </trkpt>
      <trkpt lat="43.34205" lon="-6.877477">
        <ele>748.9</ele>
        <time>2021-04-23T14:05:43.000Z</time>
      </trkpt>
      <trkpt lat="43.341955" lon="-6.877465">
        <ele>748.3</ele>
        <time>2021-04-23T14:05:50.000Z</time>
      </trkpt>
      <trkpt lat="43.3418" lon="-6.877498">
        <ele>749.5</ele>
        <time>2021-04-23T14:06:06.000Z</time>
      </trkpt>
      <trkpt lat="43.341685" lon="-6.877527">
        <ele>751.1</ele>
        <time>2021-04-23T14:06:20.000Z</time>
      </trkpt>
      <trkpt lat="43.341562" lon="-6.877565">
        <ele>752.5</ele>
        <time>2021-04-23T14:06:33.000Z</time>
      </trkpt>
      <trkpt lat="43.341467" lon="-6.877568">
        <ele>754</ele>
        <time>2021-04-23T14:06:41.000Z</time>
      </trkpt>
      <trkpt lat="43.341375" lon="-6.877562">
        <ele>753.8</ele>
        <time>2021-04-23T14:06:48.000Z</time>
      </trkpt>
      <trkpt lat="43.34124" lon="-6.87756">
        <ele>755.2</ele>
        <time>2021-04-23T14:07:01.000Z</time>
      </trkpt>
      <trkpt lat="43.341102" lon="-6.87758">
        <ele>756.3</ele>
        <time>2021-04-23T14:07:18.000Z</time>
      </trkpt>
      <trkpt lat="43.340988" lon="-6.877628">
        <ele>758</ele>
        <time>2021-04-23T14:07:32.000Z</time>
      </trkpt>
      <trkpt lat="43.340857" lon="-6.877667">
        <ele>758.5</ele>
        <time>2021-04-23T14:07:45.000Z</time>
      </trkpt>
      <trkpt lat="43.340743" lon="-6.87764">
        <ele>757.8</ele>
        <time>2021-04-23T14:07:52.000Z</time>
      </trkpt>
      <trkpt lat="43.340682" lon="-6.877532">
        <ele>759.4</ele>
        <time>2021-04-23T14:10:09.000Z</time>
      </trkpt>
      <trkpt lat="43.340605" lon="-6.877433">
        <ele>758</ele>
        <time>2021-04-23T14:10:15.000Z</time>
      </trkpt>
      <trkpt lat="43.34054" lon="-6.877308">
        <ele>755.8</ele>
        <time>2021-04-23T14:10:20.000Z</time>
      </trkpt>
      <trkpt lat="43.340505" lon="-6.877163">
        <ele>753.5</ele>
        <time>2021-04-23T14:10:24.000Z</time>
      </trkpt>
      <trkpt lat="43.34049" lon="-6.87696">
        <ele>751.7</ele>
        <time>2021-04-23T14:10:28.000Z</time>
      </trkpt>
      <trkpt lat="43.340497" lon="-6.876833">
        <ele>751.5</ele>
        <time>2021-04-23T14:10:32.000Z</time>
      </trkpt>
      <trkpt lat="43.340535" lon="-6.876718">
        <ele>749.1</ele>
        <time>2021-04-23T14:10:36.000Z</time>
      </trkpt>
      <trkpt lat="43.340563" lon="-6.876592">
        <ele>748.4</ele>
        <time>2021-04-23T14:10:40.000Z</time>
      </trkpt>
      <trkpt lat="43.340595" lon="-6.87646">
        <ele>747.4</ele>
        <time>2021-04-23T14:10:44.000Z</time>
      </trkpt>
      <trkpt lat="43.340623" lon="-6.876322">
        <ele>748.1</ele>
        <time>2021-04-23T14:10:48.000Z</time>
      </trkpt>
      <trkpt lat="43.340647" lon="-6.876185">
        <ele>749.1</ele>
        <time>2021-04-23T14:10:52.000Z</time>
      </trkpt>
      <trkpt lat="43.340687" lon="-6.876022">
        <ele>749.2</ele>
        <time>2021-04-23T14:10:58.000Z</time>
      </trkpt>
      <trkpt lat="43.340708" lon="-6.87587">
        <ele>750</ele>
        <time>2021-04-23T14:11:04.000Z</time>
      </trkpt>
      <trkpt lat="43.340732" lon="-6.87575">
        <ele>746.2</ele>
        <time>2021-04-23T14:11:11.000Z</time>
      </trkpt>
      <trkpt lat="43.340755" lon="-6.875618">
        <ele>746.2</ele>
        <time>2021-04-23T14:11:16.000Z</time>
      </trkpt>
      <trkpt lat="43.340783" lon="-6.875478">
        <ele>745.8</ele>
        <time>2021-04-23T14:11:20.000Z</time>
      </trkpt>
      <trkpt lat="43.340817" lon="-6.875335">
        <ele>745.2</ele>
        <time>2021-04-23T14:11:24.000Z</time>
      </trkpt>
      <trkpt lat="43.34085" lon="-6.875192">
        <ele>746.1</ele>
        <time>2021-04-23T14:11:29.000Z</time>
      </trkpt>
      <trkpt lat="43.340877" lon="-6.875012">
        <ele>747.1</ele>
        <time>2021-04-23T14:11:34.000Z</time>
      </trkpt>
      <trkpt lat="43.340893" lon="-6.874877">
        <ele>748.9</ele>
        <time>2021-04-23T14:11:38.000Z</time>
      </trkpt>
      <trkpt lat="43.340907" lon="-6.87475">
        <ele>750</ele>
        <time>2021-04-23T14:11:43.000Z</time>
      </trkpt>
      <trkpt lat="43.340885" lon="-6.874607">
        <ele>750.2</ele>
        <time>2021-04-23T14:11:47.000Z</time>
      </trkpt>
      <trkpt lat="43.34088" lon="-6.874483">
        <ele>749.5</ele>
        <time>2021-04-23T14:11:50.000Z</time>
      </trkpt>
      <trkpt lat="43.340867" lon="-6.87433">
        <ele>748.4</ele>
        <time>2021-04-23T14:11:54.000Z</time>
      </trkpt>
      <trkpt lat="43.340825" lon="-6.874188">
        <ele>748.2</ele>
        <time>2021-04-23T14:11:58.000Z</time>
      </trkpt>
      <trkpt lat="43.340768" lon="-6.874077">
        <ele>747.4</ele>
        <time>2021-04-23T14:12:01.000Z</time>
      </trkpt>
      <trkpt lat="43.340673" lon="-6.87396">
        <ele>747.9</ele>
        <time>2021-04-23T14:12:04.000Z</time>
      </trkpt>
      <trkpt lat="43.340595" lon="-6.873875">
        <ele>748.4</ele>
        <time>2021-04-23T14:12:07.000Z</time>
      </trkpt>
      <trkpt lat="43.340518" lon="-6.87381">
        <ele>749.5</ele>
        <time>2021-04-23T14:12:11.000Z</time>
      </trkpt>
      <trkpt lat="43.340428" lon="-6.873742">
        <ele>748.8</ele>
        <time>2021-04-23T14:12:15.000Z</time>
      </trkpt>
      <trkpt lat="43.340333" lon="-6.873647">
        <ele>748.1</ele>
        <time>2021-04-23T14:12:18.000Z</time>
      </trkpt>
      <trkpt lat="43.34025" lon="-6.873542">
        <ele>744.7</ele>
        <time>2021-04-23T14:12:21.000Z</time>
      </trkpt>
      <trkpt lat="43.340188" lon="-6.873418">
        <ele>744.3</ele>
        <time>2021-04-23T14:12:25.000Z</time>
      </trkpt>
      <trkpt lat="43.340155" lon="-6.873303">
        <ele>743.6</ele>
        <time>2021-04-23T14:12:29.000Z</time>
      </trkpt>
      <trkpt lat="43.340115" lon="-6.873112">
        <ele>739</ele>
        <time>2021-04-23T14:12:34.000Z</time>
      </trkpt>
      <trkpt lat="43.340108" lon="-6.872978">
        <ele>735.2</ele>
        <time>2021-04-23T14:12:37.000Z</time>
      </trkpt>
      <trkpt lat="43.340107" lon="-6.872833">
        <ele>731.8</ele>
        <time>2021-04-23T14:12:41.000Z</time>
      </trkpt>
      <trkpt lat="43.340108" lon="-6.872688">
        <ele>731.6</ele>
        <time>2021-04-23T14:12:45.000Z</time>
      </trkpt>
      <trkpt lat="43.34012" lon="-6.87255">
        <ele>730</ele>
        <time>2021-04-23T14:12:48.000Z</time>
      </trkpt>
      <trkpt lat="43.340123" lon="-6.872405">
        <ele>729.7</ele>
        <time>2021-04-23T14:12:51.000Z</time>
      </trkpt>
      <trkpt lat="43.340132" lon="-6.872263">
        <ele>728</ele>
        <time>2021-04-23T14:12:55.000Z</time>
      </trkpt>
      <trkpt lat="43.34013" lon="-6.872123">
        <ele>725.9</ele>
        <time>2021-04-23T14:12:58.000Z</time>
      </trkpt>
      <trkpt lat="43.340135" lon="-6.871958">
        <ele>724.3</ele>
        <time>2021-04-23T14:13:01.000Z</time>
      </trkpt>
      <trkpt lat="43.34015" lon="-6.871822">
        <ele>722.9</ele>
        <time>2021-04-23T14:13:04.000Z</time>
      </trkpt>
      <trkpt lat="43.340167" lon="-6.871662">
        <ele>721</ele>
        <time>2021-04-23T14:13:07.000Z</time>
      </trkpt>
      <trkpt lat="43.340192" lon="-6.871512">
        <ele>719</ele>
        <time>2021-04-23T14:13:10.000Z</time>
      </trkpt>
      <trkpt lat="43.340238" lon="-6.871353">
        <ele>716.5</ele>
        <time>2021-04-23T14:13:13.000Z</time>
      </trkpt>
      <trkpt lat="43.340273" lon="-6.871233">
        <ele>714.9</ele>
        <time>2021-04-23T14:13:16.000Z</time>
      </trkpt>
      <trkpt lat="43.340308" lon="-6.871108">
        <ele>713.2</ele>
        <time>2021-04-23T14:13:20.000Z</time>
      </trkpt>
      <trkpt lat="43.340337" lon="-6.870972">
        <ele>712.8</ele>
        <time>2021-04-23T14:13:24.000Z</time>
      </trkpt>
      <trkpt lat="43.340378" lon="-6.870847">
        <ele>711.2</ele>
        <time>2021-04-23T14:13:28.000Z</time>
      </trkpt>
      <trkpt lat="43.340415" lon="-6.870712">
        <ele>709</ele>
        <time>2021-04-23T14:13:32.000Z</time>
      </trkpt>
      <trkpt lat="43.340452" lon="-6.870578">
        <ele>707.3</ele>
        <time>2021-04-23T14:13:36.000Z</time>
      </trkpt>
      <trkpt lat="43.340488" lon="-6.870448">
        <ele>705</ele>
        <time>2021-04-23T14:13:40.000Z</time>
      </trkpt>
      <trkpt lat="43.340523" lon="-6.870322">
        <ele>702.6</ele>
        <time>2021-04-23T14:13:44.000Z</time>
      </trkpt>
      <trkpt lat="43.340573" lon="-6.870182">
        <ele>703.5</ele>
        <time>2021-04-23T14:13:48.000Z</time>
      </trkpt>
      <trkpt lat="43.340622" lon="-6.870043">
        <ele>703.6</ele>
        <time>2021-04-23T14:13:52.000Z</time>
      </trkpt>
      <trkpt lat="43.340682" lon="-6.869927">
        <ele>702.3</ele>
        <time>2021-04-23T14:13:56.000Z</time>
      </trkpt>
      <trkpt lat="43.340748" lon="-6.86982">
        <ele>700.1</ele>
        <time>2021-04-23T14:14:00.000Z</time>
      </trkpt>
      <trkpt lat="43.340837" lon="-6.86972">
        <ele>698.8</ele>
        <time>2021-04-23T14:14:04.000Z</time>
      </trkpt>
      <trkpt lat="43.340925" lon="-6.869628">
        <ele>698.5</ele>
        <time>2021-04-23T14:14:08.000Z</time>
      </trkpt>
      <trkpt lat="43.341033" lon="-6.869573">
        <ele>698.5</ele>
        <time>2021-04-23T14:14:12.000Z</time>
      </trkpt>
      <trkpt lat="43.340935" lon="-6.869537">
        <ele>694.8</ele>
        <time>2021-04-23T14:14:21.000Z</time>
      </trkpt>
      <trkpt lat="43.340837" lon="-6.869562">
        <ele>694</ele>
        <time>2021-04-23T14:14:24.000Z</time>
      </trkpt>
      <trkpt lat="43.340728" lon="-6.869587">
        <ele>694</ele>
        <time>2021-04-23T14:14:28.000Z</time>
      </trkpt>
      <trkpt lat="43.34062" lon="-6.869612">
        <ele>693</ele>
        <time>2021-04-23T14:14:31.000Z</time>
      </trkpt>
      <trkpt lat="43.340495" lon="-6.869657">
        <ele>690</ele>
        <time>2021-04-23T14:14:34.000Z</time>
      </trkpt>
      <trkpt lat="43.340367" lon="-6.869713">
        <ele>687.7</ele>
        <time>2021-04-23T14:14:37.000Z</time>
      </trkpt>
      <trkpt lat="43.340275" lon="-6.869762">
        <ele>686.1</ele>
        <time>2021-04-23T14:14:39.000Z</time>
      </trkpt>
      <trkpt lat="43.340185" lon="-6.869802">
        <ele>684.8</ele>
        <time>2021-04-23T14:14:41.000Z</time>
      </trkpt>
      <trkpt lat="43.340088" lon="-6.869855">
        <ele>684.5</ele>
        <time>2021-04-23T14:14:43.000Z</time>
      </trkpt>
      <trkpt lat="43.34" lon="-6.86992">
        <ele>683.4</ele>
        <time>2021-04-23T14:14:45.000Z</time>
      </trkpt>
      <trkpt lat="43.339905" lon="-6.86999">
        <ele>682.6</ele>
        <time>2021-04-23T14:14:47.000Z</time>
      </trkpt>
      <trkpt lat="43.339813" lon="-6.870062">
        <ele>682.7</ele>
        <time>2021-04-23T14:14:49.000Z</time>
      </trkpt>
      <trkpt lat="43.339732" lon="-6.870143">
        <ele>682.3</ele>
        <time>2021-04-23T14:14:51.000Z</time>
      </trkpt>
      <trkpt lat="43.339657" lon="-6.87023">
        <ele>684.2</ele>
        <time>2021-04-23T14:14:53.000Z</time>
      </trkpt>
      <trkpt lat="43.339588" lon="-6.870318">
        <ele>685.2</ele>
        <time>2021-04-23T14:14:55.000Z</time>
      </trkpt>
      <trkpt lat="43.339525" lon="-6.870417">
        <ele>684.7</ele>
        <time>2021-04-23T14:14:59.000Z</time>
      </trkpt>
      <trkpt lat="43.339457" lon="-6.870523">
        <ele>684.7</ele>
        <time>2021-04-23T14:15:07.000Z</time>
      </trkpt>
      <trkpt lat="43.339392" lon="-6.870628">
        <ele>684.4</ele>
        <time>2021-04-23T14:15:10.000Z</time>
      </trkpt>
      <trkpt lat="43.33932" lon="-6.870755">
        <ele>683.1</ele>
        <time>2021-04-23T14:15:13.000Z</time>
      </trkpt>
      <trkpt lat="43.339268" lon="-6.87086">
        <ele>681.3</ele>
        <time>2021-04-23T14:15:15.000Z</time>
      </trkpt>
      <trkpt lat="43.33922" lon="-6.870968">
        <ele>679.3</ele>
        <time>2021-04-23T14:15:17.000Z</time>
      </trkpt>
      <trkpt lat="43.339165" lon="-6.871083">
        <ele>676.1</ele>
        <time>2021-04-23T14:15:19.000Z</time>
      </trkpt>
      <trkpt lat="43.33911" lon="-6.871203">
        <ele>673.5</ele>
        <time>2021-04-23T14:15:21.000Z</time>
      </trkpt>
      <trkpt lat="43.339055" lon="-6.871308">
        <ele>671.8</ele>
        <time>2021-04-23T14:15:23.000Z</time>
      </trkpt>
      <trkpt lat="43.339" lon="-6.871415">
        <ele>670.5</ele>
        <time>2021-04-23T14:15:25.000Z</time>
      </trkpt>
      <trkpt lat="43.338942" lon="-6.871512">
        <ele>670.3</ele>
        <time>2021-04-23T14:15:27.000Z</time>
      </trkpt>
      <trkpt lat="43.338883" lon="-6.871612">
        <ele>670.2</ele>
        <time>2021-04-23T14:15:29.000Z</time>
      </trkpt>
      <trkpt lat="43.338812" lon="-6.87175">
        <ele>669.8</ele>
        <time>2021-04-23T14:15:32.000Z</time>
      </trkpt>
      <trkpt lat="43.338747" lon="-6.871898">
        <ele>668.6</ele>
        <time>2021-04-23T14:15:35.000Z</time>
      </trkpt>
      <trkpt lat="43.33869" lon="-6.872042">
        <ele>667.8</ele>
        <time>2021-04-23T14:15:38.000Z</time>
      </trkpt>
      <trkpt lat="43.33864" lon="-6.872193">
        <ele>666.4</ele>
        <time>2021-04-23T14:15:41.000Z</time>
      </trkpt>
      <trkpt lat="43.338598" lon="-6.872333">
        <ele>666.3</ele>
        <time>2021-04-23T14:15:45.000Z</time>
      </trkpt>
      <trkpt lat="43.338565" lon="-6.872452">
        <ele>666.7</ele>
        <time>2021-04-23T14:16:00.000Z</time>
      </trkpt>
      <trkpt lat="43.33852" lon="-6.87261">
        <ele>665.6</ele>
        <time>2021-04-23T14:16:03.000Z</time>
      </trkpt>
      <trkpt lat="43.338468" lon="-6.872777">
        <ele>664.5</ele>
        <time>2021-04-23T14:16:06.000Z</time>
      </trkpt>
      <trkpt lat="43.338425" lon="-6.872942">
        <ele>663.1</ele>
        <time>2021-04-23T14:16:09.000Z</time>
      </trkpt>
      <trkpt lat="43.338363" lon="-6.873092">
        <ele>662.5</ele>
        <time>2021-04-23T14:16:12.000Z</time>
      </trkpt>
      <trkpt lat="43.338272" lon="-6.873043">
        <ele>661.9</ele>
        <time>2021-04-23T14:16:15.000Z</time>
      </trkpt>
      <trkpt lat="43.338272" lon="-6.872898">
        <ele>661.2</ele>
        <time>2021-04-23T14:16:17.000Z</time>
      </trkpt>
      <trkpt lat="43.338293" lon="-6.872732">
        <ele>660</ele>
        <time>2021-04-23T14:16:19.000Z</time>
      </trkpt>
      <trkpt lat="43.338307" lon="-6.87255">
        <ele>658.9</ele>
        <time>2021-04-23T14:16:21.000Z</time>
      </trkpt>
      <trkpt lat="43.33831" lon="-6.872375">
        <ele>657.4</ele>
        <time>2021-04-23T14:16:23.000Z</time>
      </trkpt>
      <trkpt lat="43.33831" lon="-6.872212">
        <ele>656.6</ele>
        <time>2021-04-23T14:16:25.000Z</time>
      </trkpt>
      <trkpt lat="43.338312" lon="-6.872053">
        <ele>655.7</ele>
        <time>2021-04-23T14:16:27.000Z</time>
      </trkpt>
      <trkpt lat="43.338318" lon="-6.871917">
        <ele>654.8</ele>
        <time>2021-04-23T14:16:29.000Z</time>
      </trkpt>
      <trkpt lat="43.338323" lon="-6.871778">
        <ele>653</ele>
        <time>2021-04-23T14:16:31.000Z</time>
      </trkpt>
      <trkpt lat="43.338325" lon="-6.871627">
        <ele>652</ele>
        <time>2021-04-23T14:16:33.000Z</time>
      </trkpt>
      <trkpt lat="43.338338" lon="-6.871487">
        <ele>648.8</ele>
        <time>2021-04-23T14:16:35.000Z</time>
      </trkpt>
      <trkpt lat="43.338342" lon="-6.871355">
        <ele>646.1</ele>
        <time>2021-04-23T14:16:37.000Z</time>
      </trkpt>
      <trkpt lat="43.338363" lon="-6.871235">
        <ele>643.3</ele>
        <time>2021-04-23T14:16:39.000Z</time>
      </trkpt>
      <trkpt lat="43.338388" lon="-6.87111">
        <ele>639.8</ele>
        <time>2021-04-23T14:16:41.000Z</time>
      </trkpt>
      <trkpt lat="43.338412" lon="-6.870963">
        <ele>638.2</ele>
        <time>2021-04-23T14:16:43.000Z</time>
      </trkpt>
      <trkpt lat="43.338432" lon="-6.870818">
        <ele>637.6</ele>
        <time>2021-04-23T14:16:45.000Z</time>
      </trkpt>
      <trkpt lat="43.338443" lon="-6.87068">
        <ele>636.3</ele>
        <time>2021-04-23T14:16:47.000Z</time>
      </trkpt>
      <trkpt lat="43.338453" lon="-6.870542">
        <ele>635.2</ele>
        <time>2021-04-23T14:16:49.000Z</time>
      </trkpt>
      <trkpt lat="43.338463" lon="-6.870402">
        <ele>634.8</ele>
        <time>2021-04-23T14:16:51.000Z</time>
      </trkpt>
      <trkpt lat="43.338452" lon="-6.87025">
        <ele>634.3</ele>
        <time>2021-04-23T14:16:53.000Z</time>
      </trkpt>
      <trkpt lat="43.338438" lon="-6.870113">
        <ele>634</ele>
        <time>2021-04-23T14:16:55.000Z</time>
      </trkpt>
      <trkpt lat="43.338425" lon="-6.86998">
        <ele>635.2</ele>
        <time>2021-04-23T14:16:57.000Z</time>
      </trkpt>
      <trkpt lat="43.338445" lon="-6.869807">
        <ele>635.2</ele>
        <time>2021-04-23T14:17:00.000Z</time>
      </trkpt>
      <trkpt lat="43.338492" lon="-6.869653">
        <ele>633.7</ele>
        <time>2021-04-23T14:17:03.000Z</time>
      </trkpt>
      <trkpt lat="43.338535" lon="-6.869483">
        <ele>634</ele>
        <time>2021-04-23T14:17:06.000Z</time>
      </trkpt>
      <trkpt lat="43.338567" lon="-6.86933">
        <ele>632.3</ele>
        <time>2021-04-23T14:17:09.000Z</time>
      </trkpt>
      <trkpt lat="43.338603" lon="-6.869177">
        <ele>630.4</ele>
        <time>2021-04-23T14:17:12.000Z</time>
      </trkpt>
      <trkpt lat="43.338647" lon="-6.86902">
        <ele>628.9</ele>
        <time>2021-04-23T14:17:15.000Z</time>
      </trkpt>
      <trkpt lat="43.338682" lon="-6.868905">
        <ele>628.2</ele>
        <time>2021-04-23T14:17:17.000Z</time>
      </trkpt>
      <trkpt lat="43.33872" lon="-6.868783">
        <ele>627.4</ele>
        <time>2021-04-23T14:17:19.000Z</time>
      </trkpt>
      <trkpt lat="43.338775" lon="-6.868623">
        <ele>626.4</ele>
        <time>2021-04-23T14:17:22.000Z</time>
      </trkpt>
      <trkpt lat="43.33883" lon="-6.868478">
        <ele>625</ele>
        <time>2021-04-23T14:17:25.000Z</time>
      </trkpt>
      <trkpt lat="43.338873" lon="-6.868363">
        <ele>625.5</ele>
        <time>2021-04-23T14:17:27.000Z</time>
      </trkpt>
      <trkpt lat="43.338943" lon="-6.868212">
        <ele>625.2</ele>
        <time>2021-04-23T14:17:30.000Z</time>
      </trkpt>
      <trkpt lat="43.33901" lon="-6.868083">
        <ele>625.2</ele>
        <time>2021-04-23T14:17:33.000Z</time>
      </trkpt>
      <trkpt lat="43.339083" lon="-6.867962">
        <ele>624.5</ele>
        <time>2021-04-23T14:17:36.000Z</time>
      </trkpt>
      <trkpt lat="43.339185" lon="-6.86786">
        <ele>623.1</ele>
        <time>2021-04-23T14:17:39.000Z</time>
      </trkpt>
      <trkpt lat="43.339297" lon="-6.867783">
        <ele>620.1</ele>
        <time>2021-04-23T14:17:42.000Z</time>
      </trkpt>
      <trkpt lat="43.339373" lon="-6.867715">
        <ele>619.2</ele>
        <time>2021-04-23T14:17:44.000Z</time>
      </trkpt>
      <trkpt lat="43.339447" lon="-6.867642">
        <ele>618.2</ele>
        <time>2021-04-23T14:17:46.000Z</time>
      </trkpt>
      <trkpt lat="43.339527" lon="-6.86757">
        <ele>617.8</ele>
        <time>2021-04-23T14:17:48.000Z</time>
      </trkpt>
      <trkpt lat="43.339608" lon="-6.867503">
        <ele>616.8</ele>
        <time>2021-04-23T14:17:50.000Z</time>
      </trkpt>
      <trkpt lat="43.33969" lon="-6.867438">
        <ele>615.3</ele>
        <time>2021-04-23T14:17:52.000Z</time>
      </trkpt>
      <trkpt lat="43.339773" lon="-6.867373">
        <ele>614.1</ele>
        <time>2021-04-23T14:17:54.000Z</time>
      </trkpt>
      <trkpt lat="43.339862" lon="-6.867313">
        <ele>612.4</ele>
        <time>2021-04-23T14:17:56.000Z</time>
      </trkpt>
      <trkpt lat="43.339947" lon="-6.867247">
        <ele>611.4</ele>
        <time>2021-04-23T14:17:58.000Z</time>
      </trkpt>
      <trkpt lat="43.340033" lon="-6.867183">
        <ele>610.8</ele>
        <time>2021-04-23T14:18:00.000Z</time>
      </trkpt>
      <trkpt lat="43.340123" lon="-6.867122">
        <ele>610.3</ele>
        <time>2021-04-23T14:18:02.000Z</time>
      </trkpt>
      <trkpt lat="43.340208" lon="-6.86707">
        <ele>609.6</ele>
        <time>2021-04-23T14:18:04.000Z</time>
      </trkpt>
      <trkpt lat="43.3403" lon="-6.867012">
        <ele>609.4</ele>
        <time>2021-04-23T14:18:06.000Z</time>
      </trkpt>
      <trkpt lat="43.340385" lon="-6.866953">
        <ele>608.8</ele>
        <time>2021-04-23T14:18:08.000Z</time>
      </trkpt>
      <trkpt lat="43.340467" lon="-6.866893">
        <ele>608</ele>
        <time>2021-04-23T14:18:10.000Z</time>
      </trkpt>
      <trkpt lat="43.34057" lon="-6.866805">
        <ele>605.9</ele>
        <time>2021-04-23T14:18:13.000Z</time>
      </trkpt>
      <trkpt lat="43.340658" lon="-6.866712">
        <ele>604.4</ele>
        <time>2021-04-23T14:18:16.000Z</time>
      </trkpt>
      <trkpt lat="43.340768" lon="-6.866617">
        <ele>603.1</ele>
        <time>2021-04-23T14:18:19.000Z</time>
      </trkpt>
      <trkpt lat="43.340868" lon="-6.866533">
        <ele>602.1</ele>
        <time>2021-04-23T14:18:22.000Z</time>
      </trkpt>
      <trkpt lat="43.340967" lon="-6.866438">
        <ele>601.2</ele>
        <time>2021-04-23T14:18:25.000Z</time>
      </trkpt>
      <trkpt lat="43.341038" lon="-6.86629">
        <ele>601.2</ele>
        <time>2021-04-23T14:18:28.000Z</time>
      </trkpt>
      <trkpt lat="43.341087" lon="-6.866172">
        <ele>600.6</ele>
        <time>2021-04-23T14:18:30.000Z</time>
      </trkpt>
      <trkpt lat="43.341145" lon="-6.866043">
        <ele>600.3</ele>
        <time>2021-04-23T14:18:32.000Z</time>
      </trkpt>
      <trkpt lat="43.341208" lon="-6.865918">
        <ele>600.6</ele>
        <time>2021-04-23T14:18:34.000Z</time>
      </trkpt>
      <trkpt lat="43.341273" lon="-6.865807">
        <ele>599.4</ele>
        <time>2021-04-23T14:18:36.000Z</time>
      </trkpt>
      <trkpt lat="43.34134" lon="-6.865697">
        <ele>598.1</ele>
        <time>2021-04-23T14:18:38.000Z</time>
      </trkpt>
      <trkpt lat="43.341418" lon="-6.865593">
        <ele>596.1</ele>
        <time>2021-04-23T14:18:40.000Z</time>
      </trkpt>
      <trkpt lat="43.341488" lon="-6.865492">
        <ele>594.5</ele>
        <time>2021-04-23T14:18:42.000Z</time>
      </trkpt>
      <trkpt lat="43.341558" lon="-6.865402">
        <ele>593</ele>
        <time>2021-04-23T14:18:44.000Z</time>
      </trkpt>
      <trkpt lat="43.341657" lon="-6.86529">
        <ele>592.4</ele>
        <time>2021-04-23T14:18:47.000Z</time>
      </trkpt>
      <trkpt lat="43.341755" lon="-6.865183">
        <ele>591.8</ele>
        <time>2021-04-23T14:18:50.000Z</time>
      </trkpt>
      <trkpt lat="43.341842" lon="-6.865092">
        <ele>591.3</ele>
        <time>2021-04-23T14:18:53.000Z</time>
      </trkpt>
      <trkpt lat="43.341937" lon="-6.865">
        <ele>590.1</ele>
        <time>2021-04-23T14:18:56.000Z</time>
      </trkpt>
      <trkpt lat="43.342013" lon="-6.864923">
        <ele>590.1</ele>
        <time>2021-04-23T14:18:58.000Z</time>
      </trkpt>
      <trkpt lat="43.342092" lon="-6.864822">
        <ele>589.4</ele>
        <time>2021-04-23T14:19:00.000Z</time>
      </trkpt>
      <trkpt lat="43.342168" lon="-6.864703">
        <ele>588.2</ele>
        <time>2021-04-23T14:19:02.000Z</time>
      </trkpt>
      <trkpt lat="43.342223" lon="-6.864557">
        <ele>587.1</ele>
        <time>2021-04-23T14:19:04.000Z</time>
      </trkpt>
      <trkpt lat="43.342265" lon="-6.864417">
        <ele>585</ele>
        <time>2021-04-23T14:19:06.000Z</time>
      </trkpt>
      <trkpt lat="43.342323" lon="-6.864258">
        <ele>582.7</ele>
        <time>2021-04-23T14:19:09.000Z</time>
      </trkpt>
      <trkpt lat="43.342303" lon="-6.86413">
        <ele>580.9</ele>
        <time>2021-04-23T14:19:15.000Z</time>
      </trkpt>
      <trkpt lat="43.342237" lon="-6.86425">
        <ele>578.5</ele>
        <time>2021-04-23T14:19:23.000Z</time>
      </trkpt>
      <trkpt lat="43.342168" lon="-6.864365">
        <ele>575.7</ele>
        <time>2021-04-23T14:19:27.000Z</time>
      </trkpt>
      <trkpt lat="43.342077" lon="-6.86443">
        <ele>573</ele>
        <time>2021-04-23T14:19:30.000Z</time>
      </trkpt>
      <trkpt lat="43.341983" lon="-6.864485">
        <ele>570.4</ele>
        <time>2021-04-23T14:19:32.000Z</time>
      </trkpt>
      <trkpt lat="43.341887" lon="-6.864517">
        <ele>568.7</ele>
        <time>2021-04-23T14:19:34.000Z</time>
      </trkpt>
      <trkpt lat="43.341775" lon="-6.864557">
        <ele>566.4</ele>
        <time>2021-04-23T14:19:36.000Z</time>
      </trkpt>
      <trkpt lat="43.34166" lon="-6.864588">
        <ele>563.8</ele>
        <time>2021-04-23T14:19:38.000Z</time>
      </trkpt>
      <trkpt lat="43.34155" lon="-6.864642">
        <ele>561.4</ele>
        <time>2021-04-23T14:19:40.000Z</time>
      </trkpt>
      <trkpt lat="43.34145" lon="-6.864695">
        <ele>558</ele>
        <time>2021-04-23T14:19:42.000Z</time>
      </trkpt>
      <trkpt lat="43.341345" lon="-6.864742">
        <ele>554.8</ele>
        <time>2021-04-23T14:19:44.000Z</time>
      </trkpt>
      <trkpt lat="43.341223" lon="-6.864785">
        <ele>552.5</ele>
        <time>2021-04-23T14:19:46.000Z</time>
      </trkpt>
      <trkpt lat="43.341093" lon="-6.864812">
        <ele>551.7</ele>
        <time>2021-04-23T14:19:48.000Z</time>
      </trkpt>
      <trkpt lat="43.34098" lon="-6.864845">
        <ele>549.8</ele>
        <time>2021-04-23T14:19:50.000Z</time>
      </trkpt>
      <trkpt lat="43.34086" lon="-6.864893">
        <ele>548.5</ele>
        <time>2021-04-23T14:19:52.000Z</time>
      </trkpt>
      <trkpt lat="43.340745" lon="-6.864945">
        <ele>547.3</ele>
        <time>2021-04-23T14:19:54.000Z</time>
      </trkpt>
      <trkpt lat="43.340643" lon="-6.865013">
        <ele>546.1</ele>
        <time>2021-04-23T14:19:56.000Z</time>
      </trkpt>
      <trkpt lat="43.340535" lon="-6.865088">
        <ele>546.9</ele>
        <time>2021-04-23T14:19:58.000Z</time>
      </trkpt>
      <trkpt lat="43.340433" lon="-6.865167">
        <ele>545.9</ele>
        <time>2021-04-23T14:20:00.000Z</time>
      </trkpt>
      <trkpt lat="43.340347" lon="-6.865222">
        <ele>544.4</ele>
        <time>2021-04-23T14:20:02.000Z</time>
      </trkpt>
      <trkpt lat="43.340222" lon="-6.865272">
        <ele>540.7</ele>
        <time>2021-04-23T14:20:05.000Z</time>
      </trkpt>
      <trkpt lat="43.340103" lon="-6.86527">
        <ele>537.3</ele>
        <time>2021-04-23T14:20:08.000Z</time>
      </trkpt>
      <trkpt lat="43.33999" lon="-6.865258">
        <ele>534.3</ele>
        <time>2021-04-23T14:20:13.000Z</time>
      </trkpt>
      <trkpt lat="43.339887" lon="-6.865255">
        <ele>535.5</ele>
        <time>2021-04-23T14:20:16.000Z</time>
      </trkpt>
      <trkpt lat="43.339767" lon="-6.865268">
        <ele>535.9</ele>
        <time>2021-04-23T14:20:19.000Z</time>
      </trkpt>
      <trkpt lat="43.339655" lon="-6.865292">
        <ele>534.3</ele>
        <time>2021-04-23T14:20:22.000Z</time>
      </trkpt>
      <trkpt lat="43.339533" lon="-6.865308">
        <ele>531.7</ele>
        <time>2021-04-23T14:20:25.000Z</time>
      </trkpt>
      <trkpt lat="43.339405" lon="-6.865333">
        <ele>528</ele>
        <time>2021-04-23T14:20:28.000Z</time>
      </trkpt>
      <trkpt lat="43.339315" lon="-6.865353">
        <ele>526.5</ele>
        <time>2021-04-23T14:20:31.000Z</time>
      </trkpt>
      <trkpt lat="43.33918" lon="-6.865372">
        <ele>525.2</ele>
        <time>2021-04-23T14:20:34.000Z</time>
      </trkpt>
      <trkpt lat="43.339073" lon="-6.86538">
        <ele>526.3</ele>
        <time>2021-04-23T14:20:36.000Z</time>
      </trkpt>
      <trkpt lat="43.338947" lon="-6.865373">
        <ele>526.3</ele>
        <time>2021-04-23T14:20:39.000Z</time>
      </trkpt>
      <trkpt lat="43.338845" lon="-6.865377">
        <ele>524.8</ele>
        <time>2021-04-23T14:20:42.000Z</time>
      </trkpt>
      <trkpt lat="43.338752" lon="-6.86538">
        <ele>523.6</ele>
        <time>2021-04-23T14:20:44.000Z</time>
      </trkpt>
      <trkpt lat="43.338622" lon="-6.86538">
        <ele>521.4</ele>
        <time>2021-04-23T14:20:46.000Z</time>
      </trkpt>
      <trkpt lat="43.338475" lon="-6.865357">
        <ele>520.6</ele>
        <time>2021-04-23T14:20:48.000Z</time>
      </trkpt>
      <trkpt lat="43.338342" lon="-6.865333">
        <ele>519.1</ele>
        <time>2021-04-23T14:20:50.000Z</time>
      </trkpt>
      <trkpt lat="43.338207" lon="-6.865312">
        <ele>516.8</ele>
        <time>2021-04-23T14:20:52.000Z</time>
      </trkpt>
      <trkpt lat="43.338078" lon="-6.865315">
        <ele>514.1</ele>
        <time>2021-04-23T14:20:54.000Z</time>
      </trkpt>
      <trkpt lat="43.337985" lon="-6.865338">
        <ele>510.7</ele>
        <time>2021-04-23T14:20:56.000Z</time>
      </trkpt>
      <trkpt lat="43.337833" lon="-6.865462">
        <ele>506.3</ele>
        <time>2021-04-23T14:21:57.000Z</time>
      </trkpt>
      <trkpt lat="43.337727" lon="-6.865505">
        <ele>506.2</ele>
        <time>2021-04-23T14:22:01.000Z</time>
      </trkpt>
      <trkpt lat="43.337605" lon="-6.865553">
        <ele>504</ele>
        <time>2021-04-23T14:22:04.000Z</time>
      </trkpt>
      <trkpt lat="43.337503" lon="-6.865605">
        <ele>501.2</ele>
        <time>2021-04-23T14:22:06.000Z</time>
      </trkpt>
      <trkpt lat="43.337382" lon="-6.86565">
        <ele>497.8</ele>
        <time>2021-04-23T14:22:08.000Z</time>
      </trkpt>
      <trkpt lat="43.337268" lon="-6.865712">
        <ele>493.8</ele>
        <time>2021-04-23T14:22:11.000Z</time>
      </trkpt>
      <trkpt lat="43.33717" lon="-6.865765">
        <ele>493.3</ele>
        <time>2021-04-23T14:22:14.000Z</time>
      </trkpt>
      <trkpt lat="43.337055" lon="-6.865815">
        <ele>493.8</ele>
        <time>2021-04-23T14:22:49.000Z</time>
      </trkpt>
      <trkpt lat="43.336965" lon="-6.865882">
        <ele>492.9</ele>
        <time>2021-04-23T14:22:52.000Z</time>
      </trkpt>
      <trkpt lat="43.336883" lon="-6.86595">
        <ele>490.7</ele>
        <time>2021-04-23T14:22:56.000Z</time>
      </trkpt>
      <trkpt lat="43.336798" lon="-6.866067">
        <ele>490.8</ele>
        <time>2021-04-23T14:23:20.000Z</time>
      </trkpt>
      <trkpt lat="43.336723" lon="-6.86615">
        <ele>489.9</ele>
        <time>2021-04-23T14:23:24.000Z</time>
      </trkpt>
      <trkpt lat="43.336687" lon="-6.866268">
        <ele>488.5</ele>
        <time>2021-04-23T14:23:36.000Z</time>
      </trkpt>
      <trkpt lat="43.336643" lon="-6.866408">
        <ele>485.7</ele>
        <time>2021-04-23T14:23:39.000Z</time>
      </trkpt>
      <trkpt lat="43.33661" lon="-6.866548">
        <ele>482.8</ele>
        <time>2021-04-23T14:23:43.000Z</time>
      </trkpt>
      <trkpt lat="43.33658" lon="-6.866673">
        <ele>481.9</ele>
        <time>2021-04-23T14:23:47.000Z</time>
      </trkpt>
      <trkpt lat="43.336543" lon="-6.866787">
        <ele>482.4</ele>
        <time>2021-04-23T14:23:50.000Z</time>
      </trkpt>
      <trkpt lat="43.336515" lon="-6.866923">
        <ele>481.8</ele>
        <time>2021-04-23T14:23:53.000Z</time>
      </trkpt>
      <trkpt lat="43.336478" lon="-6.867065">
        <ele>480.7</ele>
        <time>2021-04-23T14:23:56.000Z</time>
      </trkpt>
      <trkpt lat="43.336378" lon="-6.867155">
        <ele>479.3</ele>
        <time>2021-04-23T14:24:00.000Z</time>
      </trkpt>
      <trkpt lat="43.336248" lon="-6.86709">
        <ele>478.1</ele>
        <time>2021-04-23T14:24:03.000Z</time>
      </trkpt>
      <trkpt lat="43.336158" lon="-6.867043">
        <ele>475.7</ele>
        <time>2021-04-23T14:24:06.000Z</time>
      </trkpt>
      <trkpt lat="43.336068" lon="-6.866988">
        <ele>472.6</ele>
        <time>2021-04-23T14:24:10.000Z</time>
      </trkpt>
      <trkpt lat="43.335988" lon="-6.866862">
        <ele>470.2</ele>
        <time>2021-04-23T14:24:14.000Z</time>
      </trkpt>
      <trkpt lat="43.335882" lon="-6.866752">
        <ele>465.2</ele>
        <time>2021-04-23T14:24:17.000Z</time>
      </trkpt>
      <trkpt lat="43.335797" lon="-6.866692">
        <ele>462.6</ele>
        <time>2021-04-23T14:24:19.000Z</time>
      </trkpt>
      <trkpt lat="43.335717" lon="-6.866628">
        <ele>462.2</ele>
        <time>2021-04-23T14:24:21.000Z</time>
      </trkpt>
      <trkpt lat="43.335597" lon="-6.86655">
        <ele>458.8</ele>
        <time>2021-04-23T14:24:24.000Z</time>
      </trkpt>
      <trkpt lat="43.335503" lon="-6.866488">
        <ele>457</ele>
        <time>2021-04-23T14:24:26.000Z</time>
      </trkpt>
      <trkpt lat="43.335418" lon="-6.866437">
        <ele>454.5</ele>
        <time>2021-04-23T14:24:28.000Z</time>
      </trkpt>
      <trkpt lat="43.335305" lon="-6.866397">
        <ele>451.1</ele>
        <time>2021-04-23T14:24:30.000Z</time>
      </trkpt>
      <trkpt lat="43.335187" lon="-6.866383">
        <ele>445</ele>
        <time>2021-04-23T14:24:32.000Z</time>
      </trkpt>
      <trkpt lat="43.335077" lon="-6.86638">
        <ele>440.9</ele>
        <time>2021-04-23T14:24:34.000Z</time>
      </trkpt>
      <trkpt lat="43.334972" lon="-6.866392">
        <ele>437.2</ele>
        <time>2021-04-23T14:24:36.000Z</time>
      </trkpt>
      <trkpt lat="43.334865" lon="-6.866413">
        <ele>435</ele>
        <time>2021-04-23T14:24:38.000Z</time>
      </trkpt>
      <trkpt lat="43.334763" lon="-6.866448">
        <ele>433.1</ele>
        <time>2021-04-23T14:24:40.000Z</time>
      </trkpt>
      <trkpt lat="43.334675" lon="-6.866473">
        <ele>432.3</ele>
        <time>2021-04-23T14:24:42.000Z</time>
      </trkpt>
      <trkpt lat="43.33458" lon="-6.86649">
        <ele>432.7</ele>
        <time>2021-04-23T14:24:44.000Z</time>
      </trkpt>
      <trkpt lat="43.334475" lon="-6.866512">
        <ele>432</ele>
        <time>2021-04-23T14:24:46.000Z</time>
      </trkpt>
      <trkpt lat="43.33438" lon="-6.866527">
        <ele>431.4</ele>
        <time>2021-04-23T14:24:48.000Z</time>
      </trkpt>
      <trkpt lat="43.33429" lon="-6.866553">
        <ele>430.6</ele>
        <time>2021-04-23T14:24:50.000Z</time>
      </trkpt>
      <trkpt lat="43.334193" lon="-6.866587">
        <ele>429.7</ele>
        <time>2021-04-23T14:24:52.000Z</time>
      </trkpt>
      <trkpt lat="43.334095" lon="-6.866632">
        <ele>428.6</ele>
        <time>2021-04-23T14:24:54.000Z</time>
      </trkpt>
      <trkpt lat="43.333998" lon="-6.866687">
        <ele>427.4</ele>
        <time>2021-04-23T14:24:56.000Z</time>
      </trkpt>
      <trkpt lat="43.333917" lon="-6.86675">
        <ele>426.5</ele>
        <time>2021-04-23T14:24:58.000Z</time>
      </trkpt>
      <trkpt lat="43.333825" lon="-6.866855">
        <ele>425.8</ele>
        <time>2021-04-23T14:26:01.000Z</time>
      </trkpt>
      <trkpt lat="43.333723" lon="-6.866928">
        <ele>425.4</ele>
        <time>2021-04-23T14:26:04.000Z</time>
      </trkpt>
      <trkpt lat="43.333618" lon="-6.867022">
        <ele>425.1</ele>
        <time>2021-04-23T14:26:07.000Z</time>
      </trkpt>
      <trkpt lat="43.333537" lon="-6.867118">
        <ele>425.6</ele>
        <time>2021-04-23T14:26:10.000Z</time>
      </trkpt>
      <trkpt lat="43.333458" lon="-6.867207">
        <ele>425.5</ele>
        <time>2021-04-23T14:26:13.000Z</time>
      </trkpt>
      <trkpt lat="43.33337" lon="-6.867292">
        <ele>424.6</ele>
        <time>2021-04-23T14:26:16.000Z</time>
      </trkpt>
      <trkpt lat="43.333268" lon="-6.867355">
        <ele>422.6</ele>
        <time>2021-04-23T14:26:19.000Z</time>
      </trkpt>
      <trkpt lat="43.333178" lon="-6.867407">
        <ele>421.5</ele>
        <time>2021-04-23T14:26:21.000Z</time>
      </trkpt>
      <trkpt lat="43.333082" lon="-6.86747">
        <ele>420.5</ele>
        <time>2021-04-23T14:26:23.000Z</time>
      </trkpt>
      <trkpt lat="43.332987" lon="-6.867495">
        <ele>419.6</ele>
        <time>2021-04-23T14:26:25.000Z</time>
      </trkpt>
      <trkpt lat="43.332883" lon="-6.867485">
        <ele>417.5</ele>
        <time>2021-04-23T14:26:28.000Z</time>
      </trkpt>
      <trkpt lat="43.332828" lon="-6.867377">
        <ele>414.7</ele>
        <time>2021-04-23T14:26:31.000Z</time>
      </trkpt>
      <trkpt lat="43.332847" lon="-6.867237">
        <ele>412.6</ele>
        <time>2021-04-23T14:26:33.000Z</time>
      </trkpt>
      <trkpt lat="43.332902" lon="-6.867093">
        <ele>410.7</ele>
        <time>2021-04-23T14:26:35.000Z</time>
      </trkpt>
      <trkpt lat="43.332972" lon="-6.866947">
        <ele>408.2</ele>
        <time>2021-04-23T14:26:37.000Z</time>
      </trkpt>
      <trkpt lat="43.333042" lon="-6.866795">
        <ele>405.3</ele>
        <time>2021-04-23T14:26:39.000Z</time>
      </trkpt>
      <trkpt lat="43.333117" lon="-6.866632">
        <ele>403.2</ele>
        <time>2021-04-23T14:26:41.000Z</time>
      </trkpt>
      <trkpt lat="43.333193" lon="-6.86646">
        <ele>401.1</ele>
        <time>2021-04-23T14:26:43.000Z</time>
      </trkpt>
      <trkpt lat="43.333268" lon="-6.866278">
        <ele>399.4</ele>
        <time>2021-04-23T14:26:45.000Z</time>
      </trkpt>
      <trkpt lat="43.33334" lon="-6.866112">
        <ele>398.3</ele>
        <time>2021-04-23T14:26:47.000Z</time>
      </trkpt>
      <trkpt lat="43.333408" lon="-6.865962">
        <ele>397.5</ele>
        <time>2021-04-23T14:26:49.000Z</time>
      </trkpt>
      <trkpt lat="43.33347" lon="-6.86582">
        <ele>396.6</ele>
        <time>2021-04-23T14:26:51.000Z</time>
      </trkpt>
      <trkpt lat="43.333517" lon="-6.865713">
        <ele>395.5</ele>
        <time>2021-04-23T14:26:53.000Z</time>
      </trkpt>
      <trkpt lat="43.333563" lon="-6.865593">
        <ele>394</ele>
        <time>2021-04-23T14:27:23.000Z</time>
      </trkpt>
      <trkpt lat="43.333615" lon="-6.865457">
        <ele>393.4</ele>
        <time>2021-04-23T14:27:27.000Z</time>
      </trkpt>
      <trkpt lat="43.333528" lon="-6.865393">
        <ele>394.1</ele>
        <time>2021-04-23T14:27:36.000Z</time>
      </trkpt>
      <trkpt lat="43.333443" lon="-6.865453">
        <ele>393.7</ele>
        <time>2021-04-23T14:27:38.000Z</time>
      </trkpt>
      <trkpt lat="43.33334" lon="-6.865552">
        <ele>392.8</ele>
        <time>2021-04-23T14:27:40.000Z</time>
      </trkpt>
      <trkpt lat="43.333237" lon="-6.865653">
        <ele>392.5</ele>
        <time>2021-04-23T14:27:42.000Z</time>
      </trkpt>
      <trkpt lat="43.33313" lon="-6.865765">
        <ele>392.5</ele>
        <time>2021-04-23T14:27:44.000Z</time>
      </trkpt>
      <trkpt lat="43.333022" lon="-6.865903">
        <ele>391.9</ele>
        <time>2021-04-23T14:27:46.000Z</time>
      </trkpt>
      <trkpt lat="43.332912" lon="-6.86605">
        <ele>391.3</ele>
        <time>2021-04-23T14:27:48.000Z</time>
      </trkpt>
      <trkpt lat="43.33281" lon="-6.866202">
        <ele>391</ele>
        <time>2021-04-23T14:27:50.000Z</time>
      </trkpt>
      <trkpt lat="43.3327" lon="-6.866358">
        <ele>391.3</ele>
        <time>2021-04-23T14:27:52.000Z</time>
      </trkpt>
      <trkpt lat="43.332598" lon="-6.866497">
        <ele>391.9</ele>
        <time>2021-04-23T14:27:54.000Z</time>
      </trkpt>
      <trkpt lat="43.332493" lon="-6.866623">
        <ele>392.7</ele>
        <time>2021-04-23T14:27:56.000Z</time>
      </trkpt>
      <trkpt lat="43.332393" lon="-6.866745">
        <ele>393</ele>
        <time>2021-04-23T14:27:58.000Z</time>
      </trkpt>
      <trkpt lat="43.332303" lon="-6.866887">
        <ele>392.8</ele>
        <time>2021-04-23T14:28:00.000Z</time>
      </trkpt>
      <trkpt lat="43.33219" lon="-6.867063">
        <ele>392.4</ele>
        <time>2021-04-23T14:28:02.000Z</time>
      </trkpt>
      <trkpt lat="43.33208" lon="-6.86725">
        <ele>392.2</ele>
        <time>2021-04-23T14:28:04.000Z</time>
      </trkpt>
      <trkpt lat="43.33198" lon="-6.867443">
        <ele>391.4</ele>
        <time>2021-04-23T14:28:06.000Z</time>
      </trkpt>
      <trkpt lat="43.331885" lon="-6.867645">
        <ele>391.8</ele>
        <time>2021-04-23T14:28:08.000Z</time>
      </trkpt>
      <trkpt lat="43.331808" lon="-6.867852">
        <ele>392.1</ele>
        <time>2021-04-23T14:28:10.000Z</time>
      </trkpt>
      <trkpt lat="43.33175" lon="-6.868043">
        <ele>391.2</ele>
        <time>2021-04-23T14:28:12.000Z</time>
      </trkpt>
      <trkpt lat="43.331683" lon="-6.868208">
        <ele>390</ele>
        <time>2021-04-23T14:28:14.000Z</time>
      </trkpt>
      <trkpt lat="43.33159" lon="-6.868338">
        <ele>390.1</ele>
        <time>2021-04-23T14:28:16.000Z</time>
      </trkpt>
      <trkpt lat="43.33147" lon="-6.868433">
        <ele>389.8</ele>
        <time>2021-04-23T14:28:18.000Z</time>
      </trkpt>
      <trkpt lat="43.331328" lon="-6.868418">
        <ele>393.1</ele>
        <time>2021-04-23T14:28:20.000Z</time>
      </trkpt>
      <trkpt lat="43.331173" lon="-6.868387">
        <ele>393.3</ele>
        <time>2021-04-23T14:28:22.000Z</time>
      </trkpt>
      <trkpt lat="43.331013" lon="-6.868335">
        <ele>393.4</ele>
        <time>2021-04-23T14:28:24.000Z</time>
      </trkpt>
      <trkpt lat="43.330867" lon="-6.868273">
        <ele>393.6</ele>
        <time>2021-04-23T14:28:26.000Z</time>
      </trkpt>
      <trkpt lat="43.330737" lon="-6.868185">
        <ele>393.7</ele>
        <time>2021-04-23T14:28:28.000Z</time>
      </trkpt>
      <trkpt lat="43.330613" lon="-6.868077">
        <ele>394</ele>
        <time>2021-04-23T14:28:30.000Z</time>
      </trkpt>
      <trkpt lat="43.33049" lon="-6.868">
        <ele>394</ele>
        <time>2021-04-23T14:28:32.000Z</time>
      </trkpt>
      <trkpt lat="43.330373" lon="-6.867952">
        <ele>394.2</ele>
        <time>2021-04-23T14:28:34.000Z</time>
      </trkpt>
      <trkpt lat="43.330268" lon="-6.867907">
        <ele>394.4</ele>
        <time>2021-04-23T14:28:36.000Z</time>
      </trkpt>
      <trkpt lat="43.330165" lon="-6.867848">
        <ele>396.3</ele>
        <time>2021-04-23T14:28:38.000Z</time>
      </trkpt>
      <trkpt lat="43.330053" lon="-6.86782">
        <ele>398.1</ele>
        <time>2021-04-23T14:28:40.000Z</time>
      </trkpt>
      <trkpt lat="43.329922" lon="-6.867807">
        <ele>399.9</ele>
        <time>2021-04-23T14:28:42.000Z</time>
      </trkpt>
      <trkpt lat="43.329773" lon="-6.867823">
        <ele>402.4</ele>
        <time>2021-04-23T14:28:44.000Z</time>
      </trkpt>
      <trkpt lat="43.329632" lon="-6.86788">
        <ele>403.8</ele>
        <time>2021-04-23T14:28:46.000Z</time>
      </trkpt>
      <trkpt lat="43.329497" lon="-6.867972">
        <ele>404.6</ele>
        <time>2021-04-23T14:28:48.000Z</time>
      </trkpt>
      <trkpt lat="43.329363" lon="-6.868075">
        <ele>405.3</ele>
        <time>2021-04-23T14:28:50.000Z</time>
      </trkpt>
      <trkpt lat="43.329257" lon="-6.868195">
        <ele>406.5</ele>
        <time>2021-04-23T14:28:52.000Z</time>
      </trkpt>
      <trkpt lat="43.32917" lon="-6.868298">
        <ele>407.6</ele>
        <time>2021-04-23T14:28:54.000Z</time>
      </trkpt>
      <trkpt lat="43.329092" lon="-6.868373">
        <ele>409.4</ele>
        <time>2021-04-23T14:28:56.000Z</time>
      </trkpt>
      <trkpt lat="43.329028" lon="-6.868468">
        <ele>410.6</ele>
        <time>2021-04-23T14:28:58.000Z</time>
      </trkpt>
      <trkpt lat="43.328973" lon="-6.868597">
        <ele>411.9</ele>
        <time>2021-04-23T14:29:00.000Z</time>
      </trkpt>
      <trkpt lat="43.328928" lon="-6.868732">
        <ele>413.4</ele>
        <time>2021-04-23T14:29:02.000Z</time>
      </trkpt>
      <trkpt lat="43.328878" lon="-6.868875">
        <ele>414.5</ele>
        <time>2021-04-23T14:29:04.000Z</time>
      </trkpt>
      <trkpt lat="43.32884" lon="-6.869037">
        <ele>415.6</ele>
        <time>2021-04-23T14:29:06.000Z</time>
      </trkpt>
      <trkpt lat="43.3288" lon="-6.86918">
        <ele>416.6</ele>
        <time>2021-04-23T14:29:08.000Z</time>
      </trkpt>
      <trkpt lat="43.328753" lon="-6.869327">
        <ele>417.6</ele>
        <time>2021-04-23T14:29:10.000Z</time>
      </trkpt>
      <trkpt lat="43.328712" lon="-6.869462">
        <ele>418.2</ele>
        <time>2021-04-23T14:29:12.000Z</time>
      </trkpt>
      <trkpt lat="43.328657" lon="-6.869628">
        <ele>419</ele>
        <time>2021-04-23T14:29:14.000Z</time>
      </trkpt>
      <trkpt lat="43.3286" lon="-6.869773">
        <ele>420.9</ele>
        <time>2021-04-23T14:29:16.000Z</time>
      </trkpt>
      <trkpt lat="43.32853" lon="-6.869915">
        <ele>423.1</ele>
        <time>2021-04-23T14:29:18.000Z</time>
      </trkpt>
      <trkpt lat="43.328442" lon="-6.870045">
        <ele>425.1</ele>
        <time>2021-04-23T14:29:20.000Z</time>
      </trkpt>
      <trkpt lat="43.328355" lon="-6.870168">
        <ele>427</ele>
        <time>2021-04-23T14:29:22.000Z</time>
      </trkpt>
      <trkpt lat="43.328273" lon="-6.870312">
        <ele>428.3</ele>
        <time>2021-04-23T14:29:24.000Z</time>
      </trkpt>
      <trkpt lat="43.328213" lon="-6.870465">
        <ele>428.2</ele>
        <time>2021-04-23T14:29:26.000Z</time>
      </trkpt>
      <trkpt lat="43.328162" lon="-6.870602">
        <ele>429.9</ele>
        <time>2021-04-23T14:29:28.000Z</time>
      </trkpt>
      <trkpt lat="43.328088" lon="-6.870693">
        <ele>431.5</ele>
        <time>2021-04-23T14:29:30.000Z</time>
      </trkpt>
      <trkpt lat="43.327987" lon="-6.870698">
        <ele>433.3</ele>
        <time>2021-04-23T14:29:32.000Z</time>
      </trkpt>
      <trkpt lat="43.327862" lon="-6.870663">
        <ele>435.5</ele>
        <time>2021-04-23T14:29:34.000Z</time>
      </trkpt>
      <trkpt lat="43.327737" lon="-6.870653">
        <ele>437</ele>
        <time>2021-04-23T14:29:36.000Z</time>
      </trkpt>
      <trkpt lat="43.32763" lon="-6.870692">
        <ele>438.2</ele>
        <time>2021-04-23T14:29:38.000Z</time>
      </trkpt>
      <trkpt lat="43.327515" lon="-6.870742">
        <ele>439.5</ele>
        <time>2021-04-23T14:29:40.000Z</time>
      </trkpt>
      <trkpt lat="43.327388" lon="-6.870772">
        <ele>441</ele>
        <time>2021-04-23T14:29:42.000Z</time>
      </trkpt>
      <trkpt lat="43.327267" lon="-6.870788">
        <ele>442.1</ele>
        <time>2021-04-23T14:29:44.000Z</time>
      </trkpt>
      <trkpt lat="43.327162" lon="-6.870798">
        <ele>442.5</ele>
        <time>2021-04-23T14:29:46.000Z</time>
      </trkpt>
      <trkpt lat="43.327072" lon="-6.87082">
        <ele>443.1</ele>
        <time>2021-04-23T14:29:48.000Z</time>
      </trkpt>
      <trkpt lat="43.32696" lon="-6.8709">
        <ele>442.9</ele>
        <time>2021-04-23T14:29:51.000Z</time>
      </trkpt>
      <trkpt lat="43.326868" lon="-6.871032">
        <ele>442.6</ele>
        <time>2021-04-23T14:29:54.000Z</time>
      </trkpt>
      <trkpt lat="43.326817" lon="-6.871155">
        <ele>441.8</ele>
        <time>2021-04-23T14:29:56.000Z</time>
      </trkpt>
      <trkpt lat="43.326773" lon="-6.871302">
        <ele>440</ele>
        <time>2021-04-23T14:29:58.000Z</time>
      </trkpt>
      <trkpt lat="43.32674" lon="-6.871433">
        <ele>438.3</ele>
        <time>2021-04-23T14:30:00.000Z</time>
      </trkpt>
      <trkpt lat="43.326688" lon="-6.871588">
        <ele>434.4</ele>
        <time>2021-04-23T14:30:03.000Z</time>
      </trkpt>
      <trkpt lat="43.326582" lon="-6.871655">
        <ele>433.8</ele>
        <time>2021-04-23T14:30:06.000Z</time>
      </trkpt>
      <trkpt lat="43.326475" lon="-6.871617">
        <ele>433.7</ele>
        <time>2021-04-23T14:30:08.000Z</time>
      </trkpt>
      <trkpt lat="43.32638" lon="-6.871555">
        <ele>435</ele>
        <time>2021-04-23T14:30:10.000Z</time>
      </trkpt>
      <trkpt lat="43.326278" lon="-6.871495">
        <ele>437.3</ele>
        <time>2021-04-23T14:30:13.000Z</time>
      </trkpt>
      <trkpt lat="43.32619" lon="-6.87134">
        <ele>441.1</ele>
        <time>2021-04-23T14:30:16.000Z</time>
      </trkpt>
      <trkpt lat="43.326123" lon="-6.871197">
        <ele>442.5</ele>
        <time>2021-04-23T14:30:18.000Z</time>
      </trkpt>
      <trkpt lat="43.326052" lon="-6.871057">
        <ele>446</ele>
        <time>2021-04-23T14:30:20.000Z</time>
      </trkpt>
      <trkpt lat="43.325972" lon="-6.870948">
        <ele>450.8</ele>
        <time>2021-04-23T14:30:22.000Z</time>
      </trkpt>
      <trkpt lat="43.325893" lon="-6.870868">
        <ele>454.3</ele>
        <time>2021-04-23T14:30:24.000Z</time>
      </trkpt>
      <trkpt lat="43.32576" lon="-6.8708">
        <ele>457.4</ele>
        <time>2021-04-23T14:30:27.000Z</time>
      </trkpt>
      <trkpt lat="43.32566" lon="-6.870793">
        <ele>458.6</ele>
        <time>2021-04-23T14:30:29.000Z</time>
      </trkpt>
      <trkpt lat="43.325563" lon="-6.870833">
        <ele>459.8</ele>
        <time>2021-04-23T14:30:31.000Z</time>
      </trkpt>
      <trkpt lat="43.325478" lon="-6.870892">
        <ele>460.8</ele>
        <time>2021-04-23T14:30:33.000Z</time>
      </trkpt>
      <trkpt lat="43.325368" lon="-6.870975">
        <ele>462</ele>
        <time>2021-04-23T14:30:36.000Z</time>
      </trkpt>
      <trkpt lat="43.32527" lon="-6.871038">
        <ele>462.6</ele>
        <time>2021-04-23T14:30:39.000Z</time>
      </trkpt>
      <trkpt lat="43.325165" lon="-6.871108">
        <ele>463.3</ele>
        <time>2021-04-23T14:30:42.000Z</time>
      </trkpt>
      <trkpt lat="43.32507" lon="-6.87119">
        <ele>464.3</ele>
        <time>2021-04-23T14:30:45.000Z</time>
      </trkpt>
      <trkpt lat="43.32499" lon="-6.87129">
        <ele>465.5</ele>
        <time>2021-04-23T14:30:48.000Z</time>
      </trkpt>
      <trkpt lat="43.32491" lon="-6.871408">
        <ele>467.9</ele>
        <time>2021-04-23T14:30:51.000Z</time>
      </trkpt>
      <trkpt lat="43.324835" lon="-6.871535">
        <ele>468.8</ele>
        <time>2021-04-23T14:30:54.000Z</time>
      </trkpt>
      <trkpt lat="43.324732" lon="-6.871645">
        <ele>470.2</ele>
        <time>2021-04-23T14:30:57.000Z</time>
      </trkpt>
      <trkpt lat="43.324655" lon="-6.87171">
        <ele>471</ele>
        <time>2021-04-23T14:30:59.000Z</time>
      </trkpt>
      <trkpt lat="43.32458" lon="-6.871815">
        <ele>472.3</ele>
        <time>2021-04-23T14:31:01.000Z</time>
      </trkpt>
      <trkpt lat="43.324492" lon="-6.871955">
        <ele>473.6</ele>
        <time>2021-04-23T14:31:03.000Z</time>
      </trkpt>
      <trkpt lat="43.324418" lon="-6.872077">
        <ele>475.3</ele>
        <time>2021-04-23T14:31:05.000Z</time>
      </trkpt>
      <trkpt lat="43.32436" lon="-6.87218">
        <ele>477.6</ele>
        <time>2021-04-23T14:31:07.000Z</time>
      </trkpt>
      <trkpt lat="43.32426" lon="-6.87231">
        <ele>480.2</ele>
        <time>2021-04-23T14:31:10.000Z</time>
      </trkpt>
      <trkpt lat="43.324197" lon="-6.8724">
        <ele>482.2</ele>
        <time>2021-04-23T14:31:12.000Z</time>
      </trkpt>
      <trkpt lat="43.324108" lon="-6.872537">
        <ele>485.2</ele>
        <time>2021-04-23T14:31:15.000Z</time>
      </trkpt>
      <trkpt lat="43.324027" lon="-6.872668">
        <ele>487.2</ele>
        <time>2021-04-23T14:31:18.000Z</time>
      </trkpt>
      <trkpt lat="43.32398" lon="-6.872857">
        <ele>487.7</ele>
        <time>2021-04-23T14:31:21.000Z</time>
      </trkpt>
      <trkpt lat="43.323958" lon="-6.872978">
        <ele>488.4</ele>
        <time>2021-04-23T14:31:23.000Z</time>
      </trkpt>
      <trkpt lat="43.323912" lon="-6.873142">
        <ele>492.5</ele>
        <time>2021-04-23T14:31:26.000Z</time>
      </trkpt>
      <trkpt lat="43.323848" lon="-6.873275">
        <ele>493.6</ele>
        <time>2021-04-23T14:31:29.000Z</time>
      </trkpt>
      <trkpt lat="43.323793" lon="-6.873393">
        <ele>491.1</ele>
        <time>2021-04-23T14:31:32.000Z</time>
      </trkpt>
      <trkpt lat="43.323705" lon="-6.873427">
        <ele>491.1</ele>
        <time>2021-04-23T14:31:34.000Z</time>
      </trkpt>
      <trkpt lat="43.323603" lon="-6.873422">
        <ele>490.4</ele>
        <time>2021-04-23T14:31:37.000Z</time>
      </trkpt>
      <trkpt lat="43.323498" lon="-6.87336">
        <ele>491.5</ele>
        <time>2021-04-23T14:31:40.000Z</time>
      </trkpt>
      <trkpt lat="43.323398" lon="-6.873303">
        <ele>493.1</ele>
        <time>2021-04-23T14:31:44.000Z</time>
      </trkpt>
      <trkpt lat="43.323313" lon="-6.87324">
        <ele>496.7</ele>
        <time>2021-04-23T14:31:47.000Z</time>
      </trkpt>
      <trkpt lat="43.32322" lon="-6.87319">
        <ele>498.7</ele>
        <time>2021-04-23T14:31:50.000Z</time>
      </trkpt>
      <trkpt lat="43.323118" lon="-6.87318">
        <ele>501.4</ele>
        <time>2021-04-23T14:31:54.000Z</time>
      </trkpt>
      <trkpt lat="43.32302" lon="-6.873185">
        <ele>505.9</ele>
        <time>2021-04-23T14:31:58.000Z</time>
      </trkpt>
      <trkpt lat="43.322923" lon="-6.873205">
        <ele>507.6</ele>
        <time>2021-04-23T14:32:02.000Z</time>
      </trkpt>
      <trkpt lat="43.322802" lon="-6.873262">
        <ele>508.8</ele>
        <time>2021-04-23T14:32:05.000Z</time>
      </trkpt>
      <trkpt lat="43.322703" lon="-6.873317">
        <ele>511</ele>
        <time>2021-04-23T14:32:07.000Z</time>
      </trkpt>
      <trkpt lat="43.322613" lon="-6.873383">
        <ele>511.9</ele>
        <time>2021-04-23T14:32:09.000Z</time>
      </trkpt>
      <trkpt lat="43.322525" lon="-6.873435">
        <ele>512.2</ele>
        <time>2021-04-23T14:32:11.000Z</time>
      </trkpt>
      <trkpt lat="43.322435" lon="-6.873468">
        <ele>512</ele>
        <time>2021-04-23T14:32:13.000Z</time>
      </trkpt>
      <trkpt lat="43.32233" lon="-6.87351">
        <ele>513.3</ele>
        <time>2021-04-23T14:32:16.000Z</time>
      </trkpt>
      <trkpt lat="43.322242" lon="-6.873545">
        <ele>515.1</ele>
        <time>2021-04-23T14:32:20.000Z</time>
      </trkpt>
      <trkpt lat="43.322145" lon="-6.873462">
        <ele>519</ele>
        <time>2021-04-23T14:32:24.000Z</time>
      </trkpt>
      <trkpt lat="43.322082" lon="-6.873367">
        <ele>522.5</ele>
        <time>2021-04-23T14:32:28.000Z</time>
      </trkpt>
      <trkpt lat="43.321995" lon="-6.873307">
        <ele>522.5</ele>
        <time>2021-04-23T14:32:44.000Z</time>
      </trkpt>
      <trkpt lat="43.321878" lon="-6.87323">
        <ele>524.1</ele>
        <time>2021-04-23T14:32:47.000Z</time>
      </trkpt>
      <trkpt lat="43.32179" lon="-6.873193">
        <ele>524.9</ele>
        <time>2021-04-23T14:32:49.000Z</time>
      </trkpt>
      <trkpt lat="43.3217" lon="-6.873167">
        <ele>525.2</ele>
        <time>2021-04-23T14:32:51.000Z</time>
      </trkpt>
      <trkpt lat="43.321583" lon="-6.873145">
        <ele>525.3</ele>
        <time>2021-04-23T14:32:54.000Z</time>
      </trkpt>
      <trkpt lat="43.321485" lon="-6.873173">
        <ele>526.3</ele>
        <time>2021-04-23T14:32:57.000Z</time>
      </trkpt>
      <trkpt lat="43.321393" lon="-6.873205">
        <ele>527.3</ele>
        <time>2021-04-23T14:33:00.000Z</time>
      </trkpt>
      <trkpt lat="43.321295" lon="-6.873208">
        <ele>529.2</ele>
        <time>2021-04-23T14:35:03.000Z</time>
      </trkpt>
      <trkpt lat="43.321205" lon="-6.873253">
        <ele>529.5</ele>
        <time>2021-04-23T14:35:06.000Z</time>
      </trkpt>
      <trkpt lat="43.321108" lon="-6.873298">
        <ele>530.5</ele>
        <time>2021-04-23T14:35:09.000Z</time>
      </trkpt>
      <trkpt lat="43.320997" lon="-6.873385">
        <ele>531.5</ele>
        <time>2021-04-23T14:35:12.000Z</time>
      </trkpt>
      <trkpt lat="43.320897" lon="-6.873492">
        <ele>533</ele>
        <time>2021-04-23T14:35:15.000Z</time>
      </trkpt>
      <trkpt lat="43.320822" lon="-6.873605">
        <ele>535.3</ele>
        <time>2021-04-23T14:35:18.000Z</time>
      </trkpt>
      <trkpt lat="43.32075" lon="-6.873725">
        <ele>539.8</ele>
        <time>2021-04-23T14:35:21.000Z</time>
      </trkpt>
      <trkpt lat="43.320702" lon="-6.87383">
        <ele>544.5</ele>
        <time>2021-04-23T14:35:24.000Z</time>
      </trkpt>
      <trkpt lat="43.32061" lon="-6.873938">
        <ele>547.3</ele>
        <time>2021-04-23T14:35:27.000Z</time>
      </trkpt>
      <trkpt lat="43.32051" lon="-6.874023">
        <ele>549.2</ele>
        <time>2021-04-23T14:35:30.000Z</time>
      </trkpt>
      <trkpt lat="43.32041" lon="-6.874077">
        <ele>549.7</ele>
        <time>2021-04-23T14:35:34.000Z</time>
      </trkpt>
      <trkpt lat="43.320303" lon="-6.874118">
        <ele>549.8</ele>
        <time>2021-04-23T14:35:38.000Z</time>
      </trkpt>
      <trkpt lat="43.32019" lon="-6.874153">
        <ele>550.1</ele>
        <time>2021-04-23T14:35:42.000Z</time>
      </trkpt>
      <trkpt lat="43.320087" lon="-6.874193">
        <ele>551</ele>
        <time>2021-04-23T14:35:45.000Z</time>
      </trkpt>
      <trkpt lat="43.319997" lon="-6.874162">
        <ele>552.3</ele>
        <time>2021-04-23T14:35:49.000Z</time>
      </trkpt>
      <trkpt lat="43.320015" lon="-6.874037">
        <ele>553</ele>
        <time>2021-04-23T14:35:52.000Z</time>
      </trkpt>
      <trkpt lat="43.319987" lon="-6.87386">
        <ele>554.4</ele>
        <time>2021-04-23T14:35:55.000Z</time>
      </trkpt>
      <trkpt lat="43.319868" lon="-6.873748">
        <ele>554.3</ele>
        <time>2021-04-23T14:36:30.000Z</time>
      </trkpt>
      <trkpt lat="43.319912" lon="-6.873882">
        <ele>553.7</ele>
        <time>2021-04-23T14:36:46.000Z</time>
      </trkpt>
      <trkpt lat="43.31994" lon="-6.874035">
        <ele>553.2</ele>
        <time>2021-04-23T14:37:02.000Z</time>
      </trkpt>
      <trkpt lat="43.319855" lon="-6.874077">
        <ele>552.8</ele>
        <time>2021-04-23T14:37:17.000Z</time>
      </trkpt>
      <trkpt lat="43.31975" lon="-6.874093">
        <ele>552.5</ele>
        <time>2021-04-23T14:37:28.000Z</time>
      </trkpt>
      <trkpt lat="43.31984" lon="-6.874125">
        <ele>555.8</ele>
        <time>2021-04-23T14:37:45.000Z</time>
      </trkpt>
      <trkpt lat="43.31994" lon="-6.87411">
        <ele>558.6</ele>
        <time>2021-04-23T14:37:52.000Z</time>
      </trkpt>
      <trkpt lat="43.320035" lon="-6.87417">
        <ele>558.7</ele>
        <time>2021-04-23T14:38:16.000Z</time>
      </trkpt>
      <trkpt lat="43.319902" lon="-6.874072">
        <ele>556.1</ele>
        <time>2021-04-23T14:38:26.000Z</time>
      </trkpt>
      <trkpt lat="43.319808" lon="-6.874078">
        <ele>554.8</ele>
        <time>2021-04-23T14:38:32.000Z</time>
      </trkpt>
      <trkpt lat="43.319875" lon="-6.873993">
        <ele>552.8</ele>
        <time>2021-04-23T14:38:49.000Z</time>
      </trkpt>
      <trkpt lat="43.319933" lon="-6.87389">
        <ele>554.1</ele>
        <time>2021-04-23T14:39:00.000Z</time>
      </trkpt>
      <trkpt lat="43.31991" lon="-6.873733">
        <ele>554.9</ele>
        <time>2021-04-23T14:41:28.000Z</time>
      </trkpt>
      <trkpt lat="43.319978" lon="-6.873817">
        <ele>555.3</ele>
        <time>2021-04-23T14:42:08.000Z</time>
      </trkpt>
      <trkpt lat="43.319957" lon="-6.873692">
        <ele>554.8</ele>
        <time>2021-04-23T14:42:24.000Z</time>
      </trkpt>
      <trkpt lat="43.319997" lon="-6.87356">
        <ele>552.5</ele>
        <time>2021-04-23T14:42:47.000Z</time>
      </trkpt>
      <trkpt lat="43.319932" lon="-6.873432">
        <ele>550.4</ele>
        <time>2021-04-23T14:42:49.000Z</time>
      </trkpt>
      <trkpt lat="43.319907" lon="-6.873303">
        <ele>549.7</ele>
        <time>2021-04-23T14:42:52.000Z</time>
      </trkpt>
      <trkpt lat="43.319898" lon="-6.873178">
        <ele>550.5</ele>
        <time>2021-04-23T14:42:56.000Z</time>
      </trkpt>
      <trkpt lat="43.319885" lon="-6.873045">
        <ele>552.1</ele>
        <time>2021-04-23T14:43:01.000Z</time>
      </trkpt>
      <trkpt lat="43.319817" lon="-6.872922">
        <ele>550.8</ele>
        <time>2021-04-23T14:43:04.000Z</time>
      </trkpt>
      <trkpt lat="43.319765" lon="-6.872815">
        <ele>551.1</ele>
        <time>2021-04-23T14:43:07.000Z</time>
      </trkpt>
      <trkpt lat="43.319755" lon="-6.872677">
        <ele>556.2</ele>
        <time>2021-04-23T14:43:21.000Z</time>
      </trkpt>
      <trkpt lat="43.31977" lon="-6.872552">
        <ele>557.6</ele>
        <time>2021-04-23T14:43:25.000Z</time>
      </trkpt>
      <trkpt lat="43.319762" lon="-6.872418">
        <ele>559.2</ele>
        <time>2021-04-23T14:43:30.000Z</time>
      </trkpt>
      <trkpt lat="43.319737" lon="-6.872277">
        <ele>560.4</ele>
        <time>2021-04-23T14:43:35.000Z</time>
      </trkpt>
      <trkpt lat="43.319722" lon="-6.872127">
        <ele>562.8</ele>
        <time>2021-04-23T14:43:41.000Z</time>
      </trkpt>
      <trkpt lat="43.319677" lon="-6.872013">
        <ele>564.8</ele>
        <time>2021-04-23T14:43:45.000Z</time>
      </trkpt>
      <trkpt lat="43.319635" lon="-6.871882">
        <ele>568.2</ele>
        <time>2021-04-23T14:43:49.000Z</time>
      </trkpt>
      <trkpt lat="43.319608" lon="-6.871742">
        <ele>572.4</ele>
        <time>2021-04-23T14:43:53.000Z</time>
      </trkpt>
      <trkpt lat="43.319578" lon="-6.871605">
        <ele>574.9</ele>
        <time>2021-04-23T14:43:57.000Z</time>
      </trkpt>
      <trkpt lat="43.319542" lon="-6.871485">
        <ele>577.6</ele>
        <time>2021-04-23T14:44:00.000Z</time>
      </trkpt>
      <trkpt lat="43.319515" lon="-6.871333">
        <ele>578.5</ele>
        <time>2021-04-23T14:44:04.000Z</time>
      </trkpt>
      <trkpt lat="43.31946" lon="-6.871187">
        <ele>582</ele>
        <time>2021-04-23T14:44:08.000Z</time>
      </trkpt>
      <trkpt lat="43.319407" lon="-6.871073">
        <ele>584.1</ele>
        <time>2021-04-23T14:44:11.000Z</time>
      </trkpt>
      <trkpt lat="43.31935" lon="-6.870943">
        <ele>586.8</ele>
        <time>2021-04-23T14:44:14.000Z</time>
      </trkpt>
      <trkpt lat="43.319277" lon="-6.870808">
        <ele>589.4</ele>
        <time>2021-04-23T14:44:17.000Z</time>
      </trkpt>
      <trkpt lat="43.319175" lon="-6.870722">
        <ele>589.2</ele>
        <time>2021-04-23T14:44:20.000Z</time>
      </trkpt>
      <trkpt lat="43.319072" lon="-6.87068">
        <ele>587.4</ele>
        <time>2021-04-23T14:44:23.000Z</time>
      </trkpt>
      <trkpt lat="43.318975" lon="-6.870658">
        <ele>583.8</ele>
        <time>2021-04-23T14:44:26.000Z</time>
      </trkpt>
      <trkpt lat="43.318868" lon="-6.870623">
        <ele>580.8</ele>
        <time>2021-04-23T14:44:29.000Z</time>
      </trkpt>
      <trkpt lat="43.318745" lon="-6.87058">
        <ele>578.3</ele>
        <time>2021-04-23T14:44:32.000Z</time>
      </trkpt>
      <trkpt lat="43.31862" lon="-6.870563">
        <ele>576.4</ele>
        <time>2021-04-23T14:44:35.000Z</time>
      </trkpt>
      <trkpt lat="43.318488" lon="-6.8706">
        <ele>574</ele>
        <time>2021-04-23T14:44:38.000Z</time>
      </trkpt>
      <trkpt lat="43.318408" lon="-6.870657">
        <ele>574.1</ele>
        <time>2021-04-23T14:44:40.000Z</time>
      </trkpt>
      <trkpt lat="43.31832" lon="-6.870737">
        <ele>573.9</ele>
        <time>2021-04-23T14:44:42.000Z</time>
      </trkpt>
      <trkpt lat="43.318243" lon="-6.870832">
        <ele>574.2</ele>
        <time>2021-04-23T14:44:44.000Z</time>
      </trkpt>
      <trkpt lat="43.318175" lon="-6.870923">
        <ele>574.5</ele>
        <time>2021-04-23T14:44:46.000Z</time>
      </trkpt>
      <trkpt lat="43.318097" lon="-6.871063">
        <ele>572.9</ele>
        <time>2021-04-23T14:44:49.000Z</time>
      </trkpt>
      <trkpt lat="43.318015" lon="-6.8712">
        <ele>572.2</ele>
        <time>2021-04-23T14:44:52.000Z</time>
      </trkpt>
      <trkpt lat="43.317953" lon="-6.871302">
        <ele>571.1</ele>
        <time>2021-04-23T14:44:54.000Z</time>
      </trkpt>
      <trkpt lat="43.317885" lon="-6.871423">
        <ele>570.9</ele>
        <time>2021-04-23T14:44:56.000Z</time>
      </trkpt>
      <trkpt lat="43.31782" lon="-6.87155">
        <ele>570.5</ele>
        <time>2021-04-23T14:44:58.000Z</time>
      </trkpt>
      <trkpt lat="43.317765" lon="-6.871663">
        <ele>569.5</ele>
        <time>2021-04-23T14:45:00.000Z</time>
      </trkpt>
      <trkpt lat="43.317717" lon="-6.871783">
        <ele>568.2</ele>
        <time>2021-04-23T14:45:03.000Z</time>
      </trkpt>
      <trkpt lat="43.317672" lon="-6.871895">
        <ele>566.2</ele>
        <time>2021-04-23T14:45:06.000Z</time>
      </trkpt>
      <trkpt lat="43.317597" lon="-6.872053">
        <ele>565</ele>
        <time>2021-04-23T14:45:09.000Z</time>
      </trkpt>
      <trkpt lat="43.317512" lon="-6.872185">
        <ele>564.4</ele>
        <time>2021-04-23T14:45:12.000Z</time>
      </trkpt>
      <trkpt lat="43.31744" lon="-6.872318">
        <ele>563.3</ele>
        <time>2021-04-23T14:45:15.000Z</time>
      </trkpt>
      <trkpt lat="43.317362" lon="-6.872448">
        <ele>562.2</ele>
        <time>2021-04-23T14:45:18.000Z</time>
      </trkpt>
      <trkpt lat="43.317267" lon="-6.872568">
        <ele>561.7</ele>
        <time>2021-04-23T14:45:21.000Z</time>
      </trkpt>
      <trkpt lat="43.317177" lon="-6.87268">
        <ele>560.8</ele>
        <time>2021-04-23T14:45:24.000Z</time>
      </trkpt>
      <trkpt lat="43.317125" lon="-6.872783">
        <ele>560.9</ele>
        <time>2021-04-23T14:45:28.000Z</time>
      </trkpt>
      <trkpt lat="43.31703" lon="-6.872805">
        <ele>567.2</ele>
        <time>2021-04-23T14:45:32.000Z</time>
      </trkpt>
      <trkpt lat="43.316913" lon="-6.872775">
        <ele>571.9</ele>
        <time>2021-04-23T14:45:38.000Z</time>
      </trkpt>
      <trkpt lat="43.316815" lon="-6.872697">
        <ele>575.1</ele>
        <time>2021-04-23T14:45:41.000Z</time>
      </trkpt>
      <trkpt lat="43.316715" lon="-6.872642">
        <ele>577.6</ele>
        <time>2021-04-23T14:45:44.000Z</time>
      </trkpt>
      <trkpt lat="43.316615" lon="-6.872577">
        <ele>578.9</ele>
        <time>2021-04-23T14:45:47.000Z</time>
      </trkpt>
      <trkpt lat="43.316547" lon="-6.872483">
        <ele>580.2</ele>
        <time>2021-04-23T14:45:50.000Z</time>
      </trkpt>
      <trkpt lat="43.316485" lon="-6.872393">
        <ele>579.8</ele>
        <time>2021-04-23T14:45:53.000Z</time>
      </trkpt>
      <trkpt lat="43.316428" lon="-6.872293">
        <ele>579.9</ele>
        <time>2021-04-23T14:45:56.000Z</time>
      </trkpt>
      <trkpt lat="43.316355" lon="-6.872172">
        <ele>580.5</ele>
        <time>2021-04-23T14:45:59.000Z</time>
      </trkpt>
      <trkpt lat="43.316283" lon="-6.87206">
        <ele>578.8</ele>
        <time>2021-04-23T14:46:02.000Z</time>
      </trkpt>
      <trkpt lat="43.316195" lon="-6.87195">
        <ele>577.7</ele>
        <time>2021-04-23T14:46:05.000Z</time>
      </trkpt>
      <trkpt lat="43.3161" lon="-6.871828">
        <ele>577.6</ele>
        <time>2021-04-23T14:46:08.000Z</time>
      </trkpt>
      <trkpt lat="43.31603" lon="-6.87173">
        <ele>578.3</ele>
        <time>2021-04-23T14:46:11.000Z</time>
      </trkpt>
      <trkpt lat="43.315953" lon="-6.87164">
        <ele>580.2</ele>
        <time>2021-04-23T14:46:15.000Z</time>
      </trkpt>
      <trkpt lat="43.315847" lon="-6.871563">
        <ele>580.7</ele>
        <time>2021-04-23T14:46:19.000Z</time>
      </trkpt>
      <trkpt lat="43.315732" lon="-6.871518">
        <ele>579.4</ele>
        <time>2021-04-23T14:46:22.000Z</time>
      </trkpt>
      <trkpt lat="43.315607" lon="-6.871497">
        <ele>580.5</ele>
        <time>2021-04-23T14:46:25.000Z</time>
      </trkpt>
      <trkpt lat="43.31549" lon="-6.871485">
        <ele>583.3</ele>
        <time>2021-04-23T14:46:28.000Z</time>
      </trkpt>
      <trkpt lat="43.315383" lon="-6.871483">
        <ele>583.9</ele>
        <time>2021-04-23T14:46:31.000Z</time>
      </trkpt>
      <trkpt lat="43.315272" lon="-6.871503">
        <ele>581.3</ele>
        <time>2021-04-23T14:46:35.000Z</time>
      </trkpt>
      <trkpt lat="43.315157" lon="-6.871488">
        <ele>580.3</ele>
        <time>2021-04-23T14:46:39.000Z</time>
      </trkpt>
      <trkpt lat="43.315057" lon="-6.871465">
        <ele>578.1</ele>
        <time>2021-04-23T14:46:43.000Z</time>
      </trkpt>
      <trkpt lat="43.314955" lon="-6.871442">
        <ele>578.9</ele>
        <time>2021-04-23T14:46:47.000Z</time>
      </trkpt>
      <trkpt lat="43.31486" lon="-6.871427">
        <ele>578.6</ele>
        <time>2021-04-23T14:46:50.000Z</time>
      </trkpt>
      <trkpt lat="43.314748" lon="-6.871403">
        <ele>578.5</ele>
        <time>2021-04-23T14:46:53.000Z</time>
      </trkpt>
      <trkpt lat="43.314627" lon="-6.871372">
        <ele>578.9</ele>
        <time>2021-04-23T14:46:56.000Z</time>
      </trkpt>
      <trkpt lat="43.314505" lon="-6.871343">
        <ele>575.4</ele>
        <time>2021-04-23T14:46:59.000Z</time>
      </trkpt>
      <trkpt lat="43.31437" lon="-6.871307">
        <ele>574.4</ele>
        <time>2021-04-23T14:47:02.000Z</time>
      </trkpt>
      <trkpt lat="43.314268" lon="-6.871298">
        <ele>574</ele>
        <time>2021-04-23T14:47:04.000Z</time>
      </trkpt>
      <trkpt lat="43.314138" lon="-6.871288">
        <ele>573</ele>
        <time>2021-04-23T14:47:07.000Z</time>
      </trkpt>
      <trkpt lat="43.314037" lon="-6.871213">
        <ele>572.5</ele>
        <time>2021-04-23T14:47:10.000Z</time>
      </trkpt>
      <trkpt lat="43.313998" lon="-6.871093">
        <ele>570.7</ele>
        <time>2021-04-23T14:47:13.000Z</time>
      </trkpt>
      <trkpt lat="43.31398" lon="-6.870952">
        <ele>574.2</ele>
        <time>2021-04-23T14:47:15.000Z</time>
      </trkpt>
      <trkpt lat="43.313958" lon="-6.870795">
        <ele>575.6</ele>
        <time>2021-04-23T14:47:18.000Z</time>
      </trkpt>
      <trkpt lat="43.313945" lon="-6.87066">
        <ele>576.6</ele>
        <time>2021-04-23T14:47:21.000Z</time>
      </trkpt>
      <trkpt lat="43.313945" lon="-6.87053">
        <ele>579.8</ele>
        <time>2021-04-23T14:47:24.000Z</time>
      </trkpt>
      <trkpt lat="43.313947" lon="-6.870405">
        <ele>583.2</ele>
        <time>2021-04-23T14:47:27.000Z</time>
      </trkpt>
      <trkpt lat="43.313953" lon="-6.87027">
        <ele>586.1</ele>
        <time>2021-04-23T14:47:30.000Z</time>
      </trkpt>
      <trkpt lat="43.313942" lon="-6.870133">
        <ele>588.3</ele>
        <time>2021-04-23T14:47:33.000Z</time>
      </trkpt>
      <trkpt lat="43.313928" lon="-6.870003">
        <ele>589.4</ele>
        <time>2021-04-23T14:47:38.000Z</time>
      </trkpt>
      <trkpt lat="43.313913" lon="-6.869875">
        <ele>591.8</ele>
        <time>2021-04-23T14:47:48.000Z</time>
      </trkpt>
      <trkpt lat="43.313827" lon="-6.869787">
        <ele>593.7</ele>
        <time>2021-04-23T14:47:52.000Z</time>
      </trkpt>
      <trkpt lat="43.31372" lon="-6.869712">
        <ele>595.6</ele>
        <time>2021-04-23T14:47:56.000Z</time>
      </trkpt>
      <trkpt lat="43.313618" lon="-6.869665">
        <ele>597.2</ele>
        <time>2021-04-23T14:47:59.000Z</time>
      </trkpt>
      <trkpt lat="43.313515" lon="-6.869625">
        <ele>598.3</ele>
        <time>2021-04-23T14:48:02.000Z</time>
      </trkpt>
      <trkpt lat="43.31342" lon="-6.8696">
        <ele>598.3</ele>
        <time>2021-04-23T14:48:05.000Z</time>
      </trkpt>
      <trkpt lat="43.313312" lon="-6.869567">
        <ele>598.4</ele>
        <time>2021-04-23T14:48:09.000Z</time>
      </trkpt>
      <trkpt lat="43.3132" lon="-6.86953">
        <ele>596.5</ele>
        <time>2021-04-23T14:48:13.000Z</time>
      </trkpt>
      <trkpt lat="43.313097" lon="-6.869483">
        <ele>595.3</ele>
        <time>2021-04-23T14:48:16.000Z</time>
      </trkpt>
      <trkpt lat="43.313008" lon="-6.869435">
        <ele>595.1</ele>
        <time>2021-04-23T14:48:18.000Z</time>
      </trkpt>
      <trkpt lat="43.31292" lon="-6.86939">
        <ele>593.6</ele>
        <time>2021-04-23T14:48:20.000Z</time>
      </trkpt>
      <trkpt lat="43.312832" lon="-6.869343">
        <ele>594.5</ele>
        <time>2021-04-23T14:48:22.000Z</time>
      </trkpt>
      <trkpt lat="43.312735" lon="-6.8693">
        <ele>596.4</ele>
        <time>2021-04-23T14:48:24.000Z</time>
      </trkpt>
      <trkpt lat="43.312643" lon="-6.869265">
        <ele>596.1</ele>
        <time>2021-04-23T14:48:26.000Z</time>
      </trkpt>
      <trkpt lat="43.312527" lon="-6.869217">
        <ele>596.4</ele>
        <time>2021-04-23T14:48:29.000Z</time>
      </trkpt>
      <trkpt lat="43.312425" lon="-6.869158">
        <ele>597</ele>
        <time>2021-04-23T14:48:32.000Z</time>
      </trkpt>
      <trkpt lat="43.312337" lon="-6.869107">
        <ele>597.1</ele>
        <time>2021-04-23T14:48:34.000Z</time>
      </trkpt>
      <trkpt lat="43.312228" lon="-6.86904">
        <ele>597.3</ele>
        <time>2021-04-23T14:48:37.000Z</time>
      </trkpt>
      <trkpt lat="43.31213" lon="-6.869002">
        <ele>594.9</ele>
        <time>2021-04-23T14:48:42.000Z</time>
      </trkpt>
      <trkpt lat="43.312023" lon="-6.868955">
        <ele>596.5</ele>
        <time>2021-04-23T14:48:49.000Z</time>
      </trkpt>
      <trkpt lat="43.311927" lon="-6.868922">
        <ele>598.5</ele>
        <time>2021-04-23T14:48:52.000Z</time>
      </trkpt>
      <trkpt lat="43.311813" lon="-6.868877">
        <ele>599.1</ele>
        <time>2021-04-23T14:48:55.000Z</time>
      </trkpt>
      <trkpt lat="43.311695" lon="-6.868813">
        <ele>599.3</ele>
        <time>2021-04-23T14:48:58.000Z</time>
      </trkpt>
      <trkpt lat="43.311575" lon="-6.868757">
        <ele>600.5</ele>
        <time>2021-04-23T14:49:01.000Z</time>
      </trkpt>
      <trkpt lat="43.311487" lon="-6.868712">
        <ele>601</ele>
        <time>2021-04-23T14:49:03.000Z</time>
      </trkpt>
      <trkpt lat="43.311388" lon="-6.868682">
        <ele>600.6</ele>
        <time>2021-04-23T14:49:05.000Z</time>
      </trkpt>
      <trkpt lat="43.311282" lon="-6.868663">
        <ele>601.4</ele>
        <time>2021-04-23T14:49:08.000Z</time>
      </trkpt>
      <trkpt lat="43.311173" lon="-6.868677">
        <ele>605.4</ele>
        <time>2021-04-23T14:49:11.000Z</time>
      </trkpt>
      <trkpt lat="43.311067" lon="-6.868703">
        <ele>608.5</ele>
        <time>2021-04-23T14:49:14.000Z</time>
      </trkpt>
      <trkpt lat="43.310953" lon="-6.868747">
        <ele>609.1</ele>
        <time>2021-04-23T14:49:17.000Z</time>
      </trkpt>
      <trkpt lat="43.310828" lon="-6.868788">
        <ele>605.5</ele>
        <time>2021-04-23T14:49:20.000Z</time>
      </trkpt>
      <trkpt lat="43.310708" lon="-6.868815">
        <ele>605.5</ele>
        <time>2021-04-23T14:49:23.000Z</time>
      </trkpt>
      <trkpt lat="43.310615" lon="-6.868835">
        <ele>606</ele>
        <time>2021-04-23T14:49:26.000Z</time>
      </trkpt>
      <trkpt lat="43.310505" lon="-6.868878">
        <ele>607.1</ele>
        <time>2021-04-23T14:49:30.000Z</time>
      </trkpt>
      <trkpt lat="43.3104" lon="-6.868933">
        <ele>608.8</ele>
        <time>2021-04-23T14:49:33.000Z</time>
      </trkpt>
      <trkpt lat="43.310282" lon="-6.868943">
        <ele>611.3</ele>
        <time>2021-04-23T14:49:36.000Z</time>
      </trkpt>
      <trkpt lat="43.310192" lon="-6.86894">
        <ele>614.4</ele>
        <time>2021-04-23T14:49:41.000Z</time>
      </trkpt>
      <trkpt lat="43.310102" lon="-6.869023">
        <ele>619.3</ele>
        <time>2021-04-23T15:02:24.000Z</time>
      </trkpt>
      <trkpt lat="43.309993" lon="-6.869105">
        <ele>618.5</ele>
        <time>2021-04-23T15:02:28.000Z</time>
      </trkpt>
      <trkpt lat="43.309903" lon="-6.869208">
        <ele>617.9</ele>
        <time>2021-04-23T15:02:31.000Z</time>
      </trkpt>
      <trkpt lat="43.309838" lon="-6.869303">
        <ele>616.3</ele>
        <time>2021-04-23T15:02:33.000Z</time>
      </trkpt>
      <trkpt lat="43.309763" lon="-6.869407">
        <ele>614.1</ele>
        <time>2021-04-23T15:02:36.000Z</time>
      </trkpt>
      <trkpt lat="43.309682" lon="-6.869498">
        <ele>613.4</ele>
        <time>2021-04-23T15:02:41.000Z</time>
      </trkpt>
      <trkpt lat="43.30959" lon="-6.869592">
        <ele>612</ele>
        <time>2021-04-23T15:02:45.000Z</time>
      </trkpt>
      <trkpt lat="43.309503" lon="-6.86968">
        <ele>608.5</ele>
        <time>2021-04-23T15:02:49.000Z</time>
      </trkpt>
      <trkpt lat="43.309405" lon="-6.869748">
        <ele>606.3</ele>
        <time>2021-04-23T15:02:53.000Z</time>
      </trkpt>
      <trkpt lat="43.309307" lon="-6.86985">
        <ele>606.3</ele>
        <time>2021-04-23T15:02:57.000Z</time>
      </trkpt>
      <trkpt lat="43.30925" lon="-6.869947">
        <ele>606.3</ele>
        <time>2021-04-23T15:03:00.000Z</time>
      </trkpt>
      <trkpt lat="43.309177" lon="-6.870092">
        <ele>605.3</ele>
        <time>2021-04-23T15:03:03.000Z</time>
      </trkpt>
      <trkpt lat="43.309118" lon="-6.870238">
        <ele>601.8</ele>
        <time>2021-04-23T15:03:06.000Z</time>
      </trkpt>
      <trkpt lat="43.309092" lon="-6.870362">
        <ele>600.2</ele>
        <time>2021-04-23T15:03:09.000Z</time>
      </trkpt>
      <trkpt lat="43.309072" lon="-6.870497">
        <ele>601.5</ele>
        <time>2021-04-23T15:03:13.000Z</time>
      </trkpt>
      <trkpt lat="43.309052" lon="-6.870632">
        <ele>602.5</ele>
        <time>2021-04-23T15:03:18.000Z</time>
      </trkpt>
      <trkpt lat="43.309053" lon="-6.870762">
        <ele>603.2</ele>
        <time>2021-04-23T15:03:23.000Z</time>
      </trkpt>
      <trkpt lat="43.309032" lon="-6.870885">
        <ele>602.6</ele>
        <time>2021-04-23T15:03:29.000Z</time>
      </trkpt>
      <trkpt lat="43.308995" lon="-6.871035">
        <ele>601.7</ele>
        <time>2021-04-23T15:03:38.000Z</time>
      </trkpt>
      <trkpt lat="43.308943" lon="-6.871157">
        <ele>603</ele>
        <time>2021-04-23T15:03:44.000Z</time>
      </trkpt>
      <trkpt lat="43.308893" lon="-6.871278">
        <ele>604.2</ele>
        <time>2021-04-23T15:03:50.000Z</time>
      </trkpt>
      <trkpt lat="43.308835" lon="-6.871377">
        <ele>605</ele>
        <time>2021-04-23T15:03:55.000Z</time>
      </trkpt>
      <trkpt lat="43.308772" lon="-6.87149">
        <ele>609.9</ele>
        <time>2021-04-23T15:04:05.000Z</time>
      </trkpt>
      <trkpt lat="43.308713" lon="-6.871595">
        <ele>615.4</ele>
        <time>2021-04-23T15:04:10.000Z</time>
      </trkpt>
      <trkpt lat="43.30868" lon="-6.871745">
        <ele>617.1</ele>
        <time>2021-04-23T15:04:15.000Z</time>
      </trkpt>
      <trkpt lat="43.308658" lon="-6.871872">
        <ele>617.9</ele>
        <time>2021-04-23T15:04:19.000Z</time>
      </trkpt>
      <trkpt lat="43.308657" lon="-6.872013">
        <ele>615.1</ele>
        <time>2021-04-23T15:04:24.000Z</time>
      </trkpt>
      <trkpt lat="43.308663" lon="-6.872168">
        <ele>610.4</ele>
        <time>2021-04-23T15:04:28.000Z</time>
      </trkpt>
      <trkpt lat="43.30865" lon="-6.87233">
        <ele>605.5</ele>
        <time>2021-04-23T15:04:31.000Z</time>
      </trkpt>
      <trkpt lat="43.308612" lon="-6.87247">
        <ele>604.4</ele>
        <time>2021-04-23T15:04:35.000Z</time>
      </trkpt>
      <trkpt lat="43.308557" lon="-6.872587">
        <ele>602.8</ele>
        <time>2021-04-23T15:04:40.000Z</time>
      </trkpt>
      <trkpt lat="43.308492" lon="-6.872688">
        <ele>602.3</ele>
        <time>2021-04-23T15:04:43.000Z</time>
      </trkpt>
      <trkpt lat="43.308408" lon="-6.872792">
        <ele>600.6</ele>
        <time>2021-04-23T15:04:47.000Z</time>
      </trkpt>
      <trkpt lat="43.308348" lon="-6.872892">
        <ele>598.9</ele>
        <time>2021-04-23T15:05:01.000Z</time>
      </trkpt>
      <trkpt lat="43.308288" lon="-6.873027">
        <ele>596</ele>
        <time>2021-04-23T15:05:06.000Z</time>
      </trkpt>
      <trkpt lat="43.308255" lon="-6.873142">
        <ele>594.1</ele>
        <time>2021-04-23T15:05:09.000Z</time>
      </trkpt>
      <trkpt lat="43.308218" lon="-6.873273">
        <ele>590.9</ele>
        <time>2021-04-23T15:05:12.000Z</time>
      </trkpt>
      <trkpt lat="43.308173" lon="-6.873413">
        <ele>588.3</ele>
        <time>2021-04-23T15:05:15.000Z</time>
      </trkpt>
      <trkpt lat="43.308142" lon="-6.873535">
        <ele>585.8</ele>
        <time>2021-04-23T15:05:19.000Z</time>
      </trkpt>
      <trkpt lat="43.308128" lon="-6.8737">
        <ele>586.3</ele>
        <time>2021-04-23T15:05:59.000Z</time>
      </trkpt>
      <trkpt lat="43.308175" lon="-6.873832">
        <ele>586.3</ele>
        <time>2021-04-23T15:06:02.000Z</time>
      </trkpt>
      <trkpt lat="43.308233" lon="-6.873948">
        <ele>585.2</ele>
        <time>2021-04-23T15:06:06.000Z</time>
      </trkpt>
      <trkpt lat="43.308297" lon="-6.874058">
        <ele>581.6</ele>
        <time>2021-04-23T15:06:10.000Z</time>
      </trkpt>
      <trkpt lat="43.308347" lon="-6.874177">
        <ele>579.5</ele>
        <time>2021-04-23T15:06:14.000Z</time>
      </trkpt>
      <trkpt lat="43.308357" lon="-6.874302">
        <ele>576.5</ele>
        <time>2021-04-23T15:06:19.000Z</time>
      </trkpt>
      <trkpt lat="43.308312" lon="-6.87442">
        <ele>573.7</ele>
        <time>2021-04-23T15:06:26.000Z</time>
      </trkpt>
      <trkpt lat="43.308232" lon="-6.874503">
        <ele>574.4</ele>
        <time>2021-04-23T15:07:10.000Z</time>
      </trkpt>
      <trkpt lat="43.308152" lon="-6.8746">
        <ele>573.9</ele>
        <time>2021-04-23T15:07:14.000Z</time>
      </trkpt>
      <trkpt lat="43.308068" lon="-6.874732">
        <ele>572.6</ele>
        <time>2021-04-23T15:07:17.000Z</time>
      </trkpt>
      <trkpt lat="43.308017" lon="-6.874838">
        <ele>569.9</ele>
        <time>2021-04-23T15:07:21.000Z</time>
      </trkpt>
      <trkpt lat="43.30799" lon="-6.874967">
        <ele>567.3</ele>
        <time>2021-04-23T15:07:28.000Z</time>
      </trkpt>
      <trkpt lat="43.307998" lon="-6.8751">
        <ele>564.3</ele>
        <time>2021-04-23T15:07:32.000Z</time>
      </trkpt>
      <trkpt lat="43.308025" lon="-6.875222">
        <ele>560.6</ele>
        <time>2021-04-23T15:07:36.000Z</time>
      </trkpt>
      <trkpt lat="43.308053" lon="-6.875362">
        <ele>556.5</ele>
        <time>2021-04-23T15:07:40.000Z</time>
      </trkpt>
      <trkpt lat="43.308053" lon="-6.87551">
        <ele>551.1</ele>
        <time>2021-04-23T15:07:44.000Z</time>
      </trkpt>
      <trkpt lat="43.307975" lon="-6.875582">
        <ele>546.5</ele>
        <time>2021-04-23T15:07:48.000Z</time>
      </trkpt>
      <trkpt lat="43.307875" lon="-6.875558">
        <ele>544.3</ele>
        <time>2021-04-23T15:07:51.000Z</time>
      </trkpt>
      <trkpt lat="43.30778" lon="-6.875585">
        <ele>542.1</ele>
        <time>2021-04-23T15:07:54.000Z</time>
      </trkpt>
      <trkpt lat="43.307693" lon="-6.875627">
        <ele>543.5</ele>
        <time>2021-04-23T15:07:57.000Z</time>
      </trkpt>
      <trkpt lat="43.307605" lon="-6.875665">
        <ele>547.6</ele>
        <time>2021-04-23T15:08:01.000Z</time>
      </trkpt>
      <trkpt lat="43.307483" lon="-6.875703">
        <ele>558.4</ele>
        <time>2021-04-23T15:10:08.000Z</time>
      </trkpt>
      <trkpt lat="43.30739" lon="-6.875793">
        <ele>557.3</ele>
        <time>2021-04-23T15:11:16.000Z</time>
      </trkpt>
      <trkpt lat="43.307297" lon="-6.875865">
        <ele>557.3</ele>
        <time>2021-04-23T15:11:23.000Z</time>
      </trkpt>
      <trkpt lat="43.307162" lon="-6.875942">
        <ele>557.2</ele>
        <time>2021-04-23T15:11:28.000Z</time>
      </trkpt>
      <trkpt lat="43.307047" lon="-6.87598">
        <ele>557.9</ele>
        <time>2021-04-23T15:11:31.000Z</time>
      </trkpt>
      <trkpt lat="43.306922" lon="-6.876012">
        <ele>558.1</ele>
        <time>2021-04-23T15:11:34.000Z</time>
      </trkpt>
      <trkpt lat="43.306802" lon="-6.87605">
        <ele>558.3</ele>
        <time>2021-04-23T15:11:37.000Z</time>
      </trkpt>
      <trkpt lat="43.306697" lon="-6.8761">
        <ele>558.6</ele>
        <time>2021-04-23T15:11:40.000Z</time>
      </trkpt>
      <trkpt lat="43.30659" lon="-6.876155">
        <ele>558.4</ele>
        <time>2021-04-23T15:11:43.000Z</time>
      </trkpt>
      <trkpt lat="43.306492" lon="-6.87618">
        <ele>557.8</ele>
        <time>2021-04-23T15:11:46.000Z</time>
      </trkpt>
      <trkpt lat="43.306403" lon="-6.876208">
        <ele>555.7</ele>
        <time>2021-04-23T15:11:49.000Z</time>
      </trkpt>
      <trkpt lat="43.306293" lon="-6.876218">
        <ele>555.4</ele>
        <time>2021-04-23T15:11:53.000Z</time>
      </trkpt>
      <trkpt lat="43.306198" lon="-6.876245">
        <ele>556.1</ele>
        <time>2021-04-23T15:11:59.000Z</time>
      </trkpt>
      <trkpt lat="43.30614" lon="-6.876352">
        <ele>559</ele>
        <time>2021-04-23T15:13:59.000Z</time>
      </trkpt>
      <trkpt lat="43.306047" lon="-6.87636">
        <ele>559.2</ele>
        <time>2021-04-23T15:15:04.000Z</time>
      </trkpt>
      <trkpt lat="43.305958" lon="-6.876403">
        <ele>558.9</ele>
        <time>2021-04-23T15:15:08.000Z</time>
      </trkpt>
      <trkpt lat="43.305888" lon="-6.876523">
        <ele>556.1</ele>
        <time>2021-04-23T15:15:12.000Z</time>
      </trkpt>
      <trkpt lat="43.305838" lon="-6.876675">
        <ele>552.2</ele>
        <time>2021-04-23T15:15:15.000Z</time>
      </trkpt>
      <trkpt lat="43.305813" lon="-6.876835">
        <ele>546.4</ele>
        <time>2021-04-23T15:15:18.000Z</time>
      </trkpt>
      <trkpt lat="43.305802" lon="-6.876968">
        <ele>541.8</ele>
        <time>2021-04-23T15:15:21.000Z</time>
      </trkpt>
      <trkpt lat="43.30578" lon="-6.877093">
        <ele>537.6</ele>
        <time>2021-04-23T15:15:26.000Z</time>
      </trkpt>
      <trkpt lat="43.30575" lon="-6.877212">
        <ele>534</ele>
        <time>2021-04-23T15:15:30.000Z</time>
      </trkpt>
      <trkpt lat="43.30576" lon="-6.877358">
        <ele>528.9</ele>
        <time>2021-04-23T15:15:34.000Z</time>
      </trkpt>
      <trkpt lat="43.305753" lon="-6.877495">
        <ele>524.2</ele>
        <time>2021-04-23T15:15:38.000Z</time>
      </trkpt>
      <trkpt lat="43.305748" lon="-6.877655">
        <ele>521.9</ele>
        <time>2021-04-23T15:15:42.000Z</time>
      </trkpt>
      <trkpt lat="43.305738" lon="-6.877832">
        <ele>523.9</ele>
        <time>2021-04-23T15:15:46.000Z</time>
      </trkpt>
      <trkpt lat="43.305745" lon="-6.87798">
        <ele>523.2</ele>
        <time>2021-04-23T15:15:50.000Z</time>
      </trkpt>
      <trkpt lat="43.305762" lon="-6.878128">
        <ele>522.3</ele>
        <time>2021-04-23T15:15:54.000Z</time>
      </trkpt>
      <trkpt lat="43.305757" lon="-6.878277">
        <ele>520.3</ele>
        <time>2021-04-23T15:15:58.000Z</time>
      </trkpt>
      <trkpt lat="43.305852" lon="-6.878417">
        <ele>513.7</ele>
        <time>2021-04-23T15:16:18.000Z</time>
      </trkpt>
      <trkpt lat="43.30581" lon="-6.878542">
        <ele>516.8</ele>
        <time>2021-04-23T15:16:21.000Z</time>
      </trkpt>
      <trkpt lat="43.30583" lon="-6.878663">
        <ele>518.6</ele>
        <time>2021-04-23T15:16:25.000Z</time>
      </trkpt>
      <trkpt lat="43.305835" lon="-6.878787">
        <ele>525</ele>
        <time>2021-04-23T15:16:32.000Z</time>
      </trkpt>
      <trkpt lat="43.305902" lon="-6.878897">
        <ele>528.3</ele>
        <time>2021-04-23T15:16:38.000Z</time>
      </trkpt>
      <trkpt lat="43.305913" lon="-6.879028">
        <ele>529.6</ele>
        <time>2021-04-23T15:16:44.000Z</time>
      </trkpt>
      <trkpt lat="43.305822" lon="-6.87908">
        <ele>531.4</ele>
        <time>2021-04-23T15:16:51.000Z</time>
      </trkpt>
      <trkpt lat="43.305713" lon="-6.879082">
        <ele>531.8</ele>
        <time>2021-04-23T15:16:56.000Z</time>
      </trkpt>
      <trkpt lat="43.305622" lon="-6.879088">
        <ele>531.7</ele>
        <time>2021-04-23T15:17:02.000Z</time>
      </trkpt>
      <trkpt lat="43.30552" lon="-6.879118">
        <ele>533.7</ele>
        <time>2021-04-23T15:17:09.000Z</time>
      </trkpt>
      <trkpt lat="43.305408" lon="-6.879115">
        <ele>532.8</ele>
        <time>2021-04-23T15:17:13.000Z</time>
      </trkpt>
      <trkpt lat="43.305308" lon="-6.879077">
        <ele>535.3</ele>
        <time>2021-04-23T15:17:18.000Z</time>
      </trkpt>
      <trkpt lat="43.305218" lon="-6.879068">
        <ele>534.3</ele>
        <time>2021-04-23T15:18:05.000Z</time>
      </trkpt>
      <trkpt lat="43.305115" lon="-6.879083">
        <ele>533.5</ele>
        <time>2021-04-23T15:18:10.000Z</time>
      </trkpt>
      <trkpt lat="43.305025" lon="-6.879133">
        <ele>531.3</ele>
        <time>2021-04-23T15:18:15.000Z</time>
      </trkpt>
      <trkpt lat="43.304918" lon="-6.87918">
        <ele>530.3</ele>
        <time>2021-04-23T15:18:19.000Z</time>
      </trkpt>
      <trkpt lat="43.304822" lon="-6.879178">
        <ele>530.1</ele>
        <time>2021-04-23T15:18:24.000Z</time>
      </trkpt>
      <trkpt lat="43.304727" lon="-6.879207">
        <ele>529.2</ele>
        <time>2021-04-23T15:19:36.000Z</time>
      </trkpt>
      <trkpt lat="43.304632" lon="-6.87925">
        <ele>530.5</ele>
        <time>2021-04-23T15:19:41.000Z</time>
      </trkpt>
      <trkpt lat="43.30456" lon="-6.879333">
        <ele>533</ele>
        <time>2021-04-23T15:20:04.000Z</time>
      </trkpt>
      <trkpt lat="43.304465" lon="-6.879417">
        <ele>532</ele>
        <time>2021-04-23T15:20:08.000Z</time>
      </trkpt>
      <trkpt lat="43.304407" lon="-6.879522">
        <ele>529</ele>
        <time>2021-04-23T15:20:11.000Z</time>
      </trkpt>
      <trkpt lat="43.304357" lon="-6.87965">
        <ele>526.1</ele>
        <time>2021-04-23T15:20:14.000Z</time>
      </trkpt>
      <trkpt lat="43.304258" lon="-6.87983">
        <ele>529.2</ele>
        <time>2021-04-23T15:20:50.000Z</time>
      </trkpt>
      <trkpt lat="43.3042" lon="-6.879932">
        <ele>534.5</ele>
        <time>2021-04-23T15:20:54.000Z</time>
      </trkpt>
      <trkpt lat="43.304143" lon="-6.880072">
        <ele>541.3</ele>
        <time>2021-04-23T15:20:59.000Z</time>
      </trkpt>
      <trkpt lat="43.304098" lon="-6.880197">
        <ele>544.9</ele>
        <time>2021-04-23T15:21:04.000Z</time>
      </trkpt>
      <trkpt lat="43.304058" lon="-6.880347">
        <ele>546.1</ele>
        <time>2021-04-23T15:21:09.000Z</time>
      </trkpt>
      <trkpt lat="43.304032" lon="-6.880478">
        <ele>542</ele>
        <time>2021-04-23T15:21:14.000Z</time>
      </trkpt>
      <trkpt lat="43.303993" lon="-6.880602">
        <ele>536.3</ele>
        <time>2021-04-23T15:21:19.000Z</time>
      </trkpt>
      <trkpt lat="43.30395" lon="-6.880717">
        <ele>532.6</ele>
        <time>2021-04-23T15:21:24.000Z</time>
      </trkpt>
      <trkpt lat="43.303903" lon="-6.880823">
        <ele>529</ele>
        <time>2021-04-23T15:21:33.000Z</time>
      </trkpt>
      <trkpt lat="43.303887" lon="-6.880965">
        <ele>526.3</ele>
        <time>2021-04-23T15:21:38.000Z</time>
      </trkpt>
      <trkpt lat="43.30388" lon="-6.881103">
        <ele>524.8</ele>
        <time>2021-04-23T15:21:42.000Z</time>
      </trkpt>
      <trkpt lat="43.303872" lon="-6.881257">
        <ele>523.8</ele>
        <time>2021-04-23T15:21:46.000Z</time>
      </trkpt>
      <trkpt lat="43.30384" lon="-6.881398">
        <ele>525.8</ele>
        <time>2021-04-23T15:21:50.000Z</time>
      </trkpt>
      <trkpt lat="43.303843" lon="-6.881543">
        <ele>528.4</ele>
        <time>2021-04-23T15:21:56.000Z</time>
      </trkpt>
      <trkpt lat="43.303873" lon="-6.881687">
        <ele>528.7</ele>
        <time>2021-04-23T15:22:01.000Z</time>
      </trkpt>
      <trkpt lat="43.30386" lon="-6.88181">
        <ele>525.5</ele>
        <time>2021-04-23T15:22:05.000Z</time>
      </trkpt>
      <trkpt lat="43.303775" lon="-6.881892">
        <ele>524</ele>
        <time>2021-04-23T15:22:09.000Z</time>
      </trkpt>
      <trkpt lat="43.303677" lon="-6.881918">
        <ele>522.1</ele>
        <time>2021-04-23T15:22:12.000Z</time>
      </trkpt>
      <trkpt lat="43.303585" lon="-6.881948">
        <ele>520.8</ele>
        <time>2021-04-23T15:22:15.000Z</time>
      </trkpt>
      <trkpt lat="43.303473" lon="-6.881985">
        <ele>521.8</ele>
        <time>2021-04-23T15:22:19.000Z</time>
      </trkpt>
      <trkpt lat="43.303373" lon="-6.882028">
        <ele>527</ele>
        <time>2021-04-23T15:22:24.000Z</time>
      </trkpt>
      <trkpt lat="43.303293" lon="-6.882092">
        <ele>529.4</ele>
        <time>2021-04-23T15:22:30.000Z</time>
      </trkpt>
      <trkpt lat="43.303208" lon="-6.882147">
        <ele>534</ele>
        <time>2021-04-23T15:22:37.000Z</time>
      </trkpt>
      <trkpt lat="43.30313" lon="-6.882225">
        <ele>533.5</ele>
        <time>2021-04-23T15:22:42.000Z</time>
      </trkpt>
      <trkpt lat="43.303052" lon="-6.882345">
        <ele>530.1</ele>
        <time>2021-04-23T15:22:46.000Z</time>
      </trkpt>
      <trkpt lat="43.302967" lon="-6.882453">
        <ele>525.4</ele>
        <time>2021-04-23T15:22:50.000Z</time>
      </trkpt>
      <trkpt lat="43.302898" lon="-6.882568">
        <ele>519.9</ele>
        <time>2021-04-23T15:22:55.000Z</time>
      </trkpt>
      <trkpt lat="43.302867" lon="-6.88269">
        <ele>516.7</ele>
        <time>2021-04-23T15:22:59.000Z</time>
      </trkpt>
      <trkpt lat="43.302803" lon="-6.882805">
        <ele>518.9</ele>
        <time>2021-04-23T15:23:04.000Z</time>
      </trkpt>
      <trkpt lat="43.302738" lon="-6.88292">
        <ele>520.4</ele>
        <time>2021-04-23T15:23:09.000Z</time>
      </trkpt>
      <trkpt lat="43.302692" lon="-6.883035">
        <ele>521.1</ele>
        <time>2021-04-23T15:23:13.000Z</time>
      </trkpt>
      <trkpt lat="43.302598" lon="-6.883142">
        <ele>519.7</ele>
        <time>2021-04-23T15:23:30.000Z</time>
      </trkpt>
      <trkpt lat="43.302487" lon="-6.883223">
        <ele>518.5</ele>
        <time>2021-04-23T15:23:34.000Z</time>
      </trkpt>
      <trkpt lat="43.3024" lon="-6.883312">
        <ele>517.6</ele>
        <time>2021-04-23T15:23:37.000Z</time>
      </trkpt>
      <trkpt lat="43.30232" lon="-6.883395">
        <ele>516.9</ele>
        <time>2021-04-23T15:23:40.000Z</time>
      </trkpt>
      <trkpt lat="43.302237" lon="-6.88351">
        <ele>514.1</ele>
        <time>2021-04-23T15:23:44.000Z</time>
      </trkpt>
      <trkpt lat="43.30217" lon="-6.883598">
        <ele>512.3</ele>
        <time>2021-04-23T15:23:48.000Z</time>
      </trkpt>
      <trkpt lat="43.3021" lon="-6.883725">
        <ele>509</ele>
        <time>2021-04-23T15:23:52.000Z</time>
      </trkpt>
      <trkpt lat="43.302025" lon="-6.883842">
        <ele>507.3</ele>
        <time>2021-04-23T15:23:56.000Z</time>
      </trkpt>
      <trkpt lat="43.30195" lon="-6.883958">
        <ele>504.9</ele>
        <time>2021-04-23T15:24:00.000Z</time>
      </trkpt>
      <trkpt lat="43.301895" lon="-6.884057">
        <ele>502.6</ele>
        <time>2021-04-23T15:24:03.000Z</time>
      </trkpt>
      <trkpt lat="43.301817" lon="-6.884165">
        <ele>501.6</ele>
        <time>2021-04-23T15:24:07.000Z</time>
      </trkpt>
      <trkpt lat="43.301738" lon="-6.88427">
        <ele>501.4</ele>
        <time>2021-04-23T15:24:11.000Z</time>
      </trkpt>
      <trkpt lat="43.301658" lon="-6.884347">
        <ele>501.9</ele>
        <time>2021-04-23T15:24:15.000Z</time>
      </trkpt>
      <trkpt lat="43.301565" lon="-6.884425">
        <ele>500.8</ele>
        <time>2021-04-23T15:24:20.000Z</time>
      </trkpt>
      <trkpt lat="43.301483" lon="-6.884483">
        <ele>502.8</ele>
        <time>2021-04-23T15:24:26.000Z</time>
      </trkpt>
      <trkpt lat="43.301413" lon="-6.884565">
        <ele>505.7</ele>
        <time>2021-04-23T15:24:34.000Z</time>
      </trkpt>
      <trkpt lat="43.301317" lon="-6.884635">
        <ele>508.9</ele>
        <time>2021-04-23T15:24:41.000Z</time>
      </trkpt>
      <trkpt lat="43.30123" lon="-6.884712">
        <ele>508.9</ele>
        <time>2021-04-23T15:24:47.000Z</time>
      </trkpt>
      <trkpt lat="43.301152" lon="-6.884787">
        <ele>508.3</ele>
        <time>2021-04-23T15:24:54.000Z</time>
      </trkpt>
      <trkpt lat="43.301085" lon="-6.884872">
        <ele>506</ele>
        <time>2021-04-23T15:24:58.000Z</time>
      </trkpt>
      <trkpt lat="43.301013" lon="-6.884963">
        <ele>502.7</ele>
        <time>2021-04-23T15:25:02.000Z</time>
      </trkpt>
      <trkpt lat="43.300938" lon="-6.885045">
        <ele>501</ele>
        <time>2021-04-23T15:25:06.000Z</time>
      </trkpt>
      <trkpt lat="43.300852" lon="-6.885138">
        <ele>501.2</ele>
        <time>2021-04-23T15:25:10.000Z</time>
      </trkpt>
      <trkpt lat="43.300777" lon="-6.885233">
        <ele>502.2</ele>
        <time>2021-04-23T15:25:14.000Z</time>
      </trkpt>
      <trkpt lat="43.300715" lon="-6.885323">
        <ele>501.4</ele>
        <time>2021-04-23T15:25:18.000Z</time>
      </trkpt>
      <trkpt lat="43.300667" lon="-6.88543">
        <ele>500.2</ele>
        <time>2021-04-23T15:25:22.000Z</time>
      </trkpt>
      <trkpt lat="43.300635" lon="-6.88556">
        <ele>498.2</ele>
        <time>2021-04-23T15:25:26.000Z</time>
      </trkpt>
      <trkpt lat="43.30062" lon="-6.88569">
        <ele>497.5</ele>
        <time>2021-04-23T15:25:30.000Z</time>
      </trkpt>
      <trkpt lat="43.300628" lon="-6.885827">
        <ele>496.6</ele>
        <time>2021-04-23T15:25:35.000Z</time>
      </trkpt>
      <trkpt lat="43.300665" lon="-6.885955">
        <ele>500.8</ele>
        <time>2021-04-23T15:25:41.000Z</time>
      </trkpt>
      <trkpt lat="43.300752" lon="-6.886033">
        <ele>500.2</ele>
        <time>2021-04-23T15:25:46.000Z</time>
      </trkpt>
      <trkpt lat="43.300833" lon="-6.886122">
        <ele>500</ele>
        <time>2021-04-23T15:25:50.000Z</time>
      </trkpt>
      <trkpt lat="43.300915" lon="-6.886217">
        <ele>498.8</ele>
        <time>2021-04-23T15:25:54.000Z</time>
      </trkpt>
      <trkpt lat="43.300987" lon="-6.886322">
        <ele>495.9</ele>
        <time>2021-04-23T15:25:58.000Z</time>
      </trkpt>
      <trkpt lat="43.301042" lon="-6.886448">
        <ele>496.4</ele>
        <time>2021-04-23T15:26:02.000Z</time>
      </trkpt>
      <trkpt lat="43.301062" lon="-6.886595">
        <ele>492.7</ele>
        <time>2021-04-23T15:26:07.000Z</time>
      </trkpt>
      <trkpt lat="43.301123" lon="-6.886723">
        <ele>489.7</ele>
        <time>2021-04-23T15:26:11.000Z</time>
      </trkpt>
      <trkpt lat="43.301123" lon="-6.886853">
        <ele>487.6</ele>
        <time>2021-04-23T15:26:15.000Z</time>
      </trkpt>
      <trkpt lat="43.30102" lon="-6.886892">
        <ele>488.8</ele>
        <time>2021-04-23T15:26:21.000Z</time>
      </trkpt>
      <trkpt lat="43.300928" lon="-6.88691">
        <ele>490.9</ele>
        <time>2021-04-23T15:26:25.000Z</time>
      </trkpt>
      <trkpt lat="43.30082" lon="-6.886923">
        <ele>491.5</ele>
        <time>2021-04-23T15:26:29.000Z</time>
      </trkpt>
      <trkpt lat="43.300727" lon="-6.886953">
        <ele>493.1</ele>
        <time>2021-04-23T15:26:32.000Z</time>
      </trkpt>
      <trkpt lat="43.300605" lon="-6.887025">
        <ele>494.2</ele>
        <time>2021-04-23T15:26:35.000Z</time>
      </trkpt>
      <trkpt lat="43.300512" lon="-6.887092">
        <ele>493.6</ele>
        <time>2021-04-23T15:26:38.000Z</time>
      </trkpt>
      <trkpt lat="43.30043" lon="-6.88717">
        <ele>494.3</ele>
        <time>2021-04-23T15:26:41.000Z</time>
      </trkpt>
      <trkpt lat="43.300345" lon="-6.887257">
        <ele>495.3</ele>
        <time>2021-04-23T15:26:44.000Z</time>
      </trkpt>
      <trkpt lat="43.300265" lon="-6.887343">
        <ele>493.7</ele>
        <time>2021-04-23T15:26:47.000Z</time>
      </trkpt>
      <trkpt lat="43.300183" lon="-6.887425">
        <ele>493.5</ele>
        <time>2021-04-23T15:26:51.000Z</time>
      </trkpt>
      <trkpt lat="43.300088" lon="-6.887508">
        <ele>494.5</ele>
        <time>2021-04-23T15:26:56.000Z</time>
      </trkpt>
      <trkpt lat="43.300002" lon="-6.887573">
        <ele>495.4</ele>
        <time>2021-04-23T15:26:59.000Z</time>
      </trkpt>
      <trkpt lat="43.299923" lon="-6.887655">
        <ele>495.5</ele>
        <time>2021-04-23T15:27:02.000Z</time>
      </trkpt>
      <trkpt lat="43.299858" lon="-6.8878">
        <ele>493.8</ele>
        <time>2021-04-23T15:27:05.000Z</time>
      </trkpt>
      <trkpt lat="43.299808" lon="-6.887962">
        <ele>491.8</ele>
        <time>2021-04-23T15:27:08.000Z</time>
      </trkpt>
      <trkpt lat="43.299782" lon="-6.888088">
        <ele>490.9</ele>
        <time>2021-04-23T15:27:11.000Z</time>
      </trkpt>
      <trkpt lat="43.29975" lon="-6.888225">
        <ele>490.4</ele>
        <time>2021-04-23T15:27:14.000Z</time>
      </trkpt>
      <trkpt lat="43.299717" lon="-6.888355">
        <ele>489.5</ele>
        <time>2021-04-23T15:27:17.000Z</time>
      </trkpt>
      <trkpt lat="43.299698" lon="-6.88849">
        <ele>488.3</ele>
        <time>2021-04-23T15:27:21.000Z</time>
      </trkpt>
      <trkpt lat="43.299692" lon="-6.888615">
        <ele>488.3</ele>
        <time>2021-04-23T15:27:25.000Z</time>
      </trkpt>
      <trkpt lat="43.299677" lon="-6.888742">
        <ele>489.5</ele>
        <time>2021-04-23T15:27:31.000Z</time>
      </trkpt>
      <trkpt lat="43.299582" lon="-6.88881">
        <ele>488.8</ele>
        <time>2021-04-23T15:27:36.000Z</time>
      </trkpt>
      <trkpt lat="43.299493" lon="-6.888772">
        <ele>488.7</ele>
        <time>2021-04-23T15:27:40.000Z</time>
      </trkpt>
      <trkpt lat="43.299398" lon="-6.888708">
        <ele>491.5</ele>
        <time>2021-04-23T15:27:44.000Z</time>
      </trkpt>
      <trkpt lat="43.29932" lon="-6.888617">
        <ele>496.9</ele>
        <time>2021-04-23T15:27:47.000Z</time>
      </trkpt>
      <trkpt lat="43.299237" lon="-6.888525">
        <ele>501.8</ele>
        <time>2021-04-23T15:27:51.000Z</time>
      </trkpt>
      <trkpt lat="43.299168" lon="-6.888433">
        <ele>504.4</ele>
        <time>2021-04-23T15:27:55.000Z</time>
      </trkpt>
      <trkpt lat="43.299085" lon="-6.888343">
        <ele>502.3</ele>
        <time>2021-04-23T15:27:58.000Z</time>
      </trkpt>
      <trkpt lat="43.298993" lon="-6.888243">
        <ele>501.5</ele>
        <time>2021-04-23T15:28:01.000Z</time>
      </trkpt>
      <trkpt lat="43.29892" lon="-6.888135">
        <ele>502.6</ele>
        <time>2021-04-23T15:28:04.000Z</time>
      </trkpt>
      <trkpt lat="43.298848" lon="-6.888017">
        <ele>500.9</ele>
        <time>2021-04-23T15:28:07.000Z</time>
      </trkpt>
      <trkpt lat="43.29876" lon="-6.887902">
        <ele>498.4</ele>
        <time>2021-04-23T15:28:10.000Z</time>
      </trkpt>
      <trkpt lat="43.298672" lon="-6.887822">
        <ele>496</ele>
        <time>2021-04-23T15:28:13.000Z</time>
      </trkpt>
      <trkpt lat="43.298592" lon="-6.887735">
        <ele>495.3</ele>
        <time>2021-04-23T15:28:16.000Z</time>
      </trkpt>
      <trkpt lat="43.298497" lon="-6.887612">
        <ele>495.6</ele>
        <time>2021-04-23T15:28:19.000Z</time>
      </trkpt>
      <trkpt lat="43.298423" lon="-6.887498">
        <ele>498.5</ele>
        <time>2021-04-23T15:28:22.000Z</time>
      </trkpt>
      <trkpt lat="43.298348" lon="-6.887397">
        <ele>498.4</ele>
        <time>2021-04-23T15:28:26.000Z</time>
      </trkpt>
      <trkpt lat="43.298292" lon="-6.887288">
        <ele>497.2</ele>
        <time>2021-04-23T15:28:32.000Z</time>
      </trkpt>
      <trkpt lat="43.2982" lon="-6.887188">
        <ele>495.5</ele>
        <time>2021-04-23T15:28:37.000Z</time>
      </trkpt>
      <trkpt lat="43.298098" lon="-6.887127">
        <ele>494.8</ele>
        <time>2021-04-23T15:28:40.000Z</time>
      </trkpt>
      <trkpt lat="43.298008" lon="-6.887123">
        <ele>493.8</ele>
        <time>2021-04-23T15:28:42.000Z</time>
      </trkpt>
      <trkpt lat="43.297913" lon="-6.887153">
        <ele>492.9</ele>
        <time>2021-04-23T15:28:44.000Z</time>
      </trkpt>
      <trkpt lat="43.297798" lon="-6.887215">
        <ele>493.6</ele>
        <time>2021-04-23T15:28:47.000Z</time>
      </trkpt>
      <trkpt lat="43.297692" lon="-6.887313">
        <ele>493.7</ele>
        <time>2021-04-23T15:28:50.000Z</time>
      </trkpt>
      <trkpt lat="43.297603" lon="-6.887402">
        <ele>493.7</ele>
        <time>2021-04-23T15:28:52.000Z</time>
      </trkpt>
      <trkpt lat="43.297508" lon="-6.887492">
        <ele>493.9</ele>
        <time>2021-04-23T15:28:54.000Z</time>
      </trkpt>
      <trkpt lat="43.297417" lon="-6.887575">
        <ele>494.5</ele>
        <time>2021-04-23T15:28:56.000Z</time>
      </trkpt>
      <trkpt lat="43.297328" lon="-6.887643">
        <ele>496.2</ele>
        <time>2021-04-23T15:28:58.000Z</time>
      </trkpt>
      <trkpt lat="43.297233" lon="-6.887697">
        <ele>498.4</ele>
        <time>2021-04-23T15:29:00.000Z</time>
      </trkpt>
      <trkpt lat="43.297135" lon="-6.8877">
        <ele>500.3</ele>
        <time>2021-04-23T15:29:02.000Z</time>
      </trkpt>
      <trkpt lat="43.29704" lon="-6.88767">
        <ele>499.9</ele>
        <time>2021-04-23T15:29:04.000Z</time>
      </trkpt>
      <trkpt lat="43.296948" lon="-6.887658">
        <ele>499.1</ele>
        <time>2021-04-23T15:29:06.000Z</time>
      </trkpt>
      <trkpt lat="43.296823" lon="-6.887677">
        <ele>501.2</ele>
        <time>2021-04-23T15:29:09.000Z</time>
      </trkpt>
      <trkpt lat="43.296693" lon="-6.88765">
        <ele>504.1</ele>
        <time>2021-04-23T15:29:12.000Z</time>
      </trkpt>
      <trkpt lat="43.296628" lon="-6.887527">
        <ele>508.1</ele>
        <time>2021-04-23T15:29:15.000Z</time>
      </trkpt>
      <trkpt lat="43.29662" lon="-6.887353">
        <ele>511.2</ele>
        <time>2021-04-23T15:29:18.000Z</time>
      </trkpt>
      <trkpt lat="43.296623" lon="-6.887228">
        <ele>513.3</ele>
        <time>2021-04-23T15:29:20.000Z</time>
      </trkpt>
      <trkpt lat="43.296627" lon="-6.887057">
        <ele>514.5</ele>
        <time>2021-04-23T15:29:23.000Z</time>
      </trkpt>
      <trkpt lat="43.296613" lon="-6.886897">
        <ele>515.6</ele>
        <time>2021-04-23T15:29:26.000Z</time>
      </trkpt>
      <trkpt lat="43.296605" lon="-6.886753">
        <ele>515.1</ele>
        <time>2021-04-23T15:29:29.000Z</time>
      </trkpt>
      <trkpt lat="43.296587" lon="-6.886615">
        <ele>515</ele>
        <time>2021-04-23T15:29:32.000Z</time>
      </trkpt>
      <trkpt lat="43.296565" lon="-6.886447">
        <ele>516.9</ele>
        <time>2021-04-23T15:29:35.000Z</time>
      </trkpt>
      <trkpt lat="43.296572" lon="-6.886303">
        <ele>521.2</ele>
        <time>2021-04-23T15:29:37.000Z</time>
      </trkpt>
      <trkpt lat="43.296597" lon="-6.88614">
        <ele>527.9</ele>
        <time>2021-04-23T15:29:39.000Z</time>
      </trkpt>
      <trkpt lat="43.296627" lon="-6.885997">
        <ele>532.8</ele>
        <time>2021-04-23T15:29:41.000Z</time>
      </trkpt>
      <trkpt lat="43.29665" lon="-6.885862">
        <ele>535</ele>
        <time>2021-04-23T15:29:43.000Z</time>
      </trkpt>
      <trkpt lat="43.29668" lon="-6.885722">
        <ele>537.8</ele>
        <time>2021-04-23T15:29:45.000Z</time>
      </trkpt>
      <trkpt lat="43.29673" lon="-6.885577">
        <ele>541.3</ele>
        <time>2021-04-23T15:29:47.000Z</time>
      </trkpt>
      <trkpt lat="43.296782" lon="-6.885427">
        <ele>542.4</ele>
        <time>2021-04-23T15:29:49.000Z</time>
      </trkpt>
      <trkpt lat="43.296828" lon="-6.885253">
        <ele>543.4</ele>
        <time>2021-04-23T15:29:51.000Z</time>
      </trkpt>
      <trkpt lat="43.296865" lon="-6.885072">
        <ele>543.3</ele>
        <time>2021-04-23T15:29:53.000Z</time>
      </trkpt>
      <trkpt lat="43.2969" lon="-6.88489">
        <ele>544.2</ele>
        <time>2021-04-23T15:29:55.000Z</time>
      </trkpt>
      <trkpt lat="43.296927" lon="-6.884708">
        <ele>545.2</ele>
        <time>2021-04-23T15:29:57.000Z</time>
      </trkpt>
      <trkpt lat="43.29695" lon="-6.884528">
        <ele>544.8</ele>
        <time>2021-04-23T15:29:59.000Z</time>
      </trkpt>
      <trkpt lat="43.296972" lon="-6.884362">
        <ele>543.8</ele>
        <time>2021-04-23T15:30:01.000Z</time>
      </trkpt>
      <trkpt lat="43.29698" lon="-6.884207">
        <ele>543.2</ele>
        <time>2021-04-23T15:30:03.000Z</time>
      </trkpt>
      <trkpt lat="43.296992" lon="-6.884045">
        <ele>543.7</ele>
        <time>2021-04-23T15:30:05.000Z</time>
      </trkpt>
      <trkpt lat="43.297" lon="-6.883875">
        <ele>542.8</ele>
        <time>2021-04-23T15:30:07.000Z</time>
      </trkpt>
      <trkpt lat="43.297005" lon="-6.883702">
        <ele>542.3</ele>
        <time>2021-04-23T15:30:09.000Z</time>
      </trkpt>
      <trkpt lat="43.297002" lon="-6.883507">
        <ele>542.8</ele>
        <time>2021-04-23T15:30:11.000Z</time>
      </trkpt>
      <trkpt lat="43.29703" lon="-6.883308">
        <ele>542.3</ele>
        <time>2021-04-23T15:30:13.000Z</time>
      </trkpt>
      <trkpt lat="43.297082" lon="-6.883118">
        <ele>541.5</ele>
        <time>2021-04-23T15:30:15.000Z</time>
      </trkpt>
      <trkpt lat="43.29713" lon="-6.88295">
        <ele>540.9</ele>
        <time>2021-04-23T15:30:17.000Z</time>
      </trkpt>
      <trkpt lat="43.29719" lon="-6.88278">
        <ele>540.9</ele>
        <time>2021-04-23T15:30:19.000Z</time>
      </trkpt>
      <trkpt lat="43.297195" lon="-6.882608">
        <ele>545</ele>
        <time>2021-04-23T15:30:21.000Z</time>
      </trkpt>
      <trkpt lat="43.29725" lon="-6.882438">
        <ele>546.1</ele>
        <time>2021-04-23T15:30:23.000Z</time>
      </trkpt>
      <trkpt lat="43.297305" lon="-6.882277">
        <ele>546.8</ele>
        <time>2021-04-23T15:30:25.000Z</time>
      </trkpt>
      <trkpt lat="43.297362" lon="-6.882123">
        <ele>547.7</ele>
        <time>2021-04-23T15:30:27.000Z</time>
      </trkpt>
      <trkpt lat="43.297417" lon="-6.882">
        <ele>547</ele>
        <time>2021-04-23T15:30:29.000Z</time>
      </trkpt>
      <trkpt lat="43.29748" lon="-6.881907">
        <ele>546.1</ele>
        <time>2021-04-23T15:30:31.000Z</time>
      </trkpt>
      <trkpt lat="43.297547" lon="-6.88182">
        <ele>542.1</ele>
        <time>2021-04-23T15:30:35.000Z</time>
      </trkpt>
      <trkpt lat="43.297463" lon="-6.881948">
        <ele>527.8</ele>
        <time>2021-04-23T15:46:42.000Z</time>
      </trkpt>
      <trkpt lat="43.29738" lon="-6.882007">
        <ele>527.7</ele>
        <time>2021-04-23T15:46:47.000Z</time>
      </trkpt>
      <trkpt lat="43.29728" lon="-6.881957">
        <ele>526.5</ele>
        <time>2021-04-23T15:46:51.000Z</time>
      </trkpt>
      <trkpt lat="43.297185" lon="-6.88194">
        <ele>527.1</ele>
        <time>2021-04-23T15:46:54.000Z</time>
      </trkpt>
      <trkpt lat="43.29709" lon="-6.881978">
        <ele>527</ele>
        <time>2021-04-23T15:46:56.000Z</time>
      </trkpt>
      <trkpt lat="43.296993" lon="-6.881993">
        <ele>528.3</ele>
        <time>2021-04-23T15:46:58.000Z</time>
      </trkpt>
      <trkpt lat="43.296897" lon="-6.881993">
        <ele>528.6</ele>
        <time>2021-04-23T15:47:01.000Z</time>
      </trkpt>
      <trkpt lat="43.296797" lon="-6.881995">
        <ele>530.6</ele>
        <time>2021-04-23T15:47:11.000Z</time>
      </trkpt>
      <trkpt lat="43.296693" lon="-6.881933">
        <ele>535.5</ele>
        <time>2021-04-23T15:47:15.000Z</time>
      </trkpt>
      <trkpt lat="43.296587" lon="-6.881898">
        <ele>536.2</ele>
        <time>2021-04-23T15:47:18.000Z</time>
      </trkpt>
      <trkpt lat="43.296487" lon="-6.881893">
        <ele>536.7</ele>
        <time>2021-04-23T15:47:21.000Z</time>
      </trkpt>
      <trkpt lat="43.296397" lon="-6.881912">
        <ele>533.4</ele>
        <time>2021-04-23T15:47:24.000Z</time>
      </trkpt>
      <trkpt lat="43.296282" lon="-6.881907">
        <ele>531.1</ele>
        <time>2021-04-23T15:47:27.000Z</time>
      </trkpt>
      <trkpt lat="43.296167" lon="-6.881887">
        <ele>527.9</ele>
        <time>2021-04-23T15:47:30.000Z</time>
      </trkpt>
      <trkpt lat="43.296062" lon="-6.881848">
        <ele>526.8</ele>
        <time>2021-04-23T15:47:32.000Z</time>
      </trkpt>
      <trkpt lat="43.295958" lon="-6.881808">
        <ele>527.3</ele>
        <time>2021-04-23T15:47:34.000Z</time>
      </trkpt>
      <trkpt lat="43.295848" lon="-6.88175">
        <ele>528.3</ele>
        <time>2021-04-23T15:47:36.000Z</time>
      </trkpt>
      <trkpt lat="43.29573" lon="-6.881703">
        <ele>529.7</ele>
        <time>2021-04-23T15:47:38.000Z</time>
      </trkpt>
      <trkpt lat="43.29564" lon="-6.881708">
        <ele>528.8</ele>
        <time>2021-04-23T15:47:40.000Z</time>
      </trkpt>
      <trkpt lat="43.295538" lon="-6.881682">
        <ele>527.9</ele>
        <time>2021-04-23T15:47:42.000Z</time>
      </trkpt>
      <trkpt lat="43.295395" lon="-6.881672">
        <ele>524.8</ele>
        <time>2021-04-23T15:47:45.000Z</time>
      </trkpt>
      <trkpt lat="43.295275" lon="-6.881665">
        <ele>522.5</ele>
        <time>2021-04-23T15:47:47.000Z</time>
      </trkpt>
      <trkpt lat="43.29518" lon="-6.881653">
        <ele>522</ele>
        <time>2021-04-23T15:47:49.000Z</time>
      </trkpt>
      <trkpt lat="43.295087" lon="-6.881655">
        <ele>521.1</ele>
        <time>2021-04-23T15:47:51.000Z</time>
      </trkpt>
      <trkpt lat="43.294985" lon="-6.881652">
        <ele>520.1</ele>
        <time>2021-04-23T15:47:53.000Z</time>
      </trkpt>
      <trkpt lat="43.294877" lon="-6.881663">
        <ele>516.6</ele>
        <time>2021-04-23T15:47:55.000Z</time>
      </trkpt>
      <trkpt lat="43.29476" lon="-6.881703">
        <ele>510.7</ele>
        <time>2021-04-23T15:47:58.000Z</time>
      </trkpt>
      <trkpt lat="43.294652" lon="-6.88177">
        <ele>503.3</ele>
        <time>2021-04-23T15:48:01.000Z</time>
      </trkpt>
      <trkpt lat="43.294562" lon="-6.881807">
        <ele>498.5</ele>
        <time>2021-04-23T15:48:03.000Z</time>
      </trkpt>
      <trkpt lat="43.294468" lon="-6.881832">
        <ele>492.8</ele>
        <time>2021-04-23T15:48:05.000Z</time>
      </trkpt>
      <trkpt lat="43.294372" lon="-6.881757">
        <ele>490.2</ele>
        <time>2021-04-23T15:48:07.000Z</time>
      </trkpt>
      <trkpt lat="43.294277" lon="-6.88165">
        <ele>487.8</ele>
        <time>2021-04-23T15:48:09.000Z</time>
      </trkpt>
      <trkpt lat="43.29418" lon="-6.881593">
        <ele>484.8</ele>
        <time>2021-04-23T15:48:11.000Z</time>
      </trkpt>
      <trkpt lat="43.294077" lon="-6.881542">
        <ele>482.1</ele>
        <time>2021-04-23T15:48:13.000Z</time>
      </trkpt>
      <trkpt lat="43.293957" lon="-6.88148">
        <ele>478.4</ele>
        <time>2021-04-23T15:48:16.000Z</time>
      </trkpt>
      <trkpt lat="43.293873" lon="-6.881405">
        <ele>476.6</ele>
        <time>2021-04-23T15:48:18.000Z</time>
      </trkpt>
      <trkpt lat="43.293768" lon="-6.881327">
        <ele>475.1</ele>
        <time>2021-04-23T15:48:20.000Z</time>
      </trkpt>
      <trkpt lat="43.29367" lon="-6.881272">
        <ele>473.2</ele>
        <time>2021-04-23T15:48:22.000Z</time>
      </trkpt>
      <trkpt lat="43.293565" lon="-6.881252">
        <ele>472.4</ele>
        <time>2021-04-23T15:48:24.000Z</time>
      </trkpt>
      <trkpt lat="43.293463" lon="-6.881258">
        <ele>473.2</ele>
        <time>2021-04-23T15:48:26.000Z</time>
      </trkpt>
      <trkpt lat="43.293347" lon="-6.88129">
        <ele>473.5</ele>
        <time>2021-04-23T15:48:28.000Z</time>
      </trkpt>
      <trkpt lat="43.293233" lon="-6.881295">
        <ele>476.5</ele>
        <time>2021-04-23T15:48:30.000Z</time>
      </trkpt>
      <trkpt lat="43.293113" lon="-6.88135">
        <ele>475.4</ele>
        <time>2021-04-23T15:48:32.000Z</time>
      </trkpt>
      <trkpt lat="43.293007" lon="-6.881433">
        <ele>473.8</ele>
        <time>2021-04-23T15:48:34.000Z</time>
      </trkpt>
      <trkpt lat="43.292928" lon="-6.881525">
        <ele>472.6</ele>
        <time>2021-04-23T15:48:36.000Z</time>
      </trkpt>
      <trkpt lat="43.292833" lon="-6.881623">
        <ele>470.7</ele>
        <time>2021-04-23T15:48:39.000Z</time>
      </trkpt>
      <trkpt lat="43.292747" lon="-6.881573">
        <ele>468.7</ele>
        <time>2021-04-23T15:48:43.000Z</time>
      </trkpt>
      <trkpt lat="43.292725" lon="-6.881448">
        <ele>468.9</ele>
        <time>2021-04-23T15:48:45.000Z</time>
      </trkpt>
      <trkpt lat="43.292712" lon="-6.881307">
        <ele>470.8</ele>
        <time>2021-04-23T15:48:47.000Z</time>
      </trkpt>
      <trkpt lat="43.292715" lon="-6.881163">
        <ele>472.8</ele>
        <time>2021-04-23T15:48:49.000Z</time>
      </trkpt>
      <trkpt lat="43.292708" lon="-6.88104">
        <ele>473.1</ele>
        <time>2021-04-23T15:48:51.000Z</time>
      </trkpt>
      <trkpt lat="43.292692" lon="-6.880882">
        <ele>471.7</ele>
        <time>2021-04-23T15:48:54.000Z</time>
      </trkpt>
      <trkpt lat="43.292683" lon="-6.880755">
        <ele>473.9</ele>
        <time>2021-04-23T15:48:56.000Z</time>
      </trkpt>
      <trkpt lat="43.292678" lon="-6.880593">
        <ele>473.6</ele>
        <time>2021-04-23T15:48:59.000Z</time>
      </trkpt>
      <trkpt lat="43.292713" lon="-6.880467">
        <ele>477.8</ele>
        <time>2021-04-23T15:49:01.000Z</time>
      </trkpt>
      <trkpt lat="43.292787" lon="-6.880343">
        <ele>479.8</ele>
        <time>2021-04-23T15:49:04.000Z</time>
      </trkpt>
      <trkpt lat="43.292857" lon="-6.880203">
        <ele>479.9</ele>
        <time>2021-04-23T15:49:07.000Z</time>
      </trkpt>
      <trkpt lat="43.292917" lon="-6.880042">
        <ele>479.8</ele>
        <time>2021-04-23T15:49:09.000Z</time>
      </trkpt>
      <trkpt lat="43.292953" lon="-6.879872">
        <ele>480</ele>
        <time>2021-04-23T15:49:11.000Z</time>
      </trkpt>
      <trkpt lat="43.293008" lon="-6.879765">
        <ele>478.4</ele>
        <time>2021-04-23T15:49:14.000Z</time>
      </trkpt>
      <trkpt lat="43.293102" lon="-6.879753">
        <ele>478.1</ele>
        <time>2021-04-23T15:49:17.000Z</time>
      </trkpt>
      <trkpt lat="43.29323" lon="-6.879772">
        <ele>479.7</ele>
        <time>2021-04-23T15:49:20.000Z</time>
      </trkpt>
      <trkpt lat="43.293332" lon="-6.879743">
        <ele>479.5</ele>
        <time>2021-04-23T15:49:22.000Z</time>
      </trkpt>
      <trkpt lat="43.29345" lon="-6.879678">
        <ele>479</ele>
        <time>2021-04-23T15:49:24.000Z</time>
      </trkpt>
      <trkpt lat="43.293548" lon="-6.879627">
        <ele>478.4</ele>
        <time>2021-04-23T15:49:26.000Z</time>
      </trkpt>
      <trkpt lat="43.293633" lon="-6.879572">
        <ele>477.2</ele>
        <time>2021-04-23T15:49:28.000Z</time>
      </trkpt>
      <trkpt lat="43.29375" lon="-6.879492">
        <ele>477.5</ele>
        <time>2021-04-23T15:49:31.000Z</time>
      </trkpt>
      <trkpt lat="43.293862" lon="-6.879413">
        <ele>478.9</ele>
        <time>2021-04-23T15:49:34.000Z</time>
      </trkpt>
      <trkpt lat="43.29397" lon="-6.879358">
        <ele>479.5</ele>
        <time>2021-04-23T15:49:37.000Z</time>
      </trkpt>
      <trkpt lat="43.29407" lon="-6.879303">
        <ele>479.7</ele>
        <time>2021-04-23T15:49:41.000Z</time>
      </trkpt>
      <trkpt lat="43.294192" lon="-6.879248">
        <ele>479.3</ele>
        <time>2021-04-23T15:49:45.000Z</time>
      </trkpt>
      <trkpt lat="43.294295" lon="-6.879185">
        <ele>476.8</ele>
        <time>2021-04-23T15:49:49.000Z</time>
      </trkpt>
      <trkpt lat="43.294203" lon="-6.879152">
        <ele>474.7</ele>
        <time>2021-04-23T15:50:16.000Z</time>
      </trkpt>
      <trkpt lat="43.294112" lon="-6.879167">
        <ele>475.2</ele>
        <time>2021-04-23T15:50:20.000Z</time>
      </trkpt>
      <trkpt lat="43.294013" lon="-6.879173">
        <ele>476.7</ele>
        <time>2021-04-23T15:50:24.000Z</time>
      </trkpt>
      <trkpt lat="43.294028" lon="-6.87905">
        <ele>480.3</ele>
        <time>2021-04-23T15:50:30.000Z</time>
      </trkpt>
      <trkpt lat="43.294103" lon="-6.878975">
        <ele>482</ele>
        <time>2021-04-23T15:50:33.000Z</time>
      </trkpt>
      <trkpt lat="43.29418" lon="-6.878885">
        <ele>485</ele>
        <time>2021-04-23T15:50:36.000Z</time>
      </trkpt>
      <trkpt lat="43.294278" lon="-6.87877">
        <ele>489.6</ele>
        <time>2021-04-23T15:50:39.000Z</time>
      </trkpt>
      <trkpt lat="43.294343" lon="-6.878628">
        <ele>492.1</ele>
        <time>2021-04-23T15:50:42.000Z</time>
      </trkpt>
      <trkpt lat="43.294405" lon="-6.878503">
        <ele>494.7</ele>
        <time>2021-04-23T15:50:45.000Z</time>
      </trkpt>
      <trkpt lat="43.294448" lon="-6.878393">
        <ele>496.9</ele>
        <time>2021-04-23T15:50:48.000Z</time>
      </trkpt>
      <trkpt lat="43.294517" lon="-6.87831">
        <ele>498.1</ele>
        <time>2021-04-23T15:50:51.000Z</time>
      </trkpt>
      <trkpt lat="43.294598" lon="-6.878225">
        <ele>501.5</ele>
        <time>2021-04-23T15:50:54.000Z</time>
      </trkpt>
      <trkpt lat="43.294693" lon="-6.878113">
        <ele>502.4</ele>
        <time>2021-04-23T15:50:57.000Z</time>
      </trkpt>
      <trkpt lat="43.294793" lon="-6.877988">
        <ele>502.4</ele>
        <time>2021-04-23T15:51:00.000Z</time>
      </trkpt>
      <trkpt lat="43.294878" lon="-6.877883">
        <ele>502.5</ele>
        <time>2021-04-23T15:51:03.000Z</time>
      </trkpt>
      <trkpt lat="43.294947" lon="-6.877768">
        <ele>501.9</ele>
        <time>2021-04-23T15:51:08.000Z</time>
      </trkpt>
      <trkpt lat="43.295002" lon="-6.877648">
        <ele>501.9</ele>
        <time>2021-04-23T15:51:16.000Z</time>
      </trkpt>
      <trkpt lat="43.295073" lon="-6.877538">
        <ele>502.6</ele>
        <time>2021-04-23T15:51:20.000Z</time>
      </trkpt>
      <trkpt lat="43.295148" lon="-6.8774">
        <ele>502.2</ele>
        <time>2021-04-23T15:51:24.000Z</time>
      </trkpt>
      <trkpt lat="43.295213" lon="-6.877278">
        <ele>503.5</ele>
        <time>2021-04-23T15:51:27.000Z</time>
      </trkpt>
      <trkpt lat="43.295273" lon="-6.877182">
        <ele>504.9</ele>
        <time>2021-04-23T15:51:30.000Z</time>
      </trkpt>
      <trkpt lat="43.295323" lon="-6.877062">
        <ele>505.1</ele>
        <time>2021-04-23T15:51:33.000Z</time>
      </trkpt>
      <trkpt lat="43.295362" lon="-6.876907">
        <ele>506.1</ele>
        <time>2021-04-23T15:51:36.000Z</time>
      </trkpt>
      <trkpt lat="43.295425" lon="-6.876785">
        <ele>509.3</ele>
        <time>2021-04-23T15:51:38.000Z</time>
      </trkpt>
      <trkpt lat="43.29549" lon="-6.876683">
        <ele>512.2</ele>
        <time>2021-04-23T15:51:40.000Z</time>
      </trkpt>
      <trkpt lat="43.295555" lon="-6.876558">
        <ele>514.5</ele>
        <time>2021-04-23T15:51:43.000Z</time>
      </trkpt>
      <trkpt lat="43.295613" lon="-6.876443">
        <ele>516.6</ele>
        <time>2021-04-23T15:51:46.000Z</time>
      </trkpt>
      <trkpt lat="43.295672" lon="-6.876347">
        <ele>516.3</ele>
        <time>2021-04-23T15:51:49.000Z</time>
      </trkpt>
      <trkpt lat="43.295708" lon="-6.876228">
        <ele>515.2</ele>
        <time>2021-04-23T15:51:52.000Z</time>
      </trkpt>
      <trkpt lat="43.295783" lon="-6.876107">
        <ele>516.2</ele>
        <time>2021-04-23T15:51:55.000Z</time>
      </trkpt>
      <trkpt lat="43.295867" lon="-6.875983">
        <ele>518.3</ele>
        <time>2021-04-23T15:51:58.000Z</time>
      </trkpt>
      <trkpt lat="43.295958" lon="-6.875855">
        <ele>518.1</ele>
        <time>2021-04-23T15:52:01.000Z</time>
      </trkpt>
      <trkpt lat="43.296003" lon="-6.875738">
        <ele>517.4</ele>
        <time>2021-04-23T15:52:03.000Z</time>
      </trkpt>
      <trkpt lat="43.296063" lon="-6.875632">
        <ele>516.1</ele>
        <time>2021-04-23T15:52:05.000Z</time>
      </trkpt>
      <trkpt lat="43.296115" lon="-6.875515">
        <ele>514.8</ele>
        <time>2021-04-23T15:52:07.000Z</time>
      </trkpt>
      <trkpt lat="43.296153" lon="-6.875402">
        <ele>513.8</ele>
        <time>2021-04-23T15:52:09.000Z</time>
      </trkpt>
      <trkpt lat="43.296212" lon="-6.875247">
        <ele>512</ele>
        <time>2021-04-23T15:52:12.000Z</time>
      </trkpt>
      <trkpt lat="43.29627" lon="-6.875092">
        <ele>508.9</ele>
        <time>2021-04-23T15:52:15.000Z</time>
      </trkpt>
      <trkpt lat="43.296337" lon="-6.874943">
        <ele>507</ele>
        <time>2021-04-23T15:52:18.000Z</time>
      </trkpt>
      <trkpt lat="43.296412" lon="-6.874802">
        <ele>505.4</ele>
        <time>2021-04-23T15:52:21.000Z</time>
      </trkpt>
      <trkpt lat="43.296468" lon="-6.874665">
        <ele>502.4</ele>
        <time>2021-04-23T15:52:24.000Z</time>
      </trkpt>
      <trkpt lat="43.2965" lon="-6.874532">
        <ele>497.1</ele>
        <time>2021-04-23T15:52:27.000Z</time>
      </trkpt>
      <trkpt lat="43.296532" lon="-6.874353">
        <ele>493.7</ele>
        <time>2021-04-23T15:52:30.000Z</time>
      </trkpt>
      <trkpt lat="43.296565" lon="-6.874225">
        <ele>491.2</ele>
        <time>2021-04-23T15:52:32.000Z</time>
      </trkpt>
      <trkpt lat="43.29662" lon="-6.874078">
        <ele>489.3</ele>
        <time>2021-04-23T15:52:34.000Z</time>
      </trkpt>
      <trkpt lat="43.296692" lon="-6.873913">
        <ele>490.9</ele>
        <time>2021-04-23T15:52:36.000Z</time>
      </trkpt>
      <trkpt lat="43.296767" lon="-6.873737">
        <ele>491</ele>
        <time>2021-04-23T15:52:38.000Z</time>
      </trkpt>
      <trkpt lat="43.296888" lon="-6.873463">
        <ele>492.4</ele>
        <time>2021-04-23T15:52:41.000Z</time>
      </trkpt>
      <trkpt lat="43.296963" lon="-6.873282">
        <ele>491.6</ele>
        <time>2021-04-23T15:52:43.000Z</time>
      </trkpt>
      <trkpt lat="43.297037" lon="-6.873098">
        <ele>491.1</ele>
        <time>2021-04-23T15:52:45.000Z</time>
      </trkpt>
      <trkpt lat="43.297102" lon="-6.872902">
        <ele>491.3</ele>
        <time>2021-04-23T15:52:47.000Z</time>
      </trkpt>
      <trkpt lat="43.297153" lon="-6.872715">
        <ele>490.5</ele>
        <time>2021-04-23T15:52:49.000Z</time>
      </trkpt>
      <trkpt lat="43.297197" lon="-6.87253">
        <ele>490.3</ele>
        <time>2021-04-23T15:52:51.000Z</time>
      </trkpt>
      <trkpt lat="43.297232" lon="-6.872365">
        <ele>490.6</ele>
        <time>2021-04-23T15:52:53.000Z</time>
      </trkpt>
      <trkpt lat="43.297232" lon="-6.872203">
        <ele>490.2</ele>
        <time>2021-04-23T15:52:56.000Z</time>
      </trkpt>
      <trkpt lat="43.297187" lon="-6.872048">
        <ele>491.4</ele>
        <time>2021-04-23T15:52:59.000Z</time>
      </trkpt>
      <trkpt lat="43.297125" lon="-6.871952">
        <ele>492.9</ele>
        <time>2021-04-23T15:53:02.000Z</time>
      </trkpt>
      <trkpt lat="43.297038" lon="-6.871897">
        <ele>494.3</ele>
        <time>2021-04-23T15:53:05.000Z</time>
      </trkpt>
      <trkpt lat="43.296922" lon="-6.871868">
        <ele>495.9</ele>
        <time>2021-04-23T15:53:31.000Z</time>
      </trkpt>
      <trkpt lat="43.296818" lon="-6.871825">
        <ele>495.8</ele>
        <time>2021-04-23T15:53:34.000Z</time>
      </trkpt>
      <trkpt lat="43.296695" lon="-6.87177">
        <ele>497.2</ele>
        <time>2021-04-23T15:53:37.000Z</time>
      </trkpt>
      <trkpt lat="43.296603" lon="-6.87173">
        <ele>497.5</ele>
        <time>2021-04-23T15:53:39.000Z</time>
      </trkpt>
      <trkpt lat="43.296513" lon="-6.871682">
        <ele>497.1</ele>
        <time>2021-04-23T15:53:41.000Z</time>
      </trkpt>
      <trkpt lat="43.296428" lon="-6.871628">
        <ele>496.4</ele>
        <time>2021-04-23T15:53:43.000Z</time>
      </trkpt>
      <trkpt lat="43.296338" lon="-6.871565">
        <ele>495.6</ele>
        <time>2021-04-23T15:53:45.000Z</time>
      </trkpt>
      <trkpt lat="43.296257" lon="-6.871488">
        <ele>494.6</ele>
        <time>2021-04-23T15:53:47.000Z</time>
      </trkpt>
      <trkpt lat="43.29618" lon="-6.871418">
        <ele>491.6</ele>
        <time>2021-04-23T15:53:49.000Z</time>
      </trkpt>
      <trkpt lat="43.296087" lon="-6.871295">
        <ele>490.1</ele>
        <time>2021-04-23T15:53:52.000Z</time>
      </trkpt>
      <trkpt lat="43.29607" lon="-6.871142">
        <ele>488.7</ele>
        <time>2021-04-23T15:53:55.000Z</time>
      </trkpt>
      <trkpt lat="43.296102" lon="-6.870977">
        <ele>487</ele>
        <time>2021-04-23T15:53:58.000Z</time>
      </trkpt>
      <trkpt lat="43.296128" lon="-6.870815">
        <ele>485.9</ele>
        <time>2021-04-23T15:54:01.000Z</time>
      </trkpt>
      <trkpt lat="43.296132" lon="-6.870653">
        <ele>484.2</ele>
        <time>2021-04-23T15:54:04.000Z</time>
      </trkpt>
      <trkpt lat="43.296132" lon="-6.870463">
        <ele>483</ele>
        <time>2021-04-23T15:54:07.000Z</time>
      </trkpt>
      <trkpt lat="43.296135" lon="-6.870322">
        <ele>481.7</ele>
        <time>2021-04-23T15:54:09.000Z</time>
      </trkpt>
      <trkpt lat="43.29614" lon="-6.870172">
        <ele>480.6</ele>
        <time>2021-04-23T15:54:11.000Z</time>
      </trkpt>
      <trkpt lat="43.296132" lon="-6.87002">
        <ele>479.3</ele>
        <time>2021-04-23T15:54:13.000Z</time>
      </trkpt>
      <trkpt lat="43.296097" lon="-6.869885">
        <ele>476.9</ele>
        <time>2021-04-23T15:54:15.000Z</time>
      </trkpt>
      <trkpt lat="43.29604" lon="-6.869767">
        <ele>475.1</ele>
        <time>2021-04-23T15:54:17.000Z</time>
      </trkpt>
      <trkpt lat="43.295977" lon="-6.869655">
        <ele>473.4</ele>
        <time>2021-04-23T15:54:19.000Z</time>
      </trkpt>
      <trkpt lat="43.295908" lon="-6.86955">
        <ele>471.9</ele>
        <time>2021-04-23T15:54:21.000Z</time>
      </trkpt>
      <trkpt lat="43.295842" lon="-6.869453">
        <ele>470.6</ele>
        <time>2021-04-23T15:54:23.000Z</time>
      </trkpt>
      <trkpt lat="43.29576" lon="-6.86932">
        <ele>469.1</ele>
        <time>2021-04-23T15:54:26.000Z</time>
      </trkpt>
      <trkpt lat="43.29571" lon="-6.869183">
        <ele>467.4</ele>
        <time>2021-04-23T15:54:29.000Z</time>
      </trkpt>
      <trkpt lat="43.295677" lon="-6.869052">
        <ele>464.3</ele>
        <time>2021-04-23T15:54:33.000Z</time>
      </trkpt>
      <trkpt lat="43.2957" lon="-6.868887">
        <ele>464.2</ele>
        <time>2021-04-23T15:54:37.000Z</time>
      </trkpt>
      <trkpt lat="43.295738" lon="-6.868715">
        <ele>464</ele>
        <time>2021-04-23T15:54:40.000Z</time>
      </trkpt>
      <trkpt lat="43.295775" lon="-6.868542">
        <ele>464.6</ele>
        <time>2021-04-23T15:54:43.000Z</time>
      </trkpt>
      <trkpt lat="43.295808" lon="-6.868375">
        <ele>464.1</ele>
        <time>2021-04-23T15:54:46.000Z</time>
      </trkpt>
      <trkpt lat="43.29583" lon="-6.8682">
        <ele>465</ele>
        <time>2021-04-23T15:54:49.000Z</time>
      </trkpt>
      <trkpt lat="43.295827" lon="-6.868028">
        <ele>465.3</ele>
        <time>2021-04-23T15:54:52.000Z</time>
      </trkpt>
      <trkpt lat="43.29581" lon="-6.867857">
        <ele>467.2</ele>
        <time>2021-04-23T15:54:55.000Z</time>
      </trkpt>
      <trkpt lat="43.295787" lon="-6.867702">
        <ele>467.9</ele>
        <time>2021-04-23T15:54:58.000Z</time>
      </trkpt>
      <trkpt lat="43.295758" lon="-6.867542">
        <ele>468</ele>
        <time>2021-04-23T15:55:01.000Z</time>
      </trkpt>
      <trkpt lat="43.295728" lon="-6.867368">
        <ele>470.5</ele>
        <time>2021-04-23T15:55:04.000Z</time>
      </trkpt>
      <trkpt lat="43.295695" lon="-6.867217">
        <ele>471.3</ele>
        <time>2021-04-23T15:55:07.000Z</time>
      </trkpt>
      <trkpt lat="43.295642" lon="-6.867057">
        <ele>470.7</ele>
        <time>2021-04-23T15:55:10.000Z</time>
      </trkpt>
      <trkpt lat="43.295593" lon="-6.866952">
        <ele>471.2</ele>
        <time>2021-04-23T15:55:12.000Z</time>
      </trkpt>
      <trkpt lat="43.29552" lon="-6.866812">
        <ele>472.7</ele>
        <time>2021-04-23T15:55:15.000Z</time>
      </trkpt>
      <trkpt lat="43.295452" lon="-6.866698">
        <ele>472.6</ele>
        <time>2021-04-23T15:55:18.000Z</time>
      </trkpt>
      <trkpt lat="43.295417" lon="-6.866562">
        <ele>473.2</ele>
        <time>2021-04-23T15:55:21.000Z</time>
      </trkpt>
      <trkpt lat="43.29536" lon="-6.86642">
        <ele>475.9</ele>
        <time>2021-04-23T15:55:24.000Z</time>
      </trkpt>
      <trkpt lat="43.295275" lon="-6.866285">
        <ele>478.8</ele>
        <time>2021-04-23T15:55:27.000Z</time>
      </trkpt>
      <trkpt lat="43.295177" lon="-6.866172">
        <ele>482.2</ele>
        <time>2021-04-23T15:55:30.000Z</time>
      </trkpt>
      <trkpt lat="43.295098" lon="-6.866105">
        <ele>483.7</ele>
        <time>2021-04-23T15:55:32.000Z</time>
      </trkpt>
      <trkpt lat="43.295008" lon="-6.866058">
        <ele>484.1</ele>
        <time>2021-04-23T15:55:34.000Z</time>
      </trkpt>
      <trkpt lat="43.294913" lon="-6.866005">
        <ele>484.3</ele>
        <time>2021-04-23T15:55:36.000Z</time>
      </trkpt>
      <trkpt lat="43.294817" lon="-6.865982">
        <ele>484.3</ele>
        <time>2021-04-23T15:55:38.000Z</time>
      </trkpt>
      <trkpt lat="43.294695" lon="-6.865973">
        <ele>484.7</ele>
        <time>2021-04-23T15:55:40.000Z</time>
      </trkpt>
      <trkpt lat="43.294583" lon="-6.865973">
        <ele>483.9</ele>
        <time>2021-04-23T15:55:42.000Z</time>
      </trkpt>
      <trkpt lat="43.29449" lon="-6.865977">
        <ele>483.2</ele>
        <time>2021-04-23T15:55:44.000Z</time>
      </trkpt>
      <trkpt lat="43.294377" lon="-6.865935">
        <ele>482.1</ele>
        <time>2021-04-23T15:55:47.000Z</time>
      </trkpt>
      <trkpt lat="43.294337" lon="-6.865787">
        <ele>482.7</ele>
        <time>2021-04-23T15:55:50.000Z</time>
      </trkpt>
      <trkpt lat="43.29431" lon="-6.865618">
        <ele>482</ele>
        <time>2021-04-23T15:55:53.000Z</time>
      </trkpt>
      <trkpt lat="43.294293" lon="-6.865492">
        <ele>481.1</ele>
        <time>2021-04-23T15:55:55.000Z</time>
      </trkpt>
      <trkpt lat="43.294277" lon="-6.865365">
        <ele>479.8</ele>
        <time>2021-04-23T15:55:57.000Z</time>
      </trkpt>
      <trkpt lat="43.294248" lon="-6.865243">
        <ele>478.6</ele>
        <time>2021-04-23T15:55:59.000Z</time>
      </trkpt>
      <trkpt lat="43.2942" lon="-6.865092">
        <ele>476.9</ele>
        <time>2021-04-23T15:56:02.000Z</time>
      </trkpt>
      <trkpt lat="43.294157" lon="-6.864962">
        <ele>475.9</ele>
        <time>2021-04-23T15:56:05.000Z</time>
      </trkpt>
      <trkpt lat="43.29411" lon="-6.86481">
        <ele>474.3</ele>
        <time>2021-04-23T15:56:08.000Z</time>
      </trkpt>
      <trkpt lat="43.294057" lon="-6.864645">
        <ele>472.1</ele>
        <time>2021-04-23T15:56:11.000Z</time>
      </trkpt>
      <trkpt lat="43.294017" lon="-6.86449">
        <ele>471.9</ele>
        <time>2021-04-23T15:56:14.000Z</time>
      </trkpt>
      <trkpt lat="43.293982" lon="-6.864363">
        <ele>473.1</ele>
        <time>2021-04-23T15:56:16.000Z</time>
      </trkpt>
      <trkpt lat="43.293948" lon="-6.86423">
        <ele>475</ele>
        <time>2021-04-23T15:56:18.000Z</time>
      </trkpt>
      <trkpt lat="43.293897" lon="-6.864125">
        <ele>475.2</ele>
        <time>2021-04-23T15:56:20.000Z</time>
      </trkpt>
      <trkpt lat="43.293818" lon="-6.863987">
        <ele>477.2</ele>
        <time>2021-04-23T15:56:23.000Z</time>
      </trkpt>
      <trkpt lat="43.293725" lon="-6.863902">
        <ele>479.5</ele>
        <time>2021-04-23T15:56:26.000Z</time>
      </trkpt>
      <trkpt lat="43.293643" lon="-6.863813">
        <ele>484.6</ele>
        <time>2021-04-23T15:56:29.000Z</time>
      </trkpt>
      <trkpt lat="43.293538" lon="-6.863737">
        <ele>488</ele>
        <time>2021-04-23T15:56:32.000Z</time>
      </trkpt>
      <trkpt lat="43.293455" lon="-6.86369">
        <ele>489.2</ele>
        <time>2021-04-23T15:56:34.000Z</time>
      </trkpt>
      <trkpt lat="43.293367" lon="-6.863645">
        <ele>489</ele>
        <time>2021-04-23T15:56:36.000Z</time>
      </trkpt>
      <trkpt lat="43.293248" lon="-6.86359">
        <ele>489.7</ele>
        <time>2021-04-23T15:56:39.000Z</time>
      </trkpt>
      <trkpt lat="43.293132" lon="-6.863523">
        <ele>491.2</ele>
        <time>2021-04-23T15:56:42.000Z</time>
      </trkpt>
      <trkpt lat="43.29299" lon="-6.863442">
        <ele>493.9</ele>
        <time>2021-04-23T15:56:46.000Z</time>
      </trkpt>
      <trkpt lat="43.292902" lon="-6.863367">
        <ele>497.1</ele>
        <time>2021-04-23T15:56:49.000Z</time>
      </trkpt>
      <trkpt lat="43.292777" lon="-6.863283">
        <ele>498.2</ele>
        <time>2021-04-23T15:56:52.000Z</time>
      </trkpt>
      <trkpt lat="43.292692" lon="-6.863213">
        <ele>502</ele>
        <time>2021-04-23T15:56:54.000Z</time>
      </trkpt>
      <trkpt lat="43.292607" lon="-6.863157">
        <ele>503.3</ele>
        <time>2021-04-23T15:56:56.000Z</time>
      </trkpt>
      <trkpt lat="43.292528" lon="-6.863083">
        <ele>505.3</ele>
        <time>2021-04-23T15:56:58.000Z</time>
      </trkpt>
      <trkpt lat="43.292437" lon="-6.86301">
        <ele>507.6</ele>
        <time>2021-04-23T15:57:00.000Z</time>
      </trkpt>
      <trkpt lat="43.292352" lon="-6.862943">
        <ele>508.9</ele>
        <time>2021-04-23T15:57:02.000Z</time>
      </trkpt>
      <trkpt lat="43.292248" lon="-6.862832">
        <ele>511.5</ele>
        <time>2021-04-23T15:57:05.000Z</time>
      </trkpt>
      <trkpt lat="43.29217" lon="-6.862725">
        <ele>513.2</ele>
        <time>2021-04-23T15:57:08.000Z</time>
      </trkpt>
      <trkpt lat="43.292095" lon="-6.862655">
        <ele>513.1</ele>
        <time>2021-04-23T15:57:10.000Z</time>
      </trkpt>
      <trkpt lat="43.291987" lon="-6.862503">
        <ele>513.8</ele>
        <time>2021-04-23T15:57:14.000Z</time>
      </trkpt>
      <trkpt lat="43.291962" lon="-6.862327">
        <ele>514</ele>
        <time>2021-04-23T15:57:17.000Z</time>
      </trkpt>
      <trkpt lat="43.291947" lon="-6.862153">
        <ele>512.5</ele>
        <time>2021-04-23T15:57:20.000Z</time>
      </trkpt>
      <trkpt lat="43.29195" lon="-6.861975">
        <ele>508.8</ele>
        <time>2021-04-23T15:57:23.000Z</time>
      </trkpt>
      <trkpt lat="43.29196" lon="-6.861795">
        <ele>506.7</ele>
        <time>2021-04-23T15:57:26.000Z</time>
      </trkpt>
      <trkpt lat="43.291957" lon="-6.861625">
        <ele>505.3</ele>
        <time>2021-04-23T15:57:29.000Z</time>
      </trkpt>
      <trkpt lat="43.29195" lon="-6.861462">
        <ele>504.4</ele>
        <time>2021-04-23T15:57:32.000Z</time>
      </trkpt>
      <trkpt lat="43.291967" lon="-6.861322">
        <ele>504.4</ele>
        <time>2021-04-23T15:57:35.000Z</time>
      </trkpt>
      <trkpt lat="43.291973" lon="-6.861167">
        <ele>504.1</ele>
        <time>2021-04-23T15:57:38.000Z</time>
      </trkpt>
      <trkpt lat="43.291993" lon="-6.861012">
        <ele>502.8</ele>
        <time>2021-04-23T15:57:41.000Z</time>
      </trkpt>
      <trkpt lat="43.291998" lon="-6.860848">
        <ele>501.9</ele>
        <time>2021-04-23T15:57:44.000Z</time>
      </trkpt>
      <trkpt lat="43.29198" lon="-6.86067">
        <ele>499.7</ele>
        <time>2021-04-23T15:57:47.000Z</time>
      </trkpt>
      <trkpt lat="43.291975" lon="-6.860505">
        <ele>498</ele>
        <time>2021-04-23T15:57:50.000Z</time>
      </trkpt>
      <trkpt lat="43.291982" lon="-6.860382">
        <ele>502</ele>
        <time>2021-04-23T15:58:47.000Z</time>
      </trkpt>
      <trkpt lat="43.291912" lon="-6.860292">
        <ele>507.4</ele>
        <time>2021-04-23T15:59:58.000Z</time>
      </trkpt>
      <trkpt lat="43.291772" lon="-6.86023">
        <ele>507.7</ele>
        <time>2021-04-23T16:00:04.000Z</time>
      </trkpt>
      <trkpt lat="43.291645" lon="-6.86018">
        <ele>507</ele>
        <time>2021-04-23T16:00:07.000Z</time>
      </trkpt>
      <trkpt lat="43.291543" lon="-6.860148">
        <ele>505.5</ele>
        <time>2021-04-23T16:00:09.000Z</time>
      </trkpt>
      <trkpt lat="43.291433" lon="-6.860115">
        <ele>503.9</ele>
        <time>2021-04-23T16:00:11.000Z</time>
      </trkpt>
      <trkpt lat="43.291317" lon="-6.860085">
        <ele>500.9</ele>
        <time>2021-04-23T16:00:13.000Z</time>
      </trkpt>
      <trkpt lat="43.291197" lon="-6.860063">
        <ele>498.4</ele>
        <time>2021-04-23T16:00:15.000Z</time>
      </trkpt>
      <trkpt lat="43.291068" lon="-6.860053">
        <ele>496.5</ele>
        <time>2021-04-23T16:00:17.000Z</time>
      </trkpt>
      <trkpt lat="43.290945" lon="-6.860058">
        <ele>494.3</ele>
        <time>2021-04-23T16:00:19.000Z</time>
      </trkpt>
      <trkpt lat="43.290823" lon="-6.86007">
        <ele>491.3</ele>
        <time>2021-04-23T16:00:21.000Z</time>
      </trkpt>
      <trkpt lat="43.290703" lon="-6.860087">
        <ele>489.1</ele>
        <time>2021-04-23T16:00:23.000Z</time>
      </trkpt>
      <trkpt lat="43.290582" lon="-6.860112">
        <ele>488</ele>
        <time>2021-04-23T16:00:25.000Z</time>
      </trkpt>
      <trkpt lat="43.290408" lon="-6.860162">
        <ele>486.4</ele>
        <time>2021-04-23T16:00:28.000Z</time>
      </trkpt>
      <trkpt lat="43.290305" lon="-6.8602">
        <ele>485.1</ele>
        <time>2021-04-23T16:00:30.000Z</time>
      </trkpt>
      <trkpt lat="43.290208" lon="-6.860235">
        <ele>483.7</ele>
        <time>2021-04-23T16:00:32.000Z</time>
      </trkpt>
      <trkpt lat="43.29012" lon="-6.860268">
        <ele>486.4</ele>
        <time>2021-04-23T16:00:34.000Z</time>
      </trkpt>
      <trkpt lat="43.290028" lon="-6.860308">
        <ele>487.7</ele>
        <time>2021-04-23T16:00:36.000Z</time>
      </trkpt>
      <trkpt lat="43.289908" lon="-6.860338">
        <ele>487.5</ele>
        <time>2021-04-23T16:00:39.000Z</time>
      </trkpt>
      <trkpt lat="43.289793" lon="-6.86034">
        <ele>487.7</ele>
        <time>2021-04-23T16:00:42.000Z</time>
      </trkpt>
      <trkpt lat="43.289685" lon="-6.860307">
        <ele>485.6</ele>
        <time>2021-04-23T16:00:45.000Z</time>
      </trkpt>
      <trkpt lat="43.28957" lon="-6.86027">
        <ele>484.9</ele>
        <time>2021-04-23T16:00:48.000Z</time>
      </trkpt>
      <trkpt lat="43.289445" lon="-6.860288">
        <ele>483.2</ele>
        <time>2021-04-23T16:00:51.000Z</time>
      </trkpt>
      <trkpt lat="43.289358" lon="-6.860337">
        <ele>481.9</ele>
        <time>2021-04-23T16:00:53.000Z</time>
      </trkpt>
      <trkpt lat="43.289272" lon="-6.86042">
        <ele>480.9</ele>
        <time>2021-04-23T16:00:55.000Z</time>
      </trkpt>
      <trkpt lat="43.289155" lon="-6.86059">
        <ele>479.5</ele>
        <time>2021-04-23T16:00:58.000Z</time>
      </trkpt>
      <trkpt lat="43.289083" lon="-6.86072">
        <ele>478.3</ele>
        <time>2021-04-23T16:01:00.000Z</time>
      </trkpt>
      <trkpt lat="43.289005" lon="-6.86087">
        <ele>476.9</ele>
        <time>2021-04-23T16:01:02.000Z</time>
      </trkpt>
      <trkpt lat="43.288933" lon="-6.861025">
        <ele>475.9</ele>
        <time>2021-04-23T16:01:04.000Z</time>
      </trkpt>
      <trkpt lat="43.28888" lon="-6.861145">
        <ele>474.4</ele>
        <time>2021-04-23T16:01:06.000Z</time>
      </trkpt>
      <trkpt lat="43.288827" lon="-6.861282">
        <ele>472.3</ele>
        <time>2021-04-23T16:01:09.000Z</time>
      </trkpt>
      <trkpt lat="43.288822" lon="-6.861422">
        <ele>470.7</ele>
        <time>2021-04-23T16:01:13.000Z</time>
      </trkpt>
      <trkpt lat="43.288832" lon="-6.861582">
        <ele>468.2</ele>
        <time>2021-04-23T16:01:19.000Z</time>
      </trkpt>
      <trkpt lat="43.288842" lon="-6.861743">
        <ele>467.3</ele>
        <time>2021-04-23T16:01:22.000Z</time>
      </trkpt>
      <trkpt lat="43.288852" lon="-6.861902">
        <ele>466.9</ele>
        <time>2021-04-23T16:01:25.000Z</time>
      </trkpt>
      <trkpt lat="43.288858" lon="-6.862033">
        <ele>466.6</ele>
        <time>2021-04-23T16:01:28.000Z</time>
      </trkpt>
      <trkpt lat="43.288872" lon="-6.86218">
        <ele>467.3</ele>
        <time>2021-04-23T16:01:31.000Z</time>
      </trkpt>
      <trkpt lat="43.288898" lon="-6.862363">
        <ele>469.5</ele>
        <time>2021-04-23T16:01:34.000Z</time>
      </trkpt>
      <trkpt lat="43.288913" lon="-6.862493">
        <ele>470.5</ele>
        <time>2021-04-23T16:01:36.000Z</time>
      </trkpt>
      <trkpt lat="43.288923" lon="-6.862623">
        <ele>471.6</ele>
        <time>2021-04-23T16:01:38.000Z</time>
      </trkpt>
      <trkpt lat="43.288937" lon="-6.862802">
        <ele>473.9</ele>
        <time>2021-04-23T16:01:41.000Z</time>
      </trkpt>
      <trkpt lat="43.288958" lon="-6.86296">
        <ele>476.7</ele>
        <time>2021-04-23T16:01:44.000Z</time>
      </trkpt>
      <trkpt lat="43.28897" lon="-6.863128">
        <ele>479.4</ele>
        <time>2021-04-23T16:01:47.000Z</time>
      </trkpt>
      <trkpt lat="43.288977" lon="-6.863288">
        <ele>481.7</ele>
        <time>2021-04-23T16:01:50.000Z</time>
      </trkpt>
      <trkpt lat="43.28898" lon="-6.863427">
        <ele>483.5</ele>
        <time>2021-04-23T16:01:53.000Z</time>
      </trkpt>
      <trkpt lat="43.288977" lon="-6.863592">
        <ele>484.7</ele>
        <time>2021-04-23T16:01:56.000Z</time>
      </trkpt>
      <trkpt lat="43.28897" lon="-6.86372">
        <ele>485.8</ele>
        <time>2021-04-23T16:01:58.000Z</time>
      </trkpt>
      <trkpt lat="43.288967" lon="-6.863857">
        <ele>487.1</ele>
        <time>2021-04-23T16:02:01.000Z</time>
      </trkpt>
      <trkpt lat="43.288957" lon="-6.864015">
        <ele>488</ele>
        <time>2021-04-23T16:02:05.000Z</time>
      </trkpt>
      <trkpt lat="43.288967" lon="-6.864178">
        <ele>488.1</ele>
        <time>2021-04-23T16:02:08.000Z</time>
      </trkpt>
      <trkpt lat="43.288995" lon="-6.864342">
        <ele>488.7</ele>
        <time>2021-04-23T16:02:11.000Z</time>
      </trkpt>
      <trkpt lat="43.289023" lon="-6.86451">
        <ele>490.4</ele>
        <time>2021-04-23T16:02:14.000Z</time>
      </trkpt>
      <trkpt lat="43.289052" lon="-6.864687">
        <ele>490.7</ele>
        <time>2021-04-23T16:02:17.000Z</time>
      </trkpt>
      <trkpt lat="43.289068" lon="-6.86481">
        <ele>491.9</ele>
        <time>2021-04-23T16:02:19.000Z</time>
      </trkpt>
      <trkpt lat="43.28909" lon="-6.864977">
        <ele>492.4</ele>
        <time>2021-04-23T16:02:22.000Z</time>
      </trkpt>
      <trkpt lat="43.289113" lon="-6.865128">
        <ele>493.9</ele>
        <time>2021-04-23T16:02:25.000Z</time>
      </trkpt>
      <trkpt lat="43.289132" lon="-6.865283">
        <ele>494.7</ele>
        <time>2021-04-23T16:02:28.000Z</time>
      </trkpt>
      <trkpt lat="43.289172" lon="-6.865437">
        <ele>495.8</ele>
        <time>2021-04-23T16:02:31.000Z</time>
      </trkpt>
      <trkpt lat="43.289208" lon="-6.865573">
        <ele>497.7</ele>
        <time>2021-04-23T16:02:34.000Z</time>
      </trkpt>
      <trkpt lat="43.289243" lon="-6.865707">
        <ele>498</ele>
        <time>2021-04-23T16:02:37.000Z</time>
      </trkpt>
      <trkpt lat="43.289265" lon="-6.865832">
        <ele>499.2</ele>
        <time>2021-04-23T16:02:40.000Z</time>
      </trkpt>
      <trkpt lat="43.289305" lon="-6.865962">
        <ele>503.6</ele>
        <time>2021-04-23T16:02:49.000Z</time>
      </trkpt>
      <trkpt lat="43.289323" lon="-6.8661">
        <ele>508.2</ele>
        <time>2021-04-23T16:02:53.000Z</time>
      </trkpt>
      <trkpt lat="43.289338" lon="-6.866243">
        <ele>511.7</ele>
        <time>2021-04-23T16:02:58.000Z</time>
      </trkpt>
      <trkpt lat="43.289345" lon="-6.866368">
        <ele>515.3</ele>
        <time>2021-04-23T16:03:02.000Z</time>
      </trkpt>
      <trkpt lat="43.28934" lon="-6.866502">
        <ele>514.9</ele>
        <time>2021-04-23T16:03:05.000Z</time>
      </trkpt>
      <trkpt lat="43.289327" lon="-6.866655">
        <ele>514.5</ele>
        <time>2021-04-23T16:03:08.000Z</time>
      </trkpt>
      <trkpt lat="43.289315" lon="-6.866815">
        <ele>514.3</ele>
        <time>2021-04-23T16:03:11.000Z</time>
      </trkpt>
      <trkpt lat="43.289307" lon="-6.866967">
        <ele>514.2</ele>
        <time>2021-04-23T16:03:14.000Z</time>
      </trkpt>
      <trkpt lat="43.289303" lon="-6.8671">
        <ele>514.5</ele>
        <time>2021-04-23T16:03:17.000Z</time>
      </trkpt>
      <trkpt lat="43.289313" lon="-6.867228">
        <ele>514.5</ele>
        <time>2021-04-23T16:03:20.000Z</time>
      </trkpt>
      <trkpt lat="43.289323" lon="-6.867355">
        <ele>515.9</ele>
        <time>2021-04-23T16:03:23.000Z</time>
      </trkpt>
      <trkpt lat="43.289327" lon="-6.867492">
        <ele>519.1</ele>
        <time>2021-04-23T16:03:26.000Z</time>
      </trkpt>
      <trkpt lat="43.289332" lon="-6.867632">
        <ele>521.3</ele>
        <time>2021-04-23T16:03:29.000Z</time>
      </trkpt>
      <trkpt lat="43.289335" lon="-6.867783">
        <ele>520.4</ele>
        <time>2021-04-23T16:03:32.000Z</time>
      </trkpt>
      <trkpt lat="43.289333" lon="-6.867917">
        <ele>521.7</ele>
        <time>2021-04-23T16:03:35.000Z</time>
      </trkpt>
      <trkpt lat="43.289317" lon="-6.868067">
        <ele>522.5</ele>
        <time>2021-04-23T16:03:38.000Z</time>
      </trkpt>
      <trkpt lat="43.289287" lon="-6.86823">
        <ele>524.3</ele>
        <time>2021-04-23T16:03:41.000Z</time>
      </trkpt>
      <trkpt lat="43.289263" lon="-6.86835">
        <ele>524.5</ele>
        <time>2021-04-23T16:03:43.000Z</time>
      </trkpt>
      <trkpt lat="43.289227" lon="-6.868512">
        <ele>526.7</ele>
        <time>2021-04-23T16:03:46.000Z</time>
      </trkpt>
      <trkpt lat="43.289178" lon="-6.86865">
        <ele>529.4</ele>
        <time>2021-04-23T16:03:49.000Z</time>
      </trkpt>
      <trkpt lat="43.289112" lon="-6.868785">
        <ele>538.2</ele>
        <time>2021-04-23T16:03:52.000Z</time>
      </trkpt>
      <trkpt lat="43.289058" lon="-6.86889">
        <ele>539</ele>
        <time>2021-04-23T16:03:55.000Z</time>
      </trkpt>
      <trkpt lat="43.28901" lon="-6.869012">
        <ele>536.7</ele>
        <time>2021-04-23T16:03:58.000Z</time>
      </trkpt>
      <trkpt lat="43.288962" lon="-6.869125">
        <ele>533.8</ele>
        <time>2021-04-23T16:04:01.000Z</time>
      </trkpt>
      <trkpt lat="43.288875" lon="-6.86924">
        <ele>528.3</ele>
        <time>2021-04-23T16:04:05.000Z</time>
      </trkpt>
      <trkpt lat="43.288802" lon="-6.869348">
        <ele>525.7</ele>
        <time>2021-04-23T16:04:08.000Z</time>
      </trkpt>
      <trkpt lat="43.288718" lon="-6.86945">
        <ele>527.1</ele>
        <time>2021-04-23T16:04:11.000Z</time>
      </trkpt>
      <trkpt lat="43.288618" lon="-6.869555">
        <ele>530.3</ele>
        <time>2021-04-23T16:04:14.000Z</time>
      </trkpt>
      <trkpt lat="43.28852" lon="-6.869652">
        <ele>533.7</ele>
        <time>2021-04-23T16:04:17.000Z</time>
      </trkpt>
      <trkpt lat="43.28841" lon="-6.86972">
        <ele>536.9</ele>
        <time>2021-04-23T16:04:20.000Z</time>
      </trkpt>
      <trkpt lat="43.288308" lon="-6.869777">
        <ele>537.7</ele>
        <time>2021-04-23T16:04:23.000Z</time>
      </trkpt>
      <trkpt lat="43.288205" lon="-6.869843">
        <ele>537.7</ele>
        <time>2021-04-23T16:04:26.000Z</time>
      </trkpt>
      <trkpt lat="43.288098" lon="-6.869918">
        <ele>537.7</ele>
        <time>2021-04-23T16:04:29.000Z</time>
      </trkpt>
      <trkpt lat="43.288012" lon="-6.869985">
        <ele>539</ele>
        <time>2021-04-23T16:04:31.000Z</time>
      </trkpt>
      <trkpt lat="43.287928" lon="-6.870057">
        <ele>539.6</ele>
        <time>2021-04-23T16:04:33.000Z</time>
      </trkpt>
      <trkpt lat="43.287813" lon="-6.870155">
        <ele>540.4</ele>
        <time>2021-04-23T16:04:36.000Z</time>
      </trkpt>
      <trkpt lat="43.287735" lon="-6.87022">
        <ele>541</ele>
        <time>2021-04-23T16:04:38.000Z</time>
      </trkpt>
      <trkpt lat="43.287643" lon="-6.870302">
        <ele>542</ele>
        <time>2021-04-23T16:04:41.000Z</time>
      </trkpt>
      <trkpt lat="43.287555" lon="-6.870362">
        <ele>543.9</ele>
        <time>2021-04-23T16:04:45.000Z</time>
      </trkpt>
      <trkpt lat="43.287443" lon="-6.870453">
        <ele>545.2</ele>
        <time>2021-04-23T16:04:51.000Z</time>
      </trkpt>
      <trkpt lat="43.287327" lon="-6.870542">
        <ele>546.3</ele>
        <time>2021-04-23T16:04:54.000Z</time>
      </trkpt>
      <trkpt lat="43.287247" lon="-6.870602">
        <ele>546.5</ele>
        <time>2021-04-23T16:04:56.000Z</time>
      </trkpt>
      <trkpt lat="43.28714" lon="-6.870685">
        <ele>545.8</ele>
        <time>2021-04-23T16:04:59.000Z</time>
      </trkpt>
      <trkpt lat="43.287038" lon="-6.870767">
        <ele>544.4</ele>
        <time>2021-04-23T16:05:02.000Z</time>
      </trkpt>
      <trkpt lat="43.28694" lon="-6.870838">
        <ele>544</ele>
        <time>2021-04-23T16:05:05.000Z</time>
      </trkpt>
      <trkpt lat="43.286828" lon="-6.87092">
        <ele>545.8</ele>
        <time>2021-04-23T16:05:08.000Z</time>
      </trkpt>
      <trkpt lat="43.28673" lon="-6.871037">
        <ele>547.3</ele>
        <time>2021-04-23T16:05:11.000Z</time>
      </trkpt>
      <trkpt lat="43.286643" lon="-6.87116">
        <ele>549.2</ele>
        <time>2021-04-23T16:05:14.000Z</time>
      </trkpt>
      <trkpt lat="43.286597" lon="-6.8713">
        <ele>549.7</ele>
        <time>2021-04-23T16:05:17.000Z</time>
      </trkpt>
      <trkpt lat="43.286573" lon="-6.871455">
        <ele>550.2</ele>
        <time>2021-04-23T16:05:20.000Z</time>
      </trkpt>
      <trkpt lat="43.286558" lon="-6.871622">
        <ele>550.7</ele>
        <time>2021-04-23T16:05:23.000Z</time>
      </trkpt>
      <trkpt lat="43.286527" lon="-6.871802">
        <ele>552.5</ele>
        <time>2021-04-23T16:05:26.000Z</time>
      </trkpt>
      <trkpt lat="43.2865" lon="-6.871928">
        <ele>554.7</ele>
        <time>2021-04-23T16:05:28.000Z</time>
      </trkpt>
      <trkpt lat="43.28648" lon="-6.872055">
        <ele>557</ele>
        <time>2021-04-23T16:05:30.000Z</time>
      </trkpt>
      <trkpt lat="43.286478" lon="-6.872235">
        <ele>559.3</ele>
        <time>2021-04-23T16:05:33.000Z</time>
      </trkpt>
      <trkpt lat="43.286518" lon="-6.872393">
        <ele>559.3</ele>
        <time>2021-04-23T16:05:36.000Z</time>
      </trkpt>
      <trkpt lat="43.286523" lon="-6.872543">
        <ele>560.3</ele>
        <time>2021-04-23T16:05:40.000Z</time>
      </trkpt>
      <trkpt lat="43.286435" lon="-6.872587">
        <ele>562.1</ele>
        <time>2021-04-23T16:05:45.000Z</time>
      </trkpt>
      <trkpt lat="43.286343" lon="-6.872548">
        <ele>563.8</ele>
        <time>2021-04-23T16:05:48.000Z</time>
      </trkpt>
      <trkpt lat="43.286253" lon="-6.872485">
        <ele>563.9</ele>
        <time>2021-04-23T16:05:51.000Z</time>
      </trkpt>
      <trkpt lat="43.286145" lon="-6.872397">
        <ele>564.2</ele>
        <time>2021-04-23T16:05:55.000Z</time>
      </trkpt>
      <trkpt lat="43.286045" lon="-6.872312">
        <ele>562.8</ele>
        <time>2021-04-23T16:05:58.000Z</time>
      </trkpt>
      <trkpt lat="43.285943" lon="-6.872235">
        <ele>562.6</ele>
        <time>2021-04-23T16:06:01.000Z</time>
      </trkpt>
      <trkpt lat="43.285857" lon="-6.87215">
        <ele>562</ele>
        <time>2021-04-23T16:06:04.000Z</time>
      </trkpt>
      <trkpt lat="43.285768" lon="-6.872032">
        <ele>562.1</ele>
        <time>2021-04-23T16:06:07.000Z</time>
      </trkpt>
      <trkpt lat="43.28569" lon="-6.871912">
        <ele>563.8</ele>
        <time>2021-04-23T16:06:10.000Z</time>
      </trkpt>
      <trkpt lat="43.28561" lon="-6.871798">
        <ele>564.6</ele>
        <time>2021-04-23T16:06:13.000Z</time>
      </trkpt>
      <trkpt lat="43.285522" lon="-6.871712">
        <ele>565.3</ele>
        <time>2021-04-23T16:06:16.000Z</time>
      </trkpt>
      <trkpt lat="43.285445" lon="-6.871628">
        <ele>568.7</ele>
        <time>2021-04-23T16:06:19.000Z</time>
      </trkpt>
      <trkpt lat="43.28535" lon="-6.871553">
        <ele>569.7</ele>
        <time>2021-04-23T16:06:22.000Z</time>
      </trkpt>
      <trkpt lat="43.285247" lon="-6.871538">
        <ele>568.1</ele>
        <time>2021-04-23T16:06:25.000Z</time>
      </trkpt>
      <trkpt lat="43.285145" lon="-6.871552">
        <ele>566.2</ele>
        <time>2021-04-23T16:06:28.000Z</time>
      </trkpt>
      <trkpt lat="43.285057" lon="-6.871507">
        <ele>562</ele>
        <time>2021-04-23T16:06:33.000Z</time>
      </trkpt>
      <trkpt lat="43.285043" lon="-6.871343">
        <ele>562.4</ele>
        <time>2021-04-23T16:23:46.000Z</time>
      </trkpt>
      <trkpt lat="43.285017" lon="-6.871155">
        <ele>562.7</ele>
        <time>2021-04-23T16:23:49.000Z</time>
      </trkpt>
      <trkpt lat="43.285" lon="-6.871">
        <ele>563.4</ele>
        <time>2021-04-23T16:23:51.000Z</time>
      </trkpt>
      <trkpt lat="43.284993" lon="-6.870853">
        <ele>563.2</ele>
        <time>2021-04-23T16:23:53.000Z</time>
      </trkpt>
      <trkpt lat="43.285" lon="-6.870713">
        <ele>562.7</ele>
        <time>2021-04-23T16:23:55.000Z</time>
      </trkpt>
      <trkpt lat="43.285015" lon="-6.870587">
        <ele>562.8</ele>
        <time>2021-04-23T16:23:57.000Z</time>
      </trkpt>
      <trkpt lat="43.285038" lon="-6.870415">
        <ele>562</ele>
        <time>2021-04-23T16:24:00.000Z</time>
      </trkpt>
      <trkpt lat="43.285057" lon="-6.870265">
        <ele>561</ele>
        <time>2021-04-23T16:24:03.000Z</time>
      </trkpt>
      <trkpt lat="43.285077" lon="-6.870097">
        <ele>560.6</ele>
        <time>2021-04-23T16:24:07.000Z</time>
      </trkpt>
      <trkpt lat="43.285112" lon="-6.869922">
        <ele>559.3</ele>
        <time>2021-04-23T16:24:10.000Z</time>
      </trkpt>
      <trkpt lat="43.28513" lon="-6.8698">
        <ele>558.5</ele>
        <time>2021-04-23T16:24:12.000Z</time>
      </trkpt>
      <trkpt lat="43.28516" lon="-6.869632">
        <ele>557</ele>
        <time>2021-04-23T16:24:15.000Z</time>
      </trkpt>
      <trkpt lat="43.285183" lon="-6.869508">
        <ele>557.7</ele>
        <time>2021-04-23T16:24:17.000Z</time>
      </trkpt>
      <trkpt lat="43.285217" lon="-6.869333">
        <ele>556.1</ele>
        <time>2021-04-23T16:24:20.000Z</time>
      </trkpt>
      <trkpt lat="43.285243" lon="-6.869162">
        <ele>551.8</ele>
        <time>2021-04-23T16:24:23.000Z</time>
      </trkpt>
      <trkpt lat="43.285263" lon="-6.869025">
        <ele>547.9</ele>
        <time>2021-04-23T16:24:25.000Z</time>
      </trkpt>
      <trkpt lat="43.285273" lon="-6.868885">
        <ele>545</ele>
        <time>2021-04-23T16:24:27.000Z</time>
      </trkpt>
      <trkpt lat="43.28529" lon="-6.868762">
        <ele>542.3</ele>
        <time>2021-04-23T16:24:29.000Z</time>
      </trkpt>
      <trkpt lat="43.285313" lon="-6.86862">
        <ele>541.6</ele>
        <time>2021-04-23T16:24:31.000Z</time>
      </trkpt>
      <trkpt lat="43.285335" lon="-6.868475">
        <ele>542</ele>
        <time>2021-04-23T16:24:33.000Z</time>
      </trkpt>
      <trkpt lat="43.285357" lon="-6.868325">
        <ele>542.4</ele>
        <time>2021-04-23T16:24:35.000Z</time>
      </trkpt>
      <trkpt lat="43.285385" lon="-6.868192">
        <ele>541.8</ele>
        <time>2021-04-23T16:24:37.000Z</time>
      </trkpt>
      <trkpt lat="43.285413" lon="-6.868055">
        <ele>540.6</ele>
        <time>2021-04-23T16:24:39.000Z</time>
      </trkpt>
      <trkpt lat="43.28544" lon="-6.867908">
        <ele>539.2</ele>
        <time>2021-04-23T16:24:41.000Z</time>
      </trkpt>
      <trkpt lat="43.285485" lon="-6.867758">
        <ele>537.8</ele>
        <time>2021-04-23T16:24:43.000Z</time>
      </trkpt>
      <trkpt lat="43.28553" lon="-6.867613">
        <ele>536.4</ele>
        <time>2021-04-23T16:24:45.000Z</time>
      </trkpt>
      <trkpt lat="43.285575" lon="-6.867472">
        <ele>535</ele>
        <time>2021-04-23T16:24:47.000Z</time>
      </trkpt>
      <trkpt lat="43.285613" lon="-6.867337">
        <ele>533.4</ele>
        <time>2021-04-23T16:24:49.000Z</time>
      </trkpt>
      <trkpt lat="43.285642" lon="-6.867197">
        <ele>532.7</ele>
        <time>2021-04-23T16:24:51.000Z</time>
      </trkpt>
      <trkpt lat="43.285672" lon="-6.867055">
        <ele>532.4</ele>
        <time>2021-04-23T16:24:53.000Z</time>
      </trkpt>
      <trkpt lat="43.285708" lon="-6.866928">
        <ele>532.1</ele>
        <time>2021-04-23T16:24:56.000Z</time>
      </trkpt>
      <trkpt lat="43.285743" lon="-6.866793">
        <ele>532.3</ele>
        <time>2021-04-23T16:25:01.000Z</time>
      </trkpt>
      <trkpt lat="43.28577" lon="-6.86664">
        <ele>531.4</ele>
        <time>2021-04-23T16:25:04.000Z</time>
      </trkpt>
      <trkpt lat="43.285795" lon="-6.866505">
        <ele>530.1</ele>
        <time>2021-04-23T16:25:06.000Z</time>
      </trkpt>
      <trkpt lat="43.285815" lon="-6.866342">
        <ele>529</ele>
        <time>2021-04-23T16:25:08.000Z</time>
      </trkpt>
      <trkpt lat="43.28584" lon="-6.866155">
        <ele>528.3</ele>
        <time>2021-04-23T16:25:10.000Z</time>
      </trkpt>
      <trkpt lat="43.285867" lon="-6.865957">
        <ele>526.6</ele>
        <time>2021-04-23T16:25:12.000Z</time>
      </trkpt>
      <trkpt lat="43.285898" lon="-6.86575">
        <ele>524.7</ele>
        <time>2021-04-23T16:25:14.000Z</time>
      </trkpt>
      <trkpt lat="43.285932" lon="-6.865543">
        <ele>523.5</ele>
        <time>2021-04-23T16:25:16.000Z</time>
      </trkpt>
      <trkpt lat="43.285963" lon="-6.865342">
        <ele>522.1</ele>
        <time>2021-04-23T16:25:18.000Z</time>
      </trkpt>
      <trkpt lat="43.285992" lon="-6.865155">
        <ele>519.2</ele>
        <time>2021-04-23T16:25:20.000Z</time>
      </trkpt>
      <trkpt lat="43.286013" lon="-6.864985">
        <ele>516.6</ele>
        <time>2021-04-23T16:25:22.000Z</time>
      </trkpt>
      <trkpt lat="43.286017" lon="-6.864835">
        <ele>513.3</ele>
        <time>2021-04-23T16:25:25.000Z</time>
      </trkpt>
      <trkpt lat="43.285988" lon="-6.864683">
        <ele>508.9</ele>
        <time>2021-04-23T16:25:31.000Z</time>
      </trkpt>
      <trkpt lat="43.285968" lon="-6.864543">
        <ele>508.8</ele>
        <time>2021-04-23T16:25:34.000Z</time>
      </trkpt>
      <trkpt lat="43.285933" lon="-6.864372">
        <ele>506.9</ele>
        <time>2021-04-23T16:25:37.000Z</time>
      </trkpt>
      <trkpt lat="43.2859" lon="-6.86424">
        <ele>506</ele>
        <time>2021-04-23T16:25:39.000Z</time>
      </trkpt>
      <trkpt lat="43.285862" lon="-6.864102">
        <ele>504.9</ele>
        <time>2021-04-23T16:25:41.000Z</time>
      </trkpt>
      <trkpt lat="43.285825" lon="-6.863965">
        <ele>503.4</ele>
        <time>2021-04-23T16:25:43.000Z</time>
      </trkpt>
      <trkpt lat="43.285782" lon="-6.863825">
        <ele>502.4</ele>
        <time>2021-04-23T16:25:45.000Z</time>
      </trkpt>
      <trkpt lat="43.285733" lon="-6.863683">
        <ele>501.1</ele>
        <time>2021-04-23T16:25:47.000Z</time>
      </trkpt>
      <trkpt lat="43.285682" lon="-6.863545">
        <ele>499.9</ele>
        <time>2021-04-23T16:25:49.000Z</time>
      </trkpt>
      <trkpt lat="43.285635" lon="-6.863413">
        <ele>498.5</ele>
        <time>2021-04-23T16:25:51.000Z</time>
      </trkpt>
      <trkpt lat="43.285588" lon="-6.863275">
        <ele>497.1</ele>
        <time>2021-04-23T16:25:53.000Z</time>
      </trkpt>
      <trkpt lat="43.285538" lon="-6.863128">
        <ele>496.8</ele>
        <time>2021-04-23T16:25:55.000Z</time>
      </trkpt>
      <trkpt lat="43.285487" lon="-6.862988">
        <ele>495.8</ele>
        <time>2021-04-23T16:25:57.000Z</time>
      </trkpt>
      <trkpt lat="43.285425" lon="-6.862847">
        <ele>495.2</ele>
        <time>2021-04-23T16:25:59.000Z</time>
      </trkpt>
      <trkpt lat="43.285353" lon="-6.862685">
        <ele>496.8</ele>
        <time>2021-04-23T16:26:01.000Z</time>
      </trkpt>
      <trkpt lat="43.285293" lon="-6.862555">
        <ele>495.6</ele>
        <time>2021-04-23T16:26:03.000Z</time>
      </trkpt>
      <trkpt lat="43.285237" lon="-6.862428">
        <ele>494.8</ele>
        <time>2021-04-23T16:26:05.000Z</time>
      </trkpt>
      <trkpt lat="43.285165" lon="-6.862293">
        <ele>494.4</ele>
        <time>2021-04-23T16:26:08.000Z</time>
      </trkpt>
      <trkpt lat="43.28511" lon="-6.86217">
        <ele>492.9</ele>
        <time>2021-04-23T16:26:12.000Z</time>
      </trkpt>
      <trkpt lat="43.285062" lon="-6.86206">
        <ele>491.7</ele>
        <time>2021-04-23T16:26:17.000Z</time>
      </trkpt>
      <trkpt lat="43.285045" lon="-6.86191">
        <ele>489.2</ele>
        <time>2021-04-23T16:26:25.000Z</time>
      </trkpt>
      <trkpt lat="43.285007" lon="-6.861757">
        <ele>487.8</ele>
        <time>2021-04-23T16:26:28.000Z</time>
      </trkpt>
      <trkpt lat="43.284977" lon="-6.861622">
        <ele>486.5</ele>
        <time>2021-04-23T16:26:30.000Z</time>
      </trkpt>
      <trkpt lat="43.284953" lon="-6.861478">
        <ele>484.5</ele>
        <time>2021-04-23T16:26:33.000Z</time>
      </trkpt>
      <trkpt lat="43.284947" lon="-6.861348">
        <ele>481.3</ele>
        <time>2021-04-23T16:26:38.000Z</time>
      </trkpt>
      <trkpt lat="43.284953" lon="-6.861195">
        <ele>479.7</ele>
        <time>2021-04-23T16:26:41.000Z</time>
      </trkpt>
      <trkpt lat="43.28495" lon="-6.861057">
        <ele>478.8</ele>
        <time>2021-04-23T16:26:43.000Z</time>
      </trkpt>
      <trkpt lat="43.284947" lon="-6.860885">
        <ele>478.5</ele>
        <time>2021-04-23T16:26:45.000Z</time>
      </trkpt>
      <trkpt lat="43.28493" lon="-6.860715">
        <ele>477.7</ele>
        <time>2021-04-23T16:26:47.000Z</time>
      </trkpt>
      <trkpt lat="43.284895" lon="-6.860547">
        <ele>475.9</ele>
        <time>2021-04-23T16:26:50.000Z</time>
      </trkpt>
      <trkpt lat="43.284878" lon="-6.860422">
        <ele>475.4</ele>
        <time>2021-04-23T16:26:52.000Z</time>
      </trkpt>
      <trkpt lat="43.284872" lon="-6.860297">
        <ele>475.2</ele>
        <time>2021-04-23T16:26:54.000Z</time>
      </trkpt>
      <trkpt lat="43.284833" lon="-6.86018">
        <ele>473.5</ele>
        <time>2021-04-23T16:26:59.000Z</time>
      </trkpt>
      <trkpt lat="43.284733" lon="-6.860193">
        <ele>470.4</ele>
        <time>2021-04-23T16:27:06.000Z</time>
      </trkpt>
      <trkpt lat="43.284653" lon="-6.860337">
        <ele>465.6</ele>
        <time>2021-04-23T16:27:09.000Z</time>
      </trkpt>
      <trkpt lat="43.284597" lon="-6.860453">
        <ele>462.9</ele>
        <time>2021-04-23T16:27:11.000Z</time>
      </trkpt>
      <trkpt lat="43.284543" lon="-6.860572">
        <ele>460.5</ele>
        <time>2021-04-23T16:27:13.000Z</time>
      </trkpt>
      <trkpt lat="43.284475" lon="-6.86069">
        <ele>458.9</ele>
        <time>2021-04-23T16:27:15.000Z</time>
      </trkpt>
      <trkpt lat="43.28442" lon="-6.860815">
        <ele>457.6</ele>
        <time>2021-04-23T16:27:17.000Z</time>
      </trkpt>
      <trkpt lat="43.284363" lon="-6.860935">
        <ele>456.7</ele>
        <time>2021-04-23T16:27:19.000Z</time>
      </trkpt>
      <trkpt lat="43.2843" lon="-6.861098">
        <ele>455.5</ele>
        <time>2021-04-23T16:27:22.000Z</time>
      </trkpt>
      <trkpt lat="43.284247" lon="-6.861253">
        <ele>453.7</ele>
        <time>2021-04-23T16:27:25.000Z</time>
      </trkpt>
      <trkpt lat="43.284208" lon="-6.861397">
        <ele>452.3</ele>
        <time>2021-04-23T16:27:28.000Z</time>
      </trkpt>
      <trkpt lat="43.28417" lon="-6.861533">
        <ele>451.4</ele>
        <time>2021-04-23T16:27:31.000Z</time>
      </trkpt>
      <trkpt lat="43.284127" lon="-6.861682">
        <ele>452.2</ele>
        <time>2021-04-23T16:27:34.000Z</time>
      </trkpt>
      <trkpt lat="43.284095" lon="-6.861825">
        <ele>450.5</ele>
        <time>2021-04-23T16:27:37.000Z</time>
      </trkpt>
      <trkpt lat="43.284053" lon="-6.861965">
        <ele>449.2</ele>
        <time>2021-04-23T16:27:40.000Z</time>
      </trkpt>
      <trkpt lat="43.283992" lon="-6.862085">
        <ele>449.7</ele>
        <time>2021-04-23T16:27:43.000Z</time>
      </trkpt>
      <trkpt lat="43.283948" lon="-6.862213">
        <ele>448.3</ele>
        <time>2021-04-23T16:27:46.000Z</time>
      </trkpt>
      <trkpt lat="43.283893" lon="-6.862318">
        <ele>449.1</ele>
        <time>2021-04-23T16:27:48.000Z</time>
      </trkpt>
      <trkpt lat="43.283843" lon="-6.862453">
        <ele>448.1</ele>
        <time>2021-04-23T16:27:51.000Z</time>
      </trkpt>
      <trkpt lat="43.283812" lon="-6.862583">
        <ele>451.1</ele>
        <time>2021-04-23T16:27:53.000Z</time>
      </trkpt>
      <trkpt lat="43.283783" lon="-6.862727">
        <ele>452.5</ele>
        <time>2021-04-23T16:27:55.000Z</time>
      </trkpt>
      <trkpt lat="43.283778" lon="-6.862857">
        <ele>452.4</ele>
        <time>2021-04-23T16:27:57.000Z</time>
      </trkpt>
      <trkpt lat="43.283742" lon="-6.863012">
        <ele>452.1</ele>
        <time>2021-04-23T16:28:00.000Z</time>
      </trkpt>
      <trkpt lat="43.283737" lon="-6.86314">
        <ele>450.7</ele>
        <time>2021-04-23T16:28:03.000Z</time>
      </trkpt>
      <trkpt lat="43.283737" lon="-6.86333">
        <ele>449.2</ele>
        <time>2021-04-23T16:28:06.000Z</time>
      </trkpt>
      <trkpt lat="43.2837" lon="-6.863455">
        <ele>446.9</ele>
        <time>2021-04-23T16:28:08.000Z</time>
      </trkpt>
      <trkpt lat="43.283615" lon="-6.863557">
        <ele>444.9</ele>
        <time>2021-04-23T16:28:10.000Z</time>
      </trkpt>
      <trkpt lat="43.283535" lon="-6.863662">
        <ele>442.2</ele>
        <time>2021-04-23T16:28:12.000Z</time>
      </trkpt>
      <trkpt lat="43.283458" lon="-6.863752">
        <ele>440.4</ele>
        <time>2021-04-23T16:28:14.000Z</time>
      </trkpt>
      <trkpt lat="43.283383" lon="-6.863842">
        <ele>438.9</ele>
        <time>2021-04-23T16:28:16.000Z</time>
      </trkpt>
      <trkpt lat="43.283313" lon="-6.863963">
        <ele>437.5</ele>
        <time>2021-04-23T16:28:18.000Z</time>
      </trkpt>
      <trkpt lat="43.283252" lon="-6.8641">
        <ele>436.6</ele>
        <time>2021-04-23T16:28:20.000Z</time>
      </trkpt>
      <trkpt lat="43.283197" lon="-6.864257">
        <ele>436.3</ele>
        <time>2021-04-23T16:28:22.000Z</time>
      </trkpt>
      <trkpt lat="43.283137" lon="-6.864423">
        <ele>438.1</ele>
        <time>2021-04-23T16:28:24.000Z</time>
      </trkpt>
      <trkpt lat="43.283113" lon="-6.86455">
        <ele>437</ele>
        <time>2021-04-23T16:28:26.000Z</time>
      </trkpt>
      <trkpt lat="43.283067" lon="-6.864677">
        <ele>436</ele>
        <time>2021-04-23T16:28:28.000Z</time>
      </trkpt>
      <trkpt lat="43.282995" lon="-6.864753">
        <ele>435.3</ele>
        <time>2021-04-23T16:28:30.000Z</time>
      </trkpt>
      <trkpt lat="43.282865" lon="-6.864733">
        <ele>432.8</ele>
        <time>2021-04-23T16:28:33.000Z</time>
      </trkpt>
      <trkpt lat="43.28277" lon="-6.864735">
        <ele>431.7</ele>
        <time>2021-04-23T16:28:35.000Z</time>
      </trkpt>
      <trkpt lat="43.282667" lon="-6.86477">
        <ele>432.4</ele>
        <time>2021-04-23T16:28:37.000Z</time>
      </trkpt>
      <trkpt lat="43.282573" lon="-6.864847">
        <ele>434.9</ele>
        <time>2021-04-23T16:28:39.000Z</time>
      </trkpt>
      <trkpt lat="43.282503" lon="-6.864955">
        <ele>435.4</ele>
        <time>2021-04-23T16:28:41.000Z</time>
      </trkpt>
      <trkpt lat="43.282452" lon="-6.865072">
        <ele>434.8</ele>
        <time>2021-04-23T16:28:43.000Z</time>
      </trkpt>
      <trkpt lat="43.282403" lon="-6.865185">
        <ele>434.1</ele>
        <time>2021-04-23T16:28:45.000Z</time>
      </trkpt>
      <trkpt lat="43.282355" lon="-6.865312">
        <ele>434</ele>
        <time>2021-04-23T16:28:47.000Z</time>
      </trkpt>
      <trkpt lat="43.28231" lon="-6.865442">
        <ele>434.2</ele>
        <time>2021-04-23T16:28:49.000Z</time>
      </trkpt>
      <trkpt lat="43.282267" lon="-6.865583">
        <ele>433.8</ele>
        <time>2021-04-23T16:28:51.000Z</time>
      </trkpt>
      <trkpt lat="43.28224" lon="-6.865723">
        <ele>431.8</ele>
        <time>2021-04-23T16:28:53.000Z</time>
      </trkpt>
      <trkpt lat="43.28222" lon="-6.865877">
        <ele>427.7</ele>
        <time>2021-04-23T16:28:55.000Z</time>
      </trkpt>
      <trkpt lat="43.282205" lon="-6.866038">
        <ele>425</ele>
        <time>2021-04-23T16:28:57.000Z</time>
      </trkpt>
      <trkpt lat="43.282185" lon="-6.866208">
        <ele>422.2</ele>
        <time>2021-04-23T16:28:59.000Z</time>
      </trkpt>
      <trkpt lat="43.282162" lon="-6.866385">
        <ele>420.3</ele>
        <time>2021-04-23T16:29:01.000Z</time>
      </trkpt>
      <trkpt lat="43.282133" lon="-6.866568">
        <ele>419.4</ele>
        <time>2021-04-23T16:29:03.000Z</time>
      </trkpt>
      <trkpt lat="43.282108" lon="-6.866738">
        <ele>418.1</ele>
        <time>2021-04-23T16:29:05.000Z</time>
      </trkpt>
      <trkpt lat="43.282068" lon="-6.866902">
        <ele>416.9</ele>
        <time>2021-04-23T16:29:07.000Z</time>
      </trkpt>
      <trkpt lat="43.281965" lon="-6.866963">
        <ele>413.8</ele>
        <time>2021-04-23T16:29:10.000Z</time>
      </trkpt>
      <trkpt lat="43.28186" lon="-6.866928">
        <ele>412.8</ele>
        <time>2021-04-23T16:29:13.000Z</time>
      </trkpt>
      <trkpt lat="43.28176" lon="-6.866912">
        <ele>412</ele>
        <time>2021-04-23T16:29:16.000Z</time>
      </trkpt>
      <trkpt lat="43.281632" lon="-6.866927">
        <ele>412.8</ele>
        <time>2021-04-23T16:29:19.000Z</time>
      </trkpt>
      <trkpt lat="43.281538" lon="-6.86698">
        <ele>412.6</ele>
        <time>2021-04-23T16:29:21.000Z</time>
      </trkpt>
      <trkpt lat="43.28146" lon="-6.867067">
        <ele>411.5</ele>
        <time>2021-04-23T16:29:23.000Z</time>
      </trkpt>
      <trkpt lat="43.281392" lon="-6.867175">
        <ele>410.7</ele>
        <time>2021-04-23T16:29:25.000Z</time>
      </trkpt>
      <trkpt lat="43.281343" lon="-6.86729">
        <ele>410.4</ele>
        <time>2021-04-23T16:29:27.000Z</time>
      </trkpt>
      <trkpt lat="43.281312" lon="-6.867463">
        <ele>408.6</ele>
        <time>2021-04-23T16:29:30.000Z</time>
      </trkpt>
      <trkpt lat="43.281285" lon="-6.867608">
        <ele>406.6</ele>
        <time>2021-04-23T16:29:33.000Z</time>
      </trkpt>
      <trkpt lat="43.28124" lon="-6.867757">
        <ele>407</ele>
        <time>2021-04-23T16:29:36.000Z</time>
      </trkpt>
      <trkpt lat="43.281202" lon="-6.867912">
        <ele>406.1</ele>
        <time>2021-04-23T16:29:39.000Z</time>
      </trkpt>
      <trkpt lat="43.281212" lon="-6.868072">
        <ele>404.5</ele>
        <time>2021-04-23T16:29:42.000Z</time>
      </trkpt>
      <trkpt lat="43.281182" lon="-6.868195">
        <ele>404</ele>
        <time>2021-04-23T16:29:44.000Z</time>
      </trkpt>
      <trkpt lat="43.281083" lon="-6.868275">
        <ele>403</ele>
        <time>2021-04-23T16:29:47.000Z</time>
      </trkpt>
      <trkpt lat="43.28096" lon="-6.868243">
        <ele>405.4</ele>
        <time>2021-04-23T16:29:50.000Z</time>
      </trkpt>
      <trkpt lat="43.280872" lon="-6.868155">
        <ele>405.5</ele>
        <time>2021-04-23T16:29:52.000Z</time>
      </trkpt>
      <trkpt lat="43.280812" lon="-6.868033">
        <ele>405.6</ele>
        <time>2021-04-23T16:29:54.000Z</time>
      </trkpt>
      <trkpt lat="43.28077" lon="-6.867897">
        <ele>405.4</ele>
        <time>2021-04-23T16:29:56.000Z</time>
      </trkpt>
      <trkpt lat="43.280722" lon="-6.867768">
        <ele>405</ele>
        <time>2021-04-23T16:29:58.000Z</time>
      </trkpt>
      <trkpt lat="43.280665" lon="-6.867672">
        <ele>404.4</ele>
        <time>2021-04-23T16:30:00.000Z</time>
      </trkpt>
      <trkpt lat="43.280527" lon="-6.867602">
        <ele>406.3</ele>
        <time>2021-04-23T16:30:03.000Z</time>
      </trkpt>
      <trkpt lat="43.280387" lon="-6.867593">
        <ele>405.7</ele>
        <time>2021-04-23T16:30:05.000Z</time>
      </trkpt>
      <trkpt lat="43.280215" lon="-6.867635">
        <ele>403</ele>
        <time>2021-04-23T16:30:07.000Z</time>
      </trkpt>
      <trkpt lat="43.280122" lon="-6.867662">
        <ele>402</ele>
        <time>2021-04-23T16:30:08.000Z</time>
      </trkpt>
      <trkpt lat="43.280032" lon="-6.867685">
        <ele>401.4</ele>
        <time>2021-04-23T16:30:09.000Z</time>
      </trkpt>
      <trkpt lat="43.279878" lon="-6.867723">
        <ele>399.3</ele>
        <time>2021-04-23T16:30:11.000Z</time>
      </trkpt>
      <trkpt lat="43.279743" lon="-6.867767">
        <ele>397.5</ele>
        <time>2021-04-23T16:30:13.000Z</time>
      </trkpt>
      <trkpt lat="43.279602" lon="-6.867822">
        <ele>395.8</ele>
        <time>2021-04-23T16:30:15.000Z</time>
      </trkpt>
      <trkpt lat="43.27948" lon="-6.867898">
        <ele>394</ele>
        <time>2021-04-23T16:30:17.000Z</time>
      </trkpt>
      <trkpt lat="43.279385" lon="-6.867983">
        <ele>390.9</ele>
        <time>2021-04-23T16:30:19.000Z</time>
      </trkpt>
      <trkpt lat="43.279283" lon="-6.868027">
        <ele>387.3</ele>
        <time>2021-04-23T16:30:22.000Z</time>
      </trkpt>
      <trkpt lat="43.279283" lon="-6.867873">
        <ele>378.7</ele>
        <time>2021-04-23T16:30:26.000Z</time>
      </trkpt>
      <trkpt lat="43.279317" lon="-6.867727">
        <ele>375.4</ele>
        <time>2021-04-23T16:30:28.000Z</time>
      </trkpt>
      <trkpt lat="43.27934" lon="-6.867558">
        <ele>373.9</ele>
        <time>2021-04-23T16:30:30.000Z</time>
      </trkpt>
      <trkpt lat="43.279357" lon="-6.8674">
        <ele>372.2</ele>
        <time>2021-04-23T16:30:32.000Z</time>
      </trkpt>
      <trkpt lat="43.279348" lon="-6.867267">
        <ele>371.4</ele>
        <time>2021-04-23T16:30:34.000Z</time>
      </trkpt>
      <trkpt lat="43.279278" lon="-6.867137">
        <ele>368.4</ele>
        <time>2021-04-23T16:30:37.000Z</time>
      </trkpt>
      <trkpt lat="43.279187" lon="-6.867148">
        <ele>366</ele>
        <time>2021-04-23T16:30:39.000Z</time>
      </trkpt>
      <trkpt lat="43.279058" lon="-6.867267">
        <ele>362.4</ele>
        <time>2021-04-23T16:30:41.000Z</time>
      </trkpt>
      <trkpt lat="43.278965" lon="-6.867362">
        <ele>361.3</ele>
        <time>2021-04-23T16:30:42.000Z</time>
      </trkpt>
      <trkpt lat="43.278868" lon="-6.86747">
        <ele>360.2</ele>
        <time>2021-04-23T16:30:43.000Z</time>
      </trkpt>
      <trkpt lat="43.278787" lon="-6.867582">
        <ele>359.2</ele>
        <time>2021-04-23T16:30:44.000Z</time>
      </trkpt>
      <trkpt lat="43.278718" lon="-6.867685">
        <ele>358.3</ele>
        <time>2021-04-23T16:30:45.000Z</time>
      </trkpt>
      <trkpt lat="43.278623" lon="-6.867863">
        <ele>357.1</ele>
        <time>2021-04-23T16:30:47.000Z</time>
      </trkpt>
      <trkpt lat="43.278538" lon="-6.868028">
        <ele>356</ele>
        <time>2021-04-23T16:30:49.000Z</time>
      </trkpt>
      <trkpt lat="43.278455" lon="-6.868217">
        <ele>353.7</ele>
        <time>2021-04-23T16:30:51.000Z</time>
      </trkpt>
      <trkpt lat="43.278362" lon="-6.868433">
        <ele>352.3</ele>
        <time>2021-04-23T16:30:53.000Z</time>
      </trkpt>
      <trkpt lat="43.278312" lon="-6.86863">
        <ele>349.1</ele>
        <time>2021-04-23T16:30:55.000Z</time>
      </trkpt>
      <trkpt lat="43.278265" lon="-6.868795">
        <ele>345.8</ele>
        <time>2021-04-23T16:30:57.000Z</time>
      </trkpt>
      <trkpt lat="43.278218" lon="-6.868928">
        <ele>344</ele>
        <time>2021-04-23T16:30:59.000Z</time>
      </trkpt>
      <trkpt lat="43.278157" lon="-6.869018">
        <ele>338</ele>
        <time>2021-04-23T16:31:04.000Z</time>
      </trkpt>
      <trkpt lat="43.27805" lon="-6.868967">
        <ele>340.2</ele>
        <time>2021-04-23T16:31:07.000Z</time>
      </trkpt>
      <trkpt lat="43.277945" lon="-6.868857">
        <ele>342.9</ele>
        <time>2021-04-23T16:31:10.000Z</time>
      </trkpt>
      <trkpt lat="43.277843" lon="-6.868803">
        <ele>342.5</ele>
        <time>2021-04-23T16:31:12.000Z</time>
      </trkpt>
      <trkpt lat="43.277732" lon="-6.868747">
        <ele>339.7</ele>
        <time>2021-04-23T16:31:15.000Z</time>
      </trkpt>
      <trkpt lat="43.277605" lon="-6.868752">
        <ele>337.1</ele>
        <time>2021-04-23T16:31:18.000Z</time>
      </trkpt>
      <trkpt lat="43.277497" lon="-6.86881">
        <ele>334.3</ele>
        <time>2021-04-23T16:31:20.000Z</time>
      </trkpt>
      <trkpt lat="43.2774" lon="-6.86889">
        <ele>330.7</ele>
        <time>2021-04-23T16:31:22.000Z</time>
      </trkpt>
      <trkpt lat="43.277327" lon="-6.868978">
        <ele>328</ele>
        <time>2021-04-23T16:31:24.000Z</time>
      </trkpt>
      <trkpt lat="43.277238" lon="-6.869018">
        <ele>324.1</ele>
        <time>2021-04-23T16:31:27.000Z</time>
      </trkpt>
      <trkpt lat="43.277113" lon="-6.868998">
        <ele>322.9</ele>
        <time>2021-04-23T16:31:30.000Z</time>
      </trkpt>
      <trkpt lat="43.277028" lon="-6.868932">
        <ele>321.7</ele>
        <time>2021-04-23T16:31:33.000Z</time>
      </trkpt>
      <trkpt lat="43.276955" lon="-6.868855">
        <ele>321.3</ele>
        <time>2021-04-23T16:31:36.000Z</time>
      </trkpt>
      <trkpt lat="43.276865" lon="-6.868767">
        <ele>322.4</ele>
        <time>2021-04-23T16:31:39.000Z</time>
      </trkpt>
      <trkpt lat="43.276772" lon="-6.86866">
        <ele>323.4</ele>
        <time>2021-04-23T16:31:42.000Z</time>
      </trkpt>
      <trkpt lat="43.27667" lon="-6.868565">
        <ele>323.6</ele>
        <time>2021-04-23T16:31:45.000Z</time>
      </trkpt>
      <trkpt lat="43.276542" lon="-6.868508">
        <ele>322.3</ele>
        <time>2021-04-23T16:31:48.000Z</time>
      </trkpt>
      <trkpt lat="43.276442" lon="-6.868452">
        <ele>322.4</ele>
        <time>2021-04-23T16:31:50.000Z</time>
      </trkpt>
      <trkpt lat="43.27633" lon="-6.868413">
        <ele>324.5</ele>
        <time>2021-04-23T16:31:52.000Z</time>
      </trkpt>
      <trkpt lat="43.276232" lon="-6.868418">
        <ele>323.7</ele>
        <time>2021-04-23T16:31:54.000Z</time>
      </trkpt>
      <trkpt lat="43.276133" lon="-6.868443">
        <ele>323.6</ele>
        <time>2021-04-23T16:31:56.000Z</time>
      </trkpt>
      <trkpt lat="43.276027" lon="-6.868472">
        <ele>324.6</ele>
        <time>2021-04-23T16:31:58.000Z</time>
      </trkpt>
      <trkpt lat="43.275913" lon="-6.868507">
        <ele>324.4</ele>
        <time>2021-04-23T16:32:00.000Z</time>
      </trkpt>
      <trkpt lat="43.27581" lon="-6.868547">
        <ele>323.1</ele>
        <time>2021-04-23T16:32:02.000Z</time>
      </trkpt>
      <trkpt lat="43.27572" lon="-6.868607">
        <ele>321.2</ele>
        <time>2021-04-23T16:32:04.000Z</time>
      </trkpt>
      <trkpt lat="43.275632" lon="-6.868685">
        <ele>321.2</ele>
        <time>2021-04-23T16:32:06.000Z</time>
      </trkpt>
      <trkpt lat="43.275563" lon="-6.868768">
        <ele>319.8</ele>
        <time>2021-04-23T16:32:08.000Z</time>
      </trkpt>
      <trkpt lat="43.275492" lon="-6.868848">
        <ele>318.3</ele>
        <time>2021-04-23T16:32:10.000Z</time>
      </trkpt>
      <trkpt lat="43.275418" lon="-6.868923">
        <ele>317.2</ele>
        <time>2021-04-23T16:32:12.000Z</time>
      </trkpt>
      <trkpt lat="43.275308" lon="-6.869003">
        <ele>319.8</ele>
        <time>2021-04-23T16:32:15.000Z</time>
      </trkpt>
      <trkpt lat="43.275203" lon="-6.869067">
        <ele>322.6</ele>
        <time>2021-04-23T16:32:18.000Z</time>
      </trkpt>
      <trkpt lat="43.275092" lon="-6.86914">
        <ele>323.9</ele>
        <time>2021-04-23T16:32:21.000Z</time>
      </trkpt>
      <trkpt lat="43.274987" lon="-6.869253">
        <ele>321.3</ele>
        <time>2021-04-23T16:32:24.000Z</time>
      </trkpt>
      <trkpt lat="43.274907" lon="-6.869335">
        <ele>320.1</ele>
        <time>2021-04-23T16:32:26.000Z</time>
      </trkpt>
      <trkpt lat="43.274827" lon="-6.86941">
        <ele>318.8</ele>
        <time>2021-04-23T16:32:28.000Z</time>
      </trkpt>
      <trkpt lat="43.274738" lon="-6.869482">
        <ele>318.1</ele>
        <time>2021-04-23T16:32:30.000Z</time>
      </trkpt>
      <trkpt lat="43.27464" lon="-6.869563">
        <ele>317.7</ele>
        <time>2021-04-23T16:32:32.000Z</time>
      </trkpt>
      <trkpt lat="43.274553" lon="-6.869655">
        <ele>315.4</ele>
        <time>2021-04-23T16:32:34.000Z</time>
      </trkpt>
      <trkpt lat="43.27448" lon="-6.869748">
        <ele>312.9</ele>
        <time>2021-04-23T16:32:36.000Z</time>
      </trkpt>
      <trkpt lat="43.274403" lon="-6.869855">
        <ele>311.2</ele>
        <time>2021-04-23T16:32:39.000Z</time>
      </trkpt>
      <trkpt lat="43.2743" lon="-6.869912">
        <ele>309.1</ele>
        <time>2021-04-23T16:32:44.000Z</time>
      </trkpt>
      <trkpt lat="43.27419" lon="-6.86988">
        <ele>306.9</ele>
        <time>2021-04-23T16:32:48.000Z</time>
      </trkpt>
      <trkpt lat="43.274065" lon="-6.869825">
        <ele>304.5</ele>
        <time>2021-04-23T16:32:51.000Z</time>
      </trkpt>
      <trkpt lat="43.273968" lon="-6.869762">
        <ele>303.3</ele>
        <time>2021-04-23T16:32:53.000Z</time>
      </trkpt>
      <trkpt lat="43.273895" lon="-6.869688">
        <ele>301.6</ele>
        <time>2021-04-23T16:32:55.000Z</time>
      </trkpt>
      <trkpt lat="43.273813" lon="-6.869608">
        <ele>299</ele>
        <time>2021-04-23T16:32:59.000Z</time>
      </trkpt>
      <trkpt lat="43.273695" lon="-6.869643">
        <ele>297.4</ele>
        <time>2021-04-23T16:33:05.000Z</time>
      </trkpt>
      <trkpt lat="43.273608" lon="-6.869682">
        <ele>296.4</ele>
        <time>2021-04-23T16:33:07.000Z</time>
      </trkpt>
      <trkpt lat="43.273503" lon="-6.869732">
        <ele>296.2</ele>
        <time>2021-04-23T16:33:09.000Z</time>
      </trkpt>
      <trkpt lat="43.273398" lon="-6.869785">
        <ele>296.8</ele>
        <time>2021-04-23T16:33:11.000Z</time>
      </trkpt>
      <trkpt lat="43.273293" lon="-6.86984">
        <ele>297.4</ele>
        <time>2021-04-23T16:33:13.000Z</time>
      </trkpt>
      <trkpt lat="43.273185" lon="-6.8699">
        <ele>298.4</ele>
        <time>2021-04-23T16:33:15.000Z</time>
      </trkpt>
      <trkpt lat="43.273077" lon="-6.869958">
        <ele>301.7</ele>
        <time>2021-04-23T16:33:17.000Z</time>
      </trkpt>
      <trkpt lat="43.272972" lon="-6.870007">
        <ele>303.7</ele>
        <time>2021-04-23T16:33:19.000Z</time>
      </trkpt>
      <trkpt lat="43.272868" lon="-6.870028">
        <ele>305</ele>
        <time>2021-04-23T16:33:21.000Z</time>
      </trkpt>
      <trkpt lat="43.272767" lon="-6.870013">
        <ele>306.7</ele>
        <time>2021-04-23T16:33:23.000Z</time>
      </trkpt>
      <trkpt lat="43.272673" lon="-6.870008">
        <ele>307.6</ele>
        <time>2021-04-23T16:33:25.000Z</time>
      </trkpt>
      <trkpt lat="43.272537" lon="-6.870038">
        <ele>308.7</ele>
        <time>2021-04-23T16:33:28.000Z</time>
      </trkpt>
      <trkpt lat="43.272438" lon="-6.870118">
        <ele>309.1</ele>
        <time>2021-04-23T16:33:30.000Z</time>
      </trkpt>
      <trkpt lat="43.272335" lon="-6.870223">
        <ele>309.1</ele>
        <time>2021-04-23T16:33:32.000Z</time>
      </trkpt>
      <trkpt lat="43.27223" lon="-6.870338">
        <ele>309.2</ele>
        <time>2021-04-23T16:33:34.000Z</time>
      </trkpt>
      <trkpt lat="43.272128" lon="-6.870463">
        <ele>308.6</ele>
        <time>2021-04-23T16:33:36.000Z</time>
      </trkpt>
      <trkpt lat="43.272018" lon="-6.870597">
        <ele>309</ele>
        <time>2021-04-23T16:33:38.000Z</time>
      </trkpt>
      <trkpt lat="43.271905" lon="-6.870733">
        <ele>308.8</ele>
        <time>2021-04-23T16:33:40.000Z</time>
      </trkpt>
      <trkpt lat="43.271787" lon="-6.870875">
        <ele>308.9</ele>
        <time>2021-04-23T16:33:42.000Z</time>
      </trkpt>
      <trkpt lat="43.271658" lon="-6.871022">
        <ele>308.6</ele>
        <time>2021-04-23T16:33:44.000Z</time>
      </trkpt>
      <trkpt lat="43.27152" lon="-6.871185">
        <ele>307.8</ele>
        <time>2021-04-23T16:33:46.000Z</time>
      </trkpt>
      <trkpt lat="43.271445" lon="-6.871272">
        <ele>307.3</ele>
        <time>2021-04-23T16:33:47.000Z</time>
      </trkpt>
      <trkpt lat="43.271373" lon="-6.87137">
        <ele>306</ele>
        <time>2021-04-23T16:33:48.000Z</time>
      </trkpt>
      <trkpt lat="43.271295" lon="-6.871473">
        <ele>305.6</ele>
        <time>2021-04-23T16:33:49.000Z</time>
      </trkpt>
      <trkpt lat="43.271222" lon="-6.87157">
        <ele>304.8</ele>
        <time>2021-04-23T16:33:50.000Z</time>
      </trkpt>
      <trkpt lat="43.271107" lon="-6.871725">
        <ele>302.2</ele>
        <time>2021-04-23T16:33:52.000Z</time>
      </trkpt>
      <trkpt lat="43.271022" lon="-6.871838">
        <ele>301.3</ele>
        <time>2021-04-23T16:33:54.000Z</time>
      </trkpt>
      <trkpt lat="43.270948" lon="-6.871952">
        <ele>299.5</ele>
        <time>2021-04-23T16:33:56.000Z</time>
      </trkpt>
      <trkpt lat="43.270843" lon="-6.872078">
        <ele>298</ele>
        <time>2021-04-23T16:33:58.000Z</time>
      </trkpt>
      <trkpt lat="43.270753" lon="-6.872193">
        <ele>296.5</ele>
        <time>2021-04-23T16:34:00.000Z</time>
      </trkpt>
      <trkpt lat="43.270675" lon="-6.8723">
        <ele>294.2</ele>
        <time>2021-04-23T16:34:03.000Z</time>
      </trkpt>
      <trkpt lat="43.270597" lon="-6.872405">
        <ele>292.2</ele>
        <time>2021-04-23T16:34:05.000Z</time>
      </trkpt>
      <trkpt lat="43.27052" lon="-6.872532">
        <ele>289.9</ele>
        <time>2021-04-23T16:34:07.000Z</time>
      </trkpt>
      <trkpt lat="43.270453" lon="-6.872715">
        <ele>287.2</ele>
        <time>2021-04-23T16:34:09.000Z</time>
      </trkpt>
      <trkpt lat="43.270435" lon="-6.872853">
        <ele>284.1</ele>
        <time>2021-04-23T16:34:10.000Z</time>
      </trkpt>
      <trkpt lat="43.27041" lon="-6.872973">
        <ele>282.5</ele>
        <time>2021-04-23T16:34:11.000Z</time>
      </trkpt>
      <trkpt lat="43.270375" lon="-6.8732">
        <ele>280.6</ele>
        <time>2021-04-23T16:34:13.000Z</time>
      </trkpt>
      <trkpt lat="43.270357" lon="-6.873367">
        <ele>278.7</ele>
        <time>2021-04-23T16:34:15.000Z</time>
      </trkpt>
      <trkpt lat="43.270318" lon="-6.873522">
        <ele>276</ele>
        <time>2021-04-23T16:34:18.000Z</time>
      </trkpt>
      <trkpt lat="43.270227" lon="-6.873628">
        <ele>275</ele>
        <time>2021-04-23T16:34:21.000Z</time>
      </trkpt>
      <trkpt lat="43.270123" lon="-6.873573">
        <ele>274</ele>
        <time>2021-04-23T16:34:24.000Z</time>
      </trkpt>
      <trkpt lat="43.269995" lon="-6.873503">
        <ele>274.3</ele>
        <time>2021-04-23T16:34:26.000Z</time>
      </trkpt>
      <trkpt lat="43.269845" lon="-6.873412">
        <ele>274</ele>
        <time>2021-04-23T16:34:28.000Z</time>
      </trkpt>
      <trkpt lat="43.269717" lon="-6.873317">
        <ele>272.6</ele>
        <time>2021-04-23T16:34:30.000Z</time>
      </trkpt>
      <trkpt lat="43.269618" lon="-6.873268">
        <ele>270.4</ele>
        <time>2021-04-23T16:34:32.000Z</time>
      </trkpt>
      <trkpt lat="43.2695" lon="-6.873213">
        <ele>266.5</ele>
        <time>2021-04-23T16:34:35.000Z</time>
      </trkpt>
      <trkpt lat="43.269405" lon="-6.873203">
        <ele>265.8</ele>
        <time>2021-04-23T16:34:37.000Z</time>
      </trkpt>
      <trkpt lat="43.269292" lon="-6.873245">
        <ele>265.5</ele>
        <time>2021-04-23T16:34:39.000Z</time>
      </trkpt>
      <trkpt lat="43.269178" lon="-6.873335">
        <ele>264.8</ele>
        <time>2021-04-23T16:34:41.000Z</time>
      </trkpt>
      <trkpt lat="43.269073" lon="-6.873442">
        <ele>263.1</ele>
        <time>2021-04-23T16:34:43.000Z</time>
      </trkpt>
      <trkpt lat="43.26897" lon="-6.873562">
        <ele>261.6</ele>
        <time>2021-04-23T16:34:45.000Z</time>
      </trkpt>
      <trkpt lat="43.268872" lon="-6.873678">
        <ele>259.7</ele>
        <time>2021-04-23T16:34:47.000Z</time>
      </trkpt>
      <trkpt lat="43.268772" lon="-6.873797">
        <ele>258.5</ele>
        <time>2021-04-23T16:34:49.000Z</time>
      </trkpt>
      <trkpt lat="43.268673" lon="-6.873927">
        <ele>254.9</ele>
        <time>2021-04-23T16:34:51.000Z</time>
      </trkpt>
      <trkpt lat="43.268563" lon="-6.874048">
        <ele>252</ele>
        <time>2021-04-23T16:34:53.000Z</time>
      </trkpt>
      <trkpt lat="43.268437" lon="-6.874207">
        <ele>248.2</ele>
        <time>2021-04-23T16:34:55.000Z</time>
      </trkpt>
      <trkpt lat="43.268293" lon="-6.874383">
        <ele>245.9</ele>
        <time>2021-04-23T16:34:57.000Z</time>
      </trkpt>
      <trkpt lat="43.268223" lon="-6.874478">
        <ele>245</ele>
        <time>2021-04-23T16:34:58.000Z</time>
      </trkpt>
      <trkpt lat="43.26815" lon="-6.874572">
        <ele>244</ele>
        <time>2021-04-23T16:34:59.000Z</time>
      </trkpt>
      <trkpt lat="43.26806" lon="-6.874665">
        <ele>244.8</ele>
        <time>2021-04-23T16:35:00.000Z</time>
      </trkpt>
      <trkpt lat="43.26798" lon="-6.874767">
        <ele>245.1</ele>
        <time>2021-04-23T16:35:01.000Z</time>
      </trkpt>
      <trkpt lat="43.26791" lon="-6.874853">
        <ele>245.8</ele>
        <time>2021-04-23T16:35:02.000Z</time>
      </trkpt>
      <trkpt lat="43.267803" lon="-6.875017">
        <ele>245.4</ele>
        <time>2021-04-23T16:35:04.000Z</time>
      </trkpt>
      <trkpt lat="43.26777" lon="-6.875188">
        <ele>244.1</ele>
        <time>2021-04-23T16:35:06.000Z</time>
      </trkpt>
      <trkpt lat="43.267802" lon="-6.87537">
        <ele>243.5</ele>
        <time>2021-04-23T16:35:08.000Z</time>
      </trkpt>
      <trkpt lat="43.267867" lon="-6.875543">
        <ele>241.7</ele>
        <time>2021-04-23T16:35:10.000Z</time>
      </trkpt>
      <trkpt lat="43.267943" lon="-6.875715">
        <ele>239.8</ele>
        <time>2021-04-23T16:35:12.000Z</time>
      </trkpt>
      <trkpt lat="43.26803" lon="-6.875865">
        <ele>237.8</ele>
        <time>2021-04-23T16:35:14.000Z</time>
      </trkpt>
      <trkpt lat="43.268072" lon="-6.876007">
        <ele>236.3</ele>
        <time>2021-04-23T16:35:16.000Z</time>
      </trkpt>
      <trkpt lat="43.268067" lon="-6.876132">
        <ele>235.7</ele>
        <time>2021-04-23T16:35:18.000Z</time>
      </trkpt>
      <trkpt lat="43.268" lon="-6.87629">
        <ele>234</ele>
        <time>2021-04-23T16:35:21.000Z</time>
      </trkpt>
      <trkpt lat="43.267905" lon="-6.876335">
        <ele>233.5</ele>
        <time>2021-04-23T16:35:23.000Z</time>
      </trkpt>
      <trkpt lat="43.267798" lon="-6.876332">
        <ele>234.9</ele>
        <time>2021-04-23T16:35:25.000Z</time>
      </trkpt>
      <trkpt lat="43.2677" lon="-6.876323">
        <ele>233.3</ele>
        <time>2021-04-23T16:35:27.000Z</time>
      </trkpt>
      <trkpt lat="43.267597" lon="-6.876305">
        <ele>232</ele>
        <time>2021-04-23T16:35:29.000Z</time>
      </trkpt>
      <trkpt lat="43.267478" lon="-6.876287">
        <ele>231</ele>
        <time>2021-04-23T16:35:31.000Z</time>
      </trkpt>
      <trkpt lat="43.267332" lon="-6.876242">
        <ele>230.5</ele>
        <time>2021-04-23T16:35:33.000Z</time>
      </trkpt>
      <trkpt lat="43.267157" lon="-6.876212">
        <ele>230.4</ele>
        <time>2021-04-23T16:35:35.000Z</time>
      </trkpt>
      <trkpt lat="43.267067" lon="-6.876195">
        <ele>230.7</ele>
        <time>2021-04-23T16:35:36.000Z</time>
      </trkpt>
      <trkpt lat="43.266895" lon="-6.87616">
        <ele>231.5</ele>
        <time>2021-04-23T16:35:38.000Z</time>
      </trkpt>
      <trkpt lat="43.266718" lon="-6.87615">
        <ele>231.4</ele>
        <time>2021-04-23T16:35:40.000Z</time>
      </trkpt>
      <trkpt lat="43.266628" lon="-6.87617">
        <ele>231.8</ele>
        <time>2021-04-23T16:35:41.000Z</time>
      </trkpt>
      <trkpt lat="43.26654" lon="-6.876198">
        <ele>232.1</ele>
        <time>2021-04-23T16:35:42.000Z</time>
      </trkpt>
      <trkpt lat="43.26638" lon="-6.87627">
        <ele>231.7</ele>
        <time>2021-04-23T16:35:44.000Z</time>
      </trkpt>
      <trkpt lat="43.266293" lon="-6.876317">
        <ele>231.3</ele>
        <time>2021-04-23T16:35:45.000Z</time>
      </trkpt>
      <trkpt lat="43.266208" lon="-6.876373">
        <ele>231.5</ele>
        <time>2021-04-23T16:35:46.000Z</time>
      </trkpt>
      <trkpt lat="43.266135" lon="-6.876447">
        <ele>231.3</ele>
        <time>2021-04-23T16:35:47.000Z</time>
      </trkpt>
      <trkpt lat="43.266065" lon="-6.876527">
        <ele>231.4</ele>
        <time>2021-04-23T16:35:48.000Z</time>
      </trkpt>
      <trkpt lat="43.265943" lon="-6.876718">
        <ele>231.3</ele>
        <time>2021-04-23T16:35:50.000Z</time>
      </trkpt>
      <trkpt lat="43.265885" lon="-6.87683">
        <ele>231.4</ele>
        <time>2021-04-23T16:35:51.000Z</time>
      </trkpt>
      <trkpt lat="43.265833" lon="-6.876945">
        <ele>231.7</ele>
        <time>2021-04-23T16:35:52.000Z</time>
      </trkpt>
      <trkpt lat="43.265767" lon="-6.877147">
        <ele>231.7</ele>
        <time>2021-04-23T16:35:54.000Z</time>
      </trkpt>
      <trkpt lat="43.26572" lon="-6.877275">
        <ele>230.7</ele>
        <time>2021-04-23T16:35:56.000Z</time>
      </trkpt>
      <trkpt lat="43.26564" lon="-6.877387">
        <ele>227.4</ele>
        <time>2021-04-23T16:35:59.000Z</time>
      </trkpt>
      <trkpt lat="43.265517" lon="-6.877432">
        <ele>224.7</ele>
        <time>2021-04-23T16:36:02.000Z</time>
      </trkpt>
      <trkpt lat="43.265385" lon="-6.87744">
        <ele>223.8</ele>
        <time>2021-04-23T16:36:04.000Z</time>
      </trkpt>
      <trkpt lat="43.26522" lon="-6.87747">
        <ele>222.3</ele>
        <time>2021-04-23T16:36:06.000Z</time>
      </trkpt>
      <trkpt lat="43.265052" lon="-6.87751">
        <ele>221.1</ele>
        <time>2021-04-23T16:36:08.000Z</time>
      </trkpt>
      <trkpt lat="43.264963" lon="-6.877537">
        <ele>220.3</ele>
        <time>2021-04-23T16:36:09.000Z</time>
      </trkpt>
      <trkpt lat="43.264875" lon="-6.877572">
        <ele>219.6</ele>
        <time>2021-04-23T16:36:10.000Z</time>
      </trkpt>
      <trkpt lat="43.26473" lon="-6.877668">
        <ele>218.4</ele>
        <time>2021-04-23T16:36:12.000Z</time>
      </trkpt>
      <trkpt lat="43.26461" lon="-6.877792">
        <ele>217.1</ele>
        <time>2021-04-23T16:36:14.000Z</time>
      </trkpt>
      <trkpt lat="43.26455" lon="-6.87789">
        <ele>216.5</ele>
        <time>2021-04-23T16:36:15.000Z</time>
      </trkpt>
      <trkpt lat="43.264493" lon="-6.878005">
        <ele>215.7</ele>
        <time>2021-04-23T16:36:16.000Z</time>
      </trkpt>
      <trkpt lat="43.264433" lon="-6.878108">
        <ele>215</ele>
        <time>2021-04-23T16:36:17.000Z</time>
      </trkpt>
      <trkpt lat="43.26437" lon="-6.8782">
        <ele>214.1</ele>
        <time>2021-04-23T16:36:18.000Z</time>
      </trkpt>
      <trkpt lat="43.2643" lon="-6.878288">
        <ele>213.3</ele>
        <time>2021-04-23T16:36:19.000Z</time>
      </trkpt>
      <trkpt lat="43.264223" lon="-6.878372">
        <ele>212.4</ele>
        <time>2021-04-23T16:36:20.000Z</time>
      </trkpt>
      <trkpt lat="43.264145" lon="-6.87847">
        <ele>210.5</ele>
        <time>2021-04-23T16:36:21.000Z</time>
      </trkpt>
      <trkpt lat="43.264" lon="-6.878615">
        <ele>208.3</ele>
        <time>2021-04-23T16:36:23.000Z</time>
      </trkpt>
      <trkpt lat="43.263843" lon="-6.878757">
        <ele>206.8</ele>
        <time>2021-04-23T16:36:25.000Z</time>
      </trkpt>
      <trkpt lat="43.263768" lon="-6.878833">
        <ele>206.2</ele>
        <time>2021-04-23T16:36:26.000Z</time>
      </trkpt>
      <trkpt lat="43.263692" lon="-6.878918">
        <ele>204.4</ele>
        <time>2021-04-23T16:36:27.000Z</time>
      </trkpt>
      <trkpt lat="43.263608" lon="-6.878998">
        <ele>203.5</ele>
        <time>2021-04-23T16:36:28.000Z</time>
      </trkpt>
      <trkpt lat="43.263518" lon="-6.879075">
        <ele>202.9</ele>
        <time>2021-04-23T16:36:29.000Z</time>
      </trkpt>
      <trkpt lat="43.263428" lon="-6.879148">
        <ele>202.2</ele>
        <time>2021-04-23T16:36:30.000Z</time>
      </trkpt>
      <trkpt lat="43.26334" lon="-6.87922">
        <ele>202</ele>
        <time>2021-04-23T16:36:31.000Z</time>
      </trkpt>
      <trkpt lat="43.263205" lon="-6.879383">
        <ele>201.2</ele>
        <time>2021-04-23T16:36:33.000Z</time>
      </trkpt>
      <trkpt lat="43.263143" lon="-6.879477">
        <ele>200.9</ele>
        <time>2021-04-23T16:36:34.000Z</time>
      </trkpt>
      <trkpt lat="43.26308" lon="-6.879583">
        <ele>200.4</ele>
        <time>2021-04-23T16:36:35.000Z</time>
      </trkpt>
      <trkpt lat="43.263015" lon="-6.879687">
        <ele>199.8</ele>
        <time>2021-04-23T16:36:36.000Z</time>
      </trkpt>
      <trkpt lat="43.262947" lon="-6.879785">
        <ele>199.5</ele>
        <time>2021-04-23T16:36:37.000Z</time>
      </trkpt>
      <trkpt lat="43.262868" lon="-6.87988">
        <ele>198.8</ele>
        <time>2021-04-23T16:36:38.000Z</time>
      </trkpt>
      <trkpt lat="43.262788" lon="-6.879963">
        <ele>198.1</ele>
        <time>2021-04-23T16:36:39.000Z</time>
      </trkpt>
      <trkpt lat="43.262702" lon="-6.880043">
        <ele>197.4</ele>
        <time>2021-04-23T16:36:40.000Z</time>
      </trkpt>
      <trkpt lat="43.262615" lon="-6.880122">
        <ele>196.6</ele>
        <time>2021-04-23T16:36:41.000Z</time>
      </trkpt>
      <trkpt lat="43.262517" lon="-6.880188">
        <ele>195.8</ele>
        <time>2021-04-23T16:36:42.000Z</time>
      </trkpt>
      <trkpt lat="43.262412" lon="-6.880265">
        <ele>194.9</ele>
        <time>2021-04-23T16:36:43.000Z</time>
      </trkpt>
      <trkpt lat="43.262303" lon="-6.880345">
        <ele>193.9</ele>
        <time>2021-04-23T16:36:44.000Z</time>
      </trkpt>
      <trkpt lat="43.262205" lon="-6.880422">
        <ele>192.2</ele>
        <time>2021-04-23T16:36:45.000Z</time>
      </trkpt>
      <trkpt lat="43.262112" lon="-6.880492">
        <ele>191.7</ele>
        <time>2021-04-23T16:36:46.000Z</time>
      </trkpt>
      <trkpt lat="43.26202" lon="-6.880545">
        <ele>190.1</ele>
        <time>2021-04-23T16:36:47.000Z</time>
      </trkpt>
      <trkpt lat="43.26192" lon="-6.880587">
        <ele>189.1</ele>
        <time>2021-04-23T16:36:48.000Z</time>
      </trkpt>
      <trkpt lat="43.261828" lon="-6.880627">
        <ele>187.4</ele>
        <time>2021-04-23T16:36:49.000Z</time>
      </trkpt>
      <trkpt lat="43.261668" lon="-6.88068">
        <ele>185.6</ele>
        <time>2021-04-23T16:36:51.000Z</time>
      </trkpt>
      <trkpt lat="43.26154" lon="-6.880702">
        <ele>183.1</ele>
        <time>2021-04-23T16:36:53.000Z</time>
      </trkpt>
      <trkpt lat="43.261415" lon="-6.880693">
        <ele>181.1</ele>
        <time>2021-04-23T16:36:55.000Z</time>
      </trkpt>
      <trkpt lat="43.26128" lon="-6.88067">
        <ele>178.4</ele>
        <time>2021-04-23T16:36:57.000Z</time>
      </trkpt>
      <trkpt lat="43.261142" lon="-6.88062">
        <ele>176.3</ele>
        <time>2021-04-23T16:36:59.000Z</time>
      </trkpt>
      <trkpt lat="43.260995" lon="-6.880543">
        <ele>173.9</ele>
        <time>2021-04-23T16:37:01.000Z</time>
      </trkpt>
      <trkpt lat="43.260827" lon="-6.880442">
        <ele>172.1</ele>
        <time>2021-04-23T16:37:03.000Z</time>
      </trkpt>
      <trkpt lat="43.260745" lon="-6.880387">
        <ele>171.4</ele>
        <time>2021-04-23T16:37:04.000Z</time>
      </trkpt>
      <trkpt lat="43.26061" lon="-6.880305">
        <ele>171.6</ele>
        <time>2021-04-23T16:37:06.000Z</time>
      </trkpt>
      <trkpt lat="43.260472" lon="-6.880273">
        <ele>171.6</ele>
        <time>2021-04-23T16:37:08.000Z</time>
      </trkpt>
      <trkpt lat="43.260367" lon="-6.880285">
        <ele>172.3</ele>
        <time>2021-04-23T16:37:09.000Z</time>
      </trkpt>
      <trkpt lat="43.260268" lon="-6.880292">
        <ele>173.9</ele>
        <time>2021-04-23T16:37:10.000Z</time>
      </trkpt>
      <trkpt lat="43.260108" lon="-6.88031">
        <ele>174.2</ele>
        <time>2021-04-23T16:37:12.000Z</time>
      </trkpt>
      <trkpt lat="43.25999" lon="-6.880382">
        <ele>173.7</ele>
        <time>2021-04-23T16:37:14.000Z</time>
      </trkpt>
      <trkpt lat="43.259858" lon="-6.880432">
        <ele>173.2</ele>
        <time>2021-04-23T16:37:16.000Z</time>
      </trkpt>
      <trkpt lat="43.25974" lon="-6.880465">
        <ele>172.5</ele>
        <time>2021-04-23T16:37:18.000Z</time>
      </trkpt>
      <trkpt lat="43.259628" lon="-6.880512">
        <ele>170.9</ele>
        <time>2021-04-23T16:37:20.000Z</time>
      </trkpt>
      <trkpt lat="43.259503" lon="-6.88056">
        <ele>168.8</ele>
        <time>2021-04-23T16:37:22.000Z</time>
      </trkpt>
      <trkpt lat="43.259362" lon="-6.880618">
        <ele>164.7</ele>
        <time>2021-04-23T16:37:24.000Z</time>
      </trkpt>
      <trkpt lat="43.259238" lon="-6.880637">
        <ele>163.3</ele>
        <time>2021-04-23T16:37:26.000Z</time>
      </trkpt>
      <trkpt lat="43.259157" lon="-6.880705">
        <ele>157.3</ele>
        <time>2021-04-23T16:37:28.000Z</time>
      </trkpt>
      <trkpt lat="43.259053" lon="-6.880783">
        <ele>154.7</ele>
        <time>2021-04-23T16:37:31.000Z</time>
      </trkpt>
      <trkpt lat="43.258943" lon="-6.880767">
        <ele>149.1</ele>
        <time>2021-04-23T16:37:35.000Z</time>
      </trkpt>
      <trkpt lat="43.258882" lon="-6.880635">
        <ele>142.9</ele>
        <time>2021-04-23T16:37:39.000Z</time>
      </trkpt>
      <trkpt lat="43.258867" lon="-6.880493">
        <ele>139.8</ele>
        <time>2021-04-23T16:37:42.000Z</time>
      </trkpt>
      <trkpt lat="43.258902" lon="-6.880352">
        <ele>137.4</ele>
        <time>2021-04-23T16:37:45.000Z</time>
      </trkpt>
      <trkpt lat="43.258965" lon="-6.880215">
        <ele>135.2</ele>
        <time>2021-04-23T16:37:49.000Z</time>
      </trkpt>
      <trkpt lat="43.25906" lon="-6.880092">
        <ele>135.6</ele>
        <time>2021-04-23T16:37:52.000Z</time>
      </trkpt>
      <trkpt lat="43.259157" lon="-6.879972">
        <ele>135.6</ele>
        <time>2021-04-23T16:37:55.000Z</time>
      </trkpt>
      <trkpt lat="43.259237" lon="-6.879877">
        <ele>135.2</ele>
        <time>2021-04-23T16:37:57.000Z</time>
      </trkpt>
      <trkpt lat="43.25932" lon="-6.879785">
        <ele>135.2</ele>
        <time>2021-04-23T16:37:59.000Z</time>
      </trkpt>
      <trkpt lat="43.2594" lon="-6.879715">
        <ele>136.9</ele>
        <time>2021-04-23T16:38:01.000Z</time>
      </trkpt>
      <trkpt lat="43.25951" lon="-6.879657">
        <ele>140.1</ele>
        <time>2021-04-23T16:38:04.000Z</time>
      </trkpt>
      <trkpt lat="43.259595" lon="-6.879597">
        <ele>139.5</ele>
        <time>2021-04-23T16:38:06.000Z</time>
      </trkpt>
      <trkpt lat="43.259688" lon="-6.879537">
        <ele>139.1</ele>
        <time>2021-04-23T16:38:08.000Z</time>
      </trkpt>
      <trkpt lat="43.259775" lon="-6.879478">
        <ele>140.6</ele>
        <time>2021-04-23T16:38:11.000Z</time>
      </trkpt>
      <trkpt lat="43.259897" lon="-6.879415">
        <ele>140.2</ele>
        <time>2021-04-23T16:38:14.000Z</time>
      </trkpt>
      <trkpt lat="43.259998" lon="-6.879362">
        <ele>139.9</ele>
        <time>2021-04-23T16:38:16.000Z</time>
      </trkpt>
      <trkpt lat="43.260083" lon="-6.879307">
        <ele>139.5</ele>
        <time>2021-04-23T16:38:18.000Z</time>
      </trkpt>
      <trkpt lat="43.260175" lon="-6.879263">
        <ele>139.2</ele>
        <time>2021-04-23T16:38:20.000Z</time>
      </trkpt>
      <trkpt lat="43.260297" lon="-6.8792">
        <ele>138.6</ele>
        <time>2021-04-23T16:38:22.000Z</time>
      </trkpt>
      <trkpt lat="43.260422" lon="-6.879157">
        <ele>138.2</ele>
        <time>2021-04-23T16:38:24.000Z</time>
      </trkpt>
      <trkpt lat="43.260568" lon="-6.879115">
        <ele>137.7</ele>
        <time>2021-04-23T16:38:26.000Z</time>
      </trkpt>
      <trkpt lat="43.260705" lon="-6.879083">
        <ele>137</ele>
        <time>2021-04-23T16:38:28.000Z</time>
      </trkpt>
      <trkpt lat="43.260828" lon="-6.879052">
        <ele>136.5</ele>
        <time>2021-04-23T16:38:30.000Z</time>
      </trkpt>
      <trkpt lat="43.260938" lon="-6.879037">
        <ele>136.2</ele>
        <time>2021-04-23T16:38:32.000Z</time>
      </trkpt>
      <trkpt lat="43.261048" lon="-6.879043">
        <ele>136.2</ele>
        <time>2021-04-23T16:38:34.000Z</time>
      </trkpt>
      <trkpt lat="43.261158" lon="-6.879057">
        <ele>136.1</ele>
        <time>2021-04-23T16:38:36.000Z</time>
      </trkpt>
      <trkpt lat="43.261273" lon="-6.879065">
        <ele>136</ele>
        <time>2021-04-23T16:38:38.000Z</time>
      </trkpt>
      <trkpt lat="43.261363" lon="-6.879112">
        <ele>143.4</ele>
        <time>2021-04-23T16:38:40.000Z</time>
      </trkpt>
      <trkpt lat="43.261472" lon="-6.879113">
        <ele>149.1</ele>
        <time>2021-04-23T16:38:42.000Z</time>
      </trkpt>
      <trkpt lat="43.261562" lon="-6.879052">
        <ele>158.1</ele>
        <time>2021-04-23T16:38:45.000Z</time>
      </trkpt>
      <trkpt lat="43.261667" lon="-6.878922">
        <ele>164.4</ele>
        <time>2021-04-23T16:38:48.000Z</time>
      </trkpt>
      <trkpt lat="43.261738" lon="-6.878802">
        <ele>167.3</ele>
        <time>2021-04-23T16:38:50.000Z</time>
      </trkpt>
      <trkpt lat="43.261792" lon="-6.878677">
        <ele>171</ele>
        <time>2021-04-23T16:38:52.000Z</time>
      </trkpt>
      <trkpt lat="43.261853" lon="-6.878563">
        <ele>174.3</ele>
        <time>2021-04-23T16:38:54.000Z</time>
      </trkpt>
      <trkpt lat="43.261927" lon="-6.878462">
        <ele>176.8</ele>
        <time>2021-04-23T16:38:56.000Z</time>
      </trkpt>
      <trkpt lat="43.26199" lon="-6.87835">
        <ele>183.9</ele>
        <time>2021-04-23T16:38:59.000Z</time>
      </trkpt>
      <trkpt lat="43.261947" lon="-6.878207">
        <ele>189.9</ele>
        <time>2021-04-23T16:39:02.000Z</time>
      </trkpt>
      <trkpt lat="43.26189" lon="-6.878098">
        <ele>194.6</ele>
        <time>2021-04-23T16:39:05.000Z</time>
      </trkpt>
      <trkpt lat="43.26177" lon="-6.878005">
        <ele>199.5</ele>
        <time>2021-04-23T16:39:08.000Z</time>
      </trkpt>
      <trkpt lat="43.261688" lon="-6.877915">
        <ele>203.3</ele>
        <time>2021-04-23T16:39:10.000Z</time>
      </trkpt>
      <trkpt lat="43.261585" lon="-6.877827">
        <ele>207</ele>
        <time>2021-04-23T16:39:12.000Z</time>
      </trkpt>
      <trkpt lat="43.261485" lon="-6.877757">
        <ele>210.2</ele>
        <time>2021-04-23T16:39:14.000Z</time>
      </trkpt>
      <trkpt lat="43.261413" lon="-6.877657">
        <ele>211</ele>
        <time>2021-04-23T16:39:16.000Z</time>
      </trkpt>
      <trkpt lat="43.261452" lon="-6.877513">
        <ele>213.9</ele>
        <time>2021-04-23T16:39:19.000Z</time>
      </trkpt>
      <trkpt lat="43.261553" lon="-6.877445">
        <ele>215.9</ele>
        <time>2021-04-23T16:39:21.000Z</time>
      </trkpt>
      <trkpt lat="43.261663" lon="-6.877405">
        <ele>220.7</ele>
        <time>2021-04-23T16:39:24.000Z</time>
      </trkpt>
      <trkpt lat="43.261788" lon="-6.877353">
        <ele>222.2</ele>
        <time>2021-04-23T16:39:27.000Z</time>
      </trkpt>
      <trkpt lat="43.26189" lon="-6.877285">
        <ele>222.2</ele>
        <time>2021-04-23T16:39:29.000Z</time>
      </trkpt>
      <trkpt lat="43.261983" lon="-6.877193">
        <ele>221.1</ele>
        <time>2021-04-23T16:39:31.000Z</time>
      </trkpt>
      <trkpt lat="43.262097" lon="-6.877085">
        <ele>219.9</ele>
        <time>2021-04-23T16:39:33.000Z</time>
      </trkpt>
      <trkpt lat="43.262195" lon="-6.876963">
        <ele>218.8</ele>
        <time>2021-04-23T16:39:35.000Z</time>
      </trkpt>
      <trkpt lat="43.262248" lon="-6.876837">
        <ele>218.6</ele>
        <time>2021-04-23T16:39:37.000Z</time>
      </trkpt>
      <trkpt lat="43.262287" lon="-6.876697">
        <ele>219.6</ele>
        <time>2021-04-23T16:39:39.000Z</time>
      </trkpt>
      <trkpt lat="43.26232" lon="-6.876552">
        <ele>220.7</ele>
        <time>2021-04-23T16:39:41.000Z</time>
      </trkpt>
      <trkpt lat="43.262342" lon="-6.876413">
        <ele>221.8</ele>
        <time>2021-04-23T16:39:43.000Z</time>
      </trkpt>
      <trkpt lat="43.262372" lon="-6.876282">
        <ele>222.7</ele>
        <time>2021-04-23T16:39:45.000Z</time>
      </trkpt>
      <trkpt lat="43.262427" lon="-6.876152">
        <ele>223.9</ele>
        <time>2021-04-23T16:39:47.000Z</time>
      </trkpt>
      <trkpt lat="43.26247" lon="-6.87602">
        <ele>224.5</ele>
        <time>2021-04-23T16:39:49.000Z</time>
      </trkpt>
      <trkpt lat="43.262538" lon="-6.875892">
        <ele>225.3</ele>
        <time>2021-04-23T16:39:51.000Z</time>
      </trkpt>
      <trkpt lat="43.26261" lon="-6.87576">
        <ele>224.4</ele>
        <time>2021-04-23T16:39:53.000Z</time>
      </trkpt>
      <trkpt lat="43.262628" lon="-6.87561">
        <ele>222.6</ele>
        <time>2021-04-23T16:39:55.000Z</time>
      </trkpt>
      <trkpt lat="43.262663" lon="-6.875472">
        <ele>220.8</ele>
        <time>2021-04-23T16:39:57.000Z</time>
      </trkpt>
      <trkpt lat="43.262725" lon="-6.87534">
        <ele>220</ele>
        <time>2021-04-23T16:39:59.000Z</time>
      </trkpt>
      <trkpt lat="43.262825" lon="-6.87522">
        <ele>220.9</ele>
        <time>2021-04-23T16:40:01.000Z</time>
      </trkpt>
      <trkpt lat="43.262917" lon="-6.87508">
        <ele>221.7</ele>
        <time>2021-04-23T16:40:03.000Z</time>
      </trkpt>
      <trkpt lat="43.263" lon="-6.874937">
        <ele>223</ele>
        <time>2021-04-23T16:40:05.000Z</time>
      </trkpt>
      <trkpt lat="43.263057" lon="-6.87481">
        <ele>224.6</ele>
        <time>2021-04-23T16:40:08.000Z</time>
      </trkpt>
      <trkpt lat="43.26311" lon="-6.874685">
        <ele>227.4</ele>
        <time>2021-04-23T16:40:11.000Z</time>
      </trkpt>
      <trkpt lat="43.26317" lon="-6.874538">
        <ele>232.2</ele>
        <time>2021-04-23T16:40:14.000Z</time>
      </trkpt>
      <trkpt lat="43.263248" lon="-6.874415">
        <ele>238.2</ele>
        <time>2021-04-23T16:40:17.000Z</time>
      </trkpt>
      <trkpt lat="43.263338" lon="-6.874355">
        <ele>242.4</ele>
        <time>2021-04-23T16:40:19.000Z</time>
      </trkpt>
      <trkpt lat="43.263463" lon="-6.874318">
        <ele>244.6</ele>
        <time>2021-04-23T16:40:21.000Z</time>
      </trkpt>
      <trkpt lat="43.263598" lon="-6.874252">
        <ele>245.2</ele>
        <time>2021-04-23T16:40:23.000Z</time>
      </trkpt>
      <trkpt lat="43.263708" lon="-6.874128">
        <ele>246.1</ele>
        <time>2021-04-23T16:40:25.000Z</time>
      </trkpt>
      <trkpt lat="43.263797" lon="-6.873968">
        <ele>246.4</ele>
        <time>2021-04-23T16:40:27.000Z</time>
      </trkpt>
      <trkpt lat="43.263862" lon="-6.873792">
        <ele>247.4</ele>
        <time>2021-04-23T16:40:29.000Z</time>
      </trkpt>
      <trkpt lat="43.26394" lon="-6.873637">
        <ele>248.6</ele>
        <time>2021-04-23T16:40:31.000Z</time>
      </trkpt>
      <trkpt lat="43.264013" lon="-6.873507">
        <ele>249.3</ele>
        <time>2021-04-23T16:40:33.000Z</time>
      </trkpt>
      <trkpt lat="43.264118" lon="-6.873413">
        <ele>250.9</ele>
        <time>2021-04-23T16:40:35.000Z</time>
      </trkpt>
      <trkpt lat="43.264243" lon="-6.87337">
        <ele>252.9</ele>
        <time>2021-04-23T16:40:37.000Z</time>
      </trkpt>
      <trkpt lat="43.264333" lon="-6.873293">
        <ele>253.6</ele>
        <time>2021-04-23T16:40:40.000Z</time>
      </trkpt>
      <trkpt lat="43.264443" lon="-6.873212">
        <ele>254.7</ele>
        <time>2021-04-23T16:40:42.000Z</time>
      </trkpt>
      <trkpt lat="43.264558" lon="-6.873093">
        <ele>255.3</ele>
        <time>2021-04-23T16:40:44.000Z</time>
      </trkpt>
      <trkpt lat="43.264677" lon="-6.872968">
        <ele>255.9</ele>
        <time>2021-04-23T16:40:46.000Z</time>
      </trkpt>
      <trkpt lat="43.264802" lon="-6.872853">
        <ele>256.5</ele>
        <time>2021-04-23T16:40:48.000Z</time>
      </trkpt>
      <trkpt lat="43.264915" lon="-6.872718">
        <ele>256.1</ele>
        <time>2021-04-23T16:40:50.000Z</time>
      </trkpt>
      <trkpt lat="43.265012" lon="-6.872578">
        <ele>256.9</ele>
        <time>2021-04-23T16:40:52.000Z</time>
      </trkpt>
      <trkpt lat="43.26512" lon="-6.87243">
        <ele>256.5</ele>
        <time>2021-04-23T16:40:54.000Z</time>
      </trkpt>
      <trkpt lat="43.265233" lon="-6.872292">
        <ele>257</ele>
        <time>2021-04-23T16:40:56.000Z</time>
      </trkpt>
      <trkpt lat="43.26531" lon="-6.872165">
        <ele>258.3</ele>
        <time>2021-04-23T16:40:58.000Z</time>
      </trkpt>
      <trkpt lat="43.265418" lon="-6.872007">
        <ele>257.7</ele>
        <time>2021-04-23T16:41:00.000Z</time>
      </trkpt>
      <trkpt lat="43.265508" lon="-6.871857">
        <ele>258.4</ele>
        <time>2021-04-23T16:41:02.000Z</time>
      </trkpt>
      <trkpt lat="43.265582" lon="-6.87169">
        <ele>258.8</ele>
        <time>2021-04-23T16:41:04.000Z</time>
      </trkpt>
      <trkpt lat="43.265642" lon="-6.871528">
        <ele>259.4</ele>
        <time>2021-04-23T16:41:06.000Z</time>
      </trkpt>
      <trkpt lat="43.265678" lon="-6.87137">
        <ele>260.2</ele>
        <time>2021-04-23T16:41:08.000Z</time>
      </trkpt>
      <trkpt lat="43.265697" lon="-6.871212">
        <ele>260.6</ele>
        <time>2021-04-23T16:41:10.000Z</time>
      </trkpt>
      <trkpt lat="43.2657" lon="-6.87106">
        <ele>261.6</ele>
        <time>2021-04-23T16:41:12.000Z</time>
      </trkpt>
      <trkpt lat="43.265728" lon="-6.870918">
        <ele>265.4</ele>
        <time>2021-04-23T16:41:14.000Z</time>
      </trkpt>
      <trkpt lat="43.265743" lon="-6.870773">
        <ele>266.5</ele>
        <time>2021-04-23T16:41:16.000Z</time>
      </trkpt>
      <trkpt lat="43.265795" lon="-6.870658">
        <ele>269.4</ele>
        <time>2021-04-23T16:41:18.000Z</time>
      </trkpt>
      <trkpt lat="43.265875" lon="-6.870582">
        <ele>272.7</ele>
        <time>2021-04-23T16:41:20.000Z</time>
      </trkpt>
      <trkpt lat="43.265978" lon="-6.870493">
        <ele>273.6</ele>
        <time>2021-04-23T16:41:22.000Z</time>
      </trkpt>
      <trkpt lat="43.266088" lon="-6.870407">
        <ele>274.8</ele>
        <time>2021-04-23T16:41:24.000Z</time>
      </trkpt>
      <trkpt lat="43.266192" lon="-6.870327">
        <ele>276</ele>
        <time>2021-04-23T16:41:26.000Z</time>
      </trkpt>
      <trkpt lat="43.26629" lon="-6.8702">
        <ele>276.9</ele>
        <time>2021-04-23T16:41:28.000Z</time>
      </trkpt>
      <trkpt lat="43.266378" lon="-6.87005">
        <ele>278.2</ele>
        <time>2021-04-23T16:41:30.000Z</time>
      </trkpt>
      <trkpt lat="43.266452" lon="-6.869892">
        <ele>280</ele>
        <time>2021-04-23T16:41:32.000Z</time>
      </trkpt>
      <trkpt lat="43.266522" lon="-6.869765">
        <ele>281.5</ele>
        <time>2021-04-23T16:41:34.000Z</time>
      </trkpt>
      <trkpt lat="43.266553" lon="-6.869642">
        <ele>283.9</ele>
        <time>2021-04-23T16:41:37.000Z</time>
      </trkpt>
      <trkpt lat="43.266448" lon="-6.869725">
        <ele>284.2</ele>
        <time>2021-04-23T16:41:45.000Z</time>
      </trkpt>
      <trkpt lat="43.26639" lon="-6.869873">
        <ele>281.5</ele>
        <time>2021-04-23T16:41:47.000Z</time>
      </trkpt>
      <trkpt lat="43.266258" lon="-6.870028">
        <ele>278.8</ele>
        <time>2021-04-23T16:41:49.000Z</time>
      </trkpt>
      <trkpt lat="43.266147" lon="-6.870092">
        <ele>278</ele>
        <time>2021-04-23T16:41:50.000Z</time>
      </trkpt>
      <trkpt lat="43.266052" lon="-6.87014">
        <ele>277</ele>
        <time>2021-04-23T16:41:51.000Z</time>
      </trkpt>
      <trkpt lat="43.265958" lon="-6.870182">
        <ele>276.7</ele>
        <time>2021-04-23T16:41:52.000Z</time>
      </trkpt>
      <trkpt lat="43.26579" lon="-6.870258">
        <ele>276.6</ele>
        <time>2021-04-23T16:41:54.000Z</time>
      </trkpt>
      <trkpt lat="43.265662" lon="-6.870338">
        <ele>274.9</ele>
        <time>2021-04-23T16:41:56.000Z</time>
      </trkpt>
      <trkpt lat="43.26557" lon="-6.870468">
        <ele>273.4</ele>
        <time>2021-04-23T16:41:58.000Z</time>
      </trkpt>
      <trkpt lat="43.265535" lon="-6.87063">
        <ele>272.7</ele>
        <time>2021-04-23T16:42:00.000Z</time>
      </trkpt>
      <trkpt lat="43.265482" lon="-6.870822">
        <ele>270.6</ele>
        <time>2021-04-23T16:42:02.000Z</time>
      </trkpt>
      <trkpt lat="43.265403" lon="-6.871037">
        <ele>269.1</ele>
        <time>2021-04-23T16:42:04.000Z</time>
      </trkpt>
      <trkpt lat="43.265353" lon="-6.871145">
        <ele>268.6</ele>
        <time>2021-04-23T16:42:05.000Z</time>
      </trkpt>
      <trkpt lat="43.265305" lon="-6.871257">
        <ele>268.1</ele>
        <time>2021-04-23T16:42:06.000Z</time>
      </trkpt>
      <trkpt lat="43.2652" lon="-6.871457">
        <ele>267.3</ele>
        <time>2021-04-23T16:42:08.000Z</time>
      </trkpt>
      <trkpt lat="43.265135" lon="-6.871548">
        <ele>267</ele>
        <time>2021-04-23T16:42:09.000Z</time>
      </trkpt>
      <trkpt lat="43.265063" lon="-6.871632">
        <ele>266.7</ele>
        <time>2021-04-23T16:42:10.000Z</time>
      </trkpt>
      <trkpt lat="43.264993" lon="-6.871717">
        <ele>266.4</ele>
        <time>2021-04-23T16:42:11.000Z</time>
      </trkpt>
      <trkpt lat="43.264913" lon="-6.871798">
        <ele>266.1</ele>
        <time>2021-04-23T16:42:12.000Z</time>
      </trkpt>
      <trkpt lat="43.264832" lon="-6.871872">
        <ele>265.7</ele>
        <time>2021-04-23T16:42:13.000Z</time>
      </trkpt>
      <trkpt lat="43.264733" lon="-6.87196">
        <ele>265.5</ele>
        <time>2021-04-23T16:42:14.000Z</time>
      </trkpt>
      <trkpt lat="43.264643" lon="-6.87203">
        <ele>265.2</ele>
        <time>2021-04-23T16:42:15.000Z</time>
      </trkpt>
      <trkpt lat="43.264552" lon="-6.872115">
        <ele>265</ele>
        <time>2021-04-23T16:42:16.000Z</time>
      </trkpt>
      <trkpt lat="43.264477" lon="-6.872208">
        <ele>264.9</ele>
        <time>2021-04-23T16:42:17.000Z</time>
      </trkpt>
      <trkpt lat="43.264393" lon="-6.872287">
        <ele>264.8</ele>
        <time>2021-04-23T16:42:18.000Z</time>
      </trkpt>
      <trkpt lat="43.264308" lon="-6.872355">
        <ele>264.8</ele>
        <time>2021-04-23T16:42:19.000Z</time>
      </trkpt>
      <trkpt lat="43.26422" lon="-6.872417">
        <ele>264.7</ele>
        <time>2021-04-23T16:42:20.000Z</time>
      </trkpt>
      <trkpt lat="43.264125" lon="-6.872457">
        <ele>264.6</ele>
        <time>2021-04-23T16:42:21.000Z</time>
      </trkpt>
      <trkpt lat="43.264027" lon="-6.872487">
        <ele>263.8</ele>
        <time>2021-04-23T16:42:22.000Z</time>
      </trkpt>
      <trkpt lat="43.263933" lon="-6.872518">
        <ele>263.5</ele>
        <time>2021-04-23T16:42:23.000Z</time>
      </trkpt>
      <trkpt lat="43.26384" lon="-6.872553">
        <ele>262.9</ele>
        <time>2021-04-23T16:42:24.000Z</time>
      </trkpt>
      <trkpt lat="43.263735" lon="-6.872607">
        <ele>262.8</ele>
        <time>2021-04-23T16:42:25.000Z</time>
      </trkpt>
      <trkpt lat="43.263635" lon="-6.872688">
        <ele>263.4</ele>
        <time>2021-04-23T16:42:26.000Z</time>
      </trkpt>
      <trkpt lat="43.263532" lon="-6.872775">
        <ele>264.4</ele>
        <time>2021-04-23T16:42:27.000Z</time>
      </trkpt>
      <trkpt lat="43.263433" lon="-6.872872">
        <ele>266</ele>
        <time>2021-04-23T16:42:28.000Z</time>
      </trkpt>
      <trkpt lat="43.263337" lon="-6.872967">
        <ele>267</ele>
        <time>2021-04-23T16:42:29.000Z</time>
      </trkpt>
      <trkpt lat="43.263247" lon="-6.873052">
        <ele>267.2</ele>
        <time>2021-04-23T16:42:30.000Z</time>
      </trkpt>
      <trkpt lat="43.26315" lon="-6.873128">
        <ele>267.1</ele>
        <time>2021-04-23T16:42:31.000Z</time>
      </trkpt>
      <trkpt lat="43.263058" lon="-6.873217">
        <ele>267.3</ele>
        <time>2021-04-23T16:42:32.000Z</time>
      </trkpt>
      <trkpt lat="43.262962" lon="-6.873307">
        <ele>267.5</ele>
        <time>2021-04-23T16:42:33.000Z</time>
      </trkpt>
      <trkpt lat="43.262868" lon="-6.8734">
        <ele>267.7</ele>
        <time>2021-04-23T16:42:34.000Z</time>
      </trkpt>
      <trkpt lat="43.262787" lon="-6.873495">
        <ele>268.1</ele>
        <time>2021-04-23T16:42:35.000Z</time>
      </trkpt>
      <trkpt lat="43.262708" lon="-6.873585">
        <ele>268.4</ele>
        <time>2021-04-23T16:42:36.000Z</time>
      </trkpt>
      <trkpt lat="43.262632" lon="-6.873675">
        <ele>268.7</ele>
        <time>2021-04-23T16:42:37.000Z</time>
      </trkpt>
      <trkpt lat="43.262568" lon="-6.873772">
        <ele>269</ele>
        <time>2021-04-23T16:42:38.000Z</time>
      </trkpt>
      <trkpt lat="43.26249" lon="-6.873873">
        <ele>269.6</ele>
        <time>2021-04-23T16:42:39.000Z</time>
      </trkpt>
      <trkpt lat="43.26241" lon="-6.873977">
        <ele>270.4</ele>
        <time>2021-04-23T16:42:40.000Z</time>
      </trkpt>
      <trkpt lat="43.262327" lon="-6.874078">
        <ele>271.3</ele>
        <time>2021-04-23T16:42:41.000Z</time>
      </trkpt>
      <trkpt lat="43.262243" lon="-6.874178">
        <ele>272.1</ele>
        <time>2021-04-23T16:42:42.000Z</time>
      </trkpt>
      <trkpt lat="43.262175" lon="-6.874278">
        <ele>272.9</ele>
        <time>2021-04-23T16:42:43.000Z</time>
      </trkpt>
      <trkpt lat="43.262115" lon="-6.874383">
        <ele>273.8</ele>
        <time>2021-04-23T16:42:44.000Z</time>
      </trkpt>
      <trkpt lat="43.26204" lon="-6.874502">
        <ele>276.7</ele>
        <time>2021-04-23T16:42:45.000Z</time>
      </trkpt>
      <trkpt lat="43.261968" lon="-6.874618">
        <ele>279.9</ele>
        <time>2021-04-23T16:42:46.000Z</time>
      </trkpt>
      <trkpt lat="43.261897" lon="-6.87473">
        <ele>281.8</ele>
        <time>2021-04-23T16:42:47.000Z</time>
      </trkpt>
      <trkpt lat="43.261827" lon="-6.874843">
        <ele>284.8</ele>
        <time>2021-04-23T16:42:48.000Z</time>
      </trkpt>
      <trkpt lat="43.261757" lon="-6.87495">
        <ele>287.9</ele>
        <time>2021-04-23T16:42:49.000Z</time>
      </trkpt>
      <trkpt lat="43.261693" lon="-6.875053">
        <ele>291</ele>
        <time>2021-04-23T16:42:50.000Z</time>
      </trkpt>
      <trkpt lat="43.261633" lon="-6.875153">
        <ele>293.6</ele>
        <time>2021-04-23T16:42:51.000Z</time>
      </trkpt>
      <trkpt lat="43.261507" lon="-6.875322">
        <ele>297.5</ele>
        <time>2021-04-23T16:42:53.000Z</time>
      </trkpt>
      <trkpt lat="43.261352" lon="-6.875388">
        <ele>300</ele>
        <time>2021-04-23T16:42:55.000Z</time>
      </trkpt>
      <trkpt lat="43.261195" lon="-6.875363">
        <ele>302.5</ele>
        <time>2021-04-23T16:42:57.000Z</time>
      </trkpt>
      <trkpt lat="43.261048" lon="-6.875245">
        <ele>303.5</ele>
        <time>2021-04-23T16:42:59.000Z</time>
      </trkpt>
      <trkpt lat="43.260973" lon="-6.875155">
        <ele>303.6</ele>
        <time>2021-04-23T16:43:00.000Z</time>
      </trkpt>
      <trkpt lat="43.260897" lon="-6.875057">
        <ele>303.5</ele>
        <time>2021-04-23T16:43:01.000Z</time>
      </trkpt>
      <trkpt lat="43.260815" lon="-6.874958">
        <ele>303.6</ele>
        <time>2021-04-23T16:43:02.000Z</time>
      </trkpt>
      <trkpt lat="43.260725" lon="-6.874862">
        <ele>304.2</ele>
        <time>2021-04-23T16:43:03.000Z</time>
      </trkpt>
      <trkpt lat="43.260633" lon="-6.874762">
        <ele>304.5</ele>
        <time>2021-04-23T16:43:04.000Z</time>
      </trkpt>
      <trkpt lat="43.260542" lon="-6.874662">
        <ele>304.5</ele>
        <time>2021-04-23T16:43:05.000Z</time>
      </trkpt>
      <trkpt lat="43.26045" lon="-6.87456">
        <ele>304.6</ele>
        <time>2021-04-23T16:43:06.000Z</time>
      </trkpt>
      <trkpt lat="43.260357" lon="-6.874455">
        <ele>304.6</ele>
        <time>2021-04-23T16:43:07.000Z</time>
      </trkpt>
      <trkpt lat="43.260263" lon="-6.874348">
        <ele>304.5</ele>
        <time>2021-04-23T16:43:08.000Z</time>
      </trkpt>
      <trkpt lat="43.260173" lon="-6.874233">
        <ele>304.4</ele>
        <time>2021-04-23T16:43:09.000Z</time>
      </trkpt>
      <trkpt lat="43.260087" lon="-6.874122">
        <ele>304.2</ele>
        <time>2021-04-23T16:43:10.000Z</time>
      </trkpt>
      <trkpt lat="43.260002" lon="-6.874013">
        <ele>305.1</ele>
        <time>2021-04-23T16:43:11.000Z</time>
      </trkpt>
      <trkpt lat="43.259922" lon="-6.873913">
        <ele>305.9</ele>
        <time>2021-04-23T16:43:12.000Z</time>
      </trkpt>
      <trkpt lat="43.259843" lon="-6.873815">
        <ele>306.7</ele>
        <time>2021-04-23T16:43:13.000Z</time>
      </trkpt>
      <trkpt lat="43.259773" lon="-6.873725">
        <ele>307.4</ele>
        <time>2021-04-23T16:43:14.000Z</time>
      </trkpt>
      <trkpt lat="43.25971" lon="-6.873635">
        <ele>308.2</ele>
        <time>2021-04-23T16:43:15.000Z</time>
      </trkpt>
      <trkpt lat="43.259618" lon="-6.873452">
        <ele>309.9</ele>
        <time>2021-04-23T16:43:17.000Z</time>
      </trkpt>
      <trkpt lat="43.259578" lon="-6.873262">
        <ele>312.7</ele>
        <time>2021-04-23T16:43:19.000Z</time>
      </trkpt>
      <trkpt lat="43.259538" lon="-6.873098">
        <ele>316.8</ele>
        <time>2021-04-23T16:43:21.000Z</time>
      </trkpt>
      <trkpt lat="43.259517" lon="-6.872972">
        <ele>319.8</ele>
        <time>2021-04-23T16:43:23.000Z</time>
      </trkpt>
      <trkpt lat="43.259625" lon="-6.873078">
        <ele>327.1</ele>
        <time>2021-04-23T16:43:28.000Z</time>
      </trkpt>
      <trkpt lat="43.259687" lon="-6.873212">
        <ele>328.5</ele>
        <time>2021-04-23T16:43:30.000Z</time>
      </trkpt>
      <trkpt lat="43.25975" lon="-6.873318">
        <ele>330.7</ele>
        <time>2021-04-23T16:43:32.000Z</time>
      </trkpt>
      <trkpt lat="43.259862" lon="-6.873412">
        <ele>332.1</ele>
        <time>2021-04-23T16:43:35.000Z</time>
      </trkpt>
      <trkpt lat="43.259985" lon="-6.873455">
        <ele>337.5</ele>
        <time>2021-04-23T16:43:38.000Z</time>
      </trkpt>
      <trkpt lat="43.26008" lon="-6.87348">
        <ele>340.1</ele>
        <time>2021-04-23T16:43:40.000Z</time>
      </trkpt>
      <trkpt lat="43.26019" lon="-6.873507">
        <ele>340.6</ele>
        <time>2021-04-23T16:43:42.000Z</time>
      </trkpt>
      <trkpt lat="43.2603" lon="-6.87355">
        <ele>339.1</ele>
        <time>2021-04-23T16:43:44.000Z</time>
      </trkpt>
      <trkpt lat="43.260417" lon="-6.873585">
        <ele>337.2</ele>
        <time>2021-04-23T16:43:46.000Z</time>
      </trkpt>
      <trkpt lat="43.260527" lon="-6.873605">
        <ele>334.1</ele>
        <time>2021-04-23T16:43:48.000Z</time>
      </trkpt>
      <trkpt lat="43.260635" lon="-6.873615">
        <ele>333.5</ele>
        <time>2021-04-23T16:43:50.000Z</time>
      </trkpt>
      <trkpt lat="43.260745" lon="-6.873587">
        <ele>332.4</ele>
        <time>2021-04-23T16:43:52.000Z</time>
      </trkpt>
      <trkpt lat="43.260847" lon="-6.873538">
        <ele>333.4</ele>
        <time>2021-04-23T16:43:54.000Z</time>
      </trkpt>
      <trkpt lat="43.260947" lon="-6.873483">
        <ele>335.6</ele>
        <time>2021-04-23T16:43:56.000Z</time>
      </trkpt>
      <trkpt lat="43.261048" lon="-6.873428">
        <ele>337.4</ele>
        <time>2021-04-23T16:43:58.000Z</time>
      </trkpt>
      <trkpt lat="43.261148" lon="-6.873372">
        <ele>338.7</ele>
        <time>2021-04-23T16:44:00.000Z</time>
      </trkpt>
      <trkpt lat="43.261248" lon="-6.873315">
        <ele>339.8</ele>
        <time>2021-04-23T16:44:02.000Z</time>
      </trkpt>
      <trkpt lat="43.26135" lon="-6.87324">
        <ele>342</ele>
        <time>2021-04-23T16:44:04.000Z</time>
      </trkpt>
      <trkpt lat="43.261435" lon="-6.873152">
        <ele>343.3</ele>
        <time>2021-04-23T16:44:06.000Z</time>
      </trkpt>
      <trkpt lat="43.261517" lon="-6.87305">
        <ele>346.2</ele>
        <time>2021-04-23T16:44:08.000Z</time>
      </trkpt>
      <trkpt lat="43.261595" lon="-6.872943">
        <ele>350</ele>
        <time>2021-04-23T16:44:10.000Z</time>
      </trkpt>
      <trkpt lat="43.261678" lon="-6.872832">
        <ele>352.2</ele>
        <time>2021-04-23T16:44:12.000Z</time>
      </trkpt>
      <trkpt lat="43.261767" lon="-6.872713">
        <ele>354.4</ele>
        <time>2021-04-23T16:44:14.000Z</time>
      </trkpt>
      <trkpt lat="43.261855" lon="-6.872592">
        <ele>355.3</ele>
        <time>2021-04-23T16:44:16.000Z</time>
      </trkpt>
      <trkpt lat="43.261937" lon="-6.872463">
        <ele>357.4</ele>
        <time>2021-04-23T16:44:18.000Z</time>
      </trkpt>
      <trkpt lat="43.262005" lon="-6.872327">
        <ele>359.2</ele>
        <time>2021-04-23T16:44:20.000Z</time>
      </trkpt>
      <trkpt lat="43.262065" lon="-6.872187">
        <ele>362.3</ele>
        <time>2021-04-23T16:44:22.000Z</time>
      </trkpt>
      <trkpt lat="43.262125" lon="-6.872042">
        <ele>365.2</ele>
        <time>2021-04-23T16:44:24.000Z</time>
      </trkpt>
      <trkpt lat="43.262187" lon="-6.871883">
        <ele>366.5</ele>
        <time>2021-04-23T16:44:26.000Z</time>
      </trkpt>
      <trkpt lat="43.26224" lon="-6.871715">
        <ele>368</ele>
        <time>2021-04-23T16:44:28.000Z</time>
      </trkpt>
      <trkpt lat="43.262305" lon="-6.871547">
        <ele>369.4</ele>
        <time>2021-04-23T16:44:30.000Z</time>
      </trkpt>
      <trkpt lat="43.262372" lon="-6.871368">
        <ele>370.9</ele>
        <time>2021-04-23T16:44:32.000Z</time>
      </trkpt>
      <trkpt lat="43.26245" lon="-6.871202">
        <ele>373.2</ele>
        <time>2021-04-23T16:44:34.000Z</time>
      </trkpt>
      <trkpt lat="43.262507" lon="-6.871063">
        <ele>374.8</ele>
        <time>2021-04-23T16:44:36.000Z</time>
      </trkpt>
      <trkpt lat="43.262543" lon="-6.870948">
        <ele>375</ele>
        <time>2021-04-23T16:44:39.000Z</time>
      </trkpt>
      <trkpt lat="43.26261" lon="-6.870835">
        <ele>375.6</ele>
        <time>2021-04-23T16:44:44.000Z</time>
      </trkpt>
      <trkpt lat="43.262655" lon="-6.8707">
        <ele>375.1</ele>
        <time>2021-04-23T16:44:50.000Z</time>
      </trkpt>
      <trkpt lat="43.26275" lon="-6.870622">
        <ele>375.4</ele>
        <time>2021-04-23T16:44:53.000Z</time>
      </trkpt>
      <trkpt lat="43.262838" lon="-6.870535">
        <ele>375</ele>
        <time>2021-04-23T16:44:56.000Z</time>
      </trkpt>
      <trkpt lat="43.262932" lon="-6.870457">
        <ele>374.5</ele>
        <time>2021-04-23T16:44:59.000Z</time>
      </trkpt>
      <trkpt lat="43.263033" lon="-6.870362">
        <ele>374.5</ele>
        <time>2021-04-23T16:45:02.000Z</time>
      </trkpt>
      <trkpt lat="43.263142" lon="-6.870275">
        <ele>374.9</ele>
        <time>2021-04-23T16:45:05.000Z</time>
      </trkpt>
      <trkpt lat="43.263227" lon="-6.870217">
        <ele>374.9</ele>
        <time>2021-04-23T16:45:07.000Z</time>
      </trkpt>
      <trkpt lat="43.263312" lon="-6.870158">
        <ele>374.8</ele>
        <time>2021-04-23T16:45:09.000Z</time>
      </trkpt>
      <trkpt lat="43.263428" lon="-6.87011">
        <ele>377.5</ele>
        <time>2021-04-23T16:45:12.000Z</time>
      </trkpt>
      <trkpt lat="43.263525" lon="-6.870062">
        <ele>377.2</ele>
        <time>2021-04-23T16:45:14.000Z</time>
      </trkpt>
      <trkpt lat="43.263627" lon="-6.870012">
        <ele>376.5</ele>
        <time>2021-04-23T16:45:16.000Z</time>
      </trkpt>
      <trkpt lat="43.263733" lon="-6.869943">
        <ele>376.2</ele>
        <time>2021-04-23T16:45:19.000Z</time>
      </trkpt>
      <trkpt lat="43.263812" lon="-6.869855">
        <ele>375.9</ele>
        <time>2021-04-23T16:45:22.000Z</time>
      </trkpt>
      <trkpt lat="43.26383" lon="-6.869728">
        <ele>376.7</ele>
        <time>2021-04-23T16:45:27.000Z</time>
      </trkpt>
      <trkpt lat="43.263727" lon="-6.86973">
        <ele>376.9</ele>
        <time>2021-04-23T16:45:32.000Z</time>
      </trkpt>
      <trkpt lat="43.263685" lon="-6.869593">
        <ele>377.5</ele>
        <time>2021-04-23T16:45:36.000Z</time>
      </trkpt>
      <trkpt lat="43.26372" lon="-6.869428">
        <ele>378.6</ele>
        <time>2021-04-23T16:45:39.000Z</time>
      </trkpt>
      <trkpt lat="43.263767" lon="-6.86931">
        <ele>379.5</ele>
        <time>2021-04-23T16:45:41.000Z</time>
      </trkpt>
      <trkpt lat="43.263815" lon="-6.8692">
        <ele>381</ele>
        <time>2021-04-23T16:45:43.000Z</time>
      </trkpt>
      <trkpt lat="43.263868" lon="-6.869065">
        <ele>382.6</ele>
        <time>2021-04-23T16:45:46.000Z</time>
      </trkpt>
      <trkpt lat="43.263923" lon="-6.868927">
        <ele>382</ele>
        <time>2021-04-23T16:45:49.000Z</time>
      </trkpt>
      <trkpt lat="43.26396" lon="-6.86881">
        <ele>382</ele>
        <time>2021-04-23T16:45:52.000Z</time>
      </trkpt>
      <trkpt lat="43.26387" lon="-6.868782">
        <ele>391.5</ele>
        <time>2021-04-23T16:46:00.000Z</time>
      </trkpt>
      <trkpt lat="43.263777" lon="-6.868857">
        <ele>392.7</ele>
        <time>2021-04-23T16:46:04.000Z</time>
      </trkpt>
      <trkpt lat="43.263687" lon="-6.868917">
        <ele>392.8</ele>
        <time>2021-04-23T16:46:07.000Z</time>
      </trkpt>
      <trkpt lat="43.263598" lon="-6.868988">
        <ele>394.4</ele>
        <time>2021-04-23T16:46:10.000Z</time>
      </trkpt>
      <trkpt lat="43.263477" lon="-6.869072">
        <ele>398.4</ele>
        <time>2021-04-23T16:46:13.000Z</time>
      </trkpt>
      <trkpt lat="43.263387" lon="-6.869127">
        <ele>401.4</ele>
        <time>2021-04-23T16:46:15.000Z</time>
      </trkpt>
      <trkpt lat="43.263297" lon="-6.869178">
        <ele>405.1</ele>
        <time>2021-04-23T16:46:17.000Z</time>
      </trkpt>
      <trkpt lat="43.263187" lon="-6.869248">
        <ele>408.1</ele>
        <time>2021-04-23T16:46:20.000Z</time>
      </trkpt>
      <trkpt lat="43.263105" lon="-6.869315">
        <ele>408.4</ele>
        <time>2021-04-23T16:46:23.000Z</time>
      </trkpt>
      <trkpt lat="43.263007" lon="-6.869397">
        <ele>409</ele>
        <time>2021-04-23T16:46:27.000Z</time>
      </trkpt>
      <trkpt lat="43.262917" lon="-6.869478">
        <ele>408.5</ele>
        <time>2021-04-23T16:46:31.000Z</time>
      </trkpt>
      <trkpt lat="43.26283" lon="-6.869555">
        <ele>408.7</ele>
        <time>2021-04-23T16:46:34.000Z</time>
      </trkpt>
      <trkpt lat="43.262745" lon="-6.869637">
        <ele>408.1</ele>
        <time>2021-04-23T16:46:37.000Z</time>
      </trkpt>
      <trkpt lat="43.262665" lon="-6.869723">
        <ele>407.3</ele>
        <time>2021-04-23T16:46:40.000Z</time>
      </trkpt>
      <trkpt lat="43.262597" lon="-6.869805">
        <ele>405.8</ele>
        <time>2021-04-23T16:46:43.000Z</time>
      </trkpt>
      <trkpt lat="43.262523" lon="-6.869905">
        <ele>404.5</ele>
        <time>2021-04-23T16:46:47.000Z</time>
      </trkpt>
      <trkpt lat="43.26243" lon="-6.869997">
        <ele>403.4</ele>
        <time>2021-04-23T16:46:50.000Z</time>
      </trkpt>
      <trkpt lat="43.262345" lon="-6.87009">
        <ele>402.6</ele>
        <time>2021-04-23T16:46:53.000Z</time>
      </trkpt>
      <trkpt lat="43.262257" lon="-6.870192">
        <ele>402.2</ele>
        <time>2021-04-23T16:46:56.000Z</time>
      </trkpt>
      <trkpt lat="43.262178" lon="-6.87029">
        <ele>402.2</ele>
        <time>2021-04-23T16:46:59.000Z</time>
      </trkpt>
      <trkpt lat="43.262095" lon="-6.870378">
        <ele>402.5</ele>
        <time>2021-04-23T16:47:02.000Z</time>
      </trkpt>
      <trkpt lat="43.26201" lon="-6.87047">
        <ele>404.8</ele>
        <time>2021-04-23T16:47:05.000Z</time>
      </trkpt>
      <trkpt lat="43.261932" lon="-6.87056">
        <ele>405.9</ele>
        <time>2021-04-23T16:47:08.000Z</time>
      </trkpt>
      <trkpt lat="43.261853" lon="-6.870638">
        <ele>405.7</ele>
        <time>2021-04-23T16:47:11.000Z</time>
      </trkpt>
      <trkpt lat="43.261737" lon="-6.870695">
        <ele>404.6</ele>
        <time>2021-04-23T16:47:15.000Z</time>
      </trkpt>
      <trkpt lat="43.261635" lon="-6.870752">
        <ele>400.7</ele>
        <time>2021-04-23T16:47:19.000Z</time>
      </trkpt>
      <trkpt lat="43.261535" lon="-6.870795">
        <ele>402.8</ele>
        <time>2021-04-23T16:47:22.000Z</time>
      </trkpt>
      <trkpt lat="43.261428" lon="-6.870837">
        <ele>401.6</ele>
        <time>2021-04-23T16:47:25.000Z</time>
      </trkpt>
      <trkpt lat="43.261325" lon="-6.870882">
        <ele>401.2</ele>
        <time>2021-04-23T16:47:28.000Z</time>
      </trkpt>
      <trkpt lat="43.261223" lon="-6.870913">
        <ele>400.3</ele>
        <time>2021-04-23T16:47:31.000Z</time>
      </trkpt>
      <trkpt lat="43.261125" lon="-6.870935">
        <ele>398.3</ele>
        <time>2021-04-23T16:47:34.000Z</time>
      </trkpt>
      <trkpt lat="43.261017" lon="-6.87091">
        <ele>401.5</ele>
        <time>2021-04-23T16:47:37.000Z</time>
      </trkpt>
      <trkpt lat="43.26093" lon="-6.870793">
        <ele>402.6</ele>
        <time>2021-04-23T16:47:40.000Z</time>
      </trkpt>
      <trkpt lat="43.26087" lon="-6.870642">
        <ele>403.3</ele>
        <time>2021-04-23T16:47:43.000Z</time>
      </trkpt>
      <trkpt lat="43.26084" lon="-6.870503">
        <ele>404.1</ele>
        <time>2021-04-23T16:47:46.000Z</time>
      </trkpt>
      <trkpt lat="43.260815" lon="-6.870378">
        <ele>404.3</ele>
        <time>2021-04-23T16:47:49.000Z</time>
      </trkpt>
      <trkpt lat="43.260773" lon="-6.870258">
        <ele>406.4</ele>
        <time>2021-04-23T16:47:53.000Z</time>
      </trkpt>
      <trkpt lat="43.260737" lon="-6.870138">
        <ele>408.7</ele>
        <time>2021-04-23T16:47:57.000Z</time>
      </trkpt>
      <trkpt lat="43.260697" lon="-6.870002">
        <ele>411.8</ele>
        <time>2021-04-23T16:48:02.000Z</time>
      </trkpt>
      <trkpt lat="43.260658" lon="-6.869855">
        <ele>413.5</ele>
        <time>2021-04-23T16:48:07.000Z</time>
      </trkpt>
      <trkpt lat="43.260577" lon="-6.869743">
        <ele>418</ele>
        <time>2021-04-23T16:48:11.000Z</time>
      </trkpt>
      <trkpt lat="43.260505" lon="-6.869618">
        <ele>423.2</ele>
        <time>2021-04-23T16:48:15.000Z</time>
      </trkpt>
      <trkpt lat="43.260452" lon="-6.869518">
        <ele>425.5</ele>
        <time>2021-04-23T16:48:18.000Z</time>
      </trkpt>
      <trkpt lat="43.260375" lon="-6.869427">
        <ele>428.3</ele>
        <time>2021-04-23T16:48:22.000Z</time>
      </trkpt>
      <trkpt lat="43.260312" lon="-6.86933">
        <ele>429.2</ele>
        <time>2021-04-23T16:48:26.000Z</time>
      </trkpt>
      <trkpt lat="43.260233" lon="-6.869252">
        <ele>428.8</ele>
        <time>2021-04-23T16:48:30.000Z</time>
      </trkpt>
      <trkpt lat="43.260158" lon="-6.86914">
        <ele>426.3</ele>
        <time>2021-04-23T16:48:34.000Z</time>
      </trkpt>
      <trkpt lat="43.26012" lon="-6.869005">
        <ele>424.5</ele>
        <time>2021-04-23T16:48:38.000Z</time>
      </trkpt>
      <trkpt lat="43.260067" lon="-6.868898">
        <ele>426.1</ele>
        <time>2021-04-23T16:48:42.000Z</time>
      </trkpt>
      <trkpt lat="43.260022" lon="-6.86878">
        <ele>428.4</ele>
        <time>2021-04-23T16:48:46.000Z</time>
      </trkpt>
      <trkpt lat="43.260017" lon="-6.868637">
        <ele>428.2</ele>
        <time>2021-04-23T16:48:50.000Z</time>
      </trkpt>
      <trkpt lat="43.260002" lon="-6.86849">
        <ele>428.7</ele>
        <time>2021-04-23T16:48:54.000Z</time>
      </trkpt>
      <trkpt lat="43.259987" lon="-6.868365">
        <ele>429.6</ele>
        <time>2021-04-23T16:48:57.000Z</time>
      </trkpt>
      <trkpt lat="43.25997" lon="-6.868212">
        <ele>429.9</ele>
        <time>2021-04-23T16:49:01.000Z</time>
      </trkpt>
      <trkpt lat="43.259947" lon="-6.868057">
        <ele>431.1</ele>
        <time>2021-04-23T16:49:05.000Z</time>
      </trkpt>
      <trkpt lat="43.259918" lon="-6.867903">
        <ele>434.3</ele>
        <time>2021-04-23T16:49:09.000Z</time>
      </trkpt>
      <trkpt lat="43.25989" lon="-6.86775">
        <ele>438.8</ele>
        <time>2021-04-23T16:49:13.000Z</time>
      </trkpt>
      <trkpt lat="43.259938" lon="-6.86763">
        <ele>442.2</ele>
        <time>2021-04-23T16:49:17.000Z</time>
      </trkpt>
      <trkpt lat="43.26003" lon="-6.86764">
        <ele>442.9</ele>
        <time>2021-04-23T16:49:20.000Z</time>
      </trkpt>
      <trkpt lat="43.260137" lon="-6.867672">
        <ele>443.5</ele>
        <time>2021-04-23T16:49:23.000Z</time>
      </trkpt>
      <trkpt lat="43.260227" lon="-6.867687">
        <ele>443.4</ele>
        <time>2021-04-23T16:49:26.000Z</time>
      </trkpt>
      <trkpt lat="43.260332" lon="-6.867703">
        <ele>445.8</ele>
        <time>2021-04-23T16:49:30.000Z</time>
      </trkpt>
      <trkpt lat="43.260423" lon="-6.867717">
        <ele>449.1</ele>
        <time>2021-04-23T16:49:33.000Z</time>
      </trkpt>
      <trkpt lat="43.260518" lon="-6.867738">
        <ele>451.5</ele>
        <time>2021-04-23T16:49:36.000Z</time>
      </trkpt>
      <trkpt lat="43.260612" lon="-6.867755">
        <ele>452.7</ele>
        <time>2021-04-23T16:49:39.000Z</time>
      </trkpt>
      <trkpt lat="43.260713" lon="-6.867777">
        <ele>452.8</ele>
        <time>2021-04-23T16:49:43.000Z</time>
      </trkpt>
      <trkpt lat="43.260835" lon="-6.867788">
        <ele>456.4</ele>
        <time>2021-04-23T16:49:47.000Z</time>
      </trkpt>
      <trkpt lat="43.26094" lon="-6.867793">
        <ele>459.4</ele>
        <time>2021-04-23T16:49:50.000Z</time>
      </trkpt>
      <trkpt lat="43.261048" lon="-6.867793">
        <ele>461.8</ele>
        <time>2021-04-23T16:49:53.000Z</time>
      </trkpt>
      <trkpt lat="43.261163" lon="-6.867793">
        <ele>464.8</ele>
        <time>2021-04-23T16:49:56.000Z</time>
      </trkpt>
      <trkpt lat="43.261258" lon="-6.867788">
        <ele>467.4</ele>
        <time>2021-04-23T16:49:59.000Z</time>
      </trkpt>
      <trkpt lat="43.261358" lon="-6.867782">
        <ele>470.2</ele>
        <time>2021-04-23T16:50:03.000Z</time>
      </trkpt>
      <trkpt lat="43.261463" lon="-6.867763">
        <ele>471.4</ele>
        <time>2021-04-23T16:50:07.000Z</time>
      </trkpt>
      <trkpt lat="43.26155" lon="-6.867725">
        <ele>472.6</ele>
        <time>2021-04-23T16:50:11.000Z</time>
      </trkpt>
      <trkpt lat="43.261618" lon="-6.867643">
        <ele>475.4</ele>
        <time>2021-04-23T16:50:15.000Z</time>
      </trkpt>
      <trkpt lat="43.261643" lon="-6.867487">
        <ele>477.1</ele>
        <time>2021-04-23T16:50:19.000Z</time>
      </trkpt>
      <trkpt lat="43.261625" lon="-6.867355">
        <ele>479.4</ele>
        <time>2021-04-23T16:50:22.000Z</time>
      </trkpt>
      <trkpt lat="43.261598" lon="-6.867202">
        <ele>483.3</ele>
        <time>2021-04-23T16:50:26.000Z</time>
      </trkpt>
      <trkpt lat="43.261572" lon="-6.867053">
        <ele>486.4</ele>
        <time>2021-04-23T16:50:30.000Z</time>
      </trkpt>
      <trkpt lat="43.261613" lon="-6.866892">
        <ele>490.2</ele>
        <time>2021-04-23T16:50:47.000Z</time>
      </trkpt>
      <trkpt lat="43.261532" lon="-6.86682">
        <ele>490.4</ele>
        <time>2021-04-23T16:51:13.000Z</time>
      </trkpt>
      <trkpt lat="43.26152" lon="-6.866678">
        <ele>489.1</ele>
        <time>2021-04-23T16:51:17.000Z</time>
      </trkpt>
      <trkpt lat="43.261505" lon="-6.86655">
        <ele>489.5</ele>
        <time>2021-04-23T16:51:21.000Z</time>
      </trkpt>
      <trkpt lat="43.261473" lon="-6.86643">
        <ele>491.4</ele>
        <time>2021-04-23T16:51:24.000Z</time>
      </trkpt>
      <trkpt lat="43.261428" lon="-6.866288">
        <ele>493.8</ele>
        <time>2021-04-23T16:51:27.000Z</time>
      </trkpt>
      <trkpt lat="43.261385" lon="-6.86614">
        <ele>494</ele>
        <time>2021-04-23T16:51:30.000Z</time>
      </trkpt>
      <trkpt lat="43.261338" lon="-6.865982">
        <ele>494.7</ele>
        <time>2021-04-23T16:51:33.000Z</time>
      </trkpt>
      <trkpt lat="43.26129" lon="-6.865827">
        <ele>496.5</ele>
        <time>2021-04-23T16:51:36.000Z</time>
      </trkpt>
      <trkpt lat="43.261248" lon="-6.86568">
        <ele>497.7</ele>
        <time>2021-04-23T16:51:39.000Z</time>
      </trkpt>
      <trkpt lat="43.261197" lon="-6.865533">
        <ele>498.8</ele>
        <time>2021-04-23T16:51:42.000Z</time>
      </trkpt>
      <trkpt lat="43.26115" lon="-6.865383">
        <ele>500.2</ele>
        <time>2021-04-23T16:51:45.000Z</time>
      </trkpt>
      <trkpt lat="43.261087" lon="-6.865222">
        <ele>501.7</ele>
        <time>2021-04-23T16:51:48.000Z</time>
      </trkpt>
      <trkpt lat="43.261027" lon="-6.865113">
        <ele>504.4</ele>
        <time>2021-04-23T16:51:50.000Z</time>
      </trkpt>
      <trkpt lat="43.260968" lon="-6.86501">
        <ele>506.8</ele>
        <time>2021-04-23T16:51:52.000Z</time>
      </trkpt>
      <trkpt lat="43.260905" lon="-6.864913">
        <ele>509.2</ele>
        <time>2021-04-23T16:51:54.000Z</time>
      </trkpt>
      <trkpt lat="43.260842" lon="-6.86482">
        <ele>511</ele>
        <time>2021-04-23T16:51:56.000Z</time>
      </trkpt>
      <trkpt lat="43.260777" lon="-6.864722">
        <ele>512.5</ele>
        <time>2021-04-23T16:51:58.000Z</time>
      </trkpt>
      <trkpt lat="43.260707" lon="-6.864618">
        <ele>514</ele>
        <time>2021-04-23T16:52:00.000Z</time>
      </trkpt>
      <trkpt lat="43.260635" lon="-6.864515">
        <ele>515.2</ele>
        <time>2021-04-23T16:52:02.000Z</time>
      </trkpt>
      <trkpt lat="43.26057" lon="-6.86442">
        <ele>516</ele>
        <time>2021-04-23T16:52:04.000Z</time>
      </trkpt>
      <trkpt lat="43.260497" lon="-6.864327">
        <ele>516.3</ele>
        <time>2021-04-23T16:52:07.000Z</time>
      </trkpt>
      <trkpt lat="43.260423" lon="-6.864225">
        <ele>516.9</ele>
        <time>2021-04-23T16:52:11.000Z</time>
      </trkpt>
      <trkpt lat="43.260353" lon="-6.864112">
        <ele>516.9</ele>
        <time>2021-04-23T16:52:14.000Z</time>
      </trkpt>
      <trkpt lat="43.260297" lon="-6.86399">
        <ele>514.8</ele>
        <time>2021-04-23T16:52:17.000Z</time>
      </trkpt>
      <trkpt lat="43.260233" lon="-6.863882">
        <ele>514.7</ele>
        <time>2021-04-23T16:52:20.000Z</time>
      </trkpt>
      <trkpt lat="43.260167" lon="-6.863762">
        <ele>515.8</ele>
        <time>2021-04-23T16:52:23.000Z</time>
      </trkpt>
      <trkpt lat="43.260107" lon="-6.863637">
        <ele>517.1</ele>
        <time>2021-04-23T16:52:26.000Z</time>
      </trkpt>
      <trkpt lat="43.26005" lon="-6.863518">
        <ele>517.4</ele>
        <time>2021-04-23T16:52:29.000Z</time>
      </trkpt>
      <trkpt lat="43.25999" lon="-6.863378">
        <ele>516.1</ele>
        <time>2021-04-23T16:52:32.000Z</time>
      </trkpt>
      <trkpt lat="43.259905" lon="-6.863242">
        <ele>516.1</ele>
        <time>2021-04-23T16:52:35.000Z</time>
      </trkpt>
      <trkpt lat="43.259843" lon="-6.863148">
        <ele>516</ele>
        <time>2021-04-23T16:52:37.000Z</time>
      </trkpt>
      <trkpt lat="43.259788" lon="-6.863045">
        <ele>514.6</ele>
        <time>2021-04-23T16:52:39.000Z</time>
      </trkpt>
      <trkpt lat="43.259702" lon="-6.862913">
        <ele>515.6</ele>
        <time>2021-04-23T16:52:42.000Z</time>
      </trkpt>
      <trkpt lat="43.259617" lon="-6.8628">
        <ele>516.9</ele>
        <time>2021-04-23T16:52:45.000Z</time>
      </trkpt>
      <trkpt lat="43.25953" lon="-6.862683">
        <ele>518.2</ele>
        <time>2021-04-23T16:52:48.000Z</time>
      </trkpt>
      <trkpt lat="43.259462" lon="-6.862578">
        <ele>517.8</ele>
        <time>2021-04-23T16:52:51.000Z</time>
      </trkpt>
      <trkpt lat="43.259388" lon="-6.86245">
        <ele>518</ele>
        <time>2021-04-23T16:52:55.000Z</time>
      </trkpt>
      <trkpt lat="43.259347" lon="-6.86234">
        <ele>520.5</ele>
        <time>2021-04-23T16:52:58.000Z</time>
      </trkpt>
      <trkpt lat="43.259297" lon="-6.862213">
        <ele>524.3</ele>
        <time>2021-04-23T16:53:01.000Z</time>
      </trkpt>
      <trkpt lat="43.25928" lon="-6.862063">
        <ele>524.3</ele>
        <time>2021-04-23T16:53:04.000Z</time>
      </trkpt>
      <trkpt lat="43.259283" lon="-6.861917">
        <ele>525.2</ele>
        <time>2021-04-23T16:53:07.000Z</time>
      </trkpt>
      <trkpt lat="43.259293" lon="-6.861772">
        <ele>526.2</ele>
        <time>2021-04-23T16:53:10.000Z</time>
      </trkpt>
      <trkpt lat="43.25931" lon="-6.861593">
        <ele>527.6</ele>
        <time>2021-04-23T16:53:13.000Z</time>
      </trkpt>
      <trkpt lat="43.259315" lon="-6.861445">
        <ele>530.9</ele>
        <time>2021-04-23T16:53:16.000Z</time>
      </trkpt>
      <trkpt lat="43.2593" lon="-6.861293">
        <ele>532.8</ele>
        <time>2021-04-23T16:53:20.000Z</time>
      </trkpt>
      <trkpt lat="43.259277" lon="-6.86117">
        <ele>533.9</ele>
        <time>2021-04-23T16:53:23.000Z</time>
      </trkpt>
      <trkpt lat="43.25924" lon="-6.86102">
        <ele>537.9</ele>
        <time>2021-04-23T16:53:26.000Z</time>
      </trkpt>
      <trkpt lat="43.259243" lon="-6.860883">
        <ele>538.7</ele>
        <time>2021-04-23T16:53:29.000Z</time>
      </trkpt>
      <trkpt lat="43.259293" lon="-6.860742">
        <ele>539.3</ele>
        <time>2021-04-23T16:53:32.000Z</time>
      </trkpt>
      <trkpt lat="43.259345" lon="-6.860628">
        <ele>539.6</ele>
        <time>2021-04-23T16:53:34.000Z</time>
      </trkpt>
      <trkpt lat="43.259375" lon="-6.860505">
        <ele>540.4</ele>
        <time>2021-04-23T16:53:36.000Z</time>
      </trkpt>
      <trkpt lat="43.259397" lon="-6.860373">
        <ele>540.2</ele>
        <time>2021-04-23T16:53:38.000Z</time>
      </trkpt>
      <trkpt lat="43.259388" lon="-6.860243">
        <ele>541.5</ele>
        <time>2021-04-23T16:53:40.000Z</time>
      </trkpt>
      <trkpt lat="43.259358" lon="-6.86011">
        <ele>543.5</ele>
        <time>2021-04-23T16:53:42.000Z</time>
      </trkpt>
      <trkpt lat="43.259288" lon="-6.859982">
        <ele>548.1</ele>
        <time>2021-04-23T16:53:45.000Z</time>
      </trkpt>
      <trkpt lat="43.259238" lon="-6.859873">
        <ele>549.1</ele>
        <time>2021-04-23T16:53:49.000Z</time>
      </trkpt>
      <trkpt lat="43.259173" lon="-6.859757">
        <ele>549.4</ele>
        <time>2021-04-23T16:53:54.000Z</time>
      </trkpt>
      <trkpt lat="43.25115" lon="-6.864195">
        <ele>554.1</ele>
        <time>2021-04-23T17:34:20.000Z</time>
      </trkpt>
      <trkpt lat="43.237242" lon="-6.875568">
        <ele>658.7</ele>
        <time>2021-04-23T17:39:04.000Z</time>
      </trkpt>
      <trkpt lat="43.237152" lon="-6.875628">
        <ele>658.7</ele>
        <time>2021-04-23T17:39:05.000Z</time>
      </trkpt>
      <trkpt lat="43.237058" lon="-6.875717">
        <ele>659.4</ele>
        <time>2021-04-23T17:39:06.000Z</time>
      </trkpt>
      <trkpt lat="43.236953" lon="-6.875807">
        <ele>660.5</ele>
        <time>2021-04-23T17:39:08.000Z</time>
      </trkpt>
      <trkpt lat="43.23684" lon="-6.875887">
        <ele>664.8</ele>
        <time>2021-04-23T17:39:10.000Z</time>
      </trkpt>
      <trkpt lat="43.24321" lon="-6.869528">
        <ele>661.5</ele>
        <time>2021-04-14T07:10:18.000Z</time>
      </trkpt>
      <trkpt lat="43.24334" lon="-6.869508">
        <ele>662.9</ele>
        <time>2021-04-14T07:10:49.000Z</time>
      </trkpt>
      <trkpt lat="43.243457" lon="-6.869502">
        <ele>662.5</ele>
        <time>2021-04-14T07:10:51.000Z</time>
      </trkpt>
      <trkpt lat="43.24357" lon="-6.869502">
        <ele>662.2</ele>
        <time>2021-04-14T07:10:53.000Z</time>
      </trkpt>
      <trkpt lat="43.243687" lon="-6.869527">
        <ele>661.5</ele>
        <time>2021-04-14T07:10:55.000Z</time>
      </trkpt>
      <trkpt lat="43.243773" lon="-6.869602">
        <ele>660.5</ele>
        <time>2021-04-14T07:10:57.000Z</time>
      </trkpt>
      <trkpt lat="43.24386" lon="-6.869713">
        <ele>660</ele>
        <time>2021-04-14T07:10:59.000Z</time>
      </trkpt>
      <trkpt lat="43.24395" lon="-6.869862">
        <ele>659.3</ele>
        <time>2021-04-14T07:11:01.000Z</time>
      </trkpt>
      <trkpt lat="43.244048" lon="-6.870022">
        <ele>657.9</ele>
        <time>2021-04-14T07:11:03.000Z</time>
      </trkpt>
      <trkpt lat="43.244123" lon="-6.870228">
        <ele>660.7</ele>
        <time>2021-04-14T07:11:05.000Z</time>
      </trkpt>
      <trkpt lat="43.244162" lon="-6.870468">
        <ele>662.5</ele>
        <time>2021-04-14T07:11:07.000Z</time>
      </trkpt>
      <trkpt lat="43.244193" lon="-6.870702">
        <ele>663.9</ele>
        <time>2021-04-14T07:11:09.000Z</time>
      </trkpt>
      <trkpt lat="43.244253" lon="-6.870917">
        <ele>665.6</ele>
        <time>2021-04-14T07:11:11.000Z</time>
      </trkpt>
      <trkpt lat="43.244332" lon="-6.871097">
        <ele>666.8</ele>
        <time>2021-04-14T07:11:13.000Z</time>
      </trkpt>
      <trkpt lat="43.244458" lon="-6.871265">
        <ele>667.7</ele>
        <time>2021-04-14T07:11:15.000Z</time>
      </trkpt>
      <trkpt lat="43.244532" lon="-6.871348">
        <ele>667.4</ele>
        <time>2021-04-14T07:11:16.000Z</time>
      </trkpt>
      <trkpt lat="43.244657" lon="-6.871525">
        <ele>667.8</ele>
        <time>2021-04-14T07:11:18.000Z</time>
      </trkpt>
      <trkpt lat="43.244747" lon="-6.87173">
        <ele>668.2</ele>
        <time>2021-04-14T07:11:20.000Z</time>
      </trkpt>
      <trkpt lat="43.244822" lon="-6.871928">
        <ele>668</ele>
        <time>2021-04-14T07:11:22.000Z</time>
      </trkpt>
      <trkpt lat="43.244925" lon="-6.872075">
        <ele>667.8</ele>
        <time>2021-04-14T07:11:24.000Z</time>
      </trkpt>
      <trkpt lat="43.245052" lon="-6.872137">
        <ele>667.3</ele>
        <time>2021-04-14T07:11:26.000Z</time>
      </trkpt>
      <trkpt lat="43.245185" lon="-6.872103">
        <ele>666.1</ele>
        <time>2021-04-14T07:11:28.000Z</time>
      </trkpt>
      <trkpt lat="43.245313" lon="-6.871945">
        <ele>665.9</ele>
        <time>2021-04-14T07:11:30.000Z</time>
      </trkpt>
      <trkpt lat="43.245387" lon="-6.871862">
        <ele>665.5</ele>
        <time>2021-04-14T07:11:31.000Z</time>
      </trkpt>
      <trkpt lat="43.245465" lon="-6.871778">
        <ele>664.1</ele>
        <time>2021-04-14T07:11:32.000Z</time>
      </trkpt>
      <trkpt lat="43.245548" lon="-6.8717">
        <ele>663.1</ele>
        <time>2021-04-14T07:11:33.000Z</time>
      </trkpt>
      <trkpt lat="43.245637" lon="-6.87161">
        <ele>662</ele>
        <time>2021-04-14T07:11:34.000Z</time>
      </trkpt>
      <trkpt lat="43.245725" lon="-6.871523">
        <ele>660.4</ele>
        <time>2021-04-14T07:11:35.000Z</time>
      </trkpt>
      <trkpt lat="43.245807" lon="-6.871442">
        <ele>659.1</ele>
        <time>2021-04-14T07:11:36.000Z</time>
      </trkpt>
      <trkpt lat="43.245882" lon="-6.871365">
        <ele>657.9</ele>
        <time>2021-04-14T07:11:37.000Z</time>
      </trkpt>
      <trkpt lat="43.245955" lon="-6.871283">
        <ele>656.8</ele>
        <time>2021-04-14T07:11:38.000Z</time>
      </trkpt>
      <trkpt lat="43.246035" lon="-6.8712">
        <ele>655.6</ele>
        <time>2021-04-14T07:11:39.000Z</time>
      </trkpt>
      <trkpt lat="43.246122" lon="-6.871128">
        <ele>654.2</ele>
        <time>2021-04-14T07:11:40.000Z</time>
      </trkpt>
      <trkpt lat="43.246212" lon="-6.871068">
        <ele>652.4</ele>
        <time>2021-04-14T07:11:41.000Z</time>
      </trkpt>
      <trkpt lat="43.246305" lon="-6.871008">
        <ele>651.3</ele>
        <time>2021-04-14T07:11:42.000Z</time>
      </trkpt>
      <trkpt lat="43.2464" lon="-6.87095">
        <ele>650.1</ele>
        <time>2021-04-14T07:11:43.000Z</time>
      </trkpt>
      <trkpt lat="43.246495" lon="-6.870892">
        <ele>648.8</ele>
        <time>2021-04-14T07:11:44.000Z</time>
      </trkpt>
      <trkpt lat="43.246583" lon="-6.870842">
        <ele>647.2</ele>
        <time>2021-04-14T07:11:45.000Z</time>
      </trkpt>
      <trkpt lat="43.246673" lon="-6.870792">
        <ele>645.6</ele>
        <time>2021-04-14T07:11:46.000Z</time>
      </trkpt>
      <trkpt lat="43.246765" lon="-6.870738">
        <ele>644.4</ele>
        <time>2021-04-14T07:11:47.000Z</time>
      </trkpt>
      <trkpt lat="43.246862" lon="-6.870682">
        <ele>643.2</ele>
        <time>2021-04-14T07:11:48.000Z</time>
      </trkpt>
      <trkpt lat="43.246963" lon="-6.87062">
        <ele>641.9</ele>
        <time>2021-04-14T07:11:49.000Z</time>
      </trkpt>
      <trkpt lat="43.247067" lon="-6.870555">
        <ele>640.8</ele>
        <time>2021-04-14T07:11:50.000Z</time>
      </trkpt>
      <trkpt lat="43.247172" lon="-6.870487">
        <ele>640.1</ele>
        <time>2021-04-14T07:11:51.000Z</time>
      </trkpt>
      <trkpt lat="43.247273" lon="-6.870417">
        <ele>639.1</ele>
        <time>2021-04-14T07:11:52.000Z</time>
      </trkpt>
      <trkpt lat="43.247362" lon="-6.870353">
        <ele>639</ele>
        <time>2021-04-14T07:11:53.000Z</time>
      </trkpt>
      <trkpt lat="43.24744" lon="-6.870292">
        <ele>638.1</ele>
        <time>2021-04-14T07:11:54.000Z</time>
      </trkpt>
      <trkpt lat="43.247588" lon="-6.870173">
        <ele>636.1</ele>
        <time>2021-04-14T07:11:56.000Z</time>
      </trkpt>
      <trkpt lat="43.24767" lon="-6.870107">
        <ele>635.2</ele>
        <time>2021-04-14T07:11:57.000Z</time>
      </trkpt>
      <trkpt lat="43.247758" lon="-6.87004">
        <ele>633.7</ele>
        <time>2021-04-14T07:11:58.000Z</time>
      </trkpt>
      <trkpt lat="43.247845" lon="-6.869965">
        <ele>632.2</ele>
        <time>2021-04-14T07:11:59.000Z</time>
      </trkpt>
      <trkpt lat="43.24793" lon="-6.86988">
        <ele>631.8</ele>
        <time>2021-04-14T07:12:00.000Z</time>
      </trkpt>
      <trkpt lat="43.248008" lon="-6.86979">
        <ele>631.4</ele>
        <time>2021-04-14T07:12:01.000Z</time>
      </trkpt>
      <trkpt lat="43.248077" lon="-6.869693">
        <ele>631</ele>
        <time>2021-04-14T07:12:02.000Z</time>
      </trkpt>
      <trkpt lat="43.248135" lon="-6.869592">
        <ele>630.6</ele>
        <time>2021-04-14T07:12:03.000Z</time>
      </trkpt>
      <trkpt lat="43.24818" lon="-6.869483">
        <ele>630.7</ele>
        <time>2021-04-14T07:12:04.000Z</time>
      </trkpt>
      <trkpt lat="43.248242" lon="-6.869252">
        <ele>630.4</ele>
        <time>2021-04-14T07:12:06.000Z</time>
      </trkpt>
      <trkpt lat="43.24827" lon="-6.869125">
        <ele>630.1</ele>
        <time>2021-04-14T07:12:07.000Z</time>
      </trkpt>
      <trkpt lat="43.248302" lon="-6.869003">
        <ele>629.3</ele>
        <time>2021-04-14T07:12:08.000Z</time>
      </trkpt>
      <trkpt lat="43.248338" lon="-6.868883">
        <ele>627.9</ele>
        <time>2021-04-14T07:12:09.000Z</time>
      </trkpt>
      <trkpt lat="43.248383" lon="-6.86877">
        <ele>626.4</ele>
        <time>2021-04-14T07:12:10.000Z</time>
      </trkpt>
      <trkpt lat="43.248437" lon="-6.86866">
        <ele>624.9</ele>
        <time>2021-04-14T07:12:11.000Z</time>
      </trkpt>
      <trkpt lat="43.24849" lon="-6.868545">
        <ele>623</ele>
        <time>2021-04-14T07:12:12.000Z</time>
      </trkpt>
      <trkpt lat="43.248547" lon="-6.868428">
        <ele>621.5</ele>
        <time>2021-04-14T07:12:13.000Z</time>
      </trkpt>
      <trkpt lat="43.248607" lon="-6.868317">
        <ele>619.8</ele>
        <time>2021-04-14T07:12:14.000Z</time>
      </trkpt>
      <trkpt lat="43.24867" lon="-6.868203">
        <ele>618.7</ele>
        <time>2021-04-14T07:12:15.000Z</time>
      </trkpt>
      <trkpt lat="43.248737" lon="-6.868092">
        <ele>617.7</ele>
        <time>2021-04-14T07:12:16.000Z</time>
      </trkpt>
      <trkpt lat="43.248805" lon="-6.867988">
        <ele>616.4</ele>
        <time>2021-04-14T07:12:17.000Z</time>
      </trkpt>
      <trkpt lat="43.248877" lon="-6.867883">
        <ele>615.5</ele>
        <time>2021-04-14T07:12:18.000Z</time>
      </trkpt>
      <trkpt lat="43.248948" lon="-6.867778">
        <ele>614.6</ele>
        <time>2021-04-14T07:12:19.000Z</time>
      </trkpt>
      <trkpt lat="43.24902" lon="-6.867675">
        <ele>613.6</ele>
        <time>2021-04-14T07:12:20.000Z</time>
      </trkpt>
      <trkpt lat="43.249092" lon="-6.867572">
        <ele>612.9</ele>
        <time>2021-04-14T07:12:21.000Z</time>
      </trkpt>
      <trkpt lat="43.249165" lon="-6.867467">
        <ele>612.5</ele>
        <time>2021-04-14T07:12:22.000Z</time>
      </trkpt>
      <trkpt lat="43.249235" lon="-6.867357">
        <ele>612.1</ele>
        <time>2021-04-14T07:12:23.000Z</time>
      </trkpt>
      <trkpt lat="43.249305" lon="-6.867245">
        <ele>611.7</ele>
        <time>2021-04-14T07:12:24.000Z</time>
      </trkpt>
      <trkpt lat="43.249373" lon="-6.86713">
        <ele>611.7</ele>
        <time>2021-04-14T07:12:25.000Z</time>
      </trkpt>
      <trkpt lat="43.249442" lon="-6.867018">
        <ele>611.3</ele>
        <time>2021-04-14T07:12:26.000Z</time>
      </trkpt>
      <trkpt lat="43.249507" lon="-6.866903">
        <ele>611</ele>
        <time>2021-04-14T07:12:27.000Z</time>
      </trkpt>
      <trkpt lat="43.24957" lon="-6.86678">
        <ele>611.1</ele>
        <time>2021-04-14T07:12:28.000Z</time>
      </trkpt>
      <trkpt lat="43.249628" lon="-6.866662">
        <ele>610.6</ele>
        <time>2021-04-14T07:12:29.000Z</time>
      </trkpt>
      <trkpt lat="43.249687" lon="-6.866542">
        <ele>610.2</ele>
        <time>2021-04-14T07:12:30.000Z</time>
      </trkpt>
      <trkpt lat="43.249747" lon="-6.866425">
        <ele>609.9</ele>
        <time>2021-04-14T07:12:31.000Z</time>
      </trkpt>
      <trkpt lat="43.2498" lon="-6.866318">
        <ele>609.4</ele>
        <time>2021-04-14T07:12:32.000Z</time>
      </trkpt>
      <trkpt lat="43.249888" lon="-6.866137">
        <ele>609.1</ele>
        <time>2021-04-14T07:12:34.000Z</time>
      </trkpt>
      <trkpt lat="43.249977" lon="-6.86598">
        <ele>607.9</ele>
        <time>2021-04-14T07:12:36.000Z</time>
      </trkpt>
      <trkpt lat="43.250067" lon="-6.86581">
        <ele>606.4</ele>
        <time>2021-04-14T07:12:38.000Z</time>
      </trkpt>
      <trkpt lat="43.250142" lon="-6.865613">
        <ele>605.2</ele>
        <time>2021-04-14T07:12:40.000Z</time>
      </trkpt>
      <trkpt lat="43.250212" lon="-6.865398">
        <ele>604.5</ele>
        <time>2021-04-14T07:12:42.000Z</time>
      </trkpt>
      <trkpt lat="43.250282" lon="-6.86522">
        <ele>604.3</ele>
        <time>2021-04-14T07:12:44.000Z</time>
      </trkpt>
      <trkpt lat="43.250365" lon="-6.865083">
        <ele>605</ele>
        <time>2021-04-14T07:12:46.000Z</time>
      </trkpt>
      <trkpt lat="43.25047" lon="-6.864985">
        <ele>604.4</ele>
        <time>2021-04-14T07:12:48.000Z</time>
      </trkpt>
      <trkpt lat="43.250588" lon="-6.864888">
        <ele>604</ele>
        <time>2021-04-14T07:12:50.000Z</time>
      </trkpt>
      <trkpt lat="43.250707" lon="-6.864778">
        <ele>603.5</ele>
        <time>2021-04-14T07:12:52.000Z</time>
      </trkpt>
      <trkpt lat="43.25081" lon="-6.864643">
        <ele>602.5</ele>
        <time>2021-04-14T07:12:54.000Z</time>
      </trkpt>
      <trkpt lat="43.250905" lon="-6.864485">
        <ele>601</ele>
        <time>2021-04-14T07:12:56.000Z</time>
      </trkpt>
      <trkpt lat="43.25099" lon="-6.864315">
        <ele>599.8</ele>
        <time>2021-04-14T07:12:58.000Z</time>
      </trkpt>
      <trkpt lat="43.251048" lon="-6.864122">
        <ele>599.2</ele>
        <time>2021-04-14T07:13:00.000Z</time>
      </trkpt>
      <trkpt lat="43.251068" lon="-6.86394">
        <ele>598.9</ele>
        <time>2021-04-14T07:13:02.000Z</time>
      </trkpt>
      <trkpt lat="43.251067" lon="-6.863817">
        <ele>598</ele>
        <time>2021-04-14T07:13:04.000Z</time>
      </trkpt>
      <trkpt lat="43.25111" lon="-6.863687">
        <ele>595.2</ele>
        <time>2021-04-14T07:13:10.000Z</time>
      </trkpt>
      <trkpt lat="43.251223" lon="-6.863683">
        <ele>594.4</ele>
        <time>2021-04-14T07:13:13.000Z</time>
      </trkpt>
      <trkpt lat="43.251322" lon="-6.86369">
        <ele>593.2</ele>
        <time>2021-04-14T07:13:17.000Z</time>
      </trkpt>
      <trkpt lat="43.25142" lon="-6.863638">
        <ele>591.8</ele>
        <time>2021-04-14T07:13:20.000Z</time>
      </trkpt>
      <trkpt lat="43.25154" lon="-6.863538">
        <ele>592.5</ele>
        <time>2021-04-14T07:13:23.000Z</time>
      </trkpt>
      <trkpt lat="43.251625" lon="-6.863458">
        <ele>592</ele>
        <time>2021-04-14T07:13:25.000Z</time>
      </trkpt>
      <trkpt lat="43.251715" lon="-6.863368">
        <ele>593</ele>
        <time>2021-04-14T07:13:27.000Z</time>
      </trkpt>
      <trkpt lat="43.2518" lon="-6.863288">
        <ele>593.3</ele>
        <time>2021-04-14T07:13:29.000Z</time>
      </trkpt>
      <trkpt lat="43.25189" lon="-6.863203">
        <ele>592.8</ele>
        <time>2021-04-14T07:13:31.000Z</time>
      </trkpt>
      <trkpt lat="43.251992" lon="-6.863137">
        <ele>592.2</ele>
        <time>2021-04-14T07:13:33.000Z</time>
      </trkpt>
      <trkpt lat="43.252115" lon="-6.86308">
        <ele>590.8</ele>
        <time>2021-04-14T07:13:35.000Z</time>
      </trkpt>
      <trkpt lat="43.252243" lon="-6.863023">
        <ele>589.5</ele>
        <time>2021-04-14T07:13:37.000Z</time>
      </trkpt>
      <trkpt lat="43.252355" lon="-6.862965">
        <ele>587.8</ele>
        <time>2021-04-14T07:13:39.000Z</time>
      </trkpt>
      <trkpt lat="43.25246" lon="-6.86288">
        <ele>586.7</ele>
        <time>2021-04-14T07:13:41.000Z</time>
      </trkpt>
      <trkpt lat="43.252565" lon="-6.862778">
        <ele>585.5</ele>
        <time>2021-04-14T07:13:43.000Z</time>
      </trkpt>
      <trkpt lat="43.25267" lon="-6.862683">
        <ele>583</ele>
        <time>2021-04-14T07:13:45.000Z</time>
      </trkpt>
      <trkpt lat="43.252777" lon="-6.862623">
        <ele>581</ele>
        <time>2021-04-14T07:13:47.000Z</time>
      </trkpt>
      <trkpt lat="43.252882" lon="-6.862617">
        <ele>579.4</ele>
        <time>2021-04-14T07:13:49.000Z</time>
      </trkpt>
      <trkpt lat="43.253007" lon="-6.862603">
        <ele>577.6</ele>
        <time>2021-04-14T07:13:51.000Z</time>
      </trkpt>
      <trkpt lat="43.253122" lon="-6.862573">
        <ele>575.5</ele>
        <time>2021-04-14T07:13:53.000Z</time>
      </trkpt>
      <trkpt lat="43.253243" lon="-6.862528">
        <ele>573.5</ele>
        <time>2021-04-14T07:13:55.000Z</time>
      </trkpt>
      <trkpt lat="43.253368" lon="-6.862425">
        <ele>571.8</ele>
        <time>2021-04-14T07:13:57.000Z</time>
      </trkpt>
      <trkpt lat="43.253475" lon="-6.862315">
        <ele>569.8</ele>
        <time>2021-04-14T07:13:59.000Z</time>
      </trkpt>
      <trkpt lat="43.25358" lon="-6.862225">
        <ele>567.3</ele>
        <time>2021-04-14T07:14:01.000Z</time>
      </trkpt>
      <trkpt lat="43.253702" lon="-6.862167">
        <ele>564.1</ele>
        <time>2021-04-14T07:14:03.000Z</time>
      </trkpt>
      <trkpt lat="43.25385" lon="-6.862097">
        <ele>562</ele>
        <time>2021-04-14T07:14:05.000Z</time>
      </trkpt>
      <trkpt lat="43.253987" lon="-6.862017">
        <ele>559.3</ele>
        <time>2021-04-14T07:14:07.000Z</time>
      </trkpt>
      <trkpt lat="43.254112" lon="-6.861937">
        <ele>556.3</ele>
        <time>2021-04-14T07:14:09.000Z</time>
      </trkpt>
      <trkpt lat="43.254215" lon="-6.86188">
        <ele>552.8</ele>
        <time>2021-04-14T07:14:11.000Z</time>
      </trkpt>
      <trkpt lat="43.254338" lon="-6.861797">
        <ele>549.8</ele>
        <time>2021-04-14T07:14:13.000Z</time>
      </trkpt>
      <trkpt lat="43.25445" lon="-6.861718">
        <ele>546.8</ele>
        <time>2021-04-14T07:14:15.000Z</time>
      </trkpt>
      <trkpt lat="43.254562" lon="-6.861642">
        <ele>544.4</ele>
        <time>2021-04-14T07:14:17.000Z</time>
      </trkpt>
      <trkpt lat="43.254692" lon="-6.861563">
        <ele>543</ele>
        <time>2021-04-14T07:14:19.000Z</time>
      </trkpt>
      <trkpt lat="43.254777" lon="-6.861515">
        <ele>543.7</ele>
        <time>2021-04-14T07:14:20.000Z</time>
      </trkpt>
      <trkpt lat="43.254913" lon="-6.861468">
        <ele>546.1</ele>
        <time>2021-04-14T07:14:22.000Z</time>
      </trkpt>
      <trkpt lat="43.255048" lon="-6.861422">
        <ele>548.5</ele>
        <time>2021-04-14T07:14:24.000Z</time>
      </trkpt>
      <trkpt lat="43.255175" lon="-6.8614">
        <ele>550.8</ele>
        <time>2021-04-14T07:14:26.000Z</time>
      </trkpt>
      <trkpt lat="43.255308" lon="-6.861383">
        <ele>553.5</ele>
        <time>2021-04-14T07:14:28.000Z</time>
      </trkpt>
      <trkpt lat="43.255433" lon="-6.86138">
        <ele>553.2</ele>
        <time>2021-04-14T07:14:30.000Z</time>
      </trkpt>
      <trkpt lat="43.255588" lon="-6.861395">
        <ele>555.7</ele>
        <time>2021-04-14T07:14:32.000Z</time>
      </trkpt>
      <trkpt lat="43.255748" lon="-6.861395">
        <ele>556.8</ele>
        <time>2021-04-14T07:14:34.000Z</time>
      </trkpt>
      <trkpt lat="43.255895" lon="-6.861387">
        <ele>557.2</ele>
        <time>2021-04-14T07:14:36.000Z</time>
      </trkpt>
      <trkpt lat="43.256035" lon="-6.861365">
        <ele>557.6</ele>
        <time>2021-04-14T07:14:38.000Z</time>
      </trkpt>
      <trkpt lat="43.256173" lon="-6.861315">
        <ele>559.2</ele>
        <time>2021-04-14T07:14:40.000Z</time>
      </trkpt>
      <trkpt lat="43.256298" lon="-6.86124">
        <ele>559.8</ele>
        <time>2021-04-14T07:14:42.000Z</time>
      </trkpt>
      <trkpt lat="43.25641" lon="-6.861125">
        <ele>560.8</ele>
        <time>2021-04-14T07:14:44.000Z</time>
      </trkpt>
      <trkpt lat="43.256528" lon="-6.860987">
        <ele>563.7</ele>
        <time>2021-04-14T07:14:46.000Z</time>
      </trkpt>
      <trkpt lat="43.256643" lon="-6.86085">
        <ele>565.9</ele>
        <time>2021-04-14T07:14:48.000Z</time>
      </trkpt>
      <trkpt lat="43.256753" lon="-6.860727">
        <ele>566.6</ele>
        <time>2021-04-14T07:14:50.000Z</time>
      </trkpt>
      <trkpt lat="43.256863" lon="-6.860627">
        <ele>566.3</ele>
        <time>2021-04-14T07:14:52.000Z</time>
      </trkpt>
      <trkpt lat="43.256972" lon="-6.860537">
        <ele>565.7</ele>
        <time>2021-04-14T07:14:54.000Z</time>
      </trkpt>
      <trkpt lat="43.257092" lon="-6.860448">
        <ele>564.8</ele>
        <time>2021-04-14T07:14:56.000Z</time>
      </trkpt>
      <trkpt lat="43.257215" lon="-6.860367">
        <ele>563.9</ele>
        <time>2021-04-14T07:14:58.000Z</time>
      </trkpt>
      <trkpt lat="43.25735" lon="-6.860283">
        <ele>562.3</ele>
        <time>2021-04-14T07:15:00.000Z</time>
      </trkpt>
      <trkpt lat="43.257487" lon="-6.860193">
        <ele>560.3</ele>
        <time>2021-04-14T07:15:02.000Z</time>
      </trkpt>
      <trkpt lat="43.257633" lon="-6.860103">
        <ele>559.1</ele>
        <time>2021-04-14T07:15:04.000Z</time>
      </trkpt>
      <trkpt lat="43.257783" lon="-6.860008">
        <ele>558.3</ele>
        <time>2021-04-14T07:15:06.000Z</time>
      </trkpt>
      <trkpt lat="43.257928" lon="-6.85991">
        <ele>556.7</ele>
        <time>2021-04-14T07:15:08.000Z</time>
      </trkpt>
      <trkpt lat="43.258068" lon="-6.859813">
        <ele>555.3</ele>
        <time>2021-04-14T07:15:10.000Z</time>
      </trkpt>
      <trkpt lat="43.258178" lon="-6.85972">
        <ele>554.2</ele>
        <time>2021-04-14T07:15:12.000Z</time>
      </trkpt>
      <trkpt lat="43.258258" lon="-6.859642">
        <ele>553.7</ele>
        <time>2021-04-14T07:15:14.000Z</time>
      </trkpt>
      <trkpt lat="43.258328" lon="-6.859562">
        <ele>552.2</ele>
        <time>2021-04-14T07:15:16.000Z</time>
      </trkpt>
      <trkpt lat="43.258402" lon="-6.859453">
        <ele>549.9</ele>
        <time>2021-04-14T07:15:19.000Z</time>
      </trkpt>
      <trkpt lat="43.25848" lon="-6.859302">
        <ele>548</ele>
        <time>2021-04-14T07:15:22.000Z</time>
      </trkpt>
      <trkpt lat="43.25854" lon="-6.859172">
        <ele>547.2</ele>
        <time>2021-04-14T07:15:24.000Z</time>
      </trkpt>
      <trkpt lat="43.258598" lon="-6.859012">
        <ele>547</ele>
        <time>2021-04-14T07:15:26.000Z</time>
      </trkpt>
      <trkpt lat="43.258657" lon="-6.85883">
        <ele>546.7</ele>
        <time>2021-04-14T07:15:28.000Z</time>
      </trkpt>
      <trkpt lat="43.258697" lon="-6.858667">
        <ele>545.7</ele>
        <time>2021-04-14T07:15:30.000Z</time>
      </trkpt>
      <trkpt lat="43.258722" lon="-6.858528">
        <ele>544.2</ele>
        <time>2021-04-14T07:15:32.000Z</time>
      </trkpt>
      <trkpt lat="43.258753" lon="-6.85839">
        <ele>543.5</ele>
        <time>2021-04-14T07:15:34.000Z</time>
      </trkpt>
      <trkpt lat="43.258808" lon="-6.858245">
        <ele>542.4</ele>
        <time>2021-04-14T07:15:37.000Z</time>
      </trkpt>
      <trkpt lat="43.2589" lon="-6.858342">
        <ele>538.6</ele>
        <time>2021-04-14T07:15:41.000Z</time>
      </trkpt>
      <trkpt lat="43.258947" lon="-6.858462">
        <ele>538.8</ele>
        <time>2021-04-14T07:15:43.000Z</time>
      </trkpt>
      <trkpt lat="43.259008" lon="-6.858587">
        <ele>540.6</ele>
        <time>2021-04-14T07:15:46.000Z</time>
      </trkpt>
      <trkpt lat="43.259112" lon="-6.858637">
        <ele>541.2</ele>
        <time>2021-04-14T07:15:50.000Z</time>
      </trkpt>
      <trkpt lat="43.259178" lon="-6.858477">
        <ele>553</ele>
        <time>2021-04-14T07:29:19.000Z</time>
      </trkpt>
      <trkpt lat="43.2592" lon="-6.858598">
        <ele>550.4</ele>
        <time>2021-04-14T07:31:35.000Z</time>
      </trkpt>
      <trkpt lat="43.259123" lon="-6.858697">
        <ele>547.4</ele>
        <time>2021-04-14T07:47:23.000Z</time>
      </trkpt>
      <trkpt lat="43.259103" lon="-6.858852">
        <ele>548.6</ele>
        <time>2021-04-14T07:47:28.000Z</time>
      </trkpt>
      <trkpt lat="43.2591" lon="-6.859013">
        <ele>550.8</ele>
        <time>2021-04-14T07:47:32.000Z</time>
      </trkpt>
      <trkpt lat="43.259105" lon="-6.859162">
        <ele>552.7</ele>
        <time>2021-04-14T07:47:36.000Z</time>
      </trkpt>
      <trkpt lat="43.259102" lon="-6.85931">
        <ele>554.6</ele>
        <time>2021-04-14T07:47:40.000Z</time>
      </trkpt>
      <trkpt lat="43.259107" lon="-6.859437">
        <ele>555.6</ele>
        <time>2021-04-14T07:47:43.000Z</time>
      </trkpt>
      <trkpt lat="43.259132" lon="-6.859573">
        <ele>556.5</ele>
        <time>2021-04-14T07:47:46.000Z</time>
      </trkpt>
      <trkpt lat="43.259172" lon="-6.859703">
        <ele>557.3</ele>
        <time>2021-04-14T07:47:49.000Z</time>
      </trkpt>
      <trkpt lat="43.259228" lon="-6.859842">
        <ele>558.4</ele>
        <time>2021-04-14T07:47:53.000Z</time>
      </trkpt>
      <trkpt lat="43.259282" lon="-6.859952">
        <ele>557.4</ele>
        <time>2021-04-14T07:47:56.000Z</time>
      </trkpt>
      <trkpt lat="43.259328" lon="-6.860068">
        <ele>556.2</ele>
        <time>2021-04-14T07:47:59.000Z</time>
      </trkpt>
      <trkpt lat="43.259368" lon="-6.860203">
        <ele>554</ele>
        <time>2021-04-14T07:48:02.000Z</time>
      </trkpt>
      <trkpt lat="43.259383" lon="-6.860352">
        <ele>553.2</ele>
        <time>2021-04-14T07:48:05.000Z</time>
      </trkpt>
      <trkpt lat="43.25936" lon="-6.860505">
        <ele>551.2</ele>
        <time>2021-04-14T07:48:08.000Z</time>
      </trkpt>
      <trkpt lat="43.259322" lon="-6.860632">
        <ele>548.1</ele>
        <time>2021-04-14T07:48:11.000Z</time>
      </trkpt>
      <trkpt lat="43.25927" lon="-6.860752">
        <ele>544.8</ele>
        <time>2021-04-14T07:48:14.000Z</time>
      </trkpt>
      <trkpt lat="43.25925" lon="-6.860892">
        <ele>539.3</ele>
        <time>2021-04-14T07:48:18.000Z</time>
      </trkpt>
      <trkpt lat="43.259292" lon="-6.86106">
        <ele>536.4</ele>
        <time>2021-04-14T07:48:21.000Z</time>
      </trkpt>
      <trkpt lat="43.25933" lon="-6.861177">
        <ele>534.9</ele>
        <time>2021-04-14T07:48:23.000Z</time>
      </trkpt>
      <trkpt lat="43.259348" lon="-6.861347">
        <ele>532.2</ele>
        <time>2021-04-14T07:48:26.000Z</time>
      </trkpt>
      <trkpt lat="43.259347" lon="-6.861483">
        <ele>531.4</ele>
        <time>2021-04-14T07:48:28.000Z</time>
      </trkpt>
      <trkpt lat="43.259323" lon="-6.861618">
        <ele>530.8</ele>
        <time>2021-04-14T07:48:30.000Z</time>
      </trkpt>
      <trkpt lat="43.259303" lon="-6.861757">
        <ele>531</ele>
        <time>2021-04-14T07:48:32.000Z</time>
      </trkpt>
      <trkpt lat="43.259287" lon="-6.86189">
        <ele>531.2</ele>
        <time>2021-04-14T07:48:34.000Z</time>
      </trkpt>
      <trkpt lat="43.25928" lon="-6.862022">
        <ele>531.1</ele>
        <time>2021-04-14T07:48:36.000Z</time>
      </trkpt>
      <trkpt lat="43.259282" lon="-6.862152">
        <ele>531.8</ele>
        <time>2021-04-14T07:48:38.000Z</time>
      </trkpt>
      <trkpt lat="43.259315" lon="-6.862307">
        <ele>531.4</ele>
        <time>2021-04-14T07:48:41.000Z</time>
      </trkpt>
      <trkpt lat="43.259368" lon="-6.862417">
        <ele>530.2</ele>
        <time>2021-04-14T07:48:44.000Z</time>
      </trkpt>
      <trkpt lat="43.259417" lon="-6.862523">
        <ele>528.6</ele>
        <time>2021-04-14T07:48:47.000Z</time>
      </trkpt>
      <trkpt lat="43.259495" lon="-6.862647">
        <ele>527.6</ele>
        <time>2021-04-14T07:48:51.000Z</time>
      </trkpt>
      <trkpt lat="43.259562" lon="-6.862743">
        <ele>528.1</ele>
        <time>2021-04-14T07:48:54.000Z</time>
      </trkpt>
      <trkpt lat="43.259623" lon="-6.862833">
        <ele>528.9</ele>
        <time>2021-04-14T07:48:57.000Z</time>
      </trkpt>
      <trkpt lat="43.259702" lon="-6.862963">
        <ele>528.8</ele>
        <time>2021-04-14T07:49:01.000Z</time>
      </trkpt>
      <trkpt lat="43.259763" lon="-6.863077">
        <ele>525.9</ele>
        <time>2021-04-14T07:49:04.000Z</time>
      </trkpt>
      <trkpt lat="43.259822" lon="-6.86319">
        <ele>523.3</ele>
        <time>2021-04-14T07:49:07.000Z</time>
      </trkpt>
      <trkpt lat="43.259878" lon="-6.863287">
        <ele>520.7</ele>
        <time>2021-04-14T07:49:10.000Z</time>
      </trkpt>
      <trkpt lat="43.259953" lon="-6.863403">
        <ele>519.7</ele>
        <time>2021-04-14T07:49:14.000Z</time>
      </trkpt>
      <trkpt lat="43.260023" lon="-6.863525">
        <ele>518.3</ele>
        <time>2021-04-14T07:49:18.000Z</time>
      </trkpt>
      <trkpt lat="43.260082" lon="-6.863627">
        <ele>520.4</ele>
        <time>2021-04-14T07:49:21.000Z</time>
      </trkpt>
      <trkpt lat="43.260158" lon="-6.863747">
        <ele>521.1</ele>
        <time>2021-04-14T07:49:48.000Z</time>
      </trkpt>
      <trkpt lat="43.26022" lon="-6.86386">
        <ele>519.6</ele>
        <time>2021-04-14T07:49:52.000Z</time>
      </trkpt>
      <trkpt lat="43.260282" lon="-6.863972">
        <ele>519.2</ele>
        <time>2021-04-14T07:49:58.000Z</time>
      </trkpt>
      <trkpt lat="43.26034" lon="-6.864085">
        <ele>520.5</ele>
        <time>2021-04-14T07:50:02.000Z</time>
      </trkpt>
      <trkpt lat="43.260402" lon="-6.864183">
        <ele>521.5</ele>
        <time>2021-04-14T07:50:05.000Z</time>
      </trkpt>
      <trkpt lat="43.26047" lon="-6.864287">
        <ele>522.4</ele>
        <time>2021-04-14T07:50:08.000Z</time>
      </trkpt>
      <trkpt lat="43.260545" lon="-6.864387">
        <ele>523.3</ele>
        <time>2021-04-14T07:50:11.000Z</time>
      </trkpt>
      <trkpt lat="43.260628" lon="-6.8645">
        <ele>523.2</ele>
        <time>2021-04-14T07:50:14.000Z</time>
      </trkpt>
      <trkpt lat="43.26069" lon="-6.86459">
        <ele>522.9</ele>
        <time>2021-04-14T07:50:16.000Z</time>
      </trkpt>
      <trkpt lat="43.260752" lon="-6.864683">
        <ele>523.1</ele>
        <time>2021-04-14T07:50:18.000Z</time>
      </trkpt>
      <trkpt lat="43.260818" lon="-6.864783">
        <ele>522.8</ele>
        <time>2021-04-14T07:50:20.000Z</time>
      </trkpt>
      <trkpt lat="43.26089" lon="-6.864888">
        <ele>522</ele>
        <time>2021-04-14T07:50:22.000Z</time>
      </trkpt>
      <trkpt lat="43.26096" lon="-6.864998">
        <ele>519.4</ele>
        <time>2021-04-14T07:50:24.000Z</time>
      </trkpt>
      <trkpt lat="43.26102" lon="-6.865105">
        <ele>516.8</ele>
        <time>2021-04-14T07:50:26.000Z</time>
      </trkpt>
      <trkpt lat="43.261072" lon="-6.865207">
        <ele>514.8</ele>
        <time>2021-04-14T07:50:48.000Z</time>
      </trkpt>
      <trkpt lat="43.261122" lon="-6.865315">
        <ele>514.4</ele>
        <time>2021-04-14T07:50:51.000Z</time>
      </trkpt>
      <trkpt lat="43.261153" lon="-6.865455">
        <ele>514.1</ele>
        <time>2021-04-14T07:51:27.000Z</time>
      </trkpt>
      <trkpt lat="43.2612" lon="-6.865612">
        <ele>512</ele>
        <time>2021-04-14T07:51:30.000Z</time>
      </trkpt>
      <trkpt lat="43.261245" lon="-6.86574">
        <ele>509.4</ele>
        <time>2021-04-14T07:51:32.000Z</time>
      </trkpt>
      <trkpt lat="43.261293" lon="-6.865887">
        <ele>506.9</ele>
        <time>2021-04-14T07:51:34.000Z</time>
      </trkpt>
      <trkpt lat="43.261343" lon="-6.866048">
        <ele>504.4</ele>
        <time>2021-04-14T07:51:36.000Z</time>
      </trkpt>
      <trkpt lat="43.261392" lon="-6.866218">
        <ele>501.5</ele>
        <time>2021-04-14T07:51:38.000Z</time>
      </trkpt>
      <trkpt lat="43.261443" lon="-6.86639">
        <ele>498.3</ele>
        <time>2021-04-14T07:51:40.000Z</time>
      </trkpt>
      <trkpt lat="43.261475" lon="-6.866528">
        <ele>494.5</ele>
        <time>2021-04-14T07:51:42.000Z</time>
      </trkpt>
      <trkpt lat="43.2615" lon="-6.866648">
        <ele>491.8</ele>
        <time>2021-04-14T07:51:44.000Z</time>
      </trkpt>
      <trkpt lat="43.261528" lon="-6.86681">
        <ele>487.7</ele>
        <time>2021-04-14T07:51:47.000Z</time>
      </trkpt>
      <trkpt lat="43.261563" lon="-6.866972">
        <ele>485</ele>
        <time>2021-04-14T07:51:50.000Z</time>
      </trkpt>
      <trkpt lat="43.26158" lon="-6.867113">
        <ele>482.6</ele>
        <time>2021-04-14T07:51:53.000Z</time>
      </trkpt>
      <trkpt lat="43.261607" lon="-6.867275">
        <ele>481.8</ele>
        <time>2021-04-14T07:51:57.000Z</time>
      </trkpt>
      <trkpt lat="43.261633" lon="-6.867418">
        <ele>480.6</ele>
        <time>2021-04-14T07:52:00.000Z</time>
      </trkpt>
      <trkpt lat="43.261653" lon="-6.86754">
        <ele>478.5</ele>
        <time>2021-04-14T07:52:39.000Z</time>
      </trkpt>
      <trkpt lat="43.261602" lon="-6.867663">
        <ele>481.9</ele>
        <time>2021-04-14T07:54:22.000Z</time>
      </trkpt>
      <trkpt lat="43.261518" lon="-6.867735">
        <ele>481.8</ele>
        <time>2021-04-14T07:54:25.000Z</time>
      </trkpt>
      <trkpt lat="43.261423" lon="-6.86776">
        <ele>479.3</ele>
        <time>2021-04-14T07:54:27.000Z</time>
      </trkpt>
      <trkpt lat="43.261318" lon="-6.867767">
        <ele>477.4</ele>
        <time>2021-04-14T07:54:29.000Z</time>
      </trkpt>
      <trkpt lat="43.261208" lon="-6.867773">
        <ele>473.4</ele>
        <time>2021-04-14T07:54:32.000Z</time>
      </trkpt>
      <trkpt lat="43.2611" lon="-6.867773">
        <ele>470.9</ele>
        <time>2021-04-14T07:54:35.000Z</time>
      </trkpt>
      <trkpt lat="43.260995" lon="-6.867772">
        <ele>469.5</ele>
        <time>2021-04-14T07:54:38.000Z</time>
      </trkpt>
      <trkpt lat="43.260902" lon="-6.867757">
        <ele>467.8</ele>
        <time>2021-04-14T07:54:41.000Z</time>
      </trkpt>
      <trkpt lat="43.260812" lon="-6.867743">
        <ele>466.4</ele>
        <time>2021-04-14T07:54:43.000Z</time>
      </trkpt>
      <trkpt lat="43.260722" lon="-6.86774">
        <ele>464.6</ele>
        <time>2021-04-14T07:54:45.000Z</time>
      </trkpt>
      <trkpt lat="43.260625" lon="-6.86773">
        <ele>461.8</ele>
        <time>2021-04-14T07:54:50.000Z</time>
      </trkpt>
      <trkpt lat="43.260525" lon="-6.867712">
        <ele>458.8</ele>
        <time>2021-04-14T07:54:54.000Z</time>
      </trkpt>
      <trkpt lat="43.260418" lon="-6.867698">
        <ele>455.7</ele>
        <time>2021-04-14T07:54:58.000Z</time>
      </trkpt>
      <trkpt lat="43.260317" lon="-6.867677">
        <ele>453.9</ele>
        <time>2021-04-14T07:55:02.000Z</time>
      </trkpt>
      <trkpt lat="43.26021" lon="-6.86765">
        <ele>451.8</ele>
        <time>2021-04-14T07:55:06.000Z</time>
      </trkpt>
      <trkpt lat="43.260107" lon="-6.867618">
        <ele>448.6</ele>
        <time>2021-04-14T07:55:10.000Z</time>
      </trkpt>
      <trkpt lat="43.260005" lon="-6.867585">
        <ele>446.2</ele>
        <time>2021-04-14T07:55:14.000Z</time>
      </trkpt>
      <trkpt lat="43.259908" lon="-6.867605">
        <ele>445.5</ele>
        <time>2021-04-14T07:55:18.000Z</time>
      </trkpt>
      <trkpt lat="43.259888" lon="-6.867727">
        <ele>442.5</ele>
        <time>2021-04-14T07:55:22.000Z</time>
      </trkpt>
      <trkpt lat="43.259918" lon="-6.86786">
        <ele>439.6</ele>
        <time>2021-04-14T07:55:26.000Z</time>
      </trkpt>
      <trkpt lat="43.259965" lon="-6.867995">
        <ele>438.4</ele>
        <time>2021-04-14T07:55:30.000Z</time>
      </trkpt>
      <trkpt lat="43.259987" lon="-6.868127">
        <ele>437.3</ele>
        <time>2021-04-14T07:55:34.000Z</time>
      </trkpt>
      <trkpt lat="43.260005" lon="-6.86827">
        <ele>432.6</ele>
        <time>2021-04-14T07:55:38.000Z</time>
      </trkpt>
      <trkpt lat="43.260015" lon="-6.868415">
        <ele>431.3</ele>
        <time>2021-04-14T07:55:42.000Z</time>
      </trkpt>
      <trkpt lat="43.26004" lon="-6.868557">
        <ele>432.3</ele>
        <time>2021-04-14T07:56:19.000Z</time>
      </trkpt>
      <trkpt lat="43.260037" lon="-6.868682">
        <ele>430.9</ele>
        <time>2021-04-14T07:56:23.000Z</time>
      </trkpt>
      <trkpt lat="43.260132" lon="-6.868743">
        <ele>428.9</ele>
        <time>2021-04-14T08:00:01.000Z</time>
      </trkpt>
      <trkpt lat="43.260047" lon="-6.868697">
        <ele>429.4</ele>
        <time>2021-04-14T08:00:48.000Z</time>
      </trkpt>
      <trkpt lat="43.259967" lon="-6.868575">
        <ele>430.5</ele>
        <time>2021-04-14T08:02:13.000Z</time>
      </trkpt>
      <trkpt lat="43.259907" lon="-6.86844">
        <ele>431</ele>
        <time>2021-04-14T08:02:29.000Z</time>
      </trkpt>
      <trkpt lat="43.259777" lon="-6.868332">
        <ele>431.2</ele>
        <time>2021-04-14T08:04:51.000Z</time>
      </trkpt>
      <trkpt lat="43.25969" lon="-6.86822">
        <ele>432.2</ele>
        <time>2021-04-14T08:05:05.000Z</time>
      </trkpt>
      <trkpt lat="43.259612" lon="-6.868115">
        <ele>430.7</ele>
        <time>2021-04-14T08:05:51.000Z</time>
      </trkpt>
      <trkpt lat="43.25953" lon="-6.868042">
        <ele>430.7</ele>
        <time>2021-04-14T08:11:04.000Z</time>
      </trkpt>
      <trkpt lat="43.259442" lon="-6.867942">
        <ele>432.2</ele>
        <time>2021-04-14T08:11:38.000Z</time>
      </trkpt>
      <trkpt lat="43.259507" lon="-6.868047">
        <ele>428.8</ele>
        <time>2021-04-14T08:13:16.000Z</time>
      </trkpt>
      <trkpt lat="43.259603" lon="-6.868147">
        <ele>428.8</ele>
        <time>2021-04-14T08:13:31.000Z</time>
      </trkpt>
      <trkpt lat="43.259707" lon="-6.86823">
        <ele>428.4</ele>
        <time>2021-04-14T08:13:46.000Z</time>
      </trkpt>
      <trkpt lat="43.259807" lon="-6.868348">
        <ele>427.5</ele>
        <time>2021-04-14T08:14:02.000Z</time>
      </trkpt>
      <trkpt lat="43.259893" lon="-6.868453">
        <ele>427.3</ele>
        <time>2021-04-14T08:14:22.000Z</time>
      </trkpt>
      <trkpt lat="43.259963" lon="-6.868577">
        <ele>427.4</ele>
        <time>2021-04-14T08:14:54.000Z</time>
      </trkpt>
      <trkpt lat="43.260003" lon="-6.868718">
        <ele>427.3</ele>
        <time>2021-04-14T08:15:13.000Z</time>
      </trkpt>
      <trkpt lat="43.260053" lon="-6.868825">
        <ele>427.2</ele>
        <time>2021-04-14T08:17:22.000Z</time>
      </trkpt>
      <trkpt lat="43.260097" lon="-6.868933">
        <ele>426.9</ele>
        <time>2021-04-14T08:17:25.000Z</time>
      </trkpt>
      <trkpt lat="43.26017" lon="-6.869052">
        <ele>425.5</ele>
        <time>2021-04-14T08:17:29.000Z</time>
      </trkpt>
      <trkpt lat="43.260238" lon="-6.869172">
        <ele>425.4</ele>
        <time>2021-04-14T08:17:33.000Z</time>
      </trkpt>
      <trkpt lat="43.260333" lon="-6.869252">
        <ele>425</ele>
        <time>2021-04-14T08:17:37.000Z</time>
      </trkpt>
      <trkpt lat="43.260415" lon="-6.869353">
        <ele>420.1</ele>
        <time>2021-04-14T08:17:41.000Z</time>
      </trkpt>
      <trkpt lat="43.260472" lon="-6.869467">
        <ele>411.6</ele>
        <time>2021-04-14T08:17:45.000Z</time>
      </trkpt>
      <trkpt lat="43.260533" lon="-6.869573">
        <ele>408.3</ele>
        <time>2021-04-14T08:17:49.000Z</time>
      </trkpt>
      <trkpt lat="43.26061" lon="-6.869692">
        <ele>408.6</ele>
        <time>2021-04-14T08:17:53.000Z</time>
      </trkpt>
      <trkpt lat="43.26066" lon="-6.869805">
        <ele>407.6</ele>
        <time>2021-04-14T08:17:57.000Z</time>
      </trkpt>
      <trkpt lat="43.260697" lon="-6.869937">
        <ele>406.4</ele>
        <time>2021-04-14T08:18:01.000Z</time>
      </trkpt>
      <trkpt lat="43.260748" lon="-6.870065">
        <ele>406.2</ele>
        <time>2021-04-14T08:18:05.000Z</time>
      </trkpt>
      <trkpt lat="43.260807" lon="-6.870185">
        <ele>405</ele>
        <time>2021-04-14T08:18:09.000Z</time>
      </trkpt>
      <trkpt lat="43.260845" lon="-6.870332">
        <ele>406.3</ele>
        <time>2021-04-14T08:18:13.000Z</time>
      </trkpt>
      <trkpt lat="43.26087" lon="-6.870458">
        <ele>409.5</ele>
        <time>2021-04-14T08:18:17.000Z</time>
      </trkpt>
      <trkpt lat="43.260903" lon="-6.870625">
        <ele>415</ele>
        <time>2021-04-14T08:21:09.000Z</time>
      </trkpt>
      <trkpt lat="43.260947" lon="-6.870753">
        <ele>415.9</ele>
        <time>2021-04-14T08:21:12.000Z</time>
      </trkpt>
      <trkpt lat="43.261018" lon="-6.870873">
        <ele>415.6</ele>
        <time>2021-04-14T08:21:16.000Z</time>
      </trkpt>
      <trkpt lat="43.2611" lon="-6.870928">
        <ele>415.2</ele>
        <time>2021-04-14T08:21:19.000Z</time>
      </trkpt>
      <trkpt lat="43.261212" lon="-6.870922">
        <ele>415.6</ele>
        <time>2021-04-14T08:21:22.000Z</time>
      </trkpt>
      <trkpt lat="43.261315" lon="-6.870892">
        <ele>412.3</ele>
        <time>2021-04-14T08:21:25.000Z</time>
      </trkpt>
      <trkpt lat="43.26141" lon="-6.870855">
        <ele>409.5</ele>
        <time>2021-04-14T08:21:28.000Z</time>
      </trkpt>
      <trkpt lat="43.26152" lon="-6.870803">
        <ele>406.8</ele>
        <time>2021-04-14T08:21:32.000Z</time>
      </trkpt>
      <trkpt lat="43.261647" lon="-6.87075">
        <ele>406.9</ele>
        <time>2021-04-14T08:21:36.000Z</time>
      </trkpt>
      <trkpt lat="43.261747" lon="-6.870698">
        <ele>409.3</ele>
        <time>2021-04-14T08:21:39.000Z</time>
      </trkpt>
      <trkpt lat="43.261843" lon="-6.870647">
        <ele>409.7</ele>
        <time>2021-04-14T08:21:42.000Z</time>
      </trkpt>
      <trkpt lat="43.261935" lon="-6.870613">
        <ele>412.7</ele>
        <time>2021-04-14T08:21:46.000Z</time>
      </trkpt>
      <trkpt lat="43.262012" lon="-6.870505">
        <ele>411.9</ele>
        <time>2021-04-14T08:22:26.000Z</time>
      </trkpt>
      <trkpt lat="43.262098" lon="-6.870405">
        <ele>411.6</ele>
        <time>2021-04-14T08:22:29.000Z</time>
      </trkpt>
      <trkpt lat="43.262173" lon="-6.870317">
        <ele>411.9</ele>
        <time>2021-04-14T08:22:32.000Z</time>
      </trkpt>
      <trkpt lat="43.262253" lon="-6.870223">
        <ele>412.1</ele>
        <time>2021-04-14T08:22:35.000Z</time>
      </trkpt>
      <trkpt lat="43.262333" lon="-6.870133">
        <ele>411.7</ele>
        <time>2021-04-14T08:22:38.000Z</time>
      </trkpt>
      <trkpt lat="43.262403" lon="-6.870037">
        <ele>411.4</ele>
        <time>2021-04-14T08:22:41.000Z</time>
      </trkpt>
      <trkpt lat="43.262513" lon="-6.86991">
        <ele>411.6</ele>
        <time>2021-04-14T08:22:46.000Z</time>
      </trkpt>
      <trkpt lat="43.262605" lon="-6.869815">
        <ele>412.1</ele>
        <time>2021-04-14T08:22:49.000Z</time>
      </trkpt>
      <trkpt lat="43.26271" lon="-6.869707">
        <ele>412.5</ele>
        <time>2021-04-14T08:22:52.000Z</time>
      </trkpt>
      <trkpt lat="43.26281" lon="-6.869608">
        <ele>412.1</ele>
        <time>2021-04-14T08:22:55.000Z</time>
      </trkpt>
      <trkpt lat="43.262915" lon="-6.869518">
        <ele>410.9</ele>
        <time>2021-04-14T08:22:58.000Z</time>
      </trkpt>
      <trkpt lat="43.263017" lon="-6.869437">
        <ele>410.1</ele>
        <time>2021-04-14T08:23:01.000Z</time>
      </trkpt>
      <trkpt lat="43.26311" lon="-6.869363">
        <ele>409.1</ele>
        <time>2021-04-14T08:23:04.000Z</time>
      </trkpt>
      <trkpt lat="43.263202" lon="-6.869288">
        <ele>406.2</ele>
        <time>2021-04-14T08:23:07.000Z</time>
      </trkpt>
      <trkpt lat="43.2633" lon="-6.869215">
        <ele>405.4</ele>
        <time>2021-04-14T08:23:10.000Z</time>
      </trkpt>
      <trkpt lat="43.263402" lon="-6.869142">
        <ele>405.2</ele>
        <time>2021-04-14T08:23:13.000Z</time>
      </trkpt>
      <trkpt lat="43.263497" lon="-6.869062">
        <ele>405</ele>
        <time>2021-04-14T08:23:16.000Z</time>
      </trkpt>
      <trkpt lat="43.263572" lon="-6.868993">
        <ele>405.9</ele>
        <time>2021-04-14T08:23:19.000Z</time>
      </trkpt>
      <trkpt lat="43.263652" lon="-6.868933">
        <ele>406</ele>
        <time>2021-04-14T08:23:22.000Z</time>
      </trkpt>
      <trkpt lat="43.263765" lon="-6.868852">
        <ele>401.9</ele>
        <time>2021-04-14T08:23:28.000Z</time>
      </trkpt>
      <trkpt lat="43.263842" lon="-6.868775">
        <ele>398.7</ele>
        <time>2021-04-14T08:23:32.000Z</time>
      </trkpt>
      <trkpt lat="43.263928" lon="-6.86872">
        <ele>397.4</ele>
        <time>2021-04-14T08:23:38.000Z</time>
      </trkpt>
      <trkpt lat="43.26395" lon="-6.868878">
        <ele>396.4</ele>
        <time>2021-04-14T08:23:43.000Z</time>
      </trkpt>
      <trkpt lat="43.263908" lon="-6.869017">
        <ele>396.9</ele>
        <time>2021-04-14T08:23:46.000Z</time>
      </trkpt>
      <trkpt lat="43.263863" lon="-6.869148">
        <ele>397</ele>
        <time>2021-04-14T08:23:48.000Z</time>
      </trkpt>
      <trkpt lat="43.26382" lon="-6.869282">
        <ele>397.2</ele>
        <time>2021-04-14T08:23:50.000Z</time>
      </trkpt>
      <trkpt lat="43.263768" lon="-6.869428">
        <ele>395.3</ele>
        <time>2021-04-14T08:23:53.000Z</time>
      </trkpt>
      <trkpt lat="43.263742" lon="-6.869547">
        <ele>393.9</ele>
        <time>2021-04-14T08:23:56.000Z</time>
      </trkpt>
      <trkpt lat="43.263728" lon="-6.869672">
        <ele>391.7</ele>
        <time>2021-04-14T08:23:59.000Z</time>
      </trkpt>
      <trkpt lat="43.263823" lon="-6.86972">
        <ele>388.2</ele>
        <time>2021-04-14T08:24:04.000Z</time>
      </trkpt>
      <trkpt lat="43.26387" lon="-6.869828">
        <ele>382.4</ele>
        <time>2021-04-14T08:24:12.000Z</time>
      </trkpt>
      <trkpt lat="43.263768" lon="-6.869917">
        <ele>382.2</ele>
        <time>2021-04-14T08:24:16.000Z</time>
      </trkpt>
      <trkpt lat="43.263673" lon="-6.869982">
        <ele>381.9</ele>
        <time>2021-04-14T08:24:19.000Z</time>
      </trkpt>
      <trkpt lat="43.263572" lon="-6.870045">
        <ele>381.9</ele>
        <time>2021-04-14T08:24:22.000Z</time>
      </trkpt>
      <trkpt lat="43.263457" lon="-6.870105">
        <ele>381.4</ele>
        <time>2021-04-14T08:24:25.000Z</time>
      </trkpt>
      <trkpt lat="43.263337" lon="-6.870182">
        <ele>381.7</ele>
        <time>2021-04-14T08:24:28.000Z</time>
      </trkpt>
      <trkpt lat="43.263217" lon="-6.87026">
        <ele>381</ele>
        <time>2021-04-14T08:24:31.000Z</time>
      </trkpt>
      <trkpt lat="43.263115" lon="-6.870332">
        <ele>382.3</ele>
        <time>2021-04-14T08:24:34.000Z</time>
      </trkpt>
      <trkpt lat="43.263033" lon="-6.870408">
        <ele>383.5</ele>
        <time>2021-04-14T08:24:37.000Z</time>
      </trkpt>
      <trkpt lat="43.262947" lon="-6.870502">
        <ele>384.7</ele>
        <time>2021-04-14T08:24:40.000Z</time>
      </trkpt>
      <trkpt lat="43.262845" lon="-6.870615">
        <ele>385.2</ele>
        <time>2021-04-14T08:24:43.000Z</time>
      </trkpt>
      <trkpt lat="43.262757" lon="-6.870677">
        <ele>385.2</ele>
        <time>2021-04-14T08:24:46.000Z</time>
      </trkpt>
      <trkpt lat="43.262658" lon="-6.870762">
        <ele>386.9</ele>
        <time>2021-04-14T08:24:50.000Z</time>
      </trkpt>
      <trkpt lat="43.26259" lon="-6.870872">
        <ele>386.2</ele>
        <time>2021-04-14T08:24:54.000Z</time>
      </trkpt>
      <trkpt lat="43.262562" lon="-6.871018">
        <ele>384</ele>
        <time>2021-04-14T08:40:50.000Z</time>
      </trkpt>
      <trkpt lat="43.262507" lon="-6.871148">
        <ele>383.2</ele>
        <time>2021-04-14T08:40:53.000Z</time>
      </trkpt>
      <trkpt lat="43.26244" lon="-6.871298">
        <ele>382.1</ele>
        <time>2021-04-14T08:40:56.000Z</time>
      </trkpt>
      <trkpt lat="43.262392" lon="-6.871412">
        <ele>381.6</ele>
        <time>2021-04-14T08:40:58.000Z</time>
      </trkpt>
      <trkpt lat="43.262345" lon="-6.87153">
        <ele>380.7</ele>
        <time>2021-04-14T08:41:00.000Z</time>
      </trkpt>
      <trkpt lat="43.262302" lon="-6.871643">
        <ele>380.2</ele>
        <time>2021-04-14T08:41:02.000Z</time>
      </trkpt>
      <trkpt lat="43.262258" lon="-6.871755">
        <ele>379.4</ele>
        <time>2021-04-14T08:41:04.000Z</time>
      </trkpt>
      <trkpt lat="43.262205" lon="-6.871908">
        <ele>378.6</ele>
        <time>2021-04-14T08:41:07.000Z</time>
      </trkpt>
      <trkpt lat="43.262133" lon="-6.872043">
        <ele>375</ele>
        <time>2021-04-14T08:41:10.000Z</time>
      </trkpt>
      <trkpt lat="43.262068" lon="-6.872165">
        <ele>371.4</ele>
        <time>2021-04-14T08:41:13.000Z</time>
      </trkpt>
      <trkpt lat="43.262003" lon="-6.872272">
        <ele>367.5</ele>
        <time>2021-04-14T08:41:16.000Z</time>
      </trkpt>
      <trkpt lat="43.261935" lon="-6.872412">
        <ele>364</ele>
        <time>2021-04-14T08:41:19.000Z</time>
      </trkpt>
      <trkpt lat="43.261873" lon="-6.872532">
        <ele>363</ele>
        <time>2021-04-14T08:41:21.000Z</time>
      </trkpt>
      <trkpt lat="43.261807" lon="-6.872645">
        <ele>362.1</ele>
        <time>2021-04-14T08:41:23.000Z</time>
      </trkpt>
      <trkpt lat="43.261742" lon="-6.872755">
        <ele>360.8</ele>
        <time>2021-04-14T08:41:25.000Z</time>
      </trkpt>
      <trkpt lat="43.261667" lon="-6.872865">
        <ele>359.7</ele>
        <time>2021-04-14T08:41:27.000Z</time>
      </trkpt>
      <trkpt lat="43.261587" lon="-6.872978">
        <ele>358.1</ele>
        <time>2021-04-14T08:41:29.000Z</time>
      </trkpt>
      <trkpt lat="43.261492" lon="-6.873092">
        <ele>357.2</ele>
        <time>2021-04-14T08:41:31.000Z</time>
      </trkpt>
      <trkpt lat="43.261393" lon="-6.873208">
        <ele>355.9</ele>
        <time>2021-04-14T08:41:33.000Z</time>
      </trkpt>
      <trkpt lat="43.261272" lon="-6.873308">
        <ele>353.4</ele>
        <time>2021-04-14T08:41:35.000Z</time>
      </trkpt>
      <trkpt lat="43.261132" lon="-6.873393">
        <ele>350.6</ele>
        <time>2021-04-14T08:41:37.000Z</time>
      </trkpt>
      <trkpt lat="43.260988" lon="-6.873472">
        <ele>348.6</ele>
        <time>2021-04-14T08:41:39.000Z</time>
      </trkpt>
      <trkpt lat="43.260845" lon="-6.873542">
        <ele>345.4</ele>
        <time>2021-04-14T08:41:41.000Z</time>
      </trkpt>
      <trkpt lat="43.260717" lon="-6.873597">
        <ele>342.9</ele>
        <time>2021-04-14T08:41:43.000Z</time>
      </trkpt>
      <trkpt lat="43.260582" lon="-6.873608">
        <ele>340.7</ele>
        <time>2021-04-14T08:41:45.000Z</time>
      </trkpt>
      <trkpt lat="43.260443" lon="-6.873578">
        <ele>338</ele>
        <time>2021-04-14T08:41:47.000Z</time>
      </trkpt>
      <trkpt lat="43.260297" lon="-6.873535">
        <ele>335.2</ele>
        <time>2021-04-14T08:41:49.000Z</time>
      </trkpt>
      <trkpt lat="43.260145" lon="-6.873485">
        <ele>332.6</ele>
        <time>2021-04-14T08:41:51.000Z</time>
      </trkpt>
      <trkpt lat="43.259988" lon="-6.87342">
        <ele>329.2</ele>
        <time>2021-04-14T08:41:53.000Z</time>
      </trkpt>
      <trkpt lat="43.259855" lon="-6.87333">
        <ele>326.1</ele>
        <time>2021-04-14T08:41:55.000Z</time>
      </trkpt>
      <trkpt lat="43.25976" lon="-6.873223">
        <ele>325.3</ele>
        <time>2021-04-14T08:41:57.000Z</time>
      </trkpt>
      <trkpt lat="43.259715" lon="-6.873072">
        <ele>322</ele>
        <time>2021-04-14T08:41:59.000Z</time>
      </trkpt>
      <trkpt lat="43.259708" lon="-6.872915">
        <ele>318.1</ele>
        <time>2021-04-14T08:42:01.000Z</time>
      </trkpt>
      <trkpt lat="43.259617" lon="-6.872907">
        <ele>313.5</ele>
        <time>2021-04-14T08:42:08.000Z</time>
      </trkpt>
      <trkpt lat="43.259633" lon="-6.873107">
        <ele>312.9</ele>
        <time>2021-04-14T08:42:11.000Z</time>
      </trkpt>
      <trkpt lat="43.259677" lon="-6.873332">
        <ele>312.3</ele>
        <time>2021-04-14T08:42:13.000Z</time>
      </trkpt>
      <trkpt lat="43.259758" lon="-6.873535">
        <ele>311.5</ele>
        <time>2021-04-14T08:42:15.000Z</time>
      </trkpt>
      <trkpt lat="43.259827" lon="-6.873632">
        <ele>311.1</ele>
        <time>2021-04-14T08:42:16.000Z</time>
      </trkpt>
      <trkpt lat="43.259902" lon="-6.873733">
        <ele>311.1</ele>
        <time>2021-04-14T08:42:17.000Z</time>
      </trkpt>
      <trkpt lat="43.25998" lon="-6.873837">
        <ele>311</ele>
        <time>2021-04-14T08:42:18.000Z</time>
      </trkpt>
      <trkpt lat="43.260062" lon="-6.873942">
        <ele>310.6</ele>
        <time>2021-04-14T08:42:19.000Z</time>
      </trkpt>
      <trkpt lat="43.260145" lon="-6.874053">
        <ele>310.5</ele>
        <time>2021-04-14T08:42:20.000Z</time>
      </trkpt>
      <trkpt lat="43.26023" lon="-6.874167">
        <ele>310.5</ele>
        <time>2021-04-14T08:42:21.000Z</time>
      </trkpt>
      <trkpt lat="43.260317" lon="-6.874277">
        <ele>310.4</ele>
        <time>2021-04-14T08:42:22.000Z</time>
      </trkpt>
      <trkpt lat="43.260405" lon="-6.874385">
        <ele>309.7</ele>
        <time>2021-04-14T08:42:23.000Z</time>
      </trkpt>
      <trkpt lat="43.260495" lon="-6.874492">
        <ele>309.4</ele>
        <time>2021-04-14T08:42:24.000Z</time>
      </trkpt>
      <trkpt lat="43.26059" lon="-6.874593">
        <ele>309</ele>
        <time>2021-04-14T08:42:25.000Z</time>
      </trkpt>
      <trkpt lat="43.260687" lon="-6.874688">
        <ele>308.6</ele>
        <time>2021-04-14T08:42:26.000Z</time>
      </trkpt>
      <trkpt lat="43.260783" lon="-6.87479">
        <ele>308.4</ele>
        <time>2021-04-14T08:42:27.000Z</time>
      </trkpt>
      <trkpt lat="43.26088" lon="-6.874893">
        <ele>308.5</ele>
        <time>2021-04-14T08:42:28.000Z</time>
      </trkpt>
      <trkpt lat="43.260973" lon="-6.874998">
        <ele>308.9</ele>
        <time>2021-04-14T08:42:29.000Z</time>
      </trkpt>
      <trkpt lat="43.261058" lon="-6.875098">
        <ele>308.6</ele>
        <time>2021-04-14T08:42:30.000Z</time>
      </trkpt>
      <trkpt lat="43.261137" lon="-6.875193">
        <ele>308.1</ele>
        <time>2021-04-14T08:42:31.000Z</time>
      </trkpt>
      <trkpt lat="43.26128" lon="-6.875317">
        <ele>307</ele>
        <time>2021-04-14T08:42:33.000Z</time>
      </trkpt>
      <trkpt lat="43.261435" lon="-6.875343">
        <ele>305.4</ele>
        <time>2021-04-14T08:42:35.000Z</time>
      </trkpt>
      <trkpt lat="43.261605" lon="-6.875263">
        <ele>304.1</ele>
        <time>2021-04-14T08:42:37.000Z</time>
      </trkpt>
      <trkpt lat="43.26168" lon="-6.875192">
        <ele>303.6</ele>
        <time>2021-04-14T08:42:38.000Z</time>
      </trkpt>
      <trkpt lat="43.26175" lon="-6.875097">
        <ele>303.1</ele>
        <time>2021-04-14T08:42:39.000Z</time>
      </trkpt>
      <trkpt lat="43.26181" lon="-6.874983">
        <ele>302.5</ele>
        <time>2021-04-14T08:42:40.000Z</time>
      </trkpt>
      <trkpt lat="43.261875" lon="-6.874875">
        <ele>301.7</ele>
        <time>2021-04-14T08:42:41.000Z</time>
      </trkpt>
      <trkpt lat="43.261937" lon="-6.87477">
        <ele>301.1</ele>
        <time>2021-04-14T08:42:42.000Z</time>
      </trkpt>
      <trkpt lat="43.262003" lon="-6.874658">
        <ele>300.8</ele>
        <time>2021-04-14T08:42:43.000Z</time>
      </trkpt>
      <trkpt lat="43.262065" lon="-6.874537">
        <ele>300.5</ele>
        <time>2021-04-14T08:42:44.000Z</time>
      </trkpt>
      <trkpt lat="43.262132" lon="-6.874417">
        <ele>300.2</ele>
        <time>2021-04-14T08:42:45.000Z</time>
      </trkpt>
      <trkpt lat="43.2622" lon="-6.874302">
        <ele>300</ele>
        <time>2021-04-14T08:42:46.000Z</time>
      </trkpt>
      <trkpt lat="43.26228" lon="-6.874193">
        <ele>299.5</ele>
        <time>2021-04-14T08:42:47.000Z</time>
      </trkpt>
      <trkpt lat="43.262355" lon="-6.874085">
        <ele>298.8</ele>
        <time>2021-04-14T08:42:48.000Z</time>
      </trkpt>
      <trkpt lat="43.26243" lon="-6.873977">
        <ele>298.2</ele>
        <time>2021-04-14T08:42:49.000Z</time>
      </trkpt>
      <trkpt lat="43.262507" lon="-6.873868">
        <ele>297.9</ele>
        <time>2021-04-14T08:42:50.000Z</time>
      </trkpt>
      <trkpt lat="43.262587" lon="-6.873757">
        <ele>297.7</ele>
        <time>2021-04-14T08:42:51.000Z</time>
      </trkpt>
      <trkpt lat="43.262667" lon="-6.873652">
        <ele>297.4</ele>
        <time>2021-04-14T08:42:52.000Z</time>
      </trkpt>
      <trkpt lat="43.262745" lon="-6.873542">
        <ele>297.1</ele>
        <time>2021-04-14T08:42:53.000Z</time>
      </trkpt>
      <trkpt lat="43.262817" lon="-6.873442">
        <ele>296.9</ele>
        <time>2021-04-14T08:42:54.000Z</time>
      </trkpt>
      <trkpt lat="43.262888" lon="-6.87335">
        <ele>296.7</ele>
        <time>2021-04-14T08:42:55.000Z</time>
      </trkpt>
      <trkpt lat="43.263002" lon="-6.873225">
        <ele>296.1</ele>
        <time>2021-04-14T08:42:57.000Z</time>
      </trkpt>
      <trkpt lat="43.263108" lon="-6.873172">
        <ele>300</ele>
        <time>2021-04-14T08:43:06.000Z</time>
      </trkpt>
      <trkpt lat="43.263208" lon="-6.873118">
        <ele>300.1</ele>
        <time>2021-04-14T08:43:08.000Z</time>
      </trkpt>
      <trkpt lat="43.263333" lon="-6.873038">
        <ele>300.2</ele>
        <time>2021-04-14T08:43:10.000Z</time>
      </trkpt>
      <trkpt lat="43.26348" lon="-6.872947">
        <ele>301</ele>
        <time>2021-04-14T08:43:12.000Z</time>
      </trkpt>
      <trkpt lat="43.263568" lon="-6.872878">
        <ele>301.5</ele>
        <time>2021-04-14T08:43:13.000Z</time>
      </trkpt>
      <trkpt lat="43.263657" lon="-6.872805">
        <ele>302.2</ele>
        <time>2021-04-14T08:43:14.000Z</time>
      </trkpt>
      <trkpt lat="43.263758" lon="-6.872722">
        <ele>302.9</ele>
        <time>2021-04-14T08:43:15.000Z</time>
      </trkpt>
      <trkpt lat="43.263858" lon="-6.872657">
        <ele>303.5</ele>
        <time>2021-04-14T08:43:16.000Z</time>
      </trkpt>
      <trkpt lat="43.263962" lon="-6.872622">
        <ele>303.9</ele>
        <time>2021-04-14T08:43:17.000Z</time>
      </trkpt>
      <trkpt lat="43.264075" lon="-6.872598">
        <ele>304.2</ele>
        <time>2021-04-14T08:43:18.000Z</time>
      </trkpt>
      <trkpt lat="43.264193" lon="-6.872542">
        <ele>304</ele>
        <time>2021-04-14T08:43:19.000Z</time>
      </trkpt>
      <trkpt lat="43.264305" lon="-6.872475">
        <ele>303.8</ele>
        <time>2021-04-14T08:43:20.000Z</time>
      </trkpt>
      <trkpt lat="43.264405" lon="-6.872412">
        <ele>304.5</ele>
        <time>2021-04-14T08:43:21.000Z</time>
      </trkpt>
      <trkpt lat="43.264493" lon="-6.872348">
        <ele>304.7</ele>
        <time>2021-04-14T08:43:22.000Z</time>
      </trkpt>
      <trkpt lat="43.264575" lon="-6.87229">
        <ele>304.9</ele>
        <time>2021-04-14T08:43:23.000Z</time>
      </trkpt>
      <trkpt lat="43.264657" lon="-6.872225">
        <ele>305</ele>
        <time>2021-04-14T08:43:24.000Z</time>
      </trkpt>
      <trkpt lat="43.264737" lon="-6.872162">
        <ele>305.1</ele>
        <time>2021-04-14T08:43:25.000Z</time>
      </trkpt>
      <trkpt lat="43.264817" lon="-6.87209">
        <ele>305.2</ele>
        <time>2021-04-14T08:43:26.000Z</time>
      </trkpt>
      <trkpt lat="43.264895" lon="-6.872022">
        <ele>305.1</ele>
        <time>2021-04-14T08:43:27.000Z</time>
      </trkpt>
      <trkpt lat="43.265033" lon="-6.8719">
        <ele>304.1</ele>
        <time>2021-04-14T08:43:29.000Z</time>
      </trkpt>
      <trkpt lat="43.265158" lon="-6.871728">
        <ele>302.1</ele>
        <time>2021-04-14T08:43:31.000Z</time>
      </trkpt>
      <trkpt lat="43.265228" lon="-6.871615">
        <ele>300.7</ele>
        <time>2021-04-14T08:43:32.000Z</time>
      </trkpt>
      <trkpt lat="43.265293" lon="-6.871463">
        <ele>298</ele>
        <time>2021-04-14T08:43:33.000Z</time>
      </trkpt>
      <trkpt lat="43.26535" lon="-6.871322">
        <ele>295.5</ele>
        <time>2021-04-14T08:43:34.000Z</time>
      </trkpt>
      <trkpt lat="43.265402" lon="-6.871185">
        <ele>292.9</ele>
        <time>2021-04-14T08:43:35.000Z</time>
      </trkpt>
      <trkpt lat="43.26545" lon="-6.871032">
        <ele>290</ele>
        <time>2021-04-14T08:43:36.000Z</time>
      </trkpt>
      <trkpt lat="43.265485" lon="-6.87089">
        <ele>287.4</ele>
        <time>2021-04-14T08:43:37.000Z</time>
      </trkpt>
      <trkpt lat="43.265508" lon="-6.87075">
        <ele>285.3</ele>
        <time>2021-04-14T08:43:38.000Z</time>
      </trkpt>
      <trkpt lat="43.265533" lon="-6.870628">
        <ele>283.7</ele>
        <time>2021-04-14T08:43:39.000Z</time>
      </trkpt>
      <trkpt lat="43.265625" lon="-6.870432">
        <ele>283.2</ele>
        <time>2021-04-14T08:43:41.000Z</time>
      </trkpt>
      <trkpt lat="43.265755" lon="-6.870272">
        <ele>282.2</ele>
        <time>2021-04-14T08:43:43.000Z</time>
      </trkpt>
      <trkpt lat="43.265882" lon="-6.870232">
        <ele>281.7</ele>
        <time>2021-04-14T08:43:44.000Z</time>
      </trkpt>
      <trkpt lat="43.266005" lon="-6.870183">
        <ele>281.3</ele>
        <time>2021-04-14T08:43:45.000Z</time>
      </trkpt>
      <trkpt lat="43.266135" lon="-6.870107">
        <ele>280.8</ele>
        <time>2021-04-14T08:43:46.000Z</time>
      </trkpt>
      <trkpt lat="43.266238" lon="-6.870028">
        <ele>280.5</ele>
        <time>2021-04-14T08:43:47.000Z</time>
      </trkpt>
      <trkpt lat="43.266325" lon="-6.869945">
        <ele>280.2</ele>
        <time>2021-04-14T08:43:48.000Z</time>
      </trkpt>
      <trkpt lat="43.266407" lon="-6.869848">
        <ele>279.7</ele>
        <time>2021-04-14T08:43:49.000Z</time>
      </trkpt>
      <trkpt lat="43.266483" lon="-6.869735">
        <ele>279.2</ele>
        <time>2021-04-14T08:43:50.000Z</time>
      </trkpt>
      <trkpt lat="43.266547" lon="-6.869637">
        <ele>278.6</ele>
        <time>2021-04-14T08:43:51.000Z</time>
      </trkpt>
      <trkpt lat="43.266638" lon="-6.869495">
        <ele>277.7</ele>
        <time>2021-04-14T08:43:53.000Z</time>
      </trkpt>
      <trkpt lat="43.26659" lon="-6.869648">
        <ele>284.2</ele>
        <time>2021-04-14T08:44:35.000Z</time>
      </trkpt>
      <trkpt lat="43.266533" lon="-6.869783">
        <ele>284.5</ele>
        <time>2021-04-14T08:44:37.000Z</time>
      </trkpt>
      <trkpt lat="43.266457" lon="-6.86992">
        <ele>284.3</ele>
        <time>2021-04-14T08:44:39.000Z</time>
      </trkpt>
      <trkpt lat="43.266373" lon="-6.870045">
        <ele>284</ele>
        <time>2021-04-14T08:44:41.000Z</time>
      </trkpt>
      <trkpt lat="43.26629" lon="-6.87014">
        <ele>283.4</ele>
        <time>2021-04-14T08:44:43.000Z</time>
      </trkpt>
      <trkpt lat="43.266197" lon="-6.870225">
        <ele>282.9</ele>
        <time>2021-04-14T08:44:45.000Z</time>
      </trkpt>
      <trkpt lat="43.266085" lon="-6.870277">
        <ele>279.9</ele>
        <time>2021-04-14T08:44:47.000Z</time>
      </trkpt>
      <trkpt lat="43.265987" lon="-6.870307">
        <ele>277.9</ele>
        <time>2021-04-14T08:44:49.000Z</time>
      </trkpt>
      <trkpt lat="43.265902" lon="-6.87037">
        <ele>276.8</ele>
        <time>2021-04-14T08:44:51.000Z</time>
      </trkpt>
      <trkpt lat="43.265833" lon="-6.870465">
        <ele>275.7</ele>
        <time>2021-04-14T08:44:53.000Z</time>
      </trkpt>
      <trkpt lat="43.265783" lon="-6.870578">
        <ele>274.7</ele>
        <time>2021-04-14T08:44:55.000Z</time>
      </trkpt>
      <trkpt lat="43.265775" lon="-6.870705">
        <ele>273.7</ele>
        <time>2021-04-14T08:44:57.000Z</time>
      </trkpt>
      <trkpt lat="43.26578" lon="-6.870835">
        <ele>272.4</ele>
        <time>2021-04-14T08:44:59.000Z</time>
      </trkpt>
      <trkpt lat="43.265768" lon="-6.870962">
        <ele>270.9</ele>
        <time>2021-04-14T08:45:01.000Z</time>
      </trkpt>
      <trkpt lat="43.265727" lon="-6.871133">
        <ele>269.1</ele>
        <time>2021-04-14T08:45:04.000Z</time>
      </trkpt>
      <trkpt lat="43.265693" lon="-6.871317">
        <ele>267</ele>
        <time>2021-04-14T08:45:07.000Z</time>
      </trkpt>
      <trkpt lat="43.265633" lon="-6.871467">
        <ele>262.9</ele>
        <time>2021-04-14T08:45:09.000Z</time>
      </trkpt>
      <trkpt lat="43.265555" lon="-6.871618">
        <ele>259.8</ele>
        <time>2021-04-14T08:45:11.000Z</time>
      </trkpt>
      <trkpt lat="43.265458" lon="-6.871727">
        <ele>255.9</ele>
        <time>2021-04-14T08:45:13.000Z</time>
      </trkpt>
      <trkpt lat="43.265345" lon="-6.87184">
        <ele>251.6</ele>
        <time>2021-04-14T08:45:15.000Z</time>
      </trkpt>
      <trkpt lat="43.265222" lon="-6.87197">
        <ele>247.2</ele>
        <time>2021-04-14T08:45:17.000Z</time>
      </trkpt>
      <trkpt lat="43.265108" lon="-6.872098">
        <ele>243.8</ele>
        <time>2021-04-14T08:45:19.000Z</time>
      </trkpt>
      <trkpt lat="43.264998" lon="-6.872213">
        <ele>240</ele>
        <time>2021-04-14T08:45:21.000Z</time>
      </trkpt>
      <trkpt lat="43.264902" lon="-6.872338">
        <ele>238.2</ele>
        <time>2021-04-14T08:45:23.000Z</time>
      </trkpt>
      <trkpt lat="43.264813" lon="-6.872432">
        <ele>235.8</ele>
        <time>2021-04-14T08:45:25.000Z</time>
      </trkpt>
      <trkpt lat="43.264738" lon="-6.872528">
        <ele>235.1</ele>
        <time>2021-04-14T08:45:27.000Z</time>
      </trkpt>
      <trkpt lat="43.264655" lon="-6.872602">
        <ele>232.5</ele>
        <time>2021-04-14T08:45:29.000Z</time>
      </trkpt>
      <trkpt lat="43.264575" lon="-6.87272">
        <ele>233.1</ele>
        <time>2021-04-14T08:45:31.000Z</time>
      </trkpt>
      <trkpt lat="43.264483" lon="-6.872825">
        <ele>232.6</ele>
        <time>2021-04-14T08:45:33.000Z</time>
      </trkpt>
      <trkpt lat="43.264413" lon="-6.87291">
        <ele>231.1</ele>
        <time>2021-04-14T08:45:35.000Z</time>
      </trkpt>
      <trkpt lat="43.264322" lon="-6.872967">
        <ele>229.7</ele>
        <time>2021-04-14T08:45:39.000Z</time>
      </trkpt>
      <trkpt lat="43.264188" lon="-6.873005">
        <ele>229</ele>
        <time>2021-04-14T08:45:42.000Z</time>
      </trkpt>
      <trkpt lat="43.264085" lon="-6.873087">
        <ele>229.5</ele>
        <time>2021-04-14T08:45:44.000Z</time>
      </trkpt>
      <trkpt lat="43.264003" lon="-6.873193">
        <ele>228.6</ele>
        <time>2021-04-14T08:45:46.000Z</time>
      </trkpt>
      <trkpt lat="43.263943" lon="-6.873308">
        <ele>227.1</ele>
        <time>2021-04-14T08:45:48.000Z</time>
      </trkpt>
      <trkpt lat="43.263882" lon="-6.87346">
        <ele>226.4</ele>
        <time>2021-04-14T08:45:50.000Z</time>
      </trkpt>
      <trkpt lat="43.263835" lon="-6.873612">
        <ele>225.5</ele>
        <time>2021-04-14T08:45:52.000Z</time>
      </trkpt>
      <trkpt lat="43.263822" lon="-6.873737">
        <ele>229.2</ele>
        <time>2021-04-14T08:45:54.000Z</time>
      </trkpt>
      <trkpt lat="43.26381" lon="-6.87387">
        <ele>234.3</ele>
        <time>2021-04-14T08:45:57.000Z</time>
      </trkpt>
      <trkpt lat="43.263825" lon="-6.874195">
        <ele>252.7</ele>
        <time>2021-04-14T08:46:10.000Z</time>
      </trkpt>
      <trkpt lat="43.263915" lon="-6.874163">
        <ele>257.4</ele>
        <time>2021-04-14T08:47:23.000Z</time>
      </trkpt>
      <trkpt lat="43.2639" lon="-6.874042">
        <ele>257.2</ele>
        <time>2021-04-14T08:47:27.000Z</time>
      </trkpt>
      <trkpt lat="43.26379" lon="-6.873995">
        <ele>247.9</ele>
        <time>2021-04-14T08:48:49.000Z</time>
      </trkpt>
      <trkpt lat="43.263887" lon="-6.874193">
        <ele>262.5</ele>
        <time>2021-04-14T09:08:30.000Z</time>
      </trkpt>
      <trkpt lat="43.263763" lon="-6.874202">
        <ele>264.9</ele>
        <time>2021-04-14T09:12:34.000Z</time>
      </trkpt>
      <trkpt lat="43.263625" lon="-6.874218">
        <ele>262.5</ele>
        <time>2021-04-14T09:12:37.000Z</time>
      </trkpt>
      <trkpt lat="43.263512" lon="-6.874223">
        <ele>261</ele>
        <time>2021-04-14T09:12:39.000Z</time>
      </trkpt>
      <trkpt lat="43.263395" lon="-6.874268">
        <ele>259.2</ele>
        <time>2021-04-14T09:12:41.000Z</time>
      </trkpt>
      <trkpt lat="43.263303" lon="-6.874377">
        <ele>257.3</ele>
        <time>2021-04-14T09:12:43.000Z</time>
      </trkpt>
      <trkpt lat="43.263227" lon="-6.874552">
        <ele>255.9</ele>
        <time>2021-04-14T09:12:45.000Z</time>
      </trkpt>
      <trkpt lat="43.263182" lon="-6.874665">
        <ele>255.2</ele>
        <time>2021-04-14T09:12:46.000Z</time>
      </trkpt>
      <trkpt lat="43.263135" lon="-6.874783">
        <ele>254.6</ele>
        <time>2021-04-14T09:12:47.000Z</time>
      </trkpt>
      <trkpt lat="43.26309" lon="-6.874892">
        <ele>254</ele>
        <time>2021-04-14T09:12:48.000Z</time>
      </trkpt>
      <trkpt lat="43.263052" lon="-6.875013">
        <ele>253.5</ele>
        <time>2021-04-14T09:12:49.000Z</time>
      </trkpt>
      <trkpt lat="43.263015" lon="-6.875127">
        <ele>253.4</ele>
        <time>2021-04-14T09:12:50.000Z</time>
      </trkpt>
      <trkpt lat="43.262928" lon="-6.875267">
        <ele>251</ele>
        <time>2021-04-14T09:12:52.000Z</time>
      </trkpt>
      <trkpt lat="43.262825" lon="-6.875382">
        <ele>248.2</ele>
        <time>2021-04-14T09:12:54.000Z</time>
      </trkpt>
      <trkpt lat="43.262723" lon="-6.875518">
        <ele>246.5</ele>
        <time>2021-04-14T09:12:56.000Z</time>
      </trkpt>
      <trkpt lat="43.262633" lon="-6.875688">
        <ele>244</ele>
        <time>2021-04-14T09:12:58.000Z</time>
      </trkpt>
      <trkpt lat="43.262552" lon="-6.875877">
        <ele>240.3</ele>
        <time>2021-04-14T09:13:00.000Z</time>
      </trkpt>
      <trkpt lat="43.262473" lon="-6.876092">
        <ele>236.5</ele>
        <time>2021-04-14T09:13:02.000Z</time>
      </trkpt>
      <trkpt lat="43.262423" lon="-6.87629">
        <ele>232.3</ele>
        <time>2021-04-14T09:13:04.000Z</time>
      </trkpt>
      <trkpt lat="43.262395" lon="-6.876462">
        <ele>228.9</ele>
        <time>2021-04-14T09:13:06.000Z</time>
      </trkpt>
      <trkpt lat="43.262343" lon="-6.876643">
        <ele>225.3</ele>
        <time>2021-04-14T09:13:08.000Z</time>
      </trkpt>
      <trkpt lat="43.262258" lon="-6.87682">
        <ele>221.9</ele>
        <time>2021-04-14T09:13:10.000Z</time>
      </trkpt>
      <trkpt lat="43.262138" lon="-6.876958">
        <ele>217.5</ele>
        <time>2021-04-14T09:13:12.000Z</time>
      </trkpt>
      <trkpt lat="43.262017" lon="-6.877058">
        <ele>213.8</ele>
        <time>2021-04-14T09:13:14.000Z</time>
      </trkpt>
      <trkpt lat="43.261888" lon="-6.877107">
        <ele>210.5</ele>
        <time>2021-04-14T09:13:16.000Z</time>
      </trkpt>
      <trkpt lat="43.261738" lon="-6.87716">
        <ele>208.1</ele>
        <time>2021-04-14T09:13:18.000Z</time>
      </trkpt>
      <trkpt lat="43.261585" lon="-6.877142">
        <ele>202.7</ele>
        <time>2021-04-14T09:13:20.000Z</time>
      </trkpt>
      <trkpt lat="43.261498" lon="-6.87718">
        <ele>198.3</ele>
        <time>2021-04-14T09:13:23.000Z</time>
      </trkpt>
      <trkpt lat="43.261507" lon="-6.87739">
        <ele>195.8</ele>
        <time>2021-04-14T09:13:26.000Z</time>
      </trkpt>
      <trkpt lat="43.261562" lon="-6.877515">
        <ele>193.9</ele>
        <time>2021-04-14T09:13:28.000Z</time>
      </trkpt>
      <trkpt lat="43.261638" lon="-6.877663">
        <ele>195.9</ele>
        <time>2021-04-14T09:13:30.000Z</time>
      </trkpt>
      <trkpt lat="43.261702" lon="-6.877773">
        <ele>196.4</ele>
        <time>2021-04-14T09:13:32.000Z</time>
      </trkpt>
      <trkpt lat="43.261773" lon="-6.87791">
        <ele>198.7</ele>
        <time>2021-04-14T09:13:34.000Z</time>
      </trkpt>
      <trkpt lat="43.261863" lon="-6.878038">
        <ele>198.9</ele>
        <time>2021-04-14T09:13:36.000Z</time>
      </trkpt>
      <trkpt lat="43.261927" lon="-6.878148">
        <ele>199.6</ele>
        <time>2021-04-14T09:13:38.000Z</time>
      </trkpt>
      <trkpt lat="43.26194" lon="-6.878308">
        <ele>202.4</ele>
        <time>2021-04-14T09:13:41.000Z</time>
      </trkpt>
      <trkpt lat="43.261893" lon="-6.878422">
        <ele>202.7</ele>
        <time>2021-04-14T09:13:45.000Z</time>
      </trkpt>
      <trkpt lat="43.261833" lon="-6.878535">
        <ele>200.7</ele>
        <time>2021-04-14T09:13:49.000Z</time>
      </trkpt>
      <trkpt lat="43.26178" lon="-6.878652">
        <ele>197.9</ele>
        <time>2021-04-14T09:13:52.000Z</time>
      </trkpt>
      <trkpt lat="43.261723" lon="-6.878768">
        <ele>194.7</ele>
        <time>2021-04-14T09:13:55.000Z</time>
      </trkpt>
      <trkpt lat="43.261737" lon="-6.878982">
        <ele>197.6</ele>
        <time>2021-04-14T09:15:14.000Z</time>
      </trkpt>
      <trkpt lat="43.261618" lon="-6.879043">
        <ele>200.4</ele>
        <time>2021-04-14T09:16:37.000Z</time>
      </trkpt>
      <trkpt lat="43.261545" lon="-6.879118">
        <ele>200.4</ele>
        <time>2021-04-14T09:16:39.000Z</time>
      </trkpt>
      <trkpt lat="43.261465" lon="-6.879183">
        <ele>200.1</ele>
        <time>2021-04-14T09:16:41.000Z</time>
      </trkpt>
      <trkpt lat="43.261337" lon="-6.879228">
        <ele>199.7</ele>
        <time>2021-04-14T09:16:44.000Z</time>
      </trkpt>
      <trkpt lat="43.261228" lon="-6.879205">
        <ele>198.3</ele>
        <time>2021-04-14T09:16:46.000Z</time>
      </trkpt>
      <trkpt lat="43.26112" lon="-6.879178">
        <ele>197.5</ele>
        <time>2021-04-14T09:16:48.000Z</time>
      </trkpt>
      <trkpt lat="43.261047" lon="-6.879092">
        <ele>194.4</ele>
        <time>2021-04-14T09:16:50.000Z</time>
      </trkpt>
      <trkpt lat="43.260918" lon="-6.879093">
        <ele>192.6</ele>
        <time>2021-04-14T09:16:53.000Z</time>
      </trkpt>
      <trkpt lat="43.260793" lon="-6.879112">
        <ele>190.7</ele>
        <time>2021-04-14T09:16:55.000Z</time>
      </trkpt>
      <trkpt lat="43.260665" lon="-6.879135">
        <ele>188.7</ele>
        <time>2021-04-14T09:16:57.000Z</time>
      </trkpt>
      <trkpt lat="43.260545" lon="-6.879135">
        <ele>187.4</ele>
        <time>2021-04-14T09:16:59.000Z</time>
      </trkpt>
      <trkpt lat="43.260418" lon="-6.879157">
        <ele>186.2</ele>
        <time>2021-04-14T09:17:01.000Z</time>
      </trkpt>
      <trkpt lat="43.260323" lon="-6.879197">
        <ele>185.4</ele>
        <time>2021-04-14T09:17:03.000Z</time>
      </trkpt>
      <trkpt lat="43.260228" lon="-6.879262">
        <ele>186.4</ele>
        <time>2021-04-14T09:17:05.000Z</time>
      </trkpt>
      <trkpt lat="43.26013" lon="-6.879323">
        <ele>186.9</ele>
        <time>2021-04-14T09:17:07.000Z</time>
      </trkpt>
      <trkpt lat="43.260047" lon="-6.879392">
        <ele>187.5</ele>
        <time>2021-04-14T09:17:09.000Z</time>
      </trkpt>
      <trkpt lat="43.259942" lon="-6.879475">
        <ele>186.9</ele>
        <time>2021-04-14T09:17:11.000Z</time>
      </trkpt>
      <trkpt lat="43.25984" lon="-6.87955">
        <ele>185.7</ele>
        <time>2021-04-14T09:17:13.000Z</time>
      </trkpt>
      <trkpt lat="43.259718" lon="-6.879633">
        <ele>184.8</ele>
        <time>2021-04-14T09:17:15.000Z</time>
      </trkpt>
      <trkpt lat="43.25958" lon="-6.87973">
        <ele>183</ele>
        <time>2021-04-14T09:17:17.000Z</time>
      </trkpt>
      <trkpt lat="43.259462" lon="-6.879802">
        <ele>180.7</ele>
        <time>2021-04-14T09:17:19.000Z</time>
      </trkpt>
      <trkpt lat="43.259378" lon="-6.879875">
        <ele>179.4</ele>
        <time>2021-04-14T09:17:21.000Z</time>
      </trkpt>
      <trkpt lat="43.259272" lon="-6.87997">
        <ele>178</ele>
        <time>2021-04-14T09:17:23.000Z</time>
      </trkpt>
      <trkpt lat="43.259162" lon="-6.880095">
        <ele>177.1</ele>
        <time>2021-04-14T09:17:25.000Z</time>
      </trkpt>
      <trkpt lat="43.259055" lon="-6.880235">
        <ele>176.5</ele>
        <time>2021-04-14T09:17:27.000Z</time>
      </trkpt>
      <trkpt lat="43.25899" lon="-6.880373">
        <ele>175.8</ele>
        <time>2021-04-14T09:17:29.000Z</time>
      </trkpt>
      <trkpt lat="43.258925" lon="-6.880498">
        <ele>174.8</ele>
        <time>2021-04-14T09:17:31.000Z</time>
      </trkpt>
      <trkpt lat="43.25888" lon="-6.880655">
        <ele>174.3</ele>
        <time>2021-04-14T09:17:34.000Z</time>
      </trkpt>
      <trkpt lat="43.258947" lon="-6.880768">
        <ele>173.5</ele>
        <time>2021-04-14T09:17:37.000Z</time>
      </trkpt>
      <trkpt lat="43.259042" lon="-6.880838">
        <ele>164.7</ele>
        <time>2021-04-14T09:17:41.000Z</time>
      </trkpt>
      <trkpt lat="43.259135" lon="-6.880765">
        <ele>161.2</ele>
        <time>2021-04-14T09:17:44.000Z</time>
      </trkpt>
      <trkpt lat="43.259245" lon="-6.880705">
        <ele>159.6</ele>
        <time>2021-04-14T09:17:47.000Z</time>
      </trkpt>
      <trkpt lat="43.25935" lon="-6.880642">
        <ele>157.8</ele>
        <time>2021-04-14T09:17:51.000Z</time>
      </trkpt>
      <trkpt lat="43.259477" lon="-6.880607">
        <ele>157.7</ele>
        <time>2021-04-14T09:17:54.000Z</time>
      </trkpt>
      <trkpt lat="43.259575" lon="-6.880583">
        <ele>160.6</ele>
        <time>2021-04-14T09:17:56.000Z</time>
      </trkpt>
      <trkpt lat="43.259715" lon="-6.880515">
        <ele>164.4</ele>
        <time>2021-04-14T09:17:59.000Z</time>
      </trkpt>
      <trkpt lat="43.259837" lon="-6.880475">
        <ele>165.4</ele>
        <time>2021-04-14T09:18:01.000Z</time>
      </trkpt>
      <trkpt lat="43.259942" lon="-6.880437">
        <ele>165.9</ele>
        <time>2021-04-14T09:18:03.000Z</time>
      </trkpt>
      <trkpt lat="43.26003" lon="-6.880395">
        <ele>167</ele>
        <time>2021-04-14T09:18:05.000Z</time>
      </trkpt>
      <trkpt lat="43.260143" lon="-6.880315">
        <ele>169.2</ele>
        <time>2021-04-14T09:18:08.000Z</time>
      </trkpt>
      <trkpt lat="43.260233" lon="-6.880283">
        <ele>170.3</ele>
        <time>2021-04-14T09:18:10.000Z</time>
      </trkpt>
      <trkpt lat="43.260327" lon="-6.880267">
        <ele>171.6</ele>
        <time>2021-04-14T09:18:12.000Z</time>
      </trkpt>
      <trkpt lat="43.260425" lon="-6.880285">
        <ele>172.8</ele>
        <time>2021-04-14T09:18:15.000Z</time>
      </trkpt>
      <trkpt lat="43.260552" lon="-6.880305">
        <ele>173.3</ele>
        <time>2021-04-14T09:18:18.000Z</time>
      </trkpt>
      <trkpt lat="43.26065" lon="-6.880327">
        <ele>173.7</ele>
        <time>2021-04-14T09:18:20.000Z</time>
      </trkpt>
      <trkpt lat="43.260768" lon="-6.880385">
        <ele>175.5</ele>
        <time>2021-04-14T09:18:22.000Z</time>
      </trkpt>
      <trkpt lat="43.2609" lon="-6.880453">
        <ele>177.2</ele>
        <time>2021-04-14T09:18:24.000Z</time>
      </trkpt>
      <trkpt lat="43.261035" lon="-6.880517">
        <ele>179</ele>
        <time>2021-04-14T09:18:26.000Z</time>
      </trkpt>
      <trkpt lat="43.261147" lon="-6.880568">
        <ele>182.5</ele>
        <time>2021-04-14T09:18:28.000Z</time>
      </trkpt>
      <trkpt lat="43.261242" lon="-6.880627">
        <ele>184</ele>
        <time>2021-04-14T09:18:30.000Z</time>
      </trkpt>
      <trkpt lat="43.261343" lon="-6.880657">
        <ele>186</ele>
        <time>2021-04-14T09:18:32.000Z</time>
      </trkpt>
      <trkpt lat="43.261455" lon="-6.88068">
        <ele>186.7</ele>
        <time>2021-04-14T09:18:34.000Z</time>
      </trkpt>
      <trkpt lat="43.261582" lon="-6.880695">
        <ele>187</ele>
        <time>2021-04-14T09:18:36.000Z</time>
      </trkpt>
      <trkpt lat="43.2617" lon="-6.880703">
        <ele>186.3</ele>
        <time>2021-04-14T09:18:38.000Z</time>
      </trkpt>
      <trkpt lat="43.261827" lon="-6.880633">
        <ele>189.4</ele>
        <time>2021-04-14T09:18:40.000Z</time>
      </trkpt>
      <trkpt lat="43.261933" lon="-6.880582">
        <ele>191.7</ele>
        <time>2021-04-14T09:18:42.000Z</time>
      </trkpt>
      <trkpt lat="43.262023" lon="-6.880532">
        <ele>192.8</ele>
        <time>2021-04-14T09:18:44.000Z</time>
      </trkpt>
      <trkpt lat="43.262123" lon="-6.88048">
        <ele>195.7</ele>
        <time>2021-04-14T09:18:46.000Z</time>
      </trkpt>
      <trkpt lat="43.262213" lon="-6.880422">
        <ele>196.9</ele>
        <time>2021-04-14T09:18:48.000Z</time>
      </trkpt>
      <trkpt lat="43.262297" lon="-6.880357">
        <ele>195.4</ele>
        <time>2021-04-14T09:18:50.000Z</time>
      </trkpt>
      <trkpt lat="43.262387" lon="-6.880285">
        <ele>194.5</ele>
        <time>2021-04-14T09:18:52.000Z</time>
      </trkpt>
      <trkpt lat="43.262482" lon="-6.880213">
        <ele>193</ele>
        <time>2021-04-14T09:18:54.000Z</time>
      </trkpt>
      <trkpt lat="43.262577" lon="-6.880147">
        <ele>192</ele>
        <time>2021-04-14T09:18:56.000Z</time>
      </trkpt>
      <trkpt lat="43.262678" lon="-6.880083">
        <ele>189.9</ele>
        <time>2021-04-14T09:18:58.000Z</time>
      </trkpt>
      <trkpt lat="43.262782" lon="-6.88001">
        <ele>190.3</ele>
        <time>2021-04-14T09:19:00.000Z</time>
      </trkpt>
      <trkpt lat="43.262877" lon="-6.879917">
        <ele>192.8</ele>
        <time>2021-04-14T09:19:02.000Z</time>
      </trkpt>
      <trkpt lat="43.26295" lon="-6.879792">
        <ele>197.8</ele>
        <time>2021-04-14T09:19:04.000Z</time>
      </trkpt>
      <trkpt lat="43.26302" lon="-6.879653">
        <ele>201.4</ele>
        <time>2021-04-14T09:19:06.000Z</time>
      </trkpt>
      <trkpt lat="43.263112" lon="-6.879517">
        <ele>201.6</ele>
        <time>2021-04-14T09:19:08.000Z</time>
      </trkpt>
      <trkpt lat="43.263193" lon="-6.87938">
        <ele>203.3</ele>
        <time>2021-04-14T09:19:10.000Z</time>
      </trkpt>
      <trkpt lat="43.263267" lon="-6.879257">
        <ele>206.1</ele>
        <time>2021-04-14T09:19:12.000Z</time>
      </trkpt>
      <trkpt lat="43.263353" lon="-6.87917">
        <ele>208.9</ele>
        <time>2021-04-14T09:19:14.000Z</time>
      </trkpt>
      <trkpt lat="43.26345" lon="-6.8791">
        <ele>211.3</ele>
        <time>2021-04-14T09:19:16.000Z</time>
      </trkpt>
      <trkpt lat="43.263543" lon="-6.879032">
        <ele>213.6</ele>
        <time>2021-04-14T09:19:18.000Z</time>
      </trkpt>
      <trkpt lat="43.263635" lon="-6.878948">
        <ele>215.6</ele>
        <time>2021-04-14T09:19:20.000Z</time>
      </trkpt>
      <trkpt lat="43.263722" lon="-6.87885">
        <ele>217</ele>
        <time>2021-04-14T09:19:22.000Z</time>
      </trkpt>
      <trkpt lat="43.263803" lon="-6.87876">
        <ele>218.2</ele>
        <time>2021-04-14T09:19:24.000Z</time>
      </trkpt>
      <trkpt lat="43.263892" lon="-6.878665">
        <ele>220.7</ele>
        <time>2021-04-14T09:19:26.000Z</time>
      </trkpt>
      <trkpt lat="43.263987" lon="-6.878567">
        <ele>222.8</ele>
        <time>2021-04-14T09:19:28.000Z</time>
      </trkpt>
      <trkpt lat="43.26409" lon="-6.878467">
        <ele>222.7</ele>
        <time>2021-04-14T09:19:30.000Z</time>
      </trkpt>
      <trkpt lat="43.264198" lon="-6.878365">
        <ele>221.8</ele>
        <time>2021-04-14T09:19:32.000Z</time>
      </trkpt>
      <trkpt lat="43.2643" lon="-6.878258">
        <ele>221.9</ele>
        <time>2021-04-14T09:19:34.000Z</time>
      </trkpt>
      <trkpt lat="43.264393" lon="-6.878143">
        <ele>222.8</ele>
        <time>2021-04-14T09:19:36.000Z</time>
      </trkpt>
      <trkpt lat="43.26447" lon="-6.878013">
        <ele>223.3</ele>
        <time>2021-04-14T09:19:38.000Z</time>
      </trkpt>
      <trkpt lat="43.264532" lon="-6.877878">
        <ele>224</ele>
        <time>2021-04-14T09:19:40.000Z</time>
      </trkpt>
      <trkpt lat="43.264608" lon="-6.877755">
        <ele>225.3</ele>
        <time>2021-04-14T09:19:42.000Z</time>
      </trkpt>
      <trkpt lat="43.264693" lon="-6.877657">
        <ele>225</ele>
        <time>2021-04-14T09:19:44.000Z</time>
      </trkpt>
      <trkpt lat="43.264785" lon="-6.877578">
        <ele>226</ele>
        <time>2021-04-14T09:19:46.000Z</time>
      </trkpt>
      <trkpt lat="43.264907" lon="-6.877515">
        <ele>224.9</ele>
        <time>2021-04-14T09:19:49.000Z</time>
      </trkpt>
      <trkpt lat="43.264997" lon="-6.877468">
        <ele>225.3</ele>
        <time>2021-04-14T09:19:52.000Z</time>
      </trkpt>
      <trkpt lat="43.265103" lon="-6.877445">
        <ele>227.1</ele>
        <time>2021-04-14T09:19:55.000Z</time>
      </trkpt>
      <trkpt lat="43.265217" lon="-6.877427">
        <ele>228.3</ele>
        <time>2021-04-14T09:19:58.000Z</time>
      </trkpt>
      <trkpt lat="43.265312" lon="-6.877415">
        <ele>231.4</ele>
        <time>2021-04-14T09:20:01.000Z</time>
      </trkpt>
      <trkpt lat="43.265402" lon="-6.87737">
        <ele>234.7</ele>
        <time>2021-04-14T09:20:04.000Z</time>
      </trkpt>
      <trkpt lat="43.265472" lon="-6.877275">
        <ele>236.6</ele>
        <time>2021-04-14T09:20:07.000Z</time>
      </trkpt>
      <trkpt lat="43.26554" lon="-6.877147">
        <ele>237.7</ele>
        <time>2021-04-14T09:20:09.000Z</time>
      </trkpt>
      <trkpt lat="43.265783" lon="-6.876943">
        <ele>249.3</ele>
        <time>2021-04-14T09:20:11.000Z</time>
      </trkpt>
      <trkpt lat="43.265852" lon="-6.876795">
        <ele>251.1</ele>
        <time>2021-04-14T09:20:13.000Z</time>
      </trkpt>
      <trkpt lat="43.265913" lon="-6.876667">
        <ele>251.1</ele>
        <time>2021-04-14T09:20:15.000Z</time>
      </trkpt>
      <trkpt lat="43.265983" lon="-6.876553">
        <ele>250.5</ele>
        <time>2021-04-14T09:20:17.000Z</time>
      </trkpt>
      <trkpt lat="43.266058" lon="-6.876452">
        <ele>249.5</ele>
        <time>2021-04-14T09:20:19.000Z</time>
      </trkpt>
      <trkpt lat="43.266133" lon="-6.876372">
        <ele>247.7</ele>
        <time>2021-04-14T09:20:21.000Z</time>
      </trkpt>
      <trkpt lat="43.266218" lon="-6.876312">
        <ele>245.9</ele>
        <time>2021-04-14T09:20:23.000Z</time>
      </trkpt>
      <trkpt lat="43.266347" lon="-6.876267">
        <ele>244.6</ele>
        <time>2021-04-14T09:20:26.000Z</time>
      </trkpt>
      <trkpt lat="43.26644" lon="-6.876243">
        <ele>242.2</ele>
        <time>2021-04-14T09:20:28.000Z</time>
      </trkpt>
      <trkpt lat="43.266535" lon="-6.8762">
        <ele>241.8</ele>
        <time>2021-04-14T09:20:30.000Z</time>
      </trkpt>
      <trkpt lat="43.26666" lon="-6.876138">
        <ele>241.7</ele>
        <time>2021-04-14T09:20:32.000Z</time>
      </trkpt>
      <trkpt lat="43.266802" lon="-6.876135">
        <ele>240.6</ele>
        <time>2021-04-14T09:20:34.000Z</time>
      </trkpt>
      <trkpt lat="43.26693" lon="-6.876162">
        <ele>238.9</ele>
        <time>2021-04-14T09:20:36.000Z</time>
      </trkpt>
      <trkpt lat="43.267067" lon="-6.876195">
        <ele>238.6</ele>
        <time>2021-04-14T09:20:38.000Z</time>
      </trkpt>
      <trkpt lat="43.267193" lon="-6.87622">
        <ele>238.7</ele>
        <time>2021-04-14T09:20:40.000Z</time>
      </trkpt>
      <trkpt lat="43.267323" lon="-6.87624">
        <ele>238.6</ele>
        <time>2021-04-14T09:20:42.000Z</time>
      </trkpt>
      <trkpt lat="43.267442" lon="-6.876257">
        <ele>239.2</ele>
        <time>2021-04-14T09:20:44.000Z</time>
      </trkpt>
      <trkpt lat="43.26756" lon="-6.87628">
        <ele>240.6</ele>
        <time>2021-04-14T09:20:46.000Z</time>
      </trkpt>
      <trkpt lat="43.267678" lon="-6.876307">
        <ele>241.6</ele>
        <time>2021-04-14T09:20:48.000Z</time>
      </trkpt>
      <trkpt lat="43.267782" lon="-6.876337">
        <ele>242.5</ele>
        <time>2021-04-14T09:20:50.000Z</time>
      </trkpt>
      <trkpt lat="43.267877" lon="-6.876342">
        <ele>244.1</ele>
        <time>2021-04-14T09:20:52.000Z</time>
      </trkpt>
      <trkpt lat="43.267973" lon="-6.876288">
        <ele>245.9</ele>
        <time>2021-04-14T09:20:54.000Z</time>
      </trkpt>
      <trkpt lat="43.268037" lon="-6.876192">
        <ele>248.8</ele>
        <time>2021-04-14T09:20:56.000Z</time>
      </trkpt>
      <trkpt lat="43.268067" lon="-6.876038">
        <ele>252.6</ele>
        <time>2021-04-14T09:20:59.000Z</time>
      </trkpt>
      <trkpt lat="43.268033" lon="-6.875915">
        <ele>254.4</ele>
        <time>2021-04-14T09:21:01.000Z</time>
      </trkpt>
      <trkpt lat="43.267982" lon="-6.875788">
        <ele>255</ele>
        <time>2021-04-14T09:21:03.000Z</time>
      </trkpt>
      <trkpt lat="43.267928" lon="-6.875667">
        <ele>255.4</ele>
        <time>2021-04-14T09:21:05.000Z</time>
      </trkpt>
      <trkpt lat="43.267883" lon="-6.875542">
        <ele>255.3</ele>
        <time>2021-04-14T09:21:07.000Z</time>
      </trkpt>
      <trkpt lat="43.267855" lon="-6.875412">
        <ele>253.2</ele>
        <time>2021-04-14T09:21:09.000Z</time>
      </trkpt>
      <trkpt lat="43.267847" lon="-6.875273">
        <ele>250.7</ele>
        <time>2021-04-14T09:21:11.000Z</time>
      </trkpt>
      <trkpt lat="43.267878" lon="-6.875128">
        <ele>248</ele>
        <time>2021-04-14T09:21:13.000Z</time>
      </trkpt>
      <trkpt lat="43.267945" lon="-6.87499">
        <ele>246.8</ele>
        <time>2021-04-14T09:21:15.000Z</time>
      </trkpt>
      <trkpt lat="43.268018" lon="-6.874868">
        <ele>247.5</ele>
        <time>2021-04-14T09:21:17.000Z</time>
      </trkpt>
      <trkpt lat="43.268103" lon="-6.874753">
        <ele>248.8</ele>
        <time>2021-04-14T09:21:19.000Z</time>
      </trkpt>
      <trkpt lat="43.268192" lon="-6.874638">
        <ele>249.1</ele>
        <time>2021-04-14T09:21:21.000Z</time>
      </trkpt>
      <trkpt lat="43.268292" lon="-6.874512">
        <ele>249.4</ele>
        <time>2021-04-14T09:21:23.000Z</time>
      </trkpt>
      <trkpt lat="43.26839" lon="-6.874378">
        <ele>249.7</ele>
        <time>2021-04-14T09:21:25.000Z</time>
      </trkpt>
      <trkpt lat="43.26848" lon="-6.874245">
        <ele>252</ele>
        <time>2021-04-14T09:21:27.000Z</time>
      </trkpt>
      <trkpt lat="43.268553" lon="-6.874108">
        <ele>253.7</ele>
        <time>2021-04-14T09:21:29.000Z</time>
      </trkpt>
      <trkpt lat="43.268622" lon="-6.874007">
        <ele>254.5</ele>
        <time>2021-04-14T09:21:31.000Z</time>
      </trkpt>
      <trkpt lat="43.268705" lon="-6.8739">
        <ele>254.8</ele>
        <time>2021-04-14T09:21:33.000Z</time>
      </trkpt>
      <trkpt lat="43.268798" lon="-6.873785">
        <ele>254.7</ele>
        <time>2021-04-14T09:21:35.000Z</time>
      </trkpt>
      <trkpt lat="43.268882" lon="-6.873673">
        <ele>254.8</ele>
        <time>2021-04-14T09:21:37.000Z</time>
      </trkpt>
      <trkpt lat="43.268953" lon="-6.873552">
        <ele>255.1</ele>
        <time>2021-04-14T09:21:39.000Z</time>
      </trkpt>
      <trkpt lat="43.269033" lon="-6.873428">
        <ele>255.5</ele>
        <time>2021-04-14T09:21:41.000Z</time>
      </trkpt>
      <trkpt lat="43.269128" lon="-6.873322">
        <ele>256.4</ele>
        <time>2021-04-14T09:21:43.000Z</time>
      </trkpt>
      <trkpt lat="43.269232" lon="-6.87324">
        <ele>257.1</ele>
        <time>2021-04-14T09:21:45.000Z</time>
      </trkpt>
      <trkpt lat="43.26934" lon="-6.873203">
        <ele>258</ele>
        <time>2021-04-14T09:21:47.000Z</time>
      </trkpt>
      <trkpt lat="43.269433" lon="-6.873243">
        <ele>259.2</ele>
        <time>2021-04-14T09:21:49.000Z</time>
      </trkpt>
      <trkpt lat="43.269532" lon="-6.873317">
        <ele>261.2</ele>
        <time>2021-04-14T09:21:51.000Z</time>
      </trkpt>
      <trkpt lat="43.269632" lon="-6.873382">
        <ele>262.6</ele>
        <time>2021-04-14T09:21:53.000Z</time>
      </trkpt>
      <trkpt lat="43.26973" lon="-6.873457">
        <ele>263.6</ele>
        <time>2021-04-14T09:21:55.000Z</time>
      </trkpt>
      <trkpt lat="43.269832" lon="-6.873532">
        <ele>265.1</ele>
        <time>2021-04-14T09:21:57.000Z</time>
      </trkpt>
      <trkpt lat="43.269938" lon="-6.873605">
        <ele>266.4</ele>
        <time>2021-04-14T09:21:59.000Z</time>
      </trkpt>
      <trkpt lat="43.270038" lon="-6.873648">
        <ele>268.6</ele>
        <time>2021-04-14T09:22:01.000Z</time>
      </trkpt>
      <trkpt lat="43.270128" lon="-6.873652">
        <ele>270.7</ele>
        <time>2021-04-14T09:22:03.000Z</time>
      </trkpt>
      <trkpt lat="43.270203" lon="-6.873575">
        <ele>273.5</ele>
        <time>2021-04-14T09:22:05.000Z</time>
      </trkpt>
      <trkpt lat="43.270253" lon="-6.873453">
        <ele>275.8</ele>
        <time>2021-04-14T09:22:07.000Z</time>
      </trkpt>
      <trkpt lat="43.270307" lon="-6.873293">
        <ele>277.8</ele>
        <time>2021-04-14T09:22:09.000Z</time>
      </trkpt>
      <trkpt lat="43.270347" lon="-6.873115">
        <ele>278.8</ele>
        <time>2021-04-14T09:22:11.000Z</time>
      </trkpt>
      <trkpt lat="43.270373" lon="-6.872945">
        <ele>281.2</ele>
        <time>2021-04-14T09:22:13.000Z</time>
      </trkpt>
      <trkpt lat="43.27042" lon="-6.872785">
        <ele>282.9</ele>
        <time>2021-04-14T09:22:15.000Z</time>
      </trkpt>
      <trkpt lat="43.270468" lon="-6.872642">
        <ele>284.7</ele>
        <time>2021-04-14T09:22:17.000Z</time>
      </trkpt>
      <trkpt lat="43.270537" lon="-6.872523">
        <ele>285.9</ele>
        <time>2021-04-14T09:22:19.000Z</time>
      </trkpt>
      <trkpt lat="43.270602" lon="-6.872413">
        <ele>287.5</ele>
        <time>2021-04-14T09:22:21.000Z</time>
      </trkpt>
      <trkpt lat="43.27068" lon="-6.872307">
        <ele>290.5</ele>
        <time>2021-04-14T09:22:23.000Z</time>
      </trkpt>
      <trkpt lat="43.270757" lon="-6.872187">
        <ele>293</ele>
        <time>2021-04-14T09:22:25.000Z</time>
      </trkpt>
      <trkpt lat="43.270855" lon="-6.872045">
        <ele>296</ele>
        <time>2021-04-14T09:22:27.000Z</time>
      </trkpt>
      <trkpt lat="43.270967" lon="-6.871905">
        <ele>299.4</ele>
        <time>2021-04-14T09:22:29.000Z</time>
      </trkpt>
      <trkpt lat="43.271077" lon="-6.871773">
        <ele>301.9</ele>
        <time>2021-04-14T09:22:31.000Z</time>
      </trkpt>
      <trkpt lat="43.27119" lon="-6.871652">
        <ele>301.3</ele>
        <time>2021-04-14T09:22:33.000Z</time>
      </trkpt>
      <trkpt lat="43.27128" lon="-6.871555">
        <ele>302.3</ele>
        <time>2021-04-14T09:22:35.000Z</time>
      </trkpt>
      <trkpt lat="43.271357" lon="-6.87144">
        <ele>305.4</ele>
        <time>2021-04-14T09:22:37.000Z</time>
      </trkpt>
      <trkpt lat="43.271443" lon="-6.871315">
        <ele>308</ele>
        <time>2021-04-14T09:22:39.000Z</time>
      </trkpt>
      <trkpt lat="43.27153" lon="-6.871193">
        <ele>311.2</ele>
        <time>2021-04-14T09:22:41.000Z</time>
      </trkpt>
      <trkpt lat="43.271617" lon="-6.871075">
        <ele>314.1</ele>
        <time>2021-04-14T09:22:43.000Z</time>
      </trkpt>
      <trkpt lat="43.271692" lon="-6.870953">
        <ele>316.1</ele>
        <time>2021-04-14T09:22:45.000Z</time>
      </trkpt>
      <trkpt lat="43.271773" lon="-6.870852">
        <ele>316.9</ele>
        <time>2021-04-14T09:22:47.000Z</time>
      </trkpt>
      <trkpt lat="43.271853" lon="-6.87076">
        <ele>316.5</ele>
        <time>2021-04-14T09:22:49.000Z</time>
      </trkpt>
      <trkpt lat="43.271943" lon="-6.870658">
        <ele>317.3</ele>
        <time>2021-04-14T09:22:51.000Z</time>
      </trkpt>
      <trkpt lat="43.27203" lon="-6.870547">
        <ele>318.8</ele>
        <time>2021-04-14T09:22:53.000Z</time>
      </trkpt>
      <trkpt lat="43.272113" lon="-6.870438">
        <ele>320.7</ele>
        <time>2021-04-14T09:22:55.000Z</time>
      </trkpt>
      <trkpt lat="43.272202" lon="-6.870328">
        <ele>320.8</ele>
        <time>2021-04-14T09:22:57.000Z</time>
      </trkpt>
      <trkpt lat="43.272293" lon="-6.870228">
        <ele>319.4</ele>
        <time>2021-04-14T09:22:59.000Z</time>
      </trkpt>
      <trkpt lat="43.272382" lon="-6.870133">
        <ele>319.6</ele>
        <time>2021-04-14T09:23:01.000Z</time>
      </trkpt>
      <trkpt lat="43.272472" lon="-6.87005">
        <ele>319.2</ele>
        <time>2021-04-14T09:23:03.000Z</time>
      </trkpt>
      <trkpt lat="43.272562" lon="-6.869995">
        <ele>318.4</ele>
        <time>2021-04-14T09:23:05.000Z</time>
      </trkpt>
      <trkpt lat="43.272653" lon="-6.869983">
        <ele>317.9</ele>
        <time>2021-04-14T09:23:07.000Z</time>
      </trkpt>
      <trkpt lat="43.27275" lon="-6.869998">
        <ele>317.5</ele>
        <time>2021-04-14T09:23:09.000Z</time>
      </trkpt>
      <trkpt lat="43.272842" lon="-6.870005">
        <ele>315.7</ele>
        <time>2021-04-14T09:23:11.000Z</time>
      </trkpt>
      <trkpt lat="43.272978" lon="-6.869995">
        <ele>313.1</ele>
        <time>2021-04-14T09:23:14.000Z</time>
      </trkpt>
      <trkpt lat="43.273095" lon="-6.869937">
        <ele>311.5</ele>
        <time>2021-04-14T09:23:16.000Z</time>
      </trkpt>
      <trkpt lat="43.273228" lon="-6.869857">
        <ele>310.8</ele>
        <time>2021-04-14T09:23:18.000Z</time>
      </trkpt>
      <trkpt lat="43.273373" lon="-6.869772">
        <ele>310.6</ele>
        <time>2021-04-14T09:23:20.000Z</time>
      </trkpt>
      <trkpt lat="43.273507" lon="-6.869702">
        <ele>309.8</ele>
        <time>2021-04-14T09:23:22.000Z</time>
      </trkpt>
      <trkpt lat="43.273623" lon="-6.869643">
        <ele>309.5</ele>
        <time>2021-04-14T09:23:24.000Z</time>
      </trkpt>
      <trkpt lat="43.273723" lon="-6.869598">
        <ele>308.4</ele>
        <time>2021-04-14T09:23:26.000Z</time>
      </trkpt>
      <trkpt lat="43.27384" lon="-6.86961">
        <ele>307.5</ele>
        <time>2021-04-14T09:23:29.000Z</time>
      </trkpt>
      <trkpt lat="43.273917" lon="-6.86969">
        <ele>307.6</ele>
        <time>2021-04-14T09:23:31.000Z</time>
      </trkpt>
      <trkpt lat="43.274002" lon="-6.86978">
        <ele>308.1</ele>
        <time>2021-04-14T09:23:33.000Z</time>
      </trkpt>
      <trkpt lat="43.274093" lon="-6.869842">
        <ele>308.7</ele>
        <time>2021-04-14T09:23:35.000Z</time>
      </trkpt>
      <trkpt lat="43.274207" lon="-6.869895">
        <ele>308.8</ele>
        <time>2021-04-14T09:23:38.000Z</time>
      </trkpt>
      <trkpt lat="43.274302" lon="-6.869877">
        <ele>307.4</ele>
        <time>2021-04-14T09:23:42.000Z</time>
      </trkpt>
      <trkpt lat="43.274393" lon="-6.869805">
        <ele>309.1</ele>
        <time>2021-04-14T09:23:45.000Z</time>
      </trkpt>
      <trkpt lat="43.274465" lon="-6.869708">
        <ele>311.3</ele>
        <time>2021-04-14T09:23:47.000Z</time>
      </trkpt>
      <trkpt lat="43.274555" lon="-6.869602">
        <ele>314.7</ele>
        <time>2021-04-14T09:23:49.000Z</time>
      </trkpt>
      <trkpt lat="43.274652" lon="-6.869502">
        <ele>317.4</ele>
        <time>2021-04-14T09:23:51.000Z</time>
      </trkpt>
      <trkpt lat="43.274758" lon="-6.869405">
        <ele>320.3</ele>
        <time>2021-04-14T09:23:53.000Z</time>
      </trkpt>
      <trkpt lat="43.274863" lon="-6.869308">
        <ele>322.6</ele>
        <time>2021-04-14T09:23:55.000Z</time>
      </trkpt>
      <trkpt lat="43.274968" lon="-6.869228">
        <ele>324.9</ele>
        <time>2021-04-14T09:23:57.000Z</time>
      </trkpt>
      <trkpt lat="43.275077" lon="-6.869167">
        <ele>325.2</ele>
        <time>2021-04-14T09:23:59.000Z</time>
      </trkpt>
      <trkpt lat="43.275173" lon="-6.869108">
        <ele>324.5</ele>
        <time>2021-04-14T09:24:01.000Z</time>
      </trkpt>
      <trkpt lat="43.275257" lon="-6.869043">
        <ele>325.4</ele>
        <time>2021-04-14T09:24:03.000Z</time>
      </trkpt>
      <trkpt lat="43.27536" lon="-6.868953">
        <ele>327.9</ele>
        <time>2021-04-14T09:24:06.000Z</time>
      </trkpt>
      <trkpt lat="43.27544" lon="-6.868857">
        <ele>330</ele>
        <time>2021-04-14T09:24:09.000Z</time>
      </trkpt>
      <trkpt lat="43.275518" lon="-6.868765">
        <ele>330.8</ele>
        <time>2021-04-14T09:24:12.000Z</time>
      </trkpt>
      <trkpt lat="43.275628" lon="-6.868643">
        <ele>331.5</ele>
        <time>2021-04-14T09:24:15.000Z</time>
      </trkpt>
      <trkpt lat="43.275723" lon="-6.868577">
        <ele>332.1</ele>
        <time>2021-04-14T09:24:17.000Z</time>
      </trkpt>
      <trkpt lat="43.275823" lon="-6.868525">
        <ele>332.2</ele>
        <time>2021-04-14T09:24:19.000Z</time>
      </trkpt>
      <trkpt lat="43.275923" lon="-6.868483">
        <ele>332.3</ele>
        <time>2021-04-14T09:24:21.000Z</time>
      </trkpt>
      <trkpt lat="43.276013" lon="-6.868445">
        <ele>332.3</ele>
        <time>2021-04-14T09:24:23.000Z</time>
      </trkpt>
      <trkpt lat="43.276115" lon="-6.868385">
        <ele>333</ele>
        <time>2021-04-14T09:24:26.000Z</time>
      </trkpt>
      <trkpt lat="43.276213" lon="-6.868375">
        <ele>333.9</ele>
        <time>2021-04-14T09:25:05.000Z</time>
      </trkpt>
      <trkpt lat="43.276307" lon="-6.868397">
        <ele>334.3</ele>
        <time>2021-04-14T09:25:08.000Z</time>
      </trkpt>
      <trkpt lat="43.276415" lon="-6.868448">
        <ele>335.5</ele>
        <time>2021-04-14T09:25:11.000Z</time>
      </trkpt>
      <trkpt lat="43.276525" lon="-6.868523">
        <ele>336.2</ele>
        <time>2021-04-14T09:25:14.000Z</time>
      </trkpt>
      <trkpt lat="43.276637" lon="-6.868617">
        <ele>336.1</ele>
        <time>2021-04-14T09:25:17.000Z</time>
      </trkpt>
      <trkpt lat="43.27673" lon="-6.868713">
        <ele>337</ele>
        <time>2021-04-14T09:25:20.000Z</time>
      </trkpt>
      <trkpt lat="43.276823" lon="-6.86884">
        <ele>337</ele>
        <time>2021-04-14T09:25:23.000Z</time>
      </trkpt>
      <trkpt lat="43.276888" lon="-6.86894">
        <ele>338.1</ele>
        <time>2021-04-14T09:25:26.000Z</time>
      </trkpt>
      <trkpt lat="43.276972" lon="-6.869035">
        <ele>339.6</ele>
        <time>2021-04-14T09:25:30.000Z</time>
      </trkpt>
      <trkpt lat="43.27707" lon="-6.869042">
        <ele>341.5</ele>
        <time>2021-04-14T09:25:33.000Z</time>
      </trkpt>
      <trkpt lat="43.277143" lon="-6.868958">
        <ele>344.8</ele>
        <time>2021-04-14T09:25:36.000Z</time>
      </trkpt>
      <trkpt lat="43.277225" lon="-6.86883">
        <ele>348.1</ele>
        <time>2021-04-14T09:25:40.000Z</time>
      </trkpt>
      <trkpt lat="43.27734" lon="-6.868777">
        <ele>349.7</ele>
        <time>2021-04-14T09:25:43.000Z</time>
      </trkpt>
      <trkpt lat="43.277447" lon="-6.86873">
        <ele>350</ele>
        <time>2021-04-14T09:25:47.000Z</time>
      </trkpt>
      <trkpt lat="43.277538" lon="-6.868718">
        <ele>354</ele>
        <time>2021-04-14T09:25:51.000Z</time>
      </trkpt>
      <trkpt lat="43.277623" lon="-6.868762">
        <ele>359</ele>
        <time>2021-04-14T09:25:54.000Z</time>
      </trkpt>
      <trkpt lat="43.277697" lon="-6.868847">
        <ele>362.6</ele>
        <time>2021-04-14T09:25:57.000Z</time>
      </trkpt>
      <trkpt lat="43.277777" lon="-6.868932">
        <ele>364.8</ele>
        <time>2021-04-14T09:26:00.000Z</time>
      </trkpt>
      <trkpt lat="43.277877" lon="-6.869018">
        <ele>366.4</ele>
        <time>2021-04-14T09:26:03.000Z</time>
      </trkpt>
      <trkpt lat="43.277977" lon="-6.868985">
        <ele>369.3</ele>
        <time>2021-04-14T09:26:06.000Z</time>
      </trkpt>
      <trkpt lat="43.27806" lon="-6.868882">
        <ele>372.6</ele>
        <time>2021-04-14T09:26:09.000Z</time>
      </trkpt>
      <trkpt lat="43.278122" lon="-6.86877">
        <ele>374.5</ele>
        <time>2021-04-14T09:26:11.000Z</time>
      </trkpt>
      <trkpt lat="43.278173" lon="-6.86865">
        <ele>376.2</ele>
        <time>2021-04-14T09:26:13.000Z</time>
      </trkpt>
      <trkpt lat="43.27823" lon="-6.868543">
        <ele>377.5</ele>
        <time>2021-04-14T09:26:15.000Z</time>
      </trkpt>
      <trkpt lat="43.278293" lon="-6.868443">
        <ele>376.4</ele>
        <time>2021-04-14T09:26:17.000Z</time>
      </trkpt>
      <trkpt lat="43.278338" lon="-6.868332">
        <ele>374.2</ele>
        <time>2021-04-14T09:26:19.000Z</time>
      </trkpt>
      <trkpt lat="43.278423" lon="-6.86819">
        <ele>369.9</ele>
        <time>2021-04-14T09:26:22.000Z</time>
      </trkpt>
      <trkpt lat="43.278512" lon="-6.868045">
        <ele>368.4</ele>
        <time>2021-04-14T09:26:25.000Z</time>
      </trkpt>
      <trkpt lat="43.278558" lon="-6.867927">
        <ele>369.8</ele>
        <time>2021-04-14T09:26:27.000Z</time>
      </trkpt>
      <trkpt lat="43.278618" lon="-6.867817">
        <ele>371.1</ele>
        <time>2021-04-14T09:26:29.000Z</time>
      </trkpt>
      <trkpt lat="43.278672" lon="-6.867717">
        <ele>372.6</ele>
        <time>2021-04-14T09:26:31.000Z</time>
      </trkpt>
      <trkpt lat="43.27873" lon="-6.867618">
        <ele>373.6</ele>
        <time>2021-04-14T09:26:33.000Z</time>
      </trkpt>
      <trkpt lat="43.278822" lon="-6.867492">
        <ele>375.2</ele>
        <time>2021-04-14T09:26:36.000Z</time>
      </trkpt>
      <trkpt lat="43.27892" lon="-6.867383">
        <ele>374.5</ele>
        <time>2021-04-14T09:26:39.000Z</time>
      </trkpt>
      <trkpt lat="43.279018" lon="-6.867292">
        <ele>374.4</ele>
        <time>2021-04-14T09:26:42.000Z</time>
      </trkpt>
      <trkpt lat="43.279095" lon="-6.867213">
        <ele>375.8</ele>
        <time>2021-04-14T09:26:45.000Z</time>
      </trkpt>
      <trkpt lat="43.2792" lon="-6.86714">
        <ele>377.6</ele>
        <time>2021-04-14T09:26:49.000Z</time>
      </trkpt>
      <trkpt lat="43.279303" lon="-6.867215">
        <ele>380</ele>
        <time>2021-04-14T09:26:53.000Z</time>
      </trkpt>
      <trkpt lat="43.279328" lon="-6.867335">
        <ele>379.7</ele>
        <time>2021-04-14T09:26:56.000Z</time>
      </trkpt>
      <trkpt lat="43.27933" lon="-6.86749">
        <ele>381.8</ele>
        <time>2021-04-14T09:26:59.000Z</time>
      </trkpt>
      <trkpt lat="43.279318" lon="-6.867652">
        <ele>384.6</ele>
        <time>2021-04-14T09:27:02.000Z</time>
      </trkpt>
      <trkpt lat="43.279297" lon="-6.867803">
        <ele>386.7</ele>
        <time>2021-04-14T09:27:05.000Z</time>
      </trkpt>
      <trkpt lat="43.279308" lon="-6.867952">
        <ele>387.9</ele>
        <time>2021-04-14T09:27:08.000Z</time>
      </trkpt>
      <trkpt lat="43.279403" lon="-6.867985">
        <ele>388.6</ele>
        <time>2021-04-14T09:27:11.000Z</time>
      </trkpt>
      <trkpt lat="43.27951" lon="-6.867907">
        <ele>390.6</ele>
        <time>2021-04-14T09:27:14.000Z</time>
      </trkpt>
      <trkpt lat="43.279617" lon="-6.867832">
        <ele>394.1</ele>
        <time>2021-04-14T09:27:17.000Z</time>
      </trkpt>
      <trkpt lat="43.279718" lon="-6.867777">
        <ele>397.3</ele>
        <time>2021-04-14T09:27:20.000Z</time>
      </trkpt>
      <trkpt lat="43.279825" lon="-6.867737">
        <ele>400.8</ele>
        <time>2021-04-14T09:27:23.000Z</time>
      </trkpt>
      <trkpt lat="43.27993" lon="-6.867707">
        <ele>402.4</ele>
        <time>2021-04-14T09:27:26.000Z</time>
      </trkpt>
      <trkpt lat="43.280035" lon="-6.867687">
        <ele>403.5</ele>
        <time>2021-04-14T09:27:29.000Z</time>
      </trkpt>
      <trkpt lat="43.28015" lon="-6.867667">
        <ele>405.1</ele>
        <time>2021-04-14T09:27:32.000Z</time>
      </trkpt>
      <trkpt lat="43.280263" lon="-6.867647">
        <ele>406.7</ele>
        <time>2021-04-14T09:27:35.000Z</time>
      </trkpt>
      <trkpt lat="43.280368" lon="-6.867615">
        <ele>407.4</ele>
        <time>2021-04-14T09:27:38.000Z</time>
      </trkpt>
      <trkpt lat="43.280493" lon="-6.867595">
        <ele>409.2</ele>
        <time>2021-04-14T09:27:41.000Z</time>
      </trkpt>
      <trkpt lat="43.280613" lon="-6.86763">
        <ele>412.3</ele>
        <time>2021-04-14T09:27:44.000Z</time>
      </trkpt>
      <trkpt lat="43.280708" lon="-6.867765">
        <ele>414.1</ele>
        <time>2021-04-14T09:27:47.000Z</time>
      </trkpt>
      <trkpt lat="43.280748" lon="-6.867878">
        <ele>415.4</ele>
        <time>2021-04-14T09:27:49.000Z</time>
      </trkpt>
      <trkpt lat="43.280808" lon="-6.868055">
        <ele>416</ele>
        <time>2021-04-14T09:27:52.000Z</time>
      </trkpt>
      <trkpt lat="43.28086" lon="-6.868165">
        <ele>415.5</ele>
        <time>2021-04-14T09:27:54.000Z</time>
      </trkpt>
      <trkpt lat="43.280932" lon="-6.868252">
        <ele>415.3</ele>
        <time>2021-04-14T09:27:56.000Z</time>
      </trkpt>
      <trkpt lat="43.281043" lon="-6.868305">
        <ele>415</ele>
        <time>2021-04-14T09:27:59.000Z</time>
      </trkpt>
      <trkpt lat="43.281127" lon="-6.868248">
        <ele>415.1</ele>
        <time>2021-04-14T09:28:02.000Z</time>
      </trkpt>
      <trkpt lat="43.281152" lon="-6.868087">
        <ele>416.3</ele>
        <time>2021-04-14T09:28:05.000Z</time>
      </trkpt>
      <trkpt lat="43.281162" lon="-6.867948">
        <ele>419.5</ele>
        <time>2021-04-14T09:28:07.000Z</time>
      </trkpt>
      <trkpt lat="43.281203" lon="-6.867745">
        <ele>422.3</ele>
        <time>2021-04-14T09:28:10.000Z</time>
      </trkpt>
      <trkpt lat="43.281237" lon="-6.867615">
        <ele>423.3</ele>
        <time>2021-04-14T09:28:12.000Z</time>
      </trkpt>
      <trkpt lat="43.281265" lon="-6.867485">
        <ele>423.7</ele>
        <time>2021-04-14T09:28:14.000Z</time>
      </trkpt>
      <trkpt lat="43.281308" lon="-6.867348">
        <ele>423.1</ele>
        <time>2021-04-14T09:28:16.000Z</time>
      </trkpt>
      <trkpt lat="43.281367" lon="-6.867212">
        <ele>421.6</ele>
        <time>2021-04-14T09:28:18.000Z</time>
      </trkpt>
      <trkpt lat="43.281437" lon="-6.867093">
        <ele>421.9</ele>
        <time>2021-04-14T09:28:20.000Z</time>
      </trkpt>
      <trkpt lat="43.281525" lon="-6.867">
        <ele>422.1</ele>
        <time>2021-04-14T09:28:22.000Z</time>
      </trkpt>
      <trkpt lat="43.281627" lon="-6.866937">
        <ele>422.1</ele>
        <time>2021-04-14T09:28:24.000Z</time>
      </trkpt>
      <trkpt lat="43.281718" lon="-6.866903">
        <ele>422.6</ele>
        <time>2021-04-14T09:28:26.000Z</time>
      </trkpt>
      <trkpt lat="43.281812" lon="-6.866908">
        <ele>423.1</ele>
        <time>2021-04-14T09:28:28.000Z</time>
      </trkpt>
      <trkpt lat="43.281908" lon="-6.866938">
        <ele>423.5</ele>
        <time>2021-04-14T09:28:30.000Z</time>
      </trkpt>
      <trkpt lat="43.282005" lon="-6.866952">
        <ele>423.8</ele>
        <time>2021-04-14T09:28:32.000Z</time>
      </trkpt>
      <trkpt lat="43.282087" lon="-6.866895">
        <ele>423.9</ele>
        <time>2021-04-14T09:28:34.000Z</time>
      </trkpt>
      <trkpt lat="43.282127" lon="-6.866767">
        <ele>425.1</ele>
        <time>2021-04-14T09:28:36.000Z</time>
      </trkpt>
      <trkpt lat="43.282147" lon="-6.866602">
        <ele>426</ele>
        <time>2021-04-14T09:28:38.000Z</time>
      </trkpt>
      <trkpt lat="43.282157" lon="-6.866425">
        <ele>429.1</ele>
        <time>2021-04-14T09:28:40.000Z</time>
      </trkpt>
      <trkpt lat="43.282178" lon="-6.866258">
        <ele>430.3</ele>
        <time>2021-04-14T09:28:42.000Z</time>
      </trkpt>
      <trkpt lat="43.282193" lon="-6.866102">
        <ele>431.5</ele>
        <time>2021-04-14T09:28:44.000Z</time>
      </trkpt>
      <trkpt lat="43.282205" lon="-6.865965">
        <ele>433.9</ele>
        <time>2021-04-14T09:28:46.000Z</time>
      </trkpt>
      <trkpt lat="43.282222" lon="-6.865822">
        <ele>436.6</ele>
        <time>2021-04-14T09:28:48.000Z</time>
      </trkpt>
      <trkpt lat="43.282252" lon="-6.865675">
        <ele>438.6</ele>
        <time>2021-04-14T09:28:50.000Z</time>
      </trkpt>
      <trkpt lat="43.282288" lon="-6.865525">
        <ele>441</ele>
        <time>2021-04-14T09:28:52.000Z</time>
      </trkpt>
      <trkpt lat="43.282333" lon="-6.865378">
        <ele>442.6</ele>
        <time>2021-04-14T09:28:54.000Z</time>
      </trkpt>
      <trkpt lat="43.28238" lon="-6.86524">
        <ele>443.9</ele>
        <time>2021-04-14T09:28:56.000Z</time>
      </trkpt>
      <trkpt lat="43.28243" lon="-6.865113">
        <ele>445.2</ele>
        <time>2021-04-14T09:28:58.000Z</time>
      </trkpt>
      <trkpt lat="43.282487" lon="-6.86499">
        <ele>445.7</ele>
        <time>2021-04-14T09:29:00.000Z</time>
      </trkpt>
      <trkpt lat="43.282543" lon="-6.86488">
        <ele>446</ele>
        <time>2021-04-14T09:29:02.000Z</time>
      </trkpt>
      <trkpt lat="43.282615" lon="-6.864792">
        <ele>446.1</ele>
        <time>2021-04-14T09:29:04.000Z</time>
      </trkpt>
      <trkpt lat="43.282705" lon="-6.864732">
        <ele>446.4</ele>
        <time>2021-04-14T09:29:06.000Z</time>
      </trkpt>
      <trkpt lat="43.282803" lon="-6.864718">
        <ele>447.1</ele>
        <time>2021-04-14T09:29:08.000Z</time>
      </trkpt>
      <trkpt lat="43.282907" lon="-6.864748">
        <ele>447.6</ele>
        <time>2021-04-14T09:29:10.000Z</time>
      </trkpt>
      <trkpt lat="43.283007" lon="-6.864757">
        <ele>447.5</ele>
        <time>2021-04-14T09:29:12.000Z</time>
      </trkpt>
      <trkpt lat="43.283085" lon="-6.864685">
        <ele>448.3</ele>
        <time>2021-04-14T09:29:14.000Z</time>
      </trkpt>
      <trkpt lat="43.28312" lon="-6.864552">
        <ele>448.3</ele>
        <time>2021-04-14T09:29:16.000Z</time>
      </trkpt>
      <trkpt lat="43.283145" lon="-6.864402">
        <ele>449.4</ele>
        <time>2021-04-14T09:29:18.000Z</time>
      </trkpt>
      <trkpt lat="43.283187" lon="-6.86426">
        <ele>450.5</ele>
        <time>2021-04-14T09:29:20.000Z</time>
      </trkpt>
      <trkpt lat="43.283235" lon="-6.86413">
        <ele>451.5</ele>
        <time>2021-04-14T09:29:22.000Z</time>
      </trkpt>
      <trkpt lat="43.283298" lon="-6.86402">
        <ele>452.6</ele>
        <time>2021-04-14T09:29:24.000Z</time>
      </trkpt>
      <trkpt lat="43.283375" lon="-6.863937">
        <ele>453.7</ele>
        <time>2021-04-14T09:29:26.000Z</time>
      </trkpt>
      <trkpt lat="43.283463" lon="-6.86386">
        <ele>453.5</ele>
        <time>2021-04-14T09:29:28.000Z</time>
      </trkpt>
      <trkpt lat="43.283562" lon="-6.863785">
        <ele>453.9</ele>
        <time>2021-04-14T09:29:30.000Z</time>
      </trkpt>
      <trkpt lat="43.283687" lon="-6.863597">
        <ele>455.5</ele>
        <time>2021-04-14T09:29:34.000Z</time>
      </trkpt>
      <trkpt lat="43.28371" lon="-6.863463">
        <ele>456.5</ele>
        <time>2021-04-14T09:29:36.000Z</time>
      </trkpt>
      <trkpt lat="43.283722" lon="-6.863325">
        <ele>456.8</ele>
        <time>2021-04-14T09:29:38.000Z</time>
      </trkpt>
      <trkpt lat="43.283728" lon="-6.863183">
        <ele>457.1</ele>
        <time>2021-04-14T09:29:40.000Z</time>
      </trkpt>
      <trkpt lat="43.283748" lon="-6.86305">
        <ele>457.1</ele>
        <time>2021-04-14T09:29:42.000Z</time>
      </trkpt>
      <trkpt lat="43.283765" lon="-6.862922">
        <ele>457.4</ele>
        <time>2021-04-14T09:29:44.000Z</time>
      </trkpt>
      <trkpt lat="43.28379" lon="-6.86279">
        <ele>456.5</ele>
        <time>2021-04-14T09:29:46.000Z</time>
      </trkpt>
      <trkpt lat="43.28382" lon="-6.862663">
        <ele>457</ele>
        <time>2021-04-14T09:29:48.000Z</time>
      </trkpt>
      <trkpt lat="43.283855" lon="-6.862518">
        <ele>456.6</ele>
        <time>2021-04-14T09:29:50.000Z</time>
      </trkpt>
      <trkpt lat="43.283922" lon="-6.862367">
        <ele>456</ele>
        <time>2021-04-14T09:29:52.000Z</time>
      </trkpt>
      <trkpt lat="43.283985" lon="-6.86222">
        <ele>456.4</ele>
        <time>2021-04-14T09:29:54.000Z</time>
      </trkpt>
      <trkpt lat="43.284057" lon="-6.862068">
        <ele>456.2</ele>
        <time>2021-04-14T09:29:56.000Z</time>
      </trkpt>
      <trkpt lat="43.284113" lon="-6.861903">
        <ele>456.5</ele>
        <time>2021-04-14T09:29:58.000Z</time>
      </trkpt>
      <trkpt lat="43.284158" lon="-6.86173">
        <ele>457.1</ele>
        <time>2021-04-14T09:30:00.000Z</time>
      </trkpt>
      <trkpt lat="43.284197" lon="-6.861563">
        <ele>458.2</ele>
        <time>2021-04-14T09:30:02.000Z</time>
      </trkpt>
      <trkpt lat="43.284228" lon="-6.861397">
        <ele>459.7</ele>
        <time>2021-04-14T09:30:04.000Z</time>
      </trkpt>
      <trkpt lat="43.284262" lon="-6.86122">
        <ele>461.8</ele>
        <time>2021-04-14T09:30:06.000Z</time>
      </trkpt>
      <trkpt lat="43.284307" lon="-6.861053">
        <ele>463.1</ele>
        <time>2021-04-14T09:30:08.000Z</time>
      </trkpt>
      <trkpt lat="43.28436" lon="-6.860873">
        <ele>463.8</ele>
        <time>2021-04-14T09:30:10.000Z</time>
      </trkpt>
      <trkpt lat="43.284425" lon="-6.860678">
        <ele>464.6</ele>
        <time>2021-04-14T09:30:12.000Z</time>
      </trkpt>
      <trkpt lat="43.284507" lon="-6.860498">
        <ele>464.8</ele>
        <time>2021-04-14T09:30:14.000Z</time>
      </trkpt>
      <trkpt lat="43.284583" lon="-6.860362">
        <ele>465.2</ele>
        <time>2021-04-14T09:30:16.000Z</time>
      </trkpt>
      <trkpt lat="43.284658" lon="-6.860235">
        <ele>465.9</ele>
        <time>2021-04-14T09:30:18.000Z</time>
      </trkpt>
      <trkpt lat="43.284785" lon="-6.86015">
        <ele>466.7</ele>
        <time>2021-04-14T09:30:22.000Z</time>
      </trkpt>
      <trkpt lat="43.284843" lon="-6.860268">
        <ele>468</ele>
        <time>2021-04-14T09:30:26.000Z</time>
      </trkpt>
      <trkpt lat="43.284865" lon="-6.860395">
        <ele>468.5</ele>
        <time>2021-04-14T09:30:29.000Z</time>
      </trkpt>
      <trkpt lat="43.284888" lon="-6.860562">
        <ele>469.1</ele>
        <time>2021-04-14T09:30:34.000Z</time>
      </trkpt>
      <trkpt lat="43.284917" lon="-6.860728">
        <ele>471.7</ele>
        <time>2021-04-14T09:30:38.000Z</time>
      </trkpt>
      <trkpt lat="43.284925" lon="-6.860893">
        <ele>474.9</ele>
        <time>2021-04-14T09:30:41.000Z</time>
      </trkpt>
      <trkpt lat="43.284923" lon="-6.861048">
        <ele>477.9</ele>
        <time>2021-04-14T09:30:44.000Z</time>
      </trkpt>
      <trkpt lat="43.284923" lon="-6.861193">
        <ele>478.7</ele>
        <time>2021-04-14T09:30:48.000Z</time>
      </trkpt>
      <trkpt lat="43.28494" lon="-6.86133">
        <ele>480</ele>
        <time>2021-04-14T09:30:54.000Z</time>
      </trkpt>
      <trkpt lat="43.284975" lon="-6.861498">
        <ele>484.3</ele>
        <time>2021-04-14T09:30:58.000Z</time>
      </trkpt>
      <trkpt lat="43.285003" lon="-6.86162">
        <ele>486.7</ele>
        <time>2021-04-14T09:31:01.000Z</time>
      </trkpt>
      <trkpt lat="43.285027" lon="-6.861772">
        <ele>489.2</ele>
        <time>2021-04-14T09:31:05.000Z</time>
      </trkpt>
      <trkpt lat="43.285048" lon="-6.861907">
        <ele>491.7</ele>
        <time>2021-04-14T09:31:14.000Z</time>
      </trkpt>
      <trkpt lat="43.285087" lon="-6.862045">
        <ele>493.1</ele>
        <time>2021-04-14T09:31:18.000Z</time>
      </trkpt>
      <trkpt lat="43.285118" lon="-6.86217">
        <ele>494.8</ele>
        <time>2021-04-14T09:31:21.000Z</time>
      </trkpt>
      <trkpt lat="43.285158" lon="-6.862307">
        <ele>495.5</ele>
        <time>2021-04-14T09:31:24.000Z</time>
      </trkpt>
      <trkpt lat="43.28522" lon="-6.862478">
        <ele>495.7</ele>
        <time>2021-04-14T09:31:28.000Z</time>
      </trkpt>
      <trkpt lat="43.285273" lon="-6.862613">
        <ele>495.9</ele>
        <time>2021-04-14T09:31:31.000Z</time>
      </trkpt>
      <trkpt lat="43.285322" lon="-6.86272">
        <ele>495.9</ele>
        <time>2021-04-14T09:31:34.000Z</time>
      </trkpt>
      <trkpt lat="43.285367" lon="-6.862837">
        <ele>498.9</ele>
        <time>2021-04-14T09:31:37.000Z</time>
      </trkpt>
      <trkpt lat="43.285425" lon="-6.862985">
        <ele>499.8</ele>
        <time>2021-04-14T09:31:40.000Z</time>
      </trkpt>
      <trkpt lat="43.285478" lon="-6.863148">
        <ele>499.4</ele>
        <time>2021-04-14T09:31:43.000Z</time>
      </trkpt>
      <trkpt lat="43.285528" lon="-6.863305">
        <ele>501.5</ele>
        <time>2021-04-14T09:31:46.000Z</time>
      </trkpt>
      <trkpt lat="43.285585" lon="-6.863465">
        <ele>503.7</ele>
        <time>2021-04-14T09:31:49.000Z</time>
      </trkpt>
      <trkpt lat="43.285645" lon="-6.863633">
        <ele>505.2</ele>
        <time>2021-04-14T09:31:52.000Z</time>
      </trkpt>
      <trkpt lat="43.285687" lon="-6.86375">
        <ele>506.6</ele>
        <time>2021-04-14T09:31:54.000Z</time>
      </trkpt>
      <trkpt lat="43.285727" lon="-6.863863">
        <ele>508.6</ele>
        <time>2021-04-14T09:31:56.000Z</time>
      </trkpt>
      <trkpt lat="43.285777" lon="-6.86402">
        <ele>511.2</ele>
        <time>2021-04-14T09:31:59.000Z</time>
      </trkpt>
      <trkpt lat="43.285822" lon="-6.864182">
        <ele>514.1</ele>
        <time>2021-04-14T09:32:02.000Z</time>
      </trkpt>
      <trkpt lat="43.285855" lon="-6.8643">
        <ele>515.1</ele>
        <time>2021-04-14T09:32:04.000Z</time>
      </trkpt>
      <trkpt lat="43.285885" lon="-6.864422">
        <ele>515.6</ele>
        <time>2021-04-14T09:32:06.000Z</time>
      </trkpt>
      <trkpt lat="43.285917" lon="-6.86454">
        <ele>516.2</ele>
        <time>2021-04-14T09:32:08.000Z</time>
      </trkpt>
      <trkpt lat="43.285948" lon="-6.864658">
        <ele>516.9</ele>
        <time>2021-04-14T09:32:10.000Z</time>
      </trkpt>
      <trkpt lat="43.285973" lon="-6.864788">
        <ele>518.5</ele>
        <time>2021-04-14T09:32:13.000Z</time>
      </trkpt>
      <trkpt lat="43.285992" lon="-6.86494">
        <ele>519.5</ele>
        <time>2021-04-14T09:32:18.000Z</time>
      </trkpt>
      <trkpt lat="43.285963" lon="-6.865133">
        <ele>518.3</ele>
        <time>2021-04-14T09:32:21.000Z</time>
      </trkpt>
      <trkpt lat="43.285948" lon="-6.865283">
        <ele>517.8</ele>
        <time>2021-04-14T09:32:23.000Z</time>
      </trkpt>
      <trkpt lat="43.285935" lon="-6.86542">
        <ele>517.9</ele>
        <time>2021-04-14T09:32:25.000Z</time>
      </trkpt>
      <trkpt lat="43.285915" lon="-6.865545">
        <ele>518.8</ele>
        <time>2021-04-14T09:32:27.000Z</time>
      </trkpt>
      <trkpt lat="43.28589" lon="-6.865712">
        <ele>520.9</ele>
        <time>2021-04-14T09:32:30.000Z</time>
      </trkpt>
      <trkpt lat="43.285863" lon="-6.865865">
        <ele>523.2</ele>
        <time>2021-04-14T09:32:33.000Z</time>
      </trkpt>
      <trkpt lat="43.285847" lon="-6.866043">
        <ele>526.1</ele>
        <time>2021-04-14T09:32:36.000Z</time>
      </trkpt>
      <trkpt lat="43.28583" lon="-6.86617">
        <ele>527.9</ele>
        <time>2021-04-14T09:32:38.000Z</time>
      </trkpt>
      <trkpt lat="43.285807" lon="-6.8663">
        <ele>529.8</ele>
        <time>2021-04-14T09:32:40.000Z</time>
      </trkpt>
      <trkpt lat="43.285788" lon="-6.866435">
        <ele>530.9</ele>
        <time>2021-04-14T09:32:42.000Z</time>
      </trkpt>
      <trkpt lat="43.285765" lon="-6.866563">
        <ele>532.4</ele>
        <time>2021-04-14T09:32:44.000Z</time>
      </trkpt>
      <trkpt lat="43.285738" lon="-6.866682">
        <ele>533.5</ele>
        <time>2021-04-14T09:32:46.000Z</time>
      </trkpt>
      <trkpt lat="43.285705" lon="-6.866835">
        <ele>535.2</ele>
        <time>2021-04-14T09:32:49.000Z</time>
      </trkpt>
      <trkpt lat="43.285672" lon="-6.866977">
        <ele>537.2</ele>
        <time>2021-04-14T09:32:54.000Z</time>
      </trkpt>
      <trkpt lat="43.285643" lon="-6.867112">
        <ele>537.8</ele>
        <time>2021-04-14T09:32:57.000Z</time>
      </trkpt>
      <trkpt lat="43.285607" lon="-6.867273">
        <ele>538.9</ele>
        <time>2021-04-14T09:33:00.000Z</time>
      </trkpt>
      <trkpt lat="43.285568" lon="-6.867442">
        <ele>539</ele>
        <time>2021-04-14T09:33:03.000Z</time>
      </trkpt>
      <trkpt lat="43.285535" lon="-6.867558">
        <ele>540</ele>
        <time>2021-04-14T09:33:05.000Z</time>
      </trkpt>
      <trkpt lat="43.285498" lon="-6.867672">
        <ele>540.9</ele>
        <time>2021-04-14T09:33:07.000Z</time>
      </trkpt>
      <trkpt lat="43.285463" lon="-6.867787">
        <ele>542.5</ele>
        <time>2021-04-14T09:33:09.000Z</time>
      </trkpt>
      <trkpt lat="43.285413" lon="-6.867948">
        <ele>544.3</ele>
        <time>2021-04-14T09:33:12.000Z</time>
      </trkpt>
      <trkpt lat="43.285375" lon="-6.868118">
        <ele>545.9</ele>
        <time>2021-04-14T09:33:15.000Z</time>
      </trkpt>
      <trkpt lat="43.285345" lon="-6.868288">
        <ele>547.4</ele>
        <time>2021-04-14T09:33:18.000Z</time>
      </trkpt>
      <trkpt lat="43.285307" lon="-6.868472">
        <ele>548.5</ele>
        <time>2021-04-14T09:33:21.000Z</time>
      </trkpt>
      <trkpt lat="43.285288" lon="-6.868597">
        <ele>549.4</ele>
        <time>2021-04-14T09:33:23.000Z</time>
      </trkpt>
      <trkpt lat="43.285268" lon="-6.868725">
        <ele>550.2</ele>
        <time>2021-04-14T09:33:25.000Z</time>
      </trkpt>
      <trkpt lat="43.285248" lon="-6.86886">
        <ele>550.9</ele>
        <time>2021-04-14T09:33:27.000Z</time>
      </trkpt>
      <trkpt lat="43.285228" lon="-6.869">
        <ele>551.4</ele>
        <time>2021-04-14T09:33:29.000Z</time>
      </trkpt>
      <trkpt lat="43.285208" lon="-6.869138">
        <ele>553</ele>
        <time>2021-04-14T09:33:31.000Z</time>
      </trkpt>
      <trkpt lat="43.285187" lon="-6.869277">
        <ele>554.6</ele>
        <time>2021-04-14T09:33:33.000Z</time>
      </trkpt>
      <trkpt lat="43.285162" lon="-6.869418">
        <ele>555.6</ele>
        <time>2021-04-14T09:33:35.000Z</time>
      </trkpt>
      <trkpt lat="43.285142" lon="-6.869555">
        <ele>556.7</ele>
        <time>2021-04-14T09:33:37.000Z</time>
      </trkpt>
      <trkpt lat="43.285123" lon="-6.869692">
        <ele>558</ele>
        <time>2021-04-14T09:33:39.000Z</time>
      </trkpt>
      <trkpt lat="43.285113" lon="-6.869827">
        <ele>558.9</ele>
        <time>2021-04-14T09:33:41.000Z</time>
      </trkpt>
      <trkpt lat="43.285088" lon="-6.869977">
        <ele>560.4</ele>
        <time>2021-04-14T09:33:54.000Z</time>
      </trkpt>
      <trkpt lat="43.285073" lon="-6.870103">
        <ele>560.4</ele>
        <time>2021-04-14T09:33:56.000Z</time>
      </trkpt>
      <trkpt lat="43.28506" lon="-6.870238">
        <ele>560.7</ele>
        <time>2021-04-14T09:33:58.000Z</time>
      </trkpt>
      <trkpt lat="43.285028" lon="-6.870392">
        <ele>560.8</ele>
        <time>2021-04-14T09:34:01.000Z</time>
      </trkpt>
      <trkpt lat="43.285005" lon="-6.870512">
        <ele>561.6</ele>
        <time>2021-04-14T09:34:03.000Z</time>
      </trkpt>
      <trkpt lat="43.28499" lon="-6.870642">
        <ele>562.1</ele>
        <time>2021-04-14T09:34:05.000Z</time>
      </trkpt>
      <trkpt lat="43.284978" lon="-6.87077">
        <ele>563.2</ele>
        <time>2021-04-14T09:34:07.000Z</time>
      </trkpt>
      <trkpt lat="43.284975" lon="-6.870893">
        <ele>563.8</ele>
        <time>2021-04-14T09:34:09.000Z</time>
      </trkpt>
      <trkpt lat="43.284973" lon="-6.871028">
        <ele>564.4</ele>
        <time>2021-04-14T09:34:11.000Z</time>
      </trkpt>
      <trkpt lat="43.284978" lon="-6.871163">
        <ele>565.1</ele>
        <time>2021-04-14T09:34:13.000Z</time>
      </trkpt>
      <trkpt lat="43.284997" lon="-6.871322">
        <ele>566</ele>
        <time>2021-04-14T09:34:16.000Z</time>
      </trkpt>
      <trkpt lat="43.285037" lon="-6.87144">
        <ele>567.8</ele>
        <time>2021-04-14T09:34:19.000Z</time>
      </trkpt>
      <trkpt lat="43.285113" lon="-6.871508">
        <ele>570.6</ele>
        <time>2021-04-14T09:44:03.000Z</time>
      </trkpt>
      <trkpt lat="43.285227" lon="-6.87152">
        <ele>567.3</ele>
        <time>2021-04-14T09:45:20.000Z</time>
      </trkpt>
      <trkpt lat="43.28534" lon="-6.871575">
        <ele>566.9</ele>
        <time>2021-04-14T09:45:23.000Z</time>
      </trkpt>
      <trkpt lat="43.285423" lon="-6.871637">
        <ele>566.9</ele>
        <time>2021-04-14T09:45:26.000Z</time>
      </trkpt>
      <trkpt lat="43.2855" lon="-6.871712">
        <ele>566.6</ele>
        <time>2021-04-14T09:45:33.000Z</time>
      </trkpt>
      <trkpt lat="43.285572" lon="-6.871832">
        <ele>567.3</ele>
        <time>2021-04-14T09:45:38.000Z</time>
      </trkpt>
      <trkpt lat="43.285655" lon="-6.87196">
        <ele>567</ele>
        <time>2021-04-14T09:45:41.000Z</time>
      </trkpt>
      <trkpt lat="43.285742" lon="-6.872093">
        <ele>566.1</ele>
        <time>2021-04-14T09:45:44.000Z</time>
      </trkpt>
      <trkpt lat="43.285817" lon="-6.872212">
        <ele>564.4</ele>
        <time>2021-04-14T09:45:47.000Z</time>
      </trkpt>
      <trkpt lat="43.285907" lon="-6.872288">
        <ele>563.6</ele>
        <time>2021-04-14T09:45:50.000Z</time>
      </trkpt>
      <trkpt lat="43.286018" lon="-6.872367">
        <ele>562.8</ele>
        <time>2021-04-14T09:45:53.000Z</time>
      </trkpt>
      <trkpt lat="43.28611" lon="-6.872427">
        <ele>562.8</ele>
        <time>2021-04-14T09:45:55.000Z</time>
      </trkpt>
      <trkpt lat="43.28622" lon="-6.87249">
        <ele>562.6</ele>
        <time>2021-04-14T09:45:58.000Z</time>
      </trkpt>
      <trkpt lat="43.286313" lon="-6.872545">
        <ele>563.9</ele>
        <time>2021-04-14T09:46:01.000Z</time>
      </trkpt>
      <trkpt lat="43.286412" lon="-6.872592">
        <ele>562.8</ele>
        <time>2021-04-14T09:46:04.000Z</time>
      </trkpt>
      <trkpt lat="43.286502" lon="-6.872537">
        <ele>562.4</ele>
        <time>2021-04-14T09:46:08.000Z</time>
      </trkpt>
      <trkpt lat="43.286495" lon="-6.872385">
        <ele>563.9</ele>
        <time>2021-04-14T09:46:12.000Z</time>
      </trkpt>
      <trkpt lat="43.286482" lon="-6.872255">
        <ele>559.6</ele>
        <time>2021-04-14T09:46:15.000Z</time>
      </trkpt>
      <trkpt lat="43.286472" lon="-6.872112">
        <ele>558.4</ele>
        <time>2021-04-14T09:46:18.000Z</time>
      </trkpt>
      <trkpt lat="43.28648" lon="-6.871962">
        <ele>558.4</ele>
        <time>2021-04-14T09:46:21.000Z</time>
      </trkpt>
      <trkpt lat="43.286505" lon="-6.871783">
        <ele>559.9</ele>
        <time>2021-04-14T09:46:24.000Z</time>
      </trkpt>
      <trkpt lat="43.286523" lon="-6.87166">
        <ele>559.4</ele>
        <time>2021-04-14T09:46:26.000Z</time>
      </trkpt>
      <trkpt lat="43.286545" lon="-6.87154">
        <ele>558.7</ele>
        <time>2021-04-14T09:46:28.000Z</time>
      </trkpt>
      <trkpt lat="43.286563" lon="-6.871395">
        <ele>557.8</ele>
        <time>2021-04-14T09:46:31.000Z</time>
      </trkpt>
      <trkpt lat="43.286595" lon="-6.871255">
        <ele>554.5</ele>
        <time>2021-04-14T09:46:37.000Z</time>
      </trkpt>
      <trkpt lat="43.28664" lon="-6.871138">
        <ele>554</ele>
        <time>2021-04-14T09:46:40.000Z</time>
      </trkpt>
      <trkpt lat="43.28673" lon="-6.870998">
        <ele>554.1</ele>
        <time>2021-04-14T09:46:43.000Z</time>
      </trkpt>
      <trkpt lat="43.286813" lon="-6.870925">
        <ele>553.1</ele>
        <time>2021-04-14T09:46:45.000Z</time>
      </trkpt>
      <trkpt lat="43.28691" lon="-6.870845">
        <ele>551.3</ele>
        <time>2021-04-14T09:46:47.000Z</time>
      </trkpt>
      <trkpt lat="43.28701" lon="-6.87078">
        <ele>549.1</ele>
        <time>2021-04-14T09:46:49.000Z</time>
      </trkpt>
      <trkpt lat="43.287127" lon="-6.87071">
        <ele>546.8</ele>
        <time>2021-04-14T09:46:52.000Z</time>
      </trkpt>
      <trkpt lat="43.287225" lon="-6.870655">
        <ele>544.6</ele>
        <time>2021-04-14T09:46:55.000Z</time>
      </trkpt>
      <trkpt lat="43.287327" lon="-6.870573">
        <ele>545.4</ele>
        <time>2021-04-14T09:46:58.000Z</time>
      </trkpt>
      <trkpt lat="43.287433" lon="-6.870488">
        <ele>544.6</ele>
        <time>2021-04-14T09:47:01.000Z</time>
      </trkpt>
      <trkpt lat="43.287518" lon="-6.87039">
        <ele>545.3</ele>
        <time>2021-04-14T09:47:12.000Z</time>
      </trkpt>
      <trkpt lat="43.287608" lon="-6.870313">
        <ele>544.7</ele>
        <time>2021-04-14T09:47:18.000Z</time>
      </trkpt>
      <trkpt lat="43.287697" lon="-6.870252">
        <ele>543.7</ele>
        <time>2021-04-14T09:47:21.000Z</time>
      </trkpt>
      <trkpt lat="43.287805" lon="-6.870163">
        <ele>543.2</ele>
        <time>2021-04-14T09:47:24.000Z</time>
      </trkpt>
      <trkpt lat="43.287882" lon="-6.870097">
        <ele>542.5</ele>
        <time>2021-04-14T09:47:26.000Z</time>
      </trkpt>
      <trkpt lat="43.287962" lon="-6.870035">
        <ele>540.6</ele>
        <time>2021-04-14T09:47:28.000Z</time>
      </trkpt>
      <trkpt lat="43.288077" lon="-6.869947">
        <ele>537.8</ele>
        <time>2021-04-14T09:47:31.000Z</time>
      </trkpt>
      <trkpt lat="43.288168" lon="-6.869875">
        <ele>536.1</ele>
        <time>2021-04-14T09:47:34.000Z</time>
      </trkpt>
      <trkpt lat="43.288275" lon="-6.86982">
        <ele>534.5</ele>
        <time>2021-04-14T09:47:37.000Z</time>
      </trkpt>
      <trkpt lat="43.288402" lon="-6.86976">
        <ele>533.8</ele>
        <time>2021-04-14T09:47:40.000Z</time>
      </trkpt>
      <trkpt lat="43.288497" lon="-6.86971">
        <ele>532</ele>
        <time>2021-04-14T09:47:43.000Z</time>
      </trkpt>
      <trkpt lat="43.28858" lon="-6.869632">
        <ele>530.3</ele>
        <time>2021-04-14T09:47:46.000Z</time>
      </trkpt>
      <trkpt lat="43.288662" lon="-6.869522">
        <ele>528.7</ele>
        <time>2021-04-14T09:47:49.000Z</time>
      </trkpt>
      <trkpt lat="43.288723" lon="-6.869432">
        <ele>527.5</ele>
        <time>2021-04-14T09:47:51.000Z</time>
      </trkpt>
      <trkpt lat="43.288808" lon="-6.869315">
        <ele>526.2</ele>
        <time>2021-04-14T09:47:54.000Z</time>
      </trkpt>
      <trkpt lat="43.288873" lon="-6.869223">
        <ele>526.1</ele>
        <time>2021-04-14T09:47:58.000Z</time>
      </trkpt>
      <trkpt lat="43.28893" lon="-6.869108">
        <ele>529.8</ele>
        <time>2021-04-14T09:48:13.000Z</time>
      </trkpt>
      <trkpt lat="43.289" lon="-6.869012">
        <ele>528.6</ele>
        <time>2021-04-14T09:48:16.000Z</time>
      </trkpt>
      <trkpt lat="43.289067" lon="-6.868903">
        <ele>526.8</ele>
        <time>2021-04-14T09:48:20.000Z</time>
      </trkpt>
      <trkpt lat="43.289115" lon="-6.868775">
        <ele>526.6</ele>
        <time>2021-04-14T09:48:25.000Z</time>
      </trkpt>
      <trkpt lat="43.289158" lon="-6.868647">
        <ele>525.7</ele>
        <time>2021-04-14T09:48:29.000Z</time>
      </trkpt>
      <trkpt lat="43.289193" lon="-6.868487">
        <ele>525.3</ele>
        <time>2021-04-14T09:48:32.000Z</time>
      </trkpt>
      <trkpt lat="43.289242" lon="-6.868343">
        <ele>521.1</ele>
        <time>2021-04-14T09:48:35.000Z</time>
      </trkpt>
      <trkpt lat="43.289273" lon="-6.868178">
        <ele>518.7</ele>
        <time>2021-04-14T09:48:38.000Z</time>
      </trkpt>
      <trkpt lat="43.289302" lon="-6.868032">
        <ele>517</ele>
        <time>2021-04-14T09:48:41.000Z</time>
      </trkpt>
      <trkpt lat="43.289318" lon="-6.867878">
        <ele>515.3</ele>
        <time>2021-04-14T09:48:45.000Z</time>
      </trkpt>
      <trkpt lat="43.289345" lon="-6.86775">
        <ele>513.2</ele>
        <time>2021-04-14T09:48:49.000Z</time>
      </trkpt>
      <trkpt lat="43.289392" lon="-6.867597">
        <ele>507.5</ele>
        <time>2021-04-14T09:48:54.000Z</time>
      </trkpt>
      <trkpt lat="43.289385" lon="-6.867433">
        <ele>506.6</ele>
        <time>2021-04-14T09:48:57.000Z</time>
      </trkpt>
      <trkpt lat="43.289375" lon="-6.867307">
        <ele>505.8</ele>
        <time>2021-04-14T09:49:00.000Z</time>
      </trkpt>
      <trkpt lat="43.28936" lon="-6.86714">
        <ele>507.5</ele>
        <time>2021-04-14T09:49:04.000Z</time>
      </trkpt>
      <trkpt lat="43.28937" lon="-6.866983">
        <ele>507</ele>
        <time>2021-04-14T09:49:08.000Z</time>
      </trkpt>
      <trkpt lat="43.289385" lon="-6.866832">
        <ele>505</ele>
        <time>2021-04-14T09:49:12.000Z</time>
      </trkpt>
      <trkpt lat="43.28939" lon="-6.866692">
        <ele>503.9</ele>
        <time>2021-04-14T09:49:18.000Z</time>
      </trkpt>
      <trkpt lat="43.289383" lon="-6.866535">
        <ele>502.8</ele>
        <time>2021-04-14T09:49:22.000Z</time>
      </trkpt>
      <trkpt lat="43.289358" lon="-6.866413">
        <ele>502.2</ele>
        <time>2021-04-14T09:49:26.000Z</time>
      </trkpt>
      <trkpt lat="43.289338" lon="-6.866275">
        <ele>501.8</ele>
        <time>2021-04-14T09:49:31.000Z</time>
      </trkpt>
      <trkpt lat="43.289293" lon="-6.866148">
        <ele>505.4</ele>
        <time>2021-04-14T09:49:38.000Z</time>
      </trkpt>
      <trkpt lat="43.28927" lon="-6.866">
        <ele>506.2</ele>
        <time>2021-04-14T09:49:42.000Z</time>
      </trkpt>
      <trkpt lat="43.289235" lon="-6.865872">
        <ele>508.7</ele>
        <time>2021-04-14T09:49:48.000Z</time>
      </trkpt>
      <trkpt lat="43.289222" lon="-6.86574">
        <ele>508.7</ele>
        <time>2021-04-14T09:49:52.000Z</time>
      </trkpt>
      <trkpt lat="43.289187" lon="-6.865588">
        <ele>508</ele>
        <time>2021-04-14T09:49:56.000Z</time>
      </trkpt>
      <trkpt lat="43.289173" lon="-6.865452">
        <ele>502.8</ele>
        <time>2021-04-14T09:50:00.000Z</time>
      </trkpt>
      <trkpt lat="43.289147" lon="-6.86532">
        <ele>500</ele>
        <time>2021-04-14T09:50:04.000Z</time>
      </trkpt>
      <trkpt lat="43.289123" lon="-6.86517">
        <ele>498.9</ele>
        <time>2021-04-14T09:50:08.000Z</time>
      </trkpt>
      <trkpt lat="43.289105" lon="-6.865023">
        <ele>498.3</ele>
        <time>2021-04-14T09:50:12.000Z</time>
      </trkpt>
      <trkpt lat="43.289083" lon="-6.864883">
        <ele>496.9</ele>
        <time>2021-04-14T09:50:16.000Z</time>
      </trkpt>
      <trkpt lat="43.289062" lon="-6.86474">
        <ele>495.9</ele>
        <time>2021-04-14T09:50:20.000Z</time>
      </trkpt>
      <trkpt lat="43.289038" lon="-6.864593">
        <ele>494</ele>
        <time>2021-04-14T09:50:24.000Z</time>
      </trkpt>
      <trkpt lat="43.289018" lon="-6.864448">
        <ele>492.2</ele>
        <time>2021-04-14T09:50:28.000Z</time>
      </trkpt>
      <trkpt lat="43.288997" lon="-6.864322">
        <ele>489.4</ele>
        <time>2021-04-14T09:50:32.000Z</time>
      </trkpt>
      <trkpt lat="43.288972" lon="-6.864183">
        <ele>488.5</ele>
        <time>2021-04-14T09:50:36.000Z</time>
      </trkpt>
      <trkpt lat="43.28895" lon="-6.864063">
        <ele>490.1</ele>
        <time>2021-04-14T09:50:39.000Z</time>
      </trkpt>
      <trkpt lat="43.28894" lon="-6.86391">
        <ele>490.4</ele>
        <time>2021-04-14T09:50:43.000Z</time>
      </trkpt>
      <trkpt lat="43.288938" lon="-6.863757">
        <ele>491</ele>
        <time>2021-04-14T09:50:47.000Z</time>
      </trkpt>
      <trkpt lat="43.288928" lon="-6.863605">
        <ele>492</ele>
        <time>2021-04-14T09:50:51.000Z</time>
      </trkpt>
      <trkpt lat="43.28892" lon="-6.863457">
        <ele>492.6</ele>
        <time>2021-04-14T09:50:55.000Z</time>
      </trkpt>
      <trkpt lat="43.28892" lon="-6.863308">
        <ele>490.8</ele>
        <time>2021-04-14T09:50:59.000Z</time>
      </trkpt>
      <trkpt lat="43.288915" lon="-6.86316">
        <ele>489</ele>
        <time>2021-04-14T09:51:03.000Z</time>
      </trkpt>
      <trkpt lat="43.288905" lon="-6.863017">
        <ele>486.9</ele>
        <time>2021-04-14T09:51:07.000Z</time>
      </trkpt>
      <trkpt lat="43.288895" lon="-6.862877">
        <ele>486.1</ele>
        <time>2021-04-14T09:51:11.000Z</time>
      </trkpt>
      <trkpt lat="43.288883" lon="-6.862733">
        <ele>484.8</ele>
        <time>2021-04-14T09:51:15.000Z</time>
      </trkpt>
      <trkpt lat="43.288882" lon="-6.862598">
        <ele>482.9</ele>
        <time>2021-04-14T09:51:19.000Z</time>
      </trkpt>
      <trkpt lat="43.28889" lon="-6.86246">
        <ele>482.4</ele>
        <time>2021-04-14T09:51:23.000Z</time>
      </trkpt>
      <trkpt lat="43.288888" lon="-6.862317">
        <ele>481.3</ele>
        <time>2021-04-14T09:51:27.000Z</time>
      </trkpt>
      <trkpt lat="43.288877" lon="-6.862173">
        <ele>482.1</ele>
        <time>2021-04-14T09:51:31.000Z</time>
      </trkpt>
      <trkpt lat="43.288857" lon="-6.862035">
        <ele>482.3</ele>
        <time>2021-04-14T09:51:35.000Z</time>
      </trkpt>
      <trkpt lat="43.288843" lon="-6.861898">
        <ele>483.6</ele>
        <time>2021-04-14T09:51:39.000Z</time>
      </trkpt>
      <trkpt lat="43.28884" lon="-6.861752">
        <ele>482.8</ele>
        <time>2021-04-14T09:51:43.000Z</time>
      </trkpt>
      <trkpt lat="43.288827" lon="-6.861612">
        <ele>480.7</ele>
        <time>2021-04-14T09:51:47.000Z</time>
      </trkpt>
      <trkpt lat="43.288848" lon="-6.861492">
        <ele>477.5</ele>
        <time>2021-04-14T09:52:22.000Z</time>
      </trkpt>
      <trkpt lat="43.288833" lon="-6.861367">
        <ele>477.3</ele>
        <time>2021-04-14T09:52:29.000Z</time>
      </trkpt>
      <trkpt lat="43.28883" lon="-6.861232">
        <ele>476.4</ele>
        <time>2021-04-14T09:52:36.000Z</time>
      </trkpt>
      <trkpt lat="43.28888" lon="-6.8611">
        <ele>475.9</ele>
        <time>2021-04-14T09:52:39.000Z</time>
      </trkpt>
      <trkpt lat="43.28895" lon="-6.860948">
        <ele>475.9</ele>
        <time>2021-04-14T09:52:42.000Z</time>
      </trkpt>
      <trkpt lat="43.289027" lon="-6.860797">
        <ele>477</ele>
        <time>2021-04-14T09:52:45.000Z</time>
      </trkpt>
      <trkpt lat="43.289082" lon="-6.860693">
        <ele>478.1</ele>
        <time>2021-04-14T09:52:47.000Z</time>
      </trkpt>
      <trkpt lat="43.289138" lon="-6.860592">
        <ele>479.6</ele>
        <time>2021-04-14T09:52:49.000Z</time>
      </trkpt>
      <trkpt lat="43.28922" lon="-6.860462">
        <ele>481.2</ele>
        <time>2021-04-14T09:52:52.000Z</time>
      </trkpt>
      <trkpt lat="43.289322" lon="-6.860355">
        <ele>482.8</ele>
        <time>2021-04-14T09:52:55.000Z</time>
      </trkpt>
      <trkpt lat="43.289402" lon="-6.860298">
        <ele>483.6</ele>
        <time>2021-04-14T09:52:57.000Z</time>
      </trkpt>
      <trkpt lat="43.28951" lon="-6.860255">
        <ele>484.2</ele>
        <time>2021-04-14T09:53:00.000Z</time>
      </trkpt>
      <trkpt lat="43.289627" lon="-6.860257">
        <ele>486.1</ele>
        <time>2021-04-14T09:53:03.000Z</time>
      </trkpt>
      <trkpt lat="43.289725" lon="-6.860282">
        <ele>486.3</ele>
        <time>2021-04-14T09:53:06.000Z</time>
      </trkpt>
      <trkpt lat="43.28983" lon="-6.860312">
        <ele>486.3</ele>
        <time>2021-04-14T09:53:09.000Z</time>
      </trkpt>
      <trkpt lat="43.289942" lon="-6.860318">
        <ele>487</ele>
        <time>2021-04-14T09:53:12.000Z</time>
      </trkpt>
      <trkpt lat="43.290063" lon="-6.86029">
        <ele>489.9</ele>
        <time>2021-04-14T09:53:16.000Z</time>
      </trkpt>
      <trkpt lat="43.290177" lon="-6.86024">
        <ele>490.5</ele>
        <time>2021-04-14T09:53:19.000Z</time>
      </trkpt>
      <trkpt lat="43.290302" lon="-6.860188">
        <ele>489.6</ele>
        <time>2021-04-14T09:53:22.000Z</time>
      </trkpt>
      <trkpt lat="43.290427" lon="-6.860137">
        <ele>489.4</ele>
        <time>2021-04-14T09:53:25.000Z</time>
      </trkpt>
      <trkpt lat="43.290555" lon="-6.860105">
        <ele>491</ele>
        <time>2021-04-14T09:53:28.000Z</time>
      </trkpt>
      <trkpt lat="43.290678" lon="-6.860077">
        <ele>491.9</ele>
        <time>2021-04-14T09:53:31.000Z</time>
      </trkpt>
      <trkpt lat="43.2908" lon="-6.860062">
        <ele>493.6</ele>
        <time>2021-04-14T09:53:34.000Z</time>
      </trkpt>
      <trkpt lat="43.290913" lon="-6.860058">
        <ele>495.1</ele>
        <time>2021-04-14T09:53:37.000Z</time>
      </trkpt>
      <trkpt lat="43.291022" lon="-6.860053">
        <ele>496.8</ele>
        <time>2021-04-14T09:53:40.000Z</time>
      </trkpt>
      <trkpt lat="43.291127" lon="-6.860055">
        <ele>498.4</ele>
        <time>2021-04-14T09:53:43.000Z</time>
      </trkpt>
      <trkpt lat="43.291223" lon="-6.860067">
        <ele>499.4</ele>
        <time>2021-04-14T09:53:46.000Z</time>
      </trkpt>
      <trkpt lat="43.291332" lon="-6.8601">
        <ele>500.4</ele>
        <time>2021-04-14T09:53:49.000Z</time>
      </trkpt>
      <trkpt lat="43.29144" lon="-6.860135">
        <ele>502.1</ele>
        <time>2021-04-14T09:53:52.000Z</time>
      </trkpt>
      <trkpt lat="43.291543" lon="-6.860173">
        <ele>503.3</ele>
        <time>2021-04-14T09:53:55.000Z</time>
      </trkpt>
      <trkpt lat="43.291643" lon="-6.860213">
        <ele>504.3</ele>
        <time>2021-04-14T09:53:58.000Z</time>
      </trkpt>
      <trkpt lat="43.291758" lon="-6.860253">
        <ele>506</ele>
        <time>2021-04-14T09:54:01.000Z</time>
      </trkpt>
      <trkpt lat="43.291848" lon="-6.860283">
        <ele>506.7</ele>
        <time>2021-04-14T09:54:03.000Z</time>
      </trkpt>
      <trkpt lat="43.291932" lon="-6.860352">
        <ele>508.5</ele>
        <time>2021-04-14T09:54:06.000Z</time>
      </trkpt>
      <trkpt lat="43.291978" lon="-6.860475">
        <ele>509.7</ele>
        <time>2021-04-14T09:54:09.000Z</time>
      </trkpt>
      <trkpt lat="43.292005" lon="-6.860622">
        <ele>511.5</ele>
        <time>2021-04-14T09:54:12.000Z</time>
      </trkpt>
      <trkpt lat="43.292022" lon="-6.86077">
        <ele>512.4</ele>
        <time>2021-04-14T09:54:15.000Z</time>
      </trkpt>
      <trkpt lat="43.292025" lon="-6.860908">
        <ele>510.3</ele>
        <time>2021-04-14T09:54:18.000Z</time>
      </trkpt>
      <trkpt lat="43.292008" lon="-6.861065">
        <ele>508.4</ele>
        <time>2021-04-14T09:54:21.000Z</time>
      </trkpt>
      <trkpt lat="43.292" lon="-6.861193">
        <ele>506.9</ele>
        <time>2021-04-14T09:54:23.000Z</time>
      </trkpt>
      <trkpt lat="43.291988" lon="-6.861337">
        <ele>505.4</ele>
        <time>2021-04-14T09:54:25.000Z</time>
      </trkpt>
      <trkpt lat="43.291978" lon="-6.86146">
        <ele>503.5</ele>
        <time>2021-04-14T09:54:27.000Z</time>
      </trkpt>
      <trkpt lat="43.291962" lon="-6.86159">
        <ele>502</ele>
        <time>2021-04-14T09:54:29.000Z</time>
      </trkpt>
      <trkpt lat="43.291937" lon="-6.861763">
        <ele>500</ele>
        <time>2021-04-14T09:54:32.000Z</time>
      </trkpt>
      <trkpt lat="43.291922" lon="-6.861918">
        <ele>498.7</ele>
        <time>2021-04-14T09:54:35.000Z</time>
      </trkpt>
      <trkpt lat="43.291918" lon="-6.862057">
        <ele>498.8</ele>
        <time>2021-04-14T09:54:38.000Z</time>
      </trkpt>
      <trkpt lat="43.291935" lon="-6.86219">
        <ele>499.1</ele>
        <time>2021-04-14T09:54:41.000Z</time>
      </trkpt>
      <trkpt lat="43.291995" lon="-6.862298">
        <ele>499.6</ele>
        <time>2021-04-14T09:54:44.000Z</time>
      </trkpt>
      <trkpt lat="43.292005" lon="-6.862458">
        <ele>499.8</ele>
        <time>2021-04-14T09:54:48.000Z</time>
      </trkpt>
      <trkpt lat="43.292033" lon="-6.862595">
        <ele>499.4</ele>
        <time>2021-04-14T09:54:52.000Z</time>
      </trkpt>
      <trkpt lat="43.292097" lon="-6.86272">
        <ele>496.7</ele>
        <time>2021-04-14T09:54:56.000Z</time>
      </trkpt>
      <trkpt lat="43.292185" lon="-6.862793">
        <ele>496.9</ele>
        <time>2021-04-14T09:54:59.000Z</time>
      </trkpt>
      <trkpt lat="43.292263" lon="-6.86289">
        <ele>496.8</ele>
        <time>2021-04-14T09:55:02.000Z</time>
      </trkpt>
      <trkpt lat="43.292347" lon="-6.862952">
        <ele>497.3</ele>
        <time>2021-04-14T09:55:04.000Z</time>
      </trkpt>
      <trkpt lat="43.292448" lon="-6.863028">
        <ele>497.5</ele>
        <time>2021-04-14T09:55:06.000Z</time>
      </trkpt>
      <trkpt lat="43.292547" lon="-6.863113">
        <ele>497.7</ele>
        <time>2021-04-14T09:55:08.000Z</time>
      </trkpt>
      <trkpt lat="43.292623" lon="-6.863185">
        <ele>497</ele>
        <time>2021-04-14T09:55:10.000Z</time>
      </trkpt>
      <trkpt lat="43.2927" lon="-6.86326">
        <ele>496</ele>
        <time>2021-04-14T09:55:12.000Z</time>
      </trkpt>
      <trkpt lat="43.292787" lon="-6.86331">
        <ele>497.6</ele>
        <time>2021-04-14T09:55:14.000Z</time>
      </trkpt>
      <trkpt lat="43.292878" lon="-6.863365">
        <ele>497.8</ele>
        <time>2021-04-14T09:55:16.000Z</time>
      </trkpt>
      <trkpt lat="43.292983" lon="-6.863422">
        <ele>498</ele>
        <time>2021-04-14T09:55:18.000Z</time>
      </trkpt>
      <trkpt lat="43.293082" lon="-6.86347">
        <ele>498.3</ele>
        <time>2021-04-14T09:55:20.000Z</time>
      </trkpt>
      <trkpt lat="43.293175" lon="-6.863502">
        <ele>498</ele>
        <time>2021-04-14T09:55:22.000Z</time>
      </trkpt>
      <trkpt lat="43.293302" lon="-6.863545">
        <ele>497.8</ele>
        <time>2021-04-14T09:55:25.000Z</time>
      </trkpt>
      <trkpt lat="43.293398" lon="-6.86358">
        <ele>497.6</ele>
        <time>2021-04-14T09:55:27.000Z</time>
      </trkpt>
      <trkpt lat="43.293482" lon="-6.863628">
        <ele>496.9</ele>
        <time>2021-04-14T09:55:29.000Z</time>
      </trkpt>
      <trkpt lat="43.293592" lon="-6.863688">
        <ele>496.3</ele>
        <time>2021-04-14T09:55:32.000Z</time>
      </trkpt>
      <trkpt lat="43.29371" lon="-6.863762">
        <ele>495.3</ele>
        <time>2021-04-14T09:55:35.000Z</time>
      </trkpt>
      <trkpt lat="43.293785" lon="-6.863837">
        <ele>494.8</ele>
        <time>2021-04-14T09:55:37.000Z</time>
      </trkpt>
      <trkpt lat="43.29385" lon="-6.863935">
        <ele>494.4</ele>
        <time>2021-04-14T09:55:39.000Z</time>
      </trkpt>
      <trkpt lat="43.293925" lon="-6.864058">
        <ele>493.7</ele>
        <time>2021-04-14T09:55:41.000Z</time>
      </trkpt>
      <trkpt lat="43.29396" lon="-6.864187">
        <ele>491.9</ele>
        <time>2021-04-14T09:55:43.000Z</time>
      </trkpt>
      <trkpt lat="43.293992" lon="-6.864305">
        <ele>488.8</ele>
        <time>2021-04-14T09:55:45.000Z</time>
      </trkpt>
      <trkpt lat="43.294012" lon="-6.864455">
        <ele>486.7</ele>
        <time>2021-04-14T09:55:48.000Z</time>
      </trkpt>
      <trkpt lat="43.294037" lon="-6.864603">
        <ele>485.4</ele>
        <time>2021-04-14T09:55:51.000Z</time>
      </trkpt>
      <trkpt lat="43.294083" lon="-6.864773">
        <ele>481.9</ele>
        <time>2021-04-14T09:55:54.000Z</time>
      </trkpt>
      <trkpt lat="43.294117" lon="-6.864898">
        <ele>477.8</ele>
        <time>2021-04-14T09:55:56.000Z</time>
      </trkpt>
      <trkpt lat="43.294157" lon="-6.865075">
        <ele>475.2</ele>
        <time>2021-04-14T09:55:59.000Z</time>
      </trkpt>
      <trkpt lat="43.294188" lon="-6.86521">
        <ele>472.5</ele>
        <time>2021-04-14T09:56:01.000Z</time>
      </trkpt>
      <trkpt lat="43.294208" lon="-6.865342">
        <ele>470.2</ele>
        <time>2021-04-14T09:56:03.000Z</time>
      </trkpt>
      <trkpt lat="43.294198" lon="-6.865467">
        <ele>466.1</ele>
        <time>2021-04-14T09:56:05.000Z</time>
      </trkpt>
      <trkpt lat="43.2942" lon="-6.86564">
        <ele>462.4</ele>
        <time>2021-04-14T09:56:08.000Z</time>
      </trkpt>
      <trkpt lat="43.294235" lon="-6.865807">
        <ele>460.5</ele>
        <time>2021-04-14T09:56:11.000Z</time>
      </trkpt>
      <trkpt lat="43.294333" lon="-6.865922">
        <ele>459.1</ele>
        <time>2021-04-14T09:56:14.000Z</time>
      </trkpt>
      <trkpt lat="43.294462" lon="-6.865957">
        <ele>458.8</ele>
        <time>2021-04-14T09:56:17.000Z</time>
      </trkpt>
      <trkpt lat="43.294567" lon="-6.865995">
        <ele>458.4</ele>
        <time>2021-04-14T09:56:19.000Z</time>
      </trkpt>
      <trkpt lat="43.294675" lon="-6.866018">
        <ele>459.4</ele>
        <time>2021-04-14T09:56:21.000Z</time>
      </trkpt>
      <trkpt lat="43.2948" lon="-6.866048">
        <ele>459.9</ele>
        <time>2021-04-14T09:56:24.000Z</time>
      </trkpt>
      <trkpt lat="43.294913" lon="-6.866075">
        <ele>461.4</ele>
        <time>2021-04-14T09:56:26.000Z</time>
      </trkpt>
      <trkpt lat="43.295003" lon="-6.866097">
        <ele>462.1</ele>
        <time>2021-04-14T09:56:28.000Z</time>
      </trkpt>
      <trkpt lat="43.295118" lon="-6.86616">
        <ele>463.5</ele>
        <time>2021-04-14T09:56:31.000Z</time>
      </trkpt>
      <trkpt lat="43.295228" lon="-6.86626">
        <ele>464.6</ele>
        <time>2021-04-14T09:56:34.000Z</time>
      </trkpt>
      <trkpt lat="43.295295" lon="-6.866353">
        <ele>465.3</ele>
        <time>2021-04-14T09:56:36.000Z</time>
      </trkpt>
      <trkpt lat="43.295353" lon="-6.86647">
        <ele>465.9</ele>
        <time>2021-04-14T09:56:38.000Z</time>
      </trkpt>
      <trkpt lat="43.295443" lon="-6.866597">
        <ele>466.8</ele>
        <time>2021-04-14T09:56:40.000Z</time>
      </trkpt>
      <trkpt lat="43.295507" lon="-6.866715">
        <ele>467</ele>
        <time>2021-04-14T09:56:42.000Z</time>
      </trkpt>
      <trkpt lat="43.29556" lon="-6.86685">
        <ele>466.2</ele>
        <time>2021-04-14T09:56:44.000Z</time>
      </trkpt>
      <trkpt lat="43.295613" lon="-6.86699">
        <ele>466.4</ele>
        <time>2021-04-14T09:56:46.000Z</time>
      </trkpt>
      <trkpt lat="43.295672" lon="-6.867128">
        <ele>466.3</ele>
        <time>2021-04-14T09:56:48.000Z</time>
      </trkpt>
      <trkpt lat="43.295718" lon="-6.867258">
        <ele>466.5</ele>
        <time>2021-04-14T09:56:50.000Z</time>
      </trkpt>
      <trkpt lat="43.295738" lon="-6.867385">
        <ele>466.8</ele>
        <time>2021-04-14T09:56:52.000Z</time>
      </trkpt>
      <trkpt lat="43.295747" lon="-6.867518">
        <ele>466.6</ele>
        <time>2021-04-14T09:56:54.000Z</time>
      </trkpt>
      <trkpt lat="43.29577" lon="-6.867653">
        <ele>466.8</ele>
        <time>2021-04-14T09:56:56.000Z</time>
      </trkpt>
      <trkpt lat="43.295793" lon="-6.867783">
        <ele>467.8</ele>
        <time>2021-04-14T09:56:58.000Z</time>
      </trkpt>
      <trkpt lat="43.29581" lon="-6.867918">
        <ele>469.1</ele>
        <time>2021-04-14T09:57:00.000Z</time>
      </trkpt>
      <trkpt lat="43.295813" lon="-6.868045">
        <ele>469.4</ele>
        <time>2021-04-14T09:57:02.000Z</time>
      </trkpt>
      <trkpt lat="43.295807" lon="-6.86818">
        <ele>469</ele>
        <time>2021-04-14T09:57:04.000Z</time>
      </trkpt>
      <trkpt lat="43.295783" lon="-6.868315">
        <ele>468.4</ele>
        <time>2021-04-14T09:57:06.000Z</time>
      </trkpt>
      <trkpt lat="43.295742" lon="-6.86847">
        <ele>467.9</ele>
        <time>2021-04-14T09:57:08.000Z</time>
      </trkpt>
      <trkpt lat="43.295697" lon="-6.868645">
        <ele>467.4</ele>
        <time>2021-04-14T09:57:10.000Z</time>
      </trkpt>
      <trkpt lat="43.295663" lon="-6.868837">
        <ele>467</ele>
        <time>2021-04-14T09:57:12.000Z</time>
      </trkpt>
      <trkpt lat="43.29566" lon="-6.869037">
        <ele>466.6</ele>
        <time>2021-04-14T09:57:14.000Z</time>
      </trkpt>
      <trkpt lat="43.29568" lon="-6.86921">
        <ele>465.9</ele>
        <time>2021-04-14T09:57:16.000Z</time>
      </trkpt>
      <trkpt lat="43.295773" lon="-6.86936">
        <ele>471.1</ele>
        <time>2021-04-14T09:57:18.000Z</time>
      </trkpt>
      <trkpt lat="43.295873" lon="-6.869467">
        <ele>474.9</ele>
        <time>2021-04-14T09:57:20.000Z</time>
      </trkpt>
      <trkpt lat="43.295952" lon="-6.869567">
        <ele>476.6</ele>
        <time>2021-04-14T09:57:22.000Z</time>
      </trkpt>
      <trkpt lat="43.296025" lon="-6.869665">
        <ele>476.8</ele>
        <time>2021-04-14T09:57:24.000Z</time>
      </trkpt>
      <trkpt lat="43.29609" lon="-6.869763">
        <ele>478.5</ele>
        <time>2021-04-14T09:57:26.000Z</time>
      </trkpt>
      <trkpt lat="43.296133" lon="-6.869898">
        <ele>477.6</ele>
        <time>2021-04-14T09:57:29.000Z</time>
      </trkpt>
      <trkpt lat="43.296147" lon="-6.870052">
        <ele>476.8</ele>
        <time>2021-04-14T09:57:32.000Z</time>
      </trkpt>
      <trkpt lat="43.29614" lon="-6.870217">
        <ele>477.4</ele>
        <time>2021-04-14T09:57:35.000Z</time>
      </trkpt>
      <trkpt lat="43.296125" lon="-6.870392">
        <ele>478.4</ele>
        <time>2021-04-14T09:57:38.000Z</time>
      </trkpt>
      <trkpt lat="43.296107" lon="-6.870558">
        <ele>478.8</ele>
        <time>2021-04-14T09:57:41.000Z</time>
      </trkpt>
      <trkpt lat="43.296102" lon="-6.87072">
        <ele>479.7</ele>
        <time>2021-04-14T09:57:44.000Z</time>
      </trkpt>
      <trkpt lat="43.296092" lon="-6.870865">
        <ele>480.5</ele>
        <time>2021-04-14T09:57:47.000Z</time>
      </trkpt>
      <trkpt lat="43.2961" lon="-6.87101">
        <ele>479.3</ele>
        <time>2021-04-14T09:57:50.000Z</time>
      </trkpt>
      <trkpt lat="43.29609" lon="-6.871157">
        <ele>479.2</ele>
        <time>2021-04-14T09:57:53.000Z</time>
      </trkpt>
      <trkpt lat="43.296102" lon="-6.87132">
        <ele>479.4</ele>
        <time>2021-04-14T09:57:57.000Z</time>
      </trkpt>
      <trkpt lat="43.296177" lon="-6.87142">
        <ele>479.5</ele>
        <time>2021-04-14T09:58:00.000Z</time>
      </trkpt>
      <trkpt lat="43.296282" lon="-6.871512">
        <ele>479.9</ele>
        <time>2021-04-14T09:58:03.000Z</time>
      </trkpt>
      <trkpt lat="43.296375" lon="-6.871602">
        <ele>480.4</ele>
        <time>2021-04-14T09:58:06.000Z</time>
      </trkpt>
      <trkpt lat="43.296468" lon="-6.871693">
        <ele>481.5</ele>
        <time>2021-04-14T09:58:09.000Z</time>
      </trkpt>
      <trkpt lat="43.29657" lon="-6.871745">
        <ele>483</ele>
        <time>2021-04-14T09:58:12.000Z</time>
      </trkpt>
      <trkpt lat="43.29668" lon="-6.87179">
        <ele>484.5</ele>
        <time>2021-04-14T09:58:15.000Z</time>
      </trkpt>
      <trkpt lat="43.296798" lon="-6.871812">
        <ele>485.8</ele>
        <time>2021-04-14T09:58:18.000Z</time>
      </trkpt>
      <trkpt lat="43.296887" lon="-6.87184">
        <ele>486.5</ele>
        <time>2021-04-14T09:58:20.000Z</time>
      </trkpt>
      <trkpt lat="43.297018" lon="-6.87188">
        <ele>487.8</ele>
        <time>2021-04-14T09:58:23.000Z</time>
      </trkpt>
      <trkpt lat="43.297117" lon="-6.871945">
        <ele>488.3</ele>
        <time>2021-04-14T09:58:26.000Z</time>
      </trkpt>
      <trkpt lat="43.297178" lon="-6.872053">
        <ele>490.5</ele>
        <time>2021-04-14T09:58:29.000Z</time>
      </trkpt>
      <trkpt lat="43.297217" lon="-6.872185">
        <ele>491.6</ele>
        <time>2021-04-14T09:58:32.000Z</time>
      </trkpt>
      <trkpt lat="43.297205" lon="-6.872353">
        <ele>491.7</ele>
        <time>2021-04-14T09:58:55.000Z</time>
      </trkpt>
      <trkpt lat="43.29716" lon="-6.872525">
        <ele>492.4</ele>
        <time>2021-04-14T09:58:58.000Z</time>
      </trkpt>
      <trkpt lat="43.297118" lon="-6.872635">
        <ele>493.1</ele>
        <time>2021-04-14T09:59:00.000Z</time>
      </trkpt>
      <trkpt lat="43.297062" lon="-6.87279">
        <ele>492.8</ele>
        <time>2021-04-14T09:59:03.000Z</time>
      </trkpt>
      <trkpt lat="43.297012" lon="-6.872938">
        <ele>491.7</ele>
        <time>2021-04-14T09:59:06.000Z</time>
      </trkpt>
      <trkpt lat="43.296955" lon="-6.873097">
        <ele>491.8</ele>
        <time>2021-04-14T09:59:09.000Z</time>
      </trkpt>
      <trkpt lat="43.296895" lon="-6.873258">
        <ele>491.1</ele>
        <time>2021-04-14T09:59:12.000Z</time>
      </trkpt>
      <trkpt lat="43.296843" lon="-6.873363">
        <ele>490.9</ele>
        <time>2021-04-14T09:59:14.000Z</time>
      </trkpt>
      <trkpt lat="43.296775" lon="-6.873502">
        <ele>485.8</ele>
        <time>2021-04-14T09:59:17.000Z</time>
      </trkpt>
      <trkpt lat="43.296707" lon="-6.873627">
        <ele>483</ele>
        <time>2021-04-14T09:59:20.000Z</time>
      </trkpt>
      <trkpt lat="43.296633" lon="-6.873758">
        <ele>480.9</ele>
        <time>2021-04-14T09:59:23.000Z</time>
      </trkpt>
      <trkpt lat="43.296553" lon="-6.873882">
        <ele>478.9</ele>
        <time>2021-04-14T09:59:26.000Z</time>
      </trkpt>
      <trkpt lat="43.296475" lon="-6.874003">
        <ele>476.1</ele>
        <time>2021-04-14T09:59:29.000Z</time>
      </trkpt>
      <trkpt lat="43.29641" lon="-6.874133">
        <ele>474.1</ele>
        <time>2021-04-14T09:59:32.000Z</time>
      </trkpt>
      <trkpt lat="43.296338" lon="-6.87428">
        <ele>472</ele>
        <time>2021-04-14T09:59:35.000Z</time>
      </trkpt>
      <trkpt lat="43.296285" lon="-6.874437">
        <ele>470.3</ele>
        <time>2021-04-14T09:59:38.000Z</time>
      </trkpt>
      <trkpt lat="43.296232" lon="-6.874595">
        <ele>468.3</ele>
        <time>2021-04-14T09:59:41.000Z</time>
      </trkpt>
      <trkpt lat="43.296213" lon="-6.874737">
        <ele>473.9</ele>
        <time>2021-04-14T09:59:43.000Z</time>
      </trkpt>
      <trkpt lat="43.296173" lon="-6.874857">
        <ele>473.9</ele>
        <time>2021-04-14T09:59:45.000Z</time>
      </trkpt>
      <trkpt lat="43.296127" lon="-6.874968">
        <ele>472.4</ele>
        <time>2021-04-14T09:59:47.000Z</time>
      </trkpt>
      <trkpt lat="43.296087" lon="-6.875095">
        <ele>471.1</ele>
        <time>2021-04-14T09:59:49.000Z</time>
      </trkpt>
      <trkpt lat="43.296037" lon="-6.875208">
        <ele>469.5</ele>
        <time>2021-04-14T09:59:51.000Z</time>
      </trkpt>
      <trkpt lat="43.295985" lon="-6.875318">
        <ele>468.3</ele>
        <time>2021-04-14T09:59:53.000Z</time>
      </trkpt>
      <trkpt lat="43.295913" lon="-6.875472">
        <ele>466.8</ele>
        <time>2021-04-14T09:59:56.000Z</time>
      </trkpt>
      <trkpt lat="43.295853" lon="-6.875572">
        <ele>466.1</ele>
        <time>2021-04-14T09:59:58.000Z</time>
      </trkpt>
      <trkpt lat="43.295783" lon="-6.875677">
        <ele>466.8</ele>
        <time>2021-04-14T10:00:00.000Z</time>
      </trkpt>
      <trkpt lat="43.295728" lon="-6.875785">
        <ele>466.1</ele>
        <time>2021-04-14T10:00:02.000Z</time>
      </trkpt>
      <trkpt lat="43.295698" lon="-6.875917">
        <ele>469.8</ele>
        <time>2021-04-14T10:00:04.000Z</time>
      </trkpt>
      <trkpt lat="43.295668" lon="-6.876038">
        <ele>471.3</ele>
        <time>2021-04-14T10:00:06.000Z</time>
      </trkpt>
      <trkpt lat="43.295623" lon="-6.876155">
        <ele>475.1</ele>
        <time>2021-04-14T10:00:08.000Z</time>
      </trkpt>
      <trkpt lat="43.295563" lon="-6.876263">
        <ele>474.3</ele>
        <time>2021-04-14T10:00:10.000Z</time>
      </trkpt>
      <trkpt lat="43.295507" lon="-6.876372">
        <ele>473.5</ele>
        <time>2021-04-14T10:00:12.000Z</time>
      </trkpt>
      <trkpt lat="43.29547" lon="-6.8765">
        <ele>473.9</ele>
        <time>2021-04-14T10:00:14.000Z</time>
      </trkpt>
      <trkpt lat="43.29541" lon="-6.876622">
        <ele>474</ele>
        <time>2021-04-14T10:00:16.000Z</time>
      </trkpt>
      <trkpt lat="43.295347" lon="-6.876742">
        <ele>478.2</ele>
        <time>2021-04-14T10:00:18.000Z</time>
      </trkpt>
      <trkpt lat="43.2953" lon="-6.876867">
        <ele>483.3</ele>
        <time>2021-04-14T10:00:20.000Z</time>
      </trkpt>
      <trkpt lat="43.295265" lon="-6.876985">
        <ele>487.4</ele>
        <time>2021-04-14T10:00:22.000Z</time>
      </trkpt>
      <trkpt lat="43.295207" lon="-6.877132">
        <ele>491.4</ele>
        <time>2021-04-14T10:00:25.000Z</time>
      </trkpt>
      <trkpt lat="43.295128" lon="-6.877247">
        <ele>493.9</ele>
        <time>2021-04-14T10:00:28.000Z</time>
      </trkpt>
      <trkpt lat="43.295053" lon="-6.877387">
        <ele>492.4</ele>
        <time>2021-04-14T10:00:31.000Z</time>
      </trkpt>
      <trkpt lat="43.294995" lon="-6.877495">
        <ele>491.7</ele>
        <time>2021-04-14T10:00:33.000Z</time>
      </trkpt>
      <trkpt lat="43.294912" lon="-6.877628">
        <ele>492.2</ele>
        <time>2021-04-14T10:00:36.000Z</time>
      </trkpt>
      <trkpt lat="43.29484" lon="-6.877728">
        <ele>491.8</ele>
        <time>2021-04-14T10:00:38.000Z</time>
      </trkpt>
      <trkpt lat="43.294752" lon="-6.877845">
        <ele>491.8</ele>
        <time>2021-04-14T10:00:40.000Z</time>
      </trkpt>
      <trkpt lat="43.294652" lon="-6.877998">
        <ele>491.6</ele>
        <time>2021-04-14T10:00:42.000Z</time>
      </trkpt>
      <trkpt lat="43.294543" lon="-6.878157">
        <ele>491.4</ele>
        <time>2021-04-14T10:00:44.000Z</time>
      </trkpt>
      <trkpt lat="43.294447" lon="-6.878305">
        <ele>491</ele>
        <time>2021-04-14T10:00:46.000Z</time>
      </trkpt>
      <trkpt lat="43.294373" lon="-6.878432">
        <ele>490.7</ele>
        <time>2021-04-14T10:00:48.000Z</time>
      </trkpt>
      <trkpt lat="43.294302" lon="-6.878528">
        <ele>490.7</ele>
        <time>2021-04-14T10:00:50.000Z</time>
      </trkpt>
      <trkpt lat="43.294233" lon="-6.87863">
        <ele>491.1</ele>
        <time>2021-04-14T10:00:52.000Z</time>
      </trkpt>
      <trkpt lat="43.29417" lon="-6.878728">
        <ele>491.6</ele>
        <time>2021-04-14T10:00:54.000Z</time>
      </trkpt>
      <trkpt lat="43.294075" lon="-6.878845">
        <ele>491.5</ele>
        <time>2021-04-14T10:00:57.000Z</time>
      </trkpt>
      <trkpt lat="43.294003" lon="-6.878933">
        <ele>491.1</ele>
        <time>2021-04-14T10:01:00.000Z</time>
      </trkpt>
      <trkpt lat="43.293958" lon="-6.879043">
        <ele>490.3</ele>
        <time>2021-04-14T10:01:03.000Z</time>
      </trkpt>
      <trkpt lat="43.294013" lon="-6.879143">
        <ele>487.5</ele>
        <time>2021-04-14T10:01:07.000Z</time>
      </trkpt>
      <trkpt lat="43.294113" lon="-6.879117">
        <ele>483.2</ele>
        <time>2021-04-14T10:01:11.000Z</time>
      </trkpt>
      <trkpt lat="43.294202" lon="-6.879083">
        <ele>482.9</ele>
        <time>2021-04-14T10:01:14.000Z</time>
      </trkpt>
      <trkpt lat="43.29429" lon="-6.879057">
        <ele>482.5</ele>
        <time>2021-04-14T10:01:20.000Z</time>
      </trkpt>
      <trkpt lat="43.294283" lon="-6.87918">
        <ele>480.5</ele>
        <time>2021-04-14T10:01:40.000Z</time>
      </trkpt>
      <trkpt lat="43.294188" lon="-6.879257">
        <ele>481.2</ele>
        <time>2021-04-14T10:01:45.000Z</time>
      </trkpt>
      <trkpt lat="43.29407" lon="-6.879273">
        <ele>480.3</ele>
        <time>2021-04-14T10:01:49.000Z</time>
      </trkpt>
      <trkpt lat="43.29394" lon="-6.879307">
        <ele>480.1</ele>
        <time>2021-04-14T10:01:52.000Z</time>
      </trkpt>
      <trkpt lat="43.293835" lon="-6.87936">
        <ele>478.3</ele>
        <time>2021-04-14T10:01:55.000Z</time>
      </trkpt>
      <trkpt lat="43.293743" lon="-6.879442">
        <ele>479.1</ele>
        <time>2021-04-14T10:01:58.000Z</time>
      </trkpt>
      <trkpt lat="43.293657" lon="-6.879507">
        <ele>478.3</ele>
        <time>2021-04-14T10:02:01.000Z</time>
      </trkpt>
      <trkpt lat="43.293558" lon="-6.879568">
        <ele>477.8</ele>
        <time>2021-04-14T10:02:04.000Z</time>
      </trkpt>
      <trkpt lat="43.293442" lon="-6.879652">
        <ele>476.4</ele>
        <time>2021-04-14T10:02:07.000Z</time>
      </trkpt>
      <trkpt lat="43.293348" lon="-6.879703">
        <ele>474.6</ele>
        <time>2021-04-14T10:02:09.000Z</time>
      </trkpt>
      <trkpt lat="43.293245" lon="-6.879727">
        <ele>475.3</ele>
        <time>2021-04-14T10:02:11.000Z</time>
      </trkpt>
      <trkpt lat="43.293122" lon="-6.879695">
        <ele>472.7</ele>
        <time>2021-04-14T10:02:14.000Z</time>
      </trkpt>
      <trkpt lat="43.293015" lon="-6.879698">
        <ele>468</ele>
        <time>2021-04-14T10:02:17.000Z</time>
      </trkpt>
      <trkpt lat="43.29296" lon="-6.879833">
        <ele>463.4</ele>
        <time>2021-04-14T10:02:21.000Z</time>
      </trkpt>
      <trkpt lat="43.292963" lon="-6.880002">
        <ele>465.2</ele>
        <time>2021-04-14T10:02:24.000Z</time>
      </trkpt>
      <trkpt lat="43.292927" lon="-6.880143">
        <ele>464.2</ele>
        <time>2021-04-14T10:02:27.000Z</time>
      </trkpt>
      <trkpt lat="43.292872" lon="-6.880247">
        <ele>464.9</ele>
        <time>2021-04-14T10:02:30.000Z</time>
      </trkpt>
      <trkpt lat="43.29278" lon="-6.880315">
        <ele>463.2</ele>
        <time>2021-04-14T10:02:33.000Z</time>
      </trkpt>
      <trkpt lat="43.292763" lon="-6.88044">
        <ele>461.5</ele>
        <time>2021-04-14T10:02:36.000Z</time>
      </trkpt>
      <trkpt lat="43.292782" lon="-6.88061">
        <ele>462.2</ele>
        <time>2021-04-14T10:02:39.000Z</time>
      </trkpt>
      <trkpt lat="43.292775" lon="-6.880733">
        <ele>462.5</ele>
        <time>2021-04-14T10:02:41.000Z</time>
      </trkpt>
      <trkpt lat="43.292738" lon="-6.880863">
        <ele>463.1</ele>
        <time>2021-04-14T10:02:43.000Z</time>
      </trkpt>
      <trkpt lat="43.292705" lon="-6.880987">
        <ele>462.9</ele>
        <time>2021-04-14T10:02:45.000Z</time>
      </trkpt>
      <trkpt lat="43.292677" lon="-6.881107">
        <ele>462.2</ele>
        <time>2021-04-14T10:02:47.000Z</time>
      </trkpt>
      <trkpt lat="43.292638" lon="-6.881263">
        <ele>461.7</ele>
        <time>2021-04-14T10:02:50.000Z</time>
      </trkpt>
      <trkpt lat="43.29263" lon="-6.881438">
        <ele>462.1</ele>
        <time>2021-04-14T10:02:53.000Z</time>
      </trkpt>
      <trkpt lat="43.292718" lon="-6.881503">
        <ele>465.3</ele>
        <time>2021-04-14T10:02:58.000Z</time>
      </trkpt>
      <trkpt lat="43.292813" lon="-6.881415">
        <ele>466</ele>
        <time>2021-04-14T10:03:01.000Z</time>
      </trkpt>
      <trkpt lat="43.292905" lon="-6.88133">
        <ele>466.9</ele>
        <time>2021-04-14T10:03:03.000Z</time>
      </trkpt>
      <trkpt lat="43.29302" lon="-6.881272">
        <ele>469.3</ele>
        <time>2021-04-14T10:03:05.000Z</time>
      </trkpt>
      <trkpt lat="43.29314" lon="-6.881232">
        <ele>472.5</ele>
        <time>2021-04-14T10:03:07.000Z</time>
      </trkpt>
      <trkpt lat="43.293252" lon="-6.881193">
        <ele>476</ele>
        <time>2021-04-14T10:03:09.000Z</time>
      </trkpt>
      <trkpt lat="43.293343" lon="-6.88116">
        <ele>477.9</ele>
        <time>2021-04-14T10:03:11.000Z</time>
      </trkpt>
      <trkpt lat="43.29347" lon="-6.881155">
        <ele>479.6</ele>
        <time>2021-04-14T10:03:14.000Z</time>
      </trkpt>
      <trkpt lat="43.293568" lon="-6.8812">
        <ele>481.5</ele>
        <time>2021-04-14T10:03:17.000Z</time>
      </trkpt>
      <trkpt lat="43.293673" lon="-6.88131">
        <ele>483.4</ele>
        <time>2021-04-14T10:03:21.000Z</time>
      </trkpt>
      <trkpt lat="43.293758" lon="-6.881405">
        <ele>485</ele>
        <time>2021-04-14T10:03:24.000Z</time>
      </trkpt>
      <trkpt lat="43.293872" lon="-6.88149">
        <ele>487.5</ele>
        <time>2021-04-14T10:03:27.000Z</time>
      </trkpt>
      <trkpt lat="43.293968" lon="-6.881508">
        <ele>494.4</ele>
        <time>2021-04-14T10:03:30.000Z</time>
      </trkpt>
      <trkpt lat="43.294057" lon="-6.88161">
        <ele>495.8</ele>
        <time>2021-04-14T10:03:33.000Z</time>
      </trkpt>
      <trkpt lat="43.294143" lon="-6.881712">
        <ele>496.2</ele>
        <time>2021-04-14T10:03:36.000Z</time>
      </trkpt>
      <trkpt lat="43.294237" lon="-6.881748">
        <ele>496.8</ele>
        <time>2021-04-14T10:03:39.000Z</time>
      </trkpt>
      <trkpt lat="43.294348" lon="-6.881715">
        <ele>499.5</ele>
        <time>2021-04-14T10:03:42.000Z</time>
      </trkpt>
      <trkpt lat="43.294477" lon="-6.881655">
        <ele>504.8</ele>
        <time>2021-04-14T10:03:45.000Z</time>
      </trkpt>
      <trkpt lat="43.2946" lon="-6.881617">
        <ele>507.3</ele>
        <time>2021-04-14T10:03:48.000Z</time>
      </trkpt>
      <trkpt lat="43.294702" lon="-6.881612">
        <ele>508.3</ele>
        <time>2021-04-14T10:03:50.000Z</time>
      </trkpt>
      <trkpt lat="43.294813" lon="-6.881628">
        <ele>508.1</ele>
        <time>2021-04-14T10:03:52.000Z</time>
      </trkpt>
      <trkpt lat="43.294912" lon="-6.881633">
        <ele>510.3</ele>
        <time>2021-04-14T10:03:54.000Z</time>
      </trkpt>
      <trkpt lat="43.295005" lon="-6.88164">
        <ele>512.1</ele>
        <time>2021-04-14T10:03:56.000Z</time>
      </trkpt>
      <trkpt lat="43.295115" lon="-6.881655">
        <ele>512.9</ele>
        <time>2021-04-14T10:03:59.000Z</time>
      </trkpt>
      <trkpt lat="43.29523" lon="-6.881713">
        <ele>512.9</ele>
        <time>2021-04-14T10:04:03.000Z</time>
      </trkpt>
      <trkpt lat="43.295322" lon="-6.881733">
        <ele>514.3</ele>
        <time>2021-04-14T10:04:06.000Z</time>
      </trkpt>
      <trkpt lat="43.295415" lon="-6.881735">
        <ele>515.9</ele>
        <time>2021-04-14T10:04:09.000Z</time>
      </trkpt>
      <trkpt lat="43.295533" lon="-6.881742">
        <ele>519.6</ele>
        <time>2021-04-14T10:04:13.000Z</time>
      </trkpt>
      <trkpt lat="43.295637" lon="-6.881783">
        <ele>522.7</ele>
        <time>2021-04-14T10:04:16.000Z</time>
      </trkpt>
      <trkpt lat="43.295742" lon="-6.881812">
        <ele>525.7</ele>
        <time>2021-04-14T10:04:19.000Z</time>
      </trkpt>
      <trkpt lat="43.29586" lon="-6.881858">
        <ele>528.3</ele>
        <time>2021-04-14T10:04:22.000Z</time>
      </trkpt>
      <trkpt lat="43.295983" lon="-6.881892">
        <ele>528.6</ele>
        <time>2021-04-14T10:04:25.000Z</time>
      </trkpt>
      <trkpt lat="43.296073" lon="-6.881955">
        <ele>526.9</ele>
        <time>2021-04-14T10:04:27.000Z</time>
      </trkpt>
      <trkpt lat="43.296178" lon="-6.881998">
        <ele>524</ele>
        <time>2021-04-14T10:04:29.000Z</time>
      </trkpt>
      <trkpt lat="43.296297" lon="-6.882005">
        <ele>522.5</ele>
        <time>2021-04-14T10:04:31.000Z</time>
      </trkpt>
      <trkpt lat="43.296408" lon="-6.882005">
        <ele>521.4</ele>
        <time>2021-04-14T10:04:33.000Z</time>
      </trkpt>
      <trkpt lat="43.29651" lon="-6.882017">
        <ele>520.9</ele>
        <time>2021-04-14T10:04:35.000Z</time>
      </trkpt>
      <trkpt lat="43.2966" lon="-6.882025">
        <ele>521</ele>
        <time>2021-04-14T10:04:37.000Z</time>
      </trkpt>
      <trkpt lat="43.296692" lon="-6.882022">
        <ele>520.9</ele>
        <time>2021-04-14T10:04:39.000Z</time>
      </trkpt>
      <trkpt lat="43.2968" lon="-6.882027">
        <ele>519.9</ele>
        <time>2021-04-14T10:04:41.000Z</time>
      </trkpt>
      <trkpt lat="43.296892" lon="-6.882025">
        <ele>519.2</ele>
        <time>2021-04-14T10:04:43.000Z</time>
      </trkpt>
      <trkpt lat="43.296987" lon="-6.882003">
        <ele>519.4</ele>
        <time>2021-04-14T10:04:45.000Z</time>
      </trkpt>
      <trkpt lat="43.29712" lon="-6.881973">
        <ele>520.6</ele>
        <time>2021-04-14T10:04:48.000Z</time>
      </trkpt>
      <trkpt lat="43.297242" lon="-6.882012">
        <ele>520.9</ele>
        <time>2021-04-14T10:04:51.000Z</time>
      </trkpt>
      <trkpt lat="43.29737" lon="-6.882015">
        <ele>520.9</ele>
        <time>2021-04-14T10:04:54.000Z</time>
      </trkpt>
      <trkpt lat="43.297457" lon="-6.88196">
        <ele>521.6</ele>
        <time>2021-04-14T10:04:57.000Z</time>
      </trkpt>
      <trkpt lat="43.297588" lon="-6.881843">
        <ele>522</ele>
        <time>2021-04-14T10:16:19.000Z</time>
      </trkpt>
      <trkpt lat="43.297613" lon="-6.881717">
        <ele>523.4</ele>
        <time>2021-04-14T10:17:34.000Z</time>
      </trkpt>
      <trkpt lat="43.297548" lon="-6.881937">
        <ele>519.4</ele>
        <time>2021-04-14T10:26:50.000Z</time>
      </trkpt>
      <trkpt lat="43.297477" lon="-6.882022">
        <ele>519.5</ele>
        <time>2021-04-14T10:27:28.000Z</time>
      </trkpt>
      <trkpt lat="43.297375" lon="-6.882075">
        <ele>525.2</ele>
        <time>2021-04-14T10:27:45.000Z</time>
      </trkpt>
      <trkpt lat="43.297505" lon="-6.881947">
        <ele>530.4</ele>
        <time>2021-04-14T10:29:32.000Z</time>
      </trkpt>
      <trkpt lat="43.297368" lon="-6.882042">
        <ele>531.2</ele>
        <time>2021-04-14T10:32:15.000Z</time>
      </trkpt>
      <trkpt lat="43.297315" lon="-6.882168">
        <ele>529.5</ele>
        <time>2021-04-14T10:32:21.000Z</time>
      </trkpt>
      <trkpt lat="43.297262" lon="-6.882297">
        <ele>526</ele>
        <time>2021-04-14T10:32:26.000Z</time>
      </trkpt>
      <trkpt lat="43.297213" lon="-6.88244">
        <ele>523.5</ele>
        <time>2021-04-14T10:32:30.000Z</time>
      </trkpt>
      <trkpt lat="43.297198" lon="-6.88257">
        <ele>521.3</ele>
        <time>2021-04-14T10:32:33.000Z</time>
      </trkpt>
      <trkpt lat="43.297158" lon="-6.882718">
        <ele>515.7</ele>
        <time>2021-04-14T10:32:36.000Z</time>
      </trkpt>
      <trkpt lat="43.297117" lon="-6.882855">
        <ele>511.7</ele>
        <time>2021-04-14T10:32:39.000Z</time>
      </trkpt>
      <trkpt lat="43.297072" lon="-6.883032">
        <ele>508</ele>
        <time>2021-04-14T10:32:42.000Z</time>
      </trkpt>
      <trkpt lat="43.297027" lon="-6.88315">
        <ele>505.5</ele>
        <time>2021-04-14T10:32:44.000Z</time>
      </trkpt>
      <trkpt lat="43.296993" lon="-6.883315">
        <ele>503.1</ele>
        <time>2021-04-14T10:32:47.000Z</time>
      </trkpt>
      <trkpt lat="43.296958" lon="-6.883442">
        <ele>502.3</ele>
        <time>2021-04-14T10:32:49.000Z</time>
      </trkpt>
      <trkpt lat="43.29694" lon="-6.883577">
        <ele>501.3</ele>
        <time>2021-04-14T10:32:51.000Z</time>
      </trkpt>
      <trkpt lat="43.296923" lon="-6.883725">
        <ele>504.4</ele>
        <time>2021-04-14T10:32:53.000Z</time>
      </trkpt>
      <trkpt lat="43.296905" lon="-6.88387">
        <ele>507.1</ele>
        <time>2021-04-14T10:32:55.000Z</time>
      </trkpt>
      <trkpt lat="43.296887" lon="-6.884015">
        <ele>508.8</ele>
        <time>2021-04-14T10:32:57.000Z</time>
      </trkpt>
      <trkpt lat="43.296863" lon="-6.884155">
        <ele>510.1</ele>
        <time>2021-04-14T10:32:59.000Z</time>
      </trkpt>
      <trkpt lat="43.296855" lon="-6.884288">
        <ele>511.2</ele>
        <time>2021-04-14T10:33:01.000Z</time>
      </trkpt>
      <trkpt lat="43.296852" lon="-6.884422">
        <ele>513.2</ele>
        <time>2021-04-14T10:33:03.000Z</time>
      </trkpt>
      <trkpt lat="43.296853" lon="-6.884553">
        <ele>514.3</ele>
        <time>2021-04-14T10:33:05.000Z</time>
      </trkpt>
      <trkpt lat="43.296852" lon="-6.884683">
        <ele>514.1</ele>
        <time>2021-04-14T10:33:07.000Z</time>
      </trkpt>
      <trkpt lat="43.296838" lon="-6.884822">
        <ele>512.3</ele>
        <time>2021-04-14T10:33:09.000Z</time>
      </trkpt>
      <trkpt lat="43.296802" lon="-6.884963">
        <ele>511.3</ele>
        <time>2021-04-14T10:33:11.000Z</time>
      </trkpt>
      <trkpt lat="43.296762" lon="-6.885102">
        <ele>510.7</ele>
        <time>2021-04-14T10:33:13.000Z</time>
      </trkpt>
      <trkpt lat="43.296732" lon="-6.885233">
        <ele>510.8</ele>
        <time>2021-04-14T10:33:15.000Z</time>
      </trkpt>
      <trkpt lat="43.296687" lon="-6.885343">
        <ele>509.3</ele>
        <time>2021-04-14T10:33:17.000Z</time>
      </trkpt>
      <trkpt lat="43.296628" lon="-6.885505">
        <ele>506.3</ele>
        <time>2021-04-14T10:33:20.000Z</time>
      </trkpt>
      <trkpt lat="43.296585" lon="-6.885658">
        <ele>504.3</ele>
        <time>2021-04-14T10:33:23.000Z</time>
      </trkpt>
      <trkpt lat="43.296555" lon="-6.885775">
        <ele>502.6</ele>
        <time>2021-04-14T10:33:25.000Z</time>
      </trkpt>
      <trkpt lat="43.296517" lon="-6.885953">
        <ele>502</ele>
        <time>2021-04-14T10:33:28.000Z</time>
      </trkpt>
      <trkpt lat="43.296508" lon="-6.886102">
        <ele>501.9</ele>
        <time>2021-04-14T10:33:30.000Z</time>
      </trkpt>
      <trkpt lat="43.296498" lon="-6.886267">
        <ele>502.3</ele>
        <time>2021-04-14T10:33:32.000Z</time>
      </trkpt>
      <trkpt lat="43.296497" lon="-6.88641">
        <ele>501.9</ele>
        <time>2021-04-14T10:33:34.000Z</time>
      </trkpt>
      <trkpt lat="43.296512" lon="-6.886562">
        <ele>501.6</ele>
        <time>2021-04-14T10:33:36.000Z</time>
      </trkpt>
      <trkpt lat="43.296535" lon="-6.88672">
        <ele>500.8</ele>
        <time>2021-04-14T10:33:38.000Z</time>
      </trkpt>
      <trkpt lat="43.296557" lon="-6.886893">
        <ele>498.9</ele>
        <time>2021-04-14T10:33:40.000Z</time>
      </trkpt>
      <trkpt lat="43.296567" lon="-6.887085">
        <ele>495.5</ele>
        <time>2021-04-14T10:33:42.000Z</time>
      </trkpt>
      <trkpt lat="43.296565" lon="-6.887247">
        <ele>492.3</ele>
        <time>2021-04-14T10:33:44.000Z</time>
      </trkpt>
      <trkpt lat="43.296563" lon="-6.887395">
        <ele>489.4</ele>
        <time>2021-04-14T10:33:46.000Z</time>
      </trkpt>
      <trkpt lat="43.296568" lon="-6.887565">
        <ele>485.3</ele>
        <time>2021-04-14T10:33:49.000Z</time>
      </trkpt>
      <trkpt lat="43.296612" lon="-6.887683">
        <ele>482.6</ele>
        <time>2021-04-14T10:33:52.000Z</time>
      </trkpt>
      <trkpt lat="43.296737" lon="-6.887695">
        <ele>480.5</ele>
        <time>2021-04-14T10:33:55.000Z</time>
      </trkpt>
      <trkpt lat="43.296857" lon="-6.88766">
        <ele>480</ele>
        <time>2021-04-14T10:33:57.000Z</time>
      </trkpt>
      <trkpt lat="43.296963" lon="-6.887653">
        <ele>479.5</ele>
        <time>2021-04-14T10:33:59.000Z</time>
      </trkpt>
      <trkpt lat="43.297053" lon="-6.88768">
        <ele>479</ele>
        <time>2021-04-14T10:34:01.000Z</time>
      </trkpt>
      <trkpt lat="43.297148" lon="-6.887707">
        <ele>479.4</ele>
        <time>2021-04-14T10:34:03.000Z</time>
      </trkpt>
      <trkpt lat="43.297255" lon="-6.887668">
        <ele>482.7</ele>
        <time>2021-04-14T10:34:05.000Z</time>
      </trkpt>
      <trkpt lat="43.29734" lon="-6.887578">
        <ele>484</ele>
        <time>2021-04-14T10:34:07.000Z</time>
      </trkpt>
      <trkpt lat="43.297432" lon="-6.887485">
        <ele>484.1</ele>
        <time>2021-04-14T10:34:09.000Z</time>
      </trkpt>
      <trkpt lat="43.297537" lon="-6.887388">
        <ele>484.4</ele>
        <time>2021-04-14T10:34:11.000Z</time>
      </trkpt>
      <trkpt lat="43.297638" lon="-6.887302">
        <ele>484.1</ele>
        <time>2021-04-14T10:34:13.000Z</time>
      </trkpt>
      <trkpt lat="43.297732" lon="-6.887227">
        <ele>483.7</ele>
        <time>2021-04-14T10:34:15.000Z</time>
      </trkpt>
      <trkpt lat="43.297845" lon="-6.887153">
        <ele>483.3</ele>
        <time>2021-04-14T10:34:18.000Z</time>
      </trkpt>
      <trkpt lat="43.297945" lon="-6.887107">
        <ele>484</ele>
        <time>2021-04-14T10:34:21.000Z</time>
      </trkpt>
      <trkpt lat="43.298053" lon="-6.887102">
        <ele>483.1</ele>
        <time>2021-04-14T10:34:24.000Z</time>
      </trkpt>
      <trkpt lat="43.298157" lon="-6.887172">
        <ele>481</ele>
        <time>2021-04-14T10:34:27.000Z</time>
      </trkpt>
      <trkpt lat="43.298233" lon="-6.887255">
        <ele>480.9</ele>
        <time>2021-04-14T10:34:30.000Z</time>
      </trkpt>
      <trkpt lat="43.298307" lon="-6.887372">
        <ele>481.4</ele>
        <time>2021-04-14T10:34:35.000Z</time>
      </trkpt>
      <trkpt lat="43.298375" lon="-6.887498">
        <ele>482.4</ele>
        <time>2021-04-14T10:34:39.000Z</time>
      </trkpt>
      <trkpt lat="43.298455" lon="-6.887598">
        <ele>481.6</ele>
        <time>2021-04-14T10:34:42.000Z</time>
      </trkpt>
      <trkpt lat="43.298557" lon="-6.887683">
        <ele>482.5</ele>
        <time>2021-04-14T10:36:59.000Z</time>
      </trkpt>
      <trkpt lat="43.298618" lon="-6.887802">
        <ele>481.9</ele>
        <time>2021-04-14T10:37:28.000Z</time>
      </trkpt>
      <trkpt lat="43.298695" lon="-6.8879">
        <ele>481.4</ele>
        <time>2021-04-14T10:37:31.000Z</time>
      </trkpt>
      <trkpt lat="43.298783" lon="-6.888025">
        <ele>481.8</ele>
        <time>2021-04-14T10:37:34.000Z</time>
      </trkpt>
      <trkpt lat="43.298852" lon="-6.888167">
        <ele>480.5</ele>
        <time>2021-04-14T10:37:37.000Z</time>
      </trkpt>
      <trkpt lat="43.298912" lon="-6.888283">
        <ele>479.6</ele>
        <time>2021-04-14T10:37:41.000Z</time>
      </trkpt>
      <trkpt lat="43.299007" lon="-6.888367">
        <ele>479.9</ele>
        <time>2021-04-14T10:37:44.000Z</time>
      </trkpt>
      <trkpt lat="43.299075" lon="-6.88845">
        <ele>479.7</ele>
        <time>2021-04-14T10:37:47.000Z</time>
      </trkpt>
      <trkpt lat="43.299148" lon="-6.88857">
        <ele>481.2</ele>
        <time>2021-04-14T10:37:51.000Z</time>
      </trkpt>
      <trkpt lat="43.299207" lon="-6.888692">
        <ele>484.5</ele>
        <time>2021-04-14T10:37:56.000Z</time>
      </trkpt>
      <trkpt lat="43.299262" lon="-6.888802">
        <ele>488.5</ele>
        <time>2021-04-14T10:38:02.000Z</time>
      </trkpt>
      <trkpt lat="43.299403" lon="-6.888817">
        <ele>491.4</ele>
        <time>2021-04-14T10:38:10.000Z</time>
      </trkpt>
      <trkpt lat="43.299527" lon="-6.888833">
        <ele>488</ele>
        <time>2021-04-14T10:38:13.000Z</time>
      </trkpt>
      <trkpt lat="43.299612" lon="-6.88874">
        <ele>484.6</ele>
        <time>2021-04-14T10:38:18.000Z</time>
      </trkpt>
      <trkpt lat="43.29966" lon="-6.88861">
        <ele>482.8</ele>
        <time>2021-04-14T10:38:23.000Z</time>
      </trkpt>
      <trkpt lat="43.299688" lon="-6.888458">
        <ele>481.2</ele>
        <time>2021-04-14T10:38:27.000Z</time>
      </trkpt>
      <trkpt lat="43.299727" lon="-6.888295">
        <ele>476.6</ele>
        <time>2021-04-14T10:38:31.000Z</time>
      </trkpt>
      <trkpt lat="43.299768" lon="-6.888127">
        <ele>476.1</ele>
        <time>2021-04-14T10:38:34.000Z</time>
      </trkpt>
      <trkpt lat="43.299823" lon="-6.88798">
        <ele>476.8</ele>
        <time>2021-04-14T10:38:37.000Z</time>
      </trkpt>
      <trkpt lat="43.299872" lon="-6.887857">
        <ele>477.5</ele>
        <time>2021-04-14T10:38:40.000Z</time>
      </trkpt>
      <trkpt lat="43.299918" lon="-6.887735">
        <ele>478.8</ele>
        <time>2021-04-14T10:38:43.000Z</time>
      </trkpt>
      <trkpt lat="43.299987" lon="-6.88763">
        <ele>481.4</ele>
        <time>2021-04-14T10:38:46.000Z</time>
      </trkpt>
      <trkpt lat="43.300068" lon="-6.887557">
        <ele>482.4</ele>
        <time>2021-04-14T10:38:49.000Z</time>
      </trkpt>
      <trkpt lat="43.300142" lon="-6.887483">
        <ele>483</ele>
        <time>2021-04-14T10:38:53.000Z</time>
      </trkpt>
      <trkpt lat="43.300215" lon="-6.8874">
        <ele>484.4</ele>
        <time>2021-04-14T10:39:00.000Z</time>
      </trkpt>
      <trkpt lat="43.300307" lon="-6.887308">
        <ele>484.6</ele>
        <time>2021-04-14T10:39:05.000Z</time>
      </trkpt>
      <trkpt lat="43.300402" lon="-6.887225">
        <ele>484.5</ele>
        <time>2021-04-14T10:39:09.000Z</time>
      </trkpt>
      <trkpt lat="43.300477" lon="-6.887153">
        <ele>484.8</ele>
        <time>2021-04-14T10:39:12.000Z</time>
      </trkpt>
      <trkpt lat="43.300555" lon="-6.887075">
        <ele>484.9</ele>
        <time>2021-04-14T10:39:15.000Z</time>
      </trkpt>
      <trkpt lat="43.300637" lon="-6.887013">
        <ele>485.3</ele>
        <time>2021-04-14T10:39:18.000Z</time>
      </trkpt>
      <trkpt lat="43.300733" lon="-6.886947">
        <ele>486.9</ele>
        <time>2021-04-14T10:39:22.000Z</time>
      </trkpt>
      <trkpt lat="43.30084" lon="-6.886915">
        <ele>486.8</ele>
        <time>2021-04-14T10:39:26.000Z</time>
      </trkpt>
      <trkpt lat="43.300935" lon="-6.886882">
        <ele>486.6</ele>
        <time>2021-04-14T10:39:30.000Z</time>
      </trkpt>
      <trkpt lat="43.301028" lon="-6.886843">
        <ele>485.8</ele>
        <time>2021-04-14T10:39:34.000Z</time>
      </trkpt>
      <trkpt lat="43.301105" lon="-6.88676">
        <ele>484.9</ele>
        <time>2021-04-14T10:39:40.000Z</time>
      </trkpt>
      <trkpt lat="43.301077" lon="-6.886635">
        <ele>484</ele>
        <time>2021-04-14T10:39:47.000Z</time>
      </trkpt>
      <trkpt lat="43.301015" lon="-6.886495">
        <ele>483.6</ele>
        <time>2021-04-14T10:39:51.000Z</time>
      </trkpt>
      <trkpt lat="43.300975" lon="-6.886367">
        <ele>483.8</ele>
        <time>2021-04-14T10:39:54.000Z</time>
      </trkpt>
      <trkpt lat="43.300925" lon="-6.886242">
        <ele>483.6</ele>
        <time>2021-04-14T10:39:57.000Z</time>
      </trkpt>
      <trkpt lat="43.300835" lon="-6.886152">
        <ele>481.9</ele>
        <time>2021-04-14T10:40:01.000Z</time>
      </trkpt>
      <trkpt lat="43.300755" lon="-6.88609">
        <ele>481.2</ele>
        <time>2021-04-14T10:40:04.000Z</time>
      </trkpt>
      <trkpt lat="43.300673" lon="-6.886023">
        <ele>480.9</ele>
        <time>2021-04-14T10:40:07.000Z</time>
      </trkpt>
      <trkpt lat="43.300592" lon="-6.88594">
        <ele>481.1</ele>
        <time>2021-04-14T10:40:11.000Z</time>
      </trkpt>
      <trkpt lat="43.300568" lon="-6.885817">
        <ele>478.6</ele>
        <time>2021-04-14T10:40:15.000Z</time>
      </trkpt>
      <trkpt lat="43.300593" lon="-6.885655">
        <ele>477.5</ele>
        <time>2021-04-14T10:40:19.000Z</time>
      </trkpt>
      <trkpt lat="43.300615" lon="-6.885533">
        <ele>476.4</ele>
        <time>2021-04-14T10:40:22.000Z</time>
      </trkpt>
      <trkpt lat="43.300653" lon="-6.88542">
        <ele>476.7</ele>
        <time>2021-04-14T10:40:25.000Z</time>
      </trkpt>
      <trkpt lat="43.300713" lon="-6.885307">
        <ele>478.6</ele>
        <time>2021-04-14T10:40:28.000Z</time>
      </trkpt>
      <trkpt lat="43.300792" lon="-6.885202">
        <ele>482.1</ele>
        <time>2021-04-14T10:40:31.000Z</time>
      </trkpt>
      <trkpt lat="43.300862" lon="-6.88508">
        <ele>493.2</ele>
        <time>2021-04-14T10:42:55.000Z</time>
      </trkpt>
      <trkpt lat="43.30094" lon="-6.885012">
        <ele>493.6</ele>
        <time>2021-04-14T10:42:58.000Z</time>
      </trkpt>
      <trkpt lat="43.301005" lon="-6.884917">
        <ele>489.3</ele>
        <time>2021-04-14T10:43:01.000Z</time>
      </trkpt>
      <trkpt lat="43.301092" lon="-6.884838">
        <ele>487.5</ele>
        <time>2021-04-14T10:43:05.000Z</time>
      </trkpt>
      <trkpt lat="43.301167" lon="-6.88477">
        <ele>487.1</ele>
        <time>2021-04-14T10:43:08.000Z</time>
      </trkpt>
      <trkpt lat="43.30127" lon="-6.884695">
        <ele>486.5</ele>
        <time>2021-04-14T10:43:12.000Z</time>
      </trkpt>
      <trkpt lat="43.301357" lon="-6.884615">
        <ele>485.8</ele>
        <time>2021-04-14T10:43:15.000Z</time>
      </trkpt>
      <trkpt lat="43.301458" lon="-6.884537">
        <ele>484.9</ele>
        <time>2021-04-14T10:43:18.000Z</time>
      </trkpt>
      <trkpt lat="43.301567" lon="-6.88445">
        <ele>484.1</ele>
        <time>2021-04-14T10:43:21.000Z</time>
      </trkpt>
      <trkpt lat="43.30166" lon="-6.884368">
        <ele>483.8</ele>
        <time>2021-04-14T10:43:24.000Z</time>
      </trkpt>
      <trkpt lat="43.301748" lon="-6.884275">
        <ele>485</ele>
        <time>2021-04-14T10:43:28.000Z</time>
      </trkpt>
      <trkpt lat="43.30182" lon="-6.884178">
        <ele>485.3</ele>
        <time>2021-04-14T10:43:32.000Z</time>
      </trkpt>
      <trkpt lat="43.301897" lon="-6.88405">
        <ele>486.4</ele>
        <time>2021-04-14T10:43:36.000Z</time>
      </trkpt>
      <trkpt lat="43.301962" lon="-6.883918">
        <ele>489.5</ele>
        <time>2021-04-14T10:43:40.000Z</time>
      </trkpt>
      <trkpt lat="43.302033" lon="-6.88384">
        <ele>490.7</ele>
        <time>2021-04-14T10:43:44.000Z</time>
      </trkpt>
      <trkpt lat="43.302103" lon="-6.88374">
        <ele>492.9</ele>
        <time>2021-04-14T10:43:47.000Z</time>
      </trkpt>
      <trkpt lat="43.302177" lon="-6.883628">
        <ele>495.2</ele>
        <time>2021-04-14T10:43:50.000Z</time>
      </trkpt>
      <trkpt lat="43.30225" lon="-6.883537">
        <ele>498.4</ele>
        <time>2021-04-14T10:43:53.000Z</time>
      </trkpt>
      <trkpt lat="43.302327" lon="-6.883433">
        <ele>501.3</ele>
        <time>2021-04-14T10:43:57.000Z</time>
      </trkpt>
      <trkpt lat="43.302392" lon="-6.883343">
        <ele>502.9</ele>
        <time>2021-04-14T10:44:00.000Z</time>
      </trkpt>
      <trkpt lat="43.302475" lon="-6.883245">
        <ele>505.1</ele>
        <time>2021-04-14T10:44:04.000Z</time>
      </trkpt>
      <trkpt lat="43.302562" lon="-6.883122">
        <ele>506.7</ele>
        <time>2021-04-14T10:44:08.000Z</time>
      </trkpt>
      <trkpt lat="43.302622" lon="-6.883012">
        <ele>505.9</ele>
        <time>2021-04-14T10:44:11.000Z</time>
      </trkpt>
      <trkpt lat="43.30267" lon="-6.882903">
        <ele>504.3</ele>
        <time>2021-04-14T10:44:14.000Z</time>
      </trkpt>
      <trkpt lat="43.302723" lon="-6.882787">
        <ele>505.6</ele>
        <time>2021-04-14T10:44:18.000Z</time>
      </trkpt>
      <trkpt lat="43.302782" lon="-6.882665">
        <ele>506.2</ele>
        <time>2021-04-14T10:44:22.000Z</time>
      </trkpt>
      <trkpt lat="43.302837" lon="-6.882553">
        <ele>506.4</ele>
        <time>2021-04-14T10:44:26.000Z</time>
      </trkpt>
      <trkpt lat="43.302908" lon="-6.882473">
        <ele>508.9</ele>
        <time>2021-04-14T10:44:30.000Z</time>
      </trkpt>
      <trkpt lat="43.302995" lon="-6.882387">
        <ele>511.2</ele>
        <time>2021-04-14T10:44:34.000Z</time>
      </trkpt>
      <trkpt lat="43.303075" lon="-6.882297">
        <ele>512.8</ele>
        <time>2021-04-14T10:44:38.000Z</time>
      </trkpt>
      <trkpt lat="43.303153" lon="-6.882198">
        <ele>514.5</ele>
        <time>2021-04-14T10:44:43.000Z</time>
      </trkpt>
      <trkpt lat="43.303233" lon="-6.8821">
        <ele>515.8</ele>
        <time>2021-04-14T10:44:48.000Z</time>
      </trkpt>
      <trkpt lat="43.303335" lon="-6.882018">
        <ele>513.8</ele>
        <time>2021-04-14T10:44:51.000Z</time>
      </trkpt>
      <trkpt lat="43.303433" lon="-6.881965">
        <ele>513</ele>
        <time>2021-04-14T10:44:54.000Z</time>
      </trkpt>
      <trkpt lat="43.30355" lon="-6.881935">
        <ele>510.6</ele>
        <time>2021-04-14T10:44:58.000Z</time>
      </trkpt>
      <trkpt lat="43.30364" lon="-6.881927">
        <ele>509.3</ele>
        <time>2021-04-14T10:45:01.000Z</time>
      </trkpt>
      <trkpt lat="43.303732" lon="-6.881898">
        <ele>508.6</ele>
        <time>2021-04-14T10:45:05.000Z</time>
      </trkpt>
      <trkpt lat="43.303785" lon="-6.881787">
        <ele>507.6</ele>
        <time>2021-04-14T10:45:09.000Z</time>
      </trkpt>
      <trkpt lat="43.303818" lon="-6.881663">
        <ele>506.3</ele>
        <time>2021-04-14T10:45:18.000Z</time>
      </trkpt>
      <trkpt lat="43.303803" lon="-6.881513">
        <ele>504.3</ele>
        <time>2021-04-14T10:45:22.000Z</time>
      </trkpt>
      <trkpt lat="43.303805" lon="-6.881385">
        <ele>503.9</ele>
        <time>2021-04-14T10:49:57.000Z</time>
      </trkpt>
      <trkpt lat="43.30381" lon="-6.881238">
        <ele>504.4</ele>
        <time>2021-04-14T10:50:00.000Z</time>
      </trkpt>
      <trkpt lat="43.30382" lon="-6.881097">
        <ele>504.6</ele>
        <time>2021-04-14T10:50:04.000Z</time>
      </trkpt>
      <trkpt lat="43.303848" lon="-6.880947">
        <ele>505.1</ele>
        <time>2021-04-14T10:50:08.000Z</time>
      </trkpt>
      <trkpt lat="43.303878" lon="-6.880828">
        <ele>505.5</ele>
        <time>2021-04-14T10:50:11.000Z</time>
      </trkpt>
      <trkpt lat="43.303907" lon="-6.88071">
        <ele>506.2</ele>
        <time>2021-04-14T10:50:14.000Z</time>
      </trkpt>
      <trkpt lat="43.303938" lon="-6.880558">
        <ele>507</ele>
        <time>2021-04-14T10:50:17.000Z</time>
      </trkpt>
      <trkpt lat="43.303967" lon="-6.88044">
        <ele>507.6</ele>
        <time>2021-04-14T10:50:19.000Z</time>
      </trkpt>
      <trkpt lat="43.304025" lon="-6.880282">
        <ele>507.9</ele>
        <time>2021-04-14T10:50:22.000Z</time>
      </trkpt>
      <trkpt lat="43.304072" lon="-6.880143">
        <ele>508.9</ele>
        <time>2021-04-14T10:50:25.000Z</time>
      </trkpt>
      <trkpt lat="43.30412" lon="-6.880012">
        <ele>510.3</ele>
        <time>2021-04-14T10:50:28.000Z</time>
      </trkpt>
      <trkpt lat="43.304167" lon="-6.879877">
        <ele>511.8</ele>
        <time>2021-04-14T10:50:31.000Z</time>
      </trkpt>
      <trkpt lat="43.304218" lon="-6.879753">
        <ele>511.8</ele>
        <time>2021-04-14T10:50:34.000Z</time>
      </trkpt>
      <trkpt lat="43.304257" lon="-6.87963">
        <ele>511.7</ele>
        <time>2021-04-14T10:50:37.000Z</time>
      </trkpt>
      <trkpt lat="43.304343" lon="-6.879523">
        <ele>511.6</ele>
        <time>2021-04-14T10:50:41.000Z</time>
      </trkpt>
      <trkpt lat="43.30443" lon="-6.879455">
        <ele>511</ele>
        <time>2021-04-14T10:50:44.000Z</time>
      </trkpt>
      <trkpt lat="43.304517" lon="-6.879382">
        <ele>511.1</ele>
        <time>2021-04-14T10:50:48.000Z</time>
      </trkpt>
      <trkpt lat="43.304625" lon="-6.879318">
        <ele>510.9</ele>
        <time>2021-04-14T10:50:52.000Z</time>
      </trkpt>
      <trkpt lat="43.304713" lon="-6.879282">
        <ele>510.7</ele>
        <time>2021-04-14T10:50:54.000Z</time>
      </trkpt>
      <trkpt lat="43.304833" lon="-6.87923">
        <ele>510.6</ele>
        <time>2021-04-14T10:50:57.000Z</time>
      </trkpt>
      <trkpt lat="43.304927" lon="-6.879195">
        <ele>510.8</ele>
        <time>2021-04-14T10:51:00.000Z</time>
      </trkpt>
      <trkpt lat="43.305052" lon="-6.87913">
        <ele>512.1</ele>
        <time>2021-04-14T10:51:03.000Z</time>
      </trkpt>
      <trkpt lat="43.30514" lon="-6.879093">
        <ele>513</ele>
        <time>2021-04-14T10:51:05.000Z</time>
      </trkpt>
      <trkpt lat="43.305237" lon="-6.879095">
        <ele>513.9</ele>
        <time>2021-04-14T10:51:08.000Z</time>
      </trkpt>
      <trkpt lat="43.305342" lon="-6.87911">
        <ele>513.7</ele>
        <time>2021-04-14T10:51:12.000Z</time>
      </trkpt>
      <trkpt lat="43.30546" lon="-6.87912">
        <ele>512.4</ele>
        <time>2021-04-14T10:51:15.000Z</time>
      </trkpt>
      <trkpt lat="43.305558" lon="-6.879122">
        <ele>511.7</ele>
        <time>2021-04-14T10:51:17.000Z</time>
      </trkpt>
      <trkpt lat="43.30565" lon="-6.87911">
        <ele>511.1</ele>
        <time>2021-04-14T10:51:19.000Z</time>
      </trkpt>
      <trkpt lat="43.305767" lon="-6.879082">
        <ele>511.4</ele>
        <time>2021-04-14T10:51:22.000Z</time>
      </trkpt>
      <trkpt lat="43.305855" lon="-6.879005">
        <ele>512</ele>
        <time>2021-04-14T10:51:27.000Z</time>
      </trkpt>
      <trkpt lat="43.305845" lon="-6.87884">
        <ele>511.9</ele>
        <time>2021-04-14T10:51:31.000Z</time>
      </trkpt>
      <trkpt lat="43.30581" lon="-6.878717">
        <ele>512.4</ele>
        <time>2021-04-14T10:51:37.000Z</time>
      </trkpt>
      <trkpt lat="43.305782" lon="-6.878577">
        <ele>512.8</ele>
        <time>2021-04-14T10:51:40.000Z</time>
      </trkpt>
      <trkpt lat="43.305782" lon="-6.87844">
        <ele>512.9</ele>
        <time>2021-04-14T10:51:43.000Z</time>
      </trkpt>
      <trkpt lat="43.305772" lon="-6.878285">
        <ele>514</ele>
        <time>2021-04-14T10:51:47.000Z</time>
      </trkpt>
      <trkpt lat="43.305743" lon="-6.878148">
        <ele>521.3</ele>
        <time>2021-04-14T10:51:51.000Z</time>
      </trkpt>
      <trkpt lat="43.305732" lon="-6.878013">
        <ele>524.2</ele>
        <time>2021-04-14T10:51:55.000Z</time>
      </trkpt>
      <trkpt lat="43.305732" lon="-6.877873">
        <ele>526.5</ele>
        <time>2021-04-14T10:51:59.000Z</time>
      </trkpt>
      <trkpt lat="43.30573" lon="-6.877725">
        <ele>528.2</ele>
        <time>2021-04-14T10:52:02.000Z</time>
      </trkpt>
      <trkpt lat="43.305735" lon="-6.877573">
        <ele>529.5</ele>
        <time>2021-04-14T10:52:05.000Z</time>
      </trkpt>
      <trkpt lat="43.305732" lon="-6.877427">
        <ele>530.8</ele>
        <time>2021-04-14T10:52:08.000Z</time>
      </trkpt>
      <trkpt lat="43.305752" lon="-6.877278">
        <ele>532</ele>
        <time>2021-04-14T10:52:12.000Z</time>
      </trkpt>
      <trkpt lat="43.305775" lon="-6.877123">
        <ele>531.5</ele>
        <time>2021-04-14T10:52:15.000Z</time>
      </trkpt>
      <trkpt lat="43.305808" lon="-6.877007">
        <ele>530.7</ele>
        <time>2021-04-14T10:52:18.000Z</time>
      </trkpt>
      <trkpt lat="43.305867" lon="-6.876855">
        <ele>531.2</ele>
        <time>2021-04-14T10:52:21.000Z</time>
      </trkpt>
      <trkpt lat="43.305937" lon="-6.876705">
        <ele>532.8</ele>
        <time>2021-04-14T10:52:24.000Z</time>
      </trkpt>
      <trkpt lat="43.305993" lon="-6.876585">
        <ele>534.4</ele>
        <time>2021-04-14T10:52:27.000Z</time>
      </trkpt>
      <trkpt lat="43.306045" lon="-6.876475">
        <ele>538.4</ele>
        <time>2021-04-14T10:52:30.000Z</time>
      </trkpt>
      <trkpt lat="43.306128" lon="-6.876383">
        <ele>543.1</ele>
        <time>2021-04-14T10:52:33.000Z</time>
      </trkpt>
      <trkpt lat="43.306237" lon="-6.876343">
        <ele>544.8</ele>
        <time>2021-04-14T10:52:36.000Z</time>
      </trkpt>
      <trkpt lat="43.30632" lon="-6.87629">
        <ele>545.5</ele>
        <time>2021-04-14T10:52:39.000Z</time>
      </trkpt>
      <trkpt lat="43.30641" lon="-6.876263">
        <ele>543.6</ele>
        <time>2021-04-14T10:52:42.000Z</time>
      </trkpt>
      <trkpt lat="43.306508" lon="-6.876207">
        <ele>543.4</ele>
        <time>2021-04-14T10:52:45.000Z</time>
      </trkpt>
      <trkpt lat="43.306603" lon="-6.876162">
        <ele>542.3</ele>
        <time>2021-04-14T10:52:48.000Z</time>
      </trkpt>
      <trkpt lat="43.306695" lon="-6.87612">
        <ele>541.9</ele>
        <time>2021-04-14T10:52:51.000Z</time>
      </trkpt>
      <trkpt lat="43.306812" lon="-6.87608">
        <ele>542.4</ele>
        <time>2021-04-14T10:52:54.000Z</time>
      </trkpt>
      <trkpt lat="43.306918" lon="-6.876045">
        <ele>545.2</ele>
        <time>2021-04-14T10:52:57.000Z</time>
      </trkpt>
      <trkpt lat="43.307015" lon="-6.876015">
        <ele>547</ele>
        <time>2021-04-14T10:53:01.000Z</time>
      </trkpt>
      <trkpt lat="43.307118" lon="-6.87595">
        <ele>547</ele>
        <time>2021-04-14T10:53:18.000Z</time>
      </trkpt>
      <trkpt lat="43.307203" lon="-6.87589">
        <ele>547.1</ele>
        <time>2021-04-14T10:53:21.000Z</time>
      </trkpt>
      <trkpt lat="43.30729" lon="-6.875815">
        <ele>547.6</ele>
        <time>2021-04-14T10:53:24.000Z</time>
      </trkpt>
      <trkpt lat="43.307368" lon="-6.875735">
        <ele>549.4</ele>
        <time>2021-04-14T10:53:27.000Z</time>
      </trkpt>
      <trkpt lat="43.307453" lon="-6.875652">
        <ele>551.3</ele>
        <time>2021-04-14T10:53:30.000Z</time>
      </trkpt>
      <trkpt lat="43.307548" lon="-6.875572">
        <ele>552.1</ele>
        <time>2021-04-14T10:53:34.000Z</time>
      </trkpt>
      <trkpt lat="43.307657" lon="-6.8755">
        <ele>551.9</ele>
        <time>2021-04-14T10:53:38.000Z</time>
      </trkpt>
      <trkpt lat="43.30777" lon="-6.875475">
        <ele>551.5</ele>
        <time>2021-04-14T10:53:42.000Z</time>
      </trkpt>
      <trkpt lat="43.30786" lon="-6.875497">
        <ele>550.3</ele>
        <time>2021-04-14T10:53:45.000Z</time>
      </trkpt>
      <trkpt lat="43.307965" lon="-6.875488">
        <ele>550.6</ele>
        <time>2021-04-14T10:53:48.000Z</time>
      </trkpt>
      <trkpt lat="43.308025" lon="-6.875367">
        <ele>550.7</ele>
        <time>2021-04-14T10:53:52.000Z</time>
      </trkpt>
      <trkpt lat="43.307988" lon="-6.875227">
        <ele>550.1</ele>
        <time>2021-04-14T10:53:56.000Z</time>
      </trkpt>
      <trkpt lat="43.307947" lon="-6.875102">
        <ele>549.8</ele>
        <time>2021-04-14T10:53:59.000Z</time>
      </trkpt>
      <trkpt lat="43.30794" lon="-6.874948">
        <ele>553.2</ele>
        <time>2021-04-14T10:54:03.000Z</time>
      </trkpt>
      <trkpt lat="43.308007" lon="-6.874805">
        <ele>559.3</ele>
        <time>2021-04-14T10:54:07.000Z</time>
      </trkpt>
      <trkpt lat="43.308092" lon="-6.874668">
        <ele>562.9</ele>
        <time>2021-04-14T10:54:10.000Z</time>
      </trkpt>
      <trkpt lat="43.308167" lon="-6.87454">
        <ele>566.2</ele>
        <time>2021-04-14T10:54:13.000Z</time>
      </trkpt>
      <trkpt lat="43.308258" lon="-6.874438">
        <ele>569.7</ele>
        <time>2021-04-14T10:54:17.000Z</time>
      </trkpt>
      <trkpt lat="43.308328" lon="-6.874348">
        <ele>571.4</ele>
        <time>2021-04-14T10:54:20.000Z</time>
      </trkpt>
      <trkpt lat="43.308358" lon="-6.87423">
        <ele>571.1</ele>
        <time>2021-04-14T10:54:23.000Z</time>
      </trkpt>
      <trkpt lat="43.308303" lon="-6.874088">
        <ele>571</ele>
        <time>2021-04-14T10:54:26.000Z</time>
      </trkpt>
      <trkpt lat="43.308218" lon="-6.873952">
        <ele>571.4</ele>
        <time>2021-04-14T10:54:29.000Z</time>
      </trkpt>
      <trkpt lat="43.308133" lon="-6.873825">
        <ele>573.3</ele>
        <time>2021-04-14T10:54:32.000Z</time>
      </trkpt>
      <trkpt lat="43.30806" lon="-6.873723">
        <ele>574.8</ele>
        <time>2021-04-14T10:54:35.000Z</time>
      </trkpt>
      <trkpt lat="43.308033" lon="-6.8736">
        <ele>576.2</ele>
        <time>2021-04-14T10:54:38.000Z</time>
      </trkpt>
      <trkpt lat="43.308062" lon="-6.873427">
        <ele>578.1</ele>
        <time>2021-04-14T10:54:41.000Z</time>
      </trkpt>
      <trkpt lat="43.30812" lon="-6.873292">
        <ele>578.8</ele>
        <time>2021-04-14T10:54:44.000Z</time>
      </trkpt>
      <trkpt lat="43.308192" lon="-6.873165">
        <ele>580</ele>
        <time>2021-04-14T10:54:47.000Z</time>
      </trkpt>
      <trkpt lat="43.308268" lon="-6.873028">
        <ele>584.7</ele>
        <time>2021-04-14T10:54:50.000Z</time>
      </trkpt>
      <trkpt lat="43.308333" lon="-6.87292">
        <ele>586.8</ele>
        <time>2021-04-14T10:54:52.000Z</time>
      </trkpt>
      <trkpt lat="43.3084" lon="-6.87282">
        <ele>587.7</ele>
        <time>2021-04-14T10:54:54.000Z</time>
      </trkpt>
      <trkpt lat="43.308455" lon="-6.872718">
        <ele>588.6</ele>
        <time>2021-04-14T10:54:56.000Z</time>
      </trkpt>
      <trkpt lat="43.308517" lon="-6.87258">
        <ele>590.6</ele>
        <time>2021-04-14T10:54:59.000Z</time>
      </trkpt>
      <trkpt lat="43.308572" lon="-6.872465">
        <ele>591.4</ele>
        <time>2021-04-14T10:55:02.000Z</time>
      </trkpt>
      <trkpt lat="43.308613" lon="-6.872327">
        <ele>593</ele>
        <time>2021-04-14T10:55:05.000Z</time>
      </trkpt>
      <trkpt lat="43.308648" lon="-6.872185">
        <ele>595.3</ele>
        <time>2021-04-14T10:55:08.000Z</time>
      </trkpt>
      <trkpt lat="43.308673" lon="-6.872022">
        <ele>597.1</ele>
        <time>2021-04-14T10:55:11.000Z</time>
      </trkpt>
      <trkpt lat="43.308705" lon="-6.871842">
        <ele>598</ele>
        <time>2021-04-14T10:55:14.000Z</time>
      </trkpt>
      <trkpt lat="43.308727" lon="-6.871718">
        <ele>598.3</ele>
        <time>2021-04-14T10:55:16.000Z</time>
      </trkpt>
      <trkpt lat="43.308765" lon="-6.871598">
        <ele>598.1</ele>
        <time>2021-04-14T10:55:18.000Z</time>
      </trkpt>
      <trkpt lat="43.308813" lon="-6.871478">
        <ele>597.7</ele>
        <time>2021-04-14T10:55:20.000Z</time>
      </trkpt>
      <trkpt lat="43.308865" lon="-6.871368">
        <ele>597.5</ele>
        <time>2021-04-14T10:55:22.000Z</time>
      </trkpt>
      <trkpt lat="43.308915" lon="-6.871245">
        <ele>597.1</ele>
        <time>2021-04-14T10:55:24.000Z</time>
      </trkpt>
      <trkpt lat="43.308962" lon="-6.871115">
        <ele>597.2</ele>
        <time>2021-04-14T10:55:26.000Z</time>
      </trkpt>
      <trkpt lat="43.309005" lon="-6.870993">
        <ele>597.3</ele>
        <time>2021-04-14T10:55:28.000Z</time>
      </trkpt>
      <trkpt lat="43.309043" lon="-6.870827">
        <ele>597.6</ele>
        <time>2021-04-14T10:55:31.000Z</time>
      </trkpt>
      <trkpt lat="43.309057" lon="-6.870665">
        <ele>596.5</ele>
        <time>2021-04-14T10:55:34.000Z</time>
      </trkpt>
      <trkpt lat="43.309057" lon="-6.87054">
        <ele>596.9</ele>
        <time>2021-04-14T10:55:36.000Z</time>
      </trkpt>
      <trkpt lat="43.30908" lon="-6.870367">
        <ele>597</ele>
        <time>2021-04-14T10:55:39.000Z</time>
      </trkpt>
      <trkpt lat="43.309123" lon="-6.870208">
        <ele>597.8</ele>
        <time>2021-04-14T10:55:42.000Z</time>
      </trkpt>
      <trkpt lat="43.309198" lon="-6.870053">
        <ele>599</ele>
        <time>2021-04-14T10:55:45.000Z</time>
      </trkpt>
      <trkpt lat="43.309265" lon="-6.869955">
        <ele>599.1</ele>
        <time>2021-04-14T10:55:47.000Z</time>
      </trkpt>
      <trkpt lat="43.309357" lon="-6.869863">
        <ele>599.4</ele>
        <time>2021-04-14T10:55:49.000Z</time>
      </trkpt>
      <trkpt lat="43.309455" lon="-6.869778">
        <ele>600.2</ele>
        <time>2021-04-14T10:55:51.000Z</time>
      </trkpt>
      <trkpt lat="43.309553" lon="-6.869697">
        <ele>601.2</ele>
        <time>2021-04-14T10:55:53.000Z</time>
      </trkpt>
      <trkpt lat="43.309627" lon="-6.869612">
        <ele>602.9</ele>
        <time>2021-04-14T10:55:55.000Z</time>
      </trkpt>
      <trkpt lat="43.309707" lon="-6.869507">
        <ele>605.7</ele>
        <time>2021-04-14T10:55:58.000Z</time>
      </trkpt>
      <trkpt lat="43.30981" lon="-6.869387">
        <ele>606.5</ele>
        <time>2021-04-14T10:56:01.000Z</time>
      </trkpt>
      <trkpt lat="43.30988" lon="-6.869288">
        <ele>606.4</ele>
        <time>2021-04-14T10:56:03.000Z</time>
      </trkpt>
      <trkpt lat="43.309952" lon="-6.86918">
        <ele>606.6</ele>
        <time>2021-04-14T10:56:05.000Z</time>
      </trkpt>
      <trkpt lat="43.310028" lon="-6.869095">
        <ele>606.9</ele>
        <time>2021-04-14T10:56:07.000Z</time>
      </trkpt>
      <trkpt lat="43.310137" lon="-6.869022">
        <ele>607.9</ele>
        <time>2021-04-14T10:56:10.000Z</time>
      </trkpt>
      <trkpt lat="43.310162" lon="-6.868872">
        <ele>610.6</ele>
        <time>2021-04-14T11:01:14.000Z</time>
      </trkpt>
      <trkpt lat="43.310238" lon="-6.868942">
        <ele>610.5</ele>
        <time>2021-04-14T11:56:51.000Z</time>
      </trkpt>
      <trkpt lat="43.310368" lon="-6.869003">
        <ele>619.6</ele>
        <time>2021-04-14T12:20:50.000Z</time>
      </trkpt>
      <trkpt lat="43.310377" lon="-6.869127">
        <ele>619</ele>
        <time>2021-04-14T12:20:54.000Z</time>
      </trkpt>
      <trkpt lat="43.310285" lon="-6.869088">
        <ele>619</ele>
        <time>2021-04-14T12:20:56.000Z</time>
      </trkpt>
      <trkpt lat="43.310203" lon="-6.868923">
        <ele>615.1</ele>
        <time>2021-04-14T12:22:18.000Z</time>
      </trkpt>
      <trkpt lat="43.310212" lon="-6.868798">
        <ele>619</ele>
        <time>2021-04-14T12:27:33.000Z</time>
      </trkpt>
      <trkpt lat="43.3102" lon="-6.869057">
        <ele>633.2</ele>
        <time>2021-04-14T12:28:47.000Z</time>
      </trkpt>
      <trkpt lat="43.31015" lon="-6.868953">
        <ele>631.2</ele>
        <time>2021-04-14T12:30:39.000Z</time>
      </trkpt>
      <trkpt lat="43.309742" lon="-6.87559">
        <ele>661.3</ele>
        <time>2021-04-14T12:37:29.000Z</time>
      </trkpt>
      <trkpt lat="43.309832" lon="-6.875632">
        <ele>661.6</ele>
        <time>2021-04-14T12:37:36.000Z</time>
      </trkpt>
      <trkpt lat="43.30988" lon="-6.875758">
        <ele>660.7</ele>
        <time>2021-04-14T12:37:39.000Z</time>
      </trkpt>
      <trkpt lat="43.30993" lon="-6.875898">
        <ele>659.8</ele>
        <time>2021-04-14T12:37:42.000Z</time>
      </trkpt>
      <trkpt lat="43.309953" lon="-6.876032">
        <ele>659.1</ele>
        <time>2021-04-14T12:37:46.000Z</time>
      </trkpt>
      <trkpt lat="43.309993" lon="-6.876173">
        <ele>662.8</ele>
        <time>2021-04-14T12:37:54.000Z</time>
      </trkpt>
      <trkpt lat="43.310015" lon="-6.876322">
        <ele>663.2</ele>
        <time>2021-04-14T12:37:57.000Z</time>
      </trkpt>
      <trkpt lat="43.310037" lon="-6.876467">
        <ele>662.9</ele>
        <time>2021-04-14T12:38:00.000Z</time>
      </trkpt>
      <trkpt lat="43.310047" lon="-6.876595">
        <ele>662.8</ele>
        <time>2021-04-14T12:38:03.000Z</time>
      </trkpt>
      <trkpt lat="43.310063" lon="-6.876757">
        <ele>662.4</ele>
        <time>2021-04-14T12:38:07.000Z</time>
      </trkpt>
      <trkpt lat="43.310078" lon="-6.876888">
        <ele>661.7</ele>
        <time>2021-04-14T12:38:10.000Z</time>
      </trkpt>
      <trkpt lat="43.310092" lon="-6.87702">
        <ele>661</ele>
        <time>2021-04-14T12:38:13.000Z</time>
      </trkpt>
      <trkpt lat="43.310108" lon="-6.877168">
        <ele>660.6</ele>
        <time>2021-04-14T12:38:16.000Z</time>
      </trkpt>
      <trkpt lat="43.310107" lon="-6.877318">
        <ele>661.4</ele>
        <time>2021-04-14T12:38:19.000Z</time>
      </trkpt>
      <trkpt lat="43.310097" lon="-6.877447">
        <ele>661.7</ele>
        <time>2021-04-14T12:38:22.000Z</time>
      </trkpt>
      <trkpt lat="43.310065" lon="-6.877595">
        <ele>665.3</ele>
        <time>2021-04-14T12:38:25.000Z</time>
      </trkpt>
      <trkpt lat="43.310052" lon="-6.877738">
        <ele>666.7</ele>
        <time>2021-04-14T12:38:30.000Z</time>
      </trkpt>
      <trkpt lat="43.310037" lon="-6.877882">
        <ele>666.6</ele>
        <time>2021-04-14T12:38:35.000Z</time>
      </trkpt>
      <trkpt lat="43.30995" lon="-6.877962">
        <ele>661.6</ele>
        <time>2021-04-14T12:38:40.000Z</time>
      </trkpt>
      <trkpt lat="43.309827" lon="-6.877962">
        <ele>660.2</ele>
        <time>2021-04-14T12:38:43.000Z</time>
      </trkpt>
      <trkpt lat="43.309718" lon="-6.877922">
        <ele>660.3</ele>
        <time>2021-04-14T12:38:46.000Z</time>
      </trkpt>
      <trkpt lat="43.309605" lon="-6.877888">
        <ele>662.2</ele>
        <time>2021-04-14T12:38:49.000Z</time>
      </trkpt>
      <trkpt lat="43.309582" lon="-6.878015">
        <ele>661.8</ele>
        <time>2021-04-14T12:39:28.000Z</time>
      </trkpt>
      <trkpt lat="43.309545" lon="-6.8779">
        <ele>670.2</ele>
        <time>2021-04-14T12:39:38.000Z</time>
      </trkpt>
      <trkpt lat="43.309445" lon="-6.87785">
        <ele>680.3</ele>
        <time>2021-04-14T12:39:43.000Z</time>
      </trkpt>
      <trkpt lat="43.309357" lon="-6.877825">
        <ele>679.5</ele>
        <time>2021-04-14T12:39:47.000Z</time>
      </trkpt>
      <trkpt lat="43.30926" lon="-6.877785">
        <ele>679.3</ele>
        <time>2021-04-14T12:39:50.000Z</time>
      </trkpt>
      <trkpt lat="43.309167" lon="-6.877765">
        <ele>678</ele>
        <time>2021-04-14T12:39:53.000Z</time>
      </trkpt>
      <trkpt lat="43.309077" lon="-6.87776">
        <ele>676.4</ele>
        <time>2021-04-14T12:39:56.000Z</time>
      </trkpt>
      <trkpt lat="43.308972" lon="-6.877762">
        <ele>673.1</ele>
        <time>2021-04-14T12:40:00.000Z</time>
      </trkpt>
      <trkpt lat="43.308855" lon="-6.877777">
        <ele>670.9</ele>
        <time>2021-04-14T12:40:04.000Z</time>
      </trkpt>
      <trkpt lat="43.308758" lon="-6.877798">
        <ele>671.6</ele>
        <time>2021-04-14T12:40:07.000Z</time>
      </trkpt>
      <trkpt lat="43.308655" lon="-6.877807">
        <ele>673.2</ele>
        <time>2021-04-14T12:40:10.000Z</time>
      </trkpt>
      <trkpt lat="43.308563" lon="-6.877845">
        <ele>674</ele>
        <time>2021-04-14T12:40:13.000Z</time>
      </trkpt>
      <trkpt lat="43.308467" lon="-6.877922">
        <ele>673.3</ele>
        <time>2021-04-14T12:40:16.000Z</time>
      </trkpt>
      <trkpt lat="43.308393" lon="-6.878018">
        <ele>673.2</ele>
        <time>2021-04-14T12:40:19.000Z</time>
      </trkpt>
      <trkpt lat="43.308325" lon="-6.87814">
        <ele>677.6</ele>
        <time>2021-04-14T12:40:23.000Z</time>
      </trkpt>
      <trkpt lat="43.308282" lon="-6.878267">
        <ele>682.9</ele>
        <time>2021-04-14T12:40:29.000Z</time>
      </trkpt>
      <trkpt lat="43.30825" lon="-6.878415">
        <ele>683.9</ele>
        <time>2021-04-14T12:40:34.000Z</time>
      </trkpt>
      <trkpt lat="43.30825" lon="-6.878577">
        <ele>683.2</ele>
        <time>2021-04-14T12:40:38.000Z</time>
      </trkpt>
      <trkpt lat="43.308262" lon="-6.878727">
        <ele>682.6</ele>
        <time>2021-04-14T12:40:42.000Z</time>
      </trkpt>
      <trkpt lat="43.308245" lon="-6.878885">
        <ele>686.9</ele>
        <time>2021-04-14T12:40:46.000Z</time>
      </trkpt>
      <trkpt lat="43.308252" lon="-6.879018">
        <ele>686.6</ele>
        <time>2021-04-14T12:40:49.000Z</time>
      </trkpt>
      <trkpt lat="43.308277" lon="-6.879163">
        <ele>688.5</ele>
        <time>2021-04-14T12:40:52.000Z</time>
      </trkpt>
      <trkpt lat="43.30829" lon="-6.879295">
        <ele>689.1</ele>
        <time>2021-04-14T12:40:55.000Z</time>
      </trkpt>
      <trkpt lat="43.308313" lon="-6.87945">
        <ele>692.3</ele>
        <time>2021-04-14T12:40:58.000Z</time>
      </trkpt>
      <trkpt lat="43.308328" lon="-6.879597">
        <ele>692.6</ele>
        <time>2021-04-14T12:41:01.000Z</time>
      </trkpt>
      <trkpt lat="43.308365" lon="-6.87975">
        <ele>695.6</ele>
        <time>2021-04-14T12:41:04.000Z</time>
      </trkpt>
      <trkpt lat="43.308378" lon="-6.879902">
        <ele>693.9</ele>
        <time>2021-04-14T12:41:07.000Z</time>
      </trkpt>
      <trkpt lat="43.308402" lon="-6.880028">
        <ele>693.7</ele>
        <time>2021-04-14T12:41:10.000Z</time>
      </trkpt>
      <trkpt lat="43.308445" lon="-6.880145">
        <ele>694.3</ele>
        <time>2021-04-14T12:41:13.000Z</time>
      </trkpt>
      <trkpt lat="43.308493" lon="-6.880283">
        <ele>694.9</ele>
        <time>2021-04-14T12:41:16.000Z</time>
      </trkpt>
      <trkpt lat="43.308538" lon="-6.880432">
        <ele>695</ele>
        <time>2021-04-14T12:41:19.000Z</time>
      </trkpt>
      <trkpt lat="43.308587" lon="-6.880585">
        <ele>694.9</ele>
        <time>2021-04-14T12:41:23.000Z</time>
      </trkpt>
      <trkpt lat="43.308618" lon="-6.880733">
        <ele>695.3</ele>
        <time>2021-04-14T12:41:26.000Z</time>
      </trkpt>
      <trkpt lat="43.308652" lon="-6.880877">
        <ele>695.6</ele>
        <time>2021-04-14T12:41:29.000Z</time>
      </trkpt>
      <trkpt lat="43.308677" lon="-6.880998">
        <ele>697</ele>
        <time>2021-04-14T12:41:31.000Z</time>
      </trkpt>
      <trkpt lat="43.308712" lon="-6.881148">
        <ele>699.4</ele>
        <time>2021-04-14T12:41:34.000Z</time>
      </trkpt>
      <trkpt lat="43.308745" lon="-6.88129">
        <ele>703</ele>
        <time>2021-04-14T12:41:38.000Z</time>
      </trkpt>
      <trkpt lat="43.308738" lon="-6.881417">
        <ele>703.5</ele>
        <time>2021-04-14T12:41:44.000Z</time>
      </trkpt>
      <trkpt lat="43.308685" lon="-6.881517">
        <ele>705.1</ele>
        <time>2021-04-14T12:41:47.000Z</time>
      </trkpt>
      <trkpt lat="43.308602" lon="-6.881588">
        <ele>705</ele>
        <time>2021-04-14T12:41:50.000Z</time>
      </trkpt>
      <trkpt lat="43.308493" lon="-6.881645">
        <ele>704.4</ele>
        <time>2021-04-14T12:41:53.000Z</time>
      </trkpt>
      <trkpt lat="43.308365" lon="-6.881688">
        <ele>703.2</ele>
        <time>2021-04-14T12:41:56.000Z</time>
      </trkpt>
      <trkpt lat="43.308235" lon="-6.881748">
        <ele>703.2</ele>
        <time>2021-04-14T12:41:59.000Z</time>
      </trkpt>
      <trkpt lat="43.308147" lon="-6.881795">
        <ele>703.8</ele>
        <time>2021-04-14T12:42:01.000Z</time>
      </trkpt>
      <trkpt lat="43.30806" lon="-6.881847">
        <ele>705.5</ele>
        <time>2021-04-14T12:42:03.000Z</time>
      </trkpt>
      <trkpt lat="43.307963" lon="-6.881943">
        <ele>707.5</ele>
        <time>2021-04-14T12:42:06.000Z</time>
      </trkpt>
      <trkpt lat="43.30789" lon="-6.882052">
        <ele>708</ele>
        <time>2021-04-14T12:42:09.000Z</time>
      </trkpt>
      <trkpt lat="43.307832" lon="-6.882153">
        <ele>708.5</ele>
        <time>2021-04-14T12:42:12.000Z</time>
      </trkpt>
      <trkpt lat="43.307778" lon="-6.882263">
        <ele>707.5</ele>
        <time>2021-04-14T12:42:15.000Z</time>
      </trkpt>
      <trkpt lat="43.307743" lon="-6.882423">
        <ele>712</ele>
        <time>2021-04-14T12:42:18.000Z</time>
      </trkpt>
      <trkpt lat="43.307712" lon="-6.882587">
        <ele>714.7</ele>
        <time>2021-04-14T12:42:21.000Z</time>
      </trkpt>
      <trkpt lat="43.307678" lon="-6.882748">
        <ele>715.5</ele>
        <time>2021-04-14T12:42:24.000Z</time>
      </trkpt>
      <trkpt lat="43.30764" lon="-6.882912">
        <ele>716</ele>
        <time>2021-04-14T12:42:27.000Z</time>
      </trkpt>
      <trkpt lat="43.30759" lon="-6.883065">
        <ele>717.3</ele>
        <time>2021-04-14T12:42:30.000Z</time>
      </trkpt>
      <trkpt lat="43.307545" lon="-6.883182">
        <ele>717.2</ele>
        <time>2021-04-14T12:42:33.000Z</time>
      </trkpt>
      <trkpt lat="43.30751" lon="-6.88331">
        <ele>717.5</ele>
        <time>2021-04-14T12:42:36.000Z</time>
      </trkpt>
      <trkpt lat="43.307497" lon="-6.883437">
        <ele>713.1</ele>
        <time>2021-04-14T12:43:17.000Z</time>
      </trkpt>
      <trkpt lat="43.307447" lon="-6.883548">
        <ele>713.9</ele>
        <time>2021-04-14T12:43:42.000Z</time>
      </trkpt>
      <trkpt lat="43.307357" lon="-6.883603">
        <ele>714.6</ele>
        <time>2021-04-14T12:43:54.000Z</time>
      </trkpt>
      <trkpt lat="43.307455" lon="-6.883542">
        <ele>713.5</ele>
        <time>2021-04-14T12:44:52.000Z</time>
      </trkpt>
      <trkpt lat="43.307418" lon="-6.883427">
        <ele>714.2</ele>
        <time>2021-04-14T12:45:03.000Z</time>
      </trkpt>
      <trkpt lat="43.307508" lon="-6.883462">
        <ele>714.9</ele>
        <time>2021-04-14T12:47:02.000Z</time>
      </trkpt>
      <trkpt lat="43.30761" lon="-6.883395">
        <ele>716.4</ele>
        <time>2021-04-14T12:47:10.000Z</time>
      </trkpt>
      <trkpt lat="43.307688" lon="-6.883308">
        <ele>717.5</ele>
        <time>2021-04-14T12:47:13.000Z</time>
      </trkpt>
      <trkpt lat="43.307798" lon="-6.883217">
        <ele>718.1</ele>
        <time>2021-04-14T12:47:16.000Z</time>
      </trkpt>
      <trkpt lat="43.307888" lon="-6.883123">
        <ele>718.4</ele>
        <time>2021-04-14T12:47:19.000Z</time>
      </trkpt>
      <trkpt lat="43.307967" lon="-6.883035">
        <ele>719.4</ele>
        <time>2021-04-14T12:47:22.000Z</time>
      </trkpt>
      <trkpt lat="43.308032" lon="-6.882943">
        <ele>720</ele>
        <time>2021-04-14T12:47:25.000Z</time>
      </trkpt>
      <trkpt lat="43.308118" lon="-6.882828">
        <ele>720.8</ele>
        <time>2021-04-14T12:47:29.000Z</time>
      </trkpt>
      <trkpt lat="43.308205" lon="-6.882747">
        <ele>721.9</ele>
        <time>2021-04-14T12:47:32.000Z</time>
      </trkpt>
      <trkpt lat="43.308302" lon="-6.882668">
        <ele>725</ele>
        <time>2021-04-14T12:47:35.000Z</time>
      </trkpt>
      <trkpt lat="43.30839" lon="-6.8826">
        <ele>727.4</ele>
        <time>2021-04-14T12:47:38.000Z</time>
      </trkpt>
      <trkpt lat="43.308488" lon="-6.88252">
        <ele>729.3</ele>
        <time>2021-04-14T12:47:41.000Z</time>
      </trkpt>
      <trkpt lat="43.308588" lon="-6.882437">
        <ele>731.4</ele>
        <time>2021-04-14T12:47:44.000Z</time>
      </trkpt>
      <trkpt lat="43.308698" lon="-6.882377">
        <ele>732.4</ele>
        <time>2021-04-14T12:47:47.000Z</time>
      </trkpt>
      <trkpt lat="43.308803" lon="-6.882318">
        <ele>733.9</ele>
        <time>2021-04-14T12:47:50.000Z</time>
      </trkpt>
      <trkpt lat="43.308898" lon="-6.882262">
        <ele>736.4</ele>
        <time>2021-04-14T12:47:53.000Z</time>
      </trkpt>
      <trkpt lat="43.308987" lon="-6.882203">
        <ele>738.5</ele>
        <time>2021-04-14T12:47:56.000Z</time>
      </trkpt>
      <trkpt lat="43.309078" lon="-6.882135">
        <ele>739.3</ele>
        <time>2021-04-14T12:47:59.000Z</time>
      </trkpt>
      <trkpt lat="43.309163" lon="-6.882048">
        <ele>739.8</ele>
        <time>2021-04-14T12:48:02.000Z</time>
      </trkpt>
      <trkpt lat="43.309228" lon="-6.881953">
        <ele>740.6</ele>
        <time>2021-04-14T12:48:07.000Z</time>
      </trkpt>
      <trkpt lat="43.309293" lon="-6.881847">
        <ele>741</ele>
        <time>2021-04-14T12:48:16.000Z</time>
      </trkpt>
      <trkpt lat="43.309358" lon="-6.881752">
        <ele>740.7</ele>
        <time>2021-04-14T12:48:19.000Z</time>
      </trkpt>
      <trkpt lat="43.309437" lon="-6.881603">
        <ele>739.2</ele>
        <time>2021-04-14T12:48:22.000Z</time>
      </trkpt>
      <trkpt lat="43.309475" lon="-6.881482">
        <ele>739.3</ele>
        <time>2021-04-14T12:48:24.000Z</time>
      </trkpt>
      <trkpt lat="43.309508" lon="-6.881367">
        <ele>739.7</ele>
        <time>2021-04-14T12:48:26.000Z</time>
      </trkpt>
      <trkpt lat="43.309542" lon="-6.881215">
        <ele>739.1</ele>
        <time>2021-04-14T12:48:29.000Z</time>
      </trkpt>
      <trkpt lat="43.309548" lon="-6.881075">
        <ele>739.5</ele>
        <time>2021-04-14T12:48:32.000Z</time>
      </trkpt>
      <trkpt lat="43.309552" lon="-6.88093">
        <ele>740.7</ele>
        <time>2021-04-14T12:48:35.000Z</time>
      </trkpt>
      <trkpt lat="43.309552" lon="-6.880773">
        <ele>743.5</ele>
        <time>2021-04-14T12:48:38.000Z</time>
      </trkpt>
      <trkpt lat="43.309545" lon="-6.88061">
        <ele>745.6</ele>
        <time>2021-04-14T12:48:41.000Z</time>
      </trkpt>
      <trkpt lat="43.30954" lon="-6.88044">
        <ele>745.9</ele>
        <time>2021-04-14T12:48:44.000Z</time>
      </trkpt>
      <trkpt lat="43.309533" lon="-6.880292">
        <ele>747.1</ele>
        <time>2021-04-14T12:48:47.000Z</time>
      </trkpt>
      <trkpt lat="43.309542" lon="-6.880132">
        <ele>747.6</ele>
        <time>2021-04-14T12:48:50.000Z</time>
      </trkpt>
      <trkpt lat="43.309565" lon="-6.880003">
        <ele>748.3</ele>
        <time>2021-04-14T12:48:53.000Z</time>
      </trkpt>
      <trkpt lat="43.309592" lon="-6.879857">
        <ele>751.4</ele>
        <time>2021-04-14T12:48:57.000Z</time>
      </trkpt>
      <trkpt lat="43.309597" lon="-6.879732">
        <ele>753.9</ele>
        <time>2021-04-14T12:49:01.000Z</time>
      </trkpt>
      <trkpt lat="43.309638" lon="-6.879603">
        <ele>754.2</ele>
        <time>2021-04-14T12:49:05.000Z</time>
      </trkpt>
      <trkpt lat="43.30971" lon="-6.879508">
        <ele>753.9</ele>
        <time>2021-04-14T12:49:09.000Z</time>
      </trkpt>
      <trkpt lat="43.309808" lon="-6.87955">
        <ele>754.4</ele>
        <time>2021-04-14T12:49:13.000Z</time>
      </trkpt>
      <trkpt lat="43.309868" lon="-6.87965">
        <ele>756</ele>
        <time>2021-04-14T12:49:16.000Z</time>
      </trkpt>
      <trkpt lat="43.309935" lon="-6.879748">
        <ele>756.3</ele>
        <time>2021-04-14T12:49:19.000Z</time>
      </trkpt>
      <trkpt lat="43.310003" lon="-6.879837">
        <ele>756</ele>
        <time>2021-04-14T12:49:22.000Z</time>
      </trkpt>
      <trkpt lat="43.310093" lon="-6.879947">
        <ele>756.6</ele>
        <time>2021-04-14T12:49:26.000Z</time>
      </trkpt>
      <trkpt lat="43.310172" lon="-6.880045">
        <ele>756.7</ele>
        <time>2021-04-14T12:49:29.000Z</time>
      </trkpt>
      <trkpt lat="43.31023" lon="-6.880147">
        <ele>756.8</ele>
        <time>2021-04-14T12:49:32.000Z</time>
      </trkpt>
      <trkpt lat="43.310282" lon="-6.880285">
        <ele>757.6</ele>
        <time>2021-04-14T12:49:35.000Z</time>
      </trkpt>
      <trkpt lat="43.310308" lon="-6.880437">
        <ele>759.4</ele>
        <time>2021-04-14T12:49:38.000Z</time>
      </trkpt>
      <trkpt lat="43.31032" lon="-6.880563">
        <ele>762</ele>
        <time>2021-04-14T12:49:41.000Z</time>
      </trkpt>
      <trkpt lat="43.310333" lon="-6.880695">
        <ele>765.2</ele>
        <time>2021-04-14T12:49:44.000Z</time>
      </trkpt>
      <trkpt lat="43.310345" lon="-6.880858">
        <ele>768</ele>
        <time>2021-04-14T12:49:47.000Z</time>
      </trkpt>
      <trkpt lat="43.310365" lon="-6.880995">
        <ele>770</ele>
        <time>2021-04-14T12:49:50.000Z</time>
      </trkpt>
      <trkpt lat="43.310377" lon="-6.881127">
        <ele>770.3</ele>
        <time>2021-04-14T12:49:53.000Z</time>
      </trkpt>
      <trkpt lat="43.310377" lon="-6.881287">
        <ele>770.5</ele>
        <time>2021-04-14T12:49:57.000Z</time>
      </trkpt>
      <trkpt lat="43.310385" lon="-6.881447">
        <ele>769.2</ele>
        <time>2021-04-14T12:50:01.000Z</time>
      </trkpt>
      <trkpt lat="43.3104" lon="-6.881595">
        <ele>769.9</ele>
        <time>2021-04-14T12:50:04.000Z</time>
      </trkpt>
      <trkpt lat="43.31041" lon="-6.881735">
        <ele>771.4</ele>
        <time>2021-04-14T12:50:07.000Z</time>
      </trkpt>
      <trkpt lat="43.31041" lon="-6.88188">
        <ele>773.3</ele>
        <time>2021-04-14T12:50:10.000Z</time>
      </trkpt>
      <trkpt lat="43.31041" lon="-6.882025">
        <ele>775.2</ele>
        <time>2021-04-14T12:50:13.000Z</time>
      </trkpt>
      <trkpt lat="43.310412" lon="-6.88216">
        <ele>777.7</ele>
        <time>2021-04-14T12:50:16.000Z</time>
      </trkpt>
      <trkpt lat="43.310413" lon="-6.882302">
        <ele>779.9</ele>
        <time>2021-04-14T12:50:19.000Z</time>
      </trkpt>
      <trkpt lat="43.310418" lon="-6.882455">
        <ele>781.2</ele>
        <time>2021-04-14T12:50:22.000Z</time>
      </trkpt>
      <trkpt lat="43.310418" lon="-6.882615">
        <ele>782.1</ele>
        <time>2021-04-14T12:50:25.000Z</time>
      </trkpt>
      <trkpt lat="43.310418" lon="-6.882773">
        <ele>782</ele>
        <time>2021-04-14T12:50:28.000Z</time>
      </trkpt>
      <trkpt lat="43.310427" lon="-6.882908">
        <ele>783.4</ele>
        <time>2021-04-14T12:50:31.000Z</time>
      </trkpt>
      <trkpt lat="43.310457" lon="-6.883035">
        <ele>784.5</ele>
        <time>2021-04-14T12:50:36.000Z</time>
      </trkpt>
      <trkpt lat="43.310478" lon="-6.883175">
        <ele>786</ele>
        <time>2021-04-14T12:50:40.000Z</time>
      </trkpt>
      <trkpt lat="43.310543" lon="-6.883307">
        <ele>787.8</ele>
        <time>2021-04-14T12:50:44.000Z</time>
      </trkpt>
      <trkpt lat="43.310633" lon="-6.883402">
        <ele>792.2</ele>
        <time>2021-04-14T12:50:48.000Z</time>
      </trkpt>
      <trkpt lat="43.310742" lon="-6.88345">
        <ele>794.5</ele>
        <time>2021-04-14T12:50:52.000Z</time>
      </trkpt>
      <trkpt lat="43.31083" lon="-6.883483">
        <ele>796.5</ele>
        <time>2021-04-14T12:50:56.000Z</time>
      </trkpt>
      <trkpt lat="43.310947" lon="-6.883453">
        <ele>799.8</ele>
        <time>2021-04-14T12:51:00.000Z</time>
      </trkpt>
      <trkpt lat="43.31104" lon="-6.883408">
        <ele>801.7</ele>
        <time>2021-04-14T12:51:03.000Z</time>
      </trkpt>
      <trkpt lat="43.31113" lon="-6.883363">
        <ele>804.3</ele>
        <time>2021-04-14T12:51:06.000Z</time>
      </trkpt>
      <trkpt lat="43.311218" lon="-6.883323">
        <ele>805.7</ele>
        <time>2021-04-14T12:51:11.000Z</time>
      </trkpt>
      <trkpt lat="43.311315" lon="-6.883307">
        <ele>807.4</ele>
        <time>2021-04-14T12:51:17.000Z</time>
      </trkpt>
      <trkpt lat="43.311405" lon="-6.88326">
        <ele>808.9</ele>
        <time>2021-04-14T12:51:22.000Z</time>
      </trkpt>
      <trkpt lat="43.3115" lon="-6.883192">
        <ele>810.8</ele>
        <time>2021-04-14T12:51:26.000Z</time>
      </trkpt>
      <trkpt lat="43.311595" lon="-6.883148">
        <ele>813.4</ele>
        <time>2021-04-14T12:51:30.000Z</time>
      </trkpt>
      <trkpt lat="43.311687" lon="-6.883097">
        <ele>816.4</ele>
        <time>2021-04-14T12:51:34.000Z</time>
      </trkpt>
      <trkpt lat="43.311777" lon="-6.883072">
        <ele>819.5</ele>
        <time>2021-04-14T12:51:38.000Z</time>
      </trkpt>
      <trkpt lat="43.311893" lon="-6.88305">
        <ele>821.9</ele>
        <time>2021-04-14T12:51:42.000Z</time>
      </trkpt>
      <trkpt lat="43.312" lon="-6.883013">
        <ele>824</ele>
        <time>2021-04-14T12:51:46.000Z</time>
      </trkpt>
      <trkpt lat="43.312103" lon="-6.882963">
        <ele>827</ele>
        <time>2021-04-14T12:51:51.000Z</time>
      </trkpt>
      <trkpt lat="43.312198" lon="-6.882935">
        <ele>824.4</ele>
        <time>2021-04-14T12:52:03.000Z</time>
      </trkpt>
      <trkpt lat="43.312303" lon="-6.882897">
        <ele>825.3</ele>
        <time>2021-04-14T12:52:08.000Z</time>
      </trkpt>
      <trkpt lat="43.312417" lon="-6.882837">
        <ele>825.4</ele>
        <time>2021-04-14T12:52:12.000Z</time>
      </trkpt>
      <trkpt lat="43.312517" lon="-6.882778">
        <ele>826.1</ele>
        <time>2021-04-14T12:52:15.000Z</time>
      </trkpt>
      <trkpt lat="43.312623" lon="-6.882702">
        <ele>826.8</ele>
        <time>2021-04-14T12:52:18.000Z</time>
      </trkpt>
      <trkpt lat="43.312715" lon="-6.882625">
        <ele>828.5</ele>
        <time>2021-04-14T12:52:21.000Z</time>
      </trkpt>
      <trkpt lat="43.3128" lon="-6.882575">
        <ele>829.9</ele>
        <time>2021-04-14T12:52:24.000Z</time>
      </trkpt>
      <trkpt lat="43.31291" lon="-6.882538">
        <ele>831</ele>
        <time>2021-04-14T12:52:28.000Z</time>
      </trkpt>
      <trkpt lat="43.313018" lon="-6.882498">
        <ele>832.9</ele>
        <time>2021-04-14T12:52:32.000Z</time>
      </trkpt>
      <trkpt lat="43.31311" lon="-6.88246">
        <ele>834.1</ele>
        <time>2021-04-14T12:52:35.000Z</time>
      </trkpt>
      <trkpt lat="43.31321" lon="-6.88241">
        <ele>837.8</ele>
        <time>2021-04-14T12:52:38.000Z</time>
      </trkpt>
      <trkpt lat="43.313315" lon="-6.882365">
        <ele>839.5</ele>
        <time>2021-04-14T12:52:41.000Z</time>
      </trkpt>
      <trkpt lat="43.313423" lon="-6.8823">
        <ele>839.8</ele>
        <time>2021-04-14T12:52:44.000Z</time>
      </trkpt>
      <trkpt lat="43.31351" lon="-6.882228">
        <ele>842.2</ele>
        <time>2021-04-14T12:52:47.000Z</time>
      </trkpt>
      <trkpt lat="43.313602" lon="-6.882127">
        <ele>842.7</ele>
        <time>2021-04-14T12:52:50.000Z</time>
      </trkpt>
      <trkpt lat="43.31367" lon="-6.882038">
        <ele>844.2</ele>
        <time>2021-04-14T12:52:53.000Z</time>
      </trkpt>
      <trkpt lat="43.313747" lon="-6.88193">
        <ele>845.9</ele>
        <time>2021-04-14T12:52:58.000Z</time>
      </trkpt>
      <trkpt lat="43.3138" lon="-6.881828">
        <ele>845.9</ele>
        <time>2021-04-14T12:53:02.000Z</time>
      </trkpt>
      <trkpt lat="43.313868" lon="-6.881737">
        <ele>846</ele>
        <time>2021-04-14T12:53:07.000Z</time>
      </trkpt>
      <trkpt lat="43.313973" lon="-6.881633">
        <ele>844.7</ele>
        <time>2021-04-14T12:58:12.000Z</time>
      </trkpt>
      <trkpt lat="43.314053" lon="-6.88155">
        <ele>843.7</ele>
        <time>2021-04-14T12:58:18.000Z</time>
      </trkpt>
      <trkpt lat="43.314133" lon="-6.881485">
        <ele>844.7</ele>
        <time>2021-04-14T12:58:27.000Z</time>
      </trkpt>
      <trkpt lat="43.31422" lon="-6.881432">
        <ele>843.2</ele>
        <time>2021-04-14T12:58:38.000Z</time>
      </trkpt>
      <trkpt lat="43.314317" lon="-6.881385">
        <ele>843.1</ele>
        <time>2021-04-14T12:58:43.000Z</time>
      </trkpt>
      <trkpt lat="43.314413" lon="-6.881318">
        <ele>844.7</ele>
        <time>2021-04-14T12:58:48.000Z</time>
      </trkpt>
      <trkpt lat="43.31452" lon="-6.881288">
        <ele>844.8</ele>
        <time>2021-04-14T12:58:53.000Z</time>
      </trkpt>
      <trkpt lat="43.314627" lon="-6.881293">
        <ele>844.2</ele>
        <time>2021-04-14T12:58:57.000Z</time>
      </trkpt>
      <trkpt lat="43.314743" lon="-6.881288">
        <ele>844.7</ele>
        <time>2021-04-14T12:59:01.000Z</time>
      </trkpt>
      <trkpt lat="43.314845" lon="-6.881263">
        <ele>845</ele>
        <time>2021-04-14T12:59:04.000Z</time>
      </trkpt>
      <trkpt lat="43.314957" lon="-6.881237">
        <ele>841.6</ele>
        <time>2021-04-14T12:59:08.000Z</time>
      </trkpt>
      <trkpt lat="43.315047" lon="-6.881207">
        <ele>838.3</ele>
        <time>2021-04-14T12:59:11.000Z</time>
      </trkpt>
      <trkpt lat="43.31515" lon="-6.881172">
        <ele>837</ele>
        <time>2021-04-14T12:59:14.000Z</time>
      </trkpt>
      <trkpt lat="43.31526" lon="-6.881133">
        <ele>835.7</ele>
        <time>2021-04-14T12:59:17.000Z</time>
      </trkpt>
      <trkpt lat="43.31535" lon="-6.881103">
        <ele>835.6</ele>
        <time>2021-04-14T12:59:21.000Z</time>
      </trkpt>
      <trkpt lat="43.315448" lon="-6.881132">
        <ele>834.6</ele>
        <time>2021-04-14T12:59:41.000Z</time>
      </trkpt>
      <trkpt lat="43.315512" lon="-6.881255">
        <ele>836.5</ele>
        <time>2021-04-14T12:59:45.000Z</time>
      </trkpt>
      <trkpt lat="43.31552" lon="-6.881378">
        <ele>839.2</ele>
        <time>2021-04-14T12:59:49.000Z</time>
      </trkpt>
      <trkpt lat="43.315527" lon="-6.881527">
        <ele>837.8</ele>
        <time>2021-04-14T13:00:31.000Z</time>
      </trkpt>
      <trkpt lat="43.315578" lon="-6.88169">
        <ele>835.1</ele>
        <time>2021-04-14T13:00:35.000Z</time>
      </trkpt>
      <trkpt lat="43.315645" lon="-6.881787">
        <ele>833.9</ele>
        <time>2021-04-14T13:00:37.000Z</time>
      </trkpt>
      <trkpt lat="43.315713" lon="-6.88188">
        <ele>832.5</ele>
        <time>2021-04-14T13:00:39.000Z</time>
      </trkpt>
      <trkpt lat="43.315797" lon="-6.881993">
        <ele>832.3</ele>
        <time>2021-04-14T13:00:42.000Z</time>
      </trkpt>
      <trkpt lat="43.315878" lon="-6.882068">
        <ele>836.4</ele>
        <time>2021-04-14T13:00:45.000Z</time>
      </trkpt>
      <trkpt lat="43.315942" lon="-6.882165">
        <ele>836.7</ele>
        <time>2021-04-14T13:00:48.000Z</time>
      </trkpt>
      <trkpt lat="43.316" lon="-6.882262">
        <ele>836.7</ele>
        <time>2021-04-14T13:00:51.000Z</time>
      </trkpt>
      <trkpt lat="43.316055" lon="-6.88236">
        <ele>836.4</ele>
        <time>2021-04-14T13:00:54.000Z</time>
      </trkpt>
      <trkpt lat="43.316105" lon="-6.882493">
        <ele>836.2</ele>
        <time>2021-04-14T13:01:00.000Z</time>
      </trkpt>
      <trkpt lat="43.316198" lon="-6.882575">
        <ele>838.6</ele>
        <time>2021-04-14T13:01:05.000Z</time>
      </trkpt>
      <trkpt lat="43.3163" lon="-6.882657">
        <ele>838.3</ele>
        <time>2021-04-14T13:01:09.000Z</time>
      </trkpt>
      <trkpt lat="43.316398" lon="-6.882755">
        <ele>838.5</ele>
        <time>2021-04-14T13:01:12.000Z</time>
      </trkpt>
      <trkpt lat="43.31647" lon="-6.882848">
        <ele>837.5</ele>
        <time>2021-04-14T13:01:15.000Z</time>
      </trkpt>
      <trkpt lat="43.31654" lon="-6.882937">
        <ele>837.2</ele>
        <time>2021-04-14T13:01:18.000Z</time>
      </trkpt>
      <trkpt lat="43.316633" lon="-6.88302">
        <ele>835.3</ele>
        <time>2021-04-14T13:01:22.000Z</time>
      </trkpt>
      <trkpt lat="43.31672" lon="-6.883098">
        <ele>835.9</ele>
        <time>2021-04-14T13:01:25.000Z</time>
      </trkpt>
      <trkpt lat="43.316805" lon="-6.883188">
        <ele>835.2</ele>
        <time>2021-04-14T13:01:29.000Z</time>
      </trkpt>
      <trkpt lat="43.316893" lon="-6.88325">
        <ele>837</ele>
        <time>2021-04-14T13:01:33.000Z</time>
      </trkpt>
      <trkpt lat="43.316983" lon="-6.883347">
        <ele>838.7</ele>
        <time>2021-04-14T13:01:38.000Z</time>
      </trkpt>
      <trkpt lat="43.317057" lon="-6.883448">
        <ele>841.6</ele>
        <time>2021-04-14T13:01:44.000Z</time>
      </trkpt>
      <trkpt lat="43.317165" lon="-6.883525">
        <ele>846.3</ele>
        <time>2021-04-14T13:01:48.000Z</time>
      </trkpt>
      <trkpt lat="43.317238" lon="-6.88363">
        <ele>847.3</ele>
        <time>2021-04-14T13:01:52.000Z</time>
      </trkpt>
      <trkpt lat="43.317308" lon="-6.883733">
        <ele>848.2</ele>
        <time>2021-04-14T13:01:56.000Z</time>
      </trkpt>
      <trkpt lat="43.31738" lon="-6.883815">
        <ele>849.4</ele>
        <time>2021-04-14T13:01:59.000Z</time>
      </trkpt>
      <trkpt lat="43.317465" lon="-6.883907">
        <ele>850.8</ele>
        <time>2021-04-14T13:02:02.000Z</time>
      </trkpt>
      <trkpt lat="43.31755" lon="-6.884">
        <ele>852.5</ele>
        <time>2021-04-14T13:02:05.000Z</time>
      </trkpt>
      <trkpt lat="43.317642" lon="-6.884078">
        <ele>853.8</ele>
        <time>2021-04-14T13:02:08.000Z</time>
      </trkpt>
      <trkpt lat="43.31775" lon="-6.884163">
        <ele>854.9</ele>
        <time>2021-04-14T13:02:11.000Z</time>
      </trkpt>
      <trkpt lat="43.317852" lon="-6.884258">
        <ele>854.7</ele>
        <time>2021-04-14T13:02:14.000Z</time>
      </trkpt>
      <trkpt lat="43.317952" lon="-6.884347">
        <ele>854.5</ele>
        <time>2021-04-14T13:02:17.000Z</time>
      </trkpt>
      <trkpt lat="43.318025" lon="-6.884425">
        <ele>855.2</ele>
        <time>2021-04-14T13:02:20.000Z</time>
      </trkpt>
      <trkpt lat="43.31813" lon="-6.884488">
        <ele>855.4</ele>
        <time>2021-04-14T13:02:24.000Z</time>
      </trkpt>
      <trkpt lat="43.318225" lon="-6.884545">
        <ele>856.4</ele>
        <time>2021-04-14T13:02:28.000Z</time>
      </trkpt>
      <trkpt lat="43.31832" lon="-6.884585">
        <ele>857</ele>
        <time>2021-04-14T13:02:32.000Z</time>
      </trkpt>
      <trkpt lat="43.318427" lon="-6.884633">
        <ele>857.7</ele>
        <time>2021-04-14T13:02:36.000Z</time>
      </trkpt>
      <trkpt lat="43.31852" lon="-6.884658">
        <ele>858.3</ele>
        <time>2021-04-14T13:02:39.000Z</time>
      </trkpt>
      <trkpt lat="43.318617" lon="-6.88468">
        <ele>859.3</ele>
        <time>2021-04-14T13:02:43.000Z</time>
      </trkpt>
      <trkpt lat="43.31872" lon="-6.884715">
        <ele>861.9</ele>
        <time>2021-04-14T13:02:47.000Z</time>
      </trkpt>
      <trkpt lat="43.318813" lon="-6.884743">
        <ele>862.9</ele>
        <time>2021-04-14T13:02:50.000Z</time>
      </trkpt>
      <trkpt lat="43.318925" lon="-6.884775">
        <ele>866.4</ele>
        <time>2021-04-14T13:02:54.000Z</time>
      </trkpt>
      <trkpt lat="43.319038" lon="-6.884808">
        <ele>867.4</ele>
        <time>2021-04-14T13:02:58.000Z</time>
      </trkpt>
      <trkpt lat="43.319155" lon="-6.884857">
        <ele>869.4</ele>
        <time>2021-04-14T13:03:01.000Z</time>
      </trkpt>
      <trkpt lat="43.319245" lon="-6.884913">
        <ele>869</ele>
        <time>2021-04-14T13:03:04.000Z</time>
      </trkpt>
      <trkpt lat="43.319333" lon="-6.88494">
        <ele>869</ele>
        <time>2021-04-14T13:03:08.000Z</time>
      </trkpt>
      <trkpt lat="43.319427" lon="-6.884968">
        <ele>868.1</ele>
        <time>2021-04-14T13:03:12.000Z</time>
      </trkpt>
      <trkpt lat="43.319532" lon="-6.884993">
        <ele>869.1</ele>
        <time>2021-04-14T13:03:15.000Z</time>
      </trkpt>
      <trkpt lat="43.319653" lon="-6.885018">
        <ele>868.1</ele>
        <time>2021-04-14T13:03:18.000Z</time>
      </trkpt>
      <trkpt lat="43.319758" lon="-6.885058">
        <ele>869.5</ele>
        <time>2021-04-14T13:03:21.000Z</time>
      </trkpt>
      <trkpt lat="43.319875" lon="-6.885095">
        <ele>870.6</ele>
        <time>2021-04-14T13:03:24.000Z</time>
      </trkpt>
      <trkpt lat="43.320013" lon="-6.885123">
        <ele>872.6</ele>
        <time>2021-04-14T13:03:27.000Z</time>
      </trkpt>
      <trkpt lat="43.320108" lon="-6.885148">
        <ele>873.6</ele>
        <time>2021-04-14T13:03:29.000Z</time>
      </trkpt>
      <trkpt lat="43.320227" lon="-6.885192">
        <ele>875</ele>
        <time>2021-04-14T13:03:32.000Z</time>
      </trkpt>
      <trkpt lat="43.320318" lon="-6.885232">
        <ele>876.7</ele>
        <time>2021-04-14T13:03:35.000Z</time>
      </trkpt>
      <trkpt lat="43.320417" lon="-6.885265">
        <ele>876.5</ele>
        <time>2021-04-14T13:03:39.000Z</time>
      </trkpt>
      <trkpt lat="43.320537" lon="-6.88529">
        <ele>875</ele>
        <time>2021-04-14T13:03:43.000Z</time>
      </trkpt>
      <trkpt lat="43.32066" lon="-6.885292">
        <ele>874.6</ele>
        <time>2021-04-14T13:03:46.000Z</time>
      </trkpt>
      <trkpt lat="43.320797" lon="-6.885273">
        <ele>876.4</ele>
        <time>2021-04-14T13:03:49.000Z</time>
      </trkpt>
      <trkpt lat="43.320933" lon="-6.885232">
        <ele>879.6</ele>
        <time>2021-04-14T13:03:52.000Z</time>
      </trkpt>
      <trkpt lat="43.321062" lon="-6.885205">
        <ele>880</ele>
        <time>2021-04-14T13:03:55.000Z</time>
      </trkpt>
      <trkpt lat="43.321178" lon="-6.885165">
        <ele>880.7</ele>
        <time>2021-04-14T13:03:58.000Z</time>
      </trkpt>
      <trkpt lat="43.321282" lon="-6.885137">
        <ele>882.7</ele>
        <time>2021-04-14T13:04:01.000Z</time>
      </trkpt>
      <trkpt lat="43.321373" lon="-6.885147">
        <ele>883.7</ele>
        <time>2021-04-14T13:04:04.000Z</time>
      </trkpt>
      <trkpt lat="43.321495" lon="-6.885173">
        <ele>886.9</ele>
        <time>2021-04-14T13:04:08.000Z</time>
      </trkpt>
      <trkpt lat="43.321583" lon="-6.885222">
        <ele>886.6</ele>
        <time>2021-04-14T13:04:11.000Z</time>
      </trkpt>
      <trkpt lat="43.321668" lon="-6.885278">
        <ele>883.7</ele>
        <time>2021-04-14T13:04:16.000Z</time>
      </trkpt>
      <trkpt lat="43.321755" lon="-6.885327">
        <ele>883</ele>
        <time>2021-04-14T13:04:22.000Z</time>
      </trkpt>
      <trkpt lat="43.321842" lon="-6.885382">
        <ele>884.5</ele>
        <time>2021-04-14T13:04:26.000Z</time>
      </trkpt>
      <trkpt lat="43.321933" lon="-6.885457">
        <ele>886.1</ele>
        <time>2021-04-14T13:04:30.000Z</time>
      </trkpt>
      <trkpt lat="43.322012" lon="-6.885527">
        <ele>888.9</ele>
        <time>2021-04-14T13:04:33.000Z</time>
      </trkpt>
      <trkpt lat="43.322108" lon="-6.88561">
        <ele>889.2</ele>
        <time>2021-04-14T13:04:37.000Z</time>
      </trkpt>
      <trkpt lat="43.322188" lon="-6.885682">
        <ele>888.8</ele>
        <time>2021-04-14T13:04:40.000Z</time>
      </trkpt>
      <trkpt lat="43.32227" lon="-6.885738">
        <ele>889</ele>
        <time>2021-04-14T13:04:43.000Z</time>
      </trkpt>
      <trkpt lat="43.322365" lon="-6.885763">
        <ele>892</ele>
        <time>2021-04-14T13:04:46.000Z</time>
      </trkpt>
      <trkpt lat="43.322453" lon="-6.885802">
        <ele>894.4</ele>
        <time>2021-04-14T13:04:49.000Z</time>
      </trkpt>
      <trkpt lat="43.322542" lon="-6.885852">
        <ele>892.6</ele>
        <time>2021-04-14T13:04:52.000Z</time>
      </trkpt>
      <trkpt lat="43.322653" lon="-6.88591">
        <ele>891.6</ele>
        <time>2021-04-14T13:04:55.000Z</time>
      </trkpt>
      <trkpt lat="43.322773" lon="-6.885967">
        <ele>890.9</ele>
        <time>2021-04-14T13:04:58.000Z</time>
      </trkpt>
      <trkpt lat="43.322868" lon="-6.886028">
        <ele>889.2</ele>
        <time>2021-04-14T13:05:04.000Z</time>
      </trkpt>
      <trkpt lat="43.322957" lon="-6.886107">
        <ele>888.5</ele>
        <time>2021-04-14T13:05:11.000Z</time>
      </trkpt>
      <trkpt lat="43.323043" lon="-6.886063">
        <ele>888</ele>
        <time>2021-04-14T13:05:41.000Z</time>
      </trkpt>
      <trkpt lat="43.32295" lon="-6.886073">
        <ele>885.3</ele>
        <time>2021-04-14T13:06:28.000Z</time>
      </trkpt>
      <trkpt lat="43.323012" lon="-6.885982">
        <ele>886</ele>
        <time>2021-04-14T13:10:37.000Z</time>
      </trkpt>
      <trkpt lat="43.32295" lon="-6.886078">
        <ele>883.1</ele>
        <time>2021-04-14T13:11:33.000Z</time>
      </trkpt>
      <trkpt lat="43.32304" lon="-6.886135">
        <ele>883.8</ele>
        <time>2021-04-14T13:13:01.000Z</time>
      </trkpt>
      <trkpt lat="43.32315" lon="-6.88619">
        <ele>883.9</ele>
        <time>2021-04-14T13:13:06.000Z</time>
      </trkpt>
      <trkpt lat="43.323267" lon="-6.886233">
        <ele>886.3</ele>
        <time>2021-04-14T13:13:09.000Z</time>
      </trkpt>
      <trkpt lat="43.323355" lon="-6.886298">
        <ele>886.4</ele>
        <time>2021-04-14T13:13:12.000Z</time>
      </trkpt>
      <trkpt lat="43.323432" lon="-6.886387">
        <ele>885.9</ele>
        <time>2021-04-14T13:13:16.000Z</time>
      </trkpt>
      <trkpt lat="43.323503" lon="-6.886493">
        <ele>884.6</ele>
        <time>2021-04-14T13:13:20.000Z</time>
      </trkpt>
      <trkpt lat="43.323587" lon="-6.886567">
        <ele>882.4</ele>
        <time>2021-04-14T13:13:23.000Z</time>
      </trkpt>
      <trkpt lat="43.323678" lon="-6.886652">
        <ele>881</ele>
        <time>2021-04-14T13:13:26.000Z</time>
      </trkpt>
      <trkpt lat="43.32378" lon="-6.88672">
        <ele>880.8</ele>
        <time>2021-04-14T13:13:30.000Z</time>
      </trkpt>
      <trkpt lat="43.323873" lon="-6.88675">
        <ele>880.8</ele>
        <time>2021-04-14T13:13:33.000Z</time>
      </trkpt>
      <trkpt lat="43.324018" lon="-6.886758">
        <ele>879.7</ele>
        <time>2021-04-14T13:13:37.000Z</time>
      </trkpt>
      <trkpt lat="43.324127" lon="-6.886807">
        <ele>881.3</ele>
        <time>2021-04-14T13:13:39.000Z</time>
      </trkpt>
      <trkpt lat="43.324205" lon="-6.8869">
        <ele>881.6</ele>
        <time>2021-04-14T13:13:42.000Z</time>
      </trkpt>
      <trkpt lat="43.324248" lon="-6.887012">
        <ele>882</ele>
        <time>2021-04-14T13:13:46.000Z</time>
      </trkpt>
      <trkpt lat="43.324292" lon="-6.887175">
        <ele>882.8</ele>
        <time>2021-04-14T13:13:50.000Z</time>
      </trkpt>
      <trkpt lat="43.324332" lon="-6.887343">
        <ele>884.6</ele>
        <time>2021-04-14T13:13:53.000Z</time>
      </trkpt>
      <trkpt lat="43.324357" lon="-6.887488">
        <ele>884.3</ele>
        <time>2021-04-14T13:13:56.000Z</time>
      </trkpt>
      <trkpt lat="43.324322" lon="-6.887627">
        <ele>887.6</ele>
        <time>2021-04-14T13:14:01.000Z</time>
      </trkpt>
      <trkpt lat="43.324265" lon="-6.887733">
        <ele>890.8</ele>
        <time>2021-04-14T13:14:07.000Z</time>
      </trkpt>
      <trkpt lat="43.324222" lon="-6.887843">
        <ele>892.2</ele>
        <time>2021-04-14T13:14:11.000Z</time>
      </trkpt>
      <trkpt lat="43.324195" lon="-6.887993">
        <ele>894.7</ele>
        <time>2021-04-14T13:14:15.000Z</time>
      </trkpt>
      <trkpt lat="43.324175" lon="-6.888137">
        <ele>894.3</ele>
        <time>2021-04-14T13:14:19.000Z</time>
      </trkpt>
      <trkpt lat="43.324152" lon="-6.888273">
        <ele>892.5</ele>
        <time>2021-04-14T13:14:23.000Z</time>
      </trkpt>
      <trkpt lat="43.324143" lon="-6.888417">
        <ele>891</ele>
        <time>2021-04-14T13:14:30.000Z</time>
      </trkpt>
      <trkpt lat="43.324135" lon="-6.888542">
        <ele>890.1</ele>
        <time>2021-04-14T13:14:34.000Z</time>
      </trkpt>
      <trkpt lat="43.324115" lon="-6.888663">
        <ele>890.5</ele>
        <time>2021-04-14T13:14:39.000Z</time>
      </trkpt>
      <trkpt lat="43.324102" lon="-6.888803">
        <ele>892.7</ele>
        <time>2021-04-14T13:14:47.000Z</time>
      </trkpt>
      <trkpt lat="43.324157" lon="-6.888907">
        <ele>894</ele>
        <time>2021-04-14T13:14:52.000Z</time>
      </trkpt>
      <trkpt lat="43.324237" lon="-6.888967">
        <ele>895.6</ele>
        <time>2021-04-14T13:14:56.000Z</time>
      </trkpt>
      <trkpt lat="43.324342" lon="-6.888998">
        <ele>895.4</ele>
        <time>2021-04-14T13:15:00.000Z</time>
      </trkpt>
      <trkpt lat="43.324445" lon="-6.888977">
        <ele>899.9</ele>
        <time>2021-04-14T13:15:05.000Z</time>
      </trkpt>
      <trkpt lat="43.324552" lon="-6.888942">
        <ele>906.9</ele>
        <time>2021-04-14T13:15:11.000Z</time>
      </trkpt>
      <trkpt lat="43.324642" lon="-6.888912">
        <ele>909.6</ele>
        <time>2021-04-14T13:15:15.000Z</time>
      </trkpt>
      <trkpt lat="43.324757" lon="-6.888897">
        <ele>912.2</ele>
        <time>2021-04-14T13:15:20.000Z</time>
      </trkpt>
      <trkpt lat="43.324853" lon="-6.888883">
        <ele>913.3</ele>
        <time>2021-04-14T13:15:24.000Z</time>
      </trkpt>
      <trkpt lat="43.324943" lon="-6.888875">
        <ele>911.4</ele>
        <time>2021-04-14T13:15:30.000Z</time>
      </trkpt>
      <trkpt lat="43.325053" lon="-6.88886">
        <ele>909.6</ele>
        <time>2021-04-14T13:15:36.000Z</time>
      </trkpt>
      <trkpt lat="43.325153" lon="-6.888853">
        <ele>910.3</ele>
        <time>2021-04-14T13:15:40.000Z</time>
      </trkpt>
      <trkpt lat="43.325248" lon="-6.888862">
        <ele>910.8</ele>
        <time>2021-04-14T13:15:45.000Z</time>
      </trkpt>
      <trkpt lat="43.325345" lon="-6.88885">
        <ele>913</ele>
        <time>2021-04-14T13:15:50.000Z</time>
      </trkpt>
      <trkpt lat="43.325457" lon="-6.888853">
        <ele>912</ele>
        <time>2021-04-14T13:15:55.000Z</time>
      </trkpt>
      <trkpt lat="43.325555" lon="-6.888872">
        <ele>912.7</ele>
        <time>2021-04-14T13:15:59.000Z</time>
      </trkpt>
      <trkpt lat="43.325665" lon="-6.888883">
        <ele>912.7</ele>
        <time>2021-04-14T13:16:04.000Z</time>
      </trkpt>
      <trkpt lat="43.325762" lon="-6.888892">
        <ele>914.3</ele>
        <time>2021-04-14T13:16:09.000Z</time>
      </trkpt>
      <trkpt lat="43.325858" lon="-6.888897">
        <ele>915.6</ele>
        <time>2021-04-14T13:16:15.000Z</time>
      </trkpt>
      <trkpt lat="43.325967" lon="-6.888883">
        <ele>918.7</ele>
        <time>2021-04-14T13:16:21.000Z</time>
      </trkpt>
      <trkpt lat="43.326058" lon="-6.888907">
        <ele>918.5</ele>
        <time>2021-04-14T13:16:26.000Z</time>
      </trkpt>
      <trkpt lat="43.326148" lon="-6.88894">
        <ele>917.4</ele>
        <time>2021-04-14T13:16:31.000Z</time>
      </trkpt>
      <trkpt lat="43.32625" lon="-6.888947">
        <ele>922.6</ele>
        <time>2021-04-14T13:16:36.000Z</time>
      </trkpt>
      <trkpt lat="43.326348" lon="-6.88896">
        <ele>927.9</ele>
        <time>2021-04-14T13:16:41.000Z</time>
      </trkpt>
      <trkpt lat="43.32644" lon="-6.888978">
        <ele>928.9</ele>
        <time>2021-04-14T13:16:48.000Z</time>
      </trkpt>
      <trkpt lat="43.326535" lon="-6.889042">
        <ele>927.9</ele>
        <time>2021-04-14T13:16:54.000Z</time>
      </trkpt>
      <trkpt lat="43.326622" lon="-6.88911">
        <ele>927.8</ele>
        <time>2021-04-14T13:16:59.000Z</time>
      </trkpt>
      <trkpt lat="43.326703" lon="-6.889168">
        <ele>927.5</ele>
        <time>2021-04-14T13:17:04.000Z</time>
      </trkpt>
      <trkpt lat="43.326788" lon="-6.88921">
        <ele>927.7</ele>
        <time>2021-04-14T13:17:10.000Z</time>
      </trkpt>
      <trkpt lat="43.326873" lon="-6.889275">
        <ele>929</ele>
        <time>2021-04-14T13:17:15.000Z</time>
      </trkpt>
      <trkpt lat="43.326967" lon="-6.889318">
        <ele>930.7</ele>
        <time>2021-04-14T13:17:19.000Z</time>
      </trkpt>
      <trkpt lat="43.327072" lon="-6.889348">
        <ele>933.1</ele>
        <time>2021-04-14T13:17:24.000Z</time>
      </trkpt>
      <trkpt lat="43.32717" lon="-6.88939">
        <ele>935</ele>
        <time>2021-04-14T13:17:30.000Z</time>
      </trkpt>
      <trkpt lat="43.327278" lon="-6.889442">
        <ele>936.3</ele>
        <time>2021-04-14T13:17:34.000Z</time>
      </trkpt>
      <trkpt lat="43.327365" lon="-6.889488">
        <ele>938.5</ele>
        <time>2021-04-14T13:17:37.000Z</time>
      </trkpt>
      <trkpt lat="43.327467" lon="-6.889558">
        <ele>938.8</ele>
        <time>2021-04-14T13:17:41.000Z</time>
      </trkpt>
      <trkpt lat="43.327568" lon="-6.889627">
        <ele>940.2</ele>
        <time>2021-04-14T13:17:45.000Z</time>
      </trkpt>
      <trkpt lat="43.327645" lon="-6.889692">
        <ele>941.1</ele>
        <time>2021-04-14T13:17:48.000Z</time>
      </trkpt>
      <trkpt lat="43.327733" lon="-6.889755">
        <ele>941.3</ele>
        <time>2021-04-14T13:17:51.000Z</time>
      </trkpt>
      <trkpt lat="43.327825" lon="-6.889815">
        <ele>941</ele>
        <time>2021-04-14T13:17:54.000Z</time>
      </trkpt>
      <trkpt lat="43.327935" lon="-6.889882">
        <ele>944.4</ele>
        <time>2021-04-14T13:17:58.000Z</time>
      </trkpt>
      <trkpt lat="43.328023" lon="-6.889948">
        <ele>947.5</ele>
        <time>2021-04-14T13:18:01.000Z</time>
      </trkpt>
      <trkpt lat="43.328095" lon="-6.890027">
        <ele>947.5</ele>
        <time>2021-04-14T13:18:04.000Z</time>
      </trkpt>
      <trkpt lat="43.32819" lon="-6.890103">
        <ele>946.2</ele>
        <time>2021-04-14T13:18:08.000Z</time>
      </trkpt>
      <trkpt lat="43.32827" lon="-6.890162">
        <ele>948.5</ele>
        <time>2021-04-14T13:18:13.000Z</time>
      </trkpt>
      <trkpt lat="43.32837" lon="-6.890212">
        <ele>947.6</ele>
        <time>2021-04-14T13:18:19.000Z</time>
      </trkpt>
      <trkpt lat="43.328467" lon="-6.890268">
        <ele>947.6</ele>
        <time>2021-04-14T13:18:23.000Z</time>
      </trkpt>
      <trkpt lat="43.328552" lon="-6.890347">
        <ele>950.4</ele>
        <time>2021-04-14T13:18:28.000Z</time>
      </trkpt>
      <trkpt lat="43.328638" lon="-6.890435">
        <ele>950.8</ele>
        <time>2021-04-14T13:18:32.000Z</time>
      </trkpt>
      <trkpt lat="43.328728" lon="-6.890535">
        <ele>951.8</ele>
        <time>2021-04-14T13:18:36.000Z</time>
      </trkpt>
      <trkpt lat="43.328795" lon="-6.890643">
        <ele>950.5</ele>
        <time>2021-04-14T13:18:42.000Z</time>
      </trkpt>
      <trkpt lat="43.32887" lon="-6.890732">
        <ele>950.1</ele>
        <time>2021-04-14T13:18:46.000Z</time>
      </trkpt>
      <trkpt lat="43.328962" lon="-6.890753">
        <ele>951.6</ele>
        <time>2021-04-14T13:19:00.000Z</time>
      </trkpt>
      <trkpt lat="43.32905" lon="-6.8907">
        <ele>950.2</ele>
        <time>2021-04-14T13:19:05.000Z</time>
      </trkpt>
      <trkpt lat="43.329152" lon="-6.890637">
        <ele>950.8</ele>
        <time>2021-04-14T13:19:10.000Z</time>
      </trkpt>
      <trkpt lat="43.329255" lon="-6.890605">
        <ele>953.8</ele>
        <time>2021-04-14T13:19:15.000Z</time>
      </trkpt>
      <trkpt lat="43.32936" lon="-6.890602">
        <ele>956.9</ele>
        <time>2021-04-14T13:19:21.000Z</time>
      </trkpt>
      <trkpt lat="43.329458" lon="-6.890618">
        <ele>958</ele>
        <time>2021-04-14T13:19:25.000Z</time>
      </trkpt>
      <trkpt lat="43.329562" lon="-6.890635">
        <ele>959.1</ele>
        <time>2021-04-14T13:19:30.000Z</time>
      </trkpt>
      <trkpt lat="43.329657" lon="-6.890633">
        <ele>958.2</ele>
        <time>2021-04-14T13:20:00.000Z</time>
      </trkpt>
      <trkpt lat="43.329755" lon="-6.89067">
        <ele>958.7</ele>
        <time>2021-04-14T13:20:07.000Z</time>
      </trkpt>
      <trkpt lat="43.32985" lon="-6.890652">
        <ele>957</ele>
        <time>2021-04-14T13:20:13.000Z</time>
      </trkpt>
      <trkpt lat="43.329953" lon="-6.890672">
        <ele>958.2</ele>
        <time>2021-04-14T13:20:17.000Z</time>
      </trkpt>
      <trkpt lat="43.330067" lon="-6.89069">
        <ele>957.7</ele>
        <time>2021-04-14T13:20:21.000Z</time>
      </trkpt>
      <trkpt lat="43.330172" lon="-6.890695">
        <ele>958.4</ele>
        <time>2021-04-14T13:20:25.000Z</time>
      </trkpt>
      <trkpt lat="43.330263" lon="-6.890683">
        <ele>959.7</ele>
        <time>2021-04-14T13:20:30.000Z</time>
      </trkpt>
      <trkpt lat="43.330357" lon="-6.890703">
        <ele>960.7</ele>
        <time>2021-04-14T13:20:36.000Z</time>
      </trkpt>
      <trkpt lat="43.330453" lon="-6.890678">
        <ele>960.3</ele>
        <time>2021-04-14T13:20:42.000Z</time>
      </trkpt>
      <trkpt lat="43.330542" lon="-6.890642">
        <ele>963.6</ele>
        <time>2021-04-14T13:20:46.000Z</time>
      </trkpt>
      <trkpt lat="43.330647" lon="-6.890653">
        <ele>964.7</ele>
        <time>2021-04-14T13:20:51.000Z</time>
      </trkpt>
      <trkpt lat="43.330743" lon="-6.890637">
        <ele>965</ele>
        <time>2021-04-14T13:20:55.000Z</time>
      </trkpt>
      <trkpt lat="43.33084" lon="-6.89066">
        <ele>966.3</ele>
        <time>2021-04-14T13:21:00.000Z</time>
      </trkpt>
      <trkpt lat="43.330945" lon="-6.890682">
        <ele>967.8</ele>
        <time>2021-04-14T13:21:08.000Z</time>
      </trkpt>
      <trkpt lat="43.331038" lon="-6.89066">
        <ele>969.4</ele>
        <time>2021-04-14T13:21:12.000Z</time>
      </trkpt>
      <trkpt lat="43.331148" lon="-6.890637">
        <ele>970.1</ele>
        <time>2021-04-14T13:21:17.000Z</time>
      </trkpt>
      <trkpt lat="43.331237" lon="-6.890678">
        <ele>970</ele>
        <time>2021-04-14T13:21:21.000Z</time>
      </trkpt>
      <trkpt lat="43.331322" lon="-6.890735">
        <ele>972</ele>
        <time>2021-04-14T13:21:26.000Z</time>
      </trkpt>
      <trkpt lat="43.331423" lon="-6.890765">
        <ele>976.2</ele>
        <time>2021-04-14T13:21:31.000Z</time>
      </trkpt>
      <trkpt lat="43.331518" lon="-6.89077">
        <ele>980.7</ele>
        <time>2021-04-14T13:21:39.000Z</time>
      </trkpt>
      <trkpt lat="43.331622" lon="-6.890788">
        <ele>981.5</ele>
        <time>2021-04-14T13:21:44.000Z</time>
      </trkpt>
      <trkpt lat="43.331713" lon="-6.890828">
        <ele>982.8</ele>
        <time>2021-04-14T13:21:49.000Z</time>
      </trkpt>
      <trkpt lat="43.331813" lon="-6.890857">
        <ele>982</ele>
        <time>2021-04-14T13:21:55.000Z</time>
      </trkpt>
      <trkpt lat="43.33192" lon="-6.89085">
        <ele>983.9</ele>
        <time>2021-04-14T13:22:03.000Z</time>
      </trkpt>
      <trkpt lat="43.332013" lon="-6.890817">
        <ele>985.6</ele>
        <time>2021-04-14T13:22:07.000Z</time>
      </trkpt>
      <trkpt lat="43.332087" lon="-6.890737">
        <ele>986</ele>
        <time>2021-04-14T13:23:20.000Z</time>
      </trkpt>
      <trkpt lat="43.332172" lon="-6.89066">
        <ele>986.7</ele>
        <time>2021-04-14T13:23:27.000Z</time>
      </trkpt>
      <trkpt lat="43.332262" lon="-6.890622">
        <ele>989</ele>
        <time>2021-04-14T13:23:32.000Z</time>
      </trkpt>
      <trkpt lat="43.332353" lon="-6.890568">
        <ele>990.5</ele>
        <time>2021-04-14T13:23:37.000Z</time>
      </trkpt>
      <trkpt lat="43.332433" lon="-6.890505">
        <ele>993.1</ele>
        <time>2021-04-14T13:23:43.000Z</time>
      </trkpt>
      <trkpt lat="43.332527" lon="-6.890482">
        <ele>997.1</ele>
        <time>2021-04-14T13:23:51.000Z</time>
      </trkpt>
      <trkpt lat="43.332617" lon="-6.890405">
        <ele>999.8</ele>
        <time>2021-04-14T13:23:57.000Z</time>
      </trkpt>
      <trkpt lat="43.332717" lon="-6.890353">
        <ele>1003.5</ele>
        <time>2021-04-14T13:24:02.000Z</time>
      </trkpt>
      <trkpt lat="43.332808" lon="-6.890305">
        <ele>1004.7</ele>
        <time>2021-04-14T13:24:08.000Z</time>
      </trkpt>
      <trkpt lat="43.332902" lon="-6.890255">
        <ele>1008.4</ele>
        <time>2021-04-14T13:24:15.000Z</time>
      </trkpt>
      <trkpt lat="43.332997" lon="-6.890238">
        <ele>1009.4</ele>
        <time>2021-04-14T13:24:23.000Z</time>
      </trkpt>
      <trkpt lat="43.333092" lon="-6.890222">
        <ele>1011.9</ele>
        <time>2021-04-14T13:24:29.000Z</time>
      </trkpt>
      <trkpt lat="43.333183" lon="-6.890198">
        <ele>1011.5</ele>
        <time>2021-04-14T13:24:38.000Z</time>
      </trkpt>
      <trkpt lat="43.333273" lon="-6.890125">
        <ele>1012.5</ele>
        <time>2021-04-14T13:24:46.000Z</time>
      </trkpt>
      <trkpt lat="43.33337" lon="-6.89005">
        <ele>1013</ele>
        <time>2021-04-14T13:24:51.000Z</time>
      </trkpt>
      <trkpt lat="43.333468" lon="-6.889972">
        <ele>1015.6</ele>
        <time>2021-04-14T13:24:55.000Z</time>
      </trkpt>
      <trkpt lat="43.333565" lon="-6.88993">
        <ele>1016.9</ele>
        <time>2021-04-14T13:24:59.000Z</time>
      </trkpt>
      <trkpt lat="43.333678" lon="-6.889913">
        <ele>1017.3</ele>
        <time>2021-04-14T13:25:03.000Z</time>
      </trkpt>
      <trkpt lat="43.333768" lon="-6.889902">
        <ele>1020.7</ele>
        <time>2021-04-14T13:25:07.000Z</time>
      </trkpt>
      <trkpt lat="43.333867" lon="-6.88995">
        <ele>1023.5</ele>
        <time>2021-04-14T13:25:11.000Z</time>
      </trkpt>
      <trkpt lat="43.333963" lon="-6.88997">
        <ele>1026.3</ele>
        <time>2021-04-14T13:25:19.000Z</time>
      </trkpt>
      <trkpt lat="43.334052" lon="-6.889905">
        <ele>1027.4</ele>
        <time>2021-04-14T13:25:22.000Z</time>
      </trkpt>
      <trkpt lat="43.334165" lon="-6.88985">
        <ele>1028.2</ele>
        <time>2021-04-14T13:25:26.000Z</time>
      </trkpt>
      <trkpt lat="43.33426" lon="-6.889792">
        <ele>1028.7</ele>
        <time>2021-04-14T13:25:29.000Z</time>
      </trkpt>
      <trkpt lat="43.33436" lon="-6.889732">
        <ele>1030</ele>
        <time>2021-04-14T13:25:32.000Z</time>
      </trkpt>
      <trkpt lat="43.33446" lon="-6.889682">
        <ele>1030.5</ele>
        <time>2021-04-14T13:25:35.000Z</time>
      </trkpt>
      <trkpt lat="43.33455" lon="-6.889677">
        <ele>1029.1</ele>
        <time>2021-04-14T13:25:38.000Z</time>
      </trkpt>
      <trkpt lat="43.334687" lon="-6.889718">
        <ele>1029.2</ele>
        <time>2021-04-14T13:25:43.000Z</time>
      </trkpt>
      <trkpt lat="43.334778" lon="-6.889763">
        <ele>1028.9</ele>
        <time>2021-04-14T13:25:47.000Z</time>
      </trkpt>
      <trkpt lat="43.334875" lon="-6.889812">
        <ele>1029.7</ele>
        <time>2021-04-14T13:25:50.000Z</time>
      </trkpt>
      <trkpt lat="43.334983" lon="-6.88987">
        <ele>1029.9</ele>
        <time>2021-04-14T13:25:53.000Z</time>
      </trkpt>
      <trkpt lat="43.335082" lon="-6.889978">
        <ele>1029</ele>
        <time>2021-04-14T13:25:58.000Z</time>
      </trkpt>
      <trkpt lat="43.335195" lon="-6.890058">
        <ele>1027.7</ele>
        <time>2021-04-14T13:26:01.000Z</time>
      </trkpt>
      <trkpt lat="43.335297" lon="-6.890147">
        <ele>1025.8</ele>
        <time>2021-04-14T13:26:04.000Z</time>
      </trkpt>
      <trkpt lat="43.33539" lon="-6.890248">
        <ele>1023.6</ele>
        <time>2021-04-14T13:26:07.000Z</time>
      </trkpt>
      <trkpt lat="43.335513" lon="-6.890317">
        <ele>1022.8</ele>
        <time>2021-04-14T13:26:10.000Z</time>
      </trkpt>
      <trkpt lat="43.335635" lon="-6.89039">
        <ele>1022.8</ele>
        <time>2021-04-14T13:26:13.000Z</time>
      </trkpt>
      <trkpt lat="43.335762" lon="-6.890438">
        <ele>1023.1</ele>
        <time>2021-04-14T13:26:16.000Z</time>
      </trkpt>
      <trkpt lat="43.335873" lon="-6.890427">
        <ele>1024</ele>
        <time>2021-04-14T13:26:19.000Z</time>
      </trkpt>
      <trkpt lat="43.335985" lon="-6.890398">
        <ele>1025</ele>
        <time>2021-04-14T13:26:22.000Z</time>
      </trkpt>
      <trkpt lat="43.336112" lon="-6.89035">
        <ele>1026.1</ele>
        <time>2021-04-14T13:26:25.000Z</time>
      </trkpt>
      <trkpt lat="43.336223" lon="-6.890287">
        <ele>1026.7</ele>
        <time>2021-04-14T13:26:28.000Z</time>
      </trkpt>
      <trkpt lat="43.336332" lon="-6.890218">
        <ele>1025.3</ele>
        <time>2021-04-14T13:26:31.000Z</time>
      </trkpt>
      <trkpt lat="43.336433" lon="-6.89014">
        <ele>1026.1</ele>
        <time>2021-04-14T13:26:34.000Z</time>
      </trkpt>
      <trkpt lat="43.336513" lon="-6.890067">
        <ele>1024.5</ele>
        <time>2021-04-14T13:26:37.000Z</time>
      </trkpt>
      <trkpt lat="43.336587" lon="-6.889945">
        <ele>1023.6</ele>
        <time>2021-04-14T13:26:40.000Z</time>
      </trkpt>
      <trkpt lat="43.336675" lon="-6.889828">
        <ele>1024.9</ele>
        <time>2021-04-14T13:26:43.000Z</time>
      </trkpt>
      <trkpt lat="43.336807" lon="-6.88977">
        <ele>1025.4</ele>
        <time>2021-04-14T13:26:46.000Z</time>
      </trkpt>
      <trkpt lat="43.336915" lon="-6.889752">
        <ele>1026.3</ele>
        <time>2021-04-14T13:26:48.000Z</time>
      </trkpt>
      <trkpt lat="43.337007" lon="-6.889747">
        <ele>1025.2</ele>
        <time>2021-04-14T13:26:50.000Z</time>
      </trkpt>
      <trkpt lat="43.337103" lon="-6.889723">
        <ele>1024.2</ele>
        <time>2021-04-14T13:26:52.000Z</time>
      </trkpt>
      <trkpt lat="43.337217" lon="-6.889657">
        <ele>1023.2</ele>
        <time>2021-04-14T13:26:54.000Z</time>
      </trkpt>
      <trkpt lat="43.337313" lon="-6.889588">
        <ele>1022.6</ele>
        <time>2021-04-14T13:26:56.000Z</time>
      </trkpt>
      <trkpt lat="43.337397" lon="-6.889503">
        <ele>1022</ele>
        <time>2021-04-14T13:26:58.000Z</time>
      </trkpt>
      <trkpt lat="43.337455" lon="-6.889402">
        <ele>1021.2</ele>
        <time>2021-04-14T13:27:00.000Z</time>
      </trkpt>
      <trkpt lat="43.337503" lon="-6.88929">
        <ele>1021.4</ele>
        <time>2021-04-14T13:27:02.000Z</time>
      </trkpt>
      <trkpt lat="43.337558" lon="-6.889167">
        <ele>1025.4</ele>
        <time>2021-04-14T13:27:06.000Z</time>
      </trkpt>
      <trkpt lat="43.337677" lon="-6.889055">
        <ele>1025.2</ele>
        <time>2021-04-14T13:27:10.000Z</time>
      </trkpt>
      <trkpt lat="43.337785" lon="-6.889005">
        <ele>1024.8</ele>
        <time>2021-04-14T13:27:13.000Z</time>
      </trkpt>
      <trkpt lat="43.337882" lon="-6.888972">
        <ele>1023.6</ele>
        <time>2021-04-14T13:27:19.000Z</time>
      </trkpt>
      <trkpt lat="43.338" lon="-6.888927">
        <ele>1024.3</ele>
        <time>2021-04-14T13:27:22.000Z</time>
      </trkpt>
      <trkpt lat="43.338093" lon="-6.888898">
        <ele>1022.8</ele>
        <time>2021-04-14T13:27:24.000Z</time>
      </trkpt>
      <trkpt lat="43.338215" lon="-6.888862">
        <ele>1021.3</ele>
        <time>2021-04-14T13:27:26.000Z</time>
      </trkpt>
      <trkpt lat="43.338315" lon="-6.888843">
        <ele>1018.3</ele>
        <time>2021-04-14T13:27:28.000Z</time>
      </trkpt>
      <trkpt lat="43.338418" lon="-6.888838">
        <ele>1014.2</ele>
        <time>2021-04-14T13:27:31.000Z</time>
      </trkpt>
      <trkpt lat="43.338515" lon="-6.88882">
        <ele>1011.1</ele>
        <time>2021-04-14T13:27:35.000Z</time>
      </trkpt>
      <trkpt lat="43.338607" lon="-6.888793">
        <ele>1009.9</ele>
        <time>2021-04-14T13:27:38.000Z</time>
      </trkpt>
      <trkpt lat="43.338725" lon="-6.888753">
        <ele>1008.4</ele>
        <time>2021-04-14T13:27:41.000Z</time>
      </trkpt>
      <trkpt lat="43.338843" lon="-6.888713">
        <ele>1007.4</ele>
        <time>2021-04-14T13:27:44.000Z</time>
      </trkpt>
      <trkpt lat="43.338955" lon="-6.888668">
        <ele>1007.6</ele>
        <time>2021-04-14T13:27:47.000Z</time>
      </trkpt>
      <trkpt lat="43.339063" lon="-6.888652">
        <ele>1005.1</ele>
        <time>2021-04-14T13:27:50.000Z</time>
      </trkpt>
      <trkpt lat="43.339152" lon="-6.888622">
        <ele>1004.5</ele>
        <time>2021-04-14T13:27:52.000Z</time>
      </trkpt>
      <trkpt lat="43.33926" lon="-6.888588">
        <ele>1003.8</ele>
        <time>2021-04-14T13:27:54.000Z</time>
      </trkpt>
      <trkpt lat="43.33938" lon="-6.888562">
        <ele>1003.5</ele>
        <time>2021-04-14T13:27:56.000Z</time>
      </trkpt>
      <trkpt lat="43.339498" lon="-6.888545">
        <ele>1003.2</ele>
        <time>2021-04-14T13:27:58.000Z</time>
      </trkpt>
      <trkpt lat="43.339617" lon="-6.888512">
        <ele>1002.2</ele>
        <time>2021-04-14T13:28:00.000Z</time>
      </trkpt>
      <trkpt lat="43.339725" lon="-6.888472">
        <ele>1002</ele>
        <time>2021-04-14T13:28:02.000Z</time>
      </trkpt>
      <trkpt lat="43.339842" lon="-6.888417">
        <ele>999</ele>
        <time>2021-04-14T13:28:05.000Z</time>
      </trkpt>
      <trkpt lat="43.33996" lon="-6.888367">
        <ele>996.4</ele>
        <time>2021-04-14T13:28:08.000Z</time>
      </trkpt>
      <trkpt lat="43.340062" lon="-6.888338">
        <ele>995.9</ele>
        <time>2021-04-14T13:28:11.000Z</time>
      </trkpt>
      <trkpt lat="43.340173" lon="-6.888313">
        <ele>996.4</ele>
        <time>2021-04-14T13:28:16.000Z</time>
      </trkpt>
      <trkpt lat="43.340275" lon="-6.888278">
        <ele>996.2</ele>
        <time>2021-04-14T13:28:19.000Z</time>
      </trkpt>
      <trkpt lat="43.340387" lon="-6.88824">
        <ele>996.5</ele>
        <time>2021-04-14T13:28:22.000Z</time>
      </trkpt>
      <trkpt lat="43.340485" lon="-6.88822">
        <ele>997.6</ele>
        <time>2021-04-14T13:28:28.000Z</time>
      </trkpt>
      <trkpt lat="43.340537" lon="-6.888118">
        <ele>996.8</ele>
        <time>2021-04-14T13:28:56.000Z</time>
      </trkpt>
      <trkpt lat="43.340563" lon="-6.887995">
        <ele>999.2</ele>
        <time>2021-04-14T13:29:08.000Z</time>
      </trkpt>
      <trkpt lat="43.340582" lon="-6.88787">
        <ele>996.9</ele>
        <time>2021-04-14T13:29:30.000Z</time>
      </trkpt>
      <trkpt lat="43.3406" lon="-6.888002">
        <ele>997.6</ele>
        <time>2021-04-14T13:29:47.000Z</time>
      </trkpt>
      <trkpt lat="43.340562" lon="-6.888115">
        <ele>997.2</ele>
        <time>2021-04-14T13:30:05.000Z</time>
      </trkpt>
      <trkpt lat="43.340497" lon="-6.888212">
        <ele>996.1</ele>
        <time>2021-04-14T13:30:18.000Z</time>
      </trkpt>
      <trkpt lat="43.340575" lon="-6.88828">
        <ele>999.2</ele>
        <time>2021-04-14T13:30:42.000Z</time>
      </trkpt>
      <trkpt lat="43.340672" lon="-6.888313">
        <ele>999.9</ele>
        <time>2021-04-14T13:30:45.000Z</time>
      </trkpt>
      <trkpt lat="43.340767" lon="-6.888343">
        <ele>998.2</ele>
        <time>2021-04-14T13:30:48.000Z</time>
      </trkpt>
      <trkpt lat="43.340877" lon="-6.888388">
        <ele>999.2</ele>
        <time>2021-04-14T13:30:52.000Z</time>
      </trkpt>
      <trkpt lat="43.340985" lon="-6.888422">
        <ele>999.5</ele>
        <time>2021-04-14T13:30:55.000Z</time>
      </trkpt>
      <trkpt lat="43.341095" lon="-6.888448">
        <ele>999.1</ele>
        <time>2021-04-14T13:30:58.000Z</time>
      </trkpt>
      <trkpt lat="43.341218" lon="-6.888458">
        <ele>999.1</ele>
        <time>2021-04-14T13:31:01.000Z</time>
      </trkpt>
      <trkpt lat="43.341308" lon="-6.888462">
        <ele>998.8</ele>
        <time>2021-04-14T13:31:03.000Z</time>
      </trkpt>
      <trkpt lat="43.34143" lon="-6.888457">
        <ele>998.1</ele>
        <time>2021-04-14T13:31:06.000Z</time>
      </trkpt>
      <trkpt lat="43.341525" lon="-6.888447">
        <ele>999.2</ele>
        <time>2021-04-14T13:31:08.000Z</time>
      </trkpt>
      <trkpt lat="43.341617" lon="-6.888435">
        <ele>1000.6</ele>
        <time>2021-04-14T13:31:10.000Z</time>
      </trkpt>
      <trkpt lat="43.341708" lon="-6.888425">
        <ele>1001.7</ele>
        <time>2021-04-14T13:31:12.000Z</time>
      </trkpt>
      <trkpt lat="43.341837" lon="-6.888428">
        <ele>1003.1</ele>
        <time>2021-04-14T13:31:15.000Z</time>
      </trkpt>
      <trkpt lat="43.341927" lon="-6.888432">
        <ele>1003.9</ele>
        <time>2021-04-14T13:31:17.000Z</time>
      </trkpt>
      <trkpt lat="43.342057" lon="-6.888437">
        <ele>1004.1</ele>
        <time>2021-04-14T13:31:20.000Z</time>
      </trkpt>
      <trkpt lat="43.342177" lon="-6.888453">
        <ele>1004.8</ele>
        <time>2021-04-14T13:31:23.000Z</time>
      </trkpt>
      <trkpt lat="43.342317" lon="-6.88844">
        <ele>1006.1</ele>
        <time>2021-04-14T13:31:26.000Z</time>
      </trkpt>
      <trkpt lat="43.342413" lon="-6.888413">
        <ele>1007.1</ele>
        <time>2021-04-14T13:31:28.000Z</time>
      </trkpt>
      <trkpt lat="43.34251" lon="-6.888387">
        <ele>1007.6</ele>
        <time>2021-04-14T13:31:30.000Z</time>
      </trkpt>
      <trkpt lat="43.34261" lon="-6.88837">
        <ele>1007.9</ele>
        <time>2021-04-14T13:31:32.000Z</time>
      </trkpt>
      <trkpt lat="43.342705" lon="-6.888338">
        <ele>1007.9</ele>
        <time>2021-04-14T13:31:34.000Z</time>
      </trkpt>
      <trkpt lat="43.342815" lon="-6.88831">
        <ele>1007.3</ele>
        <time>2021-04-14T13:31:37.000Z</time>
      </trkpt>
      <trkpt lat="43.342922" lon="-6.888262">
        <ele>1006.2</ele>
        <time>2021-04-14T13:31:40.000Z</time>
      </trkpt>
      <trkpt lat="43.343047" lon="-6.88823">
        <ele>1005.5</ele>
        <time>2021-04-14T13:31:43.000Z</time>
      </trkpt>
      <trkpt lat="43.343155" lon="-6.888223">
        <ele>1006.3</ele>
        <time>2021-04-14T13:31:45.000Z</time>
      </trkpt>
      <trkpt lat="43.343275" lon="-6.888232">
        <ele>1006.5</ele>
        <time>2021-04-14T13:31:47.000Z</time>
      </trkpt>
      <trkpt lat="43.343402" lon="-6.888252">
        <ele>1005.3</ele>
        <time>2021-04-14T13:31:49.000Z</time>
      </trkpt>
      <trkpt lat="43.343502" lon="-6.888273">
        <ele>1003.3</ele>
        <time>2021-04-14T13:31:51.000Z</time>
      </trkpt>
      <trkpt lat="43.343613" lon="-6.88829">
        <ele>1002</ele>
        <time>2021-04-14T13:31:54.000Z</time>
      </trkpt>
      <trkpt lat="43.343712" lon="-6.888325">
        <ele>1002.2</ele>
        <time>2021-04-14T13:31:57.000Z</time>
      </trkpt>
      <trkpt lat="43.343828" lon="-6.888367">
        <ele>1002.7</ele>
        <time>2021-04-14T13:32:00.000Z</time>
      </trkpt>
      <trkpt lat="43.343925" lon="-6.888382">
        <ele>1002.4</ele>
        <time>2021-04-14T13:32:02.000Z</time>
      </trkpt>
      <trkpt lat="43.344037" lon="-6.88839">
        <ele>1001.3</ele>
        <time>2021-04-14T13:32:04.000Z</time>
      </trkpt>
      <trkpt lat="43.344165" lon="-6.888405">
        <ele>998.9</ele>
        <time>2021-04-14T13:32:06.000Z</time>
      </trkpt>
      <trkpt lat="43.344315" lon="-6.888428">
        <ele>997.6</ele>
        <time>2021-04-14T13:32:08.000Z</time>
      </trkpt>
      <trkpt lat="43.344468" lon="-6.888457">
        <ele>996.2</ele>
        <time>2021-04-14T13:32:10.000Z</time>
      </trkpt>
      <trkpt lat="43.344617" lon="-6.888483">
        <ele>995.9</ele>
        <time>2021-04-14T13:32:12.000Z</time>
      </trkpt>
      <trkpt lat="43.344758" lon="-6.888497">
        <ele>995.7</ele>
        <time>2021-04-14T13:32:14.000Z</time>
      </trkpt>
      <trkpt lat="43.344895" lon="-6.888492">
        <ele>995.4</ele>
        <time>2021-04-14T13:32:16.000Z</time>
      </trkpt>
      <trkpt lat="43.345025" lon="-6.888482">
        <ele>996.6</ele>
        <time>2021-04-14T13:32:18.000Z</time>
      </trkpt>
      <trkpt lat="43.345143" lon="-6.88847">
        <ele>996.4</ele>
        <time>2021-04-14T13:32:20.000Z</time>
      </trkpt>
      <trkpt lat="43.345257" lon="-6.888435">
        <ele>995.9</ele>
        <time>2021-04-14T13:32:22.000Z</time>
      </trkpt>
      <trkpt lat="43.345377" lon="-6.888388">
        <ele>995.8</ele>
        <time>2021-04-14T13:32:24.000Z</time>
      </trkpt>
      <trkpt lat="43.345495" lon="-6.888338">
        <ele>995.4</ele>
        <time>2021-04-14T13:32:26.000Z</time>
      </trkpt>
      <trkpt lat="43.345612" lon="-6.88828">
        <ele>996.3</ele>
        <time>2021-04-14T13:32:28.000Z</time>
      </trkpt>
      <trkpt lat="43.345722" lon="-6.888235">
        <ele>996.2</ele>
        <time>2021-04-14T13:32:30.000Z</time>
      </trkpt>
      <trkpt lat="43.34583" lon="-6.888192">
        <ele>995.4</ele>
        <time>2021-04-14T13:32:32.000Z</time>
      </trkpt>
      <trkpt lat="43.345948" lon="-6.888153">
        <ele>995.5</ele>
        <time>2021-04-14T13:32:34.000Z</time>
      </trkpt>
      <trkpt lat="43.346065" lon="-6.888117">
        <ele>994.8</ele>
        <time>2021-04-14T13:32:36.000Z</time>
      </trkpt>
      <trkpt lat="43.346183" lon="-6.888083">
        <ele>995.2</ele>
        <time>2021-04-14T13:32:38.000Z</time>
      </trkpt>
      <trkpt lat="43.346298" lon="-6.888037">
        <ele>996.6</ele>
        <time>2021-04-14T13:32:40.000Z</time>
      </trkpt>
      <trkpt lat="43.346395" lon="-6.887985">
        <ele>996.7</ele>
        <time>2021-04-14T13:32:42.000Z</time>
      </trkpt>
      <trkpt lat="43.346498" lon="-6.887945">
        <ele>997.8</ele>
        <time>2021-04-14T13:32:44.000Z</time>
      </trkpt>
      <trkpt lat="43.346593" lon="-6.887917">
        <ele>997.2</ele>
        <time>2021-04-14T13:32:46.000Z</time>
      </trkpt>
      <trkpt lat="43.346687" lon="-6.887895">
        <ele>996.7</ele>
        <time>2021-04-14T13:32:48.000Z</time>
      </trkpt>
      <trkpt lat="43.346782" lon="-6.88789">
        <ele>996.2</ele>
        <time>2021-04-14T13:32:50.000Z</time>
      </trkpt>
      <trkpt lat="43.346882" lon="-6.887883">
        <ele>997.2</ele>
        <time>2021-04-14T13:32:52.000Z</time>
      </trkpt>
      <trkpt lat="43.346977" lon="-6.887872">
        <ele>997.2</ele>
        <time>2021-04-14T13:32:54.000Z</time>
      </trkpt>
      <trkpt lat="43.347075" lon="-6.887858">
        <ele>997.5</ele>
        <time>2021-04-14T13:32:56.000Z</time>
      </trkpt>
      <trkpt lat="43.34718" lon="-6.88785">
        <ele>996.6</ele>
        <time>2021-04-14T13:32:58.000Z</time>
      </trkpt>
      <trkpt lat="43.347292" lon="-6.887848">
        <ele>995.1</ele>
        <time>2021-04-14T13:33:00.000Z</time>
      </trkpt>
      <trkpt lat="43.347407" lon="-6.887842">
        <ele>993.9</ele>
        <time>2021-04-14T13:33:02.000Z</time>
      </trkpt>
      <trkpt lat="43.347497" lon="-6.887837">
        <ele>992.8</ele>
        <time>2021-04-14T13:33:04.000Z</time>
      </trkpt>
      <trkpt lat="43.347633" lon="-6.887813">
        <ele>990.1</ele>
        <time>2021-04-14T13:33:07.000Z</time>
      </trkpt>
      <trkpt lat="43.347733" lon="-6.88779">
        <ele>988.9</ele>
        <time>2021-04-14T13:33:09.000Z</time>
      </trkpt>
      <trkpt lat="43.34783" lon="-6.887763">
        <ele>987.9</ele>
        <time>2021-04-14T13:33:11.000Z</time>
      </trkpt>
      <trkpt lat="43.34796" lon="-6.887732">
        <ele>985</ele>
        <time>2021-04-14T13:33:14.000Z</time>
      </trkpt>
      <trkpt lat="43.348085" lon="-6.887675">
        <ele>984.6</ele>
        <time>2021-04-14T13:33:17.000Z</time>
      </trkpt>
      <trkpt lat="43.348203" lon="-6.887598">
        <ele>986.1</ele>
        <time>2021-04-14T13:33:20.000Z</time>
      </trkpt>
      <trkpt lat="43.34828" lon="-6.887525">
        <ele>985.3</ele>
        <time>2021-04-14T13:33:44.000Z</time>
      </trkpt>
      <trkpt lat="43.348383" lon="-6.88743">
        <ele>985.9</ele>
        <time>2021-04-14T13:33:47.000Z</time>
      </trkpt>
      <trkpt lat="43.348455" lon="-6.88735">
        <ele>986.9</ele>
        <time>2021-04-14T13:33:49.000Z</time>
      </trkpt>
      <trkpt lat="43.348528" lon="-6.887277">
        <ele>988.1</ele>
        <time>2021-04-14T13:33:51.000Z</time>
      </trkpt>
      <trkpt lat="43.348607" lon="-6.887205">
        <ele>989.2</ele>
        <time>2021-04-14T13:33:53.000Z</time>
      </trkpt>
      <trkpt lat="43.348688" lon="-6.88714">
        <ele>990.7</ele>
        <time>2021-04-14T13:33:55.000Z</time>
      </trkpt>
      <trkpt lat="43.348773" lon="-6.88709">
        <ele>992.2</ele>
        <time>2021-04-14T13:33:57.000Z</time>
      </trkpt>
      <trkpt lat="43.348898" lon="-6.887032">
        <ele>993.7</ele>
        <time>2021-04-14T13:34:00.000Z</time>
      </trkpt>
      <trkpt lat="43.349002" lon="-6.886955">
        <ele>995.2</ele>
        <time>2021-04-14T13:34:03.000Z</time>
      </trkpt>
      <trkpt lat="43.34913" lon="-6.8869">
        <ele>996.8</ele>
        <time>2021-04-14T13:34:06.000Z</time>
      </trkpt>
      <trkpt lat="43.349225" lon="-6.886882">
        <ele>997.5</ele>
        <time>2021-04-14T13:34:19.000Z</time>
      </trkpt>
      <trkpt lat="43.34934" lon="-6.886862">
        <ele>996.8</ele>
        <time>2021-04-14T13:34:22.000Z</time>
      </trkpt>
      <trkpt lat="43.349442" lon="-6.886842">
        <ele>995</ele>
        <time>2021-04-14T13:34:25.000Z</time>
      </trkpt>
      <trkpt lat="43.349558" lon="-6.886832">
        <ele>993.3</ele>
        <time>2021-04-14T13:34:28.000Z</time>
      </trkpt>
      <trkpt lat="43.349698" lon="-6.886815">
        <ele>992</ele>
        <time>2021-04-14T13:34:31.000Z</time>
      </trkpt>
      <trkpt lat="43.34981" lon="-6.886797">
        <ele>991.7</ele>
        <time>2021-04-14T13:34:33.000Z</time>
      </trkpt>
      <trkpt lat="43.349933" lon="-6.886777">
        <ele>991.3</ele>
        <time>2021-04-14T13:34:35.000Z</time>
      </trkpt>
      <trkpt lat="43.350062" lon="-6.886753">
        <ele>991.7</ele>
        <time>2021-04-14T13:34:37.000Z</time>
      </trkpt>
      <trkpt lat="43.350182" lon="-6.886732">
        <ele>991.7</ele>
        <time>2021-04-14T13:34:39.000Z</time>
      </trkpt>
      <trkpt lat="43.350293" lon="-6.88671">
        <ele>992</ele>
        <time>2021-04-14T13:34:41.000Z</time>
      </trkpt>
      <trkpt lat="43.350393" lon="-6.886692">
        <ele>991.3</ele>
        <time>2021-04-14T13:34:43.000Z</time>
      </trkpt>
      <trkpt lat="43.350518" lon="-6.88668">
        <ele>990.9</ele>
        <time>2021-04-14T13:34:46.000Z</time>
      </trkpt>
      <trkpt lat="43.350633" lon="-6.886663">
        <ele>990.9</ele>
        <time>2021-04-14T13:34:49.000Z</time>
      </trkpt>
      <trkpt lat="43.350727" lon="-6.886652">
        <ele>991.1</ele>
        <time>2021-04-14T13:34:51.000Z</time>
      </trkpt>
      <trkpt lat="43.35082" lon="-6.886642">
        <ele>990.9</ele>
        <time>2021-04-14T13:34:53.000Z</time>
      </trkpt>
      <trkpt lat="43.35092" lon="-6.886625">
        <ele>992.3</ele>
        <time>2021-04-14T13:34:55.000Z</time>
      </trkpt>
      <trkpt lat="43.351015" lon="-6.886605">
        <ele>993.3</ele>
        <time>2021-04-14T13:34:57.000Z</time>
      </trkpt>
      <trkpt lat="43.351107" lon="-6.886583">
        <ele>993.8</ele>
        <time>2021-04-14T13:34:59.000Z</time>
      </trkpt>
      <trkpt lat="43.35123" lon="-6.886552">
        <ele>994.1</ele>
        <time>2021-04-14T13:35:02.000Z</time>
      </trkpt>
      <trkpt lat="43.35134" lon="-6.886527">
        <ele>994.3</ele>
        <time>2021-04-14T13:35:05.000Z</time>
      </trkpt>
      <trkpt lat="43.351447" lon="-6.886498">
        <ele>995.5</ele>
        <time>2021-04-14T13:35:08.000Z</time>
      </trkpt>
      <trkpt lat="43.351563" lon="-6.886467">
        <ele>995.4</ele>
        <time>2021-04-14T13:35:11.000Z</time>
      </trkpt>
      <trkpt lat="43.351655" lon="-6.886447">
        <ele>995.5</ele>
        <time>2021-04-14T13:35:13.000Z</time>
      </trkpt>
      <trkpt lat="43.351753" lon="-6.88645">
        <ele>995.9</ele>
        <time>2021-04-14T13:35:15.000Z</time>
      </trkpt>
      <trkpt lat="43.351853" lon="-6.886448">
        <ele>996</ele>
        <time>2021-04-14T13:35:17.000Z</time>
      </trkpt>
      <trkpt lat="43.351955" lon="-6.886453">
        <ele>996.1</ele>
        <time>2021-04-14T13:35:19.000Z</time>
      </trkpt>
      <trkpt lat="43.352052" lon="-6.886442">
        <ele>996.1</ele>
        <time>2021-04-14T13:35:21.000Z</time>
      </trkpt>
      <trkpt lat="43.352143" lon="-6.886402">
        <ele>996.1</ele>
        <time>2021-04-14T13:35:23.000Z</time>
      </trkpt>
      <trkpt lat="43.352235" lon="-6.886347">
        <ele>997</ele>
        <time>2021-04-14T13:35:25.000Z</time>
      </trkpt>
      <trkpt lat="43.352347" lon="-6.886263">
        <ele>997</ele>
        <time>2021-04-14T13:35:28.000Z</time>
      </trkpt>
      <trkpt lat="43.352447" lon="-6.886197">
        <ele>997.2</ele>
        <time>2021-04-14T13:35:31.000Z</time>
      </trkpt>
      <trkpt lat="43.35255" lon="-6.886123">
        <ele>998</ele>
        <time>2021-04-14T13:35:34.000Z</time>
      </trkpt>
      <trkpt lat="43.352665" lon="-6.886053">
        <ele>998.5</ele>
        <time>2021-04-14T13:35:37.000Z</time>
      </trkpt>
      <trkpt lat="43.352777" lon="-6.885987">
        <ele>999.2</ele>
        <time>2021-04-14T13:35:40.000Z</time>
      </trkpt>
      <trkpt lat="43.352902" lon="-6.88593">
        <ele>1000.3</ele>
        <time>2021-04-14T13:35:43.000Z</time>
      </trkpt>
      <trkpt lat="43.353022" lon="-6.885882">
        <ele>1000.9</ele>
        <time>2021-04-14T13:35:46.000Z</time>
      </trkpt>
      <trkpt lat="43.353137" lon="-6.885865">
        <ele>1001.1</ele>
        <time>2021-04-14T13:35:49.000Z</time>
      </trkpt>
      <trkpt lat="43.35327" lon="-6.88587">
        <ele>1000.6</ele>
        <time>2021-04-14T13:35:52.000Z</time>
      </trkpt>
      <trkpt lat="43.353367" lon="-6.885872">
        <ele>1000.8</ele>
        <time>2021-04-14T13:35:54.000Z</time>
      </trkpt>
      <trkpt lat="43.35346" lon="-6.885875">
        <ele>1000.9</ele>
        <time>2021-04-14T13:35:56.000Z</time>
      </trkpt>
      <trkpt lat="43.353558" lon="-6.885877">
        <ele>1000.9</ele>
        <time>2021-04-14T13:35:58.000Z</time>
      </trkpt>
      <trkpt lat="43.353662" lon="-6.885872">
        <ele>1000.2</ele>
        <time>2021-04-14T13:36:00.000Z</time>
      </trkpt>
      <trkpt lat="43.353765" lon="-6.885862">
        <ele>999.4</ele>
        <time>2021-04-14T13:36:02.000Z</time>
      </trkpt>
      <trkpt lat="43.353862" lon="-6.885855">
        <ele>999</ele>
        <time>2021-04-14T13:36:04.000Z</time>
      </trkpt>
      <trkpt lat="43.353952" lon="-6.885848">
        <ele>999.2</ele>
        <time>2021-04-14T13:36:06.000Z</time>
      </trkpt>
      <trkpt lat="43.35407" lon="-6.885843">
        <ele>999.1</ele>
        <time>2021-04-14T13:36:09.000Z</time>
      </trkpt>
      <trkpt lat="43.354173" lon="-6.885837">
        <ele>998.6</ele>
        <time>2021-04-14T13:36:12.000Z</time>
      </trkpt>
      <trkpt lat="43.354285" lon="-6.885822">
        <ele>999.3</ele>
        <time>2021-04-14T13:36:15.000Z</time>
      </trkpt>
      <trkpt lat="43.354375" lon="-6.885793">
        <ele>998.8</ele>
        <time>2021-04-14T13:36:18.000Z</time>
      </trkpt>
      <trkpt lat="43.354482" lon="-6.88575">
        <ele>998.2</ele>
        <time>2021-04-14T13:36:21.000Z</time>
      </trkpt>
      <trkpt lat="43.354577" lon="-6.885685">
        <ele>995.3</ele>
        <time>2021-04-14T13:36:24.000Z</time>
      </trkpt>
      <trkpt lat="43.354675" lon="-6.88567">
        <ele>992</ele>
        <time>2021-04-14T13:39:22.000Z</time>
      </trkpt>
      <trkpt lat="43.354782" lon="-6.885602">
        <ele>990.1</ele>
        <time>2021-04-14T13:39:25.000Z</time>
      </trkpt>
      <trkpt lat="43.354895" lon="-6.885503">
        <ele>988.3</ele>
        <time>2021-04-14T13:39:28.000Z</time>
      </trkpt>
      <trkpt lat="43.354998" lon="-6.88539">
        <ele>987.5</ele>
        <time>2021-04-14T13:39:31.000Z</time>
      </trkpt>
      <trkpt lat="43.355067" lon="-6.885307">
        <ele>988.4</ele>
        <time>2021-04-14T13:39:33.000Z</time>
      </trkpt>
      <trkpt lat="43.355142" lon="-6.88522">
        <ele>989.9</ele>
        <time>2021-04-14T13:39:35.000Z</time>
      </trkpt>
      <trkpt lat="43.355218" lon="-6.885145">
        <ele>991.1</ele>
        <time>2021-04-14T13:39:37.000Z</time>
      </trkpt>
      <trkpt lat="43.35533" lon="-6.88505">
        <ele>990.4</ele>
        <time>2021-04-14T13:39:40.000Z</time>
      </trkpt>
      <trkpt lat="43.355445" lon="-6.884968">
        <ele>988.6</ele>
        <time>2021-04-14T13:39:43.000Z</time>
      </trkpt>
      <trkpt lat="43.355567" lon="-6.884907">
        <ele>988.3</ele>
        <time>2021-04-14T13:39:46.000Z</time>
      </trkpt>
      <trkpt lat="43.355657" lon="-6.884883">
        <ele>988.4</ele>
        <time>2021-04-14T13:39:48.000Z</time>
      </trkpt>
      <trkpt lat="43.355748" lon="-6.884887">
        <ele>988.8</ele>
        <time>2021-04-14T13:39:50.000Z</time>
      </trkpt>
      <trkpt lat="43.355838" lon="-6.88491">
        <ele>988.4</ele>
        <time>2021-04-14T13:39:52.000Z</time>
      </trkpt>
      <trkpt lat="43.35596" lon="-6.884942">
        <ele>988</ele>
        <time>2021-04-14T13:39:55.000Z</time>
      </trkpt>
      <trkpt lat="43.356082" lon="-6.884988">
        <ele>988.1</ele>
        <time>2021-04-14T13:39:58.000Z</time>
      </trkpt>
      <trkpt lat="43.356217" lon="-6.884968">
        <ele>985.6</ele>
        <time>2021-04-14T13:40:01.000Z</time>
      </trkpt>
      <trkpt lat="43.356315" lon="-6.884925">
        <ele>982.2</ele>
        <time>2021-04-14T13:40:03.000Z</time>
      </trkpt>
      <trkpt lat="43.356415" lon="-6.884843">
        <ele>980.5</ele>
        <time>2021-04-14T13:40:05.000Z</time>
      </trkpt>
      <trkpt lat="43.356508" lon="-6.884732">
        <ele>979.6</ele>
        <time>2021-04-14T13:40:07.000Z</time>
      </trkpt>
      <trkpt lat="43.356602" lon="-6.884618">
        <ele>979</ele>
        <time>2021-04-14T13:40:09.000Z</time>
      </trkpt>
      <trkpt lat="43.3567" lon="-6.884512">
        <ele>978.7</ele>
        <time>2021-04-14T13:40:11.000Z</time>
      </trkpt>
      <trkpt lat="43.356793" lon="-6.88442">
        <ele>978.4</ele>
        <time>2021-04-14T13:40:13.000Z</time>
      </trkpt>
      <trkpt lat="43.356882" lon="-6.884353">
        <ele>978.3</ele>
        <time>2021-04-14T13:40:15.000Z</time>
      </trkpt>
      <trkpt lat="43.35699" lon="-6.884298">
        <ele>978.7</ele>
        <time>2021-04-14T13:40:18.000Z</time>
      </trkpt>
      <trkpt lat="43.357068" lon="-6.884225">
        <ele>979.4</ele>
        <time>2021-04-14T13:40:23.000Z</time>
      </trkpt>
      <trkpt lat="43.357115" lon="-6.884085">
        <ele>984</ele>
        <time>2021-04-14T13:41:10.000Z</time>
      </trkpt>
      <trkpt lat="43.35705" lon="-6.883973">
        <ele>985.6</ele>
        <time>2021-04-14T13:41:13.000Z</time>
      </trkpt>
      <trkpt lat="43.356958" lon="-6.88385">
        <ele>986.2</ele>
        <time>2021-04-14T13:41:16.000Z</time>
      </trkpt>
      <trkpt lat="43.356887" lon="-6.883743">
        <ele>985.6</ele>
        <time>2021-04-14T13:41:18.000Z</time>
      </trkpt>
      <trkpt lat="43.356825" lon="-6.883602">
        <ele>983.8</ele>
        <time>2021-04-14T13:41:20.000Z</time>
      </trkpt>
      <trkpt lat="43.356775" lon="-6.883427">
        <ele>981.7</ele>
        <time>2021-04-14T13:41:22.000Z</time>
      </trkpt>
      <trkpt lat="43.35673" lon="-6.883232">
        <ele>979.1</ele>
        <time>2021-04-14T13:41:24.000Z</time>
      </trkpt>
      <trkpt lat="43.3567" lon="-6.883055">
        <ele>976.8</ele>
        <time>2021-04-14T13:41:26.000Z</time>
      </trkpt>
      <trkpt lat="43.356672" lon="-6.882867">
        <ele>974.2</ele>
        <time>2021-04-14T13:41:28.000Z</time>
      </trkpt>
      <trkpt lat="43.356687" lon="-6.882693">
        <ele>971</ele>
        <time>2021-04-14T13:41:30.000Z</time>
      </trkpt>
      <trkpt lat="43.356778" lon="-6.882558">
        <ele>968.6</ele>
        <time>2021-04-14T13:41:32.000Z</time>
      </trkpt>
      <trkpt lat="43.3569" lon="-6.882422">
        <ele>966.1</ele>
        <time>2021-04-14T13:41:34.000Z</time>
      </trkpt>
      <trkpt lat="43.356992" lon="-6.882225">
        <ele>964.6</ele>
        <time>2021-04-14T13:41:36.000Z</time>
      </trkpt>
      <trkpt lat="43.357023" lon="-6.882107">
        <ele>963.9</ele>
        <time>2021-04-14T13:41:37.000Z</time>
      </trkpt>
      <trkpt lat="43.357052" lon="-6.88198">
        <ele>962.9</ele>
        <time>2021-04-14T13:41:38.000Z</time>
      </trkpt>
      <trkpt lat="43.357073" lon="-6.881845">
        <ele>960.9</ele>
        <time>2021-04-14T13:41:39.000Z</time>
      </trkpt>
      <trkpt lat="43.357095" lon="-6.881715">
        <ele>959.3</ele>
        <time>2021-04-14T13:41:40.000Z</time>
      </trkpt>
      <trkpt lat="43.357115" lon="-6.881593">
        <ele>958.3</ele>
        <time>2021-04-14T13:41:41.000Z</time>
      </trkpt>
      <trkpt lat="43.357143" lon="-6.881467">
        <ele>957.6</ele>
        <time>2021-04-14T13:41:42.000Z</time>
      </trkpt>
      <trkpt lat="43.357178" lon="-6.88134">
        <ele>956.8</ele>
        <time>2021-04-14T13:41:43.000Z</time>
      </trkpt>
      <trkpt lat="43.357218" lon="-6.881213">
        <ele>955.7</ele>
        <time>2021-04-14T13:41:44.000Z</time>
      </trkpt>
      <trkpt lat="43.357258" lon="-6.881098">
        <ele>954.7</ele>
        <time>2021-04-14T13:41:45.000Z</time>
      </trkpt>
      <trkpt lat="43.357333" lon="-6.88091">
        <ele>952.9</ele>
        <time>2021-04-14T13:41:47.000Z</time>
      </trkpt>
      <trkpt lat="43.357412" lon="-6.880752">
        <ele>951.7</ele>
        <time>2021-04-14T13:41:49.000Z</time>
      </trkpt>
      <trkpt lat="43.357497" lon="-6.880578">
        <ele>950.4</ele>
        <time>2021-04-14T13:41:51.000Z</time>
      </trkpt>
      <trkpt lat="43.357595" lon="-6.880385">
        <ele>948.9</ele>
        <time>2021-04-14T13:41:53.000Z</time>
      </trkpt>
      <trkpt lat="43.357648" lon="-6.880282">
        <ele>948.5</ele>
        <time>2021-04-14T13:41:54.000Z</time>
      </trkpt>
      <trkpt lat="43.357702" lon="-6.880178">
        <ele>947</ele>
        <time>2021-04-14T13:41:55.000Z</time>
      </trkpt>
      <trkpt lat="43.357753" lon="-6.880077">
        <ele>945.1</ele>
        <time>2021-04-14T13:41:56.000Z</time>
      </trkpt>
      <trkpt lat="43.357813" lon="-6.879975">
        <ele>943.4</ele>
        <time>2021-04-14T13:41:57.000Z</time>
      </trkpt>
      <trkpt lat="43.357883" lon="-6.87987">
        <ele>942.3</ele>
        <time>2021-04-14T13:41:58.000Z</time>
      </trkpt>
      <trkpt lat="43.357952" lon="-6.879767">
        <ele>941</ele>
        <time>2021-04-14T13:41:59.000Z</time>
      </trkpt>
      <trkpt lat="43.358017" lon="-6.879677">
        <ele>939.7</ele>
        <time>2021-04-14T13:42:00.000Z</time>
      </trkpt>
      <trkpt lat="43.358142" lon="-6.879522">
        <ele>937.8</ele>
        <time>2021-04-14T13:42:02.000Z</time>
      </trkpt>
      <trkpt lat="43.358273" lon="-6.87937">
        <ele>937.7</ele>
        <time>2021-04-14T13:42:04.000Z</time>
      </trkpt>
      <trkpt lat="43.358405" lon="-6.879215">
        <ele>936.2</ele>
        <time>2021-04-14T13:42:06.000Z</time>
      </trkpt>
      <trkpt lat="43.358478" lon="-6.879138">
        <ele>935</ele>
        <time>2021-04-14T13:42:07.000Z</time>
      </trkpt>
      <trkpt lat="43.358553" lon="-6.879062">
        <ele>934</ele>
        <time>2021-04-14T13:42:08.000Z</time>
      </trkpt>
      <trkpt lat="43.35864" lon="-6.878983">
        <ele>933.2</ele>
        <time>2021-04-14T13:42:09.000Z</time>
      </trkpt>
      <trkpt lat="43.358725" lon="-6.8789">
        <ele>932.3</ele>
        <time>2021-04-14T13:42:10.000Z</time>
      </trkpt>
      <trkpt lat="43.358813" lon="-6.878815">
        <ele>931.3</ele>
        <time>2021-04-14T13:42:11.000Z</time>
      </trkpt>
      <trkpt lat="43.358898" lon="-6.87873">
        <ele>929.9</ele>
        <time>2021-04-14T13:42:12.000Z</time>
      </trkpt>
      <trkpt lat="43.358992" lon="-6.878645">
        <ele>929.2</ele>
        <time>2021-04-14T13:42:13.000Z</time>
      </trkpt>
      <trkpt lat="43.359092" lon="-6.878568">
        <ele>928.6</ele>
        <time>2021-04-14T13:42:14.000Z</time>
      </trkpt>
      <trkpt lat="43.359193" lon="-6.878495">
        <ele>927.1</ele>
        <time>2021-04-14T13:42:15.000Z</time>
      </trkpt>
      <trkpt lat="43.35929" lon="-6.878427">
        <ele>925.9</ele>
        <time>2021-04-14T13:42:16.000Z</time>
      </trkpt>
      <trkpt lat="43.359382" lon="-6.87837">
        <ele>924.8</ele>
        <time>2021-04-14T13:42:17.000Z</time>
      </trkpt>
      <trkpt lat="43.359468" lon="-6.878315">
        <ele>923.2</ele>
        <time>2021-04-14T13:42:18.000Z</time>
      </trkpt>
      <trkpt lat="43.359552" lon="-6.878252">
        <ele>921.8</ele>
        <time>2021-04-14T13:42:19.000Z</time>
      </trkpt>
      <trkpt lat="43.35963" lon="-6.87818">
        <ele>920.7</ele>
        <time>2021-04-14T13:42:20.000Z</time>
      </trkpt>
      <trkpt lat="43.359705" lon="-6.878102">
        <ele>919.5</ele>
        <time>2021-04-14T13:42:21.000Z</time>
      </trkpt>
      <trkpt lat="43.359782" lon="-6.87802">
        <ele>917.9</ele>
        <time>2021-04-14T13:42:22.000Z</time>
      </trkpt>
      <trkpt lat="43.359862" lon="-6.877938">
        <ele>916.7</ele>
        <time>2021-04-14T13:42:23.000Z</time>
      </trkpt>
      <trkpt lat="43.359933" lon="-6.87786">
        <ele>915.4</ele>
        <time>2021-04-14T13:42:24.000Z</time>
      </trkpt>
      <trkpt lat="43.360058" lon="-6.87772">
        <ele>913.4</ele>
        <time>2021-04-14T13:42:26.000Z</time>
      </trkpt>
      <trkpt lat="43.360178" lon="-6.877572">
        <ele>912</ele>
        <time>2021-04-14T13:42:28.000Z</time>
      </trkpt>
      <trkpt lat="43.360292" lon="-6.877397">
        <ele>911.1</ele>
        <time>2021-04-14T13:42:30.000Z</time>
      </trkpt>
      <trkpt lat="43.360373" lon="-6.877188">
        <ele>908.2</ele>
        <time>2021-04-14T13:42:32.000Z</time>
      </trkpt>
      <trkpt lat="43.360407" lon="-6.877072">
        <ele>906.4</ele>
        <time>2021-04-14T13:42:33.000Z</time>
      </trkpt>
      <trkpt lat="43.360432" lon="-6.876947">
        <ele>904.6</ele>
        <time>2021-04-14T13:42:34.000Z</time>
      </trkpt>
      <trkpt lat="43.360457" lon="-6.876817">
        <ele>904.6</ele>
        <time>2021-04-14T13:42:35.000Z</time>
      </trkpt>
      <trkpt lat="43.360478" lon="-6.876683">
        <ele>904.6</ele>
        <time>2021-04-14T13:42:36.000Z</time>
      </trkpt>
      <trkpt lat="43.360495" lon="-6.876555">
        <ele>903.9</ele>
        <time>2021-04-14T13:42:37.000Z</time>
      </trkpt>
      <trkpt lat="43.360517" lon="-6.876325">
        <ele>903.6</ele>
        <time>2021-04-14T13:42:39.000Z</time>
      </trkpt>
      <trkpt lat="43.36049" lon="-6.876113">
        <ele>902</ele>
        <time>2021-04-14T13:42:41.000Z</time>
      </trkpt>
      <trkpt lat="43.360445" lon="-6.875907">
        <ele>900.9</ele>
        <time>2021-04-14T13:42:43.000Z</time>
      </trkpt>
      <trkpt lat="43.360397" lon="-6.875688">
        <ele>899.6</ele>
        <time>2021-04-14T13:42:45.000Z</time>
      </trkpt>
      <trkpt lat="43.360385" lon="-6.875452">
        <ele>899.4</ele>
        <time>2021-04-14T13:42:47.000Z</time>
      </trkpt>
      <trkpt lat="43.360395" lon="-6.875327">
        <ele>899.5</ele>
        <time>2021-04-14T13:42:48.000Z</time>
      </trkpt>
      <trkpt lat="43.360412" lon="-6.875202">
        <ele>898.6</ele>
        <time>2021-04-14T13:42:49.000Z</time>
      </trkpt>
      <trkpt lat="43.360443" lon="-6.875075">
        <ele>898.8</ele>
        <time>2021-04-14T13:42:50.000Z</time>
      </trkpt>
      <trkpt lat="43.36048" lon="-6.87495">
        <ele>898.4</ele>
        <time>2021-04-14T13:42:51.000Z</time>
      </trkpt>
      <trkpt lat="43.360522" lon="-6.874832">
        <ele>897.2</ele>
        <time>2021-04-14T13:42:52.000Z</time>
      </trkpt>
      <trkpt lat="43.360577" lon="-6.874713">
        <ele>896.9</ele>
        <time>2021-04-14T13:42:53.000Z</time>
      </trkpt>
      <trkpt lat="43.360635" lon="-6.874597">
        <ele>895.9</ele>
        <time>2021-04-14T13:42:54.000Z</time>
      </trkpt>
      <trkpt lat="43.360692" lon="-6.874482">
        <ele>894.2</ele>
        <time>2021-04-14T13:42:55.000Z</time>
      </trkpt>
      <trkpt lat="43.360752" lon="-6.874365">
        <ele>892.9</ele>
        <time>2021-04-14T13:42:56.000Z</time>
      </trkpt>
      <trkpt lat="43.360813" lon="-6.874255">
        <ele>892.2</ele>
        <time>2021-04-14T13:42:57.000Z</time>
      </trkpt>
      <trkpt lat="43.36087" lon="-6.874158">
        <ele>891.2</ele>
        <time>2021-04-14T13:42:58.000Z</time>
      </trkpt>
      <trkpt lat="43.361002" lon="-6.873997">
        <ele>888.3</ele>
        <time>2021-04-14T13:43:00.000Z</time>
      </trkpt>
      <trkpt lat="43.36108" lon="-6.873923">
        <ele>887</ele>
        <time>2021-04-14T13:43:01.000Z</time>
      </trkpt>
      <trkpt lat="43.361167" lon="-6.873858">
        <ele>885.9</ele>
        <time>2021-04-14T13:43:02.000Z</time>
      </trkpt>
      <trkpt lat="43.361255" lon="-6.873792">
        <ele>884.8</ele>
        <time>2021-04-14T13:43:03.000Z</time>
      </trkpt>
      <trkpt lat="43.361342" lon="-6.873713">
        <ele>884.2</ele>
        <time>2021-04-14T13:43:04.000Z</time>
      </trkpt>
      <trkpt lat="43.361423" lon="-6.873622">
        <ele>883.6</ele>
        <time>2021-04-14T13:43:05.000Z</time>
      </trkpt>
      <trkpt lat="43.361497" lon="-6.873513">
        <ele>882.7</ele>
        <time>2021-04-14T13:43:06.000Z</time>
      </trkpt>
      <trkpt lat="43.361562" lon="-6.873393">
        <ele>881.6</ele>
        <time>2021-04-14T13:43:07.000Z</time>
      </trkpt>
      <trkpt lat="43.361618" lon="-6.873265">
        <ele>880.2</ele>
        <time>2021-04-14T13:43:08.000Z</time>
      </trkpt>
      <trkpt lat="43.361675" lon="-6.873132">
        <ele>879.3</ele>
        <time>2021-04-14T13:43:09.000Z</time>
      </trkpt>
      <trkpt lat="43.361733" lon="-6.873">
        <ele>878</ele>
        <time>2021-04-14T13:43:10.000Z</time>
      </trkpt>
      <trkpt lat="43.3618" lon="-6.872883">
        <ele>876.5</ele>
        <time>2021-04-14T13:43:11.000Z</time>
      </trkpt>
      <trkpt lat="43.36187" lon="-6.872773">
        <ele>874.9</ele>
        <time>2021-04-14T13:43:12.000Z</time>
      </trkpt>
      <trkpt lat="43.36194" lon="-6.872678">
        <ele>874.2</ele>
        <time>2021-04-14T13:43:13.000Z</time>
      </trkpt>
      <trkpt lat="43.362062" lon="-6.87254">
        <ele>872.1</ele>
        <time>2021-04-14T13:43:15.000Z</time>
      </trkpt>
      <trkpt lat="43.362172" lon="-6.87243">
        <ele>870.1</ele>
        <time>2021-04-14T13:43:17.000Z</time>
      </trkpt>
      <trkpt lat="43.36228" lon="-6.872312">
        <ele>867.9</ele>
        <time>2021-04-14T13:43:19.000Z</time>
      </trkpt>
      <trkpt lat="43.36237" lon="-6.872195">
        <ele>867.1</ele>
        <time>2021-04-14T13:43:21.000Z</time>
      </trkpt>
      <trkpt lat="43.362425" lon="-6.872053">
        <ele>866.7</ele>
        <time>2021-04-14T13:43:33.000Z</time>
      </trkpt>
      <trkpt lat="43.362422" lon="-6.871917">
        <ele>867.7</ele>
        <time>2021-04-14T13:43:35.000Z</time>
      </trkpt>
      <trkpt lat="43.362377" lon="-6.871767">
        <ele>868.9</ele>
        <time>2021-04-14T13:43:37.000Z</time>
      </trkpt>
      <trkpt lat="43.362278" lon="-6.871663">
        <ele>869.4</ele>
        <time>2021-04-14T13:43:39.000Z</time>
      </trkpt>
      <trkpt lat="43.362147" lon="-6.87159">
        <ele>869.7</ele>
        <time>2021-04-14T13:43:41.000Z</time>
      </trkpt>
      <trkpt lat="43.361992" lon="-6.871533">
        <ele>868.7</ele>
        <time>2021-04-14T13:43:43.000Z</time>
      </trkpt>
      <trkpt lat="43.361902" lon="-6.871517">
        <ele>867.9</ele>
        <time>2021-04-14T13:43:44.000Z</time>
      </trkpt>
      <trkpt lat="43.361808" lon="-6.871515">
        <ele>867.4</ele>
        <time>2021-04-14T13:43:45.000Z</time>
      </trkpt>
      <trkpt lat="43.361707" lon="-6.871538">
        <ele>867.5</ele>
        <time>2021-04-14T13:43:46.000Z</time>
      </trkpt>
      <trkpt lat="43.361608" lon="-6.871593">
        <ele>866.7</ele>
        <time>2021-04-14T13:43:47.000Z</time>
      </trkpt>
      <trkpt lat="43.36152" lon="-6.871643">
        <ele>865.8</ele>
        <time>2021-04-14T13:43:48.000Z</time>
      </trkpt>
      <trkpt lat="43.361432" lon="-6.871703">
        <ele>864.3</ele>
        <time>2021-04-14T13:43:49.000Z</time>
      </trkpt>
      <trkpt lat="43.361302" lon="-6.871805">
        <ele>861.2</ele>
        <time>2021-04-14T13:43:51.000Z</time>
      </trkpt>
      <trkpt lat="43.361202" lon="-6.8719">
        <ele>859.3</ele>
        <time>2021-04-14T13:43:53.000Z</time>
      </trkpt>
      <trkpt lat="43.3611" lon="-6.87201">
        <ele>856.7</ele>
        <time>2021-04-14T13:43:55.000Z</time>
      </trkpt>
      <trkpt lat="43.36101" lon="-6.872158">
        <ele>854.5</ele>
        <time>2021-04-14T13:43:57.000Z</time>
      </trkpt>
      <trkpt lat="43.360938" lon="-6.872318">
        <ele>852.8</ele>
        <time>2021-04-14T13:43:59.000Z</time>
      </trkpt>
      <trkpt lat="43.360852" lon="-6.872487">
        <ele>849.9</ele>
        <time>2021-04-14T13:44:01.000Z</time>
      </trkpt>
      <trkpt lat="43.36078" lon="-6.87262">
        <ele>846.7</ele>
        <time>2021-04-14T13:44:03.000Z</time>
      </trkpt>
      <trkpt lat="43.360702" lon="-6.872693">
        <ele>844.7</ele>
        <time>2021-04-14T13:44:05.000Z</time>
      </trkpt>
      <trkpt lat="43.360565" lon="-6.872688">
        <ele>843.7</ele>
        <time>2021-04-14T13:44:08.000Z</time>
      </trkpt>
      <trkpt lat="43.360448" lon="-6.872647">
        <ele>842.4</ele>
        <time>2021-04-14T13:44:10.000Z</time>
      </trkpt>
      <trkpt lat="43.360312" lon="-6.872593">
        <ele>841.3</ele>
        <time>2021-04-14T13:44:12.000Z</time>
      </trkpt>
      <trkpt lat="43.36014" lon="-6.872537">
        <ele>839.4</ele>
        <time>2021-04-14T13:44:14.000Z</time>
      </trkpt>
      <trkpt lat="43.360045" lon="-6.872495">
        <ele>838.6</ele>
        <time>2021-04-14T13:44:15.000Z</time>
      </trkpt>
      <trkpt lat="43.359955" lon="-6.872463">
        <ele>837.1</ele>
        <time>2021-04-14T13:44:16.000Z</time>
      </trkpt>
      <trkpt lat="43.35979" lon="-6.872403">
        <ele>832.4</ele>
        <time>2021-04-14T13:44:18.000Z</time>
      </trkpt>
      <trkpt lat="43.359647" lon="-6.872342">
        <ele>828.4</ele>
        <time>2021-04-14T13:44:20.000Z</time>
      </trkpt>
      <trkpt lat="43.359523" lon="-6.872302">
        <ele>825.1</ele>
        <time>2021-04-14T13:44:22.000Z</time>
      </trkpt>
      <trkpt lat="43.359382" lon="-6.872282">
        <ele>821.4</ele>
        <time>2021-04-14T13:44:24.000Z</time>
      </trkpt>
      <trkpt lat="43.359213" lon="-6.87229">
        <ele>817.8</ele>
        <time>2021-04-14T13:44:26.000Z</time>
      </trkpt>
      <trkpt lat="43.359123" lon="-6.872298">
        <ele>815.9</ele>
        <time>2021-04-14T13:44:27.000Z</time>
      </trkpt>
      <trkpt lat="43.358938" lon="-6.872327">
        <ele>813.9</ele>
        <time>2021-04-14T13:44:29.000Z</time>
      </trkpt>
      <trkpt lat="43.358838" lon="-6.872338">
        <ele>813</ele>
        <time>2021-04-14T13:44:30.000Z</time>
      </trkpt>
      <trkpt lat="43.358745" lon="-6.872355">
        <ele>811.7</ele>
        <time>2021-04-14T13:44:31.000Z</time>
      </trkpt>
      <trkpt lat="43.35865" lon="-6.872373">
        <ele>811.1</ele>
        <time>2021-04-14T13:44:32.000Z</time>
      </trkpt>
      <trkpt lat="43.35855" lon="-6.872393">
        <ele>811.1</ele>
        <time>2021-04-14T13:44:33.000Z</time>
      </trkpt>
      <trkpt lat="43.358448" lon="-6.872412">
        <ele>810.6</ele>
        <time>2021-04-14T13:44:34.000Z</time>
      </trkpt>
      <trkpt lat="43.358333" lon="-6.872425">
        <ele>810.5</ele>
        <time>2021-04-14T13:44:35.000Z</time>
      </trkpt>
      <trkpt lat="43.358215" lon="-6.872447">
        <ele>810.1</ele>
        <time>2021-04-14T13:44:36.000Z</time>
      </trkpt>
      <trkpt lat="43.358092" lon="-6.872483">
        <ele>810.2</ele>
        <time>2021-04-14T13:44:37.000Z</time>
      </trkpt>
      <trkpt lat="43.357977" lon="-6.872517">
        <ele>809.6</ele>
        <time>2021-04-14T13:44:38.000Z</time>
      </trkpt>
      <trkpt lat="43.357877" lon="-6.87256">
        <ele>809.2</ele>
        <time>2021-04-14T13:44:39.000Z</time>
      </trkpt>
      <trkpt lat="43.35779" lon="-6.872603">
        <ele>808.8</ele>
        <time>2021-04-14T13:44:40.000Z</time>
      </trkpt>
      <trkpt lat="43.357707" lon="-6.87265">
        <ele>807.9</ele>
        <time>2021-04-14T13:44:41.000Z</time>
      </trkpt>
      <trkpt lat="43.357552" lon="-6.872758">
        <ele>807.1</ele>
        <time>2021-04-14T13:44:43.000Z</time>
      </trkpt>
      <trkpt lat="43.35741" lon="-6.872888">
        <ele>805.7</ele>
        <time>2021-04-14T13:44:45.000Z</time>
      </trkpt>
      <trkpt lat="43.357303" lon="-6.873017">
        <ele>804.2</ele>
        <time>2021-04-14T13:44:47.000Z</time>
      </trkpt>
      <trkpt lat="43.357238" lon="-6.873133">
        <ele>803.4</ele>
        <time>2021-04-14T13:44:49.000Z</time>
      </trkpt>
      <trkpt lat="43.357173" lon="-6.873222">
        <ele>802.9</ele>
        <time>2021-04-14T13:44:51.000Z</time>
      </trkpt>
      <trkpt lat="43.357087" lon="-6.873265">
        <ele>802.3</ele>
        <time>2021-04-14T13:44:53.000Z</time>
      </trkpt>
      <trkpt lat="43.35701" lon="-6.873195">
        <ele>801.4</ele>
        <time>2021-04-14T13:44:55.000Z</time>
      </trkpt>
      <trkpt lat="43.356932" lon="-6.873093">
        <ele>800.9</ele>
        <time>2021-04-14T13:44:57.000Z</time>
      </trkpt>
      <trkpt lat="43.356828" lon="-6.87301">
        <ele>800.9</ele>
        <time>2021-04-14T13:44:59.000Z</time>
      </trkpt>
      <trkpt lat="43.356713" lon="-6.872932">
        <ele>802.1</ele>
        <time>2021-04-14T13:45:01.000Z</time>
      </trkpt>
      <trkpt lat="43.356602" lon="-6.87285">
        <ele>802.7</ele>
        <time>2021-04-14T13:45:03.000Z</time>
      </trkpt>
      <trkpt lat="43.356495" lon="-6.872765">
        <ele>802.7</ele>
        <time>2021-04-14T13:45:05.000Z</time>
      </trkpt>
      <trkpt lat="43.356392" lon="-6.872672">
        <ele>802.7</ele>
        <time>2021-04-14T13:45:07.000Z</time>
      </trkpt>
      <trkpt lat="43.356273" lon="-6.872573">
        <ele>802.2</ele>
        <time>2021-04-14T13:45:09.000Z</time>
      </trkpt>
      <trkpt lat="43.35615" lon="-6.87248">
        <ele>801.3</ele>
        <time>2021-04-14T13:45:11.000Z</time>
      </trkpt>
      <trkpt lat="43.356017" lon="-6.872387">
        <ele>800.4</ele>
        <time>2021-04-14T13:45:13.000Z</time>
      </trkpt>
      <trkpt lat="43.355873" lon="-6.872292">
        <ele>799.2</ele>
        <time>2021-04-14T13:45:15.000Z</time>
      </trkpt>
      <trkpt lat="43.355727" lon="-6.872197">
        <ele>797.6</ele>
        <time>2021-04-14T13:45:17.000Z</time>
      </trkpt>
      <trkpt lat="43.35558" lon="-6.872108">
        <ele>796.1</ele>
        <time>2021-04-14T13:45:19.000Z</time>
      </trkpt>
      <trkpt lat="43.355422" lon="-6.872037">
        <ele>793.7</ele>
        <time>2021-04-14T13:45:21.000Z</time>
      </trkpt>
      <trkpt lat="43.355255" lon="-6.87203">
        <ele>792.8</ele>
        <time>2021-04-14T13:45:23.000Z</time>
      </trkpt>
      <trkpt lat="43.35509" lon="-6.872098">
        <ele>791.5</ele>
        <time>2021-04-14T13:45:25.000Z</time>
      </trkpt>
      <trkpt lat="43.354937" lon="-6.872205">
        <ele>790.8</ele>
        <time>2021-04-14T13:45:27.000Z</time>
      </trkpt>
      <trkpt lat="43.354818" lon="-6.872363">
        <ele>791.4</ele>
        <time>2021-04-14T13:45:29.000Z</time>
      </trkpt>
      <trkpt lat="43.35473" lon="-6.87256">
        <ele>791.6</ele>
        <time>2021-04-14T13:45:31.000Z</time>
      </trkpt>
      <trkpt lat="43.354652" lon="-6.872755">
        <ele>791.1</ele>
        <time>2021-04-14T13:45:33.000Z</time>
      </trkpt>
      <trkpt lat="43.354567" lon="-6.872945">
        <ele>789.5</ele>
        <time>2021-04-14T13:45:35.000Z</time>
      </trkpt>
      <trkpt lat="43.354485" lon="-6.873133">
        <ele>788.2</ele>
        <time>2021-04-14T13:45:37.000Z</time>
      </trkpt>
      <trkpt lat="43.354402" lon="-6.87333">
        <ele>786.7</ele>
        <time>2021-04-14T13:45:39.000Z</time>
      </trkpt>
      <trkpt lat="43.354317" lon="-6.87351">
        <ele>785.2</ele>
        <time>2021-04-14T13:45:41.000Z</time>
      </trkpt>
      <trkpt lat="43.35423" lon="-6.873685">
        <ele>784</ele>
        <time>2021-04-14T13:45:43.000Z</time>
      </trkpt>
      <trkpt lat="43.354142" lon="-6.87386">
        <ele>782.9</ele>
        <time>2021-04-14T13:45:45.000Z</time>
      </trkpt>
      <trkpt lat="43.354055" lon="-6.874035">
        <ele>782.1</ele>
        <time>2021-04-14T13:45:47.000Z</time>
      </trkpt>
      <trkpt lat="43.35397" lon="-6.874202">
        <ele>781.5</ele>
        <time>2021-04-14T13:45:49.000Z</time>
      </trkpt>
      <trkpt lat="43.353893" lon="-6.874382">
        <ele>781.3</ele>
        <time>2021-04-14T13:45:51.000Z</time>
      </trkpt>
      <trkpt lat="43.353815" lon="-6.874567">
        <ele>780.7</ele>
        <time>2021-04-14T13:45:53.000Z</time>
      </trkpt>
      <trkpt lat="43.353737" lon="-6.874758">
        <ele>780.1</ele>
        <time>2021-04-14T13:45:55.000Z</time>
      </trkpt>
      <trkpt lat="43.353653" lon="-6.874945">
        <ele>779.1</ele>
        <time>2021-04-14T13:45:57.000Z</time>
      </trkpt>
      <trkpt lat="43.353565" lon="-6.875128">
        <ele>778.6</ele>
        <time>2021-04-14T13:45:59.000Z</time>
      </trkpt>
      <trkpt lat="43.353475" lon="-6.875312">
        <ele>777.6</ele>
        <time>2021-04-14T13:46:01.000Z</time>
      </trkpt>
      <trkpt lat="43.353392" lon="-6.875503">
        <ele>777.4</ele>
        <time>2021-04-14T13:46:03.000Z</time>
      </trkpt>
      <trkpt lat="43.353303" lon="-6.87568">
        <ele>776.7</ele>
        <time>2021-04-14T13:46:05.000Z</time>
      </trkpt>
      <trkpt lat="43.353225" lon="-6.87587">
        <ele>775.7</ele>
        <time>2021-04-14T13:46:07.000Z</time>
      </trkpt>
      <trkpt lat="43.35315" lon="-6.876072">
        <ele>774.2</ele>
        <time>2021-04-14T13:46:09.000Z</time>
      </trkpt>
      <trkpt lat="43.353073" lon="-6.876253">
        <ele>773</ele>
        <time>2021-04-14T13:46:11.000Z</time>
      </trkpt>
      <trkpt lat="43.352983" lon="-6.87642">
        <ele>772.5</ele>
        <time>2021-04-14T13:46:13.000Z</time>
      </trkpt>
      <trkpt lat="43.352897" lon="-6.876558">
        <ele>771.8</ele>
        <time>2021-04-14T13:46:15.000Z</time>
      </trkpt>
      <trkpt lat="43.352803" lon="-6.876698">
        <ele>771.4</ele>
        <time>2021-04-14T13:46:17.000Z</time>
      </trkpt>
      <trkpt lat="43.352708" lon="-6.876855">
        <ele>770.8</ele>
        <time>2021-04-14T13:46:19.000Z</time>
      </trkpt>
      <trkpt lat="43.352608" lon="-6.877018">
        <ele>770.2</ele>
        <time>2021-04-14T13:46:21.000Z</time>
      </trkpt>
      <trkpt lat="43.352512" lon="-6.877175">
        <ele>769.7</ele>
        <time>2021-04-14T13:46:23.000Z</time>
      </trkpt>
      <trkpt lat="43.35242" lon="-6.877325">
        <ele>770.1</ele>
        <time>2021-04-14T13:46:25.000Z</time>
      </trkpt>
      <trkpt lat="43.352335" lon="-6.87747">
        <ele>771.2</ele>
        <time>2021-04-14T13:46:27.000Z</time>
      </trkpt>
      <trkpt lat="43.35224" lon="-6.877595">
        <ele>772.6</ele>
        <time>2021-04-14T13:46:29.000Z</time>
      </trkpt>
      <trkpt lat="43.352148" lon="-6.87771">
        <ele>773.8</ele>
        <time>2021-04-14T13:46:31.000Z</time>
      </trkpt>
      <trkpt lat="43.352052" lon="-6.877817">
        <ele>775</ele>
        <time>2021-04-14T13:46:33.000Z</time>
      </trkpt>
      <trkpt lat="43.351955" lon="-6.877918">
        <ele>776.5</ele>
        <time>2021-04-14T13:46:35.000Z</time>
      </trkpt>
      <trkpt lat="43.351855" lon="-6.878038">
        <ele>778.3</ele>
        <time>2021-04-14T13:46:37.000Z</time>
      </trkpt>
      <trkpt lat="43.351763" lon="-6.878147">
        <ele>778.1</ele>
        <time>2021-04-14T13:46:39.000Z</time>
      </trkpt>
      <trkpt lat="43.351683" lon="-6.878253">
        <ele>778.2</ele>
        <time>2021-04-14T13:46:41.000Z</time>
      </trkpt>
      <trkpt lat="43.351605" lon="-6.878378">
        <ele>778.7</ele>
        <time>2021-04-14T13:46:43.000Z</time>
      </trkpt>
      <trkpt lat="43.35152" lon="-6.878495">
        <ele>778.5</ele>
        <time>2021-04-14T13:46:45.000Z</time>
      </trkpt>
      <trkpt lat="43.35143" lon="-6.878608">
        <ele>777.1</ele>
        <time>2021-04-14T13:46:47.000Z</time>
      </trkpt>
      <trkpt lat="43.351323" lon="-6.878677">
        <ele>774.6</ele>
        <time>2021-04-14T13:46:49.000Z</time>
      </trkpt>
      <trkpt lat="43.351192" lon="-6.878638">
        <ele>773.4</ele>
        <time>2021-04-14T13:46:51.000Z</time>
      </trkpt>
      <trkpt lat="43.351057" lon="-6.878535">
        <ele>772.7</ele>
        <time>2021-04-14T13:46:53.000Z</time>
      </trkpt>
      <trkpt lat="43.350922" lon="-6.878422">
        <ele>772.7</ele>
        <time>2021-04-14T13:46:55.000Z</time>
      </trkpt>
      <trkpt lat="43.350813" lon="-6.878333">
        <ele>772.7</ele>
        <time>2021-04-14T13:46:57.000Z</time>
      </trkpt>
      <trkpt lat="43.350707" lon="-6.87827">
        <ele>773.3</ele>
        <time>2021-04-14T13:47:00.000Z</time>
      </trkpt>
      <trkpt lat="43.350617" lon="-6.878218">
        <ele>773.3</ele>
        <time>2021-04-14T13:47:03.000Z</time>
      </trkpt>
      <trkpt lat="43.350565" lon="-6.878117">
        <ele>775.9</ele>
        <time>2021-04-14T13:47:08.000Z</time>
      </trkpt>
      <trkpt lat="43.35047" lon="-6.87813">
        <ele>771.5</ele>
        <time>2021-04-14T14:37:04.000Z</time>
      </trkpt>
      <trkpt lat="43.35034" lon="-6.878153">
        <ele>770.4</ele>
        <time>2021-04-14T14:37:08.000Z</time>
      </trkpt>
      <trkpt lat="43.350213" lon="-6.878168">
        <ele>769.7</ele>
        <time>2021-04-14T14:37:10.000Z</time>
      </trkpt>
      <trkpt lat="43.350062" lon="-6.878183">
        <ele>768.2</ele>
        <time>2021-04-14T14:37:12.000Z</time>
      </trkpt>
      <trkpt lat="43.349892" lon="-6.878172">
        <ele>767.4</ele>
        <time>2021-04-14T14:37:14.000Z</time>
      </trkpt>
      <trkpt lat="43.349728" lon="-6.878088">
        <ele>767.4</ele>
        <time>2021-04-14T14:37:16.000Z</time>
      </trkpt>
      <trkpt lat="43.349578" lon="-6.877972">
        <ele>767.4</ele>
        <time>2021-04-14T14:37:18.000Z</time>
      </trkpt>
      <trkpt lat="43.34943" lon="-6.87786">
        <ele>766.8</ele>
        <time>2021-04-14T14:37:20.000Z</time>
      </trkpt>
      <trkpt lat="43.349277" lon="-6.87776">
        <ele>765.6</ele>
        <time>2021-04-14T14:37:22.000Z</time>
      </trkpt>
      <trkpt lat="43.349102" lon="-6.877695">
        <ele>764.4</ele>
        <time>2021-04-14T14:37:24.000Z</time>
      </trkpt>
      <trkpt lat="43.349007" lon="-6.877682">
        <ele>763.4</ele>
        <time>2021-04-14T14:37:25.000Z</time>
      </trkpt>
      <trkpt lat="43.348842" lon="-6.877653">
        <ele>762.1</ele>
        <time>2021-04-14T14:37:27.000Z</time>
      </trkpt>
      <trkpt lat="43.348715" lon="-6.877562">
        <ele>760.8</ele>
        <time>2021-04-14T14:37:29.000Z</time>
      </trkpt>
      <trkpt lat="43.348622" lon="-6.877427">
        <ele>759.3</ele>
        <time>2021-04-14T14:37:31.000Z</time>
      </trkpt>
      <trkpt lat="43.34856" lon="-6.87726">
        <ele>756.8</ele>
        <time>2021-04-14T14:37:33.000Z</time>
      </trkpt>
      <trkpt lat="43.348482" lon="-6.877087">
        <ele>754.2</ele>
        <time>2021-04-14T14:37:35.000Z</time>
      </trkpt>
      <trkpt lat="43.348385" lon="-6.876918">
        <ele>754.4</ele>
        <time>2021-04-14T14:37:37.000Z</time>
      </trkpt>
      <trkpt lat="43.348288" lon="-6.87677">
        <ele>754.7</ele>
        <time>2021-04-14T14:37:39.000Z</time>
      </trkpt>
      <trkpt lat="43.348175" lon="-6.876645">
        <ele>753.6</ele>
        <time>2021-04-14T14:37:41.000Z</time>
      </trkpt>
      <trkpt lat="43.348038" lon="-6.87656">
        <ele>753.4</ele>
        <time>2021-04-14T14:37:43.000Z</time>
      </trkpt>
      <trkpt lat="43.34789" lon="-6.876535">
        <ele>752.8</ele>
        <time>2021-04-14T14:37:45.000Z</time>
      </trkpt>
      <trkpt lat="43.347733" lon="-6.876553">
        <ele>750.3</ele>
        <time>2021-04-14T14:37:47.000Z</time>
      </trkpt>
      <trkpt lat="43.347562" lon="-6.87656">
        <ele>749</ele>
        <time>2021-04-14T14:37:49.000Z</time>
      </trkpt>
      <trkpt lat="43.347398" lon="-6.876508">
        <ele>746.9</ele>
        <time>2021-04-14T14:37:51.000Z</time>
      </trkpt>
      <trkpt lat="43.34725" lon="-6.876393">
        <ele>745.8</ele>
        <time>2021-04-14T14:37:53.000Z</time>
      </trkpt>
      <trkpt lat="43.347183" lon="-6.876303">
        <ele>745.7</ele>
        <time>2021-04-14T14:37:54.000Z</time>
      </trkpt>
      <trkpt lat="43.347115" lon="-6.876217">
        <ele>745.5</ele>
        <time>2021-04-14T14:37:55.000Z</time>
      </trkpt>
      <trkpt lat="43.347048" lon="-6.876123">
        <ele>745.2</ele>
        <time>2021-04-14T14:37:56.000Z</time>
      </trkpt>
      <trkpt lat="43.346982" lon="-6.876023">
        <ele>745.1</ele>
        <time>2021-04-14T14:37:57.000Z</time>
      </trkpt>
      <trkpt lat="43.346922" lon="-6.875917">
        <ele>744.8</ele>
        <time>2021-04-14T14:37:58.000Z</time>
      </trkpt>
      <trkpt lat="43.346865" lon="-6.875812">
        <ele>744.3</ele>
        <time>2021-04-14T14:37:59.000Z</time>
      </trkpt>
      <trkpt lat="43.34681" lon="-6.875708">
        <ele>743.9</ele>
        <time>2021-04-14T14:38:00.000Z</time>
      </trkpt>
      <trkpt lat="43.346753" lon="-6.875605">
        <ele>743.4</ele>
        <time>2021-04-14T14:38:01.000Z</time>
      </trkpt>
      <trkpt lat="43.346647" lon="-6.87541">
        <ele>743.3</ele>
        <time>2021-04-14T14:38:03.000Z</time>
      </trkpt>
      <trkpt lat="43.346548" lon="-6.875215">
        <ele>743</ele>
        <time>2021-04-14T14:38:05.000Z</time>
      </trkpt>
      <trkpt lat="43.34645" lon="-6.875023">
        <ele>742.3</ele>
        <time>2021-04-14T14:38:07.000Z</time>
      </trkpt>
      <trkpt lat="43.346352" lon="-6.874835">
        <ele>740.7</ele>
        <time>2021-04-14T14:38:09.000Z</time>
      </trkpt>
      <trkpt lat="43.346247" lon="-6.874652">
        <ele>738.7</ele>
        <time>2021-04-14T14:38:11.000Z</time>
      </trkpt>
      <trkpt lat="43.346137" lon="-6.874477">
        <ele>737.9</ele>
        <time>2021-04-14T14:38:13.000Z</time>
      </trkpt>
      <trkpt lat="43.346015" lon="-6.874312">
        <ele>737</ele>
        <time>2021-04-14T14:38:15.000Z</time>
      </trkpt>
      <trkpt lat="43.34588" lon="-6.874162">
        <ele>736.3</ele>
        <time>2021-04-14T14:38:17.000Z</time>
      </trkpt>
      <trkpt lat="43.345742" lon="-6.874012">
        <ele>735.8</ele>
        <time>2021-04-14T14:38:19.000Z</time>
      </trkpt>
      <trkpt lat="43.345605" lon="-6.873863">
        <ele>735.6</ele>
        <time>2021-04-14T14:38:21.000Z</time>
      </trkpt>
      <trkpt lat="43.345465" lon="-6.873717">
        <ele>735</ele>
        <time>2021-04-14T14:38:23.000Z</time>
      </trkpt>
      <trkpt lat="43.345323" lon="-6.87357">
        <ele>733.3</ele>
        <time>2021-04-14T14:38:25.000Z</time>
      </trkpt>
      <trkpt lat="43.345248" lon="-6.873493">
        <ele>732.4</ele>
        <time>2021-04-14T14:38:26.000Z</time>
      </trkpt>
      <trkpt lat="43.345168" lon="-6.873413">
        <ele>731.6</ele>
        <time>2021-04-14T14:38:27.000Z</time>
      </trkpt>
      <trkpt lat="43.345087" lon="-6.873335">
        <ele>730.8</ele>
        <time>2021-04-14T14:38:28.000Z</time>
      </trkpt>
      <trkpt lat="43.345005" lon="-6.873255">
        <ele>730.1</ele>
        <time>2021-04-14T14:38:29.000Z</time>
      </trkpt>
      <trkpt lat="43.34493" lon="-6.87318">
        <ele>728.7</ele>
        <time>2021-04-14T14:38:30.000Z</time>
      </trkpt>
      <trkpt lat="43.344795" lon="-6.873055">
        <ele>726.6</ele>
        <time>2021-04-14T14:38:32.000Z</time>
      </trkpt>
      <trkpt lat="43.344658" lon="-6.872977">
        <ele>725.1</ele>
        <time>2021-04-14T14:38:34.000Z</time>
      </trkpt>
      <trkpt lat="43.344485" lon="-6.87293">
        <ele>725</ele>
        <time>2021-04-14T14:38:36.000Z</time>
      </trkpt>
      <trkpt lat="43.344393" lon="-6.872922">
        <ele>724.9</ele>
        <time>2021-04-14T14:38:37.000Z</time>
      </trkpt>
      <trkpt lat="43.3443" lon="-6.872918">
        <ele>724.5</ele>
        <time>2021-04-14T14:38:38.000Z</time>
      </trkpt>
      <trkpt lat="43.344132" lon="-6.872917">
        <ele>723.8</ele>
        <time>2021-04-14T14:38:40.000Z</time>
      </trkpt>
      <trkpt lat="43.343997" lon="-6.872917">
        <ele>723.4</ele>
        <time>2021-04-14T14:38:42.000Z</time>
      </trkpt>
      <trkpt lat="43.343892" lon="-6.872903">
        <ele>723</ele>
        <time>2021-04-14T14:38:44.000Z</time>
      </trkpt>
      <trkpt lat="43.343793" lon="-6.872855">
        <ele>721.9</ele>
        <time>2021-04-14T14:38:46.000Z</time>
      </trkpt>
      <trkpt lat="43.343698" lon="-6.872757">
        <ele>721.1</ele>
        <time>2021-04-14T14:38:48.000Z</time>
      </trkpt>
      <trkpt lat="43.343618" lon="-6.872598">
        <ele>719.8</ele>
        <time>2021-04-14T14:38:50.000Z</time>
      </trkpt>
      <trkpt lat="43.343555" lon="-6.872417">
        <ele>717.9</ele>
        <time>2021-04-14T14:38:52.000Z</time>
      </trkpt>
      <trkpt lat="43.343518" lon="-6.87222">
        <ele>716.8</ele>
        <time>2021-04-14T14:38:54.000Z</time>
      </trkpt>
      <trkpt lat="43.343497" lon="-6.872028">
        <ele>715</ele>
        <time>2021-04-14T14:38:56.000Z</time>
      </trkpt>
      <trkpt lat="43.343485" lon="-6.87182">
        <ele>713.6</ele>
        <time>2021-04-14T14:38:58.000Z</time>
      </trkpt>
      <trkpt lat="43.343475" lon="-6.871608">
        <ele>713.5</ele>
        <time>2021-04-14T14:39:00.000Z</time>
      </trkpt>
      <trkpt lat="43.343473" lon="-6.871393">
        <ele>712.5</ele>
        <time>2021-04-14T14:39:02.000Z</time>
      </trkpt>
      <trkpt lat="43.343472" lon="-6.871177">
        <ele>712.4</ele>
        <time>2021-04-14T14:39:04.000Z</time>
      </trkpt>
      <trkpt lat="43.343483" lon="-6.87096">
        <ele>712.8</ele>
        <time>2021-04-14T14:39:06.000Z</time>
      </trkpt>
      <trkpt lat="43.343503" lon="-6.870747">
        <ele>712.6</ele>
        <time>2021-04-14T14:39:08.000Z</time>
      </trkpt>
      <trkpt lat="43.343518" lon="-6.87053">
        <ele>713.4</ele>
        <time>2021-04-14T14:39:10.000Z</time>
      </trkpt>
      <trkpt lat="43.343533" lon="-6.870317">
        <ele>714.7</ele>
        <time>2021-04-14T14:39:12.000Z</time>
      </trkpt>
      <trkpt lat="43.343557" lon="-6.87011">
        <ele>716.2</ele>
        <time>2021-04-14T14:39:14.000Z</time>
      </trkpt>
      <trkpt lat="43.343573" lon="-6.869908">
        <ele>717.2</ele>
        <time>2021-04-14T14:39:16.000Z</time>
      </trkpt>
      <trkpt lat="43.343613" lon="-6.869727">
        <ele>717.5</ele>
        <time>2021-04-14T14:39:18.000Z</time>
      </trkpt>
      <trkpt lat="43.343665" lon="-6.869525">
        <ele>717.7</ele>
        <time>2021-04-14T14:39:20.000Z</time>
      </trkpt>
      <trkpt lat="43.343747" lon="-6.869317">
        <ele>719</ele>
        <time>2021-04-14T14:39:22.000Z</time>
      </trkpt>
      <trkpt lat="43.343853" lon="-6.869138">
        <ele>720.6</ele>
        <time>2021-04-14T14:39:24.000Z</time>
      </trkpt>
      <trkpt lat="43.34395" lon="-6.868968">
        <ele>721.6</ele>
        <time>2021-04-14T14:39:26.000Z</time>
      </trkpt>
      <trkpt lat="43.344035" lon="-6.868815">
        <ele>723.1</ele>
        <time>2021-04-14T14:39:28.000Z</time>
      </trkpt>
      <trkpt lat="43.344095" lon="-6.868702">
        <ele>724.1</ele>
        <time>2021-04-14T14:39:30.000Z</time>
      </trkpt>
      <trkpt lat="43.344168" lon="-6.868577">
        <ele>724.2</ele>
        <time>2021-04-14T14:39:34.000Z</time>
      </trkpt>
      <trkpt lat="43.344247" lon="-6.868502">
        <ele>724</ele>
        <time>2021-04-14T14:39:39.000Z</time>
      </trkpt>
      <trkpt lat="43.344155" lon="-6.868338">
        <ele>728.6</ele>
        <time>2021-04-14T14:40:37.000Z</time>
      </trkpt>
      <trkpt lat="43.344068" lon="-6.868285">
        <ele>731.9</ele>
        <time>2021-04-14T14:40:51.000Z</time>
      </trkpt>
      <trkpt lat="43.343978" lon="-6.868298">
        <ele>735.1</ele>
        <time>2021-04-14T14:41:00.000Z</time>
      </trkpt>
      <trkpt lat="43.343892" lon="-6.868332">
        <ele>735.5</ele>
        <time>2021-04-14T14:41:07.000Z</time>
      </trkpt>
      <trkpt lat="43.343802" lon="-6.868357">
        <ele>725.1</ele>
        <time>2021-04-14T14:44:01.000Z</time>
      </trkpt>
      <trkpt lat="43.34371" lon="-6.868412">
        <ele>723.8</ele>
        <time>2021-04-14T14:44:16.000Z</time>
      </trkpt>
      <trkpt lat="43.343607" lon="-6.868467">
        <ele>720.1</ele>
        <time>2021-04-14T14:44:56.000Z</time>
      </trkpt>
      <trkpt lat="43.343698" lon="-6.868405">
        <ele>720.4</ele>
        <time>2021-04-14T14:45:28.000Z</time>
      </trkpt>
      <trkpt lat="43.343787" lon="-6.86836">
        <ele>720.8</ele>
        <time>2021-04-14T14:45:36.000Z</time>
      </trkpt>
      <trkpt lat="43.343917" lon="-6.868335">
        <ele>721.1</ele>
        <time>2021-04-14T14:46:30.000Z</time>
      </trkpt>
      <trkpt lat="43.344007" lon="-6.868355">
        <ele>721.4</ele>
        <time>2021-04-14T14:46:36.000Z</time>
      </trkpt>
      <trkpt lat="43.344092" lon="-6.868405">
        <ele>722.8</ele>
        <time>2021-04-14T14:46:43.000Z</time>
      </trkpt>
      <trkpt lat="43.34418" lon="-6.86845">
        <ele>725.4</ele>
        <time>2021-04-14T14:46:51.000Z</time>
      </trkpt>
      <trkpt lat="43.344092" lon="-6.868367">
        <ele>729.1</ele>
        <time>2021-04-14T14:51:43.000Z</time>
      </trkpt>
      <trkpt lat="43.343972" lon="-6.868368">
        <ele>728.4</ele>
        <time>2021-04-14T14:51:46.000Z</time>
      </trkpt>
      <trkpt lat="43.343862" lon="-6.868395">
        <ele>727.4</ele>
        <time>2021-04-14T14:51:48.000Z</time>
      </trkpt>
      <trkpt lat="43.343743" lon="-6.868438">
        <ele>726.7</ele>
        <time>2021-04-14T14:51:50.000Z</time>
      </trkpt>
      <trkpt lat="43.343607" lon="-6.868517">
        <ele>725.7</ele>
        <time>2021-04-14T14:51:52.000Z</time>
      </trkpt>
      <trkpt lat="43.343455" lon="-6.868627">
        <ele>724.4</ele>
        <time>2021-04-14T14:51:54.000Z</time>
      </trkpt>
      <trkpt lat="43.343372" lon="-6.868693">
        <ele>724</ele>
        <time>2021-04-14T14:51:55.000Z</time>
      </trkpt>
      <trkpt lat="43.34329" lon="-6.868768">
        <ele>722.9</ele>
        <time>2021-04-14T14:51:56.000Z</time>
      </trkpt>
      <trkpt lat="43.343207" lon="-6.868847">
        <ele>721.5</ele>
        <time>2021-04-14T14:51:57.000Z</time>
      </trkpt>
      <trkpt lat="43.343125" lon="-6.868923">
        <ele>719.9</ele>
        <time>2021-04-14T14:51:58.000Z</time>
      </trkpt>
      <trkpt lat="43.343043" lon="-6.869002">
        <ele>718.4</ele>
        <time>2021-04-14T14:51:59.000Z</time>
      </trkpt>
      <trkpt lat="43.34296" lon="-6.869082">
        <ele>717</ele>
        <time>2021-04-14T14:52:00.000Z</time>
      </trkpt>
      <trkpt lat="43.342875" lon="-6.869165">
        <ele>715.8</ele>
        <time>2021-04-14T14:52:01.000Z</time>
      </trkpt>
      <trkpt lat="43.342795" lon="-6.869242">
        <ele>714.5</ele>
        <time>2021-04-14T14:52:02.000Z</time>
      </trkpt>
      <trkpt lat="43.342653" lon="-6.869377">
        <ele>712.4</ele>
        <time>2021-04-14T14:52:04.000Z</time>
      </trkpt>
      <trkpt lat="43.342517" lon="-6.8695">
        <ele>709.8</ele>
        <time>2021-04-14T14:52:06.000Z</time>
      </trkpt>
      <trkpt lat="43.342388" lon="-6.869588">
        <ele>707.5</ele>
        <time>2021-04-14T14:52:08.000Z</time>
      </trkpt>
      <trkpt lat="43.34225" lon="-6.869615">
        <ele>707.2</ele>
        <time>2021-04-14T14:52:10.000Z</time>
      </trkpt>
      <trkpt lat="43.342118" lon="-6.869558">
        <ele>705.3</ele>
        <time>2021-04-14T14:52:12.000Z</time>
      </trkpt>
      <trkpt lat="43.34198" lon="-6.869483">
        <ele>704.7</ele>
        <time>2021-04-14T14:52:14.000Z</time>
      </trkpt>
      <trkpt lat="43.34183" lon="-6.869423">
        <ele>704.7</ele>
        <time>2021-04-14T14:52:16.000Z</time>
      </trkpt>
      <trkpt lat="43.341668" lon="-6.869387">
        <ele>705.1</ele>
        <time>2021-04-14T14:52:18.000Z</time>
      </trkpt>
      <trkpt lat="43.3415" lon="-6.869378">
        <ele>705</ele>
        <time>2021-04-14T14:52:20.000Z</time>
      </trkpt>
      <trkpt lat="43.341335" lon="-6.869395">
        <ele>704</ele>
        <time>2021-04-14T14:52:22.000Z</time>
      </trkpt>
      <trkpt lat="43.341207" lon="-6.86941">
        <ele>701.5</ele>
        <time>2021-04-14T14:52:24.000Z</time>
      </trkpt>
      <trkpt lat="43.341107" lon="-6.869435">
        <ele>699.8</ele>
        <time>2021-04-14T14:52:26.000Z</time>
      </trkpt>
      <trkpt lat="43.341028" lon="-6.869498">
        <ele>698</ele>
        <time>2021-04-14T14:52:28.000Z</time>
      </trkpt>
      <trkpt lat="43.340945" lon="-6.869595">
        <ele>697.3</ele>
        <time>2021-04-14T14:52:31.000Z</time>
      </trkpt>
      <trkpt lat="43.340855" lon="-6.869682">
        <ele>695.1</ele>
        <time>2021-04-14T14:52:36.000Z</time>
      </trkpt>
      <trkpt lat="43.340788" lon="-6.869782">
        <ele>695.3</ele>
        <time>2021-04-14T14:52:40.000Z</time>
      </trkpt>
      <trkpt lat="43.34071" lon="-6.869905">
        <ele>695.9</ele>
        <time>2021-04-14T14:52:44.000Z</time>
      </trkpt>
      <trkpt lat="43.340647" lon="-6.870018">
        <ele>697.8</ele>
        <time>2021-04-14T14:52:47.000Z</time>
      </trkpt>
      <trkpt lat="43.340582" lon="-6.87015">
        <ele>701.2</ele>
        <time>2021-04-14T14:52:50.000Z</time>
      </trkpt>
      <trkpt lat="43.340532" lon="-6.870285">
        <ele>704.3</ele>
        <time>2021-04-14T14:52:53.000Z</time>
      </trkpt>
      <trkpt lat="43.340488" lon="-6.870412">
        <ele>706.8</ele>
        <time>2021-04-14T14:52:56.000Z</time>
      </trkpt>
      <trkpt lat="43.340442" lon="-6.87056">
        <ele>707.9</ele>
        <time>2021-04-14T14:52:59.000Z</time>
      </trkpt>
      <trkpt lat="43.340402" lon="-6.870715">
        <ele>708</ele>
        <time>2021-04-14T14:53:02.000Z</time>
      </trkpt>
      <trkpt lat="43.340373" lon="-6.870852">
        <ele>708.3</ele>
        <time>2021-04-14T14:53:05.000Z</time>
      </trkpt>
      <trkpt lat="43.340325" lon="-6.871">
        <ele>708.9</ele>
        <time>2021-04-14T14:53:09.000Z</time>
      </trkpt>
      <trkpt lat="43.340287" lon="-6.871128">
        <ele>711.3</ele>
        <time>2021-04-14T14:53:12.000Z</time>
      </trkpt>
      <trkpt lat="43.340245" lon="-6.871282">
        <ele>714.1</ele>
        <time>2021-04-14T14:53:15.000Z</time>
      </trkpt>
      <trkpt lat="43.340213" lon="-6.871425">
        <ele>716.5</ele>
        <time>2021-04-14T14:53:18.000Z</time>
      </trkpt>
      <trkpt lat="43.340188" lon="-6.871578">
        <ele>718.6</ele>
        <time>2021-04-14T14:53:22.000Z</time>
      </trkpt>
      <trkpt lat="43.340172" lon="-6.871722">
        <ele>720.9</ele>
        <time>2021-04-14T14:53:27.000Z</time>
      </trkpt>
      <trkpt lat="43.34015" lon="-6.871883">
        <ele>724.5</ele>
        <time>2021-04-14T14:53:31.000Z</time>
      </trkpt>
      <trkpt lat="43.340135" lon="-6.872028">
        <ele>725.4</ele>
        <time>2021-04-14T14:53:34.000Z</time>
      </trkpt>
      <trkpt lat="43.34013" lon="-6.872175">
        <ele>724.6</ele>
        <time>2021-04-14T14:53:37.000Z</time>
      </trkpt>
      <trkpt lat="43.34013" lon="-6.872303">
        <ele>724.1</ele>
        <time>2021-04-14T14:53:40.000Z</time>
      </trkpt>
      <trkpt lat="43.340115" lon="-6.872457">
        <ele>724.7</ele>
        <time>2021-04-14T14:53:44.000Z</time>
      </trkpt>
      <trkpt lat="43.340095" lon="-6.87262">
        <ele>725.9</ele>
        <time>2021-04-14T14:53:48.000Z</time>
      </trkpt>
      <trkpt lat="43.340088" lon="-6.87276">
        <ele>727.2</ele>
        <time>2021-04-14T14:53:51.000Z</time>
      </trkpt>
      <trkpt lat="43.340097" lon="-6.872905">
        <ele>728.3</ele>
        <time>2021-04-14T14:53:54.000Z</time>
      </trkpt>
      <trkpt lat="43.340117" lon="-6.873065">
        <ele>729.1</ele>
        <time>2021-04-14T14:53:57.000Z</time>
      </trkpt>
      <trkpt lat="43.340145" lon="-6.873208">
        <ele>729.7</ele>
        <time>2021-04-14T14:54:00.000Z</time>
      </trkpt>
      <trkpt lat="43.340187" lon="-6.873335">
        <ele>731.3</ele>
        <time>2021-04-14T14:54:04.000Z</time>
      </trkpt>
      <trkpt lat="43.34023" lon="-6.873443">
        <ele>734.9</ele>
        <time>2021-04-14T14:54:10.000Z</time>
      </trkpt>
      <trkpt lat="43.340283" lon="-6.87356">
        <ele>736.4</ele>
        <time>2021-04-14T14:54:14.000Z</time>
      </trkpt>
      <trkpt lat="43.34036" lon="-6.873673">
        <ele>735.9</ele>
        <time>2021-04-14T14:54:18.000Z</time>
      </trkpt>
      <trkpt lat="43.340432" lon="-6.87375">
        <ele>735.5</ele>
        <time>2021-04-14T14:54:21.000Z</time>
      </trkpt>
      <trkpt lat="43.340527" lon="-6.873832">
        <ele>733.8</ele>
        <time>2021-04-14T14:54:25.000Z</time>
      </trkpt>
      <trkpt lat="43.34062" lon="-6.87391">
        <ele>733.7</ele>
        <time>2021-04-14T14:54:29.000Z</time>
      </trkpt>
      <trkpt lat="43.340722" lon="-6.87399">
        <ele>736.9</ele>
        <time>2021-04-14T14:54:33.000Z</time>
      </trkpt>
      <trkpt lat="43.340793" lon="-6.874102">
        <ele>737.3</ele>
        <time>2021-04-14T14:54:36.000Z</time>
      </trkpt>
      <trkpt lat="43.340813" lon="-6.874232">
        <ele>739.1</ele>
        <time>2021-04-14T14:54:39.000Z</time>
      </trkpt>
      <trkpt lat="43.34084" lon="-6.87437">
        <ele>739.9</ele>
        <time>2021-04-14T14:54:42.000Z</time>
      </trkpt>
      <trkpt lat="43.340868" lon="-6.874518">
        <ele>739.5</ele>
        <time>2021-04-14T14:54:45.000Z</time>
      </trkpt>
      <trkpt lat="43.340893" lon="-6.874665">
        <ele>739.1</ele>
        <time>2021-04-14T14:54:48.000Z</time>
      </trkpt>
      <trkpt lat="43.340892" lon="-6.874797">
        <ele>740.6</ele>
        <time>2021-04-14T14:54:51.000Z</time>
      </trkpt>
      <trkpt lat="43.340875" lon="-6.87494">
        <ele>740.7</ele>
        <time>2021-04-14T14:54:54.000Z</time>
      </trkpt>
      <trkpt lat="43.340858" lon="-6.875108">
        <ele>739.8</ele>
        <time>2021-04-14T14:54:57.000Z</time>
      </trkpt>
      <trkpt lat="43.340852" lon="-6.875232">
        <ele>739.3</ele>
        <time>2021-04-14T14:54:59.000Z</time>
      </trkpt>
      <trkpt lat="43.340837" lon="-6.875408">
        <ele>736.7</ele>
        <time>2021-04-14T14:55:02.000Z</time>
      </trkpt>
      <trkpt lat="43.34082" lon="-6.875568">
        <ele>736.7</ele>
        <time>2021-04-14T14:55:05.000Z</time>
      </trkpt>
      <trkpt lat="43.340792" lon="-6.875698">
        <ele>735.3</ele>
        <time>2021-04-14T14:55:08.000Z</time>
      </trkpt>
      <trkpt lat="43.340768" lon="-6.875825">
        <ele>734.5</ele>
        <time>2021-04-14T14:55:11.000Z</time>
      </trkpt>
      <trkpt lat="43.340758" lon="-6.875968">
        <ele>735.6</ele>
        <time>2021-04-14T14:55:14.000Z</time>
      </trkpt>
      <trkpt lat="43.340702" lon="-6.876137">
        <ele>738.2</ele>
        <time>2021-04-14T14:55:17.000Z</time>
      </trkpt>
      <trkpt lat="43.340658" lon="-6.876295">
        <ele>740.5</ele>
        <time>2021-04-14T14:55:20.000Z</time>
      </trkpt>
      <trkpt lat="43.340637" lon="-6.876433">
        <ele>743.5</ele>
        <time>2021-04-14T14:55:23.000Z</time>
      </trkpt>
      <trkpt lat="43.340607" lon="-6.87658">
        <ele>746.2</ele>
        <time>2021-04-14T14:55:26.000Z</time>
      </trkpt>
      <trkpt lat="43.340583" lon="-6.876717">
        <ele>747</ele>
        <time>2021-04-14T14:55:29.000Z</time>
      </trkpt>
      <trkpt lat="43.340557" lon="-6.876838">
        <ele>746.7</ele>
        <time>2021-04-14T14:55:32.000Z</time>
      </trkpt>
      <trkpt lat="43.340543" lon="-6.876972">
        <ele>746.1</ele>
        <time>2021-04-14T14:55:35.000Z</time>
      </trkpt>
      <trkpt lat="43.34055" lon="-6.877138">
        <ele>746.4</ele>
        <time>2021-04-14T14:55:39.000Z</time>
      </trkpt>
      <trkpt lat="43.34056" lon="-6.877267">
        <ele>745.4</ele>
        <time>2021-04-14T14:55:42.000Z</time>
      </trkpt>
      <trkpt lat="43.340593" lon="-6.877395">
        <ele>744.5</ele>
        <time>2021-04-14T14:55:46.000Z</time>
      </trkpt>
      <trkpt lat="43.340653" lon="-6.877492">
        <ele>745.7</ele>
        <time>2021-04-14T14:55:50.000Z</time>
      </trkpt>
      <trkpt lat="43.340702" lon="-6.877602">
        <ele>746</ele>
        <time>2021-04-14T14:55:56.000Z</time>
      </trkpt>
      <trkpt lat="43.340677" lon="-6.87773">
        <ele>753.3</ele>
        <time>2021-04-14T14:57:07.000Z</time>
      </trkpt>
      <trkpt lat="43.340782" lon="-6.877673">
        <ele>751</ele>
        <time>2021-04-14T14:57:50.000Z</time>
      </trkpt>
      <trkpt lat="43.34085" lon="-6.877592">
        <ele>750.1</ele>
        <time>2021-04-14T14:58:07.000Z</time>
      </trkpt>
      <trkpt lat="43.340983" lon="-6.877558">
        <ele>756.6</ele>
        <time>2021-04-14T14:59:25.000Z</time>
      </trkpt>
      <trkpt lat="43.341105" lon="-6.877558">
        <ele>756.7</ele>
        <time>2021-04-14T14:59:39.000Z</time>
      </trkpt>
      <trkpt lat="43.34121" lon="-6.877518">
        <ele>756.8</ele>
        <time>2021-04-14T14:59:53.000Z</time>
      </trkpt>
      <trkpt lat="43.341343" lon="-6.877525">
        <ele>756.1</ele>
        <time>2021-04-14T15:00:03.000Z</time>
      </trkpt>
      <trkpt lat="43.341452" lon="-6.877503">
        <ele>752.5</ele>
        <time>2021-04-14T15:00:24.000Z</time>
      </trkpt>
      <trkpt lat="43.341548" lon="-6.877497">
        <ele>749.5</ele>
        <time>2021-04-14T15:00:49.000Z</time>
      </trkpt>
      <trkpt lat="43.341653" lon="-6.877473">
        <ele>748.5</ele>
        <time>2021-04-14T15:00:58.000Z</time>
      </trkpt>
      <trkpt lat="43.341747" lon="-6.877458">
        <ele>748.9</ele>
        <time>2021-04-14T15:01:07.000Z</time>
      </trkpt>
      <trkpt lat="43.341853" lon="-6.877475">
        <ele>749.4</ele>
        <time>2021-04-14T15:01:18.000Z</time>
      </trkpt>
      <trkpt lat="43.341945" lon="-6.87747">
        <ele>748.2</ele>
        <time>2021-04-14T15:01:27.000Z</time>
      </trkpt>
      <trkpt lat="43.342028" lon="-6.877407">
        <ele>753.3</ele>
        <time>2021-04-14T15:01:40.000Z</time>
      </trkpt>
      <trkpt lat="43.34213" lon="-6.877405">
        <ele>754.2</ele>
        <time>2021-04-14T15:01:50.000Z</time>
      </trkpt>
      <trkpt lat="43.342247" lon="-6.877435">
        <ele>754.8</ele>
        <time>2021-04-14T15:02:00.000Z</time>
      </trkpt>
      <trkpt lat="43.342333" lon="-6.877478">
        <ele>754.2</ele>
        <time>2021-04-14T15:02:08.000Z</time>
      </trkpt>
      <trkpt lat="43.342428" lon="-6.877513">
        <ele>752.6</ele>
        <time>2021-04-14T15:02:17.000Z</time>
      </trkpt>
      <trkpt lat="43.342525" lon="-6.877535">
        <ele>750.6</ele>
        <time>2021-04-14T15:02:26.000Z</time>
      </trkpt>
      <trkpt lat="43.34262" lon="-6.877593">
        <ele>748</ele>
        <time>2021-04-14T15:02:36.000Z</time>
      </trkpt>
      <trkpt lat="43.342715" lon="-6.87762">
        <ele>746.3</ele>
        <time>2021-04-14T15:02:44.000Z</time>
      </trkpt>
      <trkpt lat="43.34281" lon="-6.877652">
        <ele>745.3</ele>
        <time>2021-04-14T15:02:54.000Z</time>
      </trkpt>
      <trkpt lat="43.342903" lon="-6.877642">
        <ele>745.3</ele>
        <time>2021-04-14T15:03:05.000Z</time>
      </trkpt>
      <trkpt lat="43.34299" lon="-6.8776">
        <ele>750.7</ele>
        <time>2021-04-14T15:03:16.000Z</time>
      </trkpt>
      <trkpt lat="43.343145" lon="-6.877635">
        <ele>749.2</ele>
        <time>2021-04-14T15:03:45.000Z</time>
      </trkpt>
      <trkpt lat="43.343257" lon="-6.877628">
        <ele>747.2</ele>
        <time>2021-04-14T15:03:58.000Z</time>
      </trkpt>
      <trkpt lat="43.343335" lon="-6.877697">
        <ele>747</ele>
        <time>2021-04-14T15:06:18.000Z</time>
      </trkpt>
      <trkpt lat="43.343438" lon="-6.877702">
        <ele>748.3</ele>
        <time>2021-04-14T15:06:27.000Z</time>
      </trkpt>
      <trkpt lat="43.343555" lon="-6.877712">
        <ele>748.8</ele>
        <time>2021-04-14T15:06:41.000Z</time>
      </trkpt>
      <trkpt lat="43.343647" lon="-6.87773">
        <ele>749.4</ele>
        <time>2021-04-14T15:06:53.000Z</time>
      </trkpt>
      <trkpt lat="43.343742" lon="-6.87776">
        <ele>749.7</ele>
        <time>2021-04-14T15:07:01.000Z</time>
      </trkpt>
      <trkpt lat="43.343838" lon="-6.8778">
        <ele>749.1</ele>
        <time>2021-04-14T15:07:11.000Z</time>
      </trkpt>
      <trkpt lat="43.343928" lon="-6.877853">
        <ele>749.8</ele>
        <time>2021-04-14T15:07:21.000Z</time>
      </trkpt>
      <trkpt lat="43.344012" lon="-6.877907">
        <ele>750.2</ele>
        <time>2021-04-14T15:07:29.000Z</time>
      </trkpt>
      <trkpt lat="43.344133" lon="-6.877952">
        <ele>750.1</ele>
        <time>2021-04-14T15:07:54.000Z</time>
      </trkpt>
      <trkpt lat="43.34423" lon="-6.877988">
        <ele>749.9</ele>
        <time>2021-04-14T15:08:03.000Z</time>
      </trkpt>
      <trkpt lat="43.344305" lon="-6.878078">
        <ele>751.1</ele>
        <time>2021-04-14T15:08:11.000Z</time>
      </trkpt>
      <trkpt lat="43.344282" lon="-6.878208">
        <ele>751.2</ele>
        <time>2021-04-14T15:08:21.000Z</time>
      </trkpt>
      <trkpt lat="43.344278" lon="-6.878337">
        <ele>751.5</ele>
        <time>2021-04-14T15:08:33.000Z</time>
      </trkpt>
      <trkpt lat="43.34431" lon="-6.878453">
        <ele>751.1</ele>
        <time>2021-04-14T15:08:42.000Z</time>
      </trkpt>
      <trkpt lat="43.344373" lon="-6.878548">
        <ele>753.3</ele>
        <time>2021-04-14T15:08:54.000Z</time>
      </trkpt>
      <trkpt lat="43.344468" lon="-6.878563">
        <ele>754.9</ele>
        <time>2021-04-14T15:09:05.000Z</time>
      </trkpt>
      <trkpt lat="43.344588" lon="-6.878593">
        <ele>754.5</ele>
        <time>2021-04-14T15:09:21.000Z</time>
      </trkpt>
      <trkpt lat="43.34469" lon="-6.87867">
        <ele>754.4</ele>
        <time>2021-04-14T15:09:36.000Z</time>
      </trkpt>
      <trkpt lat="43.344792" lon="-6.878747">
        <ele>755.7</ele>
        <time>2021-04-14T15:10:48.000Z</time>
      </trkpt>
      <trkpt lat="43.344912" lon="-6.878858">
        <ele>754.9</ele>
        <time>2021-04-14T15:11:09.000Z</time>
      </trkpt>
      <trkpt lat="43.344997" lon="-6.87891">
        <ele>754.5</ele>
        <time>2021-04-14T15:11:19.000Z</time>
      </trkpt>
      <trkpt lat="43.345088" lon="-6.878948">
        <ele>758.3</ele>
        <time>2021-04-14T15:11:29.000Z</time>
      </trkpt>
      <trkpt lat="43.345165" lon="-6.879035">
        <ele>760</ele>
        <time>2021-04-14T15:11:39.000Z</time>
      </trkpt>
      <trkpt lat="43.345257" lon="-6.87906">
        <ele>761.1</ele>
        <time>2021-04-14T15:11:48.000Z</time>
      </trkpt>
      <trkpt lat="43.34536" lon="-6.879017">
        <ele>762.6</ele>
        <time>2021-04-14T15:12:34.000Z</time>
      </trkpt>
      <trkpt lat="43.345438" lon="-6.878897">
        <ele>762.9</ele>
        <time>2021-04-14T15:12:48.000Z</time>
      </trkpt>
      <trkpt lat="43.345515" lon="-6.878813">
        <ele>762.7</ele>
        <time>2021-04-14T15:12:57.000Z</time>
      </trkpt>
      <trkpt lat="43.345595" lon="-6.87874">
        <ele>763.3</ele>
        <time>2021-04-14T15:13:06.000Z</time>
      </trkpt>
      <trkpt lat="43.34567" lon="-6.878672">
        <ele>763.4</ele>
        <time>2021-04-14T15:13:15.000Z</time>
      </trkpt>
      <trkpt lat="43.345595" lon="-6.878743">
        <ele>762.9</ele>
        <time>2021-04-14T15:13:41.000Z</time>
      </trkpt>
      <trkpt lat="43.345508" lon="-6.878863">
        <ele>762.4</ele>
        <time>2021-04-14T15:13:54.000Z</time>
      </trkpt>
      <trkpt lat="43.345437" lon="-6.878952">
        <ele>762.3</ele>
        <time>2021-04-14T15:14:05.000Z</time>
      </trkpt>
      <trkpt lat="43.3453" lon="-6.879047">
        <ele>762.4</ele>
        <time>2021-04-14T15:14:27.000Z</time>
      </trkpt>
      <trkpt lat="43.345177" lon="-6.87903">
        <ele>761.9</ele>
        <time>2021-04-14T15:14:42.000Z</time>
      </trkpt>
      <trkpt lat="43.345072" lon="-6.878947">
        <ele>761.5</ele>
        <time>2021-04-14T15:14:55.000Z</time>
      </trkpt>
      <trkpt lat="43.344958" lon="-6.87887">
        <ele>761.7</ele>
        <time>2021-04-14T15:15:09.000Z</time>
      </trkpt>
      <trkpt lat="43.344842" lon="-6.8788">
        <ele>761.7</ele>
        <time>2021-04-14T15:15:23.000Z</time>
      </trkpt>
      <trkpt lat="43.344723" lon="-6.878752">
        <ele>758.6</ele>
        <time>2021-04-14T15:15:31.000Z</time>
      </trkpt>
      <trkpt lat="43.344618" lon="-6.878658">
        <ele>757.1</ele>
        <time>2021-04-14T15:15:52.000Z</time>
      </trkpt>
      <trkpt lat="43.34451" lon="-6.878615">
        <ele>755.8</ele>
        <time>2021-04-14T15:16:06.000Z</time>
      </trkpt>
      <trkpt lat="43.344392" lon="-6.878547">
        <ele>755.3</ele>
        <time>2021-04-14T15:16:20.000Z</time>
      </trkpt>
      <trkpt lat="43.344302" lon="-6.878445">
        <ele>755</ele>
        <time>2021-04-14T15:16:35.000Z</time>
      </trkpt>
      <trkpt lat="43.344285" lon="-6.878285">
        <ele>755</ele>
        <time>2021-04-14T15:16:50.000Z</time>
      </trkpt>
      <trkpt lat="43.344312" lon="-6.878128">
        <ele>753.9</ele>
        <time>2021-04-14T15:17:07.000Z</time>
      </trkpt>
      <trkpt lat="43.344262" lon="-6.877982">
        <ele>748.1</ele>
        <time>2021-04-14T15:17:20.000Z</time>
      </trkpt>
      <trkpt lat="43.344168" lon="-6.87797">
        <ele>746.8</ele>
        <time>2021-04-14T15:17:30.000Z</time>
      </trkpt>
      <trkpt lat="43.344078" lon="-6.877973">
        <ele>745.7</ele>
        <time>2021-04-14T15:17:41.000Z</time>
      </trkpt>
      <trkpt lat="43.343988" lon="-6.877932">
        <ele>747.6</ele>
        <time>2021-04-14T15:17:51.000Z</time>
      </trkpt>
      <trkpt lat="43.34391" lon="-6.877855">
        <ele>748.9</ele>
        <time>2021-04-14T15:18:01.000Z</time>
      </trkpt>
      <trkpt lat="43.343822" lon="-6.877802">
        <ele>749.5</ele>
        <time>2021-04-14T15:18:11.000Z</time>
      </trkpt>
      <trkpt lat="43.343732" lon="-6.877757">
        <ele>748.8</ele>
        <time>2021-04-14T15:18:19.000Z</time>
      </trkpt>
      <trkpt lat="43.343642" lon="-6.87773">
        <ele>747.1</ele>
        <time>2021-04-14T15:18:28.000Z</time>
      </trkpt>
      <trkpt lat="43.343552" lon="-6.877713">
        <ele>747</ele>
        <time>2021-04-14T15:18:38.000Z</time>
      </trkpt>
      <trkpt lat="43.343393" lon="-6.877683">
        <ele>745.9</ele>
        <time>2021-04-14T15:18:52.000Z</time>
      </trkpt>
      <trkpt lat="43.343292" lon="-6.87769">
        <ele>745.3</ele>
        <time>2021-04-14T15:19:01.000Z</time>
      </trkpt>
      <trkpt lat="43.343193" lon="-6.877683">
        <ele>745</ele>
        <time>2021-04-14T15:19:09.000Z</time>
      </trkpt>
      <trkpt lat="43.343083" lon="-6.87768">
        <ele>743.5</ele>
        <time>2021-04-14T15:19:49.000Z</time>
      </trkpt>
      <trkpt lat="43.342985" lon="-6.877695">
        <ele>743.7</ele>
        <time>2021-04-14T15:19:55.000Z</time>
      </trkpt>
      <trkpt lat="43.342892" lon="-6.877682">
        <ele>744.8</ele>
        <time>2021-04-14T15:20:03.000Z</time>
      </trkpt>
      <trkpt lat="43.342755" lon="-6.877702">
        <ele>739.7</ele>
        <time>2021-04-14T15:20:17.000Z</time>
      </trkpt>
      <trkpt lat="43.34266" lon="-6.87767">
        <ele>738.7</ele>
        <time>2021-04-14T15:20:26.000Z</time>
      </trkpt>
      <trkpt lat="43.342567" lon="-6.877635">
        <ele>738.1</ele>
        <time>2021-04-14T15:20:35.000Z</time>
      </trkpt>
      <trkpt lat="43.342468" lon="-6.877615">
        <ele>737.5</ele>
        <time>2021-04-14T15:20:44.000Z</time>
      </trkpt>
      <trkpt lat="43.342375" lon="-6.877597">
        <ele>735.3</ele>
        <time>2021-04-14T15:20:53.000Z</time>
      </trkpt>
      <trkpt lat="43.34228" lon="-6.877543">
        <ele>736.5</ele>
        <time>2021-04-14T15:20:59.000Z</time>
      </trkpt>
      <trkpt lat="43.342183" lon="-6.877497">
        <ele>737.8</ele>
        <time>2021-04-14T15:21:07.000Z</time>
      </trkpt>
      <trkpt lat="43.342093" lon="-6.87746">
        <ele>739.2</ele>
        <time>2021-04-14T15:21:16.000Z</time>
      </trkpt>
      <trkpt lat="43.342" lon="-6.877468">
        <ele>741.2</ele>
        <time>2021-04-14T15:21:23.000Z</time>
      </trkpt>
      <trkpt lat="43.3419" lon="-6.877473">
        <ele>742.3</ele>
        <time>2021-04-14T15:21:31.000Z</time>
      </trkpt>
      <trkpt lat="43.341807" lon="-6.877468">
        <ele>743.7</ele>
        <time>2021-04-14T15:21:39.000Z</time>
      </trkpt>
      <trkpt lat="43.34171" lon="-6.877512">
        <ele>742.2</ele>
        <time>2021-04-14T15:21:49.000Z</time>
      </trkpt>
      <trkpt lat="43.34161" lon="-6.877523">
        <ele>742.1</ele>
        <time>2021-04-14T15:21:57.000Z</time>
      </trkpt>
      <trkpt lat="43.341513" lon="-6.87755">
        <ele>743</ele>
        <time>2021-04-14T15:22:04.000Z</time>
      </trkpt>
      <trkpt lat="43.34141" lon="-6.877562">
        <ele>747.3</ele>
        <time>2021-04-14T15:22:13.000Z</time>
      </trkpt>
      <trkpt lat="43.341318" lon="-6.877573">
        <ele>748</ele>
        <time>2021-04-14T15:22:20.000Z</time>
      </trkpt>
      <trkpt lat="43.34121" lon="-6.877588">
        <ele>748.5</ele>
        <time>2021-04-14T15:22:28.000Z</time>
      </trkpt>
      <trkpt lat="43.341043" lon="-6.877587">
        <ele>747.7</ele>
        <time>2021-04-14T15:22:44.000Z</time>
      </trkpt>
      <trkpt lat="43.340942" lon="-6.877597">
        <ele>747.2</ele>
        <time>2021-04-14T15:22:53.000Z</time>
      </trkpt>
      <trkpt lat="43.340805" lon="-6.877653">
        <ele>745.5</ele>
        <time>2021-04-14T15:23:04.000Z</time>
      </trkpt>
      <trkpt lat="43.340707" lon="-6.87761">
        <ele>744.7</ele>
        <time>2021-04-14T15:24:21.000Z</time>
      </trkpt>
      <trkpt lat="43.340645" lon="-6.877502">
        <ele>745.5</ele>
        <time>2021-04-14T15:24:27.000Z</time>
      </trkpt>
      <trkpt lat="43.340598" lon="-6.877388">
        <ele>744.9</ele>
        <time>2021-04-14T15:24:31.000Z</time>
      </trkpt>
      <trkpt lat="43.340587" lon="-6.877258">
        <ele>744.6</ele>
        <time>2021-04-14T15:24:34.000Z</time>
      </trkpt>
      <trkpt lat="43.340575" lon="-6.877125">
        <ele>744.9</ele>
        <time>2021-04-14T15:24:37.000Z</time>
      </trkpt>
      <trkpt lat="43.340557" lon="-6.87699">
        <ele>745.1</ele>
        <time>2021-04-14T15:24:40.000Z</time>
      </trkpt>
      <trkpt lat="43.340567" lon="-6.876853">
        <ele>742.3</ele>
        <time>2021-04-14T15:24:43.000Z</time>
      </trkpt>
      <trkpt lat="43.340583" lon="-6.876697">
        <ele>742.8</ele>
        <time>2021-04-14T15:24:46.000Z</time>
      </trkpt>
      <trkpt lat="43.340603" lon="-6.876567">
        <ele>741.7</ele>
        <time>2021-04-14T15:24:49.000Z</time>
      </trkpt>
      <trkpt lat="43.340637" lon="-6.876405">
        <ele>739.7</ele>
        <time>2021-04-14T15:24:52.000Z</time>
      </trkpt>
      <trkpt lat="43.340678" lon="-6.876235">
        <ele>738.5</ele>
        <time>2021-04-14T15:24:55.000Z</time>
      </trkpt>
      <trkpt lat="43.340722" lon="-6.876085">
        <ele>738.5</ele>
        <time>2021-04-14T15:24:58.000Z</time>
      </trkpt>
      <trkpt lat="43.340742" lon="-6.875933">
        <ele>738.6</ele>
        <time>2021-04-14T15:25:01.000Z</time>
      </trkpt>
      <trkpt lat="43.340745" lon="-6.875785">
        <ele>739.1</ele>
        <time>2021-04-14T15:25:04.000Z</time>
      </trkpt>
      <trkpt lat="43.340762" lon="-6.875615">
        <ele>739.7</ele>
        <time>2021-04-14T15:25:07.000Z</time>
      </trkpt>
      <trkpt lat="43.340797" lon="-6.875438">
        <ele>739.3</ele>
        <time>2021-04-14T15:25:10.000Z</time>
      </trkpt>
      <trkpt lat="43.340845" lon="-6.875275">
        <ele>737.5</ele>
        <time>2021-04-14T15:25:13.000Z</time>
      </trkpt>
      <trkpt lat="43.340883" lon="-6.875115">
        <ele>736.6</ele>
        <time>2021-04-14T15:25:16.000Z</time>
      </trkpt>
      <trkpt lat="43.340907" lon="-6.874975">
        <ele>736.4</ele>
        <time>2021-04-14T15:25:19.000Z</time>
      </trkpt>
      <trkpt lat="43.340925" lon="-6.874843">
        <ele>736.6</ele>
        <time>2021-04-14T15:25:22.000Z</time>
      </trkpt>
      <trkpt lat="43.340925" lon="-6.874675">
        <ele>737.2</ele>
        <time>2021-04-14T15:25:26.000Z</time>
      </trkpt>
      <trkpt lat="43.340888" lon="-6.874512">
        <ele>738.5</ele>
        <time>2021-04-14T15:25:29.000Z</time>
      </trkpt>
      <trkpt lat="43.340867" lon="-6.874338">
        <ele>739.6</ele>
        <time>2021-04-14T15:25:32.000Z</time>
      </trkpt>
      <trkpt lat="43.340832" lon="-6.874187">
        <ele>739.1</ele>
        <time>2021-04-14T15:25:35.000Z</time>
      </trkpt>
      <trkpt lat="43.34079" lon="-6.874047">
        <ele>737.8</ele>
        <time>2021-04-14T15:25:40.000Z</time>
      </trkpt>
      <trkpt lat="43.34068" lon="-6.873953">
        <ele>736.4</ele>
        <time>2021-04-14T15:26:00.000Z</time>
      </trkpt>
      <trkpt lat="43.340602" lon="-6.873887">
        <ele>736.3</ele>
        <time>2021-04-14T15:26:02.000Z</time>
      </trkpt>
      <trkpt lat="43.340507" lon="-6.87381">
        <ele>737</ele>
        <time>2021-04-14T15:26:06.000Z</time>
      </trkpt>
      <trkpt lat="43.340415" lon="-6.873745">
        <ele>734.8</ele>
        <time>2021-04-14T15:26:10.000Z</time>
      </trkpt>
      <trkpt lat="43.340328" lon="-6.87366">
        <ele>729.3</ele>
        <time>2021-04-14T15:27:59.000Z</time>
      </trkpt>
      <trkpt lat="43.340277" lon="-6.873558">
        <ele>727.9</ele>
        <time>2021-04-14T15:28:02.000Z</time>
      </trkpt>
      <trkpt lat="43.340228" lon="-6.87343">
        <ele>727.6</ele>
        <time>2021-04-14T15:28:06.000Z</time>
      </trkpt>
      <trkpt lat="43.340195" lon="-6.873308">
        <ele>726.9</ele>
        <time>2021-04-14T15:28:09.000Z</time>
      </trkpt>
      <trkpt lat="43.340163" lon="-6.873145">
        <ele>725.1</ele>
        <time>2021-04-14T15:28:12.000Z</time>
      </trkpt>
      <trkpt lat="43.340153" lon="-6.873005">
        <ele>723.9</ele>
        <time>2021-04-14T15:28:15.000Z</time>
      </trkpt>
      <trkpt lat="43.34014" lon="-6.87285">
        <ele>723.7</ele>
        <time>2021-04-14T15:28:18.000Z</time>
      </trkpt>
      <trkpt lat="43.340142" lon="-6.872673">
        <ele>723.1</ele>
        <time>2021-04-14T15:28:21.000Z</time>
      </trkpt>
      <trkpt lat="43.340145" lon="-6.87255">
        <ele>721.5</ele>
        <time>2021-04-14T15:28:23.000Z</time>
      </trkpt>
      <trkpt lat="43.340152" lon="-6.872427">
        <ele>720.5</ele>
        <time>2021-04-14T15:28:25.000Z</time>
      </trkpt>
      <trkpt lat="43.340158" lon="-6.872302">
        <ele>718.6</ele>
        <time>2021-04-14T15:28:27.000Z</time>
      </trkpt>
      <trkpt lat="43.340163" lon="-6.872173">
        <ele>717.1</ele>
        <time>2021-04-14T15:28:29.000Z</time>
      </trkpt>
      <trkpt lat="43.340165" lon="-6.872045">
        <ele>715.6</ele>
        <time>2021-04-14T15:28:31.000Z</time>
      </trkpt>
      <trkpt lat="43.34017" lon="-6.871905">
        <ele>714.7</ele>
        <time>2021-04-14T15:28:33.000Z</time>
      </trkpt>
      <trkpt lat="43.340185" lon="-6.871745">
        <ele>713.2</ele>
        <time>2021-04-14T15:28:36.000Z</time>
      </trkpt>
      <trkpt lat="43.340205" lon="-6.871602">
        <ele>710.6</ele>
        <time>2021-04-14T15:28:41.000Z</time>
      </trkpt>
      <trkpt lat="43.340223" lon="-6.871468">
        <ele>710</ele>
        <time>2021-04-14T15:28:44.000Z</time>
      </trkpt>
      <trkpt lat="43.340252" lon="-6.87135">
        <ele>708.8</ele>
        <time>2021-04-14T15:28:46.000Z</time>
      </trkpt>
      <trkpt lat="43.340278" lon="-6.871223">
        <ele>707.8</ele>
        <time>2021-04-14T15:28:48.000Z</time>
      </trkpt>
      <trkpt lat="43.34031" lon="-6.871053">
        <ele>706.8</ele>
        <time>2021-04-14T15:28:51.000Z</time>
      </trkpt>
      <trkpt lat="43.340358" lon="-6.870915">
        <ele>706</ele>
        <time>2021-04-14T15:28:54.000Z</time>
      </trkpt>
      <trkpt lat="43.340412" lon="-6.870755">
        <ele>703.9</ele>
        <time>2021-04-14T15:28:57.000Z</time>
      </trkpt>
      <trkpt lat="43.34045" lon="-6.87064">
        <ele>703.1</ele>
        <time>2021-04-14T15:28:59.000Z</time>
      </trkpt>
      <trkpt lat="43.340492" lon="-6.870482">
        <ele>702</ele>
        <time>2021-04-14T15:29:02.000Z</time>
      </trkpt>
      <trkpt lat="43.340525" lon="-6.87035">
        <ele>701.7</ele>
        <time>2021-04-14T15:29:04.000Z</time>
      </trkpt>
      <trkpt lat="43.340585" lon="-6.870208">
        <ele>699.9</ele>
        <time>2021-04-14T15:29:07.000Z</time>
      </trkpt>
      <trkpt lat="43.340642" lon="-6.870077">
        <ele>697.2</ele>
        <time>2021-04-14T15:29:10.000Z</time>
      </trkpt>
      <trkpt lat="43.340695" lon="-6.869952">
        <ele>696.4</ele>
        <time>2021-04-14T15:29:13.000Z</time>
      </trkpt>
      <trkpt lat="43.340767" lon="-6.86984">
        <ele>696</ele>
        <time>2021-04-14T15:29:16.000Z</time>
      </trkpt>
      <trkpt lat="43.340865" lon="-6.869725">
        <ele>693.7</ele>
        <time>2021-04-14T15:29:19.000Z</time>
      </trkpt>
      <trkpt lat="43.340955" lon="-6.869662">
        <ele>693.6</ele>
        <time>2021-04-14T15:29:22.000Z</time>
      </trkpt>
      <trkpt lat="43.341052" lon="-6.869598">
        <ele>695.1</ele>
        <time>2021-04-14T15:29:25.000Z</time>
      </trkpt>
      <trkpt lat="43.340978" lon="-6.869508">
        <ele>695.1</ele>
        <time>2021-04-14T15:29:32.000Z</time>
      </trkpt>
      <trkpt lat="43.34086" lon="-6.869545">
        <ele>694.2</ele>
        <time>2021-04-14T15:29:34.000Z</time>
      </trkpt>
      <trkpt lat="43.340722" lon="-6.869592">
        <ele>692.2</ele>
        <time>2021-04-14T15:29:36.000Z</time>
      </trkpt>
      <trkpt lat="43.34057" lon="-6.869633">
        <ele>691.3</ele>
        <time>2021-04-14T15:29:38.000Z</time>
      </trkpt>
      <trkpt lat="43.340437" lon="-6.869677">
        <ele>690.1</ele>
        <time>2021-04-14T15:29:40.000Z</time>
      </trkpt>
      <trkpt lat="43.340317" lon="-6.869718">
        <ele>689.2</ele>
        <time>2021-04-14T15:29:42.000Z</time>
      </trkpt>
      <trkpt lat="43.340212" lon="-6.869767">
        <ele>687.8</ele>
        <time>2021-04-14T15:29:44.000Z</time>
      </trkpt>
      <trkpt lat="43.340113" lon="-6.86982">
        <ele>686.2</ele>
        <time>2021-04-14T15:29:46.000Z</time>
      </trkpt>
      <trkpt lat="43.340013" lon="-6.86988">
        <ele>684.8</ele>
        <time>2021-04-14T15:29:48.000Z</time>
      </trkpt>
      <trkpt lat="43.339912" lon="-6.86995">
        <ele>684.2</ele>
        <time>2021-04-14T15:29:50.000Z</time>
      </trkpt>
      <trkpt lat="43.339812" lon="-6.870038">
        <ele>683.5</ele>
        <time>2021-04-14T15:29:52.000Z</time>
      </trkpt>
      <trkpt lat="43.339732" lon="-6.870135">
        <ele>681.5</ele>
        <time>2021-04-14T15:29:54.000Z</time>
      </trkpt>
      <trkpt lat="43.339662" lon="-6.870232">
        <ele>679.9</ele>
        <time>2021-04-14T15:29:56.000Z</time>
      </trkpt>
      <trkpt lat="43.339565" lon="-6.87035">
        <ele>677.5</ele>
        <time>2021-04-14T15:29:59.000Z</time>
      </trkpt>
      <trkpt lat="43.339495" lon="-6.870472">
        <ele>673.8</ele>
        <time>2021-04-14T15:30:02.000Z</time>
      </trkpt>
      <trkpt lat="43.33946" lon="-6.870587">
        <ele>667.6</ele>
        <time>2021-04-14T15:30:06.000Z</time>
      </trkpt>
      <trkpt lat="43.339397" lon="-6.870753">
        <ele>666.2</ele>
        <time>2021-04-14T15:30:37.000Z</time>
      </trkpt>
      <trkpt lat="43.339322" lon="-6.870885">
        <ele>666.6</ele>
        <time>2021-04-14T15:30:39.000Z</time>
      </trkpt>
      <trkpt lat="43.339253" lon="-6.871007">
        <ele>666.7</ele>
        <time>2021-04-14T15:30:41.000Z</time>
      </trkpt>
      <trkpt lat="43.339182" lon="-6.871122">
        <ele>666.5</ele>
        <time>2021-04-14T15:30:43.000Z</time>
      </trkpt>
      <trkpt lat="43.339125" lon="-6.871247">
        <ele>666.1</ele>
        <time>2021-04-14T15:30:46.000Z</time>
      </trkpt>
      <trkpt lat="43.339038" lon="-6.871377">
        <ele>666.9</ele>
        <time>2021-04-14T15:31:58.000Z</time>
      </trkpt>
      <trkpt lat="43.33897" lon="-6.871483">
        <ele>666.7</ele>
        <time>2021-04-14T15:32:00.000Z</time>
      </trkpt>
      <trkpt lat="43.338917" lon="-6.871587">
        <ele>665.5</ele>
        <time>2021-04-14T15:32:02.000Z</time>
      </trkpt>
      <trkpt lat="43.33885" lon="-6.871732">
        <ele>663.2</ele>
        <time>2021-04-14T15:32:05.000Z</time>
      </trkpt>
      <trkpt lat="43.33879" lon="-6.87187">
        <ele>661.4</ele>
        <time>2021-04-14T15:32:08.000Z</time>
      </trkpt>
      <trkpt lat="43.338743" lon="-6.872022">
        <ele>659.2</ele>
        <time>2021-04-14T15:32:11.000Z</time>
      </trkpt>
      <trkpt lat="43.338705" lon="-6.872153">
        <ele>657</ele>
        <time>2021-04-14T15:32:13.000Z</time>
      </trkpt>
      <trkpt lat="43.338658" lon="-6.872285">
        <ele>655.4</ele>
        <time>2021-04-14T15:32:15.000Z</time>
      </trkpt>
      <trkpt lat="43.338622" lon="-6.872413">
        <ele>653.5</ele>
        <time>2021-04-14T15:32:17.000Z</time>
      </trkpt>
      <trkpt lat="43.338588" lon="-6.872548">
        <ele>651.4</ele>
        <time>2021-04-14T15:32:19.000Z</time>
      </trkpt>
      <trkpt lat="43.33855" lon="-6.872673">
        <ele>653</ele>
        <time>2021-04-14T15:32:21.000Z</time>
      </trkpt>
      <trkpt lat="43.338512" lon="-6.872795">
        <ele>652.1</ele>
        <time>2021-04-14T15:32:23.000Z</time>
      </trkpt>
      <trkpt lat="43.338475" lon="-6.872917">
        <ele>653</ele>
        <time>2021-04-14T15:32:25.000Z</time>
      </trkpt>
      <trkpt lat="43.338427" lon="-6.873065">
        <ele>656</ele>
        <time>2021-04-14T15:32:28.000Z</time>
      </trkpt>
      <trkpt lat="43.33833" lon="-6.873115">
        <ele>658.5</ele>
        <time>2021-04-14T15:32:31.000Z</time>
      </trkpt>
      <trkpt lat="43.338273" lon="-6.87298">
        <ele>658.6</ele>
        <time>2021-04-14T15:32:34.000Z</time>
      </trkpt>
      <trkpt lat="43.338308" lon="-6.87281">
        <ele>658.3</ele>
        <time>2021-04-14T15:32:36.000Z</time>
      </trkpt>
      <trkpt lat="43.338335" lon="-6.87263">
        <ele>656.1</ele>
        <time>2021-04-14T15:32:38.000Z</time>
      </trkpt>
      <trkpt lat="43.33835" lon="-6.872457">
        <ele>653.3</ele>
        <time>2021-04-14T15:32:40.000Z</time>
      </trkpt>
      <trkpt lat="43.338357" lon="-6.872292">
        <ele>650.1</ele>
        <time>2021-04-14T15:32:42.000Z</time>
      </trkpt>
      <trkpt lat="43.338363" lon="-6.872133">
        <ele>646.6</ele>
        <time>2021-04-14T15:32:44.000Z</time>
      </trkpt>
      <trkpt lat="43.33837" lon="-6.871983">
        <ele>644.1</ele>
        <time>2021-04-14T15:32:46.000Z</time>
      </trkpt>
      <trkpt lat="43.33837" lon="-6.871832">
        <ele>641.9</ele>
        <time>2021-04-14T15:32:48.000Z</time>
      </trkpt>
      <trkpt lat="43.338373" lon="-6.871682">
        <ele>639.8</ele>
        <time>2021-04-14T15:32:50.000Z</time>
      </trkpt>
      <trkpt lat="43.338382" lon="-6.87153">
        <ele>638.3</ele>
        <time>2021-04-14T15:32:52.000Z</time>
      </trkpt>
      <trkpt lat="43.338395" lon="-6.87138">
        <ele>637</ele>
        <time>2021-04-14T15:32:54.000Z</time>
      </trkpt>
      <trkpt lat="43.338408" lon="-6.871228">
        <ele>635.9</ele>
        <time>2021-04-14T15:32:56.000Z</time>
      </trkpt>
      <trkpt lat="43.338427" lon="-6.87107">
        <ele>635.3</ele>
        <time>2021-04-14T15:32:58.000Z</time>
      </trkpt>
      <trkpt lat="43.338447" lon="-6.870937">
        <ele>633.6</ele>
        <time>2021-04-14T15:33:00.000Z</time>
      </trkpt>
      <trkpt lat="43.33847" lon="-6.870795">
        <ele>631.7</ele>
        <time>2021-04-14T15:33:02.000Z</time>
      </trkpt>
      <trkpt lat="43.33849" lon="-6.870653">
        <ele>629.8</ele>
        <time>2021-04-14T15:33:04.000Z</time>
      </trkpt>
      <trkpt lat="43.338498" lon="-6.870508">
        <ele>628.1</ele>
        <time>2021-04-14T15:33:06.000Z</time>
      </trkpt>
      <trkpt lat="43.338488" lon="-6.870363">
        <ele>628.2</ele>
        <time>2021-04-14T15:33:08.000Z</time>
      </trkpt>
      <trkpt lat="43.338472" lon="-6.87022">
        <ele>629.3</ele>
        <time>2021-04-14T15:33:10.000Z</time>
      </trkpt>
      <trkpt lat="43.338458" lon="-6.87009">
        <ele>629.8</ele>
        <time>2021-04-14T15:33:12.000Z</time>
      </trkpt>
      <trkpt lat="43.338452" lon="-6.86992">
        <ele>628.8</ele>
        <time>2021-04-14T15:33:15.000Z</time>
      </trkpt>
      <trkpt lat="43.338478" lon="-6.869762">
        <ele>626.7</ele>
        <time>2021-04-14T15:33:18.000Z</time>
      </trkpt>
      <trkpt lat="43.338515" lon="-6.869597">
        <ele>626.2</ele>
        <time>2021-04-14T15:33:21.000Z</time>
      </trkpt>
      <trkpt lat="43.338542" lon="-6.86942">
        <ele>625.9</ele>
        <time>2021-04-14T15:33:24.000Z</time>
      </trkpt>
      <trkpt lat="43.33857" lon="-6.869253">
        <ele>625.1</ele>
        <time>2021-04-14T15:33:27.000Z</time>
      </trkpt>
      <trkpt lat="43.33861" lon="-6.869095">
        <ele>622.4</ele>
        <time>2021-04-14T15:33:30.000Z</time>
      </trkpt>
      <trkpt lat="43.338632" lon="-6.868968">
        <ele>623.8</ele>
        <time>2021-04-14T15:33:32.000Z</time>
      </trkpt>
      <trkpt lat="43.338668" lon="-6.868853">
        <ele>622.2</ele>
        <time>2021-04-14T15:33:34.000Z</time>
      </trkpt>
      <trkpt lat="43.338708" lon="-6.86874">
        <ele>621.5</ele>
        <time>2021-04-14T15:33:36.000Z</time>
      </trkpt>
      <trkpt lat="43.338773" lon="-6.868592">
        <ele>619.9</ele>
        <time>2021-04-14T15:33:39.000Z</time>
      </trkpt>
      <trkpt lat="43.338848" lon="-6.868435">
        <ele>618.4</ele>
        <time>2021-04-14T15:33:42.000Z</time>
      </trkpt>
      <trkpt lat="43.338903" lon="-6.86832">
        <ele>618.1</ele>
        <time>2021-04-14T15:33:44.000Z</time>
      </trkpt>
      <trkpt lat="43.338957" lon="-6.868205">
        <ele>618.4</ele>
        <time>2021-04-14T15:33:46.000Z</time>
      </trkpt>
      <trkpt lat="43.339015" lon="-6.868087">
        <ele>617.5</ele>
        <time>2021-04-14T15:33:48.000Z</time>
      </trkpt>
      <trkpt lat="43.339078" lon="-6.867982">
        <ele>617.1</ele>
        <time>2021-04-14T15:33:50.000Z</time>
      </trkpt>
      <trkpt lat="43.339147" lon="-6.867888">
        <ele>616.6</ele>
        <time>2021-04-14T15:33:52.000Z</time>
      </trkpt>
      <trkpt lat="43.339218" lon="-6.867812">
        <ele>615.5</ele>
        <time>2021-04-14T15:33:54.000Z</time>
      </trkpt>
      <trkpt lat="43.33932" lon="-6.867713">
        <ele>614.8</ele>
        <time>2021-04-14T15:33:57.000Z</time>
      </trkpt>
      <trkpt lat="43.339417" lon="-6.867622">
        <ele>613.5</ele>
        <time>2021-04-14T15:34:00.000Z</time>
      </trkpt>
      <trkpt lat="43.33952" lon="-6.867533">
        <ele>612.3</ele>
        <time>2021-04-14T15:34:03.000Z</time>
      </trkpt>
      <trkpt lat="43.339627" lon="-6.867437">
        <ele>612</ele>
        <time>2021-04-14T15:34:06.000Z</time>
      </trkpt>
      <trkpt lat="43.339738" lon="-6.867355">
        <ele>610.5</ele>
        <time>2021-04-14T15:34:09.000Z</time>
      </trkpt>
      <trkpt lat="43.339845" lon="-6.86726">
        <ele>609.8</ele>
        <time>2021-04-14T15:34:12.000Z</time>
      </trkpt>
      <trkpt lat="43.33996" lon="-6.867173">
        <ele>609.9</ele>
        <time>2021-04-14T15:34:15.000Z</time>
      </trkpt>
      <trkpt lat="43.340075" lon="-6.867088">
        <ele>610.8</ele>
        <time>2021-04-14T15:34:18.000Z</time>
      </trkpt>
      <trkpt lat="43.340193" lon="-6.867008">
        <ele>611.2</ele>
        <time>2021-04-14T15:34:21.000Z</time>
      </trkpt>
      <trkpt lat="43.340277" lon="-6.866953">
        <ele>611.3</ele>
        <time>2021-04-14T15:34:23.000Z</time>
      </trkpt>
      <trkpt lat="43.340358" lon="-6.8669">
        <ele>611.1</ele>
        <time>2021-04-14T15:34:25.000Z</time>
      </trkpt>
      <trkpt lat="43.340482" lon="-6.866827">
        <ele>608.4</ele>
        <time>2021-04-14T15:34:28.000Z</time>
      </trkpt>
      <trkpt lat="43.340603" lon="-6.866753">
        <ele>605.4</ele>
        <time>2021-04-14T15:34:31.000Z</time>
      </trkpt>
      <trkpt lat="43.340718" lon="-6.866665">
        <ele>603.2</ele>
        <time>2021-04-14T15:34:34.000Z</time>
      </trkpt>
      <trkpt lat="43.340818" lon="-6.866572">
        <ele>603.1</ele>
        <time>2021-04-14T15:34:37.000Z</time>
      </trkpt>
      <trkpt lat="43.340915" lon="-6.866475">
        <ele>603.3</ele>
        <time>2021-04-14T15:34:40.000Z</time>
      </trkpt>
      <trkpt lat="43.34101" lon="-6.86636">
        <ele>602.8</ele>
        <time>2021-04-14T15:34:43.000Z</time>
      </trkpt>
      <trkpt lat="43.341068" lon="-6.86625">
        <ele>601.7</ele>
        <time>2021-04-14T15:34:45.000Z</time>
      </trkpt>
      <trkpt lat="43.34112" lon="-6.866125">
        <ele>600.7</ele>
        <time>2021-04-14T15:34:47.000Z</time>
      </trkpt>
      <trkpt lat="43.34117" lon="-6.866">
        <ele>599.6</ele>
        <time>2021-04-14T15:34:49.000Z</time>
      </trkpt>
      <trkpt lat="43.34123" lon="-6.865887">
        <ele>598.3</ele>
        <time>2021-04-14T15:34:51.000Z</time>
      </trkpt>
      <trkpt lat="43.341307" lon="-6.86578">
        <ele>595.9</ele>
        <time>2021-04-14T15:34:53.000Z</time>
      </trkpt>
      <trkpt lat="43.341377" lon="-6.865673">
        <ele>594</ele>
        <time>2021-04-14T15:34:55.000Z</time>
      </trkpt>
      <trkpt lat="43.341453" lon="-6.865563">
        <ele>593.3</ele>
        <time>2021-04-14T15:34:57.000Z</time>
      </trkpt>
      <trkpt lat="43.341528" lon="-6.86546">
        <ele>592</ele>
        <time>2021-04-14T15:34:59.000Z</time>
      </trkpt>
      <trkpt lat="43.341597" lon="-6.86536">
        <ele>591.4</ele>
        <time>2021-04-14T15:35:01.000Z</time>
      </trkpt>
      <trkpt lat="43.341663" lon="-6.865272">
        <ele>591.2</ele>
        <time>2021-04-14T15:35:03.000Z</time>
      </trkpt>
      <trkpt lat="43.34176" lon="-6.865162">
        <ele>589.9</ele>
        <time>2021-04-14T15:35:06.000Z</time>
      </trkpt>
      <trkpt lat="43.341848" lon="-6.86507">
        <ele>587.6</ele>
        <time>2021-04-14T15:35:09.000Z</time>
      </trkpt>
      <trkpt lat="43.34195" lon="-6.865">
        <ele>581.7</ele>
        <time>2021-04-14T15:35:12.000Z</time>
      </trkpt>
      <trkpt lat="43.342052" lon="-6.864883">
        <ele>580.1</ele>
        <time>2021-04-14T15:35:15.000Z</time>
      </trkpt>
      <trkpt lat="43.342122" lon="-6.864783">
        <ele>578.6</ele>
        <time>2021-04-14T15:35:17.000Z</time>
      </trkpt>
      <trkpt lat="43.342188" lon="-6.864668">
        <ele>577.5</ele>
        <time>2021-04-14T15:35:19.000Z</time>
      </trkpt>
      <trkpt lat="43.342255" lon="-6.864552">
        <ele>576.7</ele>
        <time>2021-04-14T15:35:21.000Z</time>
      </trkpt>
      <trkpt lat="43.342298" lon="-6.864422">
        <ele>578</ele>
        <time>2021-04-14T15:35:23.000Z</time>
      </trkpt>
      <trkpt lat="43.342327" lon="-6.864297">
        <ele>576.9</ele>
        <time>2021-04-14T15:35:25.000Z</time>
      </trkpt>
      <trkpt lat="43.342353" lon="-6.864155">
        <ele>577.1</ele>
        <time>2021-04-14T15:35:27.000Z</time>
      </trkpt>
      <trkpt lat="43.342382" lon="-6.864017">
        <ele>575.3</ele>
        <time>2021-04-14T15:35:29.000Z</time>
      </trkpt>
      <trkpt lat="43.342405" lon="-6.863865">
        <ele>577.3</ele>
        <time>2021-04-14T15:35:31.000Z</time>
      </trkpt>
      <trkpt lat="43.34243" lon="-6.86373">
        <ele>575.7</ele>
        <time>2021-04-14T15:35:33.000Z</time>
      </trkpt>
      <trkpt lat="43.342448" lon="-6.863598">
        <ele>574</ele>
        <time>2021-04-14T15:35:35.000Z</time>
      </trkpt>
      <trkpt lat="43.342463" lon="-6.863443">
        <ele>575</ele>
        <time>2021-04-14T15:35:37.000Z</time>
      </trkpt>
      <trkpt lat="43.342468" lon="-6.8633">
        <ele>575.7</ele>
        <time>2021-04-14T15:35:39.000Z</time>
      </trkpt>
      <trkpt lat="43.342473" lon="-6.863163">
        <ele>575.6</ele>
        <time>2021-04-14T15:35:41.000Z</time>
      </trkpt>
      <trkpt lat="43.342483" lon="-6.863025">
        <ele>575.1</ele>
        <time>2021-04-14T15:35:43.000Z</time>
      </trkpt>
      <trkpt lat="43.342502" lon="-6.86288">
        <ele>574.2</ele>
        <time>2021-04-14T15:35:45.000Z</time>
      </trkpt>
      <trkpt lat="43.342512" lon="-6.862737">
        <ele>574.4</ele>
        <time>2021-04-14T15:35:47.000Z</time>
      </trkpt>
      <trkpt lat="43.342532" lon="-6.86261">
        <ele>570.9</ele>
        <time>2021-04-14T15:35:49.000Z</time>
      </trkpt>
      <trkpt lat="43.342583" lon="-6.862495">
        <ele>568.4</ele>
        <time>2021-04-14T15:35:51.000Z</time>
      </trkpt>
      <trkpt lat="43.342653" lon="-6.862363">
        <ele>566.9</ele>
        <time>2021-04-14T15:35:54.000Z</time>
      </trkpt>
      <trkpt lat="43.342737" lon="-6.862235">
        <ele>567.4</ele>
        <time>2021-04-14T15:35:57.000Z</time>
      </trkpt>
      <trkpt lat="43.3428" lon="-6.862137">
        <ele>567</ele>
        <time>2021-04-14T15:35:59.000Z</time>
      </trkpt>
      <trkpt lat="43.342877" lon="-6.862062">
        <ele>566</ele>
        <time>2021-04-14T15:36:01.000Z</time>
      </trkpt>
      <trkpt lat="43.342963" lon="-6.862025">
        <ele>566.4</ele>
        <time>2021-04-14T15:36:03.000Z</time>
      </trkpt>
      <trkpt lat="43.343068" lon="-6.862057">
        <ele>564.7</ele>
        <time>2021-04-14T15:36:06.000Z</time>
      </trkpt>
      <trkpt lat="43.343172" lon="-6.862098">
        <ele>562.8</ele>
        <time>2021-04-14T15:36:10.000Z</time>
      </trkpt>
      <trkpt lat="43.343265" lon="-6.862115">
        <ele>560.3</ele>
        <time>2021-04-14T15:36:13.000Z</time>
      </trkpt>
      <trkpt lat="43.343395" lon="-6.86214">
        <ele>555.6</ele>
        <time>2021-04-14T15:36:16.000Z</time>
      </trkpt>
      <trkpt lat="43.343505" lon="-6.862152">
        <ele>553.6</ele>
        <time>2021-04-14T15:36:19.000Z</time>
      </trkpt>
      <trkpt lat="43.343612" lon="-6.86217">
        <ele>551.8</ele>
        <time>2021-04-14T15:36:22.000Z</time>
      </trkpt>
      <trkpt lat="43.343725" lon="-6.862175">
        <ele>550.5</ele>
        <time>2021-04-14T15:36:25.000Z</time>
      </trkpt>
      <trkpt lat="43.343843" lon="-6.862158">
        <ele>546.7</ele>
        <time>2021-04-14T15:36:28.000Z</time>
      </trkpt>
      <trkpt lat="43.343877" lon="-6.862042">
        <ele>539.1</ele>
        <time>2021-04-14T15:36:33.000Z</time>
      </trkpt>
      <trkpt lat="43.343872" lon="-6.861868">
        <ele>536.5</ele>
        <time>2021-04-14T15:36:36.000Z</time>
      </trkpt>
      <trkpt lat="43.34386" lon="-6.861687">
        <ele>536.7</ele>
        <time>2021-04-14T15:36:39.000Z</time>
      </trkpt>
      <trkpt lat="43.34386" lon="-6.861522">
        <ele>536.1</ele>
        <time>2021-04-14T15:36:42.000Z</time>
      </trkpt>
      <trkpt lat="43.343857" lon="-6.861335">
        <ele>537.2</ele>
        <time>2021-04-14T15:36:45.000Z</time>
      </trkpt>
      <trkpt lat="43.343843" lon="-6.861198">
        <ele>540</ele>
        <time>2021-04-14T15:36:47.000Z</time>
      </trkpt>
      <trkpt lat="43.34384" lon="-6.861053">
        <ele>543.7</ele>
        <time>2021-04-14T15:36:49.000Z</time>
      </trkpt>
      <trkpt lat="43.343825" lon="-6.860875">
        <ele>545.6</ele>
        <time>2021-04-14T15:36:52.000Z</time>
      </trkpt>
      <trkpt lat="43.343813" lon="-6.860743">
        <ele>547.1</ele>
        <time>2021-04-14T15:36:54.000Z</time>
      </trkpt>
      <trkpt lat="43.343785" lon="-6.860603">
        <ele>548.9</ele>
        <time>2021-04-14T15:36:56.000Z</time>
      </trkpt>
      <trkpt lat="43.343767" lon="-6.860467">
        <ele>548.7</ele>
        <time>2021-04-14T15:36:58.000Z</time>
      </trkpt>
      <trkpt lat="43.343747" lon="-6.860332">
        <ele>549.2</ele>
        <time>2021-04-14T15:37:00.000Z</time>
      </trkpt>
      <trkpt lat="43.34373" lon="-6.860178">
        <ele>550</ele>
        <time>2021-04-14T15:37:02.000Z</time>
      </trkpt>
      <trkpt lat="43.343715" lon="-6.860055">
        <ele>548.6</ele>
        <time>2021-04-14T15:37:04.000Z</time>
      </trkpt>
      <trkpt lat="43.343718" lon="-6.859895">
        <ele>548.1</ele>
        <time>2021-04-14T15:37:06.000Z</time>
      </trkpt>
      <trkpt lat="43.343728" lon="-6.859732">
        <ele>546.6</ele>
        <time>2021-04-14T15:37:08.000Z</time>
      </trkpt>
      <trkpt lat="43.343727" lon="-6.859583">
        <ele>543.1</ele>
        <time>2021-04-14T15:37:11.000Z</time>
      </trkpt>
      <trkpt lat="43.343705" lon="-6.859425">
        <ele>540.5</ele>
        <time>2021-04-14T15:37:14.000Z</time>
      </trkpt>
      <trkpt lat="43.343688" lon="-6.859297">
        <ele>537</ele>
        <time>2021-04-14T15:37:16.000Z</time>
      </trkpt>
      <trkpt lat="43.34367" lon="-6.85916">
        <ele>534.8</ele>
        <time>2021-04-14T15:37:18.000Z</time>
      </trkpt>
      <trkpt lat="43.343655" lon="-6.859013">
        <ele>531.4</ele>
        <time>2021-04-14T15:37:20.000Z</time>
      </trkpt>
      <trkpt lat="43.343633" lon="-6.858867">
        <ele>529.4</ele>
        <time>2021-04-14T15:37:22.000Z</time>
      </trkpt>
      <trkpt lat="43.343613" lon="-6.858732">
        <ele>525.4</ele>
        <time>2021-04-14T15:37:24.000Z</time>
      </trkpt>
      <trkpt lat="43.343592" lon="-6.858597">
        <ele>522.5</ele>
        <time>2021-04-14T15:37:26.000Z</time>
      </trkpt>
      <trkpt lat="43.343575" lon="-6.858463">
        <ele>521.3</ele>
        <time>2021-04-14T15:37:28.000Z</time>
      </trkpt>
      <trkpt lat="43.343553" lon="-6.858317">
        <ele>519.5</ele>
        <time>2021-04-14T15:37:30.000Z</time>
      </trkpt>
      <trkpt lat="43.343548" lon="-6.85816">
        <ele>517.9</ele>
        <time>2021-04-14T15:37:32.000Z</time>
      </trkpt>
      <trkpt lat="43.343553" lon="-6.858007">
        <ele>516.1</ele>
        <time>2021-04-14T15:37:34.000Z</time>
      </trkpt>
      <trkpt lat="43.343573" lon="-6.857857">
        <ele>514.8</ele>
        <time>2021-04-14T15:37:36.000Z</time>
      </trkpt>
      <trkpt lat="43.343605" lon="-6.857715">
        <ele>513.3</ele>
        <time>2021-04-14T15:37:38.000Z</time>
      </trkpt>
      <trkpt lat="43.34364" lon="-6.857563">
        <ele>512.3</ele>
        <time>2021-04-14T15:37:40.000Z</time>
      </trkpt>
      <trkpt lat="43.343687" lon="-6.85742">
        <ele>510.9</ele>
        <time>2021-04-14T15:37:42.000Z</time>
      </trkpt>
      <trkpt lat="43.343743" lon="-6.857295">
        <ele>509.7</ele>
        <time>2021-04-14T15:37:44.000Z</time>
      </trkpt>
      <trkpt lat="43.343817" lon="-6.857187">
        <ele>508.8</ele>
        <time>2021-04-14T15:37:46.000Z</time>
      </trkpt>
      <trkpt lat="43.343902" lon="-6.857073">
        <ele>511.5</ele>
        <time>2021-04-14T15:37:48.000Z</time>
      </trkpt>
      <trkpt lat="43.343998" lon="-6.856973">
        <ele>514.2</ele>
        <time>2021-04-14T15:37:50.000Z</time>
      </trkpt>
      <trkpt lat="43.344085" lon="-6.856892">
        <ele>514</ele>
        <time>2021-04-14T15:37:52.000Z</time>
      </trkpt>
      <trkpt lat="43.344177" lon="-6.856818">
        <ele>514</ele>
        <time>2021-04-14T15:37:54.000Z</time>
      </trkpt>
      <trkpt lat="43.344303" lon="-6.856758">
        <ele>513.4</ele>
        <time>2021-04-14T15:37:56.000Z</time>
      </trkpt>
      <trkpt lat="43.34444" lon="-6.856715">
        <ele>512.8</ele>
        <time>2021-04-14T15:37:58.000Z</time>
      </trkpt>
      <trkpt lat="43.344557" lon="-6.85668">
        <ele>511.9</ele>
        <time>2021-04-14T15:38:00.000Z</time>
      </trkpt>
      <trkpt lat="43.344678" lon="-6.856663">
        <ele>510.7</ele>
        <time>2021-04-14T15:38:02.000Z</time>
      </trkpt>
      <trkpt lat="43.344788" lon="-6.85663">
        <ele>511.1</ele>
        <time>2021-04-14T15:38:04.000Z</time>
      </trkpt>
      <trkpt lat="43.344905" lon="-6.856595">
        <ele>512.5</ele>
        <time>2021-04-14T15:38:06.000Z</time>
      </trkpt>
      <trkpt lat="43.345028" lon="-6.856562">
        <ele>513.2</ele>
        <time>2021-04-14T15:38:08.000Z</time>
      </trkpt>
      <trkpt lat="43.345128" lon="-6.856537">
        <ele>511.6</ele>
        <time>2021-04-14T15:38:10.000Z</time>
      </trkpt>
      <trkpt lat="43.345223" lon="-6.856517">
        <ele>511.3</ele>
        <time>2021-04-14T15:38:12.000Z</time>
      </trkpt>
      <trkpt lat="43.345328" lon="-6.856505">
        <ele>509.8</ele>
        <time>2021-04-14T15:38:14.000Z</time>
      </trkpt>
      <trkpt lat="43.345427" lon="-6.856518">
        <ele>507.7</ele>
        <time>2021-04-14T15:38:16.000Z</time>
      </trkpt>
      <trkpt lat="43.345525" lon="-6.856517">
        <ele>507.2</ele>
        <time>2021-04-14T15:38:18.000Z</time>
      </trkpt>
      <trkpt lat="43.345617" lon="-6.856452">
        <ele>505.7</ele>
        <time>2021-04-14T15:38:21.000Z</time>
      </trkpt>
      <trkpt lat="43.345613" lon="-6.856253">
        <ele>515.6</ele>
        <time>2021-04-14T15:43:26.000Z</time>
      </trkpt>
      <trkpt lat="43.34569" lon="-6.856187">
        <ele>524.2</ele>
        <time>2021-04-14T16:04:05.000Z</time>
      </trkpt>
      <trkpt lat="43.345605" lon="-6.856248">
        <ele>528.9</ele>
        <time>2021-04-14T16:18:01.000Z</time>
      </trkpt>
      <trkpt lat="43.34548" lon="-6.856247">
        <ele>525.7</ele>
        <time>2021-04-14T16:18:05.000Z</time>
      </trkpt>
      <trkpt lat="43.345347" lon="-6.856235">
        <ele>521.1</ele>
        <time>2021-04-14T16:18:08.000Z</time>
      </trkpt>
      <trkpt lat="43.345248" lon="-6.856203">
        <ele>518.6</ele>
        <time>2021-04-14T16:18:10.000Z</time>
      </trkpt>
      <trkpt lat="43.345153" lon="-6.856158">
        <ele>516</ele>
        <time>2021-04-14T16:18:12.000Z</time>
      </trkpt>
      <trkpt lat="43.345067" lon="-6.85611">
        <ele>513.6</ele>
        <time>2021-04-14T16:18:14.000Z</time>
      </trkpt>
      <trkpt lat="43.344937" lon="-6.856047">
        <ele>508.7</ele>
        <time>2021-04-14T16:18:17.000Z</time>
      </trkpt>
      <trkpt lat="43.344845" lon="-6.85601">
        <ele>505.5</ele>
        <time>2021-04-14T16:18:19.000Z</time>
      </trkpt>
      <trkpt lat="43.344753" lon="-6.855957">
        <ele>502.4</ele>
        <time>2021-04-14T16:18:21.000Z</time>
      </trkpt>
      <trkpt lat="43.344672" lon="-6.855888">
        <ele>499.3</ele>
        <time>2021-04-14T16:18:23.000Z</time>
      </trkpt>
      <trkpt lat="43.344582" lon="-6.85584">
        <ele>496.6</ele>
        <time>2021-04-14T16:18:25.000Z</time>
      </trkpt>
      <trkpt lat="43.344497" lon="-6.85578">
        <ele>495.2</ele>
        <time>2021-04-14T16:18:27.000Z</time>
      </trkpt>
      <trkpt lat="43.344383" lon="-6.855702">
        <ele>492.2</ele>
        <time>2021-04-14T16:18:30.000Z</time>
      </trkpt>
      <trkpt lat="43.344307" lon="-6.855633">
        <ele>491.8</ele>
        <time>2021-04-14T16:18:32.000Z</time>
      </trkpt>
      <trkpt lat="43.34419" lon="-6.855548">
        <ele>491.9</ele>
        <time>2021-04-14T16:18:35.000Z</time>
      </trkpt>
      <trkpt lat="43.344098" lon="-6.855473">
        <ele>494.2</ele>
        <time>2021-04-14T16:18:37.000Z</time>
      </trkpt>
      <trkpt lat="43.343992" lon="-6.855383">
        <ele>498.4</ele>
        <time>2021-04-14T16:18:39.000Z</time>
      </trkpt>
      <trkpt lat="43.343898" lon="-6.855327">
        <ele>500.1</ele>
        <time>2021-04-14T16:18:41.000Z</time>
      </trkpt>
      <trkpt lat="43.34381" lon="-6.855258">
        <ele>500.9</ele>
        <time>2021-04-14T16:18:43.000Z</time>
      </trkpt>
      <trkpt lat="43.343702" lon="-6.855152">
        <ele>500.2</ele>
        <time>2021-04-14T16:18:46.000Z</time>
      </trkpt>
      <trkpt lat="43.343602" lon="-6.855025">
        <ele>496.6</ele>
        <time>2021-04-14T16:18:49.000Z</time>
      </trkpt>
      <trkpt lat="43.343537" lon="-6.854935">
        <ele>492.8</ele>
        <time>2021-04-14T16:18:51.000Z</time>
      </trkpt>
      <trkpt lat="43.343438" lon="-6.854808">
        <ele>492.5</ele>
        <time>2021-04-14T16:18:54.000Z</time>
      </trkpt>
      <trkpt lat="43.343333" lon="-6.854717">
        <ele>490.5</ele>
        <time>2021-04-14T16:18:57.000Z</time>
      </trkpt>
      <trkpt lat="43.343205" lon="-6.854677">
        <ele>484.1</ele>
        <time>2021-04-14T16:19:00.000Z</time>
      </trkpt>
      <trkpt lat="43.34308" lon="-6.854627">
        <ele>481</ele>
        <time>2021-04-14T16:19:03.000Z</time>
      </trkpt>
      <trkpt lat="43.342962" lon="-6.854572">
        <ele>477.3</ele>
        <time>2021-04-14T16:19:06.000Z</time>
      </trkpt>
      <trkpt lat="43.342845" lon="-6.854535">
        <ele>475.5</ele>
        <time>2021-04-14T16:19:09.000Z</time>
      </trkpt>
      <trkpt lat="43.342752" lon="-6.8545">
        <ele>472.8</ele>
        <time>2021-04-14T16:19:12.000Z</time>
      </trkpt>
      <trkpt lat="43.342683" lon="-6.85438">
        <ele>473.1</ele>
        <time>2021-04-14T16:19:18.000Z</time>
      </trkpt>
      <trkpt lat="43.342605" lon="-6.854305">
        <ele>472.9</ele>
        <time>2021-04-14T16:19:20.000Z</time>
      </trkpt>
      <trkpt lat="43.342503" lon="-6.854305">
        <ele>472.8</ele>
        <time>2021-04-14T16:19:22.000Z</time>
      </trkpt>
      <trkpt lat="43.342398" lon="-6.85437">
        <ele>471.8</ele>
        <time>2021-04-14T16:19:24.000Z</time>
      </trkpt>
      <trkpt lat="43.342298" lon="-6.854423">
        <ele>472</ele>
        <time>2021-04-14T16:19:26.000Z</time>
      </trkpt>
      <trkpt lat="43.3422" lon="-6.854438">
        <ele>473.4</ele>
        <time>2021-04-14T16:19:28.000Z</time>
      </trkpt>
      <trkpt lat="43.342107" lon="-6.854418">
        <ele>473.8</ele>
        <time>2021-04-14T16:19:30.000Z</time>
      </trkpt>
      <trkpt lat="43.34201" lon="-6.854365">
        <ele>475.2</ele>
        <time>2021-04-14T16:19:32.000Z</time>
      </trkpt>
      <trkpt lat="43.341927" lon="-6.854273">
        <ele>477.8</ele>
        <time>2021-04-14T16:19:34.000Z</time>
      </trkpt>
      <trkpt lat="43.34187" lon="-6.854153">
        <ele>479.9</ele>
        <time>2021-04-14T16:19:36.000Z</time>
      </trkpt>
      <trkpt lat="43.341832" lon="-6.853992">
        <ele>481</ele>
        <time>2021-04-14T16:19:38.000Z</time>
      </trkpt>
      <trkpt lat="43.341797" lon="-6.853825">
        <ele>482.3</ele>
        <time>2021-04-14T16:19:40.000Z</time>
      </trkpt>
      <trkpt lat="43.341785" lon="-6.853655">
        <ele>483.4</ele>
        <time>2021-04-14T16:19:42.000Z</time>
      </trkpt>
      <trkpt lat="43.34181" lon="-6.853503">
        <ele>483.1</ele>
        <time>2021-04-14T16:19:44.000Z</time>
      </trkpt>
      <trkpt lat="43.341847" lon="-6.853378">
        <ele>480.4</ele>
        <time>2021-04-14T16:19:46.000Z</time>
      </trkpt>
      <trkpt lat="43.341892" lon="-6.853252">
        <ele>480.8</ele>
        <time>2021-04-14T16:19:48.000Z</time>
      </trkpt>
      <trkpt lat="43.341938" lon="-6.853133">
        <ele>480.3</ele>
        <time>2021-04-14T16:19:50.000Z</time>
      </trkpt>
      <trkpt lat="43.341997" lon="-6.853018">
        <ele>478.3</ele>
        <time>2021-04-14T16:19:52.000Z</time>
      </trkpt>
      <trkpt lat="43.34205" lon="-6.85291">
        <ele>476.6</ele>
        <time>2021-04-14T16:19:54.000Z</time>
      </trkpt>
      <trkpt lat="43.342122" lon="-6.852822">
        <ele>474.8</ele>
        <time>2021-04-14T16:19:56.000Z</time>
      </trkpt>
      <trkpt lat="43.342202" lon="-6.852753">
        <ele>473.5</ele>
        <time>2021-04-14T16:19:58.000Z</time>
      </trkpt>
      <trkpt lat="43.34229" lon="-6.852682">
        <ele>473.4</ele>
        <time>2021-04-14T16:20:00.000Z</time>
      </trkpt>
      <trkpt lat="43.342385" lon="-6.852598">
        <ele>473.3</ele>
        <time>2021-04-14T16:20:02.000Z</time>
      </trkpt>
      <trkpt lat="43.342478" lon="-6.852503">
        <ele>474.1</ele>
        <time>2021-04-14T16:20:04.000Z</time>
      </trkpt>
      <trkpt lat="43.342567" lon="-6.852407">
        <ele>474.4</ele>
        <time>2021-04-14T16:20:06.000Z</time>
      </trkpt>
      <trkpt lat="43.342655" lon="-6.852308">
        <ele>475.5</ele>
        <time>2021-04-14T16:20:08.000Z</time>
      </trkpt>
      <trkpt lat="43.342743" lon="-6.852203">
        <ele>476.7</ele>
        <time>2021-04-14T16:20:10.000Z</time>
      </trkpt>
      <trkpt lat="43.342835" lon="-6.852103">
        <ele>477.4</ele>
        <time>2021-04-14T16:20:12.000Z</time>
      </trkpt>
      <trkpt lat="43.342925" lon="-6.852003">
        <ele>478.7</ele>
        <time>2021-04-14T16:20:14.000Z</time>
      </trkpt>
      <trkpt lat="43.34302" lon="-6.851945">
        <ele>478.9</ele>
        <time>2021-04-14T16:20:16.000Z</time>
      </trkpt>
      <trkpt lat="43.343097" lon="-6.85181">
        <ele>478.5</ele>
        <time>2021-04-14T16:20:19.000Z</time>
      </trkpt>
      <trkpt lat="43.34308" lon="-6.851657">
        <ele>476.6</ele>
        <time>2021-04-14T16:20:21.000Z</time>
      </trkpt>
      <trkpt lat="43.343033" lon="-6.851472">
        <ele>475</ele>
        <time>2021-04-14T16:20:23.000Z</time>
      </trkpt>
      <trkpt lat="43.343002" lon="-6.851315">
        <ele>474.1</ele>
        <time>2021-04-14T16:20:25.000Z</time>
      </trkpt>
      <trkpt lat="43.34297" lon="-6.85114">
        <ele>472.4</ele>
        <time>2021-04-14T16:20:28.000Z</time>
      </trkpt>
      <trkpt lat="43.342942" lon="-6.850985">
        <ele>469.7</ele>
        <time>2021-04-14T16:20:31.000Z</time>
      </trkpt>
      <trkpt lat="43.342927" lon="-6.850863">
        <ele>471.8</ele>
        <time>2021-04-14T16:21:50.000Z</time>
      </trkpt>
      <trkpt lat="43.342912" lon="-6.850712">
        <ele>470.2</ele>
        <time>2021-04-14T16:21:54.000Z</time>
      </trkpt>
      <trkpt lat="43.342888" lon="-6.850583">
        <ele>468.5</ele>
        <time>2021-04-14T16:21:57.000Z</time>
      </trkpt>
      <trkpt lat="43.342835" lon="-6.85047">
        <ele>464.7</ele>
        <time>2021-04-14T16:22:22.000Z</time>
      </trkpt>
      <trkpt lat="43.342772" lon="-6.85038">
        <ele>465.1</ele>
        <time>2021-04-14T16:22:26.000Z</time>
      </trkpt>
      <trkpt lat="43.342683" lon="-6.85028">
        <ele>465.9</ele>
        <time>2021-04-14T16:22:30.000Z</time>
      </trkpt>
      <trkpt lat="43.34261" lon="-6.850158">
        <ele>465.8</ele>
        <time>2021-04-14T16:22:34.000Z</time>
      </trkpt>
      <trkpt lat="43.342547" lon="-6.850058">
        <ele>466.5</ele>
        <time>2021-04-14T16:22:37.000Z</time>
      </trkpt>
      <trkpt lat="43.342475" lon="-6.849968">
        <ele>464.9</ele>
        <time>2021-04-14T16:22:40.000Z</time>
      </trkpt>
      <trkpt lat="43.342403" lon="-6.849852">
        <ele>462</ele>
        <time>2021-04-14T16:22:43.000Z</time>
      </trkpt>
      <trkpt lat="43.342335" lon="-6.849748">
        <ele>459.8</ele>
        <time>2021-04-14T16:22:46.000Z</time>
      </trkpt>
      <trkpt lat="43.342273" lon="-6.849633">
        <ele>462.3</ele>
        <time>2021-04-14T16:22:50.000Z</time>
      </trkpt>
      <trkpt lat="43.342218" lon="-6.849525">
        <ele>461.5</ele>
        <time>2021-04-14T16:22:53.000Z</time>
      </trkpt>
      <trkpt lat="43.342162" lon="-6.849425">
        <ele>459.9</ele>
        <time>2021-04-14T16:22:56.000Z</time>
      </trkpt>
      <trkpt lat="43.342098" lon="-6.849307">
        <ele>458.9</ele>
        <time>2021-04-14T16:23:45.000Z</time>
      </trkpt>
      <trkpt lat="43.342033" lon="-6.849175">
        <ele>457.3</ele>
        <time>2021-04-14T16:23:49.000Z</time>
      </trkpt>
      <trkpt lat="43.341982" lon="-6.849055">
        <ele>455.1</ele>
        <time>2021-04-14T16:23:52.000Z</time>
      </trkpt>
      <trkpt lat="43.341927" lon="-6.848912">
        <ele>451.7</ele>
        <time>2021-04-14T16:23:55.000Z</time>
      </trkpt>
      <trkpt lat="43.34188" lon="-6.848775">
        <ele>449.5</ele>
        <time>2021-04-14T16:23:58.000Z</time>
      </trkpt>
      <trkpt lat="43.341835" lon="-6.848628">
        <ele>448.7</ele>
        <time>2021-04-14T16:24:01.000Z</time>
      </trkpt>
      <trkpt lat="43.341797" lon="-6.848487">
        <ele>447.6</ele>
        <time>2021-04-14T16:24:04.000Z</time>
      </trkpt>
      <trkpt lat="43.341762" lon="-6.848343">
        <ele>446.5</ele>
        <time>2021-04-14T16:24:07.000Z</time>
      </trkpt>
      <trkpt lat="43.34175" lon="-6.848215">
        <ele>443</ele>
        <time>2021-04-14T16:24:10.000Z</time>
      </trkpt>
      <trkpt lat="43.34175" lon="-6.848067">
        <ele>441</ele>
        <time>2021-04-14T16:24:13.000Z</time>
      </trkpt>
      <trkpt lat="43.341753" lon="-6.847898">
        <ele>439.6</ele>
        <time>2021-04-14T16:24:16.000Z</time>
      </trkpt>
      <trkpt lat="43.341747" lon="-6.847765">
        <ele>436.8</ele>
        <time>2021-04-14T16:24:19.000Z</time>
      </trkpt>
      <trkpt lat="43.341723" lon="-6.847623">
        <ele>435.7</ele>
        <time>2021-04-14T16:24:22.000Z</time>
      </trkpt>
      <trkpt lat="43.341702" lon="-6.847492">
        <ele>430.9</ele>
        <time>2021-04-14T16:24:26.000Z</time>
      </trkpt>
      <trkpt lat="43.341717" lon="-6.847345">
        <ele>429</ele>
        <time>2021-04-14T16:24:30.000Z</time>
      </trkpt>
      <trkpt lat="43.341725" lon="-6.847178">
        <ele>426.4</ele>
        <time>2021-04-14T16:24:33.000Z</time>
      </trkpt>
      <trkpt lat="43.341735" lon="-6.847023">
        <ele>426.9</ele>
        <time>2021-04-14T16:24:36.000Z</time>
      </trkpt>
      <trkpt lat="43.341733" lon="-6.84685">
        <ele>426.2</ele>
        <time>2021-04-14T16:24:39.000Z</time>
      </trkpt>
      <trkpt lat="43.34171" lon="-6.84668">
        <ele>426.1</ele>
        <time>2021-04-14T16:24:42.000Z</time>
      </trkpt>
      <trkpt lat="43.34165" lon="-6.846537">
        <ele>424.6</ele>
        <time>2021-04-14T16:24:45.000Z</time>
      </trkpt>
      <trkpt lat="43.34157" lon="-6.846433">
        <ele>425.7</ele>
        <time>2021-04-14T16:24:48.000Z</time>
      </trkpt>
      <trkpt lat="43.341477" lon="-6.846315">
        <ele>424.8</ele>
        <time>2021-04-14T16:24:51.000Z</time>
      </trkpt>
      <trkpt lat="43.341395" lon="-6.846208">
        <ele>423.7</ele>
        <time>2021-04-14T16:24:54.000Z</time>
      </trkpt>
      <trkpt lat="43.341313" lon="-6.846085">
        <ele>423.5</ele>
        <time>2021-04-14T16:24:57.000Z</time>
      </trkpt>
      <trkpt lat="43.341215" lon="-6.845968">
        <ele>423.1</ele>
        <time>2021-04-14T16:25:00.000Z</time>
      </trkpt>
      <trkpt lat="43.341105" lon="-6.84587">
        <ele>421.5</ele>
        <time>2021-04-14T16:25:03.000Z</time>
      </trkpt>
      <trkpt lat="43.341017" lon="-6.845805">
        <ele>419.2</ele>
        <time>2021-04-14T16:25:05.000Z</time>
      </trkpt>
      <trkpt lat="43.340917" lon="-6.845747">
        <ele>417.2</ele>
        <time>2021-04-14T16:25:07.000Z</time>
      </trkpt>
      <trkpt lat="43.340812" lon="-6.845705">
        <ele>415.3</ele>
        <time>2021-04-14T16:25:09.000Z</time>
      </trkpt>
      <trkpt lat="43.34071" lon="-6.845668">
        <ele>413.4</ele>
        <time>2021-04-14T16:25:11.000Z</time>
      </trkpt>
      <trkpt lat="43.340588" lon="-6.845635">
        <ele>411.8</ele>
        <time>2021-04-14T16:25:14.000Z</time>
      </trkpt>
      <trkpt lat="43.340485" lon="-6.845643">
        <ele>409.2</ele>
        <time>2021-04-14T16:25:18.000Z</time>
      </trkpt>
      <trkpt lat="43.340413" lon="-6.845758">
        <ele>405.6</ele>
        <time>2021-04-14T16:25:22.000Z</time>
      </trkpt>
      <trkpt lat="43.340413" lon="-6.845897">
        <ele>404.3</ele>
        <time>2021-04-14T16:25:26.000Z</time>
      </trkpt>
      <trkpt lat="43.340412" lon="-6.84605">
        <ele>400.7</ele>
        <time>2021-04-14T16:25:30.000Z</time>
      </trkpt>
      <trkpt lat="43.340417" lon="-6.846182">
        <ele>396.8</ele>
        <time>2021-04-14T16:25:34.000Z</time>
      </trkpt>
      <trkpt lat="43.340432" lon="-6.846328">
        <ele>394</ele>
        <time>2021-04-14T16:25:38.000Z</time>
      </trkpt>
      <trkpt lat="43.340445" lon="-6.846462">
        <ele>390.3</ele>
        <time>2021-04-14T16:25:42.000Z</time>
      </trkpt>
      <trkpt lat="43.340453" lon="-6.846617">
        <ele>387.7</ele>
        <time>2021-04-14T16:25:46.000Z</time>
      </trkpt>
      <trkpt lat="43.340463" lon="-6.846762">
        <ele>384.8</ele>
        <time>2021-04-14T16:25:50.000Z</time>
      </trkpt>
      <trkpt lat="43.340477" lon="-6.84691">
        <ele>384.5</ele>
        <time>2021-04-14T16:25:54.000Z</time>
      </trkpt>
      <trkpt lat="43.340502" lon="-6.847035">
        <ele>381.9</ele>
        <time>2021-04-14T16:25:58.000Z</time>
      </trkpt>
      <trkpt lat="43.340528" lon="-6.847167">
        <ele>379.6</ele>
        <time>2021-04-14T16:26:02.000Z</time>
      </trkpt>
      <trkpt lat="43.340543" lon="-6.847317">
        <ele>378.9</ele>
        <time>2021-04-14T16:26:06.000Z</time>
      </trkpt>
      <trkpt lat="43.34055" lon="-6.84746">
        <ele>376.8</ele>
        <time>2021-04-14T16:26:11.000Z</time>
      </trkpt>
      <trkpt lat="43.340535" lon="-6.847605">
        <ele>376.1</ele>
        <time>2021-04-14T16:26:15.000Z</time>
      </trkpt>
      <trkpt lat="43.340522" lon="-6.847748">
        <ele>376.9</ele>
        <time>2021-04-14T16:26:19.000Z</time>
      </trkpt>
      <trkpt lat="43.34049" lon="-6.847872">
        <ele>376.5</ele>
        <time>2021-04-14T16:26:24.000Z</time>
      </trkpt>
      <trkpt lat="43.340345" lon="-6.848028">
        <ele>396.6</ele>
        <time>2021-04-14T16:27:15.000Z</time>
      </trkpt>
      <trkpt lat="43.340375" lon="-6.848168">
        <ele>393.1</ele>
        <time>2021-04-14T16:28:15.000Z</time>
      </trkpt>
      <trkpt lat="43.340365" lon="-6.848302">
        <ele>380</ele>
        <time>2021-04-14T16:28:21.000Z</time>
      </trkpt>
      <trkpt lat="43.340332" lon="-6.848422">
        <ele>372.1</ele>
        <time>2021-04-14T16:28:25.000Z</time>
      </trkpt>
      <trkpt lat="43.34029" lon="-6.848535">
        <ele>367.8</ele>
        <time>2021-04-14T16:28:29.000Z</time>
      </trkpt>
      <trkpt lat="43.340248" lon="-6.848645">
        <ele>364.8</ele>
        <time>2021-04-14T16:28:33.000Z</time>
      </trkpt>
      <trkpt lat="43.340203" lon="-6.848762">
        <ele>360.8</ele>
        <time>2021-04-14T16:28:38.000Z</time>
      </trkpt>
      <trkpt lat="43.340168" lon="-6.848887">
        <ele>357.8</ele>
        <time>2021-04-14T16:28:42.000Z</time>
      </trkpt>
      <trkpt lat="43.340138" lon="-6.849008">
        <ele>353.9</ele>
        <time>2021-04-14T16:28:46.000Z</time>
      </trkpt>
      <trkpt lat="43.340122" lon="-6.84913">
        <ele>350.6</ele>
        <time>2021-04-14T16:28:50.000Z</time>
      </trkpt>
      <trkpt lat="43.340097" lon="-6.849273">
        <ele>347.4</ele>
        <time>2021-04-14T16:28:54.000Z</time>
      </trkpt>
      <trkpt lat="43.340077" lon="-6.849418">
        <ele>343.8</ele>
        <time>2021-04-14T16:28:58.000Z</time>
      </trkpt>
      <trkpt lat="43.340063" lon="-6.849545">
        <ele>340</ele>
        <time>2021-04-14T16:29:01.000Z</time>
      </trkpt>
      <trkpt lat="43.340053" lon="-6.849705">
        <ele>335.3</ele>
        <time>2021-04-14T16:29:05.000Z</time>
      </trkpt>
      <trkpt lat="43.340052" lon="-6.849855">
        <ele>334.5</ele>
        <time>2021-04-14T16:29:09.000Z</time>
      </trkpt>
      <trkpt lat="43.340067" lon="-6.850002">
        <ele>334.5</ele>
        <time>2021-04-14T16:29:13.000Z</time>
      </trkpt>
      <trkpt lat="43.3401" lon="-6.850155">
        <ele>335.4</ele>
        <time>2021-04-14T16:29:17.000Z</time>
      </trkpt>
      <trkpt lat="43.340137" lon="-6.85031">
        <ele>335.4</ele>
        <time>2021-04-14T16:29:21.000Z</time>
      </trkpt>
      <trkpt lat="43.340155" lon="-6.850437">
        <ele>334.4</ele>
        <time>2021-04-14T16:29:24.000Z</time>
      </trkpt>
      <trkpt lat="43.340125" lon="-6.850558">
        <ele>335.2</ele>
        <time>2021-04-14T16:29:28.000Z</time>
      </trkpt>
      <trkpt lat="43.340042" lon="-6.85064">
        <ele>335</ele>
        <time>2021-04-14T16:29:32.000Z</time>
      </trkpt>
      <trkpt lat="43.339937" lon="-6.850673">
        <ele>338.8</ele>
        <time>2021-04-14T16:29:36.000Z</time>
      </trkpt>
      <trkpt lat="43.33984" lon="-6.850687">
        <ele>344</ele>
        <time>2021-04-14T16:29:40.000Z</time>
      </trkpt>
      <trkpt lat="43.339745" lon="-6.8507">
        <ele>348.5</ele>
        <time>2021-04-14T16:29:43.000Z</time>
      </trkpt>
      <trkpt lat="43.339652" lon="-6.850738">
        <ele>350</ele>
        <time>2021-04-14T16:29:47.000Z</time>
      </trkpt>
      <trkpt lat="43.339567" lon="-6.850797">
        <ele>349.7</ele>
        <time>2021-04-14T16:29:51.000Z</time>
      </trkpt>
      <trkpt lat="43.339453" lon="-6.850835">
        <ele>350.6</ele>
        <time>2021-04-14T16:29:55.000Z</time>
      </trkpt>
      <trkpt lat="43.339338" lon="-6.850853">
        <ele>350</ele>
        <time>2021-04-14T16:29:59.000Z</time>
      </trkpt>
      <trkpt lat="43.339233" lon="-6.850868">
        <ele>346.5</ele>
        <time>2021-04-14T16:30:03.000Z</time>
      </trkpt>
      <trkpt lat="43.33912" lon="-6.850898">
        <ele>339.9</ele>
        <time>2021-04-14T16:30:07.000Z</time>
      </trkpt>
      <trkpt lat="43.33902" lon="-6.850948">
        <ele>336.9</ele>
        <time>2021-04-14T16:30:11.000Z</time>
      </trkpt>
      <trkpt lat="43.338922" lon="-6.850993">
        <ele>329</ele>
        <time>2021-04-14T16:30:16.000Z</time>
      </trkpt>
      <trkpt lat="43.338817" lon="-6.85105">
        <ele>321.8</ele>
        <time>2021-04-14T16:30:21.000Z</time>
      </trkpt>
      <trkpt lat="43.338718" lon="-6.851083">
        <ele>317.7</ele>
        <time>2021-04-14T16:30:26.000Z</time>
      </trkpt>
      <trkpt lat="43.33863" lon="-6.851108">
        <ele>317.7</ele>
        <time>2021-04-14T16:30:29.000Z</time>
      </trkpt>
      <trkpt lat="43.338537" lon="-6.851177">
        <ele>317.6</ele>
        <time>2021-04-14T16:30:33.000Z</time>
      </trkpt>
      <trkpt lat="43.338452" lon="-6.851255">
        <ele>315.7</ele>
        <time>2021-04-14T16:30:37.000Z</time>
      </trkpt>
      <trkpt lat="43.338363" lon="-6.851335">
        <ele>312.9</ele>
        <time>2021-04-14T16:30:41.000Z</time>
      </trkpt>
      <trkpt lat="43.33827" lon="-6.851418">
        <ele>309.3</ele>
        <time>2021-04-14T16:30:45.000Z</time>
      </trkpt>
      <trkpt lat="43.338178" lon="-6.851473">
        <ele>307.5</ele>
        <time>2021-04-14T16:30:49.000Z</time>
      </trkpt>
      <trkpt lat="43.338078" lon="-6.851535">
        <ele>304</ele>
        <time>2021-04-14T16:30:53.000Z</time>
      </trkpt>
      <trkpt lat="43.337985" lon="-6.851617">
        <ele>300</ele>
        <time>2021-04-14T16:30:57.000Z</time>
      </trkpt>
      <trkpt lat="43.337892" lon="-6.851697">
        <ele>296</ele>
        <time>2021-04-14T16:31:01.000Z</time>
      </trkpt>
      <trkpt lat="43.337795" lon="-6.851767">
        <ele>292.4</ele>
        <time>2021-04-14T16:31:05.000Z</time>
      </trkpt>
      <trkpt lat="43.337688" lon="-6.851818">
        <ele>291.3</ele>
        <time>2021-04-14T16:31:09.000Z</time>
      </trkpt>
      <trkpt lat="43.337545" lon="-6.851838">
        <ele>302.2</ele>
        <time>2021-04-14T16:33:00.000Z</time>
      </trkpt>
      <trkpt lat="43.337465" lon="-6.851928">
        <ele>296.1</ele>
        <time>2021-04-14T16:33:25.000Z</time>
      </trkpt>
      <trkpt lat="43.337373" lon="-6.852015">
        <ele>293.1</ele>
        <time>2021-04-14T16:33:29.000Z</time>
      </trkpt>
      <trkpt lat="43.3373" lon="-6.852108">
        <ele>288.1</ele>
        <time>2021-04-14T16:33:33.000Z</time>
      </trkpt>
      <trkpt lat="43.33721" lon="-6.852203">
        <ele>281.6</ele>
        <time>2021-04-14T16:33:38.000Z</time>
      </trkpt>
      <trkpt lat="43.33713" lon="-6.852267">
        <ele>277.9</ele>
        <time>2021-04-14T16:33:42.000Z</time>
      </trkpt>
      <trkpt lat="43.337042" lon="-6.852357">
        <ele>275.5</ele>
        <time>2021-04-14T16:33:46.000Z</time>
      </trkpt>
      <trkpt lat="43.336948" lon="-6.852453">
        <ele>274.6</ele>
        <time>2021-04-14T16:33:50.000Z</time>
      </trkpt>
      <trkpt lat="43.336867" lon="-6.852545">
        <ele>271.6</ele>
        <time>2021-04-14T16:33:54.000Z</time>
      </trkpt>
      <trkpt lat="43.33679" lon="-6.852648">
        <ele>268.9</ele>
        <time>2021-04-14T16:33:58.000Z</time>
      </trkpt>
      <trkpt lat="43.336722" lon="-6.852752">
        <ele>266.9</ele>
        <time>2021-04-14T16:34:02.000Z</time>
      </trkpt>
      <trkpt lat="43.336655" lon="-6.852855">
        <ele>264.1</ele>
        <time>2021-04-14T16:34:06.000Z</time>
      </trkpt>
      <trkpt lat="43.336617" lon="-6.85298">
        <ele>261.1</ele>
        <time>2021-04-14T16:34:10.000Z</time>
      </trkpt>
      <trkpt lat="43.33658" lon="-6.853132">
        <ele>259.3</ele>
        <time>2021-04-14T16:34:14.000Z</time>
      </trkpt>
      <trkpt lat="43.336568" lon="-6.8533">
        <ele>258.4</ele>
        <time>2021-04-14T16:34:17.000Z</time>
      </trkpt>
      <trkpt lat="43.336563" lon="-6.853458">
        <ele>257.8</ele>
        <time>2021-04-14T16:34:20.000Z</time>
      </trkpt>
      <trkpt lat="43.336553" lon="-6.853607">
        <ele>258.6</ele>
        <time>2021-04-14T16:34:23.000Z</time>
      </trkpt>
      <trkpt lat="43.33654" lon="-6.853758">
        <ele>259.6</ele>
        <time>2021-04-14T16:34:26.000Z</time>
      </trkpt>
      <trkpt lat="43.33653" lon="-6.853907">
        <ele>259.9</ele>
        <time>2021-04-14T16:34:29.000Z</time>
      </trkpt>
      <trkpt lat="43.336538" lon="-6.854082">
        <ele>258.2</ele>
        <time>2021-04-14T16:34:32.000Z</time>
      </trkpt>
      <trkpt lat="43.336565" lon="-6.854258">
        <ele>255.1</ele>
        <time>2021-04-14T16:34:35.000Z</time>
      </trkpt>
      <trkpt lat="43.336592" lon="-6.854415">
        <ele>251.8</ele>
        <time>2021-04-14T16:34:38.000Z</time>
      </trkpt>
      <trkpt lat="43.3366" lon="-6.854557">
        <ele>249.8</ele>
        <time>2021-04-14T16:34:42.000Z</time>
      </trkpt>
      <trkpt lat="43.336493" lon="-6.854625">
        <ele>250.7</ele>
        <time>2021-04-14T16:34:47.000Z</time>
      </trkpt>
      <trkpt lat="43.336388" lon="-6.854662">
        <ele>252.2</ele>
        <time>2021-04-14T16:34:50.000Z</time>
      </trkpt>
      <trkpt lat="43.336263" lon="-6.854702">
        <ele>253.9</ele>
        <time>2021-04-14T16:34:53.000Z</time>
      </trkpt>
      <trkpt lat="43.336173" lon="-6.854707">
        <ele>260.3</ele>
        <time>2021-04-14T16:34:55.000Z</time>
      </trkpt>
      <trkpt lat="43.336055" lon="-6.854727">
        <ele>265.3</ele>
        <time>2021-04-14T16:34:58.000Z</time>
      </trkpt>
      <trkpt lat="43.335942" lon="-6.854728">
        <ele>269.9</ele>
        <time>2021-04-14T16:35:01.000Z</time>
      </trkpt>
      <trkpt lat="43.335852" lon="-6.854733">
        <ele>270.6</ele>
        <time>2021-04-14T16:35:03.000Z</time>
      </trkpt>
      <trkpt lat="43.335753" lon="-6.854698">
        <ele>270.6</ele>
        <time>2021-04-14T16:35:06.000Z</time>
      </trkpt>
      <trkpt lat="43.335653" lon="-6.854675">
        <ele>265</ele>
        <time>2021-04-14T16:35:10.000Z</time>
      </trkpt>
      <trkpt lat="43.335558" lon="-6.854673">
        <ele>258.3</ele>
        <time>2021-04-14T16:35:14.000Z</time>
      </trkpt>
      <trkpt lat="43.335467" lon="-6.854643">
        <ele>256.9</ele>
        <time>2021-04-14T16:35:18.000Z</time>
      </trkpt>
      <trkpt lat="43.335352" lon="-6.854632">
        <ele>253.4</ele>
        <time>2021-04-14T16:35:23.000Z</time>
      </trkpt>
      <trkpt lat="43.335262" lon="-6.854612">
        <ele>251</ele>
        <time>2021-04-14T16:35:27.000Z</time>
      </trkpt>
      <trkpt lat="43.335153" lon="-6.854583">
        <ele>248</ele>
        <time>2021-04-14T16:35:32.000Z</time>
      </trkpt>
      <trkpt lat="43.33504" lon="-6.85454">
        <ele>244</ele>
        <time>2021-04-14T16:35:36.000Z</time>
      </trkpt>
      <trkpt lat="43.334948" lon="-6.854513">
        <ele>240.8</ele>
        <time>2021-04-14T16:35:40.000Z</time>
      </trkpt>
      <trkpt lat="43.33485" lon="-6.854492">
        <ele>236.4</ele>
        <time>2021-04-14T16:35:44.000Z</time>
      </trkpt>
      <trkpt lat="43.334735" lon="-6.854487">
        <ele>233.1</ele>
        <time>2021-04-14T16:36:15.000Z</time>
      </trkpt>
      <trkpt lat="43.334648" lon="-6.854442">
        <ele>233</ele>
        <time>2021-04-14T16:36:18.000Z</time>
      </trkpt>
      <trkpt lat="43.334563" lon="-6.854373">
        <ele>233.2</ele>
        <time>2021-04-14T16:36:21.000Z</time>
      </trkpt>
      <trkpt lat="43.334478" lon="-6.854307">
        <ele>232.4</ele>
        <time>2021-04-14T16:36:24.000Z</time>
      </trkpt>
      <trkpt lat="43.334398" lon="-6.854245">
        <ele>231.5</ele>
        <time>2021-04-14T16:36:27.000Z</time>
      </trkpt>
      <trkpt lat="43.334298" lon="-6.85418">
        <ele>230.3</ele>
        <time>2021-04-14T16:36:31.000Z</time>
      </trkpt>
      <trkpt lat="43.334207" lon="-6.854178">
        <ele>227</ele>
        <time>2021-04-14T16:36:35.000Z</time>
      </trkpt>
      <trkpt lat="43.334097" lon="-6.854175">
        <ele>221.1</ele>
        <time>2021-04-14T16:36:39.000Z</time>
      </trkpt>
      <trkpt lat="43.333993" lon="-6.854155">
        <ele>218.5</ele>
        <time>2021-04-14T16:36:43.000Z</time>
      </trkpt>
      <trkpt lat="43.333892" lon="-6.854158">
        <ele>216.8</ele>
        <time>2021-04-14T16:36:47.000Z</time>
      </trkpt>
      <trkpt lat="43.333782" lon="-6.854158">
        <ele>220.4</ele>
        <time>2021-04-14T16:36:51.000Z</time>
      </trkpt>
      <trkpt lat="43.333688" lon="-6.85424">
        <ele>218.4</ele>
        <time>2021-04-14T16:36:55.000Z</time>
      </trkpt>
      <trkpt lat="43.333618" lon="-6.854353">
        <ele>217.7</ele>
        <time>2021-04-14T16:36:59.000Z</time>
      </trkpt>
      <trkpt lat="43.333575" lon="-6.854473">
        <ele>216.1</ele>
        <time>2021-04-14T16:37:03.000Z</time>
      </trkpt>
      <trkpt lat="43.333572" lon="-6.854608">
        <ele>209.8</ele>
        <time>2021-04-14T16:37:07.000Z</time>
      </trkpt>
      <trkpt lat="43.33354" lon="-6.854757">
        <ele>207.4</ele>
        <time>2021-04-14T16:37:12.000Z</time>
      </trkpt>
      <trkpt lat="43.333533" lon="-6.854892">
        <ele>204.2</ele>
        <time>2021-04-14T16:37:17.000Z</time>
      </trkpt>
      <trkpt lat="43.333527" lon="-6.855042">
        <ele>201.1</ele>
        <time>2021-04-14T16:37:22.000Z</time>
      </trkpt>
      <trkpt lat="43.333523" lon="-6.855173">
        <ele>197.8</ele>
        <time>2021-04-14T16:37:27.000Z</time>
      </trkpt>
      <trkpt lat="43.33355" lon="-6.855297">
        <ele>194.3</ele>
        <time>2021-04-14T16:37:31.000Z</time>
      </trkpt>
      <trkpt lat="43.333595" lon="-6.855432">
        <ele>194.3</ele>
        <time>2021-04-14T16:37:35.000Z</time>
      </trkpt>
      <trkpt lat="43.333623" lon="-6.855565">
        <ele>189.4</ele>
        <time>2021-04-14T16:37:40.000Z</time>
      </trkpt>
      <trkpt lat="43.333548" lon="-6.855697">
        <ele>188.3</ele>
        <time>2021-04-14T16:37:44.000Z</time>
      </trkpt>
      <trkpt lat="43.33347" lon="-6.85577">
        <ele>189.7</ele>
        <time>2021-04-14T16:37:46.000Z</time>
      </trkpt>
      <trkpt lat="43.333352" lon="-6.855857">
        <ele>194.2</ele>
        <time>2021-04-14T16:37:49.000Z</time>
      </trkpt>
      <trkpt lat="43.333245" lon="-6.855905">
        <ele>196.4</ele>
        <time>2021-04-14T16:37:52.000Z</time>
      </trkpt>
      <trkpt lat="43.33311" lon="-6.855937">
        <ele>199.9</ele>
        <time>2021-04-14T16:37:55.000Z</time>
      </trkpt>
      <trkpt lat="43.333018" lon="-6.855947">
        <ele>203.2</ele>
        <time>2021-04-14T16:37:57.000Z</time>
      </trkpt>
      <trkpt lat="43.332883" lon="-6.855952">
        <ele>207.5</ele>
        <time>2021-04-14T16:38:00.000Z</time>
      </trkpt>
      <trkpt lat="43.332785" lon="-6.855938">
        <ele>210.5</ele>
        <time>2021-04-14T16:38:02.000Z</time>
      </trkpt>
      <trkpt lat="43.332687" lon="-6.855912">
        <ele>211.6</ele>
        <time>2021-04-14T16:38:04.000Z</time>
      </trkpt>
      <trkpt lat="43.332587" lon="-6.855877">
        <ele>213.9</ele>
        <time>2021-04-14T16:38:06.000Z</time>
      </trkpt>
      <trkpt lat="43.33249" lon="-6.855837">
        <ele>215</ele>
        <time>2021-04-14T16:38:08.000Z</time>
      </trkpt>
      <trkpt lat="43.3324" lon="-6.855778">
        <ele>215.1</ele>
        <time>2021-04-14T16:38:10.000Z</time>
      </trkpt>
      <trkpt lat="43.332315" lon="-6.85571">
        <ele>215.5</ele>
        <time>2021-04-14T16:38:12.000Z</time>
      </trkpt>
      <trkpt lat="43.332202" lon="-6.85562">
        <ele>216</ele>
        <time>2021-04-14T16:38:15.000Z</time>
      </trkpt>
      <trkpt lat="43.332095" lon="-6.855508">
        <ele>214.8</ele>
        <time>2021-04-14T16:38:18.000Z</time>
      </trkpt>
      <trkpt lat="43.331985" lon="-6.855418">
        <ele>213.1</ele>
        <time>2021-04-14T16:38:21.000Z</time>
      </trkpt>
      <trkpt lat="43.331895" lon="-6.855343">
        <ele>212.2</ele>
        <time>2021-04-14T16:38:24.000Z</time>
      </trkpt>
      <trkpt lat="43.331788" lon="-6.85527">
        <ele>210.1</ele>
        <time>2021-04-14T16:38:27.000Z</time>
      </trkpt>
      <trkpt lat="43.33168" lon="-6.855272">
        <ele>207.6</ele>
        <time>2021-04-14T16:38:30.000Z</time>
      </trkpt>
      <trkpt lat="43.331645" lon="-6.855433">
        <ele>206.7</ele>
        <time>2021-04-14T16:38:33.000Z</time>
      </trkpt>
      <trkpt lat="43.331643" lon="-6.855615">
        <ele>207.5</ele>
        <time>2021-04-14T16:38:36.000Z</time>
      </trkpt>
      <trkpt lat="43.331652" lon="-6.855745">
        <ele>208.5</ele>
        <time>2021-04-14T16:38:39.000Z</time>
      </trkpt>
      <trkpt lat="43.331657" lon="-6.855868">
        <ele>208.2</ele>
        <time>2021-04-14T16:38:42.000Z</time>
      </trkpt>
      <trkpt lat="43.331658" lon="-6.856012">
        <ele>205.9</ele>
        <time>2021-04-14T16:38:46.000Z</time>
      </trkpt>
      <trkpt lat="43.331632" lon="-6.856145">
        <ele>201.3</ele>
        <time>2021-04-14T16:38:49.000Z</time>
      </trkpt>
      <trkpt lat="43.331598" lon="-6.856268">
        <ele>197.8</ele>
        <time>2021-04-14T16:38:52.000Z</time>
      </trkpt>
      <trkpt lat="43.33153" lon="-6.856388">
        <ele>192.7</ele>
        <time>2021-04-14T16:38:55.000Z</time>
      </trkpt>
      <trkpt lat="43.331475" lon="-6.856492">
        <ele>189.7</ele>
        <time>2021-04-14T16:38:57.000Z</time>
      </trkpt>
      <trkpt lat="43.331403" lon="-6.856612">
        <ele>186.1</ele>
        <time>2021-04-14T16:39:00.000Z</time>
      </trkpt>
      <trkpt lat="43.331365" lon="-6.856747">
        <ele>182.8</ele>
        <time>2021-04-14T16:39:04.000Z</time>
      </trkpt>
      <trkpt lat="43.331303" lon="-6.856863">
        <ele>182.2</ele>
        <time>2021-04-14T16:39:08.000Z</time>
      </trkpt>
      <trkpt lat="43.331218" lon="-6.856942">
        <ele>185.6</ele>
        <time>2021-04-14T16:39:12.000Z</time>
      </trkpt>
      <trkpt lat="43.331118" lon="-6.856907">
        <ele>185.3</ele>
        <time>2021-04-14T16:39:19.000Z</time>
      </trkpt>
      <trkpt lat="43.331067" lon="-6.856772">
        <ele>186.4</ele>
        <time>2021-04-14T16:39:23.000Z</time>
      </trkpt>
      <trkpt lat="43.33101" lon="-6.856662">
        <ele>186.2</ele>
        <time>2021-04-14T16:39:27.000Z</time>
      </trkpt>
      <trkpt lat="43.330945" lon="-6.856562">
        <ele>183.1</ele>
        <time>2021-04-14T16:39:31.000Z</time>
      </trkpt>
      <trkpt lat="43.33091" lon="-6.856418">
        <ele>184.6</ele>
        <time>2021-04-14T16:39:35.000Z</time>
      </trkpt>
      <trkpt lat="43.330827" lon="-6.856362">
        <ele>188.1</ele>
        <time>2021-04-14T16:39:38.000Z</time>
      </trkpt>
      <trkpt lat="43.330713" lon="-6.85633">
        <ele>191.1</ele>
        <time>2021-04-14T16:39:41.000Z</time>
      </trkpt>
      <trkpt lat="43.33061" lon="-6.856313">
        <ele>190.2</ele>
        <time>2021-04-14T16:39:44.000Z</time>
      </trkpt>
      <trkpt lat="43.330512" lon="-6.856305">
        <ele>188.5</ele>
        <time>2021-04-14T16:39:48.000Z</time>
      </trkpt>
      <trkpt lat="43.330407" lon="-6.856308">
        <ele>188.1</ele>
        <time>2021-04-14T16:39:52.000Z</time>
      </trkpt>
      <trkpt lat="43.330312" lon="-6.856308">
        <ele>184.4</ele>
        <time>2021-04-14T16:39:55.000Z</time>
      </trkpt>
      <trkpt lat="43.330208" lon="-6.8563">
        <ele>180.9</ele>
        <time>2021-04-14T16:39:58.000Z</time>
      </trkpt>
      <trkpt lat="43.3301" lon="-6.85629">
        <ele>179.5</ele>
        <time>2021-04-14T16:40:01.000Z</time>
      </trkpt>
      <trkpt lat="43.329977" lon="-6.856285">
        <ele>176.9</ele>
        <time>2021-04-14T16:40:04.000Z</time>
      </trkpt>
      <trkpt lat="43.329858" lon="-6.856267">
        <ele>175.1</ele>
        <time>2021-04-14T16:40:07.000Z</time>
      </trkpt>
      <trkpt lat="43.329752" lon="-6.85621">
        <ele>176.6</ele>
        <time>2021-04-14T16:40:10.000Z</time>
      </trkpt>
      <trkpt lat="43.329667" lon="-6.856128">
        <ele>178.3</ele>
        <time>2021-04-14T16:40:13.000Z</time>
      </trkpt>
      <trkpt lat="43.329542" lon="-6.856055">
        <ele>178.4</ele>
        <time>2021-04-14T16:40:16.000Z</time>
      </trkpt>
      <trkpt lat="43.329438" lon="-6.855995">
        <ele>178</ele>
        <time>2021-04-14T16:40:18.000Z</time>
      </trkpt>
      <trkpt lat="43.329347" lon="-6.855952">
        <ele>177.8</ele>
        <time>2021-04-14T16:40:20.000Z</time>
      </trkpt>
      <trkpt lat="43.32923" lon="-6.855933">
        <ele>175.6</ele>
        <time>2021-04-14T16:40:23.000Z</time>
      </trkpt>
      <trkpt lat="43.329123" lon="-6.855948">
        <ele>171.8</ele>
        <time>2021-04-14T16:40:26.000Z</time>
      </trkpt>
      <trkpt lat="43.329003" lon="-6.855988">
        <ele>168.8</ele>
        <time>2021-04-14T16:40:29.000Z</time>
      </trkpt>
      <trkpt lat="43.328897" lon="-6.856063">
        <ele>165.5</ele>
        <time>2021-04-14T16:40:32.000Z</time>
      </trkpt>
      <trkpt lat="43.328818" lon="-6.856138">
        <ele>162.5</ele>
        <time>2021-04-14T16:40:34.000Z</time>
      </trkpt>
      <trkpt lat="43.328742" lon="-6.856245">
        <ele>159.9</ele>
        <time>2021-04-14T16:40:36.000Z</time>
      </trkpt>
      <trkpt lat="43.328673" lon="-6.856382">
        <ele>157.3</ele>
        <time>2021-04-14T16:40:38.000Z</time>
      </trkpt>
      <trkpt lat="43.328618" lon="-6.856568">
        <ele>156.1</ele>
        <time>2021-04-14T16:40:40.000Z</time>
      </trkpt>
      <trkpt lat="43.328595" lon="-6.856765">
        <ele>154</ele>
        <time>2021-04-14T16:40:42.000Z</time>
      </trkpt>
      <trkpt lat="43.328607" lon="-6.856977">
        <ele>151.9</ele>
        <time>2021-04-14T16:40:44.000Z</time>
      </trkpt>
      <trkpt lat="43.32862" lon="-6.857168">
        <ele>149.2</ele>
        <time>2021-04-14T16:40:46.000Z</time>
      </trkpt>
      <trkpt lat="43.328615" lon="-6.85736">
        <ele>147.4</ele>
        <time>2021-04-14T16:40:48.000Z</time>
      </trkpt>
      <trkpt lat="43.328613" lon="-6.857508">
        <ele>144.8</ele>
        <time>2021-04-14T16:40:50.000Z</time>
      </trkpt>
      <trkpt lat="43.328612" lon="-6.857642">
        <ele>143.3</ele>
        <time>2021-04-14T16:40:52.000Z</time>
      </trkpt>
      <trkpt lat="43.328587" lon="-6.85779">
        <ele>142.2</ele>
        <time>2021-04-14T16:40:55.000Z</time>
      </trkpt>
      <trkpt lat="43.328558" lon="-6.85794">
        <ele>141</ele>
        <time>2021-04-14T16:40:58.000Z</time>
      </trkpt>
      <trkpt lat="43.328532" lon="-6.858068">
        <ele>139.6</ele>
        <time>2021-04-14T16:41:01.000Z</time>
      </trkpt>
      <trkpt lat="43.328492" lon="-6.858208">
        <ele>139.7</ele>
        <time>2021-04-14T16:41:04.000Z</time>
      </trkpt>
      <trkpt lat="43.328473" lon="-6.858358">
        <ele>139.2</ele>
        <time>2021-04-14T16:41:07.000Z</time>
      </trkpt>
      <trkpt lat="43.328412" lon="-6.858497">
        <ele>138</ele>
        <time>2021-04-14T16:41:11.000Z</time>
      </trkpt>
      <trkpt lat="43.328318" lon="-6.858592">
        <ele>139.6</ele>
        <time>2021-04-14T16:41:15.000Z</time>
      </trkpt>
      <trkpt lat="43.328225" lon="-6.858642">
        <ele>141.1</ele>
        <time>2021-04-14T16:41:18.000Z</time>
      </trkpt>
      <trkpt lat="43.328118" lon="-6.858692">
        <ele>142.8</ele>
        <time>2021-04-14T16:41:22.000Z</time>
      </trkpt>
      <trkpt lat="43.328022" lon="-6.858732">
        <ele>142.3</ele>
        <time>2021-04-14T16:41:26.000Z</time>
      </trkpt>
      <trkpt lat="43.32791" lon="-6.858843">
        <ele>143.3</ele>
        <time>2021-04-14T16:42:48.000Z</time>
      </trkpt>
      <trkpt lat="43.327857" lon="-6.858947">
        <ele>143.7</ele>
        <time>2021-04-14T16:43:32.000Z</time>
      </trkpt>
      <trkpt lat="43.327762" lon="-6.858915">
        <ele>143.6</ele>
        <time>2021-04-14T16:43:49.000Z</time>
      </trkpt>
      <trkpt lat="43.32775" lon="-6.858792">
        <ele>145</ele>
        <time>2021-04-14T16:44:01.000Z</time>
      </trkpt>
      <trkpt lat="43.327695" lon="-6.85868">
        <ele>147.3</ele>
        <time>2021-04-14T16:44:10.000Z</time>
      </trkpt>
      <trkpt lat="43.327577" lon="-6.858532">
        <ele>150.6</ele>
        <time>2021-04-14T16:44:27.000Z</time>
      </trkpt>
      <trkpt lat="43.327597" lon="-6.85866">
        <ele>149.4</ele>
        <time>2021-04-14T17:06:07.000Z</time>
      </trkpt>
      <trkpt lat="43.327607" lon="-6.858793">
        <ele>148.5</ele>
        <time>2021-04-14T17:06:20.000Z</time>
      </trkpt>
      <trkpt lat="43.327685" lon="-6.85888">
        <ele>146.2</ele>
        <time>2021-04-14T17:06:34.000Z</time>
      </trkpt>
      <trkpt lat="43.327797" lon="-6.858888">
        <ele>146.7</ele>
        <time>2021-04-14T17:06:51.000Z</time>
      </trkpt>
      <trkpt lat="43.327907" lon="-6.858858">
        <ele>147.3</ele>
        <time>2021-04-14T17:07:02.000Z</time>
      </trkpt>
      <trkpt lat="43.328003" lon="-6.858803">
        <ele>148.6</ele>
        <time>2021-04-14T17:08:50.000Z</time>
      </trkpt>
      <trkpt lat="43.328097" lon="-6.858763">
        <ele>148</ele>
        <time>2021-04-14T17:08:55.000Z</time>
      </trkpt>
      <trkpt lat="43.328195" lon="-6.858718">
        <ele>147.3</ele>
        <time>2021-04-14T17:09:01.000Z</time>
      </trkpt>
      <trkpt lat="43.328297" lon="-6.858667">
        <ele>144.5</ele>
        <time>2021-04-14T17:09:06.000Z</time>
      </trkpt>
      <trkpt lat="43.328397" lon="-6.858593">
        <ele>141.9</ele>
        <time>2021-04-14T17:09:11.000Z</time>
      </trkpt>
      <trkpt lat="43.328468" lon="-6.858475">
        <ele>142.6</ele>
        <time>2021-04-14T17:09:16.000Z</time>
      </trkpt>
      <trkpt lat="43.328495" lon="-6.858353">
        <ele>145</ele>
        <time>2021-04-14T17:09:20.000Z</time>
      </trkpt>
      <trkpt lat="43.328503" lon="-6.858217">
        <ele>147.8</ele>
        <time>2021-04-14T17:09:24.000Z</time>
      </trkpt>
      <trkpt lat="43.328547" lon="-6.858083">
        <ele>148.3</ele>
        <time>2021-04-14T17:09:29.000Z</time>
      </trkpt>
      <trkpt lat="43.328557" lon="-6.857958">
        <ele>152.8</ele>
        <time>2021-04-14T17:09:33.000Z</time>
      </trkpt>
      <trkpt lat="43.32856" lon="-6.857797">
        <ele>158.8</ele>
        <time>2021-04-14T17:09:37.000Z</time>
      </trkpt>
      <trkpt lat="43.328573" lon="-6.857645">
        <ele>161</ele>
        <time>2021-04-14T17:09:41.000Z</time>
      </trkpt>
      <trkpt lat="43.328578" lon="-6.857507">
        <ele>162.9</ele>
        <time>2021-04-14T17:09:44.000Z</time>
      </trkpt>
      <trkpt lat="43.328593" lon="-6.857367">
        <ele>163.2</ele>
        <time>2021-04-14T17:09:47.000Z</time>
      </trkpt>
      <trkpt lat="43.328598" lon="-6.85723">
        <ele>165.7</ele>
        <time>2021-04-14T17:09:50.000Z</time>
      </trkpt>
      <trkpt lat="43.328607" lon="-6.857107">
        <ele>164.4</ele>
        <time>2021-04-14T17:09:53.000Z</time>
      </trkpt>
      <trkpt lat="43.32862" lon="-6.856977">
        <ele>160.7</ele>
        <time>2021-04-14T17:09:56.000Z</time>
      </trkpt>
      <trkpt lat="43.328627" lon="-6.856842">
        <ele>158.5</ele>
        <time>2021-04-14T17:09:59.000Z</time>
      </trkpt>
      <trkpt lat="43.328623" lon="-6.856705">
        <ele>162.1</ele>
        <time>2021-04-14T17:10:02.000Z</time>
      </trkpt>
      <trkpt lat="43.328652" lon="-6.856575">
        <ele>162.4</ele>
        <time>2021-04-14T17:10:05.000Z</time>
      </trkpt>
      <trkpt lat="43.328698" lon="-6.856433">
        <ele>165.1</ele>
        <time>2021-04-14T17:10:09.000Z</time>
      </trkpt>
      <trkpt lat="43.328757" lon="-6.856315">
        <ele>167.7</ele>
        <time>2021-04-14T17:10:13.000Z</time>
      </trkpt>
      <trkpt lat="43.328835" lon="-6.856208">
        <ele>169.9</ele>
        <time>2021-04-14T17:10:17.000Z</time>
      </trkpt>
      <trkpt lat="43.328908" lon="-6.85613">
        <ele>170.9</ele>
        <time>2021-04-14T17:10:20.000Z</time>
      </trkpt>
      <trkpt lat="43.328997" lon="-6.856065">
        <ele>172.5</ele>
        <time>2021-04-14T17:10:23.000Z</time>
      </trkpt>
      <trkpt lat="43.329082" lon="-6.856017">
        <ele>176.7</ele>
        <time>2021-04-14T17:10:27.000Z</time>
      </trkpt>
      <trkpt lat="43.329182" lon="-6.855982">
        <ele>177.7</ele>
        <time>2021-04-14T17:10:31.000Z</time>
      </trkpt>
      <trkpt lat="43.329273" lon="-6.855995">
        <ele>179.6</ele>
        <time>2021-04-14T17:10:35.000Z</time>
      </trkpt>
      <trkpt lat="43.329377" lon="-6.856047">
        <ele>180.8</ele>
        <time>2021-04-14T17:10:39.000Z</time>
      </trkpt>
      <trkpt lat="43.329465" lon="-6.856095">
        <ele>181.3</ele>
        <time>2021-04-14T17:10:42.000Z</time>
      </trkpt>
      <trkpt lat="43.329568" lon="-6.856157">
        <ele>185.8</ele>
        <time>2021-04-14T17:10:46.000Z</time>
      </trkpt>
      <trkpt lat="43.329652" lon="-6.856212">
        <ele>189.6</ele>
        <time>2021-04-14T17:10:50.000Z</time>
      </trkpt>
      <trkpt lat="43.329758" lon="-6.856233">
        <ele>193.8</ele>
        <time>2021-04-14T17:10:54.000Z</time>
      </trkpt>
      <trkpt lat="43.329873" lon="-6.856238">
        <ele>197.6</ele>
        <time>2021-04-14T17:10:57.000Z</time>
      </trkpt>
      <trkpt lat="43.329972" lon="-6.856245">
        <ele>198</ele>
        <time>2021-04-14T17:11:00.000Z</time>
      </trkpt>
      <trkpt lat="43.33009" lon="-6.856258">
        <ele>198.3</ele>
        <time>2021-04-14T17:11:04.000Z</time>
      </trkpt>
      <trkpt lat="43.330182" lon="-6.856268">
        <ele>199.2</ele>
        <time>2021-04-14T17:11:07.000Z</time>
      </trkpt>
      <trkpt lat="43.330282" lon="-6.856267">
        <ele>200.1</ele>
        <time>2021-04-14T17:11:10.000Z</time>
      </trkpt>
      <trkpt lat="43.330387" lon="-6.856277">
        <ele>199.1</ele>
        <time>2021-04-14T17:11:13.000Z</time>
      </trkpt>
      <trkpt lat="43.330497" lon="-6.856283">
        <ele>197.1</ele>
        <time>2021-04-14T17:11:16.000Z</time>
      </trkpt>
      <trkpt lat="43.330603" lon="-6.856282">
        <ele>196.4</ele>
        <time>2021-04-14T17:11:19.000Z</time>
      </trkpt>
      <trkpt lat="43.33072" lon="-6.856312">
        <ele>196.2</ele>
        <time>2021-04-14T17:11:23.000Z</time>
      </trkpt>
      <trkpt lat="43.330802" lon="-6.856367">
        <ele>194.7</ele>
        <time>2021-04-14T17:11:27.000Z</time>
      </trkpt>
      <trkpt lat="43.330868" lon="-6.856453">
        <ele>192.8</ele>
        <time>2021-04-14T17:11:33.000Z</time>
      </trkpt>
      <trkpt lat="43.330892" lon="-6.856577">
        <ele>192.5</ele>
        <time>2021-04-14T17:11:37.000Z</time>
      </trkpt>
      <trkpt lat="43.330943" lon="-6.856687">
        <ele>191.1</ele>
        <time>2021-04-14T17:11:41.000Z</time>
      </trkpt>
      <trkpt lat="43.330985" lon="-6.8568">
        <ele>189.9</ele>
        <time>2021-04-14T17:11:46.000Z</time>
      </trkpt>
      <trkpt lat="43.331033" lon="-6.856923">
        <ele>189.4</ele>
        <time>2021-04-14T17:11:50.000Z</time>
      </trkpt>
      <trkpt lat="43.331097" lon="-6.857047">
        <ele>188.4</ele>
        <time>2021-04-14T17:11:54.000Z</time>
      </trkpt>
      <trkpt lat="43.331203" lon="-6.857055">
        <ele>188.5</ele>
        <time>2021-04-14T17:11:59.000Z</time>
      </trkpt>
      <trkpt lat="43.33127" lon="-6.856967">
        <ele>189.2</ele>
        <time>2021-04-14T17:12:04.000Z</time>
      </trkpt>
      <trkpt lat="43.33129" lon="-6.856825">
        <ele>190.5</ele>
        <time>2021-04-14T17:12:09.000Z</time>
      </trkpt>
      <trkpt lat="43.33135" lon="-6.856718">
        <ele>190.1</ele>
        <time>2021-04-14T17:12:13.000Z</time>
      </trkpt>
      <trkpt lat="43.331418" lon="-6.85663">
        <ele>191</ele>
        <time>2021-04-14T17:12:17.000Z</time>
      </trkpt>
      <trkpt lat="43.331432" lon="-6.856502">
        <ele>206.6</ele>
        <time>2021-04-14T17:12:21.000Z</time>
      </trkpt>
      <trkpt lat="43.331495" lon="-6.856378">
        <ele>211.3</ele>
        <time>2021-04-14T17:12:26.000Z</time>
      </trkpt>
      <trkpt lat="43.331542" lon="-6.856235">
        <ele>216.2</ele>
        <time>2021-04-14T17:12:31.000Z</time>
      </trkpt>
      <trkpt lat="43.331568" lon="-6.856117">
        <ele>217.3</ele>
        <time>2021-04-14T17:12:34.000Z</time>
      </trkpt>
      <trkpt lat="43.331603" lon="-6.856">
        <ele>217.6</ele>
        <time>2021-04-14T17:12:37.000Z</time>
      </trkpt>
      <trkpt lat="43.33162" lon="-6.85584">
        <ele>216.3</ele>
        <time>2021-04-14T17:12:41.000Z</time>
      </trkpt>
      <trkpt lat="43.331612" lon="-6.855707">
        <ele>215.3</ele>
        <time>2021-04-14T17:12:45.000Z</time>
      </trkpt>
      <trkpt lat="43.331612" lon="-6.85558">
        <ele>213.6</ele>
        <time>2021-04-14T17:13:03.000Z</time>
      </trkpt>
      <trkpt lat="43.331607" lon="-6.855423">
        <ele>211.4</ele>
        <time>2021-04-14T17:13:08.000Z</time>
      </trkpt>
      <trkpt lat="43.331618" lon="-6.855297">
        <ele>211.3</ele>
        <time>2021-04-14T17:13:12.000Z</time>
      </trkpt>
      <trkpt lat="43.331708" lon="-6.855242">
        <ele>208.6</ele>
        <time>2021-04-14T17:13:57.000Z</time>
      </trkpt>
      <trkpt lat="43.331795" lon="-6.855325">
        <ele>208.5</ele>
        <time>2021-04-14T17:14:01.000Z</time>
      </trkpt>
      <trkpt lat="43.33187" lon="-6.855393">
        <ele>208.6</ele>
        <time>2021-04-14T17:14:04.000Z</time>
      </trkpt>
      <trkpt lat="43.33195" lon="-6.855468">
        <ele>208.7</ele>
        <time>2021-04-14T17:14:07.000Z</time>
      </trkpt>
      <trkpt lat="43.332042" lon="-6.855548">
        <ele>209</ele>
        <time>2021-04-14T17:14:11.000Z</time>
      </trkpt>
      <trkpt lat="43.332137" lon="-6.855617">
        <ele>209.8</ele>
        <time>2021-04-14T17:14:15.000Z</time>
      </trkpt>
      <trkpt lat="43.332223" lon="-6.855688">
        <ele>210.4</ele>
        <time>2021-04-14T17:14:18.000Z</time>
      </trkpt>
      <trkpt lat="43.332308" lon="-6.855763">
        <ele>211.2</ele>
        <time>2021-04-14T17:14:21.000Z</time>
      </trkpt>
      <trkpt lat="43.332398" lon="-6.855842">
        <ele>211.4</ele>
        <time>2021-04-14T17:14:24.000Z</time>
      </trkpt>
      <trkpt lat="43.33248" lon="-6.85594">
        <ele>211.1</ele>
        <time>2021-04-14T17:14:28.000Z</time>
      </trkpt>
      <trkpt lat="43.332562" lon="-6.856002">
        <ele>211.3</ele>
        <time>2021-04-14T17:14:32.000Z</time>
      </trkpt>
      <trkpt lat="43.332655" lon="-6.85602">
        <ele>210.9</ele>
        <time>2021-04-14T17:14:38.000Z</time>
      </trkpt>
      <trkpt lat="43.33275" lon="-6.856018">
        <ele>210.6</ele>
        <time>2021-04-14T17:14:44.000Z</time>
      </trkpt>
      <trkpt lat="43.332865" lon="-6.856017">
        <ele>210.1</ele>
        <time>2021-04-14T17:14:48.000Z</time>
      </trkpt>
      <trkpt lat="43.332967" lon="-6.856015">
        <ele>209.5</ele>
        <time>2021-04-14T17:14:51.000Z</time>
      </trkpt>
      <trkpt lat="43.333073" lon="-6.856042">
        <ele>203.9</ele>
        <time>2021-04-14T17:14:55.000Z</time>
      </trkpt>
      <trkpt lat="43.333173" lon="-6.856005">
        <ele>204.2</ele>
        <time>2021-04-14T17:15:00.000Z</time>
      </trkpt>
      <trkpt lat="43.333265" lon="-6.855957">
        <ele>203.7</ele>
        <time>2021-04-14T17:15:03.000Z</time>
      </trkpt>
      <trkpt lat="43.33336" lon="-6.855893">
        <ele>203.9</ele>
        <time>2021-04-14T17:15:06.000Z</time>
      </trkpt>
      <trkpt lat="43.33345" lon="-6.85584">
        <ele>204.7</ele>
        <time>2021-04-14T17:15:09.000Z</time>
      </trkpt>
      <trkpt lat="43.333515" lon="-6.85573">
        <ele>205.7</ele>
        <time>2021-04-14T17:15:13.000Z</time>
      </trkpt>
      <trkpt lat="43.333523" lon="-6.855577">
        <ele>208</ele>
        <time>2021-04-14T17:15:17.000Z</time>
      </trkpt>
      <trkpt lat="43.333492" lon="-6.855428">
        <ele>210.3</ele>
        <time>2021-04-14T17:15:21.000Z</time>
      </trkpt>
      <trkpt lat="43.333473" lon="-6.855297">
        <ele>211.7</ele>
        <time>2021-04-14T17:15:25.000Z</time>
      </trkpt>
      <trkpt lat="43.333483" lon="-6.855163">
        <ele>212.8</ele>
        <time>2021-04-14T17:15:29.000Z</time>
      </trkpt>
      <trkpt lat="43.333513" lon="-6.855012">
        <ele>211.6</ele>
        <time>2021-04-14T17:15:34.000Z</time>
      </trkpt>
      <trkpt lat="43.33355" lon="-6.854877">
        <ele>211.3</ele>
        <time>2021-04-14T17:15:38.000Z</time>
      </trkpt>
      <trkpt lat="43.333572" lon="-6.854735">
        <ele>215.1</ele>
        <time>2021-04-14T17:15:42.000Z</time>
      </trkpt>
      <trkpt lat="43.333582" lon="-6.854593">
        <ele>216.6</ele>
        <time>2021-04-14T17:15:46.000Z</time>
      </trkpt>
      <trkpt lat="43.333597" lon="-6.854452">
        <ele>218.9</ele>
        <time>2021-04-14T17:15:50.000Z</time>
      </trkpt>
      <trkpt lat="43.333628" lon="-6.854325">
        <ele>219.5</ele>
        <time>2021-04-14T17:15:54.000Z</time>
      </trkpt>
      <trkpt lat="43.333683" lon="-6.854215">
        <ele>221.6</ele>
        <time>2021-04-14T17:15:58.000Z</time>
      </trkpt>
      <trkpt lat="43.333797" lon="-6.854097">
        <ele>225.8</ele>
        <time>2021-04-14T17:17:45.000Z</time>
      </trkpt>
      <trkpt lat="43.3339" lon="-6.854097">
        <ele>225.3</ele>
        <time>2021-04-14T17:17:51.000Z</time>
      </trkpt>
      <trkpt lat="43.334013" lon="-6.854137">
        <ele>223.9</ele>
        <time>2021-04-14T17:17:56.000Z</time>
      </trkpt>
      <trkpt lat="43.334103" lon="-6.85419">
        <ele>222.9</ele>
        <time>2021-04-14T17:18:00.000Z</time>
      </trkpt>
      <trkpt lat="43.334187" lon="-6.854257">
        <ele>222.9</ele>
        <time>2021-04-14T17:18:03.000Z</time>
      </trkpt>
      <trkpt lat="43.334282" lon="-6.854333">
        <ele>223</ele>
        <time>2021-04-14T17:18:07.000Z</time>
      </trkpt>
      <trkpt lat="43.334382" lon="-6.854405">
        <ele>222.9</ele>
        <time>2021-04-14T17:18:11.000Z</time>
      </trkpt>
      <trkpt lat="43.334472" lon="-6.854443">
        <ele>221.8</ele>
        <time>2021-04-14T17:18:14.000Z</time>
      </trkpt>
      <trkpt lat="43.334568" lon="-6.85447">
        <ele>223.8</ele>
        <time>2021-04-14T17:18:18.000Z</time>
      </trkpt>
      <trkpt lat="43.334662" lon="-6.854505">
        <ele>225.4</ele>
        <time>2021-04-14T17:18:23.000Z</time>
      </trkpt>
      <trkpt lat="43.334758" lon="-6.854527">
        <ele>226.6</ele>
        <time>2021-04-14T17:18:27.000Z</time>
      </trkpt>
      <trkpt lat="43.334862" lon="-6.854547">
        <ele>229</ele>
        <time>2021-04-14T17:18:31.000Z</time>
      </trkpt>
      <trkpt lat="43.334958" lon="-6.85459">
        <ele>232.3</ele>
        <time>2021-04-14T17:18:35.000Z</time>
      </trkpt>
      <trkpt lat="43.335047" lon="-6.85462">
        <ele>236.3</ele>
        <time>2021-04-14T17:18:40.000Z</time>
      </trkpt>
      <trkpt lat="43.335137" lon="-6.854648">
        <ele>238.5</ele>
        <time>2021-04-14T17:18:44.000Z</time>
      </trkpt>
      <trkpt lat="43.335243" lon="-6.854678">
        <ele>239.2</ele>
        <time>2021-04-14T17:18:48.000Z</time>
      </trkpt>
      <trkpt lat="43.335335" lon="-6.854712">
        <ele>241.4</ele>
        <time>2021-04-14T17:18:53.000Z</time>
      </trkpt>
      <trkpt lat="43.335417" lon="-6.854783">
        <ele>241.7</ele>
        <time>2021-04-14T17:18:57.000Z</time>
      </trkpt>
      <trkpt lat="43.3355" lon="-6.854857">
        <ele>240.9</ele>
        <time>2021-04-14T17:19:02.000Z</time>
      </trkpt>
      <trkpt lat="43.335592" lon="-6.85488">
        <ele>242</ele>
        <time>2021-04-14T17:19:06.000Z</time>
      </trkpt>
      <trkpt lat="43.335705" lon="-6.85487">
        <ele>243.8</ele>
        <time>2021-04-14T17:19:10.000Z</time>
      </trkpt>
      <trkpt lat="43.335798" lon="-6.854868">
        <ele>245.8</ele>
        <time>2021-04-14T17:19:14.000Z</time>
      </trkpt>
      <trkpt lat="43.335898" lon="-6.854852">
        <ele>250.6</ele>
        <time>2021-04-14T17:19:21.000Z</time>
      </trkpt>
      <trkpt lat="43.335995" lon="-6.854823">
        <ele>253.7</ele>
        <time>2021-04-14T17:19:25.000Z</time>
      </trkpt>
      <trkpt lat="43.336097" lon="-6.854817">
        <ele>254.4</ele>
        <time>2021-04-14T17:19:29.000Z</time>
      </trkpt>
      <trkpt lat="43.336207" lon="-6.854832">
        <ele>254.4</ele>
        <time>2021-04-14T17:19:33.000Z</time>
      </trkpt>
      <trkpt lat="43.336298" lon="-6.85481">
        <ele>255.9</ele>
        <time>2021-04-14T17:19:38.000Z</time>
      </trkpt>
      <trkpt lat="43.336347" lon="-6.854693">
        <ele>258.6</ele>
        <time>2021-04-14T17:19:43.000Z</time>
      </trkpt>
      <trkpt lat="43.336392" lon="-6.854572">
        <ele>258.9</ele>
        <time>2021-04-14T17:19:46.000Z</time>
      </trkpt>
      <trkpt lat="43.336452" lon="-6.854437">
        <ele>256.6</ele>
        <time>2021-04-14T17:19:49.000Z</time>
      </trkpt>
      <trkpt lat="43.336492" lon="-6.854305">
        <ele>255.5</ele>
        <time>2021-04-14T17:19:52.000Z</time>
      </trkpt>
      <trkpt lat="43.336525" lon="-6.854175">
        <ele>256.6</ele>
        <time>2021-04-14T17:19:55.000Z</time>
      </trkpt>
      <trkpt lat="43.336533" lon="-6.854027">
        <ele>257.8</ele>
        <time>2021-04-14T17:19:59.000Z</time>
      </trkpt>
      <trkpt lat="43.336532" lon="-6.853843">
        <ele>258</ele>
        <time>2021-04-14T17:20:04.000Z</time>
      </trkpt>
      <trkpt lat="43.336522" lon="-6.853695">
        <ele>262.3</ele>
        <time>2021-04-14T17:20:08.000Z</time>
      </trkpt>
      <trkpt lat="43.336515" lon="-6.85356">
        <ele>267.2</ele>
        <time>2021-04-14T17:20:12.000Z</time>
      </trkpt>
      <trkpt lat="43.336532" lon="-6.853427">
        <ele>267.4</ele>
        <time>2021-04-14T17:20:16.000Z</time>
      </trkpt>
      <trkpt lat="43.336552" lon="-6.853295">
        <ele>264.3</ele>
        <time>2021-04-14T17:20:21.000Z</time>
      </trkpt>
      <trkpt lat="43.336547" lon="-6.85317">
        <ele>266.9</ele>
        <time>2021-04-14T17:20:26.000Z</time>
      </trkpt>
      <trkpt lat="43.336568" lon="-6.853032">
        <ele>268.9</ele>
        <time>2021-04-14T17:20:32.000Z</time>
      </trkpt>
      <trkpt lat="43.336643" lon="-6.852808">
        <ele>273.3</ele>
        <time>2021-04-14T17:20:53.000Z</time>
      </trkpt>
      <trkpt lat="43.336708" lon="-6.852717">
        <ele>273</ele>
        <time>2021-04-14T17:21:00.000Z</time>
      </trkpt>
      <trkpt lat="43.336767" lon="-6.852613">
        <ele>274.5</ele>
        <time>2021-04-14T17:21:10.000Z</time>
      </trkpt>
      <trkpt lat="43.336838" lon="-6.85252">
        <ele>276.1</ele>
        <time>2021-04-14T17:21:20.000Z</time>
      </trkpt>
      <trkpt lat="43.33692" lon="-6.852437">
        <ele>278.4</ele>
        <time>2021-04-14T17:21:28.000Z</time>
      </trkpt>
      <trkpt lat="43.336993" lon="-6.852363">
        <ele>279.6</ele>
        <time>2021-04-14T17:21:34.000Z</time>
      </trkpt>
      <trkpt lat="43.337075" lon="-6.852295">
        <ele>279.3</ele>
        <time>2021-04-14T17:21:40.000Z</time>
      </trkpt>
      <trkpt lat="43.337147" lon="-6.852213">
        <ele>281.3</ele>
        <time>2021-04-14T17:21:48.000Z</time>
      </trkpt>
      <trkpt lat="43.337223" lon="-6.852137">
        <ele>284.4</ele>
        <time>2021-04-14T17:21:56.000Z</time>
      </trkpt>
      <trkpt lat="43.33731" lon="-6.852073">
        <ele>284.9</ele>
        <time>2021-04-14T17:22:04.000Z</time>
      </trkpt>
      <trkpt lat="43.337388" lon="-6.851995">
        <ele>286.1</ele>
        <time>2021-04-14T17:22:11.000Z</time>
      </trkpt>
      <trkpt lat="43.337462" lon="-6.851908">
        <ele>287.1</ele>
        <time>2021-04-14T17:22:19.000Z</time>
      </trkpt>
      <trkpt lat="43.337553" lon="-6.851857">
        <ele>288.1</ele>
        <time>2021-04-14T17:22:26.000Z</time>
      </trkpt>
      <trkpt lat="43.337648" lon="-6.851795">
        <ele>289.7</ele>
        <time>2021-04-14T17:22:31.000Z</time>
      </trkpt>
      <trkpt lat="43.33774" lon="-6.851738">
        <ele>292.7</ele>
        <time>2021-04-14T17:22:36.000Z</time>
      </trkpt>
      <trkpt lat="43.337823" lon="-6.851668">
        <ele>294.9</ele>
        <time>2021-04-14T17:22:42.000Z</time>
      </trkpt>
      <trkpt lat="43.337913" lon="-6.85159">
        <ele>297.5</ele>
        <time>2021-04-14T17:22:48.000Z</time>
      </trkpt>
      <trkpt lat="43.337998" lon="-6.851538">
        <ele>299.5</ele>
        <time>2021-04-14T17:22:53.000Z</time>
      </trkpt>
      <trkpt lat="43.338118" lon="-6.851532">
        <ele>296.3</ele>
        <time>2021-04-14T17:22:58.000Z</time>
      </trkpt>
      <trkpt lat="43.338213" lon="-6.851478">
        <ele>293.1</ele>
        <time>2021-04-14T17:23:02.000Z</time>
      </trkpt>
      <trkpt lat="43.338302" lon="-6.851387">
        <ele>295.3</ele>
        <time>2021-04-14T17:23:06.000Z</time>
      </trkpt>
      <trkpt lat="43.338395" lon="-6.851315">
        <ele>300</ele>
        <time>2021-04-14T17:23:11.000Z</time>
      </trkpt>
      <trkpt lat="43.338483" lon="-6.85129">
        <ele>300</ele>
        <time>2021-04-14T17:23:15.000Z</time>
      </trkpt>
      <trkpt lat="43.338572" lon="-6.851218">
        <ele>302.6</ele>
        <time>2021-04-14T17:23:20.000Z</time>
      </trkpt>
      <trkpt lat="43.338657" lon="-6.851177">
        <ele>306.1</ele>
        <time>2021-04-14T17:23:24.000Z</time>
      </trkpt>
      <trkpt lat="43.338745" lon="-6.851128">
        <ele>310</ele>
        <time>2021-04-14T17:23:29.000Z</time>
      </trkpt>
      <trkpt lat="43.33888" lon="-6.851102">
        <ele>311.5</ele>
        <time>2021-04-14T17:23:34.000Z</time>
      </trkpt>
      <trkpt lat="43.338982" lon="-6.851087">
        <ele>312.2</ele>
        <time>2021-04-14T17:23:38.000Z</time>
      </trkpt>
      <trkpt lat="43.339072" lon="-6.851055">
        <ele>315</ele>
        <time>2021-04-14T17:23:42.000Z</time>
      </trkpt>
      <trkpt lat="43.339168" lon="-6.851035">
        <ele>318.4</ele>
        <time>2021-04-14T17:23:47.000Z</time>
      </trkpt>
      <trkpt lat="43.33927" lon="-6.850987">
        <ele>320.2</ele>
        <time>2021-04-14T17:23:53.000Z</time>
      </trkpt>
      <trkpt lat="43.339365" lon="-6.850922">
        <ele>320.7</ele>
        <time>2021-04-14T17:24:21.000Z</time>
      </trkpt>
      <trkpt lat="43.339468" lon="-6.850925">
        <ele>322.5</ele>
        <time>2021-04-14T17:24:27.000Z</time>
      </trkpt>
      <trkpt lat="43.339588" lon="-6.850932">
        <ele>322.9</ele>
        <time>2021-04-14T17:24:58.000Z</time>
      </trkpt>
      <trkpt lat="43.339682" lon="-6.850885">
        <ele>322</ele>
        <time>2021-04-14T17:25:04.000Z</time>
      </trkpt>
      <trkpt lat="43.339768" lon="-6.85082">
        <ele>324.8</ele>
        <time>2021-04-14T17:25:09.000Z</time>
      </trkpt>
      <trkpt lat="43.339855" lon="-6.85078">
        <ele>323.2</ele>
        <time>2021-04-14T17:25:13.000Z</time>
      </trkpt>
      <trkpt lat="43.339953" lon="-6.850742">
        <ele>321.1</ele>
        <time>2021-04-14T17:25:17.000Z</time>
      </trkpt>
      <trkpt lat="43.340038" lon="-6.850688">
        <ele>323.1</ele>
        <time>2021-04-14T17:25:21.000Z</time>
      </trkpt>
      <trkpt lat="43.340108" lon="-6.850583">
        <ele>329.5</ele>
        <time>2021-04-14T17:25:26.000Z</time>
      </trkpt>
      <trkpt lat="43.340137" lon="-6.850458">
        <ele>334.6</ele>
        <time>2021-04-14T17:25:32.000Z</time>
      </trkpt>
      <trkpt lat="43.3401" lon="-6.850313">
        <ele>336.6</ele>
        <time>2021-04-14T17:25:37.000Z</time>
      </trkpt>
      <trkpt lat="43.340063" lon="-6.850173">
        <ele>339.5</ele>
        <time>2021-04-14T17:27:59.000Z</time>
      </trkpt>
      <trkpt lat="43.340033" lon="-6.850038">
        <ele>341.2</ele>
        <time>2021-04-14T17:28:03.000Z</time>
      </trkpt>
      <trkpt lat="43.340022" lon="-6.849902">
        <ele>343.4</ele>
        <time>2021-04-14T17:28:07.000Z</time>
      </trkpt>
      <trkpt lat="43.340033" lon="-6.849767">
        <ele>345.1</ele>
        <time>2021-04-14T17:28:11.000Z</time>
      </trkpt>
      <trkpt lat="43.34005" lon="-6.849628">
        <ele>346.7</ele>
        <time>2021-04-14T17:28:15.000Z</time>
      </trkpt>
      <trkpt lat="43.340077" lon="-6.849492">
        <ele>347</ele>
        <time>2021-04-14T17:28:19.000Z</time>
      </trkpt>
      <trkpt lat="43.340105" lon="-6.849372">
        <ele>349.7</ele>
        <time>2021-04-14T17:28:23.000Z</time>
      </trkpt>
      <trkpt lat="43.340135" lon="-6.84923">
        <ele>353.8</ele>
        <time>2021-04-14T17:28:27.000Z</time>
      </trkpt>
      <trkpt lat="43.340182" lon="-6.8491">
        <ele>354.5</ele>
        <time>2021-04-14T17:28:31.000Z</time>
      </trkpt>
      <trkpt lat="43.340222" lon="-6.848983">
        <ele>354.6</ele>
        <time>2021-04-14T17:28:35.000Z</time>
      </trkpt>
      <trkpt lat="43.340268" lon="-6.848863">
        <ele>354.1</ele>
        <time>2021-04-14T17:28:40.000Z</time>
      </trkpt>
      <trkpt lat="43.340315" lon="-6.848738">
        <ele>355.1</ele>
        <time>2021-04-14T17:28:44.000Z</time>
      </trkpt>
      <trkpt lat="43.34035" lon="-6.848615">
        <ele>357.2</ele>
        <time>2021-04-14T17:28:47.000Z</time>
      </trkpt>
      <trkpt lat="43.34038" lon="-6.848492">
        <ele>361.8</ele>
        <time>2021-04-14T17:28:51.000Z</time>
      </trkpt>
      <trkpt lat="43.340418" lon="-6.84836">
        <ele>364.3</ele>
        <time>2021-04-14T17:28:55.000Z</time>
      </trkpt>
      <trkpt lat="43.340448" lon="-6.848213">
        <ele>367.6</ele>
        <time>2021-04-14T17:28:59.000Z</time>
      </trkpt>
      <trkpt lat="43.340483" lon="-6.84806">
        <ele>369.2</ele>
        <time>2021-04-14T17:29:03.000Z</time>
      </trkpt>
      <trkpt lat="43.34052" lon="-6.847913">
        <ele>371</ele>
        <time>2021-04-14T17:29:07.000Z</time>
      </trkpt>
      <trkpt lat="43.34055" lon="-6.847762">
        <ele>370.9</ele>
        <time>2021-04-14T17:29:11.000Z</time>
      </trkpt>
      <trkpt lat="43.34058" lon="-6.847623">
        <ele>371.6</ele>
        <time>2021-04-14T17:29:15.000Z</time>
      </trkpt>
      <trkpt lat="43.340583" lon="-6.847463">
        <ele>377.8</ele>
        <time>2021-04-14T17:29:19.000Z</time>
      </trkpt>
      <trkpt lat="43.340582" lon="-6.847325">
        <ele>382.1</ele>
        <time>2021-04-14T17:29:23.000Z</time>
      </trkpt>
      <trkpt lat="43.340552" lon="-6.847203">
        <ele>386.1</ele>
        <time>2021-04-14T17:29:26.000Z</time>
      </trkpt>
      <trkpt lat="43.340523" lon="-6.847077">
        <ele>389.3</ele>
        <time>2021-04-14T17:29:29.000Z</time>
      </trkpt>
      <trkpt lat="43.340492" lon="-6.84695">
        <ele>393.4</ele>
        <time>2021-04-14T17:29:33.000Z</time>
      </trkpt>
      <trkpt lat="43.340473" lon="-6.846795">
        <ele>395.7</ele>
        <time>2021-04-14T17:29:38.000Z</time>
      </trkpt>
      <trkpt lat="43.340462" lon="-6.846665">
        <ele>396.9</ele>
        <time>2021-04-14T17:29:41.000Z</time>
      </trkpt>
      <trkpt lat="43.340445" lon="-6.846512">
        <ele>397.9</ele>
        <time>2021-04-14T17:29:45.000Z</time>
      </trkpt>
      <trkpt lat="43.340423" lon="-6.846373">
        <ele>401.1</ele>
        <time>2021-04-14T17:29:49.000Z</time>
      </trkpt>
      <trkpt lat="43.340403" lon="-6.846237">
        <ele>405.1</ele>
        <time>2021-04-14T17:29:53.000Z</time>
      </trkpt>
      <trkpt lat="43.340392" lon="-6.846107">
        <ele>408.5</ele>
        <time>2021-04-14T17:29:57.000Z</time>
      </trkpt>
      <trkpt lat="43.340388" lon="-6.845968">
        <ele>410</ele>
        <time>2021-04-14T17:30:01.000Z</time>
      </trkpt>
      <trkpt lat="43.340378" lon="-6.84581">
        <ele>413</ele>
        <time>2021-04-14T17:30:05.000Z</time>
      </trkpt>
      <trkpt lat="43.340422" lon="-6.845668">
        <ele>415.3</ele>
        <time>2021-04-14T17:30:09.000Z</time>
      </trkpt>
      <trkpt lat="43.340525" lon="-6.845627">
        <ele>415.9</ele>
        <time>2021-04-14T17:30:13.000Z</time>
      </trkpt>
      <trkpt lat="43.340647" lon="-6.84566">
        <ele>414.7</ele>
        <time>2021-04-14T17:30:16.000Z</time>
      </trkpt>
      <trkpt lat="43.340768" lon="-6.845705">
        <ele>412.7</ele>
        <time>2021-04-14T17:30:19.000Z</time>
      </trkpt>
      <trkpt lat="43.340878" lon="-6.84575">
        <ele>411.1</ele>
        <time>2021-04-14T17:30:22.000Z</time>
      </trkpt>
      <trkpt lat="43.340972" lon="-6.845808">
        <ele>412.8</ele>
        <time>2021-04-14T17:30:26.000Z</time>
      </trkpt>
      <trkpt lat="43.341063" lon="-6.845883">
        <ele>414.6</ele>
        <time>2021-04-14T17:30:30.000Z</time>
      </trkpt>
      <trkpt lat="43.341138" lon="-6.845952">
        <ele>416.5</ele>
        <time>2021-04-14T17:30:33.000Z</time>
      </trkpt>
      <trkpt lat="43.341225" lon="-6.846037">
        <ele>418.1</ele>
        <time>2021-04-14T17:30:36.000Z</time>
      </trkpt>
      <trkpt lat="43.341305" lon="-6.84613">
        <ele>417.5</ele>
        <time>2021-04-14T17:30:39.000Z</time>
      </trkpt>
      <trkpt lat="43.341382" lon="-6.846233">
        <ele>416.7</ele>
        <time>2021-04-14T17:30:43.000Z</time>
      </trkpt>
      <trkpt lat="43.341465" lon="-6.846333">
        <ele>417.7</ele>
        <time>2021-04-14T17:30:47.000Z</time>
      </trkpt>
      <trkpt lat="43.34154" lon="-6.846413">
        <ele>417.1</ele>
        <time>2021-04-14T17:30:50.000Z</time>
      </trkpt>
      <trkpt lat="43.341612" lon="-6.846513">
        <ele>413.4</ele>
        <time>2021-04-14T17:30:53.000Z</time>
      </trkpt>
      <trkpt lat="43.341682" lon="-6.846638">
        <ele>413.8</ele>
        <time>2021-04-14T17:30:56.000Z</time>
      </trkpt>
      <trkpt lat="43.341722" lon="-6.846775">
        <ele>416.2</ele>
        <time>2021-04-14T17:30:59.000Z</time>
      </trkpt>
      <trkpt lat="43.341733" lon="-6.846903">
        <ele>418.8</ele>
        <time>2021-04-14T17:31:02.000Z</time>
      </trkpt>
      <trkpt lat="43.34173" lon="-6.847065">
        <ele>419.6</ele>
        <time>2021-04-14T17:31:06.000Z</time>
      </trkpt>
      <trkpt lat="43.341732" lon="-6.847223">
        <ele>421.5</ele>
        <time>2021-04-14T17:31:10.000Z</time>
      </trkpt>
      <trkpt lat="43.341722" lon="-6.847367">
        <ele>425</ele>
        <time>2021-04-14T17:31:14.000Z</time>
      </trkpt>
      <trkpt lat="43.341703" lon="-6.847493">
        <ele>430.7</ele>
        <time>2021-04-14T17:31:20.000Z</time>
      </trkpt>
      <trkpt lat="43.34172" lon="-6.847625">
        <ele>435</ele>
        <time>2021-04-14T17:31:24.000Z</time>
      </trkpt>
      <trkpt lat="43.341745" lon="-6.847768">
        <ele>437</ele>
        <time>2021-04-14T17:31:28.000Z</time>
      </trkpt>
      <trkpt lat="43.341753" lon="-6.847918">
        <ele>437.4</ele>
        <time>2021-04-14T17:31:32.000Z</time>
      </trkpt>
      <trkpt lat="43.341758" lon="-6.848077">
        <ele>439.6</ele>
        <time>2021-04-14T17:31:36.000Z</time>
      </trkpt>
      <trkpt lat="43.34176" lon="-6.84824">
        <ele>441.5</ele>
        <time>2021-04-14T17:31:40.000Z</time>
      </trkpt>
      <trkpt lat="43.341788" lon="-6.84837">
        <ele>440.6</ele>
        <time>2021-04-14T17:31:43.000Z</time>
      </trkpt>
      <trkpt lat="43.341815" lon="-6.848498">
        <ele>441.9</ele>
        <time>2021-04-14T17:31:46.000Z</time>
      </trkpt>
      <trkpt lat="43.341848" lon="-6.848633">
        <ele>441.6</ele>
        <time>2021-04-14T17:31:49.000Z</time>
      </trkpt>
      <trkpt lat="43.34189" lon="-6.848762">
        <ele>441.5</ele>
        <time>2021-04-14T17:31:52.000Z</time>
      </trkpt>
      <trkpt lat="43.341928" lon="-6.84889">
        <ele>441.7</ele>
        <time>2021-04-14T17:31:55.000Z</time>
      </trkpt>
      <trkpt lat="43.341967" lon="-6.849012">
        <ele>442.6</ele>
        <time>2021-04-14T17:31:58.000Z</time>
      </trkpt>
      <trkpt lat="43.342007" lon="-6.849127">
        <ele>444.3</ele>
        <time>2021-04-14T17:32:01.000Z</time>
      </trkpt>
      <trkpt lat="43.34206" lon="-6.849247">
        <ele>444.6</ele>
        <time>2021-04-14T17:32:04.000Z</time>
      </trkpt>
      <trkpt lat="43.342108" lon="-6.849358">
        <ele>445</ele>
        <time>2021-04-14T17:32:07.000Z</time>
      </trkpt>
      <trkpt lat="43.342168" lon="-6.849497">
        <ele>447.1</ele>
        <time>2021-04-14T17:32:11.000Z</time>
      </trkpt>
      <trkpt lat="43.342217" lon="-6.849623">
        <ele>450.9</ele>
        <time>2021-04-14T17:32:16.000Z</time>
      </trkpt>
      <trkpt lat="43.342278" lon="-6.849732">
        <ele>454.6</ele>
        <time>2021-04-14T17:32:22.000Z</time>
      </trkpt>
      <trkpt lat="43.342337" lon="-6.849827">
        <ele>454.7</ele>
        <time>2021-04-14T17:32:26.000Z</time>
      </trkpt>
      <trkpt lat="43.342403" lon="-6.849938">
        <ele>454.2</ele>
        <time>2021-04-14T17:32:31.000Z</time>
      </trkpt>
      <trkpt lat="43.342487" lon="-6.850027">
        <ele>453.1</ele>
        <time>2021-04-14T17:32:36.000Z</time>
      </trkpt>
      <trkpt lat="43.342565" lon="-6.850132">
        <ele>451.7</ele>
        <time>2021-04-14T17:32:41.000Z</time>
      </trkpt>
      <trkpt lat="43.34264" lon="-6.850207">
        <ele>449.4</ele>
        <time>2021-04-14T17:32:45.000Z</time>
      </trkpt>
      <trkpt lat="43.342728" lon="-6.850338">
        <ele>449.6</ele>
        <time>2021-04-14T17:32:59.000Z</time>
      </trkpt>
      <trkpt lat="43.342782" lon="-6.850448">
        <ele>454.5</ele>
        <time>2021-04-14T17:33:07.000Z</time>
      </trkpt>
      <trkpt lat="43.34284" lon="-6.850547">
        <ele>456</ele>
        <time>2021-04-14T17:33:13.000Z</time>
      </trkpt>
      <trkpt lat="43.342903" lon="-6.85066">
        <ele>456.6</ele>
        <time>2021-04-14T17:33:20.000Z</time>
      </trkpt>
      <trkpt lat="43.342918" lon="-6.850802">
        <ele>457.6</ele>
        <time>2021-04-14T17:33:25.000Z</time>
      </trkpt>
      <trkpt lat="43.34293" lon="-6.850928">
        <ele>459.2</ele>
        <time>2021-04-14T17:33:29.000Z</time>
      </trkpt>
      <trkpt lat="43.34293" lon="-6.851058">
        <ele>464.4</ele>
        <time>2021-04-14T17:33:33.000Z</time>
      </trkpt>
      <trkpt lat="43.34296" lon="-6.851182">
        <ele>466.5</ele>
        <time>2021-04-14T17:33:37.000Z</time>
      </trkpt>
      <trkpt lat="43.342975" lon="-6.851325">
        <ele>469.5</ele>
        <time>2021-04-14T17:33:42.000Z</time>
      </trkpt>
      <trkpt lat="43.343005" lon="-6.851467">
        <ele>470.3</ele>
        <time>2021-04-14T17:33:47.000Z</time>
      </trkpt>
      <trkpt lat="43.343032" lon="-6.851587">
        <ele>470.5</ele>
        <time>2021-04-14T17:33:51.000Z</time>
      </trkpt>
      <trkpt lat="43.343057" lon="-6.851722">
        <ele>470.8</ele>
        <time>2021-04-14T17:33:55.000Z</time>
      </trkpt>
      <trkpt lat="43.343057" lon="-6.851868">
        <ele>470.8</ele>
        <time>2021-04-14T17:33:59.000Z</time>
      </trkpt>
      <trkpt lat="43.342975" lon="-6.851968">
        <ele>472.8</ele>
        <time>2021-04-14T17:34:03.000Z</time>
      </trkpt>
      <trkpt lat="43.342893" lon="-6.852053">
        <ele>476</ele>
        <time>2021-04-14T17:34:06.000Z</time>
      </trkpt>
      <trkpt lat="43.342815" lon="-6.852138">
        <ele>476.8</ele>
        <time>2021-04-14T17:34:09.000Z</time>
      </trkpt>
      <trkpt lat="43.342717" lon="-6.85223">
        <ele>477.7</ele>
        <time>2021-04-14T17:34:12.000Z</time>
      </trkpt>
      <trkpt lat="43.342623" lon="-6.852327">
        <ele>479.7</ele>
        <time>2021-04-14T17:34:15.000Z</time>
      </trkpt>
      <trkpt lat="43.34254" lon="-6.8524">
        <ele>481.5</ele>
        <time>2021-04-14T17:34:18.000Z</time>
      </trkpt>
      <trkpt lat="43.342465" lon="-6.852487">
        <ele>480.9</ele>
        <time>2021-04-14T17:34:22.000Z</time>
      </trkpt>
      <trkpt lat="43.342392" lon="-6.852567">
        <ele>480.6</ele>
        <time>2021-04-14T17:34:25.000Z</time>
      </trkpt>
      <trkpt lat="43.3423" lon="-6.852663">
        <ele>481.9</ele>
        <time>2021-04-14T17:34:28.000Z</time>
      </trkpt>
      <trkpt lat="43.342193" lon="-6.852738">
        <ele>483.6</ele>
        <time>2021-04-14T17:34:31.000Z</time>
      </trkpt>
      <trkpt lat="43.34209" lon="-6.852837">
        <ele>484.3</ele>
        <time>2021-04-14T17:34:34.000Z</time>
      </trkpt>
      <trkpt lat="43.342023" lon="-6.852988">
        <ele>483.6</ele>
        <time>2021-04-14T17:34:37.000Z</time>
      </trkpt>
      <trkpt lat="43.341963" lon="-6.853092">
        <ele>481.5</ele>
        <time>2021-04-14T17:34:41.000Z</time>
      </trkpt>
      <trkpt lat="43.341897" lon="-6.853217">
        <ele>483.1</ele>
        <time>2021-04-14T17:35:22.000Z</time>
      </trkpt>
      <trkpt lat="43.341877" lon="-6.853358">
        <ele>482.1</ele>
        <time>2021-04-14T17:35:25.000Z</time>
      </trkpt>
      <trkpt lat="43.341865" lon="-6.853508">
        <ele>479</ele>
        <time>2021-04-14T17:35:39.000Z</time>
      </trkpt>
      <trkpt lat="43.341833" lon="-6.853668">
        <ele>477.3</ele>
        <time>2021-04-14T17:35:43.000Z</time>
      </trkpt>
      <trkpt lat="43.341827" lon="-6.853802">
        <ele>474.4</ele>
        <time>2021-04-14T17:35:46.000Z</time>
      </trkpt>
      <trkpt lat="43.341848" lon="-6.853962">
        <ele>471</ele>
        <time>2021-04-14T17:35:50.000Z</time>
      </trkpt>
      <trkpt lat="43.34185" lon="-6.854095">
        <ele>470.5</ele>
        <time>2021-04-14T17:35:53.000Z</time>
      </trkpt>
      <trkpt lat="43.341907" lon="-6.854228">
        <ele>469.9</ele>
        <time>2021-04-14T17:35:57.000Z</time>
      </trkpt>
      <trkpt lat="43.341975" lon="-6.854313">
        <ele>468.8</ele>
        <time>2021-04-14T17:36:00.000Z</time>
      </trkpt>
      <trkpt lat="43.342053" lon="-6.854395">
        <ele>470.1</ele>
        <time>2021-04-14T17:36:03.000Z</time>
      </trkpt>
      <trkpt lat="43.342152" lon="-6.854405">
        <ele>467.6</ele>
        <time>2021-04-14T17:36:05.000Z</time>
      </trkpt>
      <trkpt lat="43.342268" lon="-6.854338">
        <ele>468.5</ele>
        <time>2021-04-14T17:36:08.000Z</time>
      </trkpt>
      <trkpt lat="43.342362" lon="-6.854275">
        <ele>468.8</ele>
        <time>2021-04-14T17:36:10.000Z</time>
      </trkpt>
      <trkpt lat="43.34246" lon="-6.85423">
        <ele>469</ele>
        <time>2021-04-14T17:36:12.000Z</time>
      </trkpt>
      <trkpt lat="43.342565" lon="-6.85422">
        <ele>468.9</ele>
        <time>2021-04-14T17:36:15.000Z</time>
      </trkpt>
    </trkseg>
  </trk>
</gpx>
